<?xml version="1.0" encoding="UTF-8" standalone="no" ?>
<gpx xmlns="http://www.topografix.com/GPX/1/1" xmlns:xsi="http://www.w3.org/2001/XMLSchema-instance" xsi:schemaLocation="http://www.topografix.com/GPX/1/1 http://www.topografix.com/GPX/1/1/gpx.xsd" version="1.1" creator="VisuGPX - https://www.visugpx.com">
  <metadata>
    <name>Plateau de Retord et Haut Bugey Mai 2026 #C (jour2)</name>
    <desc><![CDATA[En 2025, lors d'un voyage à vélo empruntant la GTJ Gravel, nous n'avions pas terminé le dernier jour à cause d'une météo défavorable avant d'arriver sur le plateau de Retord.
Objectif 2026 : faire des boucles Gravel sur le plateau de Retord au départ de Hauteville-Lompnes.
5 jours de vélo début mai 2026
Cette trace permet de découvrir des sites touristiques tels que la cascade de Charabotte, le village de Oncieu depuis le belvédère du col d'Évosges, l'étang Buinand ou le village d'Évosges ... Le tout se situant à l'ouest de Hauteville-Lompnes.]]></desc>
  </metadata>
  <trk>
    <name><![CDATA[Plateau de Retord et Haut Bugey Mai 2026 #C (jour2)_1]]></name>
    <trkseg>
      <trkpt lat="45.97823" lon="5.60151">
        <ele>802.4</ele>
        <time>2026-05-11T08:07:29Z</time>
      </trkpt>
      <trkpt lat="45.97822" lon="5.60144">
        <ele>802</ele>
        <time>2026-05-11T08:07:30Z</time>
      </trkpt>
      <trkpt lat="45.97821" lon="5.60136">
        <ele>802</ele>
        <time>2026-05-11T08:07:31Z</time>
      </trkpt>
      <trkpt lat="45.97817" lon="5.6013">
        <ele>802</ele>
        <time>2026-05-11T08:07:32Z</time>
      </trkpt>
      <trkpt lat="45.97815" lon="5.60123">
        <ele>801.6</ele>
        <time>2026-05-11T08:07:33Z</time>
      </trkpt>
      <trkpt lat="45.97813" lon="5.60117">
        <ele>801.6</ele>
        <time>2026-05-11T08:07:34Z</time>
      </trkpt>
      <trkpt lat="45.97811" lon="5.60112">
        <ele>801.6</ele>
        <time>2026-05-11T08:07:35Z</time>
      </trkpt>
      <trkpt lat="45.9781" lon="5.60108">
        <ele>801.6</ele>
        <time>2026-05-11T08:07:36Z</time>
      </trkpt>
      <trkpt lat="45.97808" lon="5.60106">
        <ele>801.6</ele>
        <time>2026-05-11T08:07:37Z</time>
      </trkpt>
      <trkpt lat="45.97808" lon="5.60105">
        <ele>801.6</ele>
        <time>2026-05-11T08:07:38Z</time>
      </trkpt>
      <trkpt lat="45.97808" lon="5.60102">
        <ele>801.6</ele>
        <time>2026-05-11T08:07:39Z</time>
      </trkpt>
      <trkpt lat="45.97807" lon="5.60101">
        <ele>801.6</ele>
        <time>2026-05-11T08:07:40Z</time>
      </trkpt>
      <trkpt lat="45.97806" lon="5.60099">
        <ele>801.6</ele>
        <time>2026-05-11T08:07:41Z</time>
      </trkpt>
      <trkpt lat="45.97805" lon="5.60096">
        <ele>801.6</ele>
        <time>2026-05-11T08:07:42Z</time>
      </trkpt>
      <trkpt lat="45.97804" lon="5.60093">
        <ele>801.2</ele>
        <time>2026-05-11T08:07:43Z</time>
      </trkpt>
      <trkpt lat="45.97803" lon="5.60092">
        <ele>801.2</ele>
        <time>2026-05-11T08:07:44Z</time>
      </trkpt>
      <trkpt lat="45.978" lon="5.60088">
        <ele>801.2</ele>
        <time>2026-05-11T08:07:45Z</time>
      </trkpt>
      <trkpt lat="45.97798" lon="5.60084">
        <ele>801</ele>
        <time>2026-05-11T08:07:46Z</time>
      </trkpt>
      <trkpt lat="45.97796" lon="5.6008">
        <ele>801</ele>
        <time>2026-05-11T08:07:47Z</time>
      </trkpt>
      <trkpt lat="45.97794" lon="5.60075">
        <ele>801</ele>
        <time>2026-05-11T08:07:48Z</time>
      </trkpt>
      <trkpt lat="45.97792" lon="5.6007">
        <ele>801</ele>
        <time>2026-05-11T08:07:49Z</time>
      </trkpt>
      <trkpt lat="45.9779" lon="5.60064">
        <ele>800.6</ele>
        <time>2026-05-11T08:07:50Z</time>
      </trkpt>
      <trkpt lat="45.9779" lon="5.60056">
        <ele>800.6</ele>
        <time>2026-05-11T08:07:51Z</time>
      </trkpt>
      <trkpt lat="45.97789" lon="5.6005">
        <ele>800.6</ele>
        <time>2026-05-11T08:07:52Z</time>
      </trkpt>
      <trkpt lat="45.97787" lon="5.60043">
        <ele>800.4</ele>
        <time>2026-05-11T08:07:53Z</time>
      </trkpt>
      <trkpt lat="45.97786" lon="5.60036">
        <ele>800</ele>
        <time>2026-05-11T08:07:54Z</time>
      </trkpt>
      <trkpt lat="45.97786" lon="5.60029">
        <ele>800</ele>
        <time>2026-05-11T08:07:55Z</time>
      </trkpt>
      <trkpt lat="45.97786" lon="5.6002">
        <ele>799.8</ele>
        <time>2026-05-11T08:07:56Z</time>
      </trkpt>
      <trkpt lat="45.97787" lon="5.60012">
        <ele>799.4</ele>
        <time>2026-05-11T08:07:57Z</time>
      </trkpt>
      <trkpt lat="45.97787" lon="5.60002">
        <ele>799.2</ele>
        <time>2026-05-11T08:07:58Z</time>
      </trkpt>
      <trkpt lat="45.97788" lon="5.59994">
        <ele>798.6</ele>
        <time>2026-05-11T08:07:59Z</time>
      </trkpt>
      <trkpt lat="45.97788" lon="5.59985">
        <ele>798</ele>
        <time>2026-05-11T08:08:00Z</time>
      </trkpt>
      <trkpt lat="45.97789" lon="5.59976">
        <ele>797.6</ele>
        <time>2026-05-11T08:08:01Z</time>
      </trkpt>
      <trkpt lat="45.97789" lon="5.59969">
        <ele>797.4</ele>
        <time>2026-05-11T08:08:02Z</time>
      </trkpt>
      <trkpt lat="45.97787" lon="5.59961">
        <ele>797.2</ele>
        <time>2026-05-11T08:08:03Z</time>
      </trkpt>
      <trkpt lat="45.97785" lon="5.59955">
        <ele>796.8</ele>
        <time>2026-05-11T08:08:04Z</time>
      </trkpt>
      <trkpt lat="45.97782" lon="5.5995">
        <ele>796.6</ele>
        <time>2026-05-11T08:08:05Z</time>
      </trkpt>
      <trkpt lat="45.9778" lon="5.59943">
        <ele>796.6</ele>
        <time>2026-05-11T08:08:06Z</time>
      </trkpt>
      <trkpt lat="45.97777" lon="5.59937">
        <ele>796.4</ele>
        <time>2026-05-11T08:08:07Z</time>
      </trkpt>
      <trkpt lat="45.97775" lon="5.59931">
        <ele>796.4</ele>
        <time>2026-05-11T08:08:08Z</time>
      </trkpt>
      <trkpt lat="45.97773" lon="5.59926">
        <ele>796.4</ele>
        <time>2026-05-11T08:08:09Z</time>
      </trkpt>
      <trkpt lat="45.97768" lon="5.59924">
        <ele>796.4</ele>
        <time>2026-05-11T08:08:10Z</time>
      </trkpt>
      <trkpt lat="45.97764" lon="5.59924">
        <ele>796.4</ele>
        <time>2026-05-11T08:08:11Z</time>
      </trkpt>
      <trkpt lat="45.97761" lon="5.59927">
        <ele>796.4</ele>
        <time>2026-05-11T08:08:12Z</time>
      </trkpt>
      <trkpt lat="45.97757" lon="5.5993">
        <ele>796.4</ele>
        <time>2026-05-11T08:08:13Z</time>
      </trkpt>
      <trkpt lat="45.97754" lon="5.59934">
        <ele>796.4</ele>
        <time>2026-05-11T08:08:14Z</time>
      </trkpt>
      <trkpt lat="45.9775" lon="5.59936">
        <ele>796.4</ele>
        <time>2026-05-11T08:08:15Z</time>
      </trkpt>
      <trkpt lat="45.97747" lon="5.59939">
        <ele>796.4</ele>
        <time>2026-05-11T08:08:16Z</time>
      </trkpt>
      <trkpt lat="45.97745" lon="5.59941">
        <ele>796.4</ele>
        <time>2026-05-11T08:08:17Z</time>
      </trkpt>
      <trkpt lat="45.97742" lon="5.59943">
        <ele>796.4</ele>
        <time>2026-05-11T08:08:18Z</time>
      </trkpt>
      <trkpt lat="45.9774" lon="5.59945">
        <ele>796.2</ele>
        <time>2026-05-11T08:08:19Z</time>
      </trkpt>
      <trkpt lat="45.97738" lon="5.59947">
        <ele>796.2</ele>
        <time>2026-05-11T08:08:20Z</time>
      </trkpt>
      <trkpt lat="45.97735" lon="5.59949">
        <ele>796.2</ele>
        <time>2026-05-11T08:08:21Z</time>
      </trkpt>
      <trkpt lat="45.97733" lon="5.5995">
        <ele>796.2</ele>
        <time>2026-05-11T08:08:22Z</time>
      </trkpt>
      <trkpt lat="45.97732" lon="5.59951">
        <ele>796.2</ele>
        <time>2026-05-11T08:08:23Z</time>
      </trkpt>
      <trkpt lat="45.97731" lon="5.59952">
        <ele>796.2</ele>
        <time>2026-05-11T08:08:24Z</time>
      </trkpt>
      <trkpt lat="45.97731" lon="5.59953">
        <ele>796.2</ele>
        <time>2026-05-11T08:08:25Z</time>
      </trkpt>
      <trkpt lat="45.97732" lon="5.59953">
        <ele>796.2</ele>
        <time>2026-05-11T08:08:26Z</time>
      </trkpt>
      <trkpt lat="45.97732" lon="5.59952">
        <ele>796.2</ele>
        <time>2026-05-11T08:08:27Z</time>
      </trkpt>
      <trkpt lat="45.9773" lon="5.59958">
        <ele>796.2</ele>
        <time>2026-05-11T08:08:32Z</time>
      </trkpt>
      <trkpt lat="45.97729" lon="5.5996">
        <ele>796.2</ele>
        <time>2026-05-11T08:08:33Z</time>
      </trkpt>
      <trkpt lat="45.97727" lon="5.59963">
        <ele>796</ele>
        <time>2026-05-11T08:08:34Z</time>
      </trkpt>
      <trkpt lat="45.97725" lon="5.59967">
        <ele>796</ele>
        <time>2026-05-11T08:08:35Z</time>
      </trkpt>
      <trkpt lat="45.97723" lon="5.5997">
        <ele>796</ele>
        <time>2026-05-11T08:08:36Z</time>
      </trkpt>
      <trkpt lat="45.97721" lon="5.59973">
        <ele>795.6</ele>
        <time>2026-05-11T08:08:37Z</time>
      </trkpt>
      <trkpt lat="45.9772" lon="5.59976">
        <ele>795.6</ele>
        <time>2026-05-11T08:08:38Z</time>
      </trkpt>
      <trkpt lat="45.97718" lon="5.59979">
        <ele>795.6</ele>
        <time>2026-05-11T08:08:39Z</time>
      </trkpt>
      <trkpt lat="45.97717" lon="5.59981">
        <ele>795.6</ele>
        <time>2026-05-11T08:08:40Z</time>
      </trkpt>
      <trkpt lat="45.97716" lon="5.59983">
        <ele>795.6</ele>
        <time>2026-05-11T08:08:41Z</time>
      </trkpt>
      <trkpt lat="45.97715" lon="5.59984">
        <ele>795.6</ele>
        <time>2026-05-11T08:08:42Z</time>
      </trkpt>
      <trkpt lat="45.97715" lon="5.59985">
        <ele>795.6</ele>
        <time>2026-05-11T08:08:43Z</time>
      </trkpt>
      <trkpt lat="45.97715" lon="5.59986">
        <ele>795.6</ele>
        <time>2026-05-11T08:08:44Z</time>
      </trkpt>
      <trkpt lat="45.97715" lon="5.59986">
        <ele>795.6</ele>
        <time>2026-05-11T08:08:45Z</time>
      </trkpt>
      <trkpt lat="45.97709" lon="5.59989">
        <ele>795.6</ele>
        <time>2026-05-11T08:09:17Z</time>
      </trkpt>
      <trkpt lat="45.97708" lon="5.59991">
        <ele>795.6</ele>
        <time>2026-05-11T08:09:18Z</time>
      </trkpt>
      <trkpt lat="45.97707" lon="5.59994">
        <ele>795.6</ele>
        <time>2026-05-11T08:09:19Z</time>
      </trkpt>
      <trkpt lat="45.97706" lon="5.59996">
        <ele>795.4</ele>
        <time>2026-05-11T08:09:20Z</time>
      </trkpt>
      <trkpt lat="45.97705" lon="5.59999">
        <ele>795.4</ele>
        <time>2026-05-11T08:09:21Z</time>
      </trkpt>
      <trkpt lat="45.97704" lon="5.60002">
        <ele>795.4</ele>
        <time>2026-05-11T08:09:22Z</time>
      </trkpt>
      <trkpt lat="45.97703" lon="5.60005">
        <ele>795.2</ele>
        <time>2026-05-11T08:09:23Z</time>
      </trkpt>
      <trkpt lat="45.97702" lon="5.60007">
        <ele>795.2</ele>
        <time>2026-05-11T08:09:24Z</time>
      </trkpt>
      <trkpt lat="45.977" lon="5.6001">
        <ele>795.2</ele>
        <time>2026-05-11T08:09:25Z</time>
      </trkpt>
      <trkpt lat="45.97699" lon="5.60012">
        <ele>795.2</ele>
        <time>2026-05-11T08:09:26Z</time>
      </trkpt>
      <trkpt lat="45.97698" lon="5.60014">
        <ele>795.2</ele>
        <time>2026-05-11T08:09:27Z</time>
      </trkpt>
      <trkpt lat="45.97697" lon="5.60017">
        <ele>795.2</ele>
        <time>2026-05-11T08:09:28Z</time>
      </trkpt>
      <trkpt lat="45.97696" lon="5.6002">
        <ele>795.2</ele>
        <time>2026-05-11T08:09:29Z</time>
      </trkpt>
      <trkpt lat="45.97694" lon="5.60022">
        <ele>795</ele>
        <time>2026-05-11T08:09:30Z</time>
      </trkpt>
      <trkpt lat="45.97693" lon="5.60024">
        <ele>795</ele>
        <time>2026-05-11T08:09:31Z</time>
      </trkpt>
      <trkpt lat="45.97691" lon="5.60026">
        <ele>795</ele>
        <time>2026-05-11T08:09:32Z</time>
      </trkpt>
      <trkpt lat="45.9769" lon="5.60029">
        <ele>795</ele>
        <time>2026-05-11T08:09:33Z</time>
      </trkpt>
      <trkpt lat="45.9769" lon="5.6003">
        <ele>795</ele>
        <time>2026-05-11T08:09:34Z</time>
      </trkpt>
      <trkpt lat="45.9769" lon="5.60031">
        <ele>795</ele>
        <time>2026-05-11T08:09:35Z</time>
      </trkpt>
      <trkpt lat="45.9769" lon="5.60031">
        <ele>795</ele>
        <time>2026-05-11T08:09:36Z</time>
      </trkpt>
      <trkpt lat="45.9769" lon="5.60032">
        <ele>795</ele>
        <time>2026-05-11T08:09:37Z</time>
      </trkpt>
      <trkpt lat="45.97689" lon="5.60032">
        <ele>795</ele>
        <time>2026-05-11T08:09:38Z</time>
      </trkpt>
      <trkpt lat="45.97689" lon="5.60033">
        <ele>795</ele>
        <time>2026-05-11T08:09:39Z</time>
      </trkpt>
      <trkpt lat="45.97688" lon="5.60033">
        <ele>795</ele>
        <time>2026-05-11T08:09:40Z</time>
      </trkpt>
      <trkpt lat="45.97688" lon="5.60033">
        <ele>795</ele>
        <time>2026-05-11T08:09:41Z</time>
      </trkpt>
      <trkpt lat="45.97686" lon="5.60036">
        <ele>794.8</ele>
        <time>2026-05-11T08:10:07Z</time>
      </trkpt>
      <trkpt lat="45.97686" lon="5.60037">
        <ele>794.8</ele>
        <time>2026-05-11T08:10:08Z</time>
      </trkpt>
      <trkpt lat="45.97686" lon="5.60038">
        <ele>794.8</ele>
        <time>2026-05-11T08:10:09Z</time>
      </trkpt>
      <trkpt lat="45.97685" lon="5.6004">
        <ele>794.8</ele>
        <time>2026-05-11T08:10:10Z</time>
      </trkpt>
      <trkpt lat="45.97685" lon="5.60042">
        <ele>794.8</ele>
        <time>2026-05-11T08:10:11Z</time>
      </trkpt>
      <trkpt lat="45.97684" lon="5.60044">
        <ele>794.4</ele>
        <time>2026-05-11T08:10:12Z</time>
      </trkpt>
      <trkpt lat="45.97684" lon="5.60044">
        <ele>794.4</ele>
        <time>2026-05-11T08:10:13Z</time>
      </trkpt>
      <trkpt lat="45.97684" lon="5.60044">
        <ele>794.4</ele>
        <time>2026-05-11T08:10:14Z</time>
      </trkpt>
      <trkpt lat="45.97684" lon="5.60044">
        <ele>794.6</ele>
        <time>2026-05-11T08:10:15Z</time>
      </trkpt>
      <trkpt lat="45.97684" lon="5.60044">
        <ele>794.6</ele>
        <time>2026-05-11T08:10:16Z</time>
      </trkpt>
      <trkpt lat="45.97684" lon="5.60044">
        <ele>795</ele>
        <time>2026-05-11T08:10:17Z</time>
      </trkpt>
      <trkpt lat="45.97684" lon="5.60043">
        <ele>795</ele>
        <time>2026-05-11T08:10:18Z</time>
      </trkpt>
      <trkpt lat="45.97684" lon="5.60042">
        <ele>795</ele>
        <time>2026-05-11T08:10:21Z</time>
      </trkpt>
      <trkpt lat="45.97684" lon="5.60042">
        <ele>795</ele>
        <time>2026-05-11T08:10:22Z</time>
      </trkpt>
      <trkpt lat="45.97684" lon="5.60042">
        <ele>795</ele>
        <time>2026-05-11T08:10:23Z</time>
      </trkpt>
      <trkpt lat="45.9769" lon="5.60047">
        <ele>795.4</ele>
        <time>2026-05-11T08:12:36Z</time>
      </trkpt>
      <trkpt lat="45.9769" lon="5.60047">
        <ele>795.4</ele>
        <time>2026-05-11T08:12:37Z</time>
      </trkpt>
      <trkpt lat="45.9769" lon="5.60047">
        <ele>795.4</ele>
        <time>2026-05-11T08:12:38Z</time>
      </trkpt>
      <trkpt lat="45.9769" lon="5.60048">
        <ele>795.4</ele>
        <time>2026-05-11T08:12:39Z</time>
      </trkpt>
      <trkpt lat="45.9769" lon="5.60049">
        <ele>795.4</ele>
        <time>2026-05-11T08:12:40Z</time>
      </trkpt>
      <trkpt lat="45.97691" lon="5.60051">
        <ele>795.2</ele>
        <time>2026-05-11T08:12:41Z</time>
      </trkpt>
      <trkpt lat="45.97692" lon="5.60053">
        <ele>795.2</ele>
        <time>2026-05-11T08:12:42Z</time>
      </trkpt>
      <trkpt lat="45.97694" lon="5.60054">
        <ele>795.2</ele>
        <time>2026-05-11T08:12:43Z</time>
      </trkpt>
      <trkpt lat="45.97697" lon="5.60056">
        <ele>795.2</ele>
        <time>2026-05-11T08:12:44Z</time>
      </trkpt>
      <trkpt lat="45.977" lon="5.60057">
        <ele>795.2</ele>
        <time>2026-05-11T08:12:45Z</time>
      </trkpt>
      <trkpt lat="45.97702" lon="5.60057">
        <ele>795.2</ele>
        <time>2026-05-11T08:12:46Z</time>
      </trkpt>
      <trkpt lat="45.97705" lon="5.60058">
        <ele>795.2</ele>
        <time>2026-05-11T08:12:47Z</time>
      </trkpt>
      <trkpt lat="45.97708" lon="5.60059">
        <ele>795.2</ele>
        <time>2026-05-11T08:12:48Z</time>
      </trkpt>
      <trkpt lat="45.97711" lon="5.60061">
        <ele>795.2</ele>
        <time>2026-05-11T08:12:49Z</time>
      </trkpt>
      <trkpt lat="45.97714" lon="5.60062">
        <ele>795.6</ele>
        <time>2026-05-11T08:12:50Z</time>
      </trkpt>
      <trkpt lat="45.97716" lon="5.60064">
        <ele>795.6</ele>
        <time>2026-05-11T08:12:51Z</time>
      </trkpt>
      <trkpt lat="45.97719" lon="5.60066">
        <ele>795.6</ele>
        <time>2026-05-11T08:12:52Z</time>
      </trkpt>
      <trkpt lat="45.97722" lon="5.60068">
        <ele>795.6</ele>
        <time>2026-05-11T08:12:53Z</time>
      </trkpt>
      <trkpt lat="45.97724" lon="5.6007">
        <ele>795.6</ele>
        <time>2026-05-11T08:12:54Z</time>
      </trkpt>
      <trkpt lat="45.97727" lon="5.60072">
        <ele>796</ele>
        <time>2026-05-11T08:12:55Z</time>
      </trkpt>
      <trkpt lat="45.9773" lon="5.60073">
        <ele>796</ele>
        <time>2026-05-11T08:12:56Z</time>
      </trkpt>
      <trkpt lat="45.97732" lon="5.60075">
        <ele>796</ele>
        <time>2026-05-11T08:12:57Z</time>
      </trkpt>
      <trkpt lat="45.97735" lon="5.60077">
        <ele>796.2</ele>
        <time>2026-05-11T08:12:58Z</time>
      </trkpt>
      <trkpt lat="45.97738" lon="5.60079">
        <ele>796.2</ele>
        <time>2026-05-11T08:12:59Z</time>
      </trkpt>
      <trkpt lat="45.97741" lon="5.60081">
        <ele>796.4</ele>
        <time>2026-05-11T08:13:00Z</time>
      </trkpt>
      <trkpt lat="45.97744" lon="5.60083">
        <ele>796.4</ele>
        <time>2026-05-11T08:13:01Z</time>
      </trkpt>
      <trkpt lat="45.97747" lon="5.60084">
        <ele>797</ele>
        <time>2026-05-11T08:13:02Z</time>
      </trkpt>
      <trkpt lat="45.9775" lon="5.60086">
        <ele>797.2</ele>
        <time>2026-05-11T08:13:03Z</time>
      </trkpt>
      <trkpt lat="45.97753" lon="5.60087">
        <ele>797.2</ele>
        <time>2026-05-11T08:13:04Z</time>
      </trkpt>
      <trkpt lat="45.97755" lon="5.60089">
        <ele>797.6</ele>
        <time>2026-05-11T08:13:05Z</time>
      </trkpt>
      <trkpt lat="45.97758" lon="5.6009">
        <ele>797.8</ele>
        <time>2026-05-11T08:13:06Z</time>
      </trkpt>
      <trkpt lat="45.9776" lon="5.60092">
        <ele>797.8</ele>
        <time>2026-05-11T08:13:07Z</time>
      </trkpt>
      <trkpt lat="45.97763" lon="5.60094">
        <ele>798.2</ele>
        <time>2026-05-11T08:13:08Z</time>
      </trkpt>
      <trkpt lat="45.97765" lon="5.60097">
        <ele>798.2</ele>
        <time>2026-05-11T08:13:09Z</time>
      </trkpt>
      <trkpt lat="45.97767" lon="5.60099">
        <ele>798.4</ele>
        <time>2026-05-11T08:13:10Z</time>
      </trkpt>
      <trkpt lat="45.9777" lon="5.60101">
        <ele>798.4</ele>
        <time>2026-05-11T08:13:11Z</time>
      </trkpt>
      <trkpt lat="45.97772" lon="5.60103">
        <ele>799</ele>
        <time>2026-05-11T08:13:12Z</time>
      </trkpt>
      <trkpt lat="45.97774" lon="5.60105">
        <ele>799</ele>
        <time>2026-05-11T08:13:13Z</time>
      </trkpt>
      <trkpt lat="45.97776" lon="5.60108">
        <ele>799</ele>
        <time>2026-05-11T08:13:14Z</time>
      </trkpt>
      <trkpt lat="45.97777" lon="5.6011">
        <ele>799.2</ele>
        <time>2026-05-11T08:13:15Z</time>
      </trkpt>
      <trkpt lat="45.97779" lon="5.60112">
        <ele>799.2</ele>
        <time>2026-05-11T08:13:16Z</time>
      </trkpt>
      <trkpt lat="45.97781" lon="5.60113">
        <ele>799.4</ele>
        <time>2026-05-11T08:13:17Z</time>
      </trkpt>
      <trkpt lat="45.97783" lon="5.60115">
        <ele>799.6</ele>
        <time>2026-05-11T08:13:18Z</time>
      </trkpt>
      <trkpt lat="45.97785" lon="5.60117">
        <ele>799.8</ele>
        <time>2026-05-11T08:13:19Z</time>
      </trkpt>
      <trkpt lat="45.97787" lon="5.60119">
        <ele>799.8</ele>
        <time>2026-05-11T08:13:20Z</time>
      </trkpt>
      <trkpt lat="45.9779" lon="5.6012">
        <ele>800.2</ele>
        <time>2026-05-11T08:13:21Z</time>
      </trkpt>
      <trkpt lat="45.97792" lon="5.6012">
        <ele>800.2</ele>
        <time>2026-05-11T08:13:22Z</time>
      </trkpt>
      <trkpt lat="45.97795" lon="5.6012">
        <ele>800.4</ele>
        <time>2026-05-11T08:13:23Z</time>
      </trkpt>
      <trkpt lat="45.97797" lon="5.60118">
        <ele>800.4</ele>
        <time>2026-05-11T08:13:24Z</time>
      </trkpt>
      <trkpt lat="45.97799" lon="5.60117">
        <ele>800.8</ele>
        <time>2026-05-11T08:13:25Z</time>
      </trkpt>
      <trkpt lat="45.97801" lon="5.60115">
        <ele>800.8</ele>
        <time>2026-05-11T08:13:26Z</time>
      </trkpt>
      <trkpt lat="45.97803" lon="5.60114">
        <ele>801.2</ele>
        <time>2026-05-11T08:13:27Z</time>
      </trkpt>
      <trkpt lat="45.97804" lon="5.60112">
        <ele>801.2</ele>
        <time>2026-05-11T08:13:28Z</time>
      </trkpt>
      <trkpt lat="45.97806" lon="5.6011">
        <ele>801.4</ele>
        <time>2026-05-11T08:13:29Z</time>
      </trkpt>
      <trkpt lat="45.97807" lon="5.60107">
        <ele>801.4</ele>
        <time>2026-05-11T08:13:30Z</time>
      </trkpt>
      <trkpt lat="45.97807" lon="5.60104">
        <ele>801.4</ele>
        <time>2026-05-11T08:13:31Z</time>
      </trkpt>
      <trkpt lat="45.97806" lon="5.60099">
        <ele>801.6</ele>
        <time>2026-05-11T08:13:32Z</time>
      </trkpt>
      <trkpt lat="45.97805" lon="5.60095">
        <ele>801.6</ele>
        <time>2026-05-11T08:13:33Z</time>
      </trkpt>
      <trkpt lat="45.97803" lon="5.60091">
        <ele>801.6</ele>
        <time>2026-05-11T08:13:34Z</time>
      </trkpt>
      <trkpt lat="45.97801" lon="5.60086">
        <ele>801.6</ele>
        <time>2026-05-11T08:13:35Z</time>
      </trkpt>
      <trkpt lat="45.97799" lon="5.60081">
        <ele>801.6</ele>
        <time>2026-05-11T08:13:36Z</time>
      </trkpt>
      <trkpt lat="45.97798" lon="5.60077">
        <ele>801.6</ele>
        <time>2026-05-11T08:13:37Z</time>
      </trkpt>
      <trkpt lat="45.97796" lon="5.60072">
        <ele>801.6</ele>
        <time>2026-05-11T08:13:38Z</time>
      </trkpt>
      <trkpt lat="45.97794" lon="5.60066">
        <ele>801.6</ele>
        <time>2026-05-11T08:13:39Z</time>
      </trkpt>
      <trkpt lat="45.97793" lon="5.6006">
        <ele>801.6</ele>
        <time>2026-05-11T08:13:40Z</time>
      </trkpt>
      <trkpt lat="45.9779" lon="5.60055">
        <ele>801.6</ele>
        <time>2026-05-11T08:13:41Z</time>
      </trkpt>
      <trkpt lat="45.97789" lon="5.60049">
        <ele>801.6</ele>
        <time>2026-05-11T08:13:42Z</time>
      </trkpt>
      <trkpt lat="45.97788" lon="5.60042">
        <ele>801.6</ele>
        <time>2026-05-11T08:13:43Z</time>
      </trkpt>
      <trkpt lat="45.97788" lon="5.60035">
        <ele>801.4</ele>
        <time>2026-05-11T08:13:44Z</time>
      </trkpt>
      <trkpt lat="45.97788" lon="5.60027">
        <ele>800.8</ele>
        <time>2026-05-11T08:13:45Z</time>
      </trkpt>
      <trkpt lat="45.97788" lon="5.60019">
        <ele>800.4</ele>
        <time>2026-05-11T08:13:46Z</time>
      </trkpt>
      <trkpt lat="45.97787" lon="5.60012">
        <ele>800.2</ele>
        <time>2026-05-11T08:13:47Z</time>
      </trkpt>
      <trkpt lat="45.97788" lon="5.60004">
        <ele>799.8</ele>
        <time>2026-05-11T08:13:48Z</time>
      </trkpt>
      <trkpt lat="45.97788" lon="5.59997">
        <ele>799.4</ele>
        <time>2026-05-11T08:13:49Z</time>
      </trkpt>
      <trkpt lat="45.97789" lon="5.5999">
        <ele>799</ele>
        <time>2026-05-11T08:13:50Z</time>
      </trkpt>
      <trkpt lat="45.9779" lon="5.59984">
        <ele>799</ele>
        <time>2026-05-11T08:13:51Z</time>
      </trkpt>
      <trkpt lat="45.97791" lon="5.59977">
        <ele>798.8</ele>
        <time>2026-05-11T08:13:52Z</time>
      </trkpt>
      <trkpt lat="45.97793" lon="5.59973">
        <ele>798.8</ele>
        <time>2026-05-11T08:13:53Z</time>
      </trkpt>
      <trkpt lat="45.97796" lon="5.5997">
        <ele>798.8</ele>
        <time>2026-05-11T08:13:54Z</time>
      </trkpt>
      <trkpt lat="45.978" lon="5.5997">
        <ele>798.6</ele>
        <time>2026-05-11T08:13:55Z</time>
      </trkpt>
      <trkpt lat="45.97804" lon="5.59972">
        <ele>798.6</ele>
        <time>2026-05-11T08:13:56Z</time>
      </trkpt>
      <trkpt lat="45.97808" lon="5.59975">
        <ele>798.6</ele>
        <time>2026-05-11T08:13:57Z</time>
      </trkpt>
      <trkpt lat="45.9781" lon="5.59979">
        <ele>799</ele>
        <time>2026-05-11T08:13:58Z</time>
      </trkpt>
      <trkpt lat="45.97813" lon="5.59982">
        <ele>799.2</ele>
        <time>2026-05-11T08:13:59Z</time>
      </trkpt>
      <trkpt lat="45.97816" lon="5.59985">
        <ele>799.2</ele>
        <time>2026-05-11T08:14:00Z</time>
      </trkpt>
      <trkpt lat="45.97818" lon="5.59988">
        <ele>799.2</ele>
        <time>2026-05-11T08:14:01Z</time>
      </trkpt>
      <trkpt lat="45.97822" lon="5.59991">
        <ele>799.4</ele>
        <time>2026-05-11T08:14:02Z</time>
      </trkpt>
      <trkpt lat="45.97824" lon="5.59993">
        <ele>799.4</ele>
        <time>2026-05-11T08:14:03Z</time>
      </trkpt>
      <trkpt lat="45.97827" lon="5.59995">
        <ele>799.4</ele>
        <time>2026-05-11T08:14:04Z</time>
      </trkpt>
      <trkpt lat="45.97829" lon="5.59996">
        <ele>799.8</ele>
        <time>2026-05-11T08:14:05Z</time>
      </trkpt>
      <trkpt lat="45.97832" lon="5.59996">
        <ele>799.8</ele>
        <time>2026-05-11T08:14:06Z</time>
      </trkpt>
      <trkpt lat="45.97834" lon="5.59994">
        <ele>799.6</ele>
        <time>2026-05-11T08:14:07Z</time>
      </trkpt>
      <trkpt lat="45.97836" lon="5.59991">
        <ele>799.6</ele>
        <time>2026-05-11T08:14:08Z</time>
      </trkpt>
      <trkpt lat="45.97838" lon="5.59987">
        <ele>799.6</ele>
        <time>2026-05-11T08:14:09Z</time>
      </trkpt>
      <trkpt lat="45.97839" lon="5.59983">
        <ele>799.6</ele>
        <time>2026-05-11T08:14:10Z</time>
      </trkpt>
      <trkpt lat="45.9784" lon="5.59981">
        <ele>799.2</ele>
        <time>2026-05-11T08:14:11Z</time>
      </trkpt>
      <trkpt lat="45.97842" lon="5.59978">
        <ele>799.2</ele>
        <time>2026-05-11T08:14:12Z</time>
      </trkpt>
      <trkpt lat="45.97845" lon="5.59976">
        <ele>799</ele>
        <time>2026-05-11T08:14:13Z</time>
      </trkpt>
      <trkpt lat="45.97848" lon="5.59974">
        <ele>799</ele>
        <time>2026-05-11T08:14:14Z</time>
      </trkpt>
      <trkpt lat="45.97851" lon="5.59974">
        <ele>799</ele>
        <time>2026-05-11T08:14:15Z</time>
      </trkpt>
      <trkpt lat="45.97854" lon="5.59975">
        <ele>799.4</ele>
        <time>2026-05-11T08:14:16Z</time>
      </trkpt>
      <trkpt lat="45.97856" lon="5.59977">
        <ele>799.4</ele>
        <time>2026-05-11T08:14:17Z</time>
      </trkpt>
      <trkpt lat="45.97858" lon="5.59978">
        <ele>799.4</ele>
        <time>2026-05-11T08:14:18Z</time>
      </trkpt>
      <trkpt lat="45.97858" lon="5.5998">
        <ele>799.4</ele>
        <time>2026-05-11T08:14:19Z</time>
      </trkpt>
      <trkpt lat="45.97858" lon="5.5998">
        <ele>799.4</ele>
        <time>2026-05-11T08:14:20Z</time>
      </trkpt>
      <trkpt lat="45.97858" lon="5.5998">
        <ele>799.4</ele>
        <time>2026-05-11T08:14:21Z</time>
      </trkpt>
      <trkpt lat="45.97805" lon="5.5997">
        <ele>798.6</ele>
        <time>2026-05-11T08:27:47Z</time>
      </trkpt>
      <trkpt lat="45.97803" lon="5.5997">
        <ele>799</ele>
        <time>2026-05-11T08:27:48Z</time>
      </trkpt>
      <trkpt lat="45.97801" lon="5.59969">
        <ele>799</ele>
        <time>2026-05-11T08:27:49Z</time>
      </trkpt>
      <trkpt lat="45.97799" lon="5.59969">
        <ele>799</ele>
        <time>2026-05-11T08:27:50Z</time>
      </trkpt>
      <trkpt lat="45.97798" lon="5.59968">
        <ele>799</ele>
        <time>2026-05-11T08:27:51Z</time>
      </trkpt>
      <trkpt lat="45.97797" lon="5.59966">
        <ele>799</ele>
        <time>2026-05-11T08:27:52Z</time>
      </trkpt>
      <trkpt lat="45.97796" lon="5.59964">
        <ele>799</ele>
        <time>2026-05-11T08:27:53Z</time>
      </trkpt>
      <trkpt lat="45.97795" lon="5.59962">
        <ele>799</ele>
        <time>2026-05-11T08:27:54Z</time>
      </trkpt>
      <trkpt lat="45.97794" lon="5.5996">
        <ele>799</ele>
        <time>2026-05-11T08:27:55Z</time>
      </trkpt>
      <trkpt lat="45.97793" lon="5.59957">
        <ele>799</ele>
        <time>2026-05-11T08:27:56Z</time>
      </trkpt>
      <trkpt lat="45.97791" lon="5.59954">
        <ele>798.8</ele>
        <time>2026-05-11T08:27:57Z</time>
      </trkpt>
      <trkpt lat="45.97789" lon="5.59951">
        <ele>798.8</ele>
        <time>2026-05-11T08:27:58Z</time>
      </trkpt>
      <trkpt lat="45.97786" lon="5.59949">
        <ele>798.8</ele>
        <time>2026-05-11T08:27:59Z</time>
      </trkpt>
      <trkpt lat="45.97782" lon="5.59947">
        <ele>798.8</ele>
        <time>2026-05-11T08:28:00Z</time>
      </trkpt>
      <trkpt lat="45.9778" lon="5.59944">
        <ele>798.8</ele>
        <time>2026-05-11T08:28:01Z</time>
      </trkpt>
      <trkpt lat="45.97778" lon="5.5994">
        <ele>798.2</ele>
        <time>2026-05-11T08:28:02Z</time>
      </trkpt>
      <trkpt lat="45.97776" lon="5.59935">
        <ele>797.8</ele>
        <time>2026-05-11T08:28:03Z</time>
      </trkpt>
      <trkpt lat="45.97775" lon="5.59931">
        <ele>797.8</ele>
        <time>2026-05-11T08:28:04Z</time>
      </trkpt>
      <trkpt lat="45.97772" lon="5.59927">
        <ele>797.8</ele>
        <time>2026-05-11T08:28:05Z</time>
      </trkpt>
      <trkpt lat="45.9777" lon="5.59924">
        <ele>798</ele>
        <time>2026-05-11T08:28:06Z</time>
      </trkpt>
      <trkpt lat="45.97766" lon="5.59922">
        <ele>798</ele>
        <time>2026-05-11T08:28:07Z</time>
      </trkpt>
      <trkpt lat="45.97762" lon="5.59923">
        <ele>798</ele>
        <time>2026-05-11T08:28:08Z</time>
      </trkpt>
      <trkpt lat="45.97758" lon="5.59926">
        <ele>797.8</ele>
        <time>2026-05-11T08:28:09Z</time>
      </trkpt>
      <trkpt lat="45.97755" lon="5.5993">
        <ele>797.8</ele>
        <time>2026-05-11T08:28:10Z</time>
      </trkpt>
      <trkpt lat="45.97752" lon="5.59933">
        <ele>797.8</ele>
        <time>2026-05-11T08:28:11Z</time>
      </trkpt>
      <trkpt lat="45.97748" lon="5.59937">
        <ele>797.8</ele>
        <time>2026-05-11T08:28:12Z</time>
      </trkpt>
      <trkpt lat="45.97745" lon="5.5994">
        <ele>797.6</ele>
        <time>2026-05-11T08:28:13Z</time>
      </trkpt>
      <trkpt lat="45.97742" lon="5.59944">
        <ele>797.6</ele>
        <time>2026-05-11T08:28:14Z</time>
      </trkpt>
      <trkpt lat="45.97738" lon="5.59947">
        <ele>797.6</ele>
        <time>2026-05-11T08:28:15Z</time>
      </trkpt>
      <trkpt lat="45.97735" lon="5.59951">
        <ele>797.2</ele>
        <time>2026-05-11T08:28:16Z</time>
      </trkpt>
      <trkpt lat="45.97731" lon="5.59955">
        <ele>797.2</ele>
        <time>2026-05-11T08:28:17Z</time>
      </trkpt>
      <trkpt lat="45.97728" lon="5.59959">
        <ele>797.2</ele>
        <time>2026-05-11T08:28:18Z</time>
      </trkpt>
      <trkpt lat="45.97725" lon="5.59963">
        <ele>797</ele>
        <time>2026-05-11T08:28:19Z</time>
      </trkpt>
      <trkpt lat="45.97722" lon="5.59967">
        <ele>797</ele>
        <time>2026-05-11T08:28:20Z</time>
      </trkpt>
      <trkpt lat="45.97719" lon="5.59972">
        <ele>797</ele>
        <time>2026-05-11T08:28:21Z</time>
      </trkpt>
      <trkpt lat="45.97716" lon="5.59977">
        <ele>796.8</ele>
        <time>2026-05-11T08:28:22Z</time>
      </trkpt>
      <trkpt lat="45.97714" lon="5.59982">
        <ele>796.8</ele>
        <time>2026-05-11T08:28:23Z</time>
      </trkpt>
      <trkpt lat="45.97712" lon="5.59988">
        <ele>796.6</ele>
        <time>2026-05-11T08:28:24Z</time>
      </trkpt>
      <trkpt lat="45.9771" lon="5.59993">
        <ele>796.6</ele>
        <time>2026-05-11T08:28:25Z</time>
      </trkpt>
      <trkpt lat="45.97707" lon="5.59999">
        <ele>796.2</ele>
        <time>2026-05-11T08:28:26Z</time>
      </trkpt>
      <trkpt lat="45.97704" lon="5.60005">
        <ele>796.2</ele>
        <time>2026-05-11T08:28:27Z</time>
      </trkpt>
      <trkpt lat="45.97701" lon="5.6001">
        <ele>796.2</ele>
        <time>2026-05-11T08:28:28Z</time>
      </trkpt>
      <trkpt lat="45.97698" lon="5.60015">
        <ele>796.2</ele>
        <time>2026-05-11T08:28:29Z</time>
      </trkpt>
      <trkpt lat="45.97694" lon="5.6002">
        <ele>796.2</ele>
        <time>2026-05-11T08:28:30Z</time>
      </trkpt>
      <trkpt lat="45.9769" lon="5.60024">
        <ele>795.6</ele>
        <time>2026-05-11T08:28:31Z</time>
      </trkpt>
      <trkpt lat="45.97686" lon="5.60026">
        <ele>795.6</ele>
        <time>2026-05-11T08:28:32Z</time>
      </trkpt>
      <trkpt lat="45.97682" lon="5.60026">
        <ele>795.6</ele>
        <time>2026-05-11T08:28:33Z</time>
      </trkpt>
      <trkpt lat="45.97678" lon="5.60024">
        <ele>795.6</ele>
        <time>2026-05-11T08:28:34Z</time>
      </trkpt>
      <trkpt lat="45.97675" lon="5.6002">
        <ele>795.6</ele>
        <time>2026-05-11T08:28:35Z</time>
      </trkpt>
      <trkpt lat="45.97671" lon="5.60017">
        <ele>795.2</ele>
        <time>2026-05-11T08:28:36Z</time>
      </trkpt>
      <trkpt lat="45.97668" lon="5.6001">
        <ele>795.2</ele>
        <time>2026-05-11T08:28:37Z</time>
      </trkpt>
      <trkpt lat="45.97664" lon="5.60005">
        <ele>794.8</ele>
        <time>2026-05-11T08:28:38Z</time>
      </trkpt>
      <trkpt lat="45.97661" lon="5.6">
        <ele>794.8</ele>
        <time>2026-05-11T08:28:39Z</time>
      </trkpt>
      <trkpt lat="45.97658" lon="5.59996">
        <ele>794.6</ele>
        <time>2026-05-11T08:28:40Z</time>
      </trkpt>
      <trkpt lat="45.97656" lon="5.59991">
        <ele>794.6</ele>
        <time>2026-05-11T08:28:41Z</time>
      </trkpt>
      <trkpt lat="45.97653" lon="5.59987">
        <ele>794.8</ele>
        <time>2026-05-11T08:28:42Z</time>
      </trkpt>
      <trkpt lat="45.9765" lon="5.59984">
        <ele>794.8</ele>
        <time>2026-05-11T08:28:43Z</time>
      </trkpt>
      <trkpt lat="45.97647" lon="5.59981">
        <ele>794.8</ele>
        <time>2026-05-11T08:28:44Z</time>
      </trkpt>
      <trkpt lat="45.97646" lon="5.59978">
        <ele>794.8</ele>
        <time>2026-05-11T08:28:45Z</time>
      </trkpt>
      <trkpt lat="45.97646" lon="5.59978">
        <ele>794.8</ele>
        <time>2026-05-11T08:28:46Z</time>
      </trkpt>
      <trkpt lat="45.97646" lon="5.59975">
        <ele>795</ele>
        <time>2026-05-11T08:28:47Z</time>
      </trkpt>
      <trkpt lat="45.97645" lon="5.59974">
        <ele>795</ele>
        <time>2026-05-11T08:28:48Z</time>
      </trkpt>
      <trkpt lat="45.97644" lon="5.59971">
        <ele>795</ele>
        <time>2026-05-11T08:28:49Z</time>
      </trkpt>
      <trkpt lat="45.97642" lon="5.59968">
        <ele>795</ele>
        <time>2026-05-11T08:28:50Z</time>
      </trkpt>
      <trkpt lat="45.9764" lon="5.59964">
        <ele>795</ele>
        <time>2026-05-11T08:28:51Z</time>
      </trkpt>
      <trkpt lat="45.97638" lon="5.5996">
        <ele>794.8</ele>
        <time>2026-05-11T08:28:52Z</time>
      </trkpt>
      <trkpt lat="45.97636" lon="5.59956">
        <ele>794.8</ele>
        <time>2026-05-11T08:28:53Z</time>
      </trkpt>
      <trkpt lat="45.97633" lon="5.59952">
        <ele>794.8</ele>
        <time>2026-05-11T08:28:54Z</time>
      </trkpt>
      <trkpt lat="45.9763" lon="5.59947">
        <ele>794.4</ele>
        <time>2026-05-11T08:28:55Z</time>
      </trkpt>
      <trkpt lat="45.97626" lon="5.59942">
        <ele>794</ele>
        <time>2026-05-11T08:28:56Z</time>
      </trkpt>
      <trkpt lat="45.97622" lon="5.59939">
        <ele>793.8</ele>
        <time>2026-05-11T08:28:57Z</time>
      </trkpt>
      <trkpt lat="45.97618" lon="5.59934">
        <ele>793.8</ele>
        <time>2026-05-11T08:28:58Z</time>
      </trkpt>
      <trkpt lat="45.97614" lon="5.59931">
        <ele>793.6</ele>
        <time>2026-05-11T08:28:59Z</time>
      </trkpt>
      <trkpt lat="45.97609" lon="5.59927">
        <ele>793.6</ele>
        <time>2026-05-11T08:29:00Z</time>
      </trkpt>
      <trkpt lat="45.97604" lon="5.59923">
        <ele>793.6</ele>
        <time>2026-05-11T08:29:01Z</time>
      </trkpt>
      <trkpt lat="45.976" lon="5.59919">
        <ele>793.2</ele>
        <time>2026-05-11T08:29:02Z</time>
      </trkpt>
      <trkpt lat="45.976" lon="5.59919">
        <ele>793</ele>
        <time>2026-05-11T08:29:03Z</time>
      </trkpt>
      <trkpt lat="45.97595" lon="5.59915">
        <ele>793</ele>
        <time>2026-05-11T08:29:04Z</time>
      </trkpt>
      <trkpt lat="45.9759" lon="5.5991">
        <ele>792.4</ele>
        <time>2026-05-11T08:29:05Z</time>
      </trkpt>
      <trkpt lat="45.97586" lon="5.59906">
        <ele>792.4</ele>
        <time>2026-05-11T08:29:06Z</time>
      </trkpt>
      <trkpt lat="45.9758" lon="5.59902">
        <ele>791.6</ele>
        <time>2026-05-11T08:29:07Z</time>
      </trkpt>
      <trkpt lat="45.97576" lon="5.599">
        <ele>791.6</ele>
        <time>2026-05-11T08:29:08Z</time>
      </trkpt>
      <trkpt lat="45.97571" lon="5.59896">
        <ele>791.2</ele>
        <time>2026-05-11T08:29:09Z</time>
      </trkpt>
      <trkpt lat="45.97567" lon="5.59891">
        <ele>790.8</ele>
        <time>2026-05-11T08:29:10Z</time>
      </trkpt>
      <trkpt lat="45.97562" lon="5.59887">
        <ele>790.4</ele>
        <time>2026-05-11T08:29:11Z</time>
      </trkpt>
      <trkpt lat="45.97557" lon="5.59883">
        <ele>790.2</ele>
        <time>2026-05-11T08:29:12Z</time>
      </trkpt>
      <trkpt lat="45.97552" lon="5.59879">
        <ele>790.2</ele>
        <time>2026-05-11T08:29:13Z</time>
      </trkpt>
      <trkpt lat="45.97547" lon="5.59873">
        <ele>789.6</ele>
        <time>2026-05-11T08:29:14Z</time>
      </trkpt>
      <trkpt lat="45.97542" lon="5.59868">
        <ele>789</ele>
        <time>2026-05-11T08:29:15Z</time>
      </trkpt>
      <trkpt lat="45.97537" lon="5.59863">
        <ele>789</ele>
        <time>2026-05-11T08:29:16Z</time>
      </trkpt>
      <trkpt lat="45.97533" lon="5.59855">
        <ele>788.2</ele>
        <time>2026-05-11T08:29:17Z</time>
      </trkpt>
      <trkpt lat="45.9753" lon="5.59847">
        <ele>787.2</ele>
        <time>2026-05-11T08:29:18Z</time>
      </trkpt>
      <trkpt lat="45.97527" lon="5.59837">
        <ele>786.4</ele>
        <time>2026-05-11T08:29:19Z</time>
      </trkpt>
      <trkpt lat="45.97524" lon="5.59826">
        <ele>785.8</ele>
        <time>2026-05-11T08:29:20Z</time>
      </trkpt>
      <trkpt lat="45.97522" lon="5.59814">
        <ele>785.2</ele>
        <time>2026-05-11T08:29:21Z</time>
      </trkpt>
      <trkpt lat="45.97519" lon="5.59801">
        <ele>784.2</ele>
        <time>2026-05-11T08:29:22Z</time>
      </trkpt>
      <trkpt lat="45.97516" lon="5.5979">
        <ele>783.2</ele>
        <time>2026-05-11T08:29:23Z</time>
      </trkpt>
      <trkpt lat="45.97513" lon="5.59777">
        <ele>782.2</ele>
        <time>2026-05-11T08:29:24Z</time>
      </trkpt>
      <trkpt lat="45.9751" lon="5.59765">
        <ele>781.4</ele>
        <time>2026-05-11T08:29:25Z</time>
      </trkpt>
      <trkpt lat="45.97506" lon="5.59753">
        <ele>780.6</ele>
        <time>2026-05-11T08:29:26Z</time>
      </trkpt>
      <trkpt lat="45.97504" lon="5.5974">
        <ele>779.8</ele>
        <time>2026-05-11T08:29:27Z</time>
      </trkpt>
      <trkpt lat="45.97501" lon="5.59727">
        <ele>779</ele>
        <time>2026-05-11T08:29:28Z</time>
      </trkpt>
      <trkpt lat="45.97498" lon="5.59714">
        <ele>778.8</ele>
        <time>2026-05-11T08:29:29Z</time>
      </trkpt>
      <trkpt lat="45.97497" lon="5.59701">
        <ele>778.4</ele>
        <time>2026-05-11T08:29:30Z</time>
      </trkpt>
      <trkpt lat="45.97493" lon="5.59689">
        <ele>778.2</ele>
        <time>2026-05-11T08:29:31Z</time>
      </trkpt>
      <trkpt lat="45.97491" lon="5.5968">
        <ele>778.6</ele>
        <time>2026-05-11T08:29:32Z</time>
      </trkpt>
      <trkpt lat="45.97488" lon="5.59668">
        <ele>778.6</ele>
        <time>2026-05-11T08:29:33Z</time>
      </trkpt>
      <trkpt lat="45.97485" lon="5.59659">
        <ele>778.2</ele>
        <time>2026-05-11T08:29:34Z</time>
      </trkpt>
      <trkpt lat="45.97482" lon="5.59651">
        <ele>778.2</ele>
        <time>2026-05-11T08:29:35Z</time>
      </trkpt>
      <trkpt lat="45.97478" lon="5.59646">
        <ele>778.6</ele>
        <time>2026-05-11T08:29:36Z</time>
      </trkpt>
      <trkpt lat="45.97474" lon="5.59642">
        <ele>778.6</ele>
        <time>2026-05-11T08:29:37Z</time>
      </trkpt>
      <trkpt lat="45.97471" lon="5.59635">
        <ele>778.8</ele>
        <time>2026-05-11T08:29:38Z</time>
      </trkpt>
      <trkpt lat="45.9747" lon="5.59628">
        <ele>778.8</ele>
        <time>2026-05-11T08:29:39Z</time>
      </trkpt>
      <trkpt lat="45.9747" lon="5.5962">
        <ele>778.8</ele>
        <time>2026-05-11T08:29:40Z</time>
      </trkpt>
      <trkpt lat="45.97468" lon="5.59612">
        <ele>778.6</ele>
        <time>2026-05-11T08:29:41Z</time>
      </trkpt>
      <trkpt lat="45.97467" lon="5.59605">
        <ele>778.6</ele>
        <time>2026-05-11T08:29:42Z</time>
      </trkpt>
      <trkpt lat="45.97465" lon="5.59597">
        <ele>778.6</ele>
        <time>2026-05-11T08:29:43Z</time>
      </trkpt>
      <trkpt lat="45.97458" lon="5.59586">
        <ele>778.6</ele>
        <time>2026-05-11T08:29:44Z</time>
      </trkpt>
      <trkpt lat="45.97452" lon="5.59584">
        <ele>778.4</ele>
        <time>2026-05-11T08:29:45Z</time>
      </trkpt>
      <trkpt lat="45.97447" lon="5.59583">
        <ele>778</ele>
        <time>2026-05-11T08:29:46Z</time>
      </trkpt>
      <trkpt lat="45.97441" lon="5.59583">
        <ele>778</ele>
        <time>2026-05-11T08:29:47Z</time>
      </trkpt>
      <trkpt lat="45.97435" lon="5.59584">
        <ele>778</ele>
        <time>2026-05-11T08:29:48Z</time>
      </trkpt>
      <trkpt lat="45.97429" lon="5.59584">
        <ele>777.8</ele>
        <time>2026-05-11T08:29:49Z</time>
      </trkpt>
      <trkpt lat="45.97423" lon="5.59583">
        <ele>777.8</ele>
        <time>2026-05-11T08:29:50Z</time>
      </trkpt>
      <trkpt lat="45.97418" lon="5.59582">
        <ele>777.2</ele>
        <time>2026-05-11T08:29:51Z</time>
      </trkpt>
      <trkpt lat="45.97412" lon="5.59583">
        <ele>777.4</ele>
        <time>2026-05-11T08:29:52Z</time>
      </trkpt>
      <trkpt lat="45.97406" lon="5.59582">
        <ele>777.4</ele>
        <time>2026-05-11T08:29:53Z</time>
      </trkpt>
      <trkpt lat="45.974" lon="5.59582">
        <ele>778</ele>
        <time>2026-05-11T08:29:54Z</time>
      </trkpt>
      <trkpt lat="45.97394" lon="5.59582">
        <ele>778</ele>
        <time>2026-05-11T08:29:55Z</time>
      </trkpt>
      <trkpt lat="45.97389" lon="5.59581">
        <ele>778</ele>
        <time>2026-05-11T08:29:56Z</time>
      </trkpt>
      <trkpt lat="45.97385" lon="5.59578">
        <ele>778.2</ele>
        <time>2026-05-11T08:29:57Z</time>
      </trkpt>
      <trkpt lat="45.97383" lon="5.59572">
        <ele>778</ele>
        <time>2026-05-11T08:29:58Z</time>
      </trkpt>
      <trkpt lat="45.9738" lon="5.59566">
        <ele>778</ele>
        <time>2026-05-11T08:29:59Z</time>
      </trkpt>
      <trkpt lat="45.97378" lon="5.59559">
        <ele>777.6</ele>
        <time>2026-05-11T08:30:00Z</time>
      </trkpt>
      <trkpt lat="45.97376" lon="5.5955">
        <ele>777.6</ele>
        <time>2026-05-11T08:30:01Z</time>
      </trkpt>
      <trkpt lat="45.97374" lon="5.59541">
        <ele>777.6</ele>
        <time>2026-05-11T08:30:02Z</time>
      </trkpt>
      <trkpt lat="45.97372" lon="5.59533">
        <ele>777.6</ele>
        <time>2026-05-11T08:30:03Z</time>
      </trkpt>
      <trkpt lat="45.9737" lon="5.59524">
        <ele>777.4</ele>
        <time>2026-05-11T08:30:04Z</time>
      </trkpt>
      <trkpt lat="45.97367" lon="5.59514">
        <ele>777.4</ele>
        <time>2026-05-11T08:30:05Z</time>
      </trkpt>
      <trkpt lat="45.97365" lon="5.59505">
        <ele>777.4</ele>
        <time>2026-05-11T08:30:06Z</time>
      </trkpt>
      <trkpt lat="45.97363" lon="5.59496">
        <ele>777.4</ele>
        <time>2026-05-11T08:30:07Z</time>
      </trkpt>
      <trkpt lat="45.97361" lon="5.59487">
        <ele>776.8</ele>
        <time>2026-05-11T08:30:08Z</time>
      </trkpt>
      <trkpt lat="45.97359" lon="5.59477">
        <ele>776.8</ele>
        <time>2026-05-11T08:30:09Z</time>
      </trkpt>
      <trkpt lat="45.97357" lon="5.59468">
        <ele>776.6</ele>
        <time>2026-05-11T08:30:10Z</time>
      </trkpt>
      <trkpt lat="45.97354" lon="5.5946">
        <ele>776.2</ele>
        <time>2026-05-11T08:30:11Z</time>
      </trkpt>
      <trkpt lat="45.97351" lon="5.59451">
        <ele>776.2</ele>
        <time>2026-05-11T08:30:12Z</time>
      </trkpt>
      <trkpt lat="45.97347" lon="5.59443">
        <ele>775.8</ele>
        <time>2026-05-11T08:30:13Z</time>
      </trkpt>
      <trkpt lat="45.97344" lon="5.59435">
        <ele>775.8</ele>
        <time>2026-05-11T08:30:14Z</time>
      </trkpt>
      <trkpt lat="45.9734" lon="5.59427">
        <ele>775.4</ele>
        <time>2026-05-11T08:30:15Z</time>
      </trkpt>
      <trkpt lat="45.97337" lon="5.59419">
        <ele>775.4</ele>
        <time>2026-05-11T08:30:16Z</time>
      </trkpt>
      <trkpt lat="45.97334" lon="5.59412">
        <ele>775.2</ele>
        <time>2026-05-11T08:30:17Z</time>
      </trkpt>
      <trkpt lat="45.9733" lon="5.59405">
        <ele>775.2</ele>
        <time>2026-05-11T08:30:18Z</time>
      </trkpt>
      <trkpt lat="45.97327" lon="5.59397">
        <ele>775.2</ele>
        <time>2026-05-11T08:30:19Z</time>
      </trkpt>
      <trkpt lat="45.97324" lon="5.59389">
        <ele>775.2</ele>
        <time>2026-05-11T08:30:20Z</time>
      </trkpt>
      <trkpt lat="45.97321" lon="5.59382">
        <ele>775.2</ele>
        <time>2026-05-11T08:30:21Z</time>
      </trkpt>
      <trkpt lat="45.97317" lon="5.59374">
        <ele>775</ele>
        <time>2026-05-11T08:30:22Z</time>
      </trkpt>
      <trkpt lat="45.97314" lon="5.59368">
        <ele>775</ele>
        <time>2026-05-11T08:30:23Z</time>
      </trkpt>
      <trkpt lat="45.97311" lon="5.5936">
        <ele>775</ele>
        <time>2026-05-11T08:30:24Z</time>
      </trkpt>
      <trkpt lat="45.97308" lon="5.59354">
        <ele>774.6</ele>
        <time>2026-05-11T08:30:25Z</time>
      </trkpt>
      <trkpt lat="45.97305" lon="5.59347">
        <ele>774.2</ele>
        <time>2026-05-11T08:30:26Z</time>
      </trkpt>
      <trkpt lat="45.97302" lon="5.59341">
        <ele>774.2</ele>
        <time>2026-05-11T08:30:27Z</time>
      </trkpt>
      <trkpt lat="45.97299" lon="5.59334">
        <ele>774.2</ele>
        <time>2026-05-11T08:30:28Z</time>
      </trkpt>
      <trkpt lat="45.97295" lon="5.59328">
        <ele>774</ele>
        <time>2026-05-11T08:30:29Z</time>
      </trkpt>
      <trkpt lat="45.97291" lon="5.59322">
        <ele>773.6</ele>
        <time>2026-05-11T08:30:30Z</time>
      </trkpt>
      <trkpt lat="45.97288" lon="5.59315">
        <ele>773.6</ele>
        <time>2026-05-11T08:30:31Z</time>
      </trkpt>
      <trkpt lat="45.97284" lon="5.59308">
        <ele>773.6</ele>
        <time>2026-05-11T08:30:32Z</time>
      </trkpt>
      <trkpt lat="45.97281" lon="5.59302">
        <ele>773.6</ele>
        <time>2026-05-11T08:30:33Z</time>
      </trkpt>
      <trkpt lat="45.97278" lon="5.59296">
        <ele>773.2</ele>
        <time>2026-05-11T08:30:34Z</time>
      </trkpt>
      <trkpt lat="45.97274" lon="5.59289">
        <ele>773.2</ele>
        <time>2026-05-11T08:30:35Z</time>
      </trkpt>
      <trkpt lat="45.9727" lon="5.59284">
        <ele>773.2</ele>
        <time>2026-05-11T08:30:36Z</time>
      </trkpt>
      <trkpt lat="45.97267" lon="5.59278">
        <ele>773.2</ele>
        <time>2026-05-11T08:30:37Z</time>
      </trkpt>
      <trkpt lat="45.97263" lon="5.59273">
        <ele>773</ele>
        <time>2026-05-11T08:30:38Z</time>
      </trkpt>
      <trkpt lat="45.97259" lon="5.59269">
        <ele>773</ele>
        <time>2026-05-11T08:30:39Z</time>
      </trkpt>
      <trkpt lat="45.97255" lon="5.59264">
        <ele>773</ele>
        <time>2026-05-11T08:30:40Z</time>
      </trkpt>
      <trkpt lat="45.97251" lon="5.5926">
        <ele>773</ele>
        <time>2026-05-11T08:30:41Z</time>
      </trkpt>
      <trkpt lat="45.97247" lon="5.59255">
        <ele>773.4</ele>
        <time>2026-05-11T08:30:42Z</time>
      </trkpt>
      <trkpt lat="45.97243" lon="5.59251">
        <ele>773.4</ele>
        <time>2026-05-11T08:30:43Z</time>
      </trkpt>
      <trkpt lat="45.97239" lon="5.59247">
        <ele>773</ele>
        <time>2026-05-11T08:30:44Z</time>
      </trkpt>
      <trkpt lat="45.97234" lon="5.59242">
        <ele>772.8</ele>
        <time>2026-05-11T08:30:45Z</time>
      </trkpt>
      <trkpt lat="45.97231" lon="5.59236">
        <ele>772.6</ele>
        <time>2026-05-11T08:30:46Z</time>
      </trkpt>
      <trkpt lat="45.97227" lon="5.59231">
        <ele>772.6</ele>
        <time>2026-05-11T08:30:47Z</time>
      </trkpt>
      <trkpt lat="45.97222" lon="5.59225">
        <ele>772.2</ele>
        <time>2026-05-11T08:30:48Z</time>
      </trkpt>
      <trkpt lat="45.97218" lon="5.5922">
        <ele>772</ele>
        <time>2026-05-11T08:30:49Z</time>
      </trkpt>
      <trkpt lat="45.97215" lon="5.59215">
        <ele>772</ele>
        <time>2026-05-11T08:30:50Z</time>
      </trkpt>
      <trkpt lat="45.97211" lon="5.5921">
        <ele>771.6</ele>
        <time>2026-05-11T08:30:51Z</time>
      </trkpt>
      <trkpt lat="45.97207" lon="5.59205">
        <ele>772</ele>
        <time>2026-05-11T08:30:52Z</time>
      </trkpt>
      <trkpt lat="45.97204" lon="5.59199">
        <ele>772.2</ele>
        <time>2026-05-11T08:30:53Z</time>
      </trkpt>
      <trkpt lat="45.972" lon="5.59194">
        <ele>772.2</ele>
        <time>2026-05-11T08:30:54Z</time>
      </trkpt>
      <trkpt lat="45.97196" lon="5.5919">
        <ele>772</ele>
        <time>2026-05-11T08:30:55Z</time>
      </trkpt>
      <trkpt lat="45.97191" lon="5.59185">
        <ele>771.8</ele>
        <time>2026-05-11T08:30:56Z</time>
      </trkpt>
      <trkpt lat="45.97187" lon="5.5918">
        <ele>771.4</ele>
        <time>2026-05-11T08:30:57Z</time>
      </trkpt>
      <trkpt lat="45.97182" lon="5.59176">
        <ele>771.2</ele>
        <time>2026-05-11T08:30:58Z</time>
      </trkpt>
      <trkpt lat="45.97177" lon="5.59171">
        <ele>771.2</ele>
        <time>2026-05-11T08:30:59Z</time>
      </trkpt>
      <trkpt lat="45.97173" lon="5.59167">
        <ele>771.2</ele>
        <time>2026-05-11T08:31:00Z</time>
      </trkpt>
      <trkpt lat="45.97167" lon="5.59163">
        <ele>771.2</ele>
        <time>2026-05-11T08:31:01Z</time>
      </trkpt>
      <trkpt lat="45.97162" lon="5.59159">
        <ele>771.2</ele>
        <time>2026-05-11T08:31:02Z</time>
      </trkpt>
      <trkpt lat="45.97158" lon="5.59154">
        <ele>770.8</ele>
        <time>2026-05-11T08:31:03Z</time>
      </trkpt>
      <trkpt lat="45.97153" lon="5.5915">
        <ele>770.8</ele>
        <time>2026-05-11T08:31:04Z</time>
      </trkpt>
      <trkpt lat="45.97148" lon="5.59146">
        <ele>770.4</ele>
        <time>2026-05-11T08:31:05Z</time>
      </trkpt>
      <trkpt lat="45.97143" lon="5.59142">
        <ele>770.4</ele>
        <time>2026-05-11T08:31:06Z</time>
      </trkpt>
      <trkpt lat="45.97138" lon="5.59139">
        <ele>770.6</ele>
        <time>2026-05-11T08:31:07Z</time>
      </trkpt>
      <trkpt lat="45.97132" lon="5.59136">
        <ele>770.6</ele>
        <time>2026-05-11T08:31:08Z</time>
      </trkpt>
      <trkpt lat="45.97127" lon="5.59134">
        <ele>770.6</ele>
        <time>2026-05-11T08:31:09Z</time>
      </trkpt>
      <trkpt lat="45.97122" lon="5.59132">
        <ele>770.6</ele>
        <time>2026-05-11T08:31:10Z</time>
      </trkpt>
      <trkpt lat="45.97117" lon="5.5913">
        <ele>770.6</ele>
        <time>2026-05-11T08:31:11Z</time>
      </trkpt>
      <trkpt lat="45.97112" lon="5.5913">
        <ele>770.6</ele>
        <time>2026-05-11T08:31:12Z</time>
      </trkpt>
      <trkpt lat="45.97106" lon="5.59129">
        <ele>770.6</ele>
        <time>2026-05-11T08:31:13Z</time>
      </trkpt>
      <trkpt lat="45.97101" lon="5.59128">
        <ele>770.2</ele>
        <time>2026-05-11T08:31:14Z</time>
      </trkpt>
      <trkpt lat="45.97095" lon="5.59128">
        <ele>770.2</ele>
        <time>2026-05-11T08:31:15Z</time>
      </trkpt>
      <trkpt lat="45.97089" lon="5.59127">
        <ele>770.2</ele>
        <time>2026-05-11T08:31:16Z</time>
      </trkpt>
      <trkpt lat="45.97084" lon="5.59127">
        <ele>770</ele>
        <time>2026-05-11T08:31:17Z</time>
      </trkpt>
      <trkpt lat="45.97078" lon="5.59127">
        <ele>770</ele>
        <time>2026-05-11T08:31:18Z</time>
      </trkpt>
      <trkpt lat="45.97073" lon="5.59126">
        <ele>770</ele>
        <time>2026-05-11T08:31:19Z</time>
      </trkpt>
      <trkpt lat="45.97067" lon="5.59126">
        <ele>769.8</ele>
        <time>2026-05-11T08:31:20Z</time>
      </trkpt>
      <trkpt lat="45.97062" lon="5.59125">
        <ele>769.8</ele>
        <time>2026-05-11T08:31:21Z</time>
      </trkpt>
      <trkpt lat="45.97057" lon="5.59124">
        <ele>769.6</ele>
        <time>2026-05-11T08:31:22Z</time>
      </trkpt>
      <trkpt lat="45.97052" lon="5.59123">
        <ele>769.8</ele>
        <time>2026-05-11T08:31:23Z</time>
      </trkpt>
      <trkpt lat="45.97047" lon="5.59121">
        <ele>769.8</ele>
        <time>2026-05-11T08:31:24Z</time>
      </trkpt>
      <trkpt lat="45.97042" lon="5.59119">
        <ele>769.8</ele>
        <time>2026-05-11T08:31:25Z</time>
      </trkpt>
      <trkpt lat="45.97037" lon="5.59117">
        <ele>769.8</ele>
        <time>2026-05-11T08:31:26Z</time>
      </trkpt>
      <trkpt lat="45.97031" lon="5.59115">
        <ele>769.8</ele>
        <time>2026-05-11T08:31:27Z</time>
      </trkpt>
      <trkpt lat="45.97026" lon="5.59112">
        <ele>769.8</ele>
        <time>2026-05-11T08:31:28Z</time>
      </trkpt>
      <trkpt lat="45.9702" lon="5.5911">
        <ele>769.6</ele>
        <time>2026-05-11T08:31:29Z</time>
      </trkpt>
      <trkpt lat="45.97015" lon="5.59106">
        <ele>769.4</ele>
        <time>2026-05-11T08:31:30Z</time>
      </trkpt>
      <trkpt lat="45.9701" lon="5.59103">
        <ele>769.4</ele>
        <time>2026-05-11T08:31:31Z</time>
      </trkpt>
      <trkpt lat="45.97005" lon="5.591">
        <ele>769.6</ele>
        <time>2026-05-11T08:31:32Z</time>
      </trkpt>
      <trkpt lat="45.97" lon="5.59096">
        <ele>769.6</ele>
        <time>2026-05-11T08:31:33Z</time>
      </trkpt>
      <trkpt lat="45.96995" lon="5.59093">
        <ele>769.6</ele>
        <time>2026-05-11T08:31:34Z</time>
      </trkpt>
      <trkpt lat="45.9699" lon="5.59089">
        <ele>769.6</ele>
        <time>2026-05-11T08:31:35Z</time>
      </trkpt>
      <trkpt lat="45.96985" lon="5.59085">
        <ele>769.6</ele>
        <time>2026-05-11T08:31:36Z</time>
      </trkpt>
      <trkpt lat="45.9698" lon="5.59081">
        <ele>769.6</ele>
        <time>2026-05-11T08:31:37Z</time>
      </trkpt>
      <trkpt lat="45.96975" lon="5.59077">
        <ele>769.6</ele>
        <time>2026-05-11T08:31:38Z</time>
      </trkpt>
      <trkpt lat="45.9697" lon="5.59073">
        <ele>769.4</ele>
        <time>2026-05-11T08:31:39Z</time>
      </trkpt>
      <trkpt lat="45.96965" lon="5.59069">
        <ele>769.4</ele>
        <time>2026-05-11T08:31:40Z</time>
      </trkpt>
      <trkpt lat="45.9696" lon="5.59065">
        <ele>769.4</ele>
        <time>2026-05-11T08:31:41Z</time>
      </trkpt>
      <trkpt lat="45.96956" lon="5.59061">
        <ele>769.4</ele>
        <time>2026-05-11T08:31:42Z</time>
      </trkpt>
      <trkpt lat="45.96951" lon="5.59057">
        <ele>769.4</ele>
        <time>2026-05-11T08:31:43Z</time>
      </trkpt>
      <trkpt lat="45.96946" lon="5.59053">
        <ele>769</ele>
        <time>2026-05-11T08:31:44Z</time>
      </trkpt>
      <trkpt lat="45.96942" lon="5.59049">
        <ele>768.6</ele>
        <time>2026-05-11T08:31:45Z</time>
      </trkpt>
      <trkpt lat="45.96938" lon="5.59044">
        <ele>768.2</ele>
        <time>2026-05-11T08:31:46Z</time>
      </trkpt>
      <trkpt lat="45.96933" lon="5.5904">
        <ele>768.2</ele>
        <time>2026-05-11T08:31:47Z</time>
      </trkpt>
      <trkpt lat="45.96929" lon="5.59036">
        <ele>768.6</ele>
        <time>2026-05-11T08:31:48Z</time>
      </trkpt>
      <trkpt lat="45.96924" lon="5.59031">
        <ele>768.6</ele>
        <time>2026-05-11T08:31:49Z</time>
      </trkpt>
      <trkpt lat="45.9692" lon="5.59026">
        <ele>768.6</ele>
        <time>2026-05-11T08:31:50Z</time>
      </trkpt>
      <trkpt lat="45.96915" lon="5.59021">
        <ele>768.2</ele>
        <time>2026-05-11T08:31:51Z</time>
      </trkpt>
      <trkpt lat="45.96911" lon="5.59016">
        <ele>768.2</ele>
        <time>2026-05-11T08:31:52Z</time>
      </trkpt>
      <trkpt lat="45.96906" lon="5.59011">
        <ele>768.4</ele>
        <time>2026-05-11T08:31:53Z</time>
      </trkpt>
      <trkpt lat="45.96902" lon="5.59006">
        <ele>768.4</ele>
        <time>2026-05-11T08:31:54Z</time>
      </trkpt>
      <trkpt lat="45.96898" lon="5.59001">
        <ele>768.4</ele>
        <time>2026-05-11T08:31:55Z</time>
      </trkpt>
      <trkpt lat="45.96893" lon="5.58996">
        <ele>768.4</ele>
        <time>2026-05-11T08:31:56Z</time>
      </trkpt>
      <trkpt lat="45.96889" lon="5.58991">
        <ele>768.2</ele>
        <time>2026-05-11T08:31:57Z</time>
      </trkpt>
      <trkpt lat="45.96884" lon="5.58987">
        <ele>768.2</ele>
        <time>2026-05-11T08:31:58Z</time>
      </trkpt>
      <trkpt lat="45.9688" lon="5.58983">
        <ele>768.2</ele>
        <time>2026-05-11T08:31:59Z</time>
      </trkpt>
      <trkpt lat="45.96876" lon="5.58979">
        <ele>768.2</ele>
        <time>2026-05-11T08:32:00Z</time>
      </trkpt>
      <trkpt lat="45.96871" lon="5.58975">
        <ele>768.8</ele>
        <time>2026-05-11T08:32:01Z</time>
      </trkpt>
      <trkpt lat="45.96866" lon="5.58972">
        <ele>768.8</ele>
        <time>2026-05-11T08:32:02Z</time>
      </trkpt>
      <trkpt lat="45.96861" lon="5.58969">
        <ele>768.8</ele>
        <time>2026-05-11T08:32:03Z</time>
      </trkpt>
      <trkpt lat="45.96856" lon="5.58967">
        <ele>768.8</ele>
        <time>2026-05-11T08:32:04Z</time>
      </trkpt>
      <trkpt lat="45.96851" lon="5.58964">
        <ele>769</ele>
        <time>2026-05-11T08:32:05Z</time>
      </trkpt>
      <trkpt lat="45.96846" lon="5.58963">
        <ele>769.6</ele>
        <time>2026-05-11T08:32:06Z</time>
      </trkpt>
      <trkpt lat="45.9684" lon="5.58961">
        <ele>769.4</ele>
        <time>2026-05-11T08:32:07Z</time>
      </trkpt>
      <trkpt lat="45.96835" lon="5.58959">
        <ele>769.2</ele>
        <time>2026-05-11T08:32:08Z</time>
      </trkpt>
      <trkpt lat="45.96829" lon="5.58957">
        <ele>769.2</ele>
        <time>2026-05-11T08:32:09Z</time>
      </trkpt>
      <trkpt lat="45.96824" lon="5.58955">
        <ele>769.2</ele>
        <time>2026-05-11T08:32:10Z</time>
      </trkpt>
      <trkpt lat="45.96819" lon="5.58953">
        <ele>768.8</ele>
        <time>2026-05-11T08:32:11Z</time>
      </trkpt>
      <trkpt lat="45.96814" lon="5.58949">
        <ele>768.8</ele>
        <time>2026-05-11T08:32:12Z</time>
      </trkpt>
      <trkpt lat="45.96809" lon="5.58946">
        <ele>769</ele>
        <time>2026-05-11T08:32:13Z</time>
      </trkpt>
      <trkpt lat="45.96804" lon="5.58942">
        <ele>768.8</ele>
        <time>2026-05-11T08:32:14Z</time>
      </trkpt>
      <trkpt lat="45.96799" lon="5.58938">
        <ele>768.8</ele>
        <time>2026-05-11T08:32:15Z</time>
      </trkpt>
      <trkpt lat="45.96794" lon="5.58934">
        <ele>768.8</ele>
        <time>2026-05-11T08:32:16Z</time>
      </trkpt>
      <trkpt lat="45.96789" lon="5.58931">
        <ele>768.8</ele>
        <time>2026-05-11T08:32:17Z</time>
      </trkpt>
      <trkpt lat="45.96784" lon="5.58927">
        <ele>768.8</ele>
        <time>2026-05-11T08:32:18Z</time>
      </trkpt>
      <trkpt lat="45.96779" lon="5.58923">
        <ele>768.8</ele>
        <time>2026-05-11T08:32:19Z</time>
      </trkpt>
      <trkpt lat="45.96774" lon="5.5892">
        <ele>768.8</ele>
        <time>2026-05-11T08:32:20Z</time>
      </trkpt>
      <trkpt lat="45.96774" lon="5.5892">
        <ele>768.8</ele>
        <time>2026-05-11T08:32:21Z</time>
      </trkpt>
      <trkpt lat="45.96769" lon="5.58916">
        <ele>768.8</ele>
        <time>2026-05-11T08:32:22Z</time>
      </trkpt>
      <trkpt lat="45.96764" lon="5.58912">
        <ele>768.8</ele>
        <time>2026-05-11T08:32:23Z</time>
      </trkpt>
      <trkpt lat="45.96759" lon="5.58909">
        <ele>768.8</ele>
        <time>2026-05-11T08:32:24Z</time>
      </trkpt>
      <trkpt lat="45.96754" lon="5.58906">
        <ele>769</ele>
        <time>2026-05-11T08:32:25Z</time>
      </trkpt>
      <trkpt lat="45.96749" lon="5.58903">
        <ele>769</ele>
        <time>2026-05-11T08:32:26Z</time>
      </trkpt>
      <trkpt lat="45.96744" lon="5.58899">
        <ele>769.2</ele>
        <time>2026-05-11T08:32:27Z</time>
      </trkpt>
      <trkpt lat="45.96739" lon="5.58895">
        <ele>769.2</ele>
        <time>2026-05-11T08:32:28Z</time>
      </trkpt>
      <trkpt lat="45.96734" lon="5.58892">
        <ele>769.2</ele>
        <time>2026-05-11T08:32:29Z</time>
      </trkpt>
      <trkpt lat="45.96728" lon="5.58888">
        <ele>769.2</ele>
        <time>2026-05-11T08:32:30Z</time>
      </trkpt>
      <trkpt lat="45.96723" lon="5.58885">
        <ele>769.2</ele>
        <time>2026-05-11T08:32:31Z</time>
      </trkpt>
      <trkpt lat="45.96719" lon="5.58881">
        <ele>769.2</ele>
        <time>2026-05-11T08:32:32Z</time>
      </trkpt>
      <trkpt lat="45.96714" lon="5.58878">
        <ele>769</ele>
        <time>2026-05-11T08:32:33Z</time>
      </trkpt>
      <trkpt lat="45.96709" lon="5.58874">
        <ele>769</ele>
        <time>2026-05-11T08:32:34Z</time>
      </trkpt>
      <trkpt lat="45.96704" lon="5.5887">
        <ele>769</ele>
        <time>2026-05-11T08:32:35Z</time>
      </trkpt>
      <trkpt lat="45.967" lon="5.58866">
        <ele>768.6</ele>
        <time>2026-05-11T08:32:36Z</time>
      </trkpt>
      <trkpt lat="45.96695" lon="5.58861">
        <ele>768.6</ele>
        <time>2026-05-11T08:32:37Z</time>
      </trkpt>
      <trkpt lat="45.96691" lon="5.58855">
        <ele>768.6</ele>
        <time>2026-05-11T08:32:38Z</time>
      </trkpt>
      <trkpt lat="45.96687" lon="5.5885">
        <ele>768.6</ele>
        <time>2026-05-11T08:32:39Z</time>
      </trkpt>
      <trkpt lat="45.96682" lon="5.58845">
        <ele>768.6</ele>
        <time>2026-05-11T08:32:40Z</time>
      </trkpt>
      <trkpt lat="45.96678" lon="5.5884">
        <ele>768.6</ele>
        <time>2026-05-11T08:32:41Z</time>
      </trkpt>
      <trkpt lat="45.96674" lon="5.58835">
        <ele>768.6</ele>
        <time>2026-05-11T08:32:42Z</time>
      </trkpt>
      <trkpt lat="45.96671" lon="5.58829">
        <ele>768.4</ele>
        <time>2026-05-11T08:32:43Z</time>
      </trkpt>
      <trkpt lat="45.96667" lon="5.58824">
        <ele>768.2</ele>
        <time>2026-05-11T08:32:44Z</time>
      </trkpt>
      <trkpt lat="45.96663" lon="5.58818">
        <ele>768.2</ele>
        <time>2026-05-11T08:32:45Z</time>
      </trkpt>
      <trkpt lat="45.96659" lon="5.58812">
        <ele>768.2</ele>
        <time>2026-05-11T08:32:46Z</time>
      </trkpt>
      <trkpt lat="45.96656" lon="5.58807">
        <ele>768.6</ele>
        <time>2026-05-11T08:32:47Z</time>
      </trkpt>
      <trkpt lat="45.96653" lon="5.58801">
        <ele>768.6</ele>
        <time>2026-05-11T08:32:48Z</time>
      </trkpt>
      <trkpt lat="45.96649" lon="5.58795">
        <ele>768.6</ele>
        <time>2026-05-11T08:32:49Z</time>
      </trkpt>
      <trkpt lat="45.96647" lon="5.58789">
        <ele>768.4</ele>
        <time>2026-05-11T08:32:50Z</time>
      </trkpt>
      <trkpt lat="45.96645" lon="5.58781">
        <ele>768.4</ele>
        <time>2026-05-11T08:32:51Z</time>
      </trkpt>
      <trkpt lat="45.96643" lon="5.58774">
        <ele>768.2</ele>
        <time>2026-05-11T08:32:52Z</time>
      </trkpt>
      <trkpt lat="45.96642" lon="5.58767">
        <ele>768.2</ele>
        <time>2026-05-11T08:32:53Z</time>
      </trkpt>
      <trkpt lat="45.9664" lon="5.58759">
        <ele>768.2</ele>
        <time>2026-05-11T08:32:54Z</time>
      </trkpt>
      <trkpt lat="45.96637" lon="5.58752">
        <ele>768.2</ele>
        <time>2026-05-11T08:32:55Z</time>
      </trkpt>
      <trkpt lat="45.96635" lon="5.58745">
        <ele>768.2</ele>
        <time>2026-05-11T08:32:56Z</time>
      </trkpt>
      <trkpt lat="45.96633" lon="5.58738">
        <ele>768.2</ele>
        <time>2026-05-11T08:32:57Z</time>
      </trkpt>
      <trkpt lat="45.96629" lon="5.58732">
        <ele>767.8</ele>
        <time>2026-05-11T08:32:58Z</time>
      </trkpt>
      <trkpt lat="45.96625" lon="5.58726">
        <ele>767.6</ele>
        <time>2026-05-11T08:32:59Z</time>
      </trkpt>
      <trkpt lat="45.96622" lon="5.58721">
        <ele>767.6</ele>
        <time>2026-05-11T08:33:00Z</time>
      </trkpt>
      <trkpt lat="45.96617" lon="5.58717">
        <ele>767.6</ele>
        <time>2026-05-11T08:33:01Z</time>
      </trkpt>
      <trkpt lat="45.96609" lon="5.58708">
        <ele>767.6</ele>
        <time>2026-05-11T08:33:02Z</time>
      </trkpt>
      <trkpt lat="45.96604" lon="5.58703">
        <ele>767.6</ele>
        <time>2026-05-11T08:33:03Z</time>
      </trkpt>
      <trkpt lat="45.966" lon="5.58698">
        <ele>767.6</ele>
        <time>2026-05-11T08:33:04Z</time>
      </trkpt>
      <trkpt lat="45.96595" lon="5.58694">
        <ele>767.6</ele>
        <time>2026-05-11T08:33:05Z</time>
      </trkpt>
      <trkpt lat="45.96591" lon="5.5869">
        <ele>767.6</ele>
        <time>2026-05-11T08:33:06Z</time>
      </trkpt>
      <trkpt lat="45.96586" lon="5.58686">
        <ele>767.4</ele>
        <time>2026-05-11T08:33:07Z</time>
      </trkpt>
      <trkpt lat="45.96582" lon="5.58679">
        <ele>767.4</ele>
        <time>2026-05-11T08:33:08Z</time>
      </trkpt>
      <trkpt lat="45.96577" lon="5.58676">
        <ele>767.4</ele>
        <time>2026-05-11T08:33:09Z</time>
      </trkpt>
      <trkpt lat="45.96573" lon="5.58672">
        <ele>767.4</ele>
        <time>2026-05-11T08:33:10Z</time>
      </trkpt>
      <trkpt lat="45.96569" lon="5.58668">
        <ele>767.4</ele>
        <time>2026-05-11T08:33:11Z</time>
      </trkpt>
      <trkpt lat="45.96565" lon="5.58665">
        <ele>767.4</ele>
        <time>2026-05-11T08:33:12Z</time>
      </trkpt>
      <trkpt lat="45.96562" lon="5.5866">
        <ele>767.4</ele>
        <time>2026-05-11T08:33:13Z</time>
      </trkpt>
      <trkpt lat="45.96558" lon="5.58656">
        <ele>767.2</ele>
        <time>2026-05-11T08:33:14Z</time>
      </trkpt>
      <trkpt lat="45.96555" lon="5.58651">
        <ele>767.2</ele>
        <time>2026-05-11T08:33:15Z</time>
      </trkpt>
      <trkpt lat="45.96552" lon="5.58646">
        <ele>767.2</ele>
        <time>2026-05-11T08:33:16Z</time>
      </trkpt>
      <trkpt lat="45.96549" lon="5.5864">
        <ele>767.4</ele>
        <time>2026-05-11T08:33:17Z</time>
      </trkpt>
      <trkpt lat="45.96547" lon="5.58635">
        <ele>767.4</ele>
        <time>2026-05-11T08:33:18Z</time>
      </trkpt>
      <trkpt lat="45.96545" lon="5.58629">
        <ele>767.4</ele>
        <time>2026-05-11T08:33:19Z</time>
      </trkpt>
      <trkpt lat="45.96543" lon="5.58623">
        <ele>767.4</ele>
        <time>2026-05-11T08:33:20Z</time>
      </trkpt>
      <trkpt lat="45.96542" lon="5.58617">
        <ele>767</ele>
        <time>2026-05-11T08:33:21Z</time>
      </trkpt>
      <trkpt lat="45.9654" lon="5.58611">
        <ele>767</ele>
        <time>2026-05-11T08:33:22Z</time>
      </trkpt>
      <trkpt lat="45.96538" lon="5.58607">
        <ele>766.6</ele>
        <time>2026-05-11T08:33:23Z</time>
      </trkpt>
      <trkpt lat="45.96535" lon="5.58602">
        <ele>766.6</ele>
        <time>2026-05-11T08:33:24Z</time>
      </trkpt>
      <trkpt lat="45.96533" lon="5.58597">
        <ele>766.6</ele>
        <time>2026-05-11T08:33:25Z</time>
      </trkpt>
      <trkpt lat="45.9653" lon="5.58592">
        <ele>766.4</ele>
        <time>2026-05-11T08:33:26Z</time>
      </trkpt>
      <trkpt lat="45.96527" lon="5.58587">
        <ele>766.4</ele>
        <time>2026-05-11T08:33:27Z</time>
      </trkpt>
      <trkpt lat="45.96524" lon="5.58583">
        <ele>766.2</ele>
        <time>2026-05-11T08:33:28Z</time>
      </trkpt>
      <trkpt lat="45.96521" lon="5.58579">
        <ele>766.2</ele>
        <time>2026-05-11T08:33:29Z</time>
      </trkpt>
      <trkpt lat="45.96517" lon="5.58575">
        <ele>766.2</ele>
        <time>2026-05-11T08:33:30Z</time>
      </trkpt>
      <trkpt lat="45.96514" lon="5.58571">
        <ele>765.8</ele>
        <time>2026-05-11T08:33:31Z</time>
      </trkpt>
      <trkpt lat="45.96512" lon="5.58566">
        <ele>765.8</ele>
        <time>2026-05-11T08:33:32Z</time>
      </trkpt>
      <trkpt lat="45.96509" lon="5.5856">
        <ele>765.8</ele>
        <time>2026-05-11T08:33:33Z</time>
      </trkpt>
      <trkpt lat="45.96507" lon="5.58554">
        <ele>765.8</ele>
        <time>2026-05-11T08:33:34Z</time>
      </trkpt>
      <trkpt lat="45.96505" lon="5.58547">
        <ele>765.8</ele>
        <time>2026-05-11T08:33:35Z</time>
      </trkpt>
      <trkpt lat="45.96504" lon="5.58541">
        <ele>765.8</ele>
        <time>2026-05-11T08:33:36Z</time>
      </trkpt>
      <trkpt lat="45.96502" lon="5.58535">
        <ele>765.8</ele>
        <time>2026-05-11T08:33:37Z</time>
      </trkpt>
      <trkpt lat="45.96501" lon="5.58528">
        <ele>765.8</ele>
        <time>2026-05-11T08:33:38Z</time>
      </trkpt>
      <trkpt lat="45.965" lon="5.58521">
        <ele>765.8</ele>
        <time>2026-05-11T08:33:39Z</time>
      </trkpt>
      <trkpt lat="45.96499" lon="5.58514">
        <ele>765.8</ele>
        <time>2026-05-11T08:33:40Z</time>
      </trkpt>
      <trkpt lat="45.96498" lon="5.58507">
        <ele>765.8</ele>
        <time>2026-05-11T08:33:41Z</time>
      </trkpt>
      <trkpt lat="45.96497" lon="5.585">
        <ele>765.6</ele>
        <time>2026-05-11T08:33:42Z</time>
      </trkpt>
      <trkpt lat="45.96498" lon="5.58494">
        <ele>765.4</ele>
        <time>2026-05-11T08:33:43Z</time>
      </trkpt>
      <trkpt lat="45.96497" lon="5.58487">
        <ele>766</ele>
        <time>2026-05-11T08:33:44Z</time>
      </trkpt>
      <trkpt lat="45.96497" lon="5.58482">
        <ele>766.2</ele>
        <time>2026-05-11T08:33:45Z</time>
      </trkpt>
      <trkpt lat="45.96496" lon="5.58476">
        <ele>766.2</ele>
        <time>2026-05-11T08:33:46Z</time>
      </trkpt>
      <trkpt lat="45.96497" lon="5.5847">
        <ele>766.2</ele>
        <time>2026-05-11T08:33:47Z</time>
      </trkpt>
      <trkpt lat="45.96498" lon="5.58463">
        <ele>766.2</ele>
        <time>2026-05-11T08:33:48Z</time>
      </trkpt>
      <trkpt lat="45.96498" lon="5.58456">
        <ele>766.2</ele>
        <time>2026-05-11T08:33:49Z</time>
      </trkpt>
      <trkpt lat="45.96499" lon="5.58449">
        <ele>766.2</ele>
        <time>2026-05-11T08:33:50Z</time>
      </trkpt>
      <trkpt lat="45.96499" lon="5.58441">
        <ele>766</ele>
        <time>2026-05-11T08:33:51Z</time>
      </trkpt>
      <trkpt lat="45.965" lon="5.58434">
        <ele>766</ele>
        <time>2026-05-11T08:33:52Z</time>
      </trkpt>
      <trkpt lat="45.965" lon="5.58426">
        <ele>765.8</ele>
        <time>2026-05-11T08:33:53Z</time>
      </trkpt>
      <trkpt lat="45.965" lon="5.58419">
        <ele>765.8</ele>
        <time>2026-05-11T08:33:54Z</time>
      </trkpt>
      <trkpt lat="45.965" lon="5.58412">
        <ele>765.4</ele>
        <time>2026-05-11T08:33:55Z</time>
      </trkpt>
      <trkpt lat="45.965" lon="5.58404">
        <ele>765.4</ele>
        <time>2026-05-11T08:33:56Z</time>
      </trkpt>
      <trkpt lat="45.965" lon="5.58397">
        <ele>765.4</ele>
        <time>2026-05-11T08:33:57Z</time>
      </trkpt>
      <trkpt lat="45.965" lon="5.58389">
        <ele>765.6</ele>
        <time>2026-05-11T08:33:58Z</time>
      </trkpt>
      <trkpt lat="45.96501" lon="5.58383">
        <ele>765.6</ele>
        <time>2026-05-11T08:33:59Z</time>
      </trkpt>
      <trkpt lat="45.965" lon="5.58377">
        <ele>766</ele>
        <time>2026-05-11T08:34:00Z</time>
      </trkpt>
      <trkpt lat="45.96499" lon="5.58371">
        <ele>766</ele>
        <time>2026-05-11T08:34:01Z</time>
      </trkpt>
      <trkpt lat="45.96498" lon="5.58365">
        <ele>766</ele>
        <time>2026-05-11T08:34:02Z</time>
      </trkpt>
      <trkpt lat="45.96497" lon="5.58361">
        <ele>766.4</ele>
        <time>2026-05-11T08:34:03Z</time>
      </trkpt>
      <trkpt lat="45.96496" lon="5.58356">
        <ele>766.4</ele>
        <time>2026-05-11T08:34:04Z</time>
      </trkpt>
      <trkpt lat="45.96496" lon="5.58352">
        <ele>766.4</ele>
        <time>2026-05-11T08:34:05Z</time>
      </trkpt>
      <trkpt lat="45.96497" lon="5.58347">
        <ele>766.4</ele>
        <time>2026-05-11T08:34:06Z</time>
      </trkpt>
      <trkpt lat="45.96495" lon="5.58342">
        <ele>766.6</ele>
        <time>2026-05-11T08:34:07Z</time>
      </trkpt>
      <trkpt lat="45.96495" lon="5.58337">
        <ele>766.6</ele>
        <time>2026-05-11T08:34:08Z</time>
      </trkpt>
      <trkpt lat="45.96494" lon="5.58334">
        <ele>766.6</ele>
        <time>2026-05-11T08:34:09Z</time>
      </trkpt>
      <trkpt lat="45.96493" lon="5.5833">
        <ele>766.6</ele>
        <time>2026-05-11T08:34:10Z</time>
      </trkpt>
      <trkpt lat="45.96491" lon="5.58328">
        <ele>767</ele>
        <time>2026-05-11T08:34:11Z</time>
      </trkpt>
      <trkpt lat="45.96489" lon="5.58327">
        <ele>767</ele>
        <time>2026-05-11T08:34:12Z</time>
      </trkpt>
      <trkpt lat="45.96486" lon="5.58326">
        <ele>767</ele>
        <time>2026-05-11T08:34:13Z</time>
      </trkpt>
      <trkpt lat="45.96483" lon="5.58326">
        <ele>767</ele>
        <time>2026-05-11T08:34:14Z</time>
      </trkpt>
      <trkpt lat="45.9648" lon="5.58325">
        <ele>767</ele>
        <time>2026-05-11T08:34:15Z</time>
      </trkpt>
      <trkpt lat="45.96477" lon="5.58325">
        <ele>767</ele>
        <time>2026-05-11T08:34:16Z</time>
      </trkpt>
      <trkpt lat="45.96474" lon="5.58324">
        <ele>766.8</ele>
        <time>2026-05-11T08:34:17Z</time>
      </trkpt>
      <trkpt lat="45.96471" lon="5.58324">
        <ele>766.8</ele>
        <time>2026-05-11T08:34:18Z</time>
      </trkpt>
      <trkpt lat="45.96468" lon="5.58325">
        <ele>766.8</ele>
        <time>2026-05-11T08:34:19Z</time>
      </trkpt>
      <trkpt lat="45.96465" lon="5.58325">
        <ele>766.8</ele>
        <time>2026-05-11T08:34:20Z</time>
      </trkpt>
      <trkpt lat="45.96463" lon="5.58326">
        <ele>766.8</ele>
        <time>2026-05-11T08:34:21Z</time>
      </trkpt>
      <trkpt lat="45.9646" lon="5.58326">
        <ele>766.8</ele>
        <time>2026-05-11T08:34:22Z</time>
      </trkpt>
      <trkpt lat="45.96457" lon="5.58327">
        <ele>766.8</ele>
        <time>2026-05-11T08:34:23Z</time>
      </trkpt>
      <trkpt lat="45.96454" lon="5.58327">
        <ele>766.8</ele>
        <time>2026-05-11T08:34:24Z</time>
      </trkpt>
      <trkpt lat="45.96452" lon="5.58328">
        <ele>766.8</ele>
        <time>2026-05-11T08:34:25Z</time>
      </trkpt>
      <trkpt lat="45.9645" lon="5.58328">
        <ele>766.8</ele>
        <time>2026-05-11T08:34:26Z</time>
      </trkpt>
      <trkpt lat="45.96448" lon="5.58328">
        <ele>766.8</ele>
        <time>2026-05-11T08:34:27Z</time>
      </trkpt>
      <trkpt lat="45.96445" lon="5.58329">
        <ele>766.8</ele>
        <time>2026-05-11T08:34:28Z</time>
      </trkpt>
      <trkpt lat="45.96443" lon="5.5833">
        <ele>766.8</ele>
        <time>2026-05-11T08:34:29Z</time>
      </trkpt>
      <trkpt lat="45.96441" lon="5.5833">
        <ele>766.8</ele>
        <time>2026-05-11T08:34:30Z</time>
      </trkpt>
      <trkpt lat="45.96438" lon="5.5833">
        <ele>766.8</ele>
        <time>2026-05-11T08:34:31Z</time>
      </trkpt>
      <trkpt lat="45.96436" lon="5.58329">
        <ele>766.4</ele>
        <time>2026-05-11T08:34:32Z</time>
      </trkpt>
      <trkpt lat="45.96434" lon="5.58329">
        <ele>766.4</ele>
        <time>2026-05-11T08:34:33Z</time>
      </trkpt>
      <trkpt lat="45.96432" lon="5.58328">
        <ele>766.4</ele>
        <time>2026-05-11T08:34:34Z</time>
      </trkpt>
      <trkpt lat="45.96431" lon="5.58329">
        <ele>766.4</ele>
        <time>2026-05-11T08:34:35Z</time>
      </trkpt>
      <trkpt lat="45.96429" lon="5.5833">
        <ele>766.4</ele>
        <time>2026-05-11T08:34:36Z</time>
      </trkpt>
      <trkpt lat="45.96429" lon="5.58331">
        <ele>766.4</ele>
        <time>2026-05-11T08:34:37Z</time>
      </trkpt>
      <trkpt lat="45.96428" lon="5.58333">
        <ele>766.4</ele>
        <time>2026-05-11T08:34:38Z</time>
      </trkpt>
      <trkpt lat="45.96428" lon="5.58334">
        <ele>766.4</ele>
        <time>2026-05-11T08:34:39Z</time>
      </trkpt>
      <trkpt lat="45.96428" lon="5.58334">
        <ele>766.4</ele>
        <time>2026-05-11T08:34:40Z</time>
      </trkpt>
      <trkpt lat="45.96428" lon="5.58334">
        <ele>766.4</ele>
        <time>2026-05-11T08:34:41Z</time>
      </trkpt>
      <trkpt lat="45.96429" lon="5.58336">
        <ele>766.4</ele>
        <time>2026-05-11T08:34:44Z</time>
      </trkpt>
      <trkpt lat="45.96429" lon="5.58337">
        <ele>766.4</ele>
        <time>2026-05-11T08:34:45Z</time>
      </trkpt>
      <trkpt lat="45.96429" lon="5.58337">
        <ele>766.4</ele>
        <time>2026-05-11T08:34:46Z</time>
      </trkpt>
      <trkpt lat="45.96429" lon="5.58337">
        <ele>766.8</ele>
        <time>2026-05-11T08:34:47Z</time>
      </trkpt>
      <trkpt lat="45.96429" lon="5.58329">
        <ele>765.8</ele>
        <time>2026-05-11T08:40:44Z</time>
      </trkpt>
      <trkpt lat="45.96429" lon="5.58329">
        <ele>765.8</ele>
        <time>2026-05-11T08:40:45Z</time>
      </trkpt>
      <trkpt lat="45.96429" lon="5.58329">
        <ele>765.8</ele>
        <time>2026-05-11T08:40:46Z</time>
      </trkpt>
      <trkpt lat="45.96428" lon="5.58329">
        <ele>765.8</ele>
        <time>2026-05-11T08:40:47Z</time>
      </trkpt>
      <trkpt lat="45.96428" lon="5.58327">
        <ele>765.8</ele>
        <time>2026-05-11T08:40:48Z</time>
      </trkpt>
      <trkpt lat="45.96426" lon="5.58326">
        <ele>766.2</ele>
        <time>2026-05-11T08:40:49Z</time>
      </trkpt>
      <trkpt lat="45.96425" lon="5.58325">
        <ele>766.2</ele>
        <time>2026-05-11T08:40:50Z</time>
      </trkpt>
      <trkpt lat="45.96423" lon="5.58325">
        <ele>766.2</ele>
        <time>2026-05-11T08:40:51Z</time>
      </trkpt>
      <trkpt lat="45.96421" lon="5.58325">
        <ele>766.2</ele>
        <time>2026-05-11T08:40:52Z</time>
      </trkpt>
      <trkpt lat="45.96419" lon="5.58324">
        <ele>766</ele>
        <time>2026-05-11T08:40:53Z</time>
      </trkpt>
      <trkpt lat="45.96417" lon="5.58323">
        <ele>766</ele>
        <time>2026-05-11T08:40:54Z</time>
      </trkpt>
      <trkpt lat="45.96414" lon="5.58322">
        <ele>766</ele>
        <time>2026-05-11T08:40:55Z</time>
      </trkpt>
      <trkpt lat="45.96413" lon="5.58319">
        <ele>766</ele>
        <time>2026-05-11T08:40:56Z</time>
      </trkpt>
      <trkpt lat="45.96411" lon="5.58317">
        <ele>766</ele>
        <time>2026-05-11T08:40:57Z</time>
      </trkpt>
      <trkpt lat="45.96409" lon="5.58315">
        <ele>766</ele>
        <time>2026-05-11T08:40:58Z</time>
      </trkpt>
      <trkpt lat="45.96407" lon="5.58313">
        <ele>766.2</ele>
        <time>2026-05-11T08:40:59Z</time>
      </trkpt>
      <trkpt lat="45.96407" lon="5.58313">
        <ele>766.2</ele>
        <time>2026-05-11T08:41:00Z</time>
      </trkpt>
      <trkpt lat="45.96401" lon="5.58312">
        <ele>766.2</ele>
        <time>2026-05-11T08:41:01Z</time>
      </trkpt>
      <trkpt lat="45.96398" lon="5.58312">
        <ele>766.2</ele>
        <time>2026-05-11T08:41:02Z</time>
      </trkpt>
      <trkpt lat="45.96395" lon="5.58311">
        <ele>766.2</ele>
        <time>2026-05-11T08:41:03Z</time>
      </trkpt>
      <trkpt lat="45.96392" lon="5.58309">
        <ele>766</ele>
        <time>2026-05-11T08:41:04Z</time>
      </trkpt>
      <trkpt lat="45.9639" lon="5.58306">
        <ele>765.8</ele>
        <time>2026-05-11T08:41:05Z</time>
      </trkpt>
      <trkpt lat="45.96387" lon="5.58303">
        <ele>765.6</ele>
        <time>2026-05-11T08:41:06Z</time>
      </trkpt>
      <trkpt lat="45.96384" lon="5.58301">
        <ele>765.2</ele>
        <time>2026-05-11T08:41:07Z</time>
      </trkpt>
      <trkpt lat="45.96381" lon="5.58299">
        <ele>765.2</ele>
        <time>2026-05-11T08:41:08Z</time>
      </trkpt>
      <trkpt lat="45.96378" lon="5.58297">
        <ele>765.2</ele>
        <time>2026-05-11T08:41:09Z</time>
      </trkpt>
      <trkpt lat="45.96375" lon="5.58295">
        <ele>765.2</ele>
        <time>2026-05-11T08:41:10Z</time>
      </trkpt>
      <trkpt lat="45.96372" lon="5.58293">
        <ele>765.2</ele>
        <time>2026-05-11T08:41:11Z</time>
      </trkpt>
      <trkpt lat="45.9637" lon="5.58291">
        <ele>765.2</ele>
        <time>2026-05-11T08:41:12Z</time>
      </trkpt>
      <trkpt lat="45.96367" lon="5.58288">
        <ele>765.6</ele>
        <time>2026-05-11T08:41:13Z</time>
      </trkpt>
      <trkpt lat="45.96364" lon="5.58286">
        <ele>765.6</ele>
        <time>2026-05-11T08:41:14Z</time>
      </trkpt>
      <trkpt lat="45.96361" lon="5.58284">
        <ele>765.6</ele>
        <time>2026-05-11T08:41:15Z</time>
      </trkpt>
      <trkpt lat="45.96358" lon="5.58282">
        <ele>766.2</ele>
        <time>2026-05-11T08:41:16Z</time>
      </trkpt>
      <trkpt lat="45.96355" lon="5.5828">
        <ele>765.6</ele>
        <time>2026-05-11T08:41:17Z</time>
      </trkpt>
      <trkpt lat="45.96352" lon="5.58278">
        <ele>765.6</ele>
        <time>2026-05-11T08:41:18Z</time>
      </trkpt>
      <trkpt lat="45.96349" lon="5.58276">
        <ele>765.6</ele>
        <time>2026-05-11T08:41:19Z</time>
      </trkpt>
      <trkpt lat="45.96346" lon="5.58274">
        <ele>766</ele>
        <time>2026-05-11T08:41:20Z</time>
      </trkpt>
      <trkpt lat="45.96343" lon="5.58273">
        <ele>765.6</ele>
        <time>2026-05-11T08:41:21Z</time>
      </trkpt>
      <trkpt lat="45.9634" lon="5.58271">
        <ele>766.2</ele>
        <time>2026-05-11T08:41:22Z</time>
      </trkpt>
      <trkpt lat="45.96337" lon="5.5827">
        <ele>766.2</ele>
        <time>2026-05-11T08:41:23Z</time>
      </trkpt>
      <trkpt lat="45.96334" lon="5.58268">
        <ele>766</ele>
        <time>2026-05-11T08:41:24Z</time>
      </trkpt>
      <trkpt lat="45.96332" lon="5.58266">
        <ele>765.2</ele>
        <time>2026-05-11T08:41:25Z</time>
      </trkpt>
      <trkpt lat="45.96329" lon="5.58265">
        <ele>765.2</ele>
        <time>2026-05-11T08:41:26Z</time>
      </trkpt>
      <trkpt lat="45.96326" lon="5.58263">
        <ele>765.2</ele>
        <time>2026-05-11T08:41:27Z</time>
      </trkpt>
      <trkpt lat="45.96322" lon="5.58262">
        <ele>765.2</ele>
        <time>2026-05-11T08:41:28Z</time>
      </trkpt>
      <trkpt lat="45.96319" lon="5.5826">
        <ele>765.2</ele>
        <time>2026-05-11T08:41:29Z</time>
      </trkpt>
      <trkpt lat="45.96316" lon="5.58259">
        <ele>765</ele>
        <time>2026-05-11T08:41:30Z</time>
      </trkpt>
      <trkpt lat="45.96313" lon="5.58257">
        <ele>765</ele>
        <time>2026-05-11T08:41:31Z</time>
      </trkpt>
      <trkpt lat="45.96309" lon="5.58255">
        <ele>765</ele>
        <time>2026-05-11T08:41:32Z</time>
      </trkpt>
      <trkpt lat="45.96306" lon="5.58253">
        <ele>765.4</ele>
        <time>2026-05-11T08:41:33Z</time>
      </trkpt>
      <trkpt lat="45.96303" lon="5.58252">
        <ele>765.6</ele>
        <time>2026-05-11T08:41:34Z</time>
      </trkpt>
      <trkpt lat="45.963" lon="5.5825">
        <ele>765.6</ele>
        <time>2026-05-11T08:41:35Z</time>
      </trkpt>
      <trkpt lat="45.96297" lon="5.58249">
        <ele>766</ele>
        <time>2026-05-11T08:41:36Z</time>
      </trkpt>
      <trkpt lat="45.96294" lon="5.58247">
        <ele>766</ele>
        <time>2026-05-11T08:41:37Z</time>
      </trkpt>
      <trkpt lat="45.96291" lon="5.58246">
        <ele>766</ele>
        <time>2026-05-11T08:41:38Z</time>
      </trkpt>
      <trkpt lat="45.96289" lon="5.58245">
        <ele>766</ele>
        <time>2026-05-11T08:41:39Z</time>
      </trkpt>
      <trkpt lat="45.96286" lon="5.58244">
        <ele>766</ele>
        <time>2026-05-11T08:41:40Z</time>
      </trkpt>
      <trkpt lat="45.96283" lon="5.58243">
        <ele>766</ele>
        <time>2026-05-11T08:41:41Z</time>
      </trkpt>
      <trkpt lat="45.9628" lon="5.58242">
        <ele>765.6</ele>
        <time>2026-05-11T08:41:42Z</time>
      </trkpt>
      <trkpt lat="45.96276" lon="5.58241">
        <ele>765.6</ele>
        <time>2026-05-11T08:41:43Z</time>
      </trkpt>
      <trkpt lat="45.96273" lon="5.58241">
        <ele>765.6</ele>
        <time>2026-05-11T08:41:44Z</time>
      </trkpt>
      <trkpt lat="45.9627" lon="5.58241">
        <ele>765.6</ele>
        <time>2026-05-11T08:41:45Z</time>
      </trkpt>
      <trkpt lat="45.96266" lon="5.58241">
        <ele>765.6</ele>
        <time>2026-05-11T08:41:46Z</time>
      </trkpt>
      <trkpt lat="45.96263" lon="5.58241">
        <ele>765.6</ele>
        <time>2026-05-11T08:41:47Z</time>
      </trkpt>
      <trkpt lat="45.9626" lon="5.5824">
        <ele>765.2</ele>
        <time>2026-05-11T08:41:48Z</time>
      </trkpt>
      <trkpt lat="45.96256" lon="5.5824">
        <ele>765.2</ele>
        <time>2026-05-11T08:41:49Z</time>
      </trkpt>
      <trkpt lat="45.96253" lon="5.58239">
        <ele>765.8</ele>
        <time>2026-05-11T08:41:50Z</time>
      </trkpt>
      <trkpt lat="45.9625" lon="5.58239">
        <ele>765.8</ele>
        <time>2026-05-11T08:41:51Z</time>
      </trkpt>
      <trkpt lat="45.96247" lon="5.58239">
        <ele>765.8</ele>
        <time>2026-05-11T08:41:52Z</time>
      </trkpt>
      <trkpt lat="45.96244" lon="5.58239">
        <ele>765.8</ele>
        <time>2026-05-11T08:41:53Z</time>
      </trkpt>
      <trkpt lat="45.96241" lon="5.5824">
        <ele>765.8</ele>
        <time>2026-05-11T08:41:54Z</time>
      </trkpt>
      <trkpt lat="45.96238" lon="5.5824">
        <ele>765.8</ele>
        <time>2026-05-11T08:41:55Z</time>
      </trkpt>
      <trkpt lat="45.96234" lon="5.5824">
        <ele>765.8</ele>
        <time>2026-05-11T08:41:56Z</time>
      </trkpt>
      <trkpt lat="45.96231" lon="5.5824">
        <ele>765.8</ele>
        <time>2026-05-11T08:41:57Z</time>
      </trkpt>
      <trkpt lat="45.96228" lon="5.5824">
        <ele>765.4</ele>
        <time>2026-05-11T08:41:58Z</time>
      </trkpt>
      <trkpt lat="45.96224" lon="5.58241">
        <ele>765.4</ele>
        <time>2026-05-11T08:41:59Z</time>
      </trkpt>
      <trkpt lat="45.96221" lon="5.58241">
        <ele>765.6</ele>
        <time>2026-05-11T08:42:00Z</time>
      </trkpt>
      <trkpt lat="45.96217" lon="5.58241">
        <ele>765.8</ele>
        <time>2026-05-11T08:42:01Z</time>
      </trkpt>
      <trkpt lat="45.96214" lon="5.58242">
        <ele>766.2</ele>
        <time>2026-05-11T08:42:02Z</time>
      </trkpt>
      <trkpt lat="45.96211" lon="5.58242">
        <ele>766.2</ele>
        <time>2026-05-11T08:42:03Z</time>
      </trkpt>
      <trkpt lat="45.96207" lon="5.58243">
        <ele>766.2</ele>
        <time>2026-05-11T08:42:04Z</time>
      </trkpt>
      <trkpt lat="45.96204" lon="5.58243">
        <ele>766.2</ele>
        <time>2026-05-11T08:42:05Z</time>
      </trkpt>
      <trkpt lat="45.96201" lon="5.58243">
        <ele>766.2</ele>
        <time>2026-05-11T08:42:06Z</time>
      </trkpt>
      <trkpt lat="45.96198" lon="5.58244">
        <ele>766</ele>
        <time>2026-05-11T08:42:07Z</time>
      </trkpt>
      <trkpt lat="45.96195" lon="5.58244">
        <ele>766</ele>
        <time>2026-05-11T08:42:08Z</time>
      </trkpt>
      <trkpt lat="45.96193" lon="5.58244">
        <ele>766</ele>
        <time>2026-05-11T08:42:09Z</time>
      </trkpt>
      <trkpt lat="45.96191" lon="5.58245">
        <ele>766.2</ele>
        <time>2026-05-11T08:42:10Z</time>
      </trkpt>
      <trkpt lat="45.9619" lon="5.58245">
        <ele>766.2</ele>
        <time>2026-05-11T08:42:11Z</time>
      </trkpt>
      <trkpt lat="45.96188" lon="5.58246">
        <ele>766.2</ele>
        <time>2026-05-11T08:42:12Z</time>
      </trkpt>
      <trkpt lat="45.96186" lon="5.58247">
        <ele>766.2</ele>
        <time>2026-05-11T08:42:13Z</time>
      </trkpt>
      <trkpt lat="45.96184" lon="5.58248">
        <ele>766.2</ele>
        <time>2026-05-11T08:42:14Z</time>
      </trkpt>
      <trkpt lat="45.96182" lon="5.5825">
        <ele>766.2</ele>
        <time>2026-05-11T08:42:15Z</time>
      </trkpt>
      <trkpt lat="45.96179" lon="5.58253">
        <ele>766.4</ele>
        <time>2026-05-11T08:42:16Z</time>
      </trkpt>
      <trkpt lat="45.96177" lon="5.58255">
        <ele>765.8</ele>
        <time>2026-05-11T08:42:17Z</time>
      </trkpt>
      <trkpt lat="45.96174" lon="5.58258">
        <ele>766</ele>
        <time>2026-05-11T08:42:18Z</time>
      </trkpt>
      <trkpt lat="45.96172" lon="5.58261">
        <ele>766</ele>
        <time>2026-05-11T08:42:19Z</time>
      </trkpt>
      <trkpt lat="45.96169" lon="5.58263">
        <ele>766</ele>
        <time>2026-05-11T08:42:20Z</time>
      </trkpt>
      <trkpt lat="45.96166" lon="5.58266">
        <ele>766.2</ele>
        <time>2026-05-11T08:42:21Z</time>
      </trkpt>
      <trkpt lat="45.96163" lon="5.58269">
        <ele>766.2</ele>
        <time>2026-05-11T08:42:22Z</time>
      </trkpt>
      <trkpt lat="45.96161" lon="5.58271">
        <ele>766.2</ele>
        <time>2026-05-11T08:42:23Z</time>
      </trkpt>
      <trkpt lat="45.96158" lon="5.58274">
        <ele>766.6</ele>
        <time>2026-05-11T08:42:24Z</time>
      </trkpt>
      <trkpt lat="45.96156" lon="5.58276">
        <ele>766.8</ele>
        <time>2026-05-11T08:42:25Z</time>
      </trkpt>
      <trkpt lat="45.96153" lon="5.58279">
        <ele>766.8</ele>
        <time>2026-05-11T08:42:26Z</time>
      </trkpt>
      <trkpt lat="45.96151" lon="5.58281">
        <ele>766.8</ele>
        <time>2026-05-11T08:42:27Z</time>
      </trkpt>
      <trkpt lat="45.96149" lon="5.58283">
        <ele>766.6</ele>
        <time>2026-05-11T08:42:28Z</time>
      </trkpt>
      <trkpt lat="45.96147" lon="5.58285">
        <ele>766.6</ele>
        <time>2026-05-11T08:42:29Z</time>
      </trkpt>
      <trkpt lat="45.96144" lon="5.58288">
        <ele>766.2</ele>
        <time>2026-05-11T08:42:30Z</time>
      </trkpt>
      <trkpt lat="45.96142" lon="5.58292">
        <ele>766.2</ele>
        <time>2026-05-11T08:42:31Z</time>
      </trkpt>
      <trkpt lat="45.96142" lon="5.58292">
        <ele>766.2</ele>
        <time>2026-05-11T08:42:32Z</time>
      </trkpt>
      <trkpt lat="45.96139" lon="5.58296">
        <ele>766.2</ele>
        <time>2026-05-11T08:42:33Z</time>
      </trkpt>
      <trkpt lat="45.96136" lon="5.58299">
        <ele>766.2</ele>
        <time>2026-05-11T08:42:34Z</time>
      </trkpt>
      <trkpt lat="45.96133" lon="5.58302">
        <ele>766.6</ele>
        <time>2026-05-11T08:42:35Z</time>
      </trkpt>
      <trkpt lat="45.96131" lon="5.58304">
        <ele>766.2</ele>
        <time>2026-05-11T08:42:36Z</time>
      </trkpt>
      <trkpt lat="45.96128" lon="5.58306">
        <ele>766.2</ele>
        <time>2026-05-11T08:42:37Z</time>
      </trkpt>
      <trkpt lat="45.96126" lon="5.58309">
        <ele>766.2</ele>
        <time>2026-05-11T08:42:38Z</time>
      </trkpt>
      <trkpt lat="45.96123" lon="5.58312">
        <ele>766.2</ele>
        <time>2026-05-11T08:42:39Z</time>
      </trkpt>
      <trkpt lat="45.9612" lon="5.58314">
        <ele>766.2</ele>
        <time>2026-05-11T08:42:40Z</time>
      </trkpt>
      <trkpt lat="45.96117" lon="5.58316">
        <ele>766.4</ele>
        <time>2026-05-11T08:42:41Z</time>
      </trkpt>
      <trkpt lat="45.96114" lon="5.58319">
        <ele>766.6</ele>
        <time>2026-05-11T08:42:42Z</time>
      </trkpt>
      <trkpt lat="45.96112" lon="5.58322">
        <ele>766.6</ele>
        <time>2026-05-11T08:42:43Z</time>
      </trkpt>
      <trkpt lat="45.96109" lon="5.58325">
        <ele>766.6</ele>
        <time>2026-05-11T08:42:44Z</time>
      </trkpt>
      <trkpt lat="45.96106" lon="5.58327">
        <ele>766.6</ele>
        <time>2026-05-11T08:42:45Z</time>
      </trkpt>
      <trkpt lat="45.96103" lon="5.58329">
        <ele>766.6</ele>
        <time>2026-05-11T08:42:46Z</time>
      </trkpt>
      <trkpt lat="45.961" lon="5.58331">
        <ele>766.6</ele>
        <time>2026-05-11T08:42:47Z</time>
      </trkpt>
      <trkpt lat="45.96098" lon="5.58333">
        <ele>766.6</ele>
        <time>2026-05-11T08:42:48Z</time>
      </trkpt>
      <trkpt lat="45.96095" lon="5.58335">
        <ele>766.6</ele>
        <time>2026-05-11T08:42:49Z</time>
      </trkpt>
      <trkpt lat="45.96093" lon="5.58336">
        <ele>766.6</ele>
        <time>2026-05-11T08:42:50Z</time>
      </trkpt>
      <trkpt lat="45.96091" lon="5.58337">
        <ele>766.4</ele>
        <time>2026-05-11T08:42:51Z</time>
      </trkpt>
      <trkpt lat="45.9609" lon="5.58339">
        <ele>766.4</ele>
        <time>2026-05-11T08:42:52Z</time>
      </trkpt>
      <trkpt lat="45.96088" lon="5.5834">
        <ele>766.4</ele>
        <time>2026-05-11T08:42:53Z</time>
      </trkpt>
      <trkpt lat="45.96087" lon="5.58341">
        <ele>766.4</ele>
        <time>2026-05-11T08:42:54Z</time>
      </trkpt>
      <trkpt lat="45.96086" lon="5.58342">
        <ele>766.4</ele>
        <time>2026-05-11T08:42:55Z</time>
      </trkpt>
      <trkpt lat="45.96084" lon="5.58344">
        <ele>766.4</ele>
        <time>2026-05-11T08:42:56Z</time>
      </trkpt>
      <trkpt lat="45.96083" lon="5.58345">
        <ele>766.4</ele>
        <time>2026-05-11T08:42:57Z</time>
      </trkpt>
      <trkpt lat="45.96083" lon="5.58346">
        <ele>766.4</ele>
        <time>2026-05-11T08:42:58Z</time>
      </trkpt>
      <trkpt lat="45.96083" lon="5.58346">
        <ele>766.4</ele>
        <time>2026-05-11T08:42:59Z</time>
      </trkpt>
      <trkpt lat="45.96083" lon="5.58346">
        <ele>766.4</ele>
        <time>2026-05-11T08:43:00Z</time>
      </trkpt>
      <trkpt lat="45.96084" lon="5.58343">
        <ele>766.6</ele>
        <time>2026-05-11T08:43:13Z</time>
      </trkpt>
      <trkpt lat="45.96085" lon="5.58342">
        <ele>766.4</ele>
        <time>2026-05-11T08:43:14Z</time>
      </trkpt>
      <trkpt lat="45.96085" lon="5.5834">
        <ele>766.4</ele>
        <time>2026-05-11T08:43:15Z</time>
      </trkpt>
      <trkpt lat="45.96085" lon="5.58339">
        <ele>766.4</ele>
        <time>2026-05-11T08:43:16Z</time>
      </trkpt>
      <trkpt lat="45.96086" lon="5.58338">
        <ele>766.4</ele>
        <time>2026-05-11T08:43:17Z</time>
      </trkpt>
      <trkpt lat="45.96086" lon="5.58337">
        <ele>766.4</ele>
        <time>2026-05-11T08:43:18Z</time>
      </trkpt>
      <trkpt lat="45.96086" lon="5.58338">
        <ele>766.4</ele>
        <time>2026-05-11T08:43:19Z</time>
      </trkpt>
      <trkpt lat="45.96087" lon="5.5834">
        <ele>766.4</ele>
        <time>2026-05-11T08:43:25Z</time>
      </trkpt>
      <trkpt lat="45.96087" lon="5.58341">
        <ele>766.4</ele>
        <time>2026-05-11T08:43:26Z</time>
      </trkpt>
      <trkpt lat="45.96087" lon="5.58342">
        <ele>766.4</ele>
        <time>2026-05-11T08:43:27Z</time>
      </trkpt>
      <trkpt lat="45.96087" lon="5.58343">
        <ele>766.4</ele>
        <time>2026-05-11T08:43:28Z</time>
      </trkpt>
      <trkpt lat="45.96087" lon="5.58343">
        <ele>766.4</ele>
        <time>2026-05-11T08:43:29Z</time>
      </trkpt>
      <trkpt lat="45.96089" lon="5.5834">
        <ele>766.4</ele>
        <time>2026-05-11T08:43:56Z</time>
      </trkpt>
      <trkpt lat="45.96089" lon="5.58338">
        <ele>766.4</ele>
        <time>2026-05-11T08:43:57Z</time>
      </trkpt>
      <trkpt lat="45.96089" lon="5.58337">
        <ele>766.4</ele>
        <time>2026-05-11T08:43:58Z</time>
      </trkpt>
      <trkpt lat="45.96088" lon="5.58336">
        <ele>766.4</ele>
        <time>2026-05-11T08:43:59Z</time>
      </trkpt>
      <trkpt lat="45.96089" lon="5.58335">
        <ele>766.6</ele>
        <time>2026-05-11T08:44:00Z</time>
      </trkpt>
      <trkpt lat="45.96089" lon="5.58335">
        <ele>766.6</ele>
        <time>2026-05-11T08:44:01Z</time>
      </trkpt>
      <trkpt lat="45.96088" lon="5.58335">
        <ele>766.6</ele>
        <time>2026-05-11T08:44:02Z</time>
      </trkpt>
      <trkpt lat="45.96088" lon="5.58335">
        <ele>766.6</ele>
        <time>2026-05-11T08:44:03Z</time>
      </trkpt>
      <trkpt lat="45.9609" lon="5.58337">
        <ele>766.6</ele>
        <time>2026-05-11T08:47:15Z</time>
      </trkpt>
      <trkpt lat="45.96089" lon="5.58338">
        <ele>766.6</ele>
        <time>2026-05-11T08:47:16Z</time>
      </trkpt>
      <trkpt lat="45.96089" lon="5.58338">
        <ele>766.6</ele>
        <time>2026-05-11T08:47:17Z</time>
      </trkpt>
      <trkpt lat="45.96089" lon="5.58338">
        <ele>766.6</ele>
        <time>2026-05-11T08:49:29Z</time>
      </trkpt>
      <trkpt lat="45.96089" lon="5.58338">
        <ele>766.6</ele>
        <time>2026-05-11T08:49:30Z</time>
      </trkpt>
      <trkpt lat="45.96091" lon="5.58336">
        <ele>766.8</ele>
        <time>2026-05-11T08:50:41Z</time>
      </trkpt>
      <trkpt lat="45.96092" lon="5.58335">
        <ele>766.8</ele>
        <time>2026-05-11T08:50:42Z</time>
      </trkpt>
      <trkpt lat="45.96092" lon="5.58334">
        <ele>766.8</ele>
        <time>2026-05-11T08:50:43Z</time>
      </trkpt>
      <trkpt lat="45.96092" lon="5.58335">
        <ele>767</ele>
        <time>2026-05-11T08:50:44Z</time>
      </trkpt>
      <trkpt lat="45.96092" lon="5.58334">
        <ele>767</ele>
        <time>2026-05-11T08:50:49Z</time>
      </trkpt>
      <trkpt lat="45.96092" lon="5.58334">
        <ele>767</ele>
        <time>2026-05-11T08:50:50Z</time>
      </trkpt>
      <trkpt lat="45.96092" lon="5.58333">
        <ele>767</ele>
        <time>2026-05-11T08:50:51Z</time>
      </trkpt>
      <trkpt lat="45.96092" lon="5.58333">
        <ele>767</ele>
        <time>2026-05-11T08:50:52Z</time>
      </trkpt>
      <trkpt lat="45.96092" lon="5.58333">
        <ele>767</ele>
        <time>2026-05-11T08:50:53Z</time>
      </trkpt>
      <trkpt lat="45.96094" lon="5.58335">
        <ele>766.6</ele>
        <time>2026-05-11T08:52:35Z</time>
      </trkpt>
      <trkpt lat="45.96095" lon="5.58335">
        <ele>766.6</ele>
        <time>2026-05-11T08:52:36Z</time>
      </trkpt>
      <trkpt lat="45.96096" lon="5.58335">
        <ele>766.6</ele>
        <time>2026-05-11T08:52:37Z</time>
      </trkpt>
      <trkpt lat="45.96097" lon="5.58334">
        <ele>766.6</ele>
        <time>2026-05-11T08:52:38Z</time>
      </trkpt>
      <trkpt lat="45.96099" lon="5.58333">
        <ele>766.4</ele>
        <time>2026-05-11T08:52:39Z</time>
      </trkpt>
      <trkpt lat="45.96101" lon="5.58331">
        <ele>766.4</ele>
        <time>2026-05-11T08:52:40Z</time>
      </trkpt>
      <trkpt lat="45.96103" lon="5.58329">
        <ele>766</ele>
        <time>2026-05-11T08:52:41Z</time>
      </trkpt>
      <trkpt lat="45.96105" lon="5.58326">
        <ele>766</ele>
        <time>2026-05-11T08:52:42Z</time>
      </trkpt>
      <trkpt lat="45.96108" lon="5.58323">
        <ele>765.8</ele>
        <time>2026-05-11T08:52:43Z</time>
      </trkpt>
      <trkpt lat="45.9611" lon="5.5832">
        <ele>765.8</ele>
        <time>2026-05-11T08:52:44Z</time>
      </trkpt>
      <trkpt lat="45.96112" lon="5.58318">
        <ele>765.8</ele>
        <time>2026-05-11T08:52:45Z</time>
      </trkpt>
      <trkpt lat="45.96114" lon="5.58315">
        <ele>765.8</ele>
        <time>2026-05-11T08:52:46Z</time>
      </trkpt>
      <trkpt lat="45.96117" lon="5.58313">
        <ele>765.8</ele>
        <time>2026-05-11T08:52:47Z</time>
      </trkpt>
      <trkpt lat="45.96119" lon="5.5831">
        <ele>765.4</ele>
        <time>2026-05-11T08:52:48Z</time>
      </trkpt>
      <trkpt lat="45.96122" lon="5.58307">
        <ele>765.4</ele>
        <time>2026-05-11T08:52:49Z</time>
      </trkpt>
      <trkpt lat="45.96125" lon="5.58304">
        <ele>765.4</ele>
        <time>2026-05-11T08:52:50Z</time>
      </trkpt>
      <trkpt lat="45.96127" lon="5.58302">
        <ele>765.4</ele>
        <time>2026-05-11T08:52:51Z</time>
      </trkpt>
      <trkpt lat="45.9613" lon="5.583">
        <ele>765.4</ele>
        <time>2026-05-11T08:52:52Z</time>
      </trkpt>
      <trkpt lat="45.96132" lon="5.58298">
        <ele>765.4</ele>
        <time>2026-05-11T08:52:53Z</time>
      </trkpt>
      <trkpt lat="45.96134" lon="5.58295">
        <ele>765.4</ele>
        <time>2026-05-11T08:52:54Z</time>
      </trkpt>
      <trkpt lat="45.96137" lon="5.58292">
        <ele>765.8</ele>
        <time>2026-05-11T08:52:55Z</time>
      </trkpt>
      <trkpt lat="45.96138" lon="5.5829">
        <ele>765.8</ele>
        <time>2026-05-11T08:52:56Z</time>
      </trkpt>
      <trkpt lat="45.96139" lon="5.58288">
        <ele>766.2</ele>
        <time>2026-05-11T08:52:57Z</time>
      </trkpt>
      <trkpt lat="45.9614" lon="5.58286">
        <ele>766.2</ele>
        <time>2026-05-11T08:52:58Z</time>
      </trkpt>
      <trkpt lat="45.96141" lon="5.58285">
        <ele>766.2</ele>
        <time>2026-05-11T08:52:59Z</time>
      </trkpt>
      <trkpt lat="45.96142" lon="5.58283">
        <ele>766.6</ele>
        <time>2026-05-11T08:53:00Z</time>
      </trkpt>
      <trkpt lat="45.96143" lon="5.58281">
        <ele>766.6</ele>
        <time>2026-05-11T08:53:01Z</time>
      </trkpt>
      <trkpt lat="45.96144" lon="5.5828">
        <ele>766.6</ele>
        <time>2026-05-11T08:53:02Z</time>
      </trkpt>
      <trkpt lat="45.96145" lon="5.58279">
        <ele>766.6</ele>
        <time>2026-05-11T08:53:03Z</time>
      </trkpt>
      <trkpt lat="45.96144" lon="5.58279">
        <ele>766.6</ele>
        <time>2026-05-11T08:53:04Z</time>
      </trkpt>
      <trkpt lat="45.96144" lon="5.58279">
        <ele>766.6</ele>
        <time>2026-05-11T08:53:05Z</time>
      </trkpt>
      <trkpt lat="45.96151" lon="5.58277">
        <ele>766.4</ele>
        <time>2026-05-11T08:55:02Z</time>
      </trkpt>
      <trkpt lat="45.96153" lon="5.58276">
        <ele>766.4</ele>
        <time>2026-05-11T08:55:03Z</time>
      </trkpt>
      <trkpt lat="45.96155" lon="5.58275">
        <ele>766.2</ele>
        <time>2026-05-11T08:55:04Z</time>
      </trkpt>
      <trkpt lat="45.96157" lon="5.58272">
        <ele>766.2</ele>
        <time>2026-05-11T08:55:05Z</time>
      </trkpt>
      <trkpt lat="45.9616" lon="5.5827">
        <ele>765.6</ele>
        <time>2026-05-11T08:55:06Z</time>
      </trkpt>
      <trkpt lat="45.96162" lon="5.58269">
        <ele>765.6</ele>
        <time>2026-05-11T08:55:07Z</time>
      </trkpt>
      <trkpt lat="45.96164" lon="5.58266">
        <ele>765.6</ele>
        <time>2026-05-11T08:55:08Z</time>
      </trkpt>
      <trkpt lat="45.96167" lon="5.58263">
        <ele>765.6</ele>
        <time>2026-05-11T08:55:09Z</time>
      </trkpt>
      <trkpt lat="45.96169" lon="5.58261">
        <ele>765.6</ele>
        <time>2026-05-11T08:55:10Z</time>
      </trkpt>
      <trkpt lat="45.96172" lon="5.58258">
        <ele>766</ele>
        <time>2026-05-11T08:55:11Z</time>
      </trkpt>
      <trkpt lat="45.96174" lon="5.58256">
        <ele>766</ele>
        <time>2026-05-11T08:55:12Z</time>
      </trkpt>
      <trkpt lat="45.96176" lon="5.58254">
        <ele>766</ele>
        <time>2026-05-11T08:55:13Z</time>
      </trkpt>
      <trkpt lat="45.96179" lon="5.58252">
        <ele>766</ele>
        <time>2026-05-11T08:55:14Z</time>
      </trkpt>
      <trkpt lat="45.96181" lon="5.5825">
        <ele>766</ele>
        <time>2026-05-11T08:55:15Z</time>
      </trkpt>
      <trkpt lat="45.96183" lon="5.58248">
        <ele>765.8</ele>
        <time>2026-05-11T08:55:16Z</time>
      </trkpt>
      <trkpt lat="45.96185" lon="5.58246">
        <ele>765.8</ele>
        <time>2026-05-11T08:55:17Z</time>
      </trkpt>
      <trkpt lat="45.96188" lon="5.58244">
        <ele>765.8</ele>
        <time>2026-05-11T08:55:18Z</time>
      </trkpt>
      <trkpt lat="45.9619" lon="5.58243">
        <ele>765.8</ele>
        <time>2026-05-11T08:55:19Z</time>
      </trkpt>
      <trkpt lat="45.96193" lon="5.58243">
        <ele>765.6</ele>
        <time>2026-05-11T08:55:20Z</time>
      </trkpt>
      <trkpt lat="45.96195" lon="5.58243">
        <ele>765.6</ele>
        <time>2026-05-11T08:55:21Z</time>
      </trkpt>
      <trkpt lat="45.96198" lon="5.58243">
        <ele>765.6</ele>
        <time>2026-05-11T08:55:22Z</time>
      </trkpt>
      <trkpt lat="45.96201" lon="5.58244">
        <ele>765.6</ele>
        <time>2026-05-11T08:55:23Z</time>
      </trkpt>
      <trkpt lat="45.96203" lon="5.58243">
        <ele>765.6</ele>
        <time>2026-05-11T08:55:24Z</time>
      </trkpt>
      <trkpt lat="45.96206" lon="5.58242">
        <ele>765.6</ele>
        <time>2026-05-11T08:55:25Z</time>
      </trkpt>
      <trkpt lat="45.96209" lon="5.58242">
        <ele>765.6</ele>
        <time>2026-05-11T08:55:26Z</time>
      </trkpt>
      <trkpt lat="45.96209" lon="5.58242">
        <ele>765.6</ele>
        <time>2026-05-11T08:55:27Z</time>
      </trkpt>
      <trkpt lat="45.96212" lon="5.58241">
        <ele>765.6</ele>
        <time>2026-05-11T08:55:28Z</time>
      </trkpt>
      <trkpt lat="45.96216" lon="5.58241">
        <ele>765.4</ele>
        <time>2026-05-11T08:55:29Z</time>
      </trkpt>
      <trkpt lat="45.96219" lon="5.58241">
        <ele>765.4</ele>
        <time>2026-05-11T08:55:30Z</time>
      </trkpt>
      <trkpt lat="45.96222" lon="5.5824">
        <ele>765.4</ele>
        <time>2026-05-11T08:55:31Z</time>
      </trkpt>
      <trkpt lat="45.96225" lon="5.58239">
        <ele>765.2</ele>
        <time>2026-05-11T08:55:32Z</time>
      </trkpt>
      <trkpt lat="45.96227" lon="5.58239">
        <ele>765.2</ele>
        <time>2026-05-11T08:55:33Z</time>
      </trkpt>
      <trkpt lat="45.96231" lon="5.58239">
        <ele>765.2</ele>
        <time>2026-05-11T08:55:34Z</time>
      </trkpt>
      <trkpt lat="45.96234" lon="5.58239">
        <ele>765.2</ele>
        <time>2026-05-11T08:55:35Z</time>
      </trkpt>
      <trkpt lat="45.96237" lon="5.58239">
        <ele>765.2</ele>
        <time>2026-05-11T08:55:36Z</time>
      </trkpt>
      <trkpt lat="45.96241" lon="5.58238">
        <ele>765.4</ele>
        <time>2026-05-11T08:55:37Z</time>
      </trkpt>
      <trkpt lat="45.96244" lon="5.58238">
        <ele>765.4</ele>
        <time>2026-05-11T08:55:38Z</time>
      </trkpt>
      <trkpt lat="45.96247" lon="5.58238">
        <ele>765.4</ele>
        <time>2026-05-11T08:55:39Z</time>
      </trkpt>
      <trkpt lat="45.9625" lon="5.58238">
        <ele>765.2</ele>
        <time>2026-05-11T08:55:40Z</time>
      </trkpt>
      <trkpt lat="45.96254" lon="5.58238">
        <ele>765.2</ele>
        <time>2026-05-11T08:55:41Z</time>
      </trkpt>
      <trkpt lat="45.96257" lon="5.58237">
        <ele>765.2</ele>
        <time>2026-05-11T08:55:42Z</time>
      </trkpt>
      <trkpt lat="45.9626" lon="5.58237">
        <ele>765.2</ele>
        <time>2026-05-11T08:55:43Z</time>
      </trkpt>
      <trkpt lat="45.96263" lon="5.58237">
        <ele>765.2</ele>
        <time>2026-05-11T08:55:44Z</time>
      </trkpt>
      <trkpt lat="45.96267" lon="5.58237">
        <ele>765.4</ele>
        <time>2026-05-11T08:55:45Z</time>
      </trkpt>
      <trkpt lat="45.9627" lon="5.58237">
        <ele>765.4</ele>
        <time>2026-05-11T08:55:46Z</time>
      </trkpt>
      <trkpt lat="45.96273" lon="5.58237">
        <ele>765.4</ele>
        <time>2026-05-11T08:55:47Z</time>
      </trkpt>
      <trkpt lat="45.96276" lon="5.58237">
        <ele>765.8</ele>
        <time>2026-05-11T08:55:48Z</time>
      </trkpt>
      <trkpt lat="45.96279" lon="5.58237">
        <ele>765.8</ele>
        <time>2026-05-11T08:55:49Z</time>
      </trkpt>
      <trkpt lat="45.96282" lon="5.58237">
        <ele>766</ele>
        <time>2026-05-11T08:55:50Z</time>
      </trkpt>
      <trkpt lat="45.96285" lon="5.58238">
        <ele>766</ele>
        <time>2026-05-11T08:55:51Z</time>
      </trkpt>
      <trkpt lat="45.96288" lon="5.58239">
        <ele>766</ele>
        <time>2026-05-11T08:55:52Z</time>
      </trkpt>
      <trkpt lat="45.96291" lon="5.58241">
        <ele>766</ele>
        <time>2026-05-11T08:55:53Z</time>
      </trkpt>
      <trkpt lat="45.96293" lon="5.58242">
        <ele>766</ele>
        <time>2026-05-11T08:55:54Z</time>
      </trkpt>
      <trkpt lat="45.96295" lon="5.58243">
        <ele>766.2</ele>
        <time>2026-05-11T08:55:55Z</time>
      </trkpt>
      <trkpt lat="45.96298" lon="5.58244">
        <ele>766</ele>
        <time>2026-05-11T08:55:56Z</time>
      </trkpt>
      <trkpt lat="45.963" lon="5.58246">
        <ele>766</ele>
        <time>2026-05-11T08:55:57Z</time>
      </trkpt>
      <trkpt lat="45.96303" lon="5.58247">
        <ele>765.8</ele>
        <time>2026-05-11T08:55:58Z</time>
      </trkpt>
      <trkpt lat="45.96306" lon="5.58249">
        <ele>765.2</ele>
        <time>2026-05-11T08:55:59Z</time>
      </trkpt>
      <trkpt lat="45.96309" lon="5.58251">
        <ele>765.2</ele>
        <time>2026-05-11T08:56:00Z</time>
      </trkpt>
      <trkpt lat="45.96309" lon="5.58251">
        <ele>765.2</ele>
        <time>2026-05-11T08:56:01Z</time>
      </trkpt>
      <trkpt lat="45.96318" lon="5.58258">
        <ele>765.2</ele>
        <time>2026-05-11T08:56:02Z</time>
      </trkpt>
      <trkpt lat="45.96321" lon="5.58261">
        <ele>765.2</ele>
        <time>2026-05-11T08:56:03Z</time>
      </trkpt>
      <trkpt lat="45.96324" lon="5.58263">
        <ele>765.2</ele>
        <time>2026-05-11T08:56:04Z</time>
      </trkpt>
      <trkpt lat="45.96328" lon="5.58265">
        <ele>766</ele>
        <time>2026-05-11T08:56:05Z</time>
      </trkpt>
      <trkpt lat="45.96331" lon="5.58267">
        <ele>766</ele>
        <time>2026-05-11T08:56:06Z</time>
      </trkpt>
      <trkpt lat="45.96334" lon="5.58268">
        <ele>765.6</ele>
        <time>2026-05-11T08:56:07Z</time>
      </trkpt>
      <trkpt lat="45.96338" lon="5.5827">
        <ele>765.4</ele>
        <time>2026-05-11T08:56:08Z</time>
      </trkpt>
      <trkpt lat="45.96341" lon="5.58271">
        <ele>765.2</ele>
        <time>2026-05-11T08:56:09Z</time>
      </trkpt>
      <trkpt lat="45.96344" lon="5.58273">
        <ele>765.2</ele>
        <time>2026-05-11T08:56:10Z</time>
      </trkpt>
      <trkpt lat="45.96347" lon="5.58274">
        <ele>765.2</ele>
        <time>2026-05-11T08:56:11Z</time>
      </trkpt>
      <trkpt lat="45.9635" lon="5.58276">
        <ele>765.2</ele>
        <time>2026-05-11T08:56:12Z</time>
      </trkpt>
      <trkpt lat="45.96353" lon="5.58278">
        <ele>765.2</ele>
        <time>2026-05-11T08:56:13Z</time>
      </trkpt>
      <trkpt lat="45.96356" lon="5.5828">
        <ele>765.2</ele>
        <time>2026-05-11T08:56:14Z</time>
      </trkpt>
      <trkpt lat="45.96359" lon="5.58282">
        <ele>765.2</ele>
        <time>2026-05-11T08:56:15Z</time>
      </trkpt>
      <trkpt lat="45.96362" lon="5.58284">
        <ele>765.4</ele>
        <time>2026-05-11T08:56:16Z</time>
      </trkpt>
      <trkpt lat="45.96365" lon="5.58286">
        <ele>765.4</ele>
        <time>2026-05-11T08:56:17Z</time>
      </trkpt>
      <trkpt lat="45.96368" lon="5.58289">
        <ele>765.4</ele>
        <time>2026-05-11T08:56:18Z</time>
      </trkpt>
      <trkpt lat="45.96372" lon="5.58291">
        <ele>765.2</ele>
        <time>2026-05-11T08:56:19Z</time>
      </trkpt>
      <trkpt lat="45.96374" lon="5.58293">
        <ele>765.2</ele>
        <time>2026-05-11T08:56:20Z</time>
      </trkpt>
      <trkpt lat="45.96377" lon="5.58295">
        <ele>765.2</ele>
        <time>2026-05-11T08:56:21Z</time>
      </trkpt>
      <trkpt lat="45.9638" lon="5.58297">
        <ele>765</ele>
        <time>2026-05-11T08:56:22Z</time>
      </trkpt>
      <trkpt lat="45.96383" lon="5.58299">
        <ele>765</ele>
        <time>2026-05-11T08:56:23Z</time>
      </trkpt>
      <trkpt lat="45.96386" lon="5.58301">
        <ele>765</ele>
        <time>2026-05-11T08:56:24Z</time>
      </trkpt>
      <trkpt lat="45.96389" lon="5.58303">
        <ele>765</ele>
        <time>2026-05-11T08:56:25Z</time>
      </trkpt>
      <trkpt lat="45.96391" lon="5.58306">
        <ele>765</ele>
        <time>2026-05-11T08:56:26Z</time>
      </trkpt>
      <trkpt lat="45.96394" lon="5.58308">
        <ele>765</ele>
        <time>2026-05-11T08:56:27Z</time>
      </trkpt>
      <trkpt lat="45.96397" lon="5.5831">
        <ele>765.4</ele>
        <time>2026-05-11T08:56:28Z</time>
      </trkpt>
      <trkpt lat="45.964" lon="5.58312">
        <ele>765.4</ele>
        <time>2026-05-11T08:56:29Z</time>
      </trkpt>
      <trkpt lat="45.96403" lon="5.58314">
        <ele>765.4</ele>
        <time>2026-05-11T08:56:30Z</time>
      </trkpt>
      <trkpt lat="45.96405" lon="5.58315">
        <ele>765.4</ele>
        <time>2026-05-11T08:56:31Z</time>
      </trkpt>
      <trkpt lat="45.96408" lon="5.58315">
        <ele>765.6</ele>
        <time>2026-05-11T08:56:32Z</time>
      </trkpt>
      <trkpt lat="45.96412" lon="5.58315">
        <ele>765.4</ele>
        <time>2026-05-11T08:56:33Z</time>
      </trkpt>
      <trkpt lat="45.96415" lon="5.58316">
        <ele>765.4</ele>
        <time>2026-05-11T08:56:34Z</time>
      </trkpt>
      <trkpt lat="45.96418" lon="5.58318">
        <ele>765.4</ele>
        <time>2026-05-11T08:56:35Z</time>
      </trkpt>
      <trkpt lat="45.96421" lon="5.58321">
        <ele>765.6</ele>
        <time>2026-05-11T08:56:36Z</time>
      </trkpt>
      <trkpt lat="45.96424" lon="5.58323">
        <ele>765.4</ele>
        <time>2026-05-11T08:56:37Z</time>
      </trkpt>
      <trkpt lat="45.96427" lon="5.58325">
        <ele>765.4</ele>
        <time>2026-05-11T08:56:38Z</time>
      </trkpt>
      <trkpt lat="45.96431" lon="5.58325">
        <ele>765.2</ele>
        <time>2026-05-11T08:56:39Z</time>
      </trkpt>
      <trkpt lat="45.96434" lon="5.58325">
        <ele>765.4</ele>
        <time>2026-05-11T08:56:40Z</time>
      </trkpt>
      <trkpt lat="45.96437" lon="5.58325">
        <ele>765.4</ele>
        <time>2026-05-11T08:56:41Z</time>
      </trkpt>
      <trkpt lat="45.9644" lon="5.58325">
        <ele>765.4</ele>
        <time>2026-05-11T08:56:42Z</time>
      </trkpt>
      <trkpt lat="45.96444" lon="5.58325">
        <ele>765.2</ele>
        <time>2026-05-11T08:56:43Z</time>
      </trkpt>
      <trkpt lat="45.96447" lon="5.58325">
        <ele>765.2</ele>
        <time>2026-05-11T08:56:44Z</time>
      </trkpt>
      <trkpt lat="45.9645" lon="5.58325">
        <ele>765.2</ele>
        <time>2026-05-11T08:56:45Z</time>
      </trkpt>
      <trkpt lat="45.96454" lon="5.58325">
        <ele>765.2</ele>
        <time>2026-05-11T08:56:46Z</time>
      </trkpt>
      <trkpt lat="45.96457" lon="5.58324">
        <ele>765.4</ele>
        <time>2026-05-11T08:56:47Z</time>
      </trkpt>
      <trkpt lat="45.9646" lon="5.58324">
        <ele>765.4</ele>
        <time>2026-05-11T08:56:48Z</time>
      </trkpt>
      <trkpt lat="45.96463" lon="5.58324">
        <ele>765.6</ele>
        <time>2026-05-11T08:56:49Z</time>
      </trkpt>
      <trkpt lat="45.96466" lon="5.58323">
        <ele>765.6</ele>
        <time>2026-05-11T08:56:50Z</time>
      </trkpt>
      <trkpt lat="45.96469" lon="5.58323">
        <ele>765.8</ele>
        <time>2026-05-11T08:56:51Z</time>
      </trkpt>
      <trkpt lat="45.96472" lon="5.58322">
        <ele>765.8</ele>
        <time>2026-05-11T08:56:52Z</time>
      </trkpt>
      <trkpt lat="45.96475" lon="5.58321">
        <ele>765.8</ele>
        <time>2026-05-11T08:56:53Z</time>
      </trkpt>
      <trkpt lat="45.96478" lon="5.58321">
        <ele>765.8</ele>
        <time>2026-05-11T08:56:54Z</time>
      </trkpt>
      <trkpt lat="45.96481" lon="5.58321">
        <ele>765.8</ele>
        <time>2026-05-11T08:56:55Z</time>
      </trkpt>
      <trkpt lat="45.96485" lon="5.58321">
        <ele>766.2</ele>
        <time>2026-05-11T08:56:56Z</time>
      </trkpt>
      <trkpt lat="45.96488" lon="5.58321">
        <ele>766.4</ele>
        <time>2026-05-11T08:56:57Z</time>
      </trkpt>
      <trkpt lat="45.96492" lon="5.58319">
        <ele>766.6</ele>
        <time>2026-05-11T08:56:58Z</time>
      </trkpt>
      <trkpt lat="45.96495" lon="5.58317">
        <ele>766.6</ele>
        <time>2026-05-11T08:56:59Z</time>
      </trkpt>
      <trkpt lat="45.96498" lon="5.58314">
        <ele>766.6</ele>
        <time>2026-05-11T08:57:00Z</time>
      </trkpt>
      <trkpt lat="45.965" lon="5.5831">
        <ele>767</ele>
        <time>2026-05-11T08:57:01Z</time>
      </trkpt>
      <trkpt lat="45.96501" lon="5.58306">
        <ele>767</ele>
        <time>2026-05-11T08:57:02Z</time>
      </trkpt>
      <trkpt lat="45.965" lon="5.58302">
        <ele>766.6</ele>
        <time>2026-05-11T08:57:03Z</time>
      </trkpt>
      <trkpt lat="45.96498" lon="5.58297">
        <ele>767</ele>
        <time>2026-05-11T08:57:04Z</time>
      </trkpt>
      <trkpt lat="45.96496" lon="5.58293">
        <ele>767</ele>
        <time>2026-05-11T08:57:05Z</time>
      </trkpt>
      <trkpt lat="45.96494" lon="5.58288">
        <ele>766</ele>
        <time>2026-05-11T08:57:06Z</time>
      </trkpt>
      <trkpt lat="45.96492" lon="5.58283">
        <ele>766.6</ele>
        <time>2026-05-11T08:57:07Z</time>
      </trkpt>
      <trkpt lat="45.9649" lon="5.58278">
        <ele>766.6</ele>
        <time>2026-05-11T08:57:08Z</time>
      </trkpt>
      <trkpt lat="45.96488" lon="5.58273">
        <ele>766.6</ele>
        <time>2026-05-11T08:57:09Z</time>
      </trkpt>
      <trkpt lat="45.96486" lon="5.58268">
        <ele>766.6</ele>
        <time>2026-05-11T08:57:10Z</time>
      </trkpt>
      <trkpt lat="45.96484" lon="5.58264">
        <ele>766.6</ele>
        <time>2026-05-11T08:57:11Z</time>
      </trkpt>
      <trkpt lat="45.96483" lon="5.58259">
        <ele>766.4</ele>
        <time>2026-05-11T08:57:12Z</time>
      </trkpt>
      <trkpt lat="45.96481" lon="5.58254">
        <ele>766.4</ele>
        <time>2026-05-11T08:57:13Z</time>
      </trkpt>
      <trkpt lat="45.9648" lon="5.5825">
        <ele>766.4</ele>
        <time>2026-05-11T08:57:14Z</time>
      </trkpt>
      <trkpt lat="45.96478" lon="5.58244">
        <ele>766.4</ele>
        <time>2026-05-11T08:57:15Z</time>
      </trkpt>
      <trkpt lat="45.96477" lon="5.58239">
        <ele>766.4</ele>
        <time>2026-05-11T08:57:16Z</time>
      </trkpt>
      <trkpt lat="45.96476" lon="5.58234">
        <ele>766.4</ele>
        <time>2026-05-11T08:57:17Z</time>
      </trkpt>
      <trkpt lat="45.96475" lon="5.58229">
        <ele>766.4</ele>
        <time>2026-05-11T08:57:18Z</time>
      </trkpt>
      <trkpt lat="45.96474" lon="5.58224">
        <ele>766.4</ele>
        <time>2026-05-11T08:57:19Z</time>
      </trkpt>
      <trkpt lat="45.96473" lon="5.58219">
        <ele>766.4</ele>
        <time>2026-05-11T08:57:20Z</time>
      </trkpt>
      <trkpt lat="45.96472" lon="5.58214">
        <ele>766.4</ele>
        <time>2026-05-11T08:57:21Z</time>
      </trkpt>
      <trkpt lat="45.96471" lon="5.58209">
        <ele>766.8</ele>
        <time>2026-05-11T08:57:22Z</time>
      </trkpt>
      <trkpt lat="45.96471" lon="5.58205">
        <ele>766.8</ele>
        <time>2026-05-11T08:57:23Z</time>
      </trkpt>
      <trkpt lat="45.96471" lon="5.58201">
        <ele>766.6</ele>
        <time>2026-05-11T08:57:24Z</time>
      </trkpt>
      <trkpt lat="45.9647" lon="5.58196">
        <ele>766.6</ele>
        <time>2026-05-11T08:57:25Z</time>
      </trkpt>
      <trkpt lat="45.9647" lon="5.58192">
        <ele>766.6</ele>
        <time>2026-05-11T08:57:26Z</time>
      </trkpt>
      <trkpt lat="45.96469" lon="5.58187">
        <ele>766.6</ele>
        <time>2026-05-11T08:57:27Z</time>
      </trkpt>
      <trkpt lat="45.96469" lon="5.58182">
        <ele>766.6</ele>
        <time>2026-05-11T08:57:28Z</time>
      </trkpt>
      <trkpt lat="45.96469" lon="5.58177">
        <ele>766.6</ele>
        <time>2026-05-11T08:57:29Z</time>
      </trkpt>
      <trkpt lat="45.96469" lon="5.58171">
        <ele>766.6</ele>
        <time>2026-05-11T08:57:30Z</time>
      </trkpt>
      <trkpt lat="45.9647" lon="5.58165">
        <ele>766.6</ele>
        <time>2026-05-11T08:57:31Z</time>
      </trkpt>
      <trkpt lat="45.9647" lon="5.5816">
        <ele>766.6</ele>
        <time>2026-05-11T08:57:32Z</time>
      </trkpt>
      <trkpt lat="45.96471" lon="5.58156">
        <ele>766.8</ele>
        <time>2026-05-11T08:57:33Z</time>
      </trkpt>
      <trkpt lat="45.96471" lon="5.58151">
        <ele>766.8</ele>
        <time>2026-05-11T08:57:34Z</time>
      </trkpt>
      <trkpt lat="45.96471" lon="5.58145">
        <ele>766.8</ele>
        <time>2026-05-11T08:57:35Z</time>
      </trkpt>
      <trkpt lat="45.96472" lon="5.58139">
        <ele>767</ele>
        <time>2026-05-11T08:57:36Z</time>
      </trkpt>
      <trkpt lat="45.96473" lon="5.58133">
        <ele>767</ele>
        <time>2026-05-11T08:57:37Z</time>
      </trkpt>
      <trkpt lat="45.96474" lon="5.58127">
        <ele>767</ele>
        <time>2026-05-11T08:57:38Z</time>
      </trkpt>
      <trkpt lat="45.96474" lon="5.58122">
        <ele>767</ele>
        <time>2026-05-11T08:57:39Z</time>
      </trkpt>
      <trkpt lat="45.96475" lon="5.58117">
        <ele>767</ele>
        <time>2026-05-11T08:57:40Z</time>
      </trkpt>
      <trkpt lat="45.96476" lon="5.58111">
        <ele>767</ele>
        <time>2026-05-11T08:57:41Z</time>
      </trkpt>
      <trkpt lat="45.96478" lon="5.58106">
        <ele>767</ele>
        <time>2026-05-11T08:57:42Z</time>
      </trkpt>
      <trkpt lat="45.9648" lon="5.58101">
        <ele>767.4</ele>
        <time>2026-05-11T08:57:43Z</time>
      </trkpt>
      <trkpt lat="45.96483" lon="5.58096">
        <ele>767.4</ele>
        <time>2026-05-11T08:57:44Z</time>
      </trkpt>
      <trkpt lat="45.96484" lon="5.58092">
        <ele>767.4</ele>
        <time>2026-05-11T08:57:45Z</time>
      </trkpt>
      <trkpt lat="45.96486" lon="5.58086">
        <ele>767.4</ele>
        <time>2026-05-11T08:57:46Z</time>
      </trkpt>
      <trkpt lat="45.96489" lon="5.58081">
        <ele>767.4</ele>
        <time>2026-05-11T08:57:47Z</time>
      </trkpt>
      <trkpt lat="45.96491" lon="5.58076">
        <ele>767</ele>
        <time>2026-05-11T08:57:48Z</time>
      </trkpt>
      <trkpt lat="45.96494" lon="5.58071">
        <ele>767</ele>
        <time>2026-05-11T08:57:49Z</time>
      </trkpt>
      <trkpt lat="45.96496" lon="5.58066">
        <ele>767</ele>
        <time>2026-05-11T08:57:50Z</time>
      </trkpt>
      <trkpt lat="45.96499" lon="5.58061">
        <ele>767</ele>
        <time>2026-05-11T08:57:51Z</time>
      </trkpt>
      <trkpt lat="45.96501" lon="5.58056">
        <ele>767</ele>
        <time>2026-05-11T08:57:52Z</time>
      </trkpt>
      <trkpt lat="45.96504" lon="5.58051">
        <ele>767</ele>
        <time>2026-05-11T08:57:53Z</time>
      </trkpt>
      <trkpt lat="45.96507" lon="5.58046">
        <ele>767</ele>
        <time>2026-05-11T08:57:54Z</time>
      </trkpt>
      <trkpt lat="45.96509" lon="5.58041">
        <ele>767</ele>
        <time>2026-05-11T08:57:55Z</time>
      </trkpt>
      <trkpt lat="45.9651" lon="5.58037">
        <ele>767</ele>
        <time>2026-05-11T08:57:56Z</time>
      </trkpt>
      <trkpt lat="45.96513" lon="5.58033">
        <ele>767</ele>
        <time>2026-05-11T08:57:57Z</time>
      </trkpt>
      <trkpt lat="45.96515" lon="5.58028">
        <ele>767</ele>
        <time>2026-05-11T08:57:58Z</time>
      </trkpt>
      <trkpt lat="45.96517" lon="5.58024">
        <ele>767</ele>
        <time>2026-05-11T08:57:59Z</time>
      </trkpt>
      <trkpt lat="45.9652" lon="5.5802">
        <ele>767</ele>
        <time>2026-05-11T08:58:00Z</time>
      </trkpt>
      <trkpt lat="45.96522" lon="5.58016">
        <ele>767</ele>
        <time>2026-05-11T08:58:01Z</time>
      </trkpt>
      <trkpt lat="45.96525" lon="5.58011">
        <ele>767.2</ele>
        <time>2026-05-11T08:58:02Z</time>
      </trkpt>
      <trkpt lat="45.96527" lon="5.58007">
        <ele>767.6</ele>
        <time>2026-05-11T08:58:03Z</time>
      </trkpt>
      <trkpt lat="45.96529" lon="5.58003">
        <ele>768</ele>
        <time>2026-05-11T08:58:04Z</time>
      </trkpt>
      <trkpt lat="45.96531" lon="5.57998">
        <ele>768</ele>
        <time>2026-05-11T08:58:05Z</time>
      </trkpt>
      <trkpt lat="45.96533" lon="5.57994">
        <ele>768</ele>
        <time>2026-05-11T08:58:06Z</time>
      </trkpt>
      <trkpt lat="45.96536" lon="5.5799">
        <ele>768</ele>
        <time>2026-05-11T08:58:07Z</time>
      </trkpt>
      <trkpt lat="45.96538" lon="5.57985">
        <ele>767.4</ele>
        <time>2026-05-11T08:58:08Z</time>
      </trkpt>
      <trkpt lat="45.96541" lon="5.5798">
        <ele>767</ele>
        <time>2026-05-11T08:58:09Z</time>
      </trkpt>
      <trkpt lat="45.96542" lon="5.57974">
        <ele>767</ele>
        <time>2026-05-11T08:58:10Z</time>
      </trkpt>
      <trkpt lat="45.96545" lon="5.57968">
        <ele>767.4</ele>
        <time>2026-05-11T08:58:11Z</time>
      </trkpt>
      <trkpt lat="45.96547" lon="5.57962">
        <ele>767.4</ele>
        <time>2026-05-11T08:58:12Z</time>
      </trkpt>
      <trkpt lat="45.96549" lon="5.57958">
        <ele>767.8</ele>
        <time>2026-05-11T08:58:13Z</time>
      </trkpt>
      <trkpt lat="45.96551" lon="5.57953">
        <ele>768.2</ele>
        <time>2026-05-11T08:58:14Z</time>
      </trkpt>
      <trkpt lat="45.96553" lon="5.57948">
        <ele>768.2</ele>
        <time>2026-05-11T08:58:15Z</time>
      </trkpt>
      <trkpt lat="45.96555" lon="5.57943">
        <ele>768.2</ele>
        <time>2026-05-11T08:58:16Z</time>
      </trkpt>
      <trkpt lat="45.96557" lon="5.57938">
        <ele>768.2</ele>
        <time>2026-05-11T08:58:17Z</time>
      </trkpt>
      <trkpt lat="45.9656" lon="5.57933">
        <ele>768.2</ele>
        <time>2026-05-11T08:58:18Z</time>
      </trkpt>
      <trkpt lat="45.96562" lon="5.57928">
        <ele>768.2</ele>
        <time>2026-05-11T08:58:19Z</time>
      </trkpt>
      <trkpt lat="45.96564" lon="5.57922">
        <ele>768.2</ele>
        <time>2026-05-11T08:58:20Z</time>
      </trkpt>
      <trkpt lat="45.96566" lon="5.57918">
        <ele>768.2</ele>
        <time>2026-05-11T08:58:21Z</time>
      </trkpt>
      <trkpt lat="45.96568" lon="5.57912">
        <ele>768.2</ele>
        <time>2026-05-11T08:58:22Z</time>
      </trkpt>
      <trkpt lat="45.96571" lon="5.57906">
        <ele>768.2</ele>
        <time>2026-05-11T08:58:23Z</time>
      </trkpt>
      <trkpt lat="45.96574" lon="5.57899">
        <ele>767.8</ele>
        <time>2026-05-11T08:58:24Z</time>
      </trkpt>
      <trkpt lat="45.96576" lon="5.57893">
        <ele>767.8</ele>
        <time>2026-05-11T08:58:25Z</time>
      </trkpt>
      <trkpt lat="45.96579" lon="5.57887">
        <ele>767.4</ele>
        <time>2026-05-11T08:58:26Z</time>
      </trkpt>
      <trkpt lat="45.96579" lon="5.57887">
        <ele>767.4</ele>
        <time>2026-05-11T08:58:27Z</time>
      </trkpt>
      <trkpt lat="45.96582" lon="5.57881">
        <ele>766.6</ele>
        <time>2026-05-11T08:58:28Z</time>
      </trkpt>
      <trkpt lat="45.96586" lon="5.57876">
        <ele>766.2</ele>
        <time>2026-05-11T08:58:29Z</time>
      </trkpt>
      <trkpt lat="45.96592" lon="5.57871">
        <ele>765.6</ele>
        <time>2026-05-11T08:58:30Z</time>
      </trkpt>
      <trkpt lat="45.96599" lon="5.57867">
        <ele>764.8</ele>
        <time>2026-05-11T08:58:31Z</time>
      </trkpt>
      <trkpt lat="45.96605" lon="5.57867">
        <ele>764.2</ele>
        <time>2026-05-11T08:58:32Z</time>
      </trkpt>
      <trkpt lat="45.96613" lon="5.57866">
        <ele>764.2</ele>
        <time>2026-05-11T08:58:33Z</time>
      </trkpt>
      <trkpt lat="45.96621" lon="5.57865">
        <ele>763</ele>
        <time>2026-05-11T08:58:34Z</time>
      </trkpt>
      <trkpt lat="45.9663" lon="5.57864">
        <ele>763</ele>
        <time>2026-05-11T08:58:35Z</time>
      </trkpt>
      <trkpt lat="45.96639" lon="5.57862">
        <ele>762</ele>
        <time>2026-05-11T08:58:36Z</time>
      </trkpt>
      <trkpt lat="45.96647" lon="5.57859">
        <ele>761.2</ele>
        <time>2026-05-11T08:58:37Z</time>
      </trkpt>
      <trkpt lat="45.96657" lon="5.57856">
        <ele>760.4</ele>
        <time>2026-05-11T08:58:38Z</time>
      </trkpt>
      <trkpt lat="45.96665" lon="5.57854">
        <ele>759.8</ele>
        <time>2026-05-11T08:58:39Z</time>
      </trkpt>
      <trkpt lat="45.96672" lon="5.5785">
        <ele>758.8</ele>
        <time>2026-05-11T08:58:40Z</time>
      </trkpt>
      <trkpt lat="45.96677" lon="5.57843">
        <ele>758.4</ele>
        <time>2026-05-11T08:58:41Z</time>
      </trkpt>
      <trkpt lat="45.96681" lon="5.57836">
        <ele>757.8</ele>
        <time>2026-05-11T08:58:42Z</time>
      </trkpt>
      <trkpt lat="45.96686" lon="5.57829">
        <ele>757</ele>
        <time>2026-05-11T08:58:43Z</time>
      </trkpt>
      <trkpt lat="45.96691" lon="5.57822">
        <ele>756</ele>
        <time>2026-05-11T08:58:44Z</time>
      </trkpt>
      <trkpt lat="45.96697" lon="5.57816">
        <ele>756</ele>
        <time>2026-05-11T08:58:45Z</time>
      </trkpt>
      <trkpt lat="45.96703" lon="5.57811">
        <ele>755.2</ele>
        <time>2026-05-11T08:58:46Z</time>
      </trkpt>
      <trkpt lat="45.9671" lon="5.57809">
        <ele>754.8</ele>
        <time>2026-05-11T08:58:47Z</time>
      </trkpt>
      <trkpt lat="45.96719" lon="5.57807">
        <ele>753.8</ele>
        <time>2026-05-11T08:58:48Z</time>
      </trkpt>
      <trkpt lat="45.96726" lon="5.57804">
        <ele>753.2</ele>
        <time>2026-05-11T08:58:49Z</time>
      </trkpt>
      <trkpt lat="45.96734" lon="5.57801">
        <ele>752.6</ele>
        <time>2026-05-11T08:58:50Z</time>
      </trkpt>
      <trkpt lat="45.96739" lon="5.578">
        <ele>752</ele>
        <time>2026-05-11T08:58:51Z</time>
      </trkpt>
      <trkpt lat="45.96743" lon="5.57795">
        <ele>751.6</ele>
        <time>2026-05-11T08:58:52Z</time>
      </trkpt>
      <trkpt lat="45.96748" lon="5.57788">
        <ele>750.4</ele>
        <time>2026-05-11T08:58:53Z</time>
      </trkpt>
      <trkpt lat="45.96752" lon="5.57779">
        <ele>749.8</ele>
        <time>2026-05-11T08:58:54Z</time>
      </trkpt>
      <trkpt lat="45.96752" lon="5.57769">
        <ele>749</ele>
        <time>2026-05-11T08:58:55Z</time>
      </trkpt>
      <trkpt lat="45.96749" lon="5.5776">
        <ele>748.2</ele>
        <time>2026-05-11T08:58:56Z</time>
      </trkpt>
      <trkpt lat="45.96746" lon="5.57752">
        <ele>747.8</ele>
        <time>2026-05-11T08:58:57Z</time>
      </trkpt>
      <trkpt lat="45.96744" lon="5.57745">
        <ele>747.4</ele>
        <time>2026-05-11T08:58:58Z</time>
      </trkpt>
      <trkpt lat="45.96738" lon="5.57741">
        <ele>747</ele>
        <time>2026-05-11T08:58:59Z</time>
      </trkpt>
      <trkpt lat="45.96734" lon="5.57737">
        <ele>746.4</ele>
        <time>2026-05-11T08:59:00Z</time>
      </trkpt>
      <trkpt lat="45.96729" lon="5.57733">
        <ele>745.8</ele>
        <time>2026-05-11T08:59:01Z</time>
      </trkpt>
      <trkpt lat="45.96726" lon="5.57727">
        <ele>745.4</ele>
        <time>2026-05-11T08:59:02Z</time>
      </trkpt>
      <trkpt lat="45.96722" lon="5.57724">
        <ele>745</ele>
        <time>2026-05-11T08:59:03Z</time>
      </trkpt>
      <trkpt lat="45.96719" lon="5.57719">
        <ele>744.6</ele>
        <time>2026-05-11T08:59:04Z</time>
      </trkpt>
      <trkpt lat="45.96717" lon="5.57714">
        <ele>744.2</ele>
        <time>2026-05-11T08:59:05Z</time>
      </trkpt>
      <trkpt lat="45.96715" lon="5.57711">
        <ele>743.6</ele>
        <time>2026-05-11T08:59:06Z</time>
      </trkpt>
      <trkpt lat="45.96716" lon="5.57704">
        <ele>743</ele>
        <time>2026-05-11T08:59:07Z</time>
      </trkpt>
      <trkpt lat="45.96717" lon="5.57698">
        <ele>742.4</ele>
        <time>2026-05-11T08:59:08Z</time>
      </trkpt>
      <trkpt lat="45.96724" lon="5.57687">
        <ele>741.2</ele>
        <time>2026-05-11T08:59:09Z</time>
      </trkpt>
      <trkpt lat="45.96729" lon="5.57682">
        <ele>740.8</ele>
        <time>2026-05-11T08:59:10Z</time>
      </trkpt>
      <trkpt lat="45.96733" lon="5.57678">
        <ele>740.2</ele>
        <time>2026-05-11T08:59:11Z</time>
      </trkpt>
      <trkpt lat="45.96736" lon="5.57676">
        <ele>740.2</ele>
        <time>2026-05-11T08:59:12Z</time>
      </trkpt>
      <trkpt lat="45.96739" lon="5.57674">
        <ele>739.8</ele>
        <time>2026-05-11T08:59:13Z</time>
      </trkpt>
      <trkpt lat="45.96743" lon="5.5767">
        <ele>739.4</ele>
        <time>2026-05-11T08:59:14Z</time>
      </trkpt>
      <trkpt lat="45.96746" lon="5.57666">
        <ele>738.8</ele>
        <time>2026-05-11T08:59:15Z</time>
      </trkpt>
      <trkpt lat="45.96749" lon="5.57663">
        <ele>738.4</ele>
        <time>2026-05-11T08:59:16Z</time>
      </trkpt>
      <trkpt lat="45.96751" lon="5.57661">
        <ele>738.2</ele>
        <time>2026-05-11T08:59:17Z</time>
      </trkpt>
      <trkpt lat="45.96752" lon="5.5766">
        <ele>737.2</ele>
        <time>2026-05-11T08:59:18Z</time>
      </trkpt>
      <trkpt lat="45.96753" lon="5.57658">
        <ele>737.2</ele>
        <time>2026-05-11T08:59:19Z</time>
      </trkpt>
      <trkpt lat="45.96754" lon="5.57656">
        <ele>737.2</ele>
        <time>2026-05-11T08:59:20Z</time>
      </trkpt>
      <trkpt lat="45.96754" lon="5.57654">
        <ele>737.2</ele>
        <time>2026-05-11T08:59:21Z</time>
      </trkpt>
      <trkpt lat="45.96756" lon="5.5765">
        <ele>737</ele>
        <time>2026-05-11T08:59:22Z</time>
      </trkpt>
      <trkpt lat="45.96755" lon="5.57646">
        <ele>737</ele>
        <time>2026-05-11T08:59:23Z</time>
      </trkpt>
      <trkpt lat="45.96753" lon="5.57642">
        <ele>737</ele>
        <time>2026-05-11T08:59:24Z</time>
      </trkpt>
      <trkpt lat="45.9675" lon="5.57639">
        <ele>737</ele>
        <time>2026-05-11T08:59:25Z</time>
      </trkpt>
      <trkpt lat="45.96748" lon="5.57636">
        <ele>737</ele>
        <time>2026-05-11T08:59:26Z</time>
      </trkpt>
      <trkpt lat="45.96745" lon="5.57633">
        <ele>737</ele>
        <time>2026-05-11T08:59:27Z</time>
      </trkpt>
      <trkpt lat="45.96742" lon="5.5763">
        <ele>736.6</ele>
        <time>2026-05-11T08:59:28Z</time>
      </trkpt>
      <trkpt lat="45.9674" lon="5.57627">
        <ele>736.4</ele>
        <time>2026-05-11T08:59:29Z</time>
      </trkpt>
      <trkpt lat="45.96737" lon="5.57623">
        <ele>736.4</ele>
        <time>2026-05-11T08:59:30Z</time>
      </trkpt>
      <trkpt lat="45.96734" lon="5.57619">
        <ele>736.4</ele>
        <time>2026-05-11T08:59:31Z</time>
      </trkpt>
      <trkpt lat="45.96732" lon="5.57616">
        <ele>736.4</ele>
        <time>2026-05-11T08:59:32Z</time>
      </trkpt>
      <trkpt lat="45.96729" lon="5.57612">
        <ele>736.2</ele>
        <time>2026-05-11T08:59:33Z</time>
      </trkpt>
      <trkpt lat="45.96725" lon="5.57609">
        <ele>736.2</ele>
        <time>2026-05-11T08:59:34Z</time>
      </trkpt>
      <trkpt lat="45.96722" lon="5.57605">
        <ele>736.2</ele>
        <time>2026-05-11T08:59:35Z</time>
      </trkpt>
      <trkpt lat="45.96719" lon="5.576">
        <ele>736.2</ele>
        <time>2026-05-11T08:59:36Z</time>
      </trkpt>
      <trkpt lat="45.96716" lon="5.57596">
        <ele>735.8</ele>
        <time>2026-05-11T08:59:37Z</time>
      </trkpt>
      <trkpt lat="45.96712" lon="5.57592">
        <ele>735.8</ele>
        <time>2026-05-11T08:59:38Z</time>
      </trkpt>
      <trkpt lat="45.96709" lon="5.57587">
        <ele>735.8</ele>
        <time>2026-05-11T08:59:39Z</time>
      </trkpt>
      <trkpt lat="45.96706" lon="5.57583">
        <ele>735.8</ele>
        <time>2026-05-11T08:59:40Z</time>
      </trkpt>
      <trkpt lat="45.96702" lon="5.57579">
        <ele>735.8</ele>
        <time>2026-05-11T08:59:41Z</time>
      </trkpt>
      <trkpt lat="45.96699" lon="5.57575">
        <ele>735.6</ele>
        <time>2026-05-11T08:59:42Z</time>
      </trkpt>
      <trkpt lat="45.96696" lon="5.57571">
        <ele>735.6</ele>
        <time>2026-05-11T08:59:43Z</time>
      </trkpt>
      <trkpt lat="45.96694" lon="5.57566">
        <ele>735.6</ele>
        <time>2026-05-11T08:59:44Z</time>
      </trkpt>
      <trkpt lat="45.96692" lon="5.57561">
        <ele>735.6</ele>
        <time>2026-05-11T08:59:45Z</time>
      </trkpt>
      <trkpt lat="45.9669" lon="5.57556">
        <ele>735.6</ele>
        <time>2026-05-11T08:59:46Z</time>
      </trkpt>
      <trkpt lat="45.96688" lon="5.5755">
        <ele>736</ele>
        <time>2026-05-11T08:59:47Z</time>
      </trkpt>
      <trkpt lat="45.96686" lon="5.57546">
        <ele>736</ele>
        <time>2026-05-11T08:59:48Z</time>
      </trkpt>
      <trkpt lat="45.96684" lon="5.5754">
        <ele>736</ele>
        <time>2026-05-11T08:59:49Z</time>
      </trkpt>
      <trkpt lat="45.96682" lon="5.57535">
        <ele>736</ele>
        <time>2026-05-11T08:59:50Z</time>
      </trkpt>
      <trkpt lat="45.9668" lon="5.57529">
        <ele>735.8</ele>
        <time>2026-05-11T08:59:51Z</time>
      </trkpt>
      <trkpt lat="45.96678" lon="5.57524">
        <ele>735.8</ele>
        <time>2026-05-11T08:59:52Z</time>
      </trkpt>
      <trkpt lat="45.96677" lon="5.57519">
        <ele>735.8</ele>
        <time>2026-05-11T08:59:53Z</time>
      </trkpt>
      <trkpt lat="45.96675" lon="5.57513">
        <ele>736</ele>
        <time>2026-05-11T08:59:54Z</time>
      </trkpt>
      <trkpt lat="45.96674" lon="5.57508">
        <ele>736</ele>
        <time>2026-05-11T08:59:55Z</time>
      </trkpt>
      <trkpt lat="45.96672" lon="5.57503">
        <ele>736</ele>
        <time>2026-05-11T08:59:56Z</time>
      </trkpt>
      <trkpt lat="45.96671" lon="5.57497">
        <ele>736.2</ele>
        <time>2026-05-11T08:59:57Z</time>
      </trkpt>
      <trkpt lat="45.96669" lon="5.57491">
        <ele>736.2</ele>
        <time>2026-05-11T08:59:58Z</time>
      </trkpt>
      <trkpt lat="45.96668" lon="5.57485">
        <ele>736.2</ele>
        <time>2026-05-11T08:59:59Z</time>
      </trkpt>
      <trkpt lat="45.96667" lon="5.57478">
        <ele>736.2</ele>
        <time>2026-05-11T09:00:00Z</time>
      </trkpt>
      <trkpt lat="45.96665" lon="5.57472">
        <ele>736.2</ele>
        <time>2026-05-11T09:00:01Z</time>
      </trkpt>
      <trkpt lat="45.96664" lon="5.57466">
        <ele>736.2</ele>
        <time>2026-05-11T09:00:02Z</time>
      </trkpt>
      <trkpt lat="45.96662" lon="5.5746">
        <ele>736.2</ele>
        <time>2026-05-11T09:00:03Z</time>
      </trkpt>
      <trkpt lat="45.96661" lon="5.57453">
        <ele>736.2</ele>
        <time>2026-05-11T09:00:04Z</time>
      </trkpt>
      <trkpt lat="45.96659" lon="5.57448">
        <ele>736.2</ele>
        <time>2026-05-11T09:00:05Z</time>
      </trkpt>
      <trkpt lat="45.96656" lon="5.57442">
        <ele>736.2</ele>
        <time>2026-05-11T09:00:06Z</time>
      </trkpt>
      <trkpt lat="45.96655" lon="5.57436">
        <ele>736.2</ele>
        <time>2026-05-11T09:00:07Z</time>
      </trkpt>
      <trkpt lat="45.96653" lon="5.57429">
        <ele>736.2</ele>
        <time>2026-05-11T09:00:08Z</time>
      </trkpt>
      <trkpt lat="45.96651" lon="5.57423">
        <ele>736.2</ele>
        <time>2026-05-11T09:00:09Z</time>
      </trkpt>
      <trkpt lat="45.9665" lon="5.57416">
        <ele>736.4</ele>
        <time>2026-05-11T09:00:10Z</time>
      </trkpt>
      <trkpt lat="45.96649" lon="5.57409">
        <ele>736.4</ele>
        <time>2026-05-11T09:00:11Z</time>
      </trkpt>
      <trkpt lat="45.96647" lon="5.57401">
        <ele>736.8</ele>
        <time>2026-05-11T09:00:12Z</time>
      </trkpt>
      <trkpt lat="45.96646" lon="5.57394">
        <ele>736.8</ele>
        <time>2026-05-11T09:00:13Z</time>
      </trkpt>
      <trkpt lat="45.96644" lon="5.57386">
        <ele>736.8</ele>
        <time>2026-05-11T09:00:14Z</time>
      </trkpt>
      <trkpt lat="45.96642" lon="5.57378">
        <ele>737</ele>
        <time>2026-05-11T09:00:15Z</time>
      </trkpt>
      <trkpt lat="45.9664" lon="5.57371">
        <ele>737</ele>
        <time>2026-05-11T09:00:16Z</time>
      </trkpt>
      <trkpt lat="45.96638" lon="5.57363">
        <ele>737</ele>
        <time>2026-05-11T09:00:17Z</time>
      </trkpt>
      <trkpt lat="45.96636" lon="5.57355">
        <ele>737</ele>
        <time>2026-05-11T09:00:18Z</time>
      </trkpt>
      <trkpt lat="45.96634" lon="5.57349">
        <ele>737</ele>
        <time>2026-05-11T09:00:19Z</time>
      </trkpt>
      <trkpt lat="45.96633" lon="5.57339">
        <ele>737</ele>
        <time>2026-05-11T09:00:20Z</time>
      </trkpt>
      <trkpt lat="45.96632" lon="5.5733">
        <ele>737</ele>
        <time>2026-05-11T09:00:21Z</time>
      </trkpt>
      <trkpt lat="45.9663" lon="5.57323">
        <ele>737</ele>
        <time>2026-05-11T09:00:22Z</time>
      </trkpt>
      <trkpt lat="45.96628" lon="5.57314">
        <ele>737.2</ele>
        <time>2026-05-11T09:00:23Z</time>
      </trkpt>
      <trkpt lat="45.96626" lon="5.57307">
        <ele>737.4</ele>
        <time>2026-05-11T09:00:24Z</time>
      </trkpt>
      <trkpt lat="45.96624" lon="5.57301">
        <ele>737.4</ele>
        <time>2026-05-11T09:00:25Z</time>
      </trkpt>
      <trkpt lat="45.9662" lon="5.57294">
        <ele>737.4</ele>
        <time>2026-05-11T09:00:26Z</time>
      </trkpt>
      <trkpt lat="45.96618" lon="5.57286">
        <ele>737.4</ele>
        <time>2026-05-11T09:00:27Z</time>
      </trkpt>
      <trkpt lat="45.96615" lon="5.5728">
        <ele>737.6</ele>
        <time>2026-05-11T09:00:28Z</time>
      </trkpt>
      <trkpt lat="45.96614" lon="5.57272">
        <ele>737.6</ele>
        <time>2026-05-11T09:00:29Z</time>
      </trkpt>
      <trkpt lat="45.96611" lon="5.57265">
        <ele>737.4</ele>
        <time>2026-05-11T09:00:30Z</time>
      </trkpt>
      <trkpt lat="45.96609" lon="5.57257">
        <ele>737.4</ele>
        <time>2026-05-11T09:00:31Z</time>
      </trkpt>
      <trkpt lat="45.96606" lon="5.57249">
        <ele>737.4</ele>
        <time>2026-05-11T09:00:32Z</time>
      </trkpt>
      <trkpt lat="45.96604" lon="5.57241">
        <ele>737.4</ele>
        <time>2026-05-11T09:00:33Z</time>
      </trkpt>
      <trkpt lat="45.96602" lon="5.57233">
        <ele>737.2</ele>
        <time>2026-05-11T09:00:34Z</time>
      </trkpt>
      <trkpt lat="45.96599" lon="5.57225">
        <ele>737.2</ele>
        <time>2026-05-11T09:00:35Z</time>
      </trkpt>
      <trkpt lat="45.96597" lon="5.57218">
        <ele>737.2</ele>
        <time>2026-05-11T09:00:36Z</time>
      </trkpt>
      <trkpt lat="45.96595" lon="5.5721">
        <ele>737.4</ele>
        <time>2026-05-11T09:00:37Z</time>
      </trkpt>
      <trkpt lat="45.96592" lon="5.57204">
        <ele>737.4</ele>
        <time>2026-05-11T09:00:38Z</time>
      </trkpt>
      <trkpt lat="45.96589" lon="5.57197">
        <ele>737.8</ele>
        <time>2026-05-11T09:00:39Z</time>
      </trkpt>
      <trkpt lat="45.96586" lon="5.5719">
        <ele>737.8</ele>
        <time>2026-05-11T09:00:40Z</time>
      </trkpt>
      <trkpt lat="45.96584" lon="5.57184">
        <ele>737.8</ele>
        <time>2026-05-11T09:00:41Z</time>
      </trkpt>
      <trkpt lat="45.9658" lon="5.57178">
        <ele>737.8</ele>
        <time>2026-05-11T09:00:42Z</time>
      </trkpt>
      <trkpt lat="45.96578" lon="5.57171">
        <ele>737.8</ele>
        <time>2026-05-11T09:00:43Z</time>
      </trkpt>
      <trkpt lat="45.96574" lon="5.57165">
        <ele>737.8</ele>
        <time>2026-05-11T09:00:44Z</time>
      </trkpt>
      <trkpt lat="45.96571" lon="5.57157">
        <ele>737.6</ele>
        <time>2026-05-11T09:00:45Z</time>
      </trkpt>
      <trkpt lat="45.96568" lon="5.5715">
        <ele>737.6</ele>
        <time>2026-05-11T09:00:46Z</time>
      </trkpt>
      <trkpt lat="45.96565" lon="5.57142">
        <ele>737.4</ele>
        <time>2026-05-11T09:00:47Z</time>
      </trkpt>
      <trkpt lat="45.96563" lon="5.57134">
        <ele>737.4</ele>
        <time>2026-05-11T09:00:48Z</time>
      </trkpt>
      <trkpt lat="45.96562" lon="5.57125">
        <ele>737.4</ele>
        <time>2026-05-11T09:00:49Z</time>
      </trkpt>
      <trkpt lat="45.96561" lon="5.57117">
        <ele>737</ele>
        <time>2026-05-11T09:00:50Z</time>
      </trkpt>
      <trkpt lat="45.96561" lon="5.57108">
        <ele>737</ele>
        <time>2026-05-11T09:00:51Z</time>
      </trkpt>
      <trkpt lat="45.96562" lon="5.57099">
        <ele>737</ele>
        <time>2026-05-11T09:00:52Z</time>
      </trkpt>
      <trkpt lat="45.96563" lon="5.5709">
        <ele>737</ele>
        <time>2026-05-11T09:00:53Z</time>
      </trkpt>
      <trkpt lat="45.96564" lon="5.57081">
        <ele>737</ele>
        <time>2026-05-11T09:00:54Z</time>
      </trkpt>
      <trkpt lat="45.96565" lon="5.57073">
        <ele>737</ele>
        <time>2026-05-11T09:00:55Z</time>
      </trkpt>
      <trkpt lat="45.96567" lon="5.57064">
        <ele>737</ele>
        <time>2026-05-11T09:00:56Z</time>
      </trkpt>
      <trkpt lat="45.96568" lon="5.57056">
        <ele>736.8</ele>
        <time>2026-05-11T09:00:57Z</time>
      </trkpt>
      <trkpt lat="45.96569" lon="5.57047">
        <ele>736.6</ele>
        <time>2026-05-11T09:00:58Z</time>
      </trkpt>
      <trkpt lat="45.9657" lon="5.57039">
        <ele>736.6</ele>
        <time>2026-05-11T09:00:59Z</time>
      </trkpt>
      <trkpt lat="45.96572" lon="5.5703">
        <ele>736.6</ele>
        <time>2026-05-11T09:01:00Z</time>
      </trkpt>
      <trkpt lat="45.96574" lon="5.57021">
        <ele>736.4</ele>
        <time>2026-05-11T09:01:01Z</time>
      </trkpt>
      <trkpt lat="45.96575" lon="5.57012">
        <ele>736.2</ele>
        <time>2026-05-11T09:01:02Z</time>
      </trkpt>
      <trkpt lat="45.96576" lon="5.57003">
        <ele>736.2</ele>
        <time>2026-05-11T09:01:03Z</time>
      </trkpt>
      <trkpt lat="45.96577" lon="5.56993">
        <ele>735.6</ele>
        <time>2026-05-11T09:01:04Z</time>
      </trkpt>
      <trkpt lat="45.96578" lon="5.56983">
        <ele>735.4</ele>
        <time>2026-05-11T09:01:05Z</time>
      </trkpt>
      <trkpt lat="45.9658" lon="5.56973">
        <ele>735.4</ele>
        <time>2026-05-11T09:01:06Z</time>
      </trkpt>
      <trkpt lat="45.96581" lon="5.56964">
        <ele>735.2</ele>
        <time>2026-05-11T09:01:07Z</time>
      </trkpt>
      <trkpt lat="45.96583" lon="5.56955">
        <ele>735.2</ele>
        <time>2026-05-11T09:01:08Z</time>
      </trkpt>
      <trkpt lat="45.96584" lon="5.56945">
        <ele>734.8</ele>
        <time>2026-05-11T09:01:09Z</time>
      </trkpt>
      <trkpt lat="45.96585" lon="5.56935">
        <ele>734.4</ele>
        <time>2026-05-11T09:01:10Z</time>
      </trkpt>
      <trkpt lat="45.96585" lon="5.56925">
        <ele>734</ele>
        <time>2026-05-11T09:01:11Z</time>
      </trkpt>
      <trkpt lat="45.96585" lon="5.56915">
        <ele>733.6</ele>
        <time>2026-05-11T09:01:12Z</time>
      </trkpt>
      <trkpt lat="45.96585" lon="5.56905">
        <ele>733</ele>
        <time>2026-05-11T09:01:13Z</time>
      </trkpt>
      <trkpt lat="45.96583" lon="5.56895">
        <ele>732.4</ele>
        <time>2026-05-11T09:01:14Z</time>
      </trkpt>
      <trkpt lat="45.9658" lon="5.56886">
        <ele>732</ele>
        <time>2026-05-11T09:01:15Z</time>
      </trkpt>
      <trkpt lat="45.96577" lon="5.56877">
        <ele>731.8</ele>
        <time>2026-05-11T09:01:16Z</time>
      </trkpt>
      <trkpt lat="45.96572" lon="5.5687">
        <ele>731.2</ele>
        <time>2026-05-11T09:01:17Z</time>
      </trkpt>
      <trkpt lat="45.96565" lon="5.56865">
        <ele>730.8</ele>
        <time>2026-05-11T09:01:18Z</time>
      </trkpt>
      <trkpt lat="45.96559" lon="5.56862">
        <ele>730.2</ele>
        <time>2026-05-11T09:01:19Z</time>
      </trkpt>
      <trkpt lat="45.96551" lon="5.56861">
        <ele>729.8</ele>
        <time>2026-05-11T09:01:20Z</time>
      </trkpt>
      <trkpt lat="45.96544" lon="5.56858">
        <ele>729.2</ele>
        <time>2026-05-11T09:01:21Z</time>
      </trkpt>
      <trkpt lat="45.96537" lon="5.5686">
        <ele>728.6</ele>
        <time>2026-05-11T09:01:22Z</time>
      </trkpt>
      <trkpt lat="45.96529" lon="5.56865">
        <ele>728</ele>
        <time>2026-05-11T09:01:23Z</time>
      </trkpt>
      <trkpt lat="45.96522" lon="5.56871">
        <ele>727.6</ele>
        <time>2026-05-11T09:01:24Z</time>
      </trkpt>
      <trkpt lat="45.96515" lon="5.56878">
        <ele>727.2</ele>
        <time>2026-05-11T09:01:25Z</time>
      </trkpt>
      <trkpt lat="45.9651" lon="5.56885">
        <ele>726.8</ele>
        <time>2026-05-11T09:01:26Z</time>
      </trkpt>
      <trkpt lat="45.96504" lon="5.56891">
        <ele>726.6</ele>
        <time>2026-05-11T09:01:27Z</time>
      </trkpt>
      <trkpt lat="45.96499" lon="5.56897">
        <ele>726.6</ele>
        <time>2026-05-11T09:01:28Z</time>
      </trkpt>
      <trkpt lat="45.96493" lon="5.56904">
        <ele>726</ele>
        <time>2026-05-11T09:01:29Z</time>
      </trkpt>
      <trkpt lat="45.96489" lon="5.56909">
        <ele>725.8</ele>
        <time>2026-05-11T09:01:30Z</time>
      </trkpt>
      <trkpt lat="45.96484" lon="5.56914">
        <ele>725.4</ele>
        <time>2026-05-11T09:01:31Z</time>
      </trkpt>
      <trkpt lat="45.96478" lon="5.56921">
        <ele>724.8</ele>
        <time>2026-05-11T09:01:32Z</time>
      </trkpt>
      <trkpt lat="45.96473" lon="5.56927">
        <ele>724.8</ele>
        <time>2026-05-11T09:01:33Z</time>
      </trkpt>
      <trkpt lat="45.96467" lon="5.56931">
        <ele>724</ele>
        <time>2026-05-11T09:01:34Z</time>
      </trkpt>
      <trkpt lat="45.96461" lon="5.56933">
        <ele>723.6</ele>
        <time>2026-05-11T09:01:35Z</time>
      </trkpt>
      <trkpt lat="45.96455" lon="5.56932">
        <ele>723.2</ele>
        <time>2026-05-11T09:01:36Z</time>
      </trkpt>
      <trkpt lat="45.96448" lon="5.5693">
        <ele>722.4</ele>
        <time>2026-05-11T09:01:37Z</time>
      </trkpt>
      <trkpt lat="45.96442" lon="5.56929">
        <ele>721.6</ele>
        <time>2026-05-11T09:01:38Z</time>
      </trkpt>
      <trkpt lat="45.96436" lon="5.56926">
        <ele>721.2</ele>
        <time>2026-05-11T09:01:39Z</time>
      </trkpt>
      <trkpt lat="45.96429" lon="5.56924">
        <ele>720.8</ele>
        <time>2026-05-11T09:01:40Z</time>
      </trkpt>
      <trkpt lat="45.96423" lon="5.56921">
        <ele>720.2</ele>
        <time>2026-05-11T09:01:41Z</time>
      </trkpt>
      <trkpt lat="45.96418" lon="5.56919">
        <ele>719.6</ele>
        <time>2026-05-11T09:01:42Z</time>
      </trkpt>
      <trkpt lat="45.96411" lon="5.56918">
        <ele>719.2</ele>
        <time>2026-05-11T09:01:43Z</time>
      </trkpt>
      <trkpt lat="45.96405" lon="5.56917">
        <ele>718.6</ele>
        <time>2026-05-11T09:01:44Z</time>
      </trkpt>
      <trkpt lat="45.96399" lon="5.56916">
        <ele>718.2</ele>
        <time>2026-05-11T09:01:45Z</time>
      </trkpt>
      <trkpt lat="45.96393" lon="5.56914">
        <ele>717.8</ele>
        <time>2026-05-11T09:01:46Z</time>
      </trkpt>
      <trkpt lat="45.96388" lon="5.56914">
        <ele>717.6</ele>
        <time>2026-05-11T09:01:47Z</time>
      </trkpt>
      <trkpt lat="45.96382" lon="5.56913">
        <ele>717.6</ele>
        <time>2026-05-11T09:01:48Z</time>
      </trkpt>
      <trkpt lat="45.96378" lon="5.56911">
        <ele>717.6</ele>
        <time>2026-05-11T09:01:49Z</time>
      </trkpt>
      <trkpt lat="45.96373" lon="5.5691">
        <ele>717.2</ele>
        <time>2026-05-11T09:01:50Z</time>
      </trkpt>
      <trkpt lat="45.96369" lon="5.5691">
        <ele>717.2</ele>
        <time>2026-05-11T09:01:51Z</time>
      </trkpt>
      <trkpt lat="45.96365" lon="5.56909">
        <ele>716.8</ele>
        <time>2026-05-11T09:01:52Z</time>
      </trkpt>
      <trkpt lat="45.9636" lon="5.5691">
        <ele>716.6</ele>
        <time>2026-05-11T09:01:53Z</time>
      </trkpt>
      <trkpt lat="45.96355" lon="5.56911">
        <ele>716.2</ele>
        <time>2026-05-11T09:01:54Z</time>
      </trkpt>
      <trkpt lat="45.96351" lon="5.56911">
        <ele>716</ele>
        <time>2026-05-11T09:01:55Z</time>
      </trkpt>
      <trkpt lat="45.96345" lon="5.56911">
        <ele>715.6</ele>
        <time>2026-05-11T09:01:56Z</time>
      </trkpt>
      <trkpt lat="45.96345" lon="5.56911">
        <ele>715.6</ele>
        <time>2026-05-11T09:01:57Z</time>
      </trkpt>
      <trkpt lat="45.9634" lon="5.56911">
        <ele>715.2</ele>
        <time>2026-05-11T09:01:58Z</time>
      </trkpt>
      <trkpt lat="45.96333" lon="5.56912">
        <ele>714.8</ele>
        <time>2026-05-11T09:01:59Z</time>
      </trkpt>
      <trkpt lat="45.96326" lon="5.56912">
        <ele>714.2</ele>
        <time>2026-05-11T09:02:00Z</time>
      </trkpt>
      <trkpt lat="45.9632" lon="5.5691">
        <ele>714</ele>
        <time>2026-05-11T09:02:01Z</time>
      </trkpt>
      <trkpt lat="45.96313" lon="5.56909">
        <ele>713.4</ele>
        <time>2026-05-11T09:02:02Z</time>
      </trkpt>
      <trkpt lat="45.96306" lon="5.56908">
        <ele>713</ele>
        <time>2026-05-11T09:02:03Z</time>
      </trkpt>
      <trkpt lat="45.96299" lon="5.56906">
        <ele>712.6</ele>
        <time>2026-05-11T09:02:04Z</time>
      </trkpt>
      <trkpt lat="45.96291" lon="5.56904">
        <ele>712.2</ele>
        <time>2026-05-11T09:02:05Z</time>
      </trkpt>
      <trkpt lat="45.96284" lon="5.56902">
        <ele>711.8</ele>
        <time>2026-05-11T09:02:06Z</time>
      </trkpt>
      <trkpt lat="45.96277" lon="5.56899">
        <ele>711.2</ele>
        <time>2026-05-11T09:02:07Z</time>
      </trkpt>
      <trkpt lat="45.96269" lon="5.56896">
        <ele>710.6</ele>
        <time>2026-05-11T09:02:08Z</time>
      </trkpt>
      <trkpt lat="45.96262" lon="5.56893">
        <ele>710.2</ele>
        <time>2026-05-11T09:02:09Z</time>
      </trkpt>
      <trkpt lat="45.96254" lon="5.5689">
        <ele>709.6</ele>
        <time>2026-05-11T09:02:10Z</time>
      </trkpt>
      <trkpt lat="45.96245" lon="5.56886">
        <ele>709</ele>
        <time>2026-05-11T09:02:11Z</time>
      </trkpt>
      <trkpt lat="45.96237" lon="5.56882">
        <ele>708.4</ele>
        <time>2026-05-11T09:02:12Z</time>
      </trkpt>
      <trkpt lat="45.96229" lon="5.56877">
        <ele>708.4</ele>
        <time>2026-05-11T09:02:13Z</time>
      </trkpt>
      <trkpt lat="45.96221" lon="5.56872">
        <ele>707.8</ele>
        <time>2026-05-11T09:02:14Z</time>
      </trkpt>
      <trkpt lat="45.96213" lon="5.56867">
        <ele>707.4</ele>
        <time>2026-05-11T09:02:15Z</time>
      </trkpt>
      <trkpt lat="45.96205" lon="5.56863">
        <ele>707</ele>
        <time>2026-05-11T09:02:16Z</time>
      </trkpt>
      <trkpt lat="45.96197" lon="5.56857">
        <ele>706.6</ele>
        <time>2026-05-11T09:02:17Z</time>
      </trkpt>
      <trkpt lat="45.9619" lon="5.56852">
        <ele>706.2</ele>
        <time>2026-05-11T09:02:18Z</time>
      </trkpt>
      <trkpt lat="45.96182" lon="5.56846">
        <ele>705.4</ele>
        <time>2026-05-11T09:02:19Z</time>
      </trkpt>
      <trkpt lat="45.96174" lon="5.56841">
        <ele>705</ele>
        <time>2026-05-11T09:02:20Z</time>
      </trkpt>
      <trkpt lat="45.96166" lon="5.56835">
        <ele>704.4</ele>
        <time>2026-05-11T09:02:21Z</time>
      </trkpt>
      <trkpt lat="45.96159" lon="5.56828">
        <ele>703.8</ele>
        <time>2026-05-11T09:02:22Z</time>
      </trkpt>
      <trkpt lat="45.96152" lon="5.5682">
        <ele>703.4</ele>
        <time>2026-05-11T09:02:23Z</time>
      </trkpt>
      <trkpt lat="45.96144" lon="5.56812">
        <ele>702.6</ele>
        <time>2026-05-11T09:02:24Z</time>
      </trkpt>
      <trkpt lat="45.96139" lon="5.568">
        <ele>702.2</ele>
        <time>2026-05-11T09:02:25Z</time>
      </trkpt>
      <trkpt lat="45.96133" lon="5.5679">
        <ele>701.6</ele>
        <time>2026-05-11T09:02:26Z</time>
      </trkpt>
      <trkpt lat="45.96127" lon="5.5678">
        <ele>701</ele>
        <time>2026-05-11T09:02:27Z</time>
      </trkpt>
      <trkpt lat="45.96122" lon="5.56769">
        <ele>700.8</ele>
        <time>2026-05-11T09:02:28Z</time>
      </trkpt>
      <trkpt lat="45.96119" lon="5.56755">
        <ele>700.4</ele>
        <time>2026-05-11T09:02:29Z</time>
      </trkpt>
      <trkpt lat="45.96114" lon="5.56744">
        <ele>699.8</ele>
        <time>2026-05-11T09:02:30Z</time>
      </trkpt>
      <trkpt lat="45.9611" lon="5.56733">
        <ele>699.6</ele>
        <time>2026-05-11T09:02:31Z</time>
      </trkpt>
      <trkpt lat="45.96107" lon="5.56724">
        <ele>699.2</ele>
        <time>2026-05-11T09:02:32Z</time>
      </trkpt>
      <trkpt lat="45.96103" lon="5.56716">
        <ele>698.8</ele>
        <time>2026-05-11T09:02:33Z</time>
      </trkpt>
      <trkpt lat="45.96099" lon="5.56708">
        <ele>698.8</ele>
        <time>2026-05-11T09:02:34Z</time>
      </trkpt>
      <trkpt lat="45.96095" lon="5.56702">
        <ele>698.8</ele>
        <time>2026-05-11T09:02:35Z</time>
      </trkpt>
      <trkpt lat="45.96092" lon="5.56698">
        <ele>698.8</ele>
        <time>2026-05-11T09:02:36Z</time>
      </trkpt>
      <trkpt lat="45.96089" lon="5.56694">
        <ele>698.8</ele>
        <time>2026-05-11T09:02:37Z</time>
      </trkpt>
      <trkpt lat="45.96086" lon="5.5669">
        <ele>698.8</ele>
        <time>2026-05-11T09:02:38Z</time>
      </trkpt>
      <trkpt lat="45.96084" lon="5.56688">
        <ele>698.6</ele>
        <time>2026-05-11T09:02:39Z</time>
      </trkpt>
      <trkpt lat="45.96082" lon="5.56686">
        <ele>698.6</ele>
        <time>2026-05-11T09:02:40Z</time>
      </trkpt>
      <trkpt lat="45.9608" lon="5.56684">
        <ele>698.4</ele>
        <time>2026-05-11T09:02:41Z</time>
      </trkpt>
      <trkpt lat="45.96077" lon="5.56682">
        <ele>698.4</ele>
        <time>2026-05-11T09:02:42Z</time>
      </trkpt>
      <trkpt lat="45.96077" lon="5.56683">
        <ele>698.4</ele>
        <time>2026-05-11T09:02:43Z</time>
      </trkpt>
      <trkpt lat="45.96077" lon="5.56682">
        <ele>698.4</ele>
        <time>2026-05-11T09:02:44Z</time>
      </trkpt>
      <trkpt lat="45.96077" lon="5.56683">
        <ele>698.4</ele>
        <time>2026-05-11T09:02:45Z</time>
      </trkpt>
      <trkpt lat="45.96079" lon="5.56682">
        <ele>698.2</ele>
        <time>2026-05-11T09:02:50Z</time>
      </trkpt>
      <trkpt lat="45.96079" lon="5.56682">
        <ele>698.2</ele>
        <time>2026-05-11T09:02:51Z</time>
      </trkpt>
      <trkpt lat="45.96079" lon="5.56681">
        <ele>698.2</ele>
        <time>2026-05-11T09:02:52Z</time>
      </trkpt>
      <trkpt lat="45.96079" lon="5.5668">
        <ele>698.2</ele>
        <time>2026-05-11T09:02:53Z</time>
      </trkpt>
      <trkpt lat="45.96079" lon="5.56681">
        <ele>698.2</ele>
        <time>2026-05-11T09:02:54Z</time>
      </trkpt>
      <trkpt lat="45.96079" lon="5.56681">
        <ele>698.2</ele>
        <time>2026-05-11T09:02:55Z</time>
      </trkpt>
      <trkpt lat="45.96078" lon="5.56681">
        <ele>698.2</ele>
        <time>2026-05-11T09:03:02Z</time>
      </trkpt>
      <trkpt lat="45.96078" lon="5.56681">
        <ele>698.2</ele>
        <time>2026-05-11T09:03:03Z</time>
      </trkpt>
      <trkpt lat="45.96079" lon="5.56679">
        <ele>698.6</ele>
        <time>2026-05-11T09:08:37Z</time>
      </trkpt>
      <trkpt lat="45.96079" lon="5.56679">
        <ele>698.6</ele>
        <time>2026-05-11T09:08:38Z</time>
      </trkpt>
      <trkpt lat="45.96079" lon="5.56679">
        <ele>698.4</ele>
        <time>2026-05-11T09:08:39Z</time>
      </trkpt>
      <trkpt lat="45.9608" lon="5.56679">
        <ele>698.4</ele>
        <time>2026-05-11T09:08:40Z</time>
      </trkpt>
      <trkpt lat="45.9608" lon="5.56679">
        <ele>698.4</ele>
        <time>2026-05-11T09:08:41Z</time>
      </trkpt>
      <trkpt lat="45.96081" lon="5.56678">
        <ele>698.6</ele>
        <time>2026-05-11T09:08:45Z</time>
      </trkpt>
      <trkpt lat="45.96081" lon="5.56679">
        <ele>698.6</ele>
        <time>2026-05-11T09:08:46Z</time>
      </trkpt>
      <trkpt lat="45.96081" lon="5.56679">
        <ele>698.6</ele>
        <time>2026-05-11T09:08:47Z</time>
      </trkpt>
      <trkpt lat="45.9608" lon="5.5668">
        <ele>698.6</ele>
        <time>2026-05-11T09:08:48Z</time>
      </trkpt>
      <trkpt lat="45.96081" lon="5.56682">
        <ele>698.4</ele>
        <time>2026-05-11T09:08:58Z</time>
      </trkpt>
      <trkpt lat="45.96082" lon="5.56684">
        <ele>698.4</ele>
        <time>2026-05-11T09:08:59Z</time>
      </trkpt>
      <trkpt lat="45.96083" lon="5.56685">
        <ele>698.4</ele>
        <time>2026-05-11T09:09:00Z</time>
      </trkpt>
      <trkpt lat="45.96084" lon="5.56686">
        <ele>698.4</ele>
        <time>2026-05-11T09:09:01Z</time>
      </trkpt>
      <trkpt lat="45.96086" lon="5.56688">
        <ele>698.4</ele>
        <time>2026-05-11T09:09:02Z</time>
      </trkpt>
      <trkpt lat="45.96088" lon="5.5669">
        <ele>698.4</ele>
        <time>2026-05-11T09:09:03Z</time>
      </trkpt>
      <trkpt lat="45.96089" lon="5.56692">
        <ele>698.4</ele>
        <time>2026-05-11T09:09:04Z</time>
      </trkpt>
      <trkpt lat="45.96091" lon="5.56695">
        <ele>698.4</ele>
        <time>2026-05-11T09:09:05Z</time>
      </trkpt>
      <trkpt lat="45.96093" lon="5.56698">
        <ele>698.8</ele>
        <time>2026-05-11T09:09:06Z</time>
      </trkpt>
      <trkpt lat="45.96095" lon="5.56701">
        <ele>698.8</ele>
        <time>2026-05-11T09:09:07Z</time>
      </trkpt>
      <trkpt lat="45.96097" lon="5.56705">
        <ele>699.2</ele>
        <time>2026-05-11T09:09:08Z</time>
      </trkpt>
      <trkpt lat="45.96098" lon="5.56708">
        <ele>699.2</ele>
        <time>2026-05-11T09:09:09Z</time>
      </trkpt>
      <trkpt lat="45.961" lon="5.56711">
        <ele>699.4</ele>
        <time>2026-05-11T09:09:10Z</time>
      </trkpt>
      <trkpt lat="45.96101" lon="5.56714">
        <ele>699.4</ele>
        <time>2026-05-11T09:09:11Z</time>
      </trkpt>
      <trkpt lat="45.96103" lon="5.56718">
        <ele>699.8</ele>
        <time>2026-05-11T09:09:12Z</time>
      </trkpt>
      <trkpt lat="45.96105" lon="5.56721">
        <ele>699.8</ele>
        <time>2026-05-11T09:09:13Z</time>
      </trkpt>
      <trkpt lat="45.96106" lon="5.56725">
        <ele>699.8</ele>
        <time>2026-05-11T09:09:14Z</time>
      </trkpt>
      <trkpt lat="45.96107" lon="5.56729">
        <ele>700.2</ele>
        <time>2026-05-11T09:09:15Z</time>
      </trkpt>
      <trkpt lat="45.96108" lon="5.56733">
        <ele>700.4</ele>
        <time>2026-05-11T09:09:16Z</time>
      </trkpt>
      <trkpt lat="45.96109" lon="5.56737">
        <ele>700.4</ele>
        <time>2026-05-11T09:09:17Z</time>
      </trkpt>
      <trkpt lat="45.9611" lon="5.56741">
        <ele>700.6</ele>
        <time>2026-05-11T09:09:18Z</time>
      </trkpt>
      <trkpt lat="45.96112" lon="5.56745">
        <ele>700.8</ele>
        <time>2026-05-11T09:09:19Z</time>
      </trkpt>
      <trkpt lat="45.96113" lon="5.56749">
        <ele>700.8</ele>
        <time>2026-05-11T09:09:20Z</time>
      </trkpt>
      <trkpt lat="45.96114" lon="5.56753">
        <ele>701.4</ele>
        <time>2026-05-11T09:09:21Z</time>
      </trkpt>
      <trkpt lat="45.96115" lon="5.56756">
        <ele>701.8</ele>
        <time>2026-05-11T09:09:22Z</time>
      </trkpt>
      <trkpt lat="45.96116" lon="5.5676">
        <ele>702</ele>
        <time>2026-05-11T09:09:23Z</time>
      </trkpt>
      <trkpt lat="45.96117" lon="5.56764">
        <ele>702</ele>
        <time>2026-05-11T09:09:24Z</time>
      </trkpt>
      <trkpt lat="45.96119" lon="5.56767">
        <ele>702.4</ele>
        <time>2026-05-11T09:09:25Z</time>
      </trkpt>
      <trkpt lat="45.9612" lon="5.56771">
        <ele>702.6</ele>
        <time>2026-05-11T09:09:26Z</time>
      </trkpt>
      <trkpt lat="45.96122" lon="5.56774">
        <ele>702.8</ele>
        <time>2026-05-11T09:09:27Z</time>
      </trkpt>
      <trkpt lat="45.96123" lon="5.56778">
        <ele>702.8</ele>
        <time>2026-05-11T09:09:28Z</time>
      </trkpt>
      <trkpt lat="45.96125" lon="5.56781">
        <ele>703.2</ele>
        <time>2026-05-11T09:09:29Z</time>
      </trkpt>
      <trkpt lat="45.96127" lon="5.56784">
        <ele>703.2</ele>
        <time>2026-05-11T09:09:30Z</time>
      </trkpt>
      <trkpt lat="45.96128" lon="5.56787">
        <ele>703.4</ele>
        <time>2026-05-11T09:09:31Z</time>
      </trkpt>
      <trkpt lat="45.9613" lon="5.56791">
        <ele>703.4</ele>
        <time>2026-05-11T09:09:32Z</time>
      </trkpt>
      <trkpt lat="45.96131" lon="5.56794">
        <ele>703.8</ele>
        <time>2026-05-11T09:09:33Z</time>
      </trkpt>
      <trkpt lat="45.96132" lon="5.56797">
        <ele>703.8</ele>
        <time>2026-05-11T09:09:34Z</time>
      </trkpt>
      <trkpt lat="45.96133" lon="5.568">
        <ele>704</ele>
        <time>2026-05-11T09:09:35Z</time>
      </trkpt>
      <trkpt lat="45.96135" lon="5.56803">
        <ele>704</ele>
        <time>2026-05-11T09:09:36Z</time>
      </trkpt>
      <trkpt lat="45.96137" lon="5.56806">
        <ele>704.4</ele>
        <time>2026-05-11T09:09:37Z</time>
      </trkpt>
      <trkpt lat="45.96139" lon="5.56809">
        <ele>704.4</ele>
        <time>2026-05-11T09:09:38Z</time>
      </trkpt>
      <trkpt lat="45.96142" lon="5.56812">
        <ele>704.8</ele>
        <time>2026-05-11T09:09:39Z</time>
      </trkpt>
      <trkpt lat="45.96144" lon="5.56814">
        <ele>704.8</ele>
        <time>2026-05-11T09:09:40Z</time>
      </trkpt>
      <trkpt lat="45.96147" lon="5.56816">
        <ele>705</ele>
        <time>2026-05-11T09:09:41Z</time>
      </trkpt>
      <trkpt lat="45.96149" lon="5.56818">
        <ele>705</ele>
        <time>2026-05-11T09:09:42Z</time>
      </trkpt>
      <trkpt lat="45.9615" lon="5.56819">
        <ele>705.2</ele>
        <time>2026-05-11T09:09:43Z</time>
      </trkpt>
      <trkpt lat="45.96152" lon="5.56821">
        <ele>705.2</ele>
        <time>2026-05-11T09:09:44Z</time>
      </trkpt>
      <trkpt lat="45.96155" lon="5.56824">
        <ele>705.6</ele>
        <time>2026-05-11T09:09:45Z</time>
      </trkpt>
      <trkpt lat="45.96157" lon="5.56827">
        <ele>705.6</ele>
        <time>2026-05-11T09:09:46Z</time>
      </trkpt>
      <trkpt lat="45.9616" lon="5.56829">
        <ele>705.6</ele>
        <time>2026-05-11T09:09:47Z</time>
      </trkpt>
      <trkpt lat="45.96162" lon="5.5683">
        <ele>706</ele>
        <time>2026-05-11T09:09:48Z</time>
      </trkpt>
      <trkpt lat="45.96163" lon="5.56832">
        <ele>706</ele>
        <time>2026-05-11T09:09:49Z</time>
      </trkpt>
      <trkpt lat="45.96165" lon="5.56834">
        <ele>706.2</ele>
        <time>2026-05-11T09:09:50Z</time>
      </trkpt>
      <trkpt lat="45.96168" lon="5.56835">
        <ele>706.4</ele>
        <time>2026-05-11T09:09:51Z</time>
      </trkpt>
      <trkpt lat="45.9617" lon="5.56837">
        <ele>706.4</ele>
        <time>2026-05-11T09:09:52Z</time>
      </trkpt>
      <trkpt lat="45.96172" lon="5.56839">
        <ele>706.8</ele>
        <time>2026-05-11T09:09:53Z</time>
      </trkpt>
      <trkpt lat="45.96175" lon="5.56841">
        <ele>706.8</ele>
        <time>2026-05-11T09:09:54Z</time>
      </trkpt>
      <trkpt lat="45.96178" lon="5.56843">
        <ele>707</ele>
        <time>2026-05-11T09:09:55Z</time>
      </trkpt>
      <trkpt lat="45.96179" lon="5.56844">
        <ele>707</ele>
        <time>2026-05-11T09:09:56Z</time>
      </trkpt>
      <trkpt lat="45.96181" lon="5.56845">
        <ele>707.2</ele>
        <time>2026-05-11T09:09:57Z</time>
      </trkpt>
      <trkpt lat="45.96183" lon="5.56847">
        <ele>707.2</ele>
        <time>2026-05-11T09:09:58Z</time>
      </trkpt>
      <trkpt lat="45.96186" lon="5.56849">
        <ele>707.6</ele>
        <time>2026-05-11T09:09:59Z</time>
      </trkpt>
      <trkpt lat="45.96188" lon="5.56851">
        <ele>707.6</ele>
        <time>2026-05-11T09:10:00Z</time>
      </trkpt>
      <trkpt lat="45.96191" lon="5.56852">
        <ele>708</ele>
        <time>2026-05-11T09:10:01Z</time>
      </trkpt>
      <trkpt lat="45.96193" lon="5.56854">
        <ele>708</ele>
        <time>2026-05-11T09:10:02Z</time>
      </trkpt>
      <trkpt lat="45.96195" lon="5.56855">
        <ele>708.2</ele>
        <time>2026-05-11T09:10:03Z</time>
      </trkpt>
      <trkpt lat="45.96197" lon="5.56857">
        <ele>708.2</ele>
        <time>2026-05-11T09:10:04Z</time>
      </trkpt>
      <trkpt lat="45.96199" lon="5.56858">
        <ele>708.4</ele>
        <time>2026-05-11T09:10:05Z</time>
      </trkpt>
      <trkpt lat="45.96201" lon="5.5686">
        <ele>708.4</ele>
        <time>2026-05-11T09:10:06Z</time>
      </trkpt>
      <trkpt lat="45.96203" lon="5.56861">
        <ele>708.8</ele>
        <time>2026-05-11T09:10:07Z</time>
      </trkpt>
      <trkpt lat="45.96205" lon="5.56862">
        <ele>708.8</ele>
        <time>2026-05-11T09:10:08Z</time>
      </trkpt>
      <trkpt lat="45.96207" lon="5.56864">
        <ele>708.8</ele>
        <time>2026-05-11T09:10:09Z</time>
      </trkpt>
      <trkpt lat="45.96209" lon="5.56866">
        <ele>709</ele>
        <time>2026-05-11T09:10:10Z</time>
      </trkpt>
      <trkpt lat="45.96211" lon="5.56867">
        <ele>709.2</ele>
        <time>2026-05-11T09:10:11Z</time>
      </trkpt>
      <trkpt lat="45.96212" lon="5.56868">
        <ele>709.2</ele>
        <time>2026-05-11T09:10:12Z</time>
      </trkpt>
      <trkpt lat="45.96214" lon="5.5687">
        <ele>709.6</ele>
        <time>2026-05-11T09:10:13Z</time>
      </trkpt>
      <trkpt lat="45.96217" lon="5.56872">
        <ele>709.6</ele>
        <time>2026-05-11T09:10:14Z</time>
      </trkpt>
      <trkpt lat="45.96219" lon="5.56873">
        <ele>709.6</ele>
        <time>2026-05-11T09:10:15Z</time>
      </trkpt>
      <trkpt lat="45.96221" lon="5.56875">
        <ele>709.8</ele>
        <time>2026-05-11T09:10:16Z</time>
      </trkpt>
      <trkpt lat="45.96223" lon="5.56876">
        <ele>709.8</ele>
        <time>2026-05-11T09:10:17Z</time>
      </trkpt>
      <trkpt lat="45.96226" lon="5.56877">
        <ele>709.8</ele>
        <time>2026-05-11T09:10:18Z</time>
      </trkpt>
      <trkpt lat="45.96228" lon="5.56877">
        <ele>709.8</ele>
        <time>2026-05-11T09:10:19Z</time>
      </trkpt>
      <trkpt lat="45.9623" lon="5.56878">
        <ele>710.2</ele>
        <time>2026-05-11T09:10:20Z</time>
      </trkpt>
      <trkpt lat="45.96235" lon="5.56881">
        <ele>710.2</ele>
        <time>2026-05-11T09:10:21Z</time>
      </trkpt>
      <trkpt lat="45.96238" lon="5.56883">
        <ele>710.2</ele>
        <time>2026-05-11T09:10:22Z</time>
      </trkpt>
      <trkpt lat="45.9624" lon="5.56884">
        <ele>710.4</ele>
        <time>2026-05-11T09:10:23Z</time>
      </trkpt>
      <trkpt lat="45.96242" lon="5.56886">
        <ele>710.4</ele>
        <time>2026-05-11T09:10:24Z</time>
      </trkpt>
      <trkpt lat="45.96245" lon="5.56887">
        <ele>710.8</ele>
        <time>2026-05-11T09:10:25Z</time>
      </trkpt>
      <trkpt lat="45.96248" lon="5.56888">
        <ele>710.8</ele>
        <time>2026-05-11T09:10:26Z</time>
      </trkpt>
      <trkpt lat="45.9625" lon="5.5689">
        <ele>711.2</ele>
        <time>2026-05-11T09:10:27Z</time>
      </trkpt>
      <trkpt lat="45.96252" lon="5.56891">
        <ele>711.2</ele>
        <time>2026-05-11T09:10:28Z</time>
      </trkpt>
      <trkpt lat="45.96254" lon="5.56891">
        <ele>711.4</ele>
        <time>2026-05-11T09:10:29Z</time>
      </trkpt>
      <trkpt lat="45.96256" lon="5.56892">
        <ele>711.4</ele>
        <time>2026-05-11T09:10:30Z</time>
      </trkpt>
      <trkpt lat="45.96258" lon="5.56893">
        <ele>711.6</ele>
        <time>2026-05-11T09:10:31Z</time>
      </trkpt>
      <trkpt lat="45.96261" lon="5.56893">
        <ele>711.6</ele>
        <time>2026-05-11T09:10:32Z</time>
      </trkpt>
      <trkpt lat="45.96263" lon="5.56894">
        <ele>711.6</ele>
        <time>2026-05-11T09:10:33Z</time>
      </trkpt>
      <trkpt lat="45.96265" lon="5.56895">
        <ele>712</ele>
        <time>2026-05-11T09:10:34Z</time>
      </trkpt>
      <trkpt lat="45.96268" lon="5.56897">
        <ele>712.2</ele>
        <time>2026-05-11T09:10:35Z</time>
      </trkpt>
      <trkpt lat="45.9627" lon="5.56898">
        <ele>712.2</ele>
        <time>2026-05-11T09:10:36Z</time>
      </trkpt>
      <trkpt lat="45.96272" lon="5.56899">
        <ele>712.4</ele>
        <time>2026-05-11T09:10:37Z</time>
      </trkpt>
      <trkpt lat="45.96274" lon="5.569">
        <ele>712.4</ele>
        <time>2026-05-11T09:10:38Z</time>
      </trkpt>
      <trkpt lat="45.96277" lon="5.56901">
        <ele>712.6</ele>
        <time>2026-05-11T09:10:39Z</time>
      </trkpt>
      <trkpt lat="45.96279" lon="5.56902">
        <ele>712.8</ele>
        <time>2026-05-11T09:10:40Z</time>
      </trkpt>
      <trkpt lat="45.96282" lon="5.56903">
        <ele>713</ele>
        <time>2026-05-11T09:10:41Z</time>
      </trkpt>
      <trkpt lat="45.96284" lon="5.56904">
        <ele>713</ele>
        <time>2026-05-11T09:10:42Z</time>
      </trkpt>
      <trkpt lat="45.96286" lon="5.56905">
        <ele>713.4</ele>
        <time>2026-05-11T09:10:43Z</time>
      </trkpt>
      <trkpt lat="45.96289" lon="5.56906">
        <ele>713.6</ele>
        <time>2026-05-11T09:10:44Z</time>
      </trkpt>
      <trkpt lat="45.96291" lon="5.56906">
        <ele>713.6</ele>
        <time>2026-05-11T09:10:45Z</time>
      </trkpt>
      <trkpt lat="45.96293" lon="5.56907">
        <ele>714</ele>
        <time>2026-05-11T09:10:46Z</time>
      </trkpt>
      <trkpt lat="45.96296" lon="5.56908">
        <ele>714</ele>
        <time>2026-05-11T09:10:47Z</time>
      </trkpt>
      <trkpt lat="45.96298" lon="5.56909">
        <ele>714</ele>
        <time>2026-05-11T09:10:48Z</time>
      </trkpt>
      <trkpt lat="45.963" lon="5.56909">
        <ele>714</ele>
        <time>2026-05-11T09:10:49Z</time>
      </trkpt>
      <trkpt lat="45.96303" lon="5.56909">
        <ele>714.2</ele>
        <time>2026-05-11T09:10:50Z</time>
      </trkpt>
      <trkpt lat="45.96305" lon="5.56909">
        <ele>714.2</ele>
        <time>2026-05-11T09:10:51Z</time>
      </trkpt>
      <trkpt lat="45.96306" lon="5.56908">
        <ele>714.6</ele>
        <time>2026-05-11T09:10:52Z</time>
      </trkpt>
      <trkpt lat="45.96308" lon="5.56908">
        <ele>714.6</ele>
        <time>2026-05-11T09:10:53Z</time>
      </trkpt>
      <trkpt lat="45.96311" lon="5.56908">
        <ele>714.6</ele>
        <time>2026-05-11T09:10:54Z</time>
      </trkpt>
      <trkpt lat="45.96313" lon="5.56909">
        <ele>714.8</ele>
        <time>2026-05-11T09:10:55Z</time>
      </trkpt>
      <trkpt lat="45.96316" lon="5.5691">
        <ele>714.8</ele>
        <time>2026-05-11T09:10:56Z</time>
      </trkpt>
      <trkpt lat="45.96318" lon="5.56911">
        <ele>715</ele>
        <time>2026-05-11T09:10:57Z</time>
      </trkpt>
      <trkpt lat="45.96321" lon="5.56912">
        <ele>715</ele>
        <time>2026-05-11T09:10:58Z</time>
      </trkpt>
      <trkpt lat="45.96323" lon="5.56913">
        <ele>715.2</ele>
        <time>2026-05-11T09:10:59Z</time>
      </trkpt>
      <trkpt lat="45.96325" lon="5.56913">
        <ele>715.2</ele>
        <time>2026-05-11T09:11:00Z</time>
      </trkpt>
      <trkpt lat="45.96326" lon="5.56912">
        <ele>715.8</ele>
        <time>2026-05-11T09:11:01Z</time>
      </trkpt>
      <trkpt lat="45.96328" lon="5.56912">
        <ele>715.8</ele>
        <time>2026-05-11T09:11:02Z</time>
      </trkpt>
      <trkpt lat="45.96331" lon="5.56911">
        <ele>716</ele>
        <time>2026-05-11T09:11:03Z</time>
      </trkpt>
      <trkpt lat="45.96333" lon="5.56909">
        <ele>716</ele>
        <time>2026-05-11T09:11:04Z</time>
      </trkpt>
      <trkpt lat="45.96335" lon="5.56908">
        <ele>716.2</ele>
        <time>2026-05-11T09:11:05Z</time>
      </trkpt>
      <trkpt lat="45.96337" lon="5.56908">
        <ele>716.2</ele>
        <time>2026-05-11T09:11:06Z</time>
      </trkpt>
      <trkpt lat="45.9634" lon="5.56908">
        <ele>716.6</ele>
        <time>2026-05-11T09:11:07Z</time>
      </trkpt>
      <trkpt lat="45.96342" lon="5.56909">
        <ele>716.6</ele>
        <time>2026-05-11T09:11:08Z</time>
      </trkpt>
      <trkpt lat="45.96345" lon="5.5691">
        <ele>716.6</ele>
        <time>2026-05-11T09:11:09Z</time>
      </trkpt>
      <trkpt lat="45.96348" lon="5.56911">
        <ele>716.8</ele>
        <time>2026-05-11T09:11:10Z</time>
      </trkpt>
      <trkpt lat="45.9635" lon="5.56912">
        <ele>716.8</ele>
        <time>2026-05-11T09:11:11Z</time>
      </trkpt>
      <trkpt lat="45.96353" lon="5.56911">
        <ele>717</ele>
        <time>2026-05-11T09:11:12Z</time>
      </trkpt>
      <trkpt lat="45.96355" lon="5.5691">
        <ele>717.4</ele>
        <time>2026-05-11T09:11:13Z</time>
      </trkpt>
      <trkpt lat="45.96358" lon="5.56909">
        <ele>717.4</ele>
        <time>2026-05-11T09:11:14Z</time>
      </trkpt>
      <trkpt lat="45.9636" lon="5.56909">
        <ele>717.4</ele>
        <time>2026-05-11T09:11:15Z</time>
      </trkpt>
      <trkpt lat="45.96363" lon="5.56909">
        <ele>717.4</ele>
        <time>2026-05-11T09:11:16Z</time>
      </trkpt>
      <trkpt lat="45.96365" lon="5.56909">
        <ele>717.6</ele>
        <time>2026-05-11T09:11:17Z</time>
      </trkpt>
      <trkpt lat="45.96368" lon="5.5691">
        <ele>717.6</ele>
        <time>2026-05-11T09:11:18Z</time>
      </trkpt>
      <trkpt lat="45.9637" lon="5.5691">
        <ele>718</ele>
        <time>2026-05-11T09:11:19Z</time>
      </trkpt>
      <trkpt lat="45.96373" lon="5.56911">
        <ele>718</ele>
        <time>2026-05-11T09:11:20Z</time>
      </trkpt>
      <trkpt lat="45.96376" lon="5.56912">
        <ele>718</ele>
        <time>2026-05-11T09:11:21Z</time>
      </trkpt>
      <trkpt lat="45.96379" lon="5.56913">
        <ele>718.4</ele>
        <time>2026-05-11T09:11:22Z</time>
      </trkpt>
      <trkpt lat="45.96381" lon="5.56914">
        <ele>718.4</ele>
        <time>2026-05-11T09:11:23Z</time>
      </trkpt>
      <trkpt lat="45.96384" lon="5.56915">
        <ele>718.4</ele>
        <time>2026-05-11T09:11:24Z</time>
      </trkpt>
      <trkpt lat="45.96387" lon="5.56916">
        <ele>718.4</ele>
        <time>2026-05-11T09:11:25Z</time>
      </trkpt>
      <trkpt lat="45.96389" lon="5.56916">
        <ele>718.6</ele>
        <time>2026-05-11T09:11:26Z</time>
      </trkpt>
      <trkpt lat="45.96391" lon="5.56917">
        <ele>718.6</ele>
        <time>2026-05-11T09:11:27Z</time>
      </trkpt>
      <trkpt lat="45.96393" lon="5.56918">
        <ele>719</ele>
        <time>2026-05-11T09:11:28Z</time>
      </trkpt>
      <trkpt lat="45.96395" lon="5.56918">
        <ele>719</ele>
        <time>2026-05-11T09:11:29Z</time>
      </trkpt>
      <trkpt lat="45.96398" lon="5.5692">
        <ele>719.4</ele>
        <time>2026-05-11T09:11:30Z</time>
      </trkpt>
      <trkpt lat="45.96401" lon="5.56921">
        <ele>719.4</ele>
        <time>2026-05-11T09:11:31Z</time>
      </trkpt>
      <trkpt lat="45.96403" lon="5.56922">
        <ele>719.6</ele>
        <time>2026-05-11T09:11:32Z</time>
      </trkpt>
      <trkpt lat="45.96405" lon="5.56923">
        <ele>719.6</ele>
        <time>2026-05-11T09:11:33Z</time>
      </trkpt>
      <trkpt lat="45.96408" lon="5.56924">
        <ele>719.8</ele>
        <time>2026-05-11T09:11:34Z</time>
      </trkpt>
      <trkpt lat="45.9641" lon="5.56925">
        <ele>719.8</ele>
        <time>2026-05-11T09:11:35Z</time>
      </trkpt>
      <trkpt lat="45.96412" lon="5.56925">
        <ele>719.8</ele>
        <time>2026-05-11T09:11:36Z</time>
      </trkpt>
      <trkpt lat="45.96414" lon="5.56925">
        <ele>720.2</ele>
        <time>2026-05-11T09:11:37Z</time>
      </trkpt>
      <trkpt lat="45.96416" lon="5.56925">
        <ele>720.4</ele>
        <time>2026-05-11T09:11:38Z</time>
      </trkpt>
      <trkpt lat="45.96418" lon="5.56925">
        <ele>720.4</ele>
        <time>2026-05-11T09:11:39Z</time>
      </trkpt>
      <trkpt lat="45.9642" lon="5.56925">
        <ele>720.6</ele>
        <time>2026-05-11T09:11:40Z</time>
      </trkpt>
      <trkpt lat="45.96423" lon="5.56926">
        <ele>720.6</ele>
        <time>2026-05-11T09:11:41Z</time>
      </trkpt>
      <trkpt lat="45.96425" lon="5.56926">
        <ele>721</ele>
        <time>2026-05-11T09:11:42Z</time>
      </trkpt>
      <trkpt lat="45.96427" lon="5.56927">
        <ele>721.2</ele>
        <time>2026-05-11T09:11:43Z</time>
      </trkpt>
      <trkpt lat="45.96429" lon="5.56927">
        <ele>721.2</ele>
        <time>2026-05-11T09:11:44Z</time>
      </trkpt>
      <trkpt lat="45.9643" lon="5.56926">
        <ele>721.4</ele>
        <time>2026-05-11T09:11:45Z</time>
      </trkpt>
      <trkpt lat="45.96432" lon="5.56927">
        <ele>721.6</ele>
        <time>2026-05-11T09:11:46Z</time>
      </trkpt>
      <trkpt lat="45.96434" lon="5.56927">
        <ele>721.6</ele>
        <time>2026-05-11T09:11:47Z</time>
      </trkpt>
      <trkpt lat="45.96437" lon="5.56928">
        <ele>721.8</ele>
        <time>2026-05-11T09:11:48Z</time>
      </trkpt>
      <trkpt lat="45.96439" lon="5.56929">
        <ele>722</ele>
        <time>2026-05-11T09:11:49Z</time>
      </trkpt>
      <trkpt lat="45.96442" lon="5.5693">
        <ele>722</ele>
        <time>2026-05-11T09:11:50Z</time>
      </trkpt>
      <trkpt lat="45.96444" lon="5.5693">
        <ele>722.4</ele>
        <time>2026-05-11T09:11:51Z</time>
      </trkpt>
      <trkpt lat="45.96447" lon="5.56932">
        <ele>722.4</ele>
        <time>2026-05-11T09:11:52Z</time>
      </trkpt>
      <trkpt lat="45.96449" lon="5.56933">
        <ele>722.6</ele>
        <time>2026-05-11T09:11:53Z</time>
      </trkpt>
      <trkpt lat="45.96451" lon="5.56934">
        <ele>722.6</ele>
        <time>2026-05-11T09:11:54Z</time>
      </trkpt>
      <trkpt lat="45.96454" lon="5.56935">
        <ele>722.8</ele>
        <time>2026-05-11T09:11:55Z</time>
      </trkpt>
      <trkpt lat="45.96456" lon="5.56936">
        <ele>722.8</ele>
        <time>2026-05-11T09:11:56Z</time>
      </trkpt>
      <trkpt lat="45.96458" lon="5.56937">
        <ele>723.2</ele>
        <time>2026-05-11T09:11:57Z</time>
      </trkpt>
      <trkpt lat="45.9646" lon="5.56938">
        <ele>723.2</ele>
        <time>2026-05-11T09:11:58Z</time>
      </trkpt>
      <trkpt lat="45.96461" lon="5.56938">
        <ele>723.4</ele>
        <time>2026-05-11T09:11:59Z</time>
      </trkpt>
      <trkpt lat="45.96462" lon="5.56937">
        <ele>723.6</ele>
        <time>2026-05-11T09:12:00Z</time>
      </trkpt>
      <trkpt lat="45.96464" lon="5.56936">
        <ele>723.6</ele>
        <time>2026-05-11T09:12:01Z</time>
      </trkpt>
      <trkpt lat="45.96466" lon="5.56935">
        <ele>724</ele>
        <time>2026-05-11T09:12:02Z</time>
      </trkpt>
      <trkpt lat="45.96468" lon="5.56934">
        <ele>724.2</ele>
        <time>2026-05-11T09:12:03Z</time>
      </trkpt>
      <trkpt lat="45.9647" lon="5.56933">
        <ele>724.2</ele>
        <time>2026-05-11T09:12:04Z</time>
      </trkpt>
      <trkpt lat="45.96473" lon="5.56932">
        <ele>724.6</ele>
        <time>2026-05-11T09:12:05Z</time>
      </trkpt>
      <trkpt lat="45.96475" lon="5.56931">
        <ele>724.8</ele>
        <time>2026-05-11T09:12:06Z</time>
      </trkpt>
      <trkpt lat="45.96477" lon="5.5693">
        <ele>725</ele>
        <time>2026-05-11T09:12:07Z</time>
      </trkpt>
      <trkpt lat="45.96478" lon="5.56928">
        <ele>725</ele>
        <time>2026-05-11T09:12:08Z</time>
      </trkpt>
      <trkpt lat="45.9648" lon="5.56926">
        <ele>725</ele>
        <time>2026-05-11T09:12:09Z</time>
      </trkpt>
      <trkpt lat="45.96482" lon="5.56924">
        <ele>725</ele>
        <time>2026-05-11T09:12:10Z</time>
      </trkpt>
      <trkpt lat="45.96484" lon="5.56922">
        <ele>725.2</ele>
        <time>2026-05-11T09:12:11Z</time>
      </trkpt>
      <trkpt lat="45.96486" lon="5.5692">
        <ele>725.2</ele>
        <time>2026-05-11T09:12:12Z</time>
      </trkpt>
      <trkpt lat="45.96488" lon="5.56918">
        <ele>725.2</ele>
        <time>2026-05-11T09:12:13Z</time>
      </trkpt>
      <trkpt lat="45.9649" lon="5.56916">
        <ele>725.6</ele>
        <time>2026-05-11T09:12:14Z</time>
      </trkpt>
      <trkpt lat="45.96492" lon="5.56913">
        <ele>725.6</ele>
        <time>2026-05-11T09:12:15Z</time>
      </trkpt>
      <trkpt lat="45.96494" lon="5.56911">
        <ele>725.6</ele>
        <time>2026-05-11T09:12:16Z</time>
      </trkpt>
      <trkpt lat="45.96496" lon="5.56909">
        <ele>725.8</ele>
        <time>2026-05-11T09:12:17Z</time>
      </trkpt>
      <trkpt lat="45.96498" lon="5.56907">
        <ele>726</ele>
        <time>2026-05-11T09:12:18Z</time>
      </trkpt>
      <trkpt lat="45.965" lon="5.56904">
        <ele>726</ele>
        <time>2026-05-11T09:12:19Z</time>
      </trkpt>
      <trkpt lat="45.96501" lon="5.56902">
        <ele>726.4</ele>
        <time>2026-05-11T09:12:20Z</time>
      </trkpt>
      <trkpt lat="45.96503" lon="5.569">
        <ele>726.4</ele>
        <time>2026-05-11T09:12:21Z</time>
      </trkpt>
      <trkpt lat="45.96505" lon="5.56898">
        <ele>726.8</ele>
        <time>2026-05-11T09:12:22Z</time>
      </trkpt>
      <trkpt lat="45.96507" lon="5.56896">
        <ele>726.8</ele>
        <time>2026-05-11T09:12:23Z</time>
      </trkpt>
      <trkpt lat="45.96509" lon="5.56894">
        <ele>727.2</ele>
        <time>2026-05-11T09:12:24Z</time>
      </trkpt>
      <trkpt lat="45.96511" lon="5.56892">
        <ele>727.2</ele>
        <time>2026-05-11T09:12:25Z</time>
      </trkpt>
      <trkpt lat="45.96512" lon="5.5689">
        <ele>727.4</ele>
        <time>2026-05-11T09:12:26Z</time>
      </trkpt>
      <trkpt lat="45.96514" lon="5.56888">
        <ele>727.4</ele>
        <time>2026-05-11T09:12:27Z</time>
      </trkpt>
      <trkpt lat="45.96515" lon="5.56886">
        <ele>727.4</ele>
        <time>2026-05-11T09:12:28Z</time>
      </trkpt>
      <trkpt lat="45.96517" lon="5.56885">
        <ele>727.4</ele>
        <time>2026-05-11T09:12:29Z</time>
      </trkpt>
      <trkpt lat="45.96518" lon="5.56884">
        <ele>727.4</ele>
        <time>2026-05-11T09:12:30Z</time>
      </trkpt>
      <trkpt lat="45.9652" lon="5.56882">
        <ele>727.8</ele>
        <time>2026-05-11T09:12:31Z</time>
      </trkpt>
      <trkpt lat="45.96522" lon="5.56881">
        <ele>728</ele>
        <time>2026-05-11T09:12:32Z</time>
      </trkpt>
      <trkpt lat="45.96524" lon="5.5688">
        <ele>728.4</ele>
        <time>2026-05-11T09:12:33Z</time>
      </trkpt>
      <trkpt lat="45.96526" lon="5.56878">
        <ele>728.4</ele>
        <time>2026-05-11T09:12:34Z</time>
      </trkpt>
      <trkpt lat="45.96529" lon="5.56876">
        <ele>728.4</ele>
        <time>2026-05-11T09:12:35Z</time>
      </trkpt>
      <trkpt lat="45.96531" lon="5.56875">
        <ele>728.8</ele>
        <time>2026-05-11T09:12:36Z</time>
      </trkpt>
      <trkpt lat="45.96534" lon="5.56874">
        <ele>729.2</ele>
        <time>2026-05-11T09:12:37Z</time>
      </trkpt>
      <trkpt lat="45.96536" lon="5.56873">
        <ele>729.4</ele>
        <time>2026-05-11T09:12:38Z</time>
      </trkpt>
      <trkpt lat="45.96538" lon="5.56872">
        <ele>729.4</ele>
        <time>2026-05-11T09:12:39Z</time>
      </trkpt>
      <trkpt lat="45.96541" lon="5.56871">
        <ele>729.8</ele>
        <time>2026-05-11T09:12:40Z</time>
      </trkpt>
      <trkpt lat="45.96543" lon="5.56871">
        <ele>729.8</ele>
        <time>2026-05-11T09:12:41Z</time>
      </trkpt>
      <trkpt lat="45.96546" lon="5.5687">
        <ele>730</ele>
        <time>2026-05-11T09:12:42Z</time>
      </trkpt>
      <trkpt lat="45.96548" lon="5.56871">
        <ele>730</ele>
        <time>2026-05-11T09:12:43Z</time>
      </trkpt>
      <trkpt lat="45.9655" lon="5.56871">
        <ele>730.4</ele>
        <time>2026-05-11T09:12:44Z</time>
      </trkpt>
      <trkpt lat="45.96553" lon="5.56871">
        <ele>730.4</ele>
        <time>2026-05-11T09:12:45Z</time>
      </trkpt>
      <trkpt lat="45.96555" lon="5.5687">
        <ele>730.8</ele>
        <time>2026-05-11T09:12:46Z</time>
      </trkpt>
      <trkpt lat="45.96557" lon="5.5687">
        <ele>731</ele>
        <time>2026-05-11T09:12:47Z</time>
      </trkpt>
      <trkpt lat="45.96559" lon="5.5687">
        <ele>731.4</ele>
        <time>2026-05-11T09:12:48Z</time>
      </trkpt>
      <trkpt lat="45.96562" lon="5.56871">
        <ele>731.4</ele>
        <time>2026-05-11T09:12:49Z</time>
      </trkpt>
      <trkpt lat="45.96564" lon="5.56872">
        <ele>731.6</ele>
        <time>2026-05-11T09:12:50Z</time>
      </trkpt>
      <trkpt lat="45.96567" lon="5.56873">
        <ele>731.6</ele>
        <time>2026-05-11T09:12:51Z</time>
      </trkpt>
      <trkpt lat="45.96569" lon="5.56875">
        <ele>732</ele>
        <time>2026-05-11T09:12:52Z</time>
      </trkpt>
      <trkpt lat="45.96571" lon="5.56877">
        <ele>732</ele>
        <time>2026-05-11T09:12:53Z</time>
      </trkpt>
      <trkpt lat="45.96573" lon="5.56879">
        <ele>732</ele>
        <time>2026-05-11T09:12:54Z</time>
      </trkpt>
      <trkpt lat="45.96575" lon="5.56882">
        <ele>732.2</ele>
        <time>2026-05-11T09:12:55Z</time>
      </trkpt>
      <trkpt lat="45.96577" lon="5.56884">
        <ele>732.2</ele>
        <time>2026-05-11T09:12:56Z</time>
      </trkpt>
      <trkpt lat="45.96578" lon="5.56888">
        <ele>732.4</ele>
        <time>2026-05-11T09:12:57Z</time>
      </trkpt>
      <trkpt lat="45.96579" lon="5.56891">
        <ele>732.4</ele>
        <time>2026-05-11T09:12:58Z</time>
      </trkpt>
      <trkpt lat="45.9658" lon="5.56894">
        <ele>732.4</ele>
        <time>2026-05-11T09:12:59Z</time>
      </trkpt>
      <trkpt lat="45.96581" lon="5.56898">
        <ele>732.8</ele>
        <time>2026-05-11T09:13:00Z</time>
      </trkpt>
      <trkpt lat="45.96581" lon="5.56901">
        <ele>732.8</ele>
        <time>2026-05-11T09:13:01Z</time>
      </trkpt>
      <trkpt lat="45.96582" lon="5.56905">
        <ele>733</ele>
        <time>2026-05-11T09:13:02Z</time>
      </trkpt>
      <trkpt lat="45.96582" lon="5.56908">
        <ele>733</ele>
        <time>2026-05-11T09:13:03Z</time>
      </trkpt>
      <trkpt lat="45.96583" lon="5.56911">
        <ele>733.2</ele>
        <time>2026-05-11T09:13:04Z</time>
      </trkpt>
      <trkpt lat="45.96583" lon="5.56915">
        <ele>733.2</ele>
        <time>2026-05-11T09:13:05Z</time>
      </trkpt>
      <trkpt lat="45.96583" lon="5.56919">
        <ele>733.6</ele>
        <time>2026-05-11T09:13:06Z</time>
      </trkpt>
      <trkpt lat="45.96583" lon="5.56923">
        <ele>733.6</ele>
        <time>2026-05-11T09:13:07Z</time>
      </trkpt>
      <trkpt lat="45.96582" lon="5.56926">
        <ele>733.6</ele>
        <time>2026-05-11T09:13:08Z</time>
      </trkpt>
      <trkpt lat="45.96582" lon="5.5693">
        <ele>733.8</ele>
        <time>2026-05-11T09:13:09Z</time>
      </trkpt>
      <trkpt lat="45.96582" lon="5.56933">
        <ele>733.8</ele>
        <time>2026-05-11T09:13:10Z</time>
      </trkpt>
      <trkpt lat="45.96581" lon="5.56937">
        <ele>733.8</ele>
        <time>2026-05-11T09:13:11Z</time>
      </trkpt>
      <trkpt lat="45.96581" lon="5.5694">
        <ele>734.2</ele>
        <time>2026-05-11T09:13:12Z</time>
      </trkpt>
      <trkpt lat="45.96581" lon="5.56944">
        <ele>734.2</ele>
        <time>2026-05-11T09:13:13Z</time>
      </trkpt>
      <trkpt lat="45.9658" lon="5.56947">
        <ele>734.2</ele>
        <time>2026-05-11T09:13:14Z</time>
      </trkpt>
      <trkpt lat="45.96579" lon="5.56952">
        <ele>734.6</ele>
        <time>2026-05-11T09:13:15Z</time>
      </trkpt>
      <trkpt lat="45.96579" lon="5.56955">
        <ele>734.6</ele>
        <time>2026-05-11T09:13:16Z</time>
      </trkpt>
      <trkpt lat="45.96578" lon="5.56959">
        <ele>734.6</ele>
        <time>2026-05-11T09:13:17Z</time>
      </trkpt>
      <trkpt lat="45.96577" lon="5.56963">
        <ele>734.8</ele>
        <time>2026-05-11T09:13:18Z</time>
      </trkpt>
      <trkpt lat="45.96577" lon="5.56967">
        <ele>734.8</ele>
        <time>2026-05-11T09:13:19Z</time>
      </trkpt>
      <trkpt lat="45.96576" lon="5.5697">
        <ele>734.8</ele>
        <time>2026-05-11T09:13:20Z</time>
      </trkpt>
      <trkpt lat="45.96575" lon="5.56974">
        <ele>735.2</ele>
        <time>2026-05-11T09:13:21Z</time>
      </trkpt>
      <trkpt lat="45.96575" lon="5.56978">
        <ele>735.2</ele>
        <time>2026-05-11T09:13:22Z</time>
      </trkpt>
      <trkpt lat="45.96575" lon="5.56982">
        <ele>735.2</ele>
        <time>2026-05-11T09:13:23Z</time>
      </trkpt>
      <trkpt lat="45.96574" lon="5.56985">
        <ele>735.6</ele>
        <time>2026-05-11T09:13:24Z</time>
      </trkpt>
      <trkpt lat="45.96574" lon="5.56987">
        <ele>735.8</ele>
        <time>2026-05-11T09:13:25Z</time>
      </trkpt>
      <trkpt lat="45.96574" lon="5.56989">
        <ele>736</ele>
        <time>2026-05-11T09:13:26Z</time>
      </trkpt>
      <trkpt lat="45.96574" lon="5.56991">
        <ele>736.4</ele>
        <time>2026-05-11T09:13:27Z</time>
      </trkpt>
      <trkpt lat="45.96574" lon="5.56994">
        <ele>736.4</ele>
        <time>2026-05-11T09:13:28Z</time>
      </trkpt>
      <trkpt lat="45.96575" lon="5.56997">
        <ele>736.4</ele>
        <time>2026-05-11T09:13:29Z</time>
      </trkpt>
      <trkpt lat="45.96576" lon="5.56998">
        <ele>736.4</ele>
        <time>2026-05-11T09:13:30Z</time>
      </trkpt>
      <trkpt lat="45.96578" lon="5.56998">
        <ele>736.4</ele>
        <time>2026-05-11T09:13:31Z</time>
      </trkpt>
      <trkpt lat="45.96579" lon="5.56998">
        <ele>736.4</ele>
        <time>2026-05-11T09:13:32Z</time>
      </trkpt>
      <trkpt lat="45.96579" lon="5.56998">
        <ele>736.4</ele>
        <time>2026-05-11T09:13:33Z</time>
      </trkpt>
      <trkpt lat="45.9658" lon="5.56997">
        <ele>736.4</ele>
        <time>2026-05-11T09:13:34Z</time>
      </trkpt>
      <trkpt lat="45.96581" lon="5.56995">
        <ele>736.4</ele>
        <time>2026-05-11T09:13:35Z</time>
      </trkpt>
      <trkpt lat="45.96582" lon="5.56992">
        <ele>736.2</ele>
        <time>2026-05-11T09:13:36Z</time>
      </trkpt>
      <trkpt lat="45.96582" lon="5.5699">
        <ele>736.2</ele>
        <time>2026-05-11T09:13:37Z</time>
      </trkpt>
      <trkpt lat="45.96583" lon="5.56987">
        <ele>735.6</ele>
        <time>2026-05-11T09:13:38Z</time>
      </trkpt>
      <trkpt lat="45.96584" lon="5.56983">
        <ele>735.2</ele>
        <time>2026-05-11T09:13:39Z</time>
      </trkpt>
      <trkpt lat="45.96586" lon="5.5698">
        <ele>734.8</ele>
        <time>2026-05-11T09:13:40Z</time>
      </trkpt>
      <trkpt lat="45.96587" lon="5.56977">
        <ele>734.8</ele>
        <time>2026-05-11T09:13:41Z</time>
      </trkpt>
      <trkpt lat="45.96589" lon="5.56974">
        <ele>734.4</ele>
        <time>2026-05-11T09:13:42Z</time>
      </trkpt>
      <trkpt lat="45.96591" lon="5.56972">
        <ele>734</ele>
        <time>2026-05-11T09:13:43Z</time>
      </trkpt>
      <trkpt lat="45.96592" lon="5.5697">
        <ele>733.6</ele>
        <time>2026-05-11T09:13:44Z</time>
      </trkpt>
      <trkpt lat="45.96594" lon="5.56969">
        <ele>732.6</ele>
        <time>2026-05-11T09:13:45Z</time>
      </trkpt>
      <trkpt lat="45.96596" lon="5.56968">
        <ele>732.2</ele>
        <time>2026-05-11T09:13:46Z</time>
      </trkpt>
      <trkpt lat="45.96598" lon="5.56967">
        <ele>732.2</ele>
        <time>2026-05-11T09:13:47Z</time>
      </trkpt>
      <trkpt lat="45.96601" lon="5.56966">
        <ele>732</ele>
        <time>2026-05-11T09:13:48Z</time>
      </trkpt>
      <trkpt lat="45.96602" lon="5.56966">
        <ele>731.6</ele>
        <time>2026-05-11T09:13:49Z</time>
      </trkpt>
      <trkpt lat="45.96604" lon="5.56964">
        <ele>731.2</ele>
        <time>2026-05-11T09:13:50Z</time>
      </trkpt>
      <trkpt lat="45.96607" lon="5.5696">
        <ele>731.2</ele>
        <time>2026-05-11T09:13:51Z</time>
      </trkpt>
      <trkpt lat="45.96608" lon="5.56956">
        <ele>730.8</ele>
        <time>2026-05-11T09:13:52Z</time>
      </trkpt>
      <trkpt lat="45.96609" lon="5.56952">
        <ele>730.6</ele>
        <time>2026-05-11T09:13:53Z</time>
      </trkpt>
      <trkpt lat="45.9661" lon="5.56947">
        <ele>730.6</ele>
        <time>2026-05-11T09:13:54Z</time>
      </trkpt>
      <trkpt lat="45.96611" lon="5.56943">
        <ele>730</ele>
        <time>2026-05-11T09:13:55Z</time>
      </trkpt>
      <trkpt lat="45.96612" lon="5.56938">
        <ele>729.8</ele>
        <time>2026-05-11T09:13:56Z</time>
      </trkpt>
      <trkpt lat="45.96613" lon="5.56934">
        <ele>729.2</ele>
        <time>2026-05-11T09:13:57Z</time>
      </trkpt>
      <trkpt lat="45.96615" lon="5.56929">
        <ele>729.2</ele>
        <time>2026-05-11T09:13:58Z</time>
      </trkpt>
      <trkpt lat="45.96617" lon="5.56922">
        <ele>728.8</ele>
        <time>2026-05-11T09:13:59Z</time>
      </trkpt>
      <trkpt lat="45.96619" lon="5.56916">
        <ele>728.2</ele>
        <time>2026-05-11T09:14:00Z</time>
      </trkpt>
      <trkpt lat="45.96619" lon="5.56912">
        <ele>728.2</ele>
        <time>2026-05-11T09:14:01Z</time>
      </trkpt>
      <trkpt lat="45.96621" lon="5.56908">
        <ele>727.6</ele>
        <time>2026-05-11T09:14:02Z</time>
      </trkpt>
      <trkpt lat="45.96622" lon="5.56904">
        <ele>727.6</ele>
        <time>2026-05-11T09:14:03Z</time>
      </trkpt>
      <trkpt lat="45.96623" lon="5.569">
        <ele>727.6</ele>
        <time>2026-05-11T09:14:04Z</time>
      </trkpt>
      <trkpt lat="45.96624" lon="5.56896">
        <ele>726.6</ele>
        <time>2026-05-11T09:14:05Z</time>
      </trkpt>
      <trkpt lat="45.96625" lon="5.5689">
        <ele>726.6</ele>
        <time>2026-05-11T09:14:06Z</time>
      </trkpt>
      <trkpt lat="45.96627" lon="5.56885">
        <ele>726.6</ele>
        <time>2026-05-11T09:14:07Z</time>
      </trkpt>
      <trkpt lat="45.96629" lon="5.56882">
        <ele>726.6</ele>
        <time>2026-05-11T09:14:08Z</time>
      </trkpt>
      <trkpt lat="45.96631" lon="5.56877">
        <ele>726.6</ele>
        <time>2026-05-11T09:14:09Z</time>
      </trkpt>
      <trkpt lat="45.96632" lon="5.56874">
        <ele>726.6</ele>
        <time>2026-05-11T09:14:10Z</time>
      </trkpt>
      <trkpt lat="45.96633" lon="5.5687">
        <ele>726</ele>
        <time>2026-05-11T09:14:11Z</time>
      </trkpt>
      <trkpt lat="45.96634" lon="5.56865">
        <ele>726</ele>
        <time>2026-05-11T09:14:12Z</time>
      </trkpt>
      <trkpt lat="45.96635" lon="5.56861">
        <ele>726</ele>
        <time>2026-05-11T09:14:13Z</time>
      </trkpt>
      <trkpt lat="45.96637" lon="5.56856">
        <ele>726</ele>
        <time>2026-05-11T09:14:14Z</time>
      </trkpt>
      <trkpt lat="45.96639" lon="5.56851">
        <ele>726</ele>
        <time>2026-05-11T09:14:15Z</time>
      </trkpt>
      <trkpt lat="45.9664" lon="5.56847">
        <ele>725.6</ele>
        <time>2026-05-11T09:14:16Z</time>
      </trkpt>
      <trkpt lat="45.96641" lon="5.56842">
        <ele>725.2</ele>
        <time>2026-05-11T09:14:17Z</time>
      </trkpt>
      <trkpt lat="45.96641" lon="5.56842">
        <ele>725.2</ele>
        <time>2026-05-11T09:14:18Z</time>
      </trkpt>
      <trkpt lat="45.96641" lon="5.56836">
        <ele>724.6</ele>
        <time>2026-05-11T09:14:19Z</time>
      </trkpt>
      <trkpt lat="45.96641" lon="5.56831">
        <ele>724.4</ele>
        <time>2026-05-11T09:14:20Z</time>
      </trkpt>
      <trkpt lat="45.96642" lon="5.56826">
        <ele>724.4</ele>
        <time>2026-05-11T09:14:21Z</time>
      </trkpt>
      <trkpt lat="45.96643" lon="5.5682">
        <ele>723.8</ele>
        <time>2026-05-11T09:14:22Z</time>
      </trkpt>
      <trkpt lat="45.96645" lon="5.56814">
        <ele>723.8</ele>
        <time>2026-05-11T09:14:23Z</time>
      </trkpt>
      <trkpt lat="45.96646" lon="5.56808">
        <ele>723.8</ele>
        <time>2026-05-11T09:14:24Z</time>
      </trkpt>
      <trkpt lat="45.96648" lon="5.56803">
        <ele>723.8</ele>
        <time>2026-05-11T09:14:25Z</time>
      </trkpt>
      <trkpt lat="45.96649" lon="5.56798">
        <ele>723.8</ele>
        <time>2026-05-11T09:14:26Z</time>
      </trkpt>
      <trkpt lat="45.9665" lon="5.56793">
        <ele>723.2</ele>
        <time>2026-05-11T09:14:27Z</time>
      </trkpt>
      <trkpt lat="45.9665" lon="5.56787">
        <ele>723.2</ele>
        <time>2026-05-11T09:14:28Z</time>
      </trkpt>
      <trkpt lat="45.96651" lon="5.56781">
        <ele>723.2</ele>
        <time>2026-05-11T09:14:29Z</time>
      </trkpt>
      <trkpt lat="45.9665" lon="5.56775">
        <ele>723</ele>
        <time>2026-05-11T09:14:30Z</time>
      </trkpt>
      <trkpt lat="45.96649" lon="5.56768">
        <ele>722.8</ele>
        <time>2026-05-11T09:14:31Z</time>
      </trkpt>
      <trkpt lat="45.96649" lon="5.56761">
        <ele>722.8</ele>
        <time>2026-05-11T09:14:32Z</time>
      </trkpt>
      <trkpt lat="45.96648" lon="5.56756">
        <ele>722.4</ele>
        <time>2026-05-11T09:14:33Z</time>
      </trkpt>
      <trkpt lat="45.96648" lon="5.56752">
        <ele>722.4</ele>
        <time>2026-05-11T09:14:34Z</time>
      </trkpt>
      <trkpt lat="45.96647" lon="5.56748">
        <ele>721.8</ele>
        <time>2026-05-11T09:14:35Z</time>
      </trkpt>
      <trkpt lat="45.96648" lon="5.56743">
        <ele>721.8</ele>
        <time>2026-05-11T09:14:36Z</time>
      </trkpt>
      <trkpt lat="45.96644" lon="5.56736">
        <ele>721.8</ele>
        <time>2026-05-11T09:14:37Z</time>
      </trkpt>
      <trkpt lat="45.96644" lon="5.56732">
        <ele>721</ele>
        <time>2026-05-11T09:14:38Z</time>
      </trkpt>
      <trkpt lat="45.96643" lon="5.5673">
        <ele>721</ele>
        <time>2026-05-11T09:14:39Z</time>
      </trkpt>
      <trkpt lat="45.96642" lon="5.56724">
        <ele>720.6</ele>
        <time>2026-05-11T09:14:40Z</time>
      </trkpt>
      <trkpt lat="45.9664" lon="5.56717">
        <ele>720.8</ele>
        <time>2026-05-11T09:14:41Z</time>
      </trkpt>
      <trkpt lat="45.9664" lon="5.56712">
        <ele>720.8</ele>
        <time>2026-05-11T09:14:42Z</time>
      </trkpt>
      <trkpt lat="45.96638" lon="5.56706">
        <ele>720.4</ele>
        <time>2026-05-11T09:14:43Z</time>
      </trkpt>
      <trkpt lat="45.96636" lon="5.567">
        <ele>720.4</ele>
        <time>2026-05-11T09:14:44Z</time>
      </trkpt>
      <trkpt lat="45.96635" lon="5.56695">
        <ele>720.2</ele>
        <time>2026-05-11T09:14:45Z</time>
      </trkpt>
      <trkpt lat="45.96633" lon="5.56689">
        <ele>720</ele>
        <time>2026-05-11T09:14:46Z</time>
      </trkpt>
      <trkpt lat="45.96631" lon="5.56684">
        <ele>720</ele>
        <time>2026-05-11T09:14:47Z</time>
      </trkpt>
      <trkpt lat="45.9663" lon="5.56679">
        <ele>720</ele>
        <time>2026-05-11T09:14:48Z</time>
      </trkpt>
      <trkpt lat="45.9663" lon="5.56674">
        <ele>720</ele>
        <time>2026-05-11T09:14:49Z</time>
      </trkpt>
      <trkpt lat="45.9663" lon="5.56669">
        <ele>720</ele>
        <time>2026-05-11T09:14:50Z</time>
      </trkpt>
      <trkpt lat="45.9663" lon="5.56665">
        <ele>720</ele>
        <time>2026-05-11T09:14:51Z</time>
      </trkpt>
      <trkpt lat="45.9663" lon="5.56662">
        <ele>720</ele>
        <time>2026-05-11T09:14:52Z</time>
      </trkpt>
      <trkpt lat="45.9663" lon="5.5666">
        <ele>720</ele>
        <time>2026-05-11T09:14:53Z</time>
      </trkpt>
      <trkpt lat="45.96629" lon="5.56659">
        <ele>720</ele>
        <time>2026-05-11T09:14:54Z</time>
      </trkpt>
      <trkpt lat="45.96626" lon="5.56656">
        <ele>720</ele>
        <time>2026-05-11T09:14:55Z</time>
      </trkpt>
      <trkpt lat="45.96624" lon="5.56655">
        <ele>720.2</ele>
        <time>2026-05-11T09:14:56Z</time>
      </trkpt>
      <trkpt lat="45.96624" lon="5.56655">
        <ele>720.2</ele>
        <time>2026-05-11T09:14:57Z</time>
      </trkpt>
      <trkpt lat="45.96623" lon="5.56654">
        <ele>720.2</ele>
        <time>2026-05-11T09:14:58Z</time>
      </trkpt>
      <trkpt lat="45.96623" lon="5.56654">
        <ele>720.4</ele>
        <time>2026-05-11T09:14:59Z</time>
      </trkpt>
      <trkpt lat="45.96621" lon="5.56652">
        <ele>720.4</ele>
        <time>2026-05-11T09:15:00Z</time>
      </trkpt>
      <trkpt lat="45.96619" lon="5.5665">
        <ele>720.4</ele>
        <time>2026-05-11T09:15:01Z</time>
      </trkpt>
      <trkpt lat="45.96617" lon="5.56648">
        <ele>720.4</ele>
        <time>2026-05-11T09:15:02Z</time>
      </trkpt>
      <trkpt lat="45.96614" lon="5.56647">
        <ele>720.4</ele>
        <time>2026-05-11T09:15:03Z</time>
      </trkpt>
      <trkpt lat="45.96613" lon="5.56646">
        <ele>720.8</ele>
        <time>2026-05-11T09:15:04Z</time>
      </trkpt>
      <trkpt lat="45.96612" lon="5.56646">
        <ele>720.8</ele>
        <time>2026-05-11T09:15:05Z</time>
      </trkpt>
      <trkpt lat="45.96611" lon="5.56647">
        <ele>721</ele>
        <time>2026-05-11T09:15:06Z</time>
      </trkpt>
      <trkpt lat="45.96609" lon="5.56648">
        <ele>721.2</ele>
        <time>2026-05-11T09:15:07Z</time>
      </trkpt>
      <trkpt lat="45.96609" lon="5.56649">
        <ele>721.2</ele>
        <time>2026-05-11T09:15:08Z</time>
      </trkpt>
      <trkpt lat="45.96609" lon="5.5665">
        <ele>721.6</ele>
        <time>2026-05-11T09:15:09Z</time>
      </trkpt>
      <trkpt lat="45.96607" lon="5.5665">
        <ele>721.6</ele>
        <time>2026-05-11T09:15:14Z</time>
      </trkpt>
      <trkpt lat="45.96606" lon="5.56652">
        <ele>721.8</ele>
        <time>2026-05-11T09:15:15Z</time>
      </trkpt>
      <trkpt lat="45.96606" lon="5.56653">
        <ele>721.8</ele>
        <time>2026-05-11T09:15:16Z</time>
      </trkpt>
      <trkpt lat="45.96606" lon="5.56653">
        <ele>722</ele>
        <time>2026-05-11T09:15:17Z</time>
      </trkpt>
      <trkpt lat="45.96606" lon="5.56653">
        <ele>722.2</ele>
        <time>2026-05-11T09:19:52Z</time>
      </trkpt>
      <trkpt lat="45.96608" lon="5.56653">
        <ele>722.2</ele>
        <time>2026-05-11T09:19:53Z</time>
      </trkpt>
      <trkpt lat="45.96608" lon="5.56653">
        <ele>722</ele>
        <time>2026-05-11T09:19:54Z</time>
      </trkpt>
      <trkpt lat="45.9661" lon="5.56653">
        <ele>722</ele>
        <time>2026-05-11T09:19:55Z</time>
      </trkpt>
      <trkpt lat="45.96611" lon="5.56652">
        <ele>722</ele>
        <time>2026-05-11T09:19:56Z</time>
      </trkpt>
      <trkpt lat="45.96613" lon="5.56652">
        <ele>721.8</ele>
        <time>2026-05-11T09:19:57Z</time>
      </trkpt>
      <trkpt lat="45.96615" lon="5.56653">
        <ele>721.8</ele>
        <time>2026-05-11T09:19:58Z</time>
      </trkpt>
      <trkpt lat="45.96617" lon="5.56654">
        <ele>721.4</ele>
        <time>2026-05-11T09:19:59Z</time>
      </trkpt>
      <trkpt lat="45.96619" lon="5.56655">
        <ele>721</ele>
        <time>2026-05-11T09:20:00Z</time>
      </trkpt>
      <trkpt lat="45.96621" lon="5.56657">
        <ele>721</ele>
        <time>2026-05-11T09:20:01Z</time>
      </trkpt>
      <trkpt lat="45.96624" lon="5.56658">
        <ele>721</ele>
        <time>2026-05-11T09:20:02Z</time>
      </trkpt>
      <trkpt lat="45.96628" lon="5.56659">
        <ele>720.6</ele>
        <time>2026-05-11T09:20:03Z</time>
      </trkpt>
      <trkpt lat="45.9663" lon="5.56659">
        <ele>720.6</ele>
        <time>2026-05-11T09:20:04Z</time>
      </trkpt>
      <trkpt lat="45.96631" lon="5.56657">
        <ele>720.6</ele>
        <time>2026-05-11T09:20:05Z</time>
      </trkpt>
      <trkpt lat="45.96632" lon="5.56654">
        <ele>720.2</ele>
        <time>2026-05-11T09:20:06Z</time>
      </trkpt>
      <trkpt lat="45.96632" lon="5.5665">
        <ele>720.2</ele>
        <time>2026-05-11T09:20:07Z</time>
      </trkpt>
      <trkpt lat="45.96631" lon="5.56646">
        <ele>720</ele>
        <time>2026-05-11T09:20:08Z</time>
      </trkpt>
      <trkpt lat="45.96631" lon="5.56643">
        <ele>719.4</ele>
        <time>2026-05-11T09:20:09Z</time>
      </trkpt>
      <trkpt lat="45.96631" lon="5.56639">
        <ele>719.4</ele>
        <time>2026-05-11T09:20:10Z</time>
      </trkpt>
      <trkpt lat="45.96632" lon="5.56636">
        <ele>719.4</ele>
        <time>2026-05-11T09:20:11Z</time>
      </trkpt>
      <trkpt lat="45.96632" lon="5.56634">
        <ele>719.4</ele>
        <time>2026-05-11T09:20:12Z</time>
      </trkpt>
      <trkpt lat="45.96631" lon="5.56633">
        <ele>719</ele>
        <time>2026-05-11T09:20:13Z</time>
      </trkpt>
      <trkpt lat="45.96631" lon="5.56632">
        <ele>719</ele>
        <time>2026-05-11T09:20:14Z</time>
      </trkpt>
      <trkpt lat="45.9663" lon="5.5663">
        <ele>718.6</ele>
        <time>2026-05-11T09:20:15Z</time>
      </trkpt>
      <trkpt lat="45.96629" lon="5.56629">
        <ele>718.2</ele>
        <time>2026-05-11T09:20:16Z</time>
      </trkpt>
      <trkpt lat="45.96628" lon="5.56629">
        <ele>718.2</ele>
        <time>2026-05-11T09:20:17Z</time>
      </trkpt>
      <trkpt lat="45.96627" lon="5.56628">
        <ele>718</ele>
        <time>2026-05-11T09:20:18Z</time>
      </trkpt>
      <trkpt lat="45.96627" lon="5.56628">
        <ele>718</ele>
        <time>2026-05-11T09:20:19Z</time>
      </trkpt>
      <trkpt lat="45.96626" lon="5.56628">
        <ele>718</ele>
        <time>2026-05-11T09:20:20Z</time>
      </trkpt>
      <trkpt lat="45.96624" lon="5.56626">
        <ele>717.6</ele>
        <time>2026-05-11T09:20:23Z</time>
      </trkpt>
      <trkpt lat="45.96624" lon="5.56626">
        <ele>717.6</ele>
        <time>2026-05-11T09:20:24Z</time>
      </trkpt>
      <trkpt lat="45.96622" lon="5.56624">
        <ele>717.6</ele>
        <time>2026-05-11T09:20:27Z</time>
      </trkpt>
      <trkpt lat="45.96622" lon="5.56623">
        <ele>717.6</ele>
        <time>2026-05-11T09:20:28Z</time>
      </trkpt>
      <trkpt lat="45.96623" lon="5.56623">
        <ele>717.6</ele>
        <time>2026-05-11T09:20:29Z</time>
      </trkpt>
      <trkpt lat="45.96625" lon="5.56623">
        <ele>717.6</ele>
        <time>2026-05-11T09:20:30Z</time>
      </trkpt>
      <trkpt lat="45.96627" lon="5.56623">
        <ele>717.6</ele>
        <time>2026-05-11T09:20:31Z</time>
      </trkpt>
      <trkpt lat="45.96628" lon="5.56623">
        <ele>717.6</ele>
        <time>2026-05-11T09:20:32Z</time>
      </trkpt>
      <trkpt lat="45.96628" lon="5.56622">
        <ele>717.6</ele>
        <time>2026-05-11T09:20:33Z</time>
      </trkpt>
      <trkpt lat="45.96628" lon="5.56622">
        <ele>717.4</ele>
        <time>2026-05-11T09:20:34Z</time>
      </trkpt>
      <trkpt lat="45.96628" lon="5.56621">
        <ele>717.4</ele>
        <time>2026-05-11T09:20:35Z</time>
      </trkpt>
      <trkpt lat="45.96625" lon="5.56622">
        <ele>717.4</ele>
        <time>2026-05-11T09:20:38Z</time>
      </trkpt>
      <trkpt lat="45.96623" lon="5.56622">
        <ele>717.6</ele>
        <time>2026-05-11T09:20:39Z</time>
      </trkpt>
      <trkpt lat="45.96623" lon="5.56622">
        <ele>717.6</ele>
        <time>2026-05-11T09:20:40Z</time>
      </trkpt>
      <trkpt lat="45.96622" lon="5.56621">
        <ele>717.6</ele>
        <time>2026-05-11T09:20:41Z</time>
      </trkpt>
      <trkpt lat="45.96621" lon="5.5662">
        <ele>717.6</ele>
        <time>2026-05-11T09:20:42Z</time>
      </trkpt>
      <trkpt lat="45.9662" lon="5.56619">
        <ele>717.8</ele>
        <time>2026-05-11T09:20:43Z</time>
      </trkpt>
      <trkpt lat="45.96619" lon="5.56621">
        <ele>717.8</ele>
        <time>2026-05-11T09:20:44Z</time>
      </trkpt>
      <trkpt lat="45.96618" lon="5.56622">
        <ele>717.8</ele>
        <time>2026-05-11T09:20:45Z</time>
      </trkpt>
      <trkpt lat="45.96618" lon="5.56622">
        <ele>718</ele>
        <time>2026-05-11T09:20:46Z</time>
      </trkpt>
      <trkpt lat="45.96619" lon="5.56622">
        <ele>718</ele>
        <time>2026-05-11T09:20:47Z</time>
      </trkpt>
      <trkpt lat="45.96619" lon="5.56622">
        <ele>718</ele>
        <time>2026-05-11T09:20:48Z</time>
      </trkpt>
      <trkpt lat="45.96621" lon="5.56619">
        <ele>718.6</ele>
        <time>2026-05-11T09:30:40Z</time>
      </trkpt>
      <trkpt lat="45.96622" lon="5.56619">
        <ele>718.4</ele>
        <time>2026-05-11T09:30:41Z</time>
      </trkpt>
      <trkpt lat="45.96623" lon="5.5662">
        <ele>718.4</ele>
        <time>2026-05-11T09:30:42Z</time>
      </trkpt>
      <trkpt lat="45.96625" lon="5.56621">
        <ele>718.4</ele>
        <time>2026-05-11T09:30:43Z</time>
      </trkpt>
      <trkpt lat="45.96626" lon="5.56621">
        <ele>718.4</ele>
        <time>2026-05-11T09:30:44Z</time>
      </trkpt>
      <trkpt lat="45.96628" lon="5.56622">
        <ele>718.4</ele>
        <time>2026-05-11T09:30:45Z</time>
      </trkpt>
      <trkpt lat="45.96629" lon="5.56623">
        <ele>718.4</ele>
        <time>2026-05-11T09:30:46Z</time>
      </trkpt>
      <trkpt lat="45.9663" lon="5.56624">
        <ele>718.6</ele>
        <time>2026-05-11T09:30:47Z</time>
      </trkpt>
      <trkpt lat="45.9663" lon="5.56624">
        <ele>718.6</ele>
        <time>2026-05-11T09:30:48Z</time>
      </trkpt>
      <trkpt lat="45.9663" lon="5.56625">
        <ele>718.6</ele>
        <time>2026-05-11T09:30:49Z</time>
      </trkpt>
      <trkpt lat="45.96631" lon="5.56623">
        <ele>719</ele>
        <time>2026-05-11T09:30:52Z</time>
      </trkpt>
      <trkpt lat="45.96631" lon="5.56622">
        <ele>719</ele>
        <time>2026-05-11T09:30:53Z</time>
      </trkpt>
      <trkpt lat="45.96631" lon="5.56621">
        <ele>719</ele>
        <time>2026-05-11T09:30:54Z</time>
      </trkpt>
      <trkpt lat="45.96631" lon="5.5662">
        <ele>719</ele>
        <time>2026-05-11T09:30:55Z</time>
      </trkpt>
      <trkpt lat="45.96632" lon="5.56619">
        <ele>719</ele>
        <time>2026-05-11T09:30:56Z</time>
      </trkpt>
      <trkpt lat="45.96632" lon="5.56619">
        <ele>718.8</ele>
        <time>2026-05-11T09:30:57Z</time>
      </trkpt>
      <trkpt lat="45.96632" lon="5.56619">
        <ele>718.8</ele>
        <time>2026-05-11T09:30:58Z</time>
      </trkpt>
      <trkpt lat="45.96632" lon="5.56619">
        <ele>718.8</ele>
        <time>2026-05-11T09:30:59Z</time>
      </trkpt>
      <trkpt lat="45.96632" lon="5.56619">
        <ele>718.8</ele>
        <time>2026-05-11T09:31:00Z</time>
      </trkpt>
      <trkpt lat="45.96629" lon="5.5662">
        <ele>718.2</ele>
        <time>2026-05-11T09:33:03Z</time>
      </trkpt>
      <trkpt lat="45.96629" lon="5.56622">
        <ele>718.2</ele>
        <time>2026-05-11T09:33:04Z</time>
      </trkpt>
      <trkpt lat="45.96629" lon="5.56623">
        <ele>718.2</ele>
        <time>2026-05-11T09:33:05Z</time>
      </trkpt>
      <trkpt lat="45.9663" lon="5.56623">
        <ele>718.2</ele>
        <time>2026-05-11T09:33:06Z</time>
      </trkpt>
      <trkpt lat="45.9663" lon="5.56624">
        <ele>718.2</ele>
        <time>2026-05-11T09:33:07Z</time>
      </trkpt>
      <trkpt lat="45.9663" lon="5.56625">
        <ele>718.2</ele>
        <time>2026-05-11T09:33:08Z</time>
      </trkpt>
      <trkpt lat="45.9663" lon="5.56626">
        <ele>718</ele>
        <time>2026-05-11T09:33:09Z</time>
      </trkpt>
      <trkpt lat="45.9663" lon="5.56626">
        <ele>718</ele>
        <time>2026-05-11T09:33:10Z</time>
      </trkpt>
      <trkpt lat="45.9663" lon="5.56627">
        <ele>718.2</ele>
        <time>2026-05-11T09:33:11Z</time>
      </trkpt>
      <trkpt lat="45.9663" lon="5.56628">
        <ele>718.2</ele>
        <time>2026-05-11T09:33:12Z</time>
      </trkpt>
      <trkpt lat="45.9663" lon="5.56628">
        <ele>718.6</ele>
        <time>2026-05-11T09:33:13Z</time>
      </trkpt>
      <trkpt lat="45.9663" lon="5.56629">
        <ele>718.6</ele>
        <time>2026-05-11T09:33:14Z</time>
      </trkpt>
      <trkpt lat="45.9663" lon="5.56629">
        <ele>718.6</ele>
        <time>2026-05-11T09:33:15Z</time>
      </trkpt>
      <trkpt lat="45.9663" lon="5.5663">
        <ele>718.6</ele>
        <time>2026-05-11T09:33:16Z</time>
      </trkpt>
      <trkpt lat="45.96629" lon="5.5663">
        <ele>718.6</ele>
        <time>2026-05-11T09:33:17Z</time>
      </trkpt>
      <trkpt lat="45.96629" lon="5.56631">
        <ele>718.6</ele>
        <time>2026-05-11T09:33:18Z</time>
      </trkpt>
      <trkpt lat="45.96629" lon="5.56631">
        <ele>718.6</ele>
        <time>2026-05-11T09:33:19Z</time>
      </trkpt>
      <trkpt lat="45.96629" lon="5.56631">
        <ele>718.2</ele>
        <time>2026-05-11T09:33:20Z</time>
      </trkpt>
      <trkpt lat="45.96633" lon="5.56631">
        <ele>719.6</ele>
        <time>2026-05-11T09:37:20Z</time>
      </trkpt>
      <trkpt lat="45.96633" lon="5.56631">
        <ele>720</ele>
        <time>2026-05-11T09:37:21Z</time>
      </trkpt>
      <trkpt lat="45.96634" lon="5.56632">
        <ele>720</ele>
        <time>2026-05-11T09:37:22Z</time>
      </trkpt>
      <trkpt lat="45.96634" lon="5.56632">
        <ele>720</ele>
        <time>2026-05-11T09:37:23Z</time>
      </trkpt>
      <trkpt lat="45.96631" lon="5.56634">
        <ele>720.6</ele>
        <time>2026-05-11T09:41:05Z</time>
      </trkpt>
      <trkpt lat="45.96631" lon="5.56636">
        <ele>720.6</ele>
        <time>2026-05-11T09:41:06Z</time>
      </trkpt>
      <trkpt lat="45.9663" lon="5.56639">
        <ele>720.6</ele>
        <time>2026-05-11T09:41:07Z</time>
      </trkpt>
      <trkpt lat="45.9663" lon="5.56642">
        <ele>720.6</ele>
        <time>2026-05-11T09:41:08Z</time>
      </trkpt>
      <trkpt lat="45.9663" lon="5.56644">
        <ele>720.6</ele>
        <time>2026-05-11T09:41:09Z</time>
      </trkpt>
      <trkpt lat="45.96629" lon="5.56647">
        <ele>720.6</ele>
        <time>2026-05-11T09:41:10Z</time>
      </trkpt>
      <trkpt lat="45.96628" lon="5.56651">
        <ele>721</ele>
        <time>2026-05-11T09:41:11Z</time>
      </trkpt>
      <trkpt lat="45.96627" lon="5.56654">
        <ele>721</ele>
        <time>2026-05-11T09:41:12Z</time>
      </trkpt>
      <trkpt lat="45.96627" lon="5.56657">
        <ele>721</ele>
        <time>2026-05-11T09:41:13Z</time>
      </trkpt>
      <trkpt lat="45.96628" lon="5.5666">
        <ele>721</ele>
        <time>2026-05-11T09:41:14Z</time>
      </trkpt>
      <trkpt lat="45.96628" lon="5.56662">
        <ele>721</ele>
        <time>2026-05-11T09:41:15Z</time>
      </trkpt>
      <trkpt lat="45.96628" lon="5.56666">
        <ele>721.4</ele>
        <time>2026-05-11T09:41:16Z</time>
      </trkpt>
      <trkpt lat="45.96628" lon="5.5667">
        <ele>721.4</ele>
        <time>2026-05-11T09:41:17Z</time>
      </trkpt>
      <trkpt lat="45.96628" lon="5.56674">
        <ele>721.8</ele>
        <time>2026-05-11T09:41:18Z</time>
      </trkpt>
      <trkpt lat="45.96629" lon="5.56677">
        <ele>721.8</ele>
        <time>2026-05-11T09:41:19Z</time>
      </trkpt>
      <trkpt lat="45.9663" lon="5.56681">
        <ele>722</ele>
        <time>2026-05-11T09:41:20Z</time>
      </trkpt>
      <trkpt lat="45.9663" lon="5.56684">
        <ele>722</ele>
        <time>2026-05-11T09:41:21Z</time>
      </trkpt>
      <trkpt lat="45.96631" lon="5.56688">
        <ele>722</ele>
        <time>2026-05-11T09:41:22Z</time>
      </trkpt>
      <trkpt lat="45.96632" lon="5.56691">
        <ele>722.4</ele>
        <time>2026-05-11T09:41:23Z</time>
      </trkpt>
      <trkpt lat="45.96633" lon="5.56694">
        <ele>722.4</ele>
        <time>2026-05-11T09:41:24Z</time>
      </trkpt>
      <trkpt lat="45.96634" lon="5.56696">
        <ele>722.4</ele>
        <time>2026-05-11T09:41:25Z</time>
      </trkpt>
      <trkpt lat="45.96634" lon="5.56699">
        <ele>722.4</ele>
        <time>2026-05-11T09:41:26Z</time>
      </trkpt>
      <trkpt lat="45.96636" lon="5.56703">
        <ele>722.4</ele>
        <time>2026-05-11T09:41:27Z</time>
      </trkpt>
      <trkpt lat="45.96637" lon="5.56705">
        <ele>722.4</ele>
        <time>2026-05-11T09:41:28Z</time>
      </trkpt>
      <trkpt lat="45.96637" lon="5.56708">
        <ele>722.4</ele>
        <time>2026-05-11T09:41:29Z</time>
      </trkpt>
      <trkpt lat="45.96638" lon="5.56712">
        <ele>722.4</ele>
        <time>2026-05-11T09:41:30Z</time>
      </trkpt>
      <trkpt lat="45.96639" lon="5.56715">
        <ele>722.6</ele>
        <time>2026-05-11T09:41:31Z</time>
      </trkpt>
      <trkpt lat="45.9664" lon="5.56718">
        <ele>722.4</ele>
        <time>2026-05-11T09:41:32Z</time>
      </trkpt>
      <trkpt lat="45.96641" lon="5.56722">
        <ele>722.6</ele>
        <time>2026-05-11T09:41:33Z</time>
      </trkpt>
      <trkpt lat="45.96642" lon="5.56724">
        <ele>723</ele>
        <time>2026-05-11T09:41:34Z</time>
      </trkpt>
      <trkpt lat="45.96643" lon="5.56726">
        <ele>723</ele>
        <time>2026-05-11T09:41:35Z</time>
      </trkpt>
      <trkpt lat="45.96644" lon="5.56728">
        <ele>723.2</ele>
        <time>2026-05-11T09:41:36Z</time>
      </trkpt>
      <trkpt lat="45.96645" lon="5.5673">
        <ele>723.2</ele>
        <time>2026-05-11T09:41:37Z</time>
      </trkpt>
      <trkpt lat="45.96646" lon="5.56733">
        <ele>723.4</ele>
        <time>2026-05-11T09:41:38Z</time>
      </trkpt>
      <trkpt lat="45.96647" lon="5.56735">
        <ele>723.4</ele>
        <time>2026-05-11T09:41:39Z</time>
      </trkpt>
      <trkpt lat="45.96647" lon="5.56737">
        <ele>723.8</ele>
        <time>2026-05-11T09:41:40Z</time>
      </trkpt>
      <trkpt lat="45.96648" lon="5.5674">
        <ele>724.2</ele>
        <time>2026-05-11T09:41:41Z</time>
      </trkpt>
      <trkpt lat="45.96647" lon="5.56743">
        <ele>724.2</ele>
        <time>2026-05-11T09:41:42Z</time>
      </trkpt>
      <trkpt lat="45.96647" lon="5.56745">
        <ele>724.2</ele>
        <time>2026-05-11T09:41:43Z</time>
      </trkpt>
      <trkpt lat="45.96647" lon="5.56748">
        <ele>724.2</ele>
        <time>2026-05-11T09:41:44Z</time>
      </trkpt>
      <trkpt lat="45.96648" lon="5.56751">
        <ele>724.4</ele>
        <time>2026-05-11T09:41:45Z</time>
      </trkpt>
      <trkpt lat="45.96649" lon="5.56754">
        <ele>724.6</ele>
        <time>2026-05-11T09:41:46Z</time>
      </trkpt>
      <trkpt lat="45.9665" lon="5.56757">
        <ele>724.6</ele>
        <time>2026-05-11T09:41:47Z</time>
      </trkpt>
      <trkpt lat="45.96652" lon="5.5676">
        <ele>724.6</ele>
        <time>2026-05-11T09:41:48Z</time>
      </trkpt>
      <trkpt lat="45.96652" lon="5.56764">
        <ele>724.6</ele>
        <time>2026-05-11T09:41:49Z</time>
      </trkpt>
      <trkpt lat="45.96653" lon="5.56767">
        <ele>725</ele>
        <time>2026-05-11T09:41:50Z</time>
      </trkpt>
      <trkpt lat="45.96654" lon="5.5677">
        <ele>725</ele>
        <time>2026-05-11T09:41:51Z</time>
      </trkpt>
      <trkpt lat="45.96654" lon="5.56772">
        <ele>725</ele>
        <time>2026-05-11T09:41:52Z</time>
      </trkpt>
      <trkpt lat="45.96654" lon="5.56775">
        <ele>725</ele>
        <time>2026-05-11T09:41:53Z</time>
      </trkpt>
      <trkpt lat="45.96655" lon="5.56778">
        <ele>725.4</ele>
        <time>2026-05-11T09:41:54Z</time>
      </trkpt>
      <trkpt lat="45.96655" lon="5.56781">
        <ele>725.4</ele>
        <time>2026-05-11T09:41:55Z</time>
      </trkpt>
      <trkpt lat="45.96655" lon="5.56784">
        <ele>725.8</ele>
        <time>2026-05-11T09:41:56Z</time>
      </trkpt>
      <trkpt lat="45.96654" lon="5.56787">
        <ele>725.8</ele>
        <time>2026-05-11T09:41:57Z</time>
      </trkpt>
      <trkpt lat="45.96654" lon="5.5679">
        <ele>726</ele>
        <time>2026-05-11T09:41:58Z</time>
      </trkpt>
      <trkpt lat="45.96654" lon="5.56793">
        <ele>726</ele>
        <time>2026-05-11T09:41:59Z</time>
      </trkpt>
      <trkpt lat="45.96654" lon="5.56796">
        <ele>726</ele>
        <time>2026-05-11T09:42:00Z</time>
      </trkpt>
      <trkpt lat="45.96654" lon="5.56799">
        <ele>726</ele>
        <time>2026-05-11T09:42:01Z</time>
      </trkpt>
      <trkpt lat="45.96654" lon="5.56801">
        <ele>726</ele>
        <time>2026-05-11T09:42:02Z</time>
      </trkpt>
      <trkpt lat="45.96654" lon="5.56804">
        <ele>726.4</ele>
        <time>2026-05-11T09:42:03Z</time>
      </trkpt>
      <trkpt lat="45.96653" lon="5.56807">
        <ele>726.4</ele>
        <time>2026-05-11T09:42:04Z</time>
      </trkpt>
      <trkpt lat="45.96653" lon="5.56809">
        <ele>726.4</ele>
        <time>2026-05-11T09:42:05Z</time>
      </trkpt>
      <trkpt lat="45.96653" lon="5.56811">
        <ele>726.4</ele>
        <time>2026-05-11T09:42:06Z</time>
      </trkpt>
      <trkpt lat="45.96652" lon="5.56813">
        <ele>726.4</ele>
        <time>2026-05-11T09:42:07Z</time>
      </trkpt>
      <trkpt lat="45.96651" lon="5.56816">
        <ele>726.4</ele>
        <time>2026-05-11T09:42:08Z</time>
      </trkpt>
      <trkpt lat="45.96649" lon="5.56819">
        <ele>726.4</ele>
        <time>2026-05-11T09:42:09Z</time>
      </trkpt>
      <trkpt lat="45.96648" lon="5.56822">
        <ele>726.4</ele>
        <time>2026-05-11T09:42:10Z</time>
      </trkpt>
      <trkpt lat="45.96647" lon="5.56825">
        <ele>726.4</ele>
        <time>2026-05-11T09:42:11Z</time>
      </trkpt>
      <trkpt lat="45.96646" lon="5.56828">
        <ele>726.4</ele>
        <time>2026-05-11T09:42:12Z</time>
      </trkpt>
      <trkpt lat="45.96645" lon="5.56831">
        <ele>726.8</ele>
        <time>2026-05-11T09:42:13Z</time>
      </trkpt>
      <trkpt lat="45.96645" lon="5.56833">
        <ele>726.8</ele>
        <time>2026-05-11T09:42:14Z</time>
      </trkpt>
      <trkpt lat="45.96644" lon="5.56836">
        <ele>726.8</ele>
        <time>2026-05-11T09:42:15Z</time>
      </trkpt>
      <trkpt lat="45.96643" lon="5.56839">
        <ele>726.8</ele>
        <time>2026-05-11T09:42:16Z</time>
      </trkpt>
      <trkpt lat="45.96643" lon="5.56843">
        <ele>726.8</ele>
        <time>2026-05-11T09:42:17Z</time>
      </trkpt>
      <trkpt lat="45.96642" lon="5.56846">
        <ele>727.2</ele>
        <time>2026-05-11T09:42:18Z</time>
      </trkpt>
      <trkpt lat="45.96642" lon="5.56849">
        <ele>727.2</ele>
        <time>2026-05-11T09:42:19Z</time>
      </trkpt>
      <trkpt lat="45.96641" lon="5.56851">
        <ele>727.4</ele>
        <time>2026-05-11T09:42:20Z</time>
      </trkpt>
      <trkpt lat="45.96639" lon="5.56853">
        <ele>727.4</ele>
        <time>2026-05-11T09:42:21Z</time>
      </trkpt>
      <trkpt lat="45.96638" lon="5.56856">
        <ele>727.4</ele>
        <time>2026-05-11T09:42:22Z</time>
      </trkpt>
      <trkpt lat="45.96637" lon="5.56858">
        <ele>727.4</ele>
        <time>2026-05-11T09:42:23Z</time>
      </trkpt>
      <trkpt lat="45.96636" lon="5.56862">
        <ele>727.6</ele>
        <time>2026-05-11T09:42:24Z</time>
      </trkpt>
      <trkpt lat="45.96635" lon="5.56864">
        <ele>727.6</ele>
        <time>2026-05-11T09:42:25Z</time>
      </trkpt>
      <trkpt lat="45.96635" lon="5.56867">
        <ele>727.6</ele>
        <time>2026-05-11T09:42:26Z</time>
      </trkpt>
      <trkpt lat="45.96634" lon="5.5687">
        <ele>727.8</ele>
        <time>2026-05-11T09:42:27Z</time>
      </trkpt>
      <trkpt lat="45.96633" lon="5.56872">
        <ele>727.8</ele>
        <time>2026-05-11T09:42:28Z</time>
      </trkpt>
      <trkpt lat="45.96632" lon="5.56874">
        <ele>727.8</ele>
        <time>2026-05-11T09:42:29Z</time>
      </trkpt>
      <trkpt lat="45.96631" lon="5.56877">
        <ele>727.8</ele>
        <time>2026-05-11T09:42:30Z</time>
      </trkpt>
      <trkpt lat="45.9663" lon="5.5688">
        <ele>727.8</ele>
        <time>2026-05-11T09:42:31Z</time>
      </trkpt>
      <trkpt lat="45.96629" lon="5.56883">
        <ele>728.2</ele>
        <time>2026-05-11T09:42:32Z</time>
      </trkpt>
      <trkpt lat="45.96629" lon="5.56886">
        <ele>728.2</ele>
        <time>2026-05-11T09:42:33Z</time>
      </trkpt>
      <trkpt lat="45.96628" lon="5.56888">
        <ele>728.4</ele>
        <time>2026-05-11T09:42:34Z</time>
      </trkpt>
      <trkpt lat="45.96628" lon="5.56891">
        <ele>729</ele>
        <time>2026-05-11T09:42:35Z</time>
      </trkpt>
      <trkpt lat="45.96627" lon="5.56893">
        <ele>729</ele>
        <time>2026-05-11T09:42:36Z</time>
      </trkpt>
      <trkpt lat="45.96626" lon="5.56896">
        <ele>728.8</ele>
        <time>2026-05-11T09:42:37Z</time>
      </trkpt>
      <trkpt lat="45.96625" lon="5.56899">
        <ele>729</ele>
        <time>2026-05-11T09:42:38Z</time>
      </trkpt>
      <trkpt lat="45.96625" lon="5.56902">
        <ele>729</ele>
        <time>2026-05-11T09:42:39Z</time>
      </trkpt>
      <trkpt lat="45.96624" lon="5.56904">
        <ele>729.4</ele>
        <time>2026-05-11T09:42:40Z</time>
      </trkpt>
      <trkpt lat="45.96623" lon="5.56906">
        <ele>729.4</ele>
        <time>2026-05-11T09:42:41Z</time>
      </trkpt>
      <trkpt lat="45.96622" lon="5.56909">
        <ele>729.8</ele>
        <time>2026-05-11T09:42:42Z</time>
      </trkpt>
      <trkpt lat="45.96621" lon="5.56912">
        <ele>729.8</ele>
        <time>2026-05-11T09:42:43Z</time>
      </trkpt>
      <trkpt lat="45.9662" lon="5.56915">
        <ele>729.8</ele>
        <time>2026-05-11T09:42:44Z</time>
      </trkpt>
      <trkpt lat="45.96619" lon="5.56918">
        <ele>729.6</ele>
        <time>2026-05-11T09:42:45Z</time>
      </trkpt>
      <trkpt lat="45.96618" lon="5.5692">
        <ele>730</ele>
        <time>2026-05-11T09:42:46Z</time>
      </trkpt>
      <trkpt lat="45.96617" lon="5.56923">
        <ele>730</ele>
        <time>2026-05-11T09:42:47Z</time>
      </trkpt>
      <trkpt lat="45.96616" lon="5.56926">
        <ele>730</ele>
        <time>2026-05-11T09:42:48Z</time>
      </trkpt>
      <trkpt lat="45.96616" lon="5.56929">
        <ele>730.2</ele>
        <time>2026-05-11T09:42:49Z</time>
      </trkpt>
      <trkpt lat="45.96615" lon="5.56931">
        <ele>730.2</ele>
        <time>2026-05-11T09:42:50Z</time>
      </trkpt>
      <trkpt lat="45.96615" lon="5.56934">
        <ele>730.2</ele>
        <time>2026-05-11T09:42:51Z</time>
      </trkpt>
      <trkpt lat="45.96614" lon="5.56937">
        <ele>730.2</ele>
        <time>2026-05-11T09:42:52Z</time>
      </trkpt>
      <trkpt lat="45.96613" lon="5.5694">
        <ele>730.2</ele>
        <time>2026-05-11T09:42:53Z</time>
      </trkpt>
      <trkpt lat="45.96612" lon="5.56943">
        <ele>730.2</ele>
        <time>2026-05-11T09:42:54Z</time>
      </trkpt>
      <trkpt lat="45.96611" lon="5.56946">
        <ele>730.4</ele>
        <time>2026-05-11T09:42:55Z</time>
      </trkpt>
      <trkpt lat="45.96611" lon="5.56949">
        <ele>730.4</ele>
        <time>2026-05-11T09:42:56Z</time>
      </trkpt>
      <trkpt lat="45.9661" lon="5.56951">
        <ele>730.8</ele>
        <time>2026-05-11T09:42:57Z</time>
      </trkpt>
      <trkpt lat="45.96608" lon="5.56953">
        <ele>730.8</ele>
        <time>2026-05-11T09:42:58Z</time>
      </trkpt>
      <trkpt lat="45.96607" lon="5.56956">
        <ele>730.8</ele>
        <time>2026-05-11T09:42:59Z</time>
      </trkpt>
      <trkpt lat="45.96606" lon="5.56959">
        <ele>731</ele>
        <time>2026-05-11T09:43:00Z</time>
      </trkpt>
      <trkpt lat="45.96605" lon="5.56961">
        <ele>731</ele>
        <time>2026-05-11T09:43:01Z</time>
      </trkpt>
      <trkpt lat="45.96604" lon="5.56964">
        <ele>731.2</ele>
        <time>2026-05-11T09:43:02Z</time>
      </trkpt>
      <trkpt lat="45.96604" lon="5.56966">
        <ele>731.2</ele>
        <time>2026-05-11T09:43:03Z</time>
      </trkpt>
      <trkpt lat="45.96603" lon="5.56967">
        <ele>731.6</ele>
        <time>2026-05-11T09:43:04Z</time>
      </trkpt>
      <trkpt lat="45.96602" lon="5.56968">
        <ele>731.6</ele>
        <time>2026-05-11T09:43:05Z</time>
      </trkpt>
      <trkpt lat="45.96601" lon="5.56969">
        <ele>731.6</ele>
        <time>2026-05-11T09:43:06Z</time>
      </trkpt>
      <trkpt lat="45.96601" lon="5.56971">
        <ele>731.4</ele>
        <time>2026-05-11T09:43:07Z</time>
      </trkpt>
      <trkpt lat="45.966" lon="5.56974">
        <ele>732</ele>
        <time>2026-05-11T09:43:08Z</time>
      </trkpt>
      <trkpt lat="45.966" lon="5.56977">
        <ele>732</ele>
        <time>2026-05-11T09:43:09Z</time>
      </trkpt>
      <trkpt lat="45.96599" lon="5.56979">
        <ele>731.4</ele>
        <time>2026-05-11T09:43:10Z</time>
      </trkpt>
      <trkpt lat="45.96598" lon="5.56981">
        <ele>731.4</ele>
        <time>2026-05-11T09:43:11Z</time>
      </trkpt>
      <trkpt lat="45.96597" lon="5.56983">
        <ele>732</ele>
        <time>2026-05-11T09:43:12Z</time>
      </trkpt>
      <trkpt lat="45.96597" lon="5.56986">
        <ele>732</ele>
        <time>2026-05-11T09:43:13Z</time>
      </trkpt>
      <trkpt lat="45.96596" lon="5.56988">
        <ele>732.4</ele>
        <time>2026-05-11T09:43:14Z</time>
      </trkpt>
      <trkpt lat="45.96596" lon="5.56991">
        <ele>732.8</ele>
        <time>2026-05-11T09:43:15Z</time>
      </trkpt>
      <trkpt lat="45.96595" lon="5.56993">
        <ele>732.8</ele>
        <time>2026-05-11T09:43:16Z</time>
      </trkpt>
      <trkpt lat="45.96594" lon="5.56994">
        <ele>732.4</ele>
        <time>2026-05-11T09:43:17Z</time>
      </trkpt>
      <trkpt lat="45.96594" lon="5.56996">
        <ele>732</ele>
        <time>2026-05-11T09:43:18Z</time>
      </trkpt>
      <trkpt lat="45.96593" lon="5.56999">
        <ele>732.6</ele>
        <time>2026-05-11T09:43:19Z</time>
      </trkpt>
      <trkpt lat="45.96592" lon="5.57001">
        <ele>732.6</ele>
        <time>2026-05-11T09:43:20Z</time>
      </trkpt>
      <trkpt lat="45.96592" lon="5.57003">
        <ele>732.8</ele>
        <time>2026-05-11T09:43:21Z</time>
      </trkpt>
      <trkpt lat="45.96591" lon="5.57005">
        <ele>732.8</ele>
        <time>2026-05-11T09:43:22Z</time>
      </trkpt>
      <trkpt lat="45.96591" lon="5.57007">
        <ele>733.2</ele>
        <time>2026-05-11T09:43:23Z</time>
      </trkpt>
      <trkpt lat="45.9659" lon="5.5701">
        <ele>733.2</ele>
        <time>2026-05-11T09:43:24Z</time>
      </trkpt>
      <trkpt lat="45.9659" lon="5.57012">
        <ele>733.2</ele>
        <time>2026-05-11T09:43:25Z</time>
      </trkpt>
      <trkpt lat="45.9659" lon="5.57014">
        <ele>733.2</ele>
        <time>2026-05-11T09:43:26Z</time>
      </trkpt>
      <trkpt lat="45.9659" lon="5.57015">
        <ele>733.4</ele>
        <time>2026-05-11T09:43:27Z</time>
      </trkpt>
      <trkpt lat="45.9659" lon="5.57017">
        <ele>733.4</ele>
        <time>2026-05-11T09:43:28Z</time>
      </trkpt>
      <trkpt lat="45.9659" lon="5.57019">
        <ele>733.4</ele>
        <time>2026-05-11T09:43:29Z</time>
      </trkpt>
      <trkpt lat="45.9659" lon="5.5702">
        <ele>733.4</ele>
        <time>2026-05-11T09:43:30Z</time>
      </trkpt>
      <trkpt lat="45.9659" lon="5.57023">
        <ele>733.6</ele>
        <time>2026-05-11T09:43:31Z</time>
      </trkpt>
      <trkpt lat="45.9659" lon="5.57024">
        <ele>733.6</ele>
        <time>2026-05-11T09:43:32Z</time>
      </trkpt>
      <trkpt lat="45.9659" lon="5.57026">
        <ele>734</ele>
        <time>2026-05-11T09:43:33Z</time>
      </trkpt>
      <trkpt lat="45.9659" lon="5.57029">
        <ele>734</ele>
        <time>2026-05-11T09:43:34Z</time>
      </trkpt>
      <trkpt lat="45.96591" lon="5.57031">
        <ele>734</ele>
        <time>2026-05-11T09:43:35Z</time>
      </trkpt>
      <trkpt lat="45.96591" lon="5.57032">
        <ele>734</ele>
        <time>2026-05-11T09:43:36Z</time>
      </trkpt>
      <trkpt lat="45.96591" lon="5.57033">
        <ele>734</ele>
        <time>2026-05-11T09:43:37Z</time>
      </trkpt>
      <trkpt lat="45.96591" lon="5.57036">
        <ele>734</ele>
        <time>2026-05-11T09:43:38Z</time>
      </trkpt>
      <trkpt lat="45.96591" lon="5.57039">
        <ele>734</ele>
        <time>2026-05-11T09:43:39Z</time>
      </trkpt>
      <trkpt lat="45.9659" lon="5.57042">
        <ele>734</ele>
        <time>2026-05-11T09:43:40Z</time>
      </trkpt>
      <trkpt lat="45.9659" lon="5.57044">
        <ele>733.4</ele>
        <time>2026-05-11T09:43:41Z</time>
      </trkpt>
      <trkpt lat="45.96589" lon="5.57047">
        <ele>733.2</ele>
        <time>2026-05-11T09:43:42Z</time>
      </trkpt>
      <trkpt lat="45.96589" lon="5.5705">
        <ele>733.2</ele>
        <time>2026-05-11T09:43:43Z</time>
      </trkpt>
      <trkpt lat="45.96588" lon="5.57053">
        <ele>733</ele>
        <time>2026-05-11T09:43:44Z</time>
      </trkpt>
      <trkpt lat="45.96587" lon="5.57056">
        <ele>733</ele>
        <time>2026-05-11T09:43:45Z</time>
      </trkpt>
      <trkpt lat="45.96586" lon="5.57058">
        <ele>733.2</ele>
        <time>2026-05-11T09:43:46Z</time>
      </trkpt>
      <trkpt lat="45.96585" lon="5.5706">
        <ele>733.2</ele>
        <time>2026-05-11T09:43:47Z</time>
      </trkpt>
      <trkpt lat="45.96584" lon="5.57063">
        <ele>733.2</ele>
        <time>2026-05-11T09:43:48Z</time>
      </trkpt>
      <trkpt lat="45.96583" lon="5.57066">
        <ele>733.4</ele>
        <time>2026-05-11T09:43:49Z</time>
      </trkpt>
      <trkpt lat="45.96582" lon="5.57069">
        <ele>733.4</ele>
        <time>2026-05-11T09:43:50Z</time>
      </trkpt>
      <trkpt lat="45.96582" lon="5.57069">
        <ele>733.8</ele>
        <time>2026-05-11T09:43:51Z</time>
      </trkpt>
      <trkpt lat="45.96582" lon="5.57072">
        <ele>733.8</ele>
        <time>2026-05-11T09:43:52Z</time>
      </trkpt>
      <trkpt lat="45.96582" lon="5.57075">
        <ele>733.8</ele>
        <time>2026-05-11T09:43:53Z</time>
      </trkpt>
      <trkpt lat="45.96582" lon="5.57078">
        <ele>734.2</ele>
        <time>2026-05-11T09:43:54Z</time>
      </trkpt>
      <trkpt lat="45.96582" lon="5.57081">
        <ele>734.2</ele>
        <time>2026-05-11T09:43:55Z</time>
      </trkpt>
      <trkpt lat="45.96581" lon="5.57084">
        <ele>734.6</ele>
        <time>2026-05-11T09:43:56Z</time>
      </trkpt>
      <trkpt lat="45.96581" lon="5.57087">
        <ele>734.6</ele>
        <time>2026-05-11T09:43:57Z</time>
      </trkpt>
      <trkpt lat="45.96581" lon="5.57089">
        <ele>735</ele>
        <time>2026-05-11T09:43:58Z</time>
      </trkpt>
      <trkpt lat="45.9658" lon="5.57092">
        <ele>735</ele>
        <time>2026-05-11T09:43:59Z</time>
      </trkpt>
      <trkpt lat="45.9658" lon="5.57095">
        <ele>735</ele>
        <time>2026-05-11T09:44:00Z</time>
      </trkpt>
      <trkpt lat="45.9658" lon="5.57095">
        <ele>735.4</ele>
        <time>2026-05-11T09:44:01Z</time>
      </trkpt>
      <trkpt lat="45.9658" lon="5.571">
        <ele>735.4</ele>
        <time>2026-05-11T09:44:02Z</time>
      </trkpt>
      <trkpt lat="45.9658" lon="5.57102">
        <ele>735.4</ele>
        <time>2026-05-11T09:44:03Z</time>
      </trkpt>
      <trkpt lat="45.9658" lon="5.57104">
        <ele>735.8</ele>
        <time>2026-05-11T09:44:04Z</time>
      </trkpt>
      <trkpt lat="45.9658" lon="5.57107">
        <ele>735.8</ele>
        <time>2026-05-11T09:44:05Z</time>
      </trkpt>
      <trkpt lat="45.96581" lon="5.57109">
        <ele>736</ele>
        <time>2026-05-11T09:44:06Z</time>
      </trkpt>
      <trkpt lat="45.96581" lon="5.57112">
        <ele>736</ele>
        <time>2026-05-11T09:44:07Z</time>
      </trkpt>
      <trkpt lat="45.96582" lon="5.57115">
        <ele>736.4</ele>
        <time>2026-05-11T09:44:08Z</time>
      </trkpt>
      <trkpt lat="45.96582" lon="5.57118">
        <ele>736.4</ele>
        <time>2026-05-11T09:44:09Z</time>
      </trkpt>
      <trkpt lat="45.96582" lon="5.57121">
        <ele>736.6</ele>
        <time>2026-05-11T09:44:10Z</time>
      </trkpt>
      <trkpt lat="45.96583" lon="5.57124">
        <ele>736.6</ele>
        <time>2026-05-11T09:44:11Z</time>
      </trkpt>
      <trkpt lat="45.96583" lon="5.57127">
        <ele>737</ele>
        <time>2026-05-11T09:44:12Z</time>
      </trkpt>
      <trkpt lat="45.96583" lon="5.57129">
        <ele>737</ele>
        <time>2026-05-11T09:44:13Z</time>
      </trkpt>
      <trkpt lat="45.96583" lon="5.57132">
        <ele>737.2</ele>
        <time>2026-05-11T09:44:14Z</time>
      </trkpt>
      <trkpt lat="45.96583" lon="5.57137">
        <ele>737.2</ele>
        <time>2026-05-11T09:44:15Z</time>
      </trkpt>
      <trkpt lat="45.96584" lon="5.57139">
        <ele>737.6</ele>
        <time>2026-05-11T09:44:16Z</time>
      </trkpt>
      <trkpt lat="45.96584" lon="5.57142">
        <ele>737.6</ele>
        <time>2026-05-11T09:44:17Z</time>
      </trkpt>
      <trkpt lat="45.96585" lon="5.57145">
        <ele>738</ele>
        <time>2026-05-11T09:44:18Z</time>
      </trkpt>
      <trkpt lat="45.96585" lon="5.57147">
        <ele>738</ele>
        <time>2026-05-11T09:44:19Z</time>
      </trkpt>
      <trkpt lat="45.96585" lon="5.5715">
        <ele>738.2</ele>
        <time>2026-05-11T09:44:20Z</time>
      </trkpt>
      <trkpt lat="45.96585" lon="5.57152">
        <ele>738.2</ele>
        <time>2026-05-11T09:44:21Z</time>
      </trkpt>
      <trkpt lat="45.96585" lon="5.57155">
        <ele>738.6</ele>
        <time>2026-05-11T09:44:22Z</time>
      </trkpt>
      <trkpt lat="45.96585" lon="5.57157">
        <ele>738.6</ele>
        <time>2026-05-11T09:44:23Z</time>
      </trkpt>
      <trkpt lat="45.96585" lon="5.5716">
        <ele>738.6</ele>
        <time>2026-05-11T09:44:24Z</time>
      </trkpt>
      <trkpt lat="45.96585" lon="5.57162">
        <ele>738.8</ele>
        <time>2026-05-11T09:44:25Z</time>
      </trkpt>
      <trkpt lat="45.96585" lon="5.57164">
        <ele>739.2</ele>
        <time>2026-05-11T09:44:26Z</time>
      </trkpt>
      <trkpt lat="45.96585" lon="5.57166">
        <ele>739.2</ele>
        <time>2026-05-11T09:44:27Z</time>
      </trkpt>
      <trkpt lat="45.96585" lon="5.57169">
        <ele>739.4</ele>
        <time>2026-05-11T09:44:28Z</time>
      </trkpt>
      <trkpt lat="45.96586" lon="5.57171">
        <ele>739.4</ele>
        <time>2026-05-11T09:44:29Z</time>
      </trkpt>
      <trkpt lat="45.96586" lon="5.57174">
        <ele>739.8</ele>
        <time>2026-05-11T09:44:30Z</time>
      </trkpt>
      <trkpt lat="45.96586" lon="5.57176">
        <ele>739.8</ele>
        <time>2026-05-11T09:44:31Z</time>
      </trkpt>
      <trkpt lat="45.96586" lon="5.57179">
        <ele>739.8</ele>
        <time>2026-05-11T09:44:32Z</time>
      </trkpt>
      <trkpt lat="45.96586" lon="5.57183">
        <ele>740</ele>
        <time>2026-05-11T09:44:33Z</time>
      </trkpt>
      <trkpt lat="45.96586" lon="5.57187">
        <ele>740</ele>
        <time>2026-05-11T09:44:34Z</time>
      </trkpt>
      <trkpt lat="45.96587" lon="5.57191">
        <ele>740.2</ele>
        <time>2026-05-11T09:44:35Z</time>
      </trkpt>
      <trkpt lat="45.96588" lon="5.57195">
        <ele>740.2</ele>
        <time>2026-05-11T09:44:36Z</time>
      </trkpt>
      <trkpt lat="45.96589" lon="5.57199">
        <ele>740</ele>
        <time>2026-05-11T09:44:37Z</time>
      </trkpt>
      <trkpt lat="45.9659" lon="5.57203">
        <ele>740</ele>
        <time>2026-05-11T09:44:38Z</time>
      </trkpt>
      <trkpt lat="45.96591" lon="5.57208">
        <ele>740</ele>
        <time>2026-05-11T09:44:39Z</time>
      </trkpt>
      <trkpt lat="45.96593" lon="5.57212">
        <ele>739.6</ele>
        <time>2026-05-11T09:44:40Z</time>
      </trkpt>
      <trkpt lat="45.96594" lon="5.57218">
        <ele>739.6</ele>
        <time>2026-05-11T09:44:41Z</time>
      </trkpt>
      <trkpt lat="45.96596" lon="5.57223">
        <ele>739.6</ele>
        <time>2026-05-11T09:44:42Z</time>
      </trkpt>
      <trkpt lat="45.96598" lon="5.57228">
        <ele>739.6</ele>
        <time>2026-05-11T09:44:43Z</time>
      </trkpt>
      <trkpt lat="45.966" lon="5.57234">
        <ele>739.6</ele>
        <time>2026-05-11T09:44:44Z</time>
      </trkpt>
      <trkpt lat="45.96602" lon="5.57239">
        <ele>739.6</ele>
        <time>2026-05-11T09:44:45Z</time>
      </trkpt>
      <trkpt lat="45.96603" lon="5.57245">
        <ele>739.6</ele>
        <time>2026-05-11T09:44:46Z</time>
      </trkpt>
      <trkpt lat="45.96605" lon="5.57251">
        <ele>739.6</ele>
        <time>2026-05-11T09:44:47Z</time>
      </trkpt>
      <trkpt lat="45.96607" lon="5.57256">
        <ele>739.6</ele>
        <time>2026-05-11T09:44:48Z</time>
      </trkpt>
      <trkpt lat="45.96609" lon="5.57262">
        <ele>739.4</ele>
        <time>2026-05-11T09:44:49Z</time>
      </trkpt>
      <trkpt lat="45.9661" lon="5.57268">
        <ele>739.4</ele>
        <time>2026-05-11T09:44:50Z</time>
      </trkpt>
      <trkpt lat="45.96612" lon="5.57273">
        <ele>739.4</ele>
        <time>2026-05-11T09:44:51Z</time>
      </trkpt>
      <trkpt lat="45.96614" lon="5.57279">
        <ele>739.4</ele>
        <time>2026-05-11T09:44:52Z</time>
      </trkpt>
      <trkpt lat="45.96615" lon="5.57284">
        <ele>739.4</ele>
        <time>2026-05-11T09:44:53Z</time>
      </trkpt>
      <trkpt lat="45.96617" lon="5.5729">
        <ele>739.4</ele>
        <time>2026-05-11T09:44:54Z</time>
      </trkpt>
      <trkpt lat="45.96619" lon="5.57297">
        <ele>739.4</ele>
        <time>2026-05-11T09:44:55Z</time>
      </trkpt>
      <trkpt lat="45.9662" lon="5.57303">
        <ele>739.4</ele>
        <time>2026-05-11T09:44:56Z</time>
      </trkpt>
      <trkpt lat="45.96622" lon="5.57309">
        <ele>739.4</ele>
        <time>2026-05-11T09:44:57Z</time>
      </trkpt>
      <trkpt lat="45.96623" lon="5.57315">
        <ele>739.4</ele>
        <time>2026-05-11T09:44:58Z</time>
      </trkpt>
      <trkpt lat="45.96625" lon="5.57322">
        <ele>739.4</ele>
        <time>2026-05-11T09:44:59Z</time>
      </trkpt>
      <trkpt lat="45.96626" lon="5.57328">
        <ele>739.4</ele>
        <time>2026-05-11T09:45:00Z</time>
      </trkpt>
      <trkpt lat="45.96628" lon="5.57334">
        <ele>739.4</ele>
        <time>2026-05-11T09:45:01Z</time>
      </trkpt>
      <trkpt lat="45.9663" lon="5.5734">
        <ele>739.4</ele>
        <time>2026-05-11T09:45:02Z</time>
      </trkpt>
      <trkpt lat="45.96632" lon="5.57347">
        <ele>739.2</ele>
        <time>2026-05-11T09:45:03Z</time>
      </trkpt>
      <trkpt lat="45.96634" lon="5.57354">
        <ele>739.2</ele>
        <time>2026-05-11T09:45:04Z</time>
      </trkpt>
      <trkpt lat="45.96636" lon="5.5736">
        <ele>739.2</ele>
        <time>2026-05-11T09:45:05Z</time>
      </trkpt>
      <trkpt lat="45.96638" lon="5.57367">
        <ele>739</ele>
        <time>2026-05-11T09:45:06Z</time>
      </trkpt>
      <trkpt lat="45.96639" lon="5.57374">
        <ele>738.6</ele>
        <time>2026-05-11T09:45:07Z</time>
      </trkpt>
      <trkpt lat="45.96641" lon="5.57381">
        <ele>738.6</ele>
        <time>2026-05-11T09:45:08Z</time>
      </trkpt>
      <trkpt lat="45.96643" lon="5.57387">
        <ele>738.6</ele>
        <time>2026-05-11T09:45:09Z</time>
      </trkpt>
      <trkpt lat="45.96645" lon="5.57393">
        <ele>738.6</ele>
        <time>2026-05-11T09:45:10Z</time>
      </trkpt>
      <trkpt lat="45.96646" lon="5.574">
        <ele>738.6</ele>
        <time>2026-05-11T09:45:11Z</time>
      </trkpt>
      <trkpt lat="45.96647" lon="5.57407">
        <ele>738.6</ele>
        <time>2026-05-11T09:45:12Z</time>
      </trkpt>
      <trkpt lat="45.96649" lon="5.57413">
        <ele>738.6</ele>
        <time>2026-05-11T09:45:13Z</time>
      </trkpt>
      <trkpt lat="45.96651" lon="5.57419">
        <ele>738.6</ele>
        <time>2026-05-11T09:45:14Z</time>
      </trkpt>
      <trkpt lat="45.96652" lon="5.57425">
        <ele>738.6</ele>
        <time>2026-05-11T09:45:15Z</time>
      </trkpt>
      <trkpt lat="45.96654" lon="5.57431">
        <ele>738.6</ele>
        <time>2026-05-11T09:45:16Z</time>
      </trkpt>
      <trkpt lat="45.96655" lon="5.57437">
        <ele>738.6</ele>
        <time>2026-05-11T09:45:17Z</time>
      </trkpt>
      <trkpt lat="45.96657" lon="5.57443">
        <ele>738.6</ele>
        <time>2026-05-11T09:45:18Z</time>
      </trkpt>
      <trkpt lat="45.96659" lon="5.57449">
        <ele>738.6</ele>
        <time>2026-05-11T09:45:19Z</time>
      </trkpt>
      <trkpt lat="45.9666" lon="5.57455">
        <ele>738.6</ele>
        <time>2026-05-11T09:45:20Z</time>
      </trkpt>
      <trkpt lat="45.96662" lon="5.57461">
        <ele>738.6</ele>
        <time>2026-05-11T09:45:21Z</time>
      </trkpt>
      <trkpt lat="45.96663" lon="5.57468">
        <ele>738.6</ele>
        <time>2026-05-11T09:45:22Z</time>
      </trkpt>
      <trkpt lat="45.96664" lon="5.57474">
        <ele>738.6</ele>
        <time>2026-05-11T09:45:23Z</time>
      </trkpt>
      <trkpt lat="45.96666" lon="5.5748">
        <ele>738.4</ele>
        <time>2026-05-11T09:45:24Z</time>
      </trkpt>
      <trkpt lat="45.96667" lon="5.57487">
        <ele>738.4</ele>
        <time>2026-05-11T09:45:25Z</time>
      </trkpt>
      <trkpt lat="45.96668" lon="5.57493">
        <ele>738.4</ele>
        <time>2026-05-11T09:45:26Z</time>
      </trkpt>
      <trkpt lat="45.96669" lon="5.57499">
        <ele>738.4</ele>
        <time>2026-05-11T09:45:27Z</time>
      </trkpt>
      <trkpt lat="45.96671" lon="5.57506">
        <ele>738.4</ele>
        <time>2026-05-11T09:45:28Z</time>
      </trkpt>
      <trkpt lat="45.96673" lon="5.57512">
        <ele>738.4</ele>
        <time>2026-05-11T09:45:29Z</time>
      </trkpt>
      <trkpt lat="45.96675" lon="5.57518">
        <ele>738.4</ele>
        <time>2026-05-11T09:45:30Z</time>
      </trkpt>
      <trkpt lat="45.96677" lon="5.57525">
        <ele>738.4</ele>
        <time>2026-05-11T09:45:31Z</time>
      </trkpt>
      <trkpt lat="45.96679" lon="5.57531">
        <ele>738.2</ele>
        <time>2026-05-11T09:45:32Z</time>
      </trkpt>
      <trkpt lat="45.96681" lon="5.57537">
        <ele>738.2</ele>
        <time>2026-05-11T09:45:33Z</time>
      </trkpt>
      <trkpt lat="45.96684" lon="5.57543">
        <ele>738.2</ele>
        <time>2026-05-11T09:45:34Z</time>
      </trkpt>
      <trkpt lat="45.96686" lon="5.57549">
        <ele>738.2</ele>
        <time>2026-05-11T09:45:35Z</time>
      </trkpt>
      <trkpt lat="45.96689" lon="5.57554">
        <ele>738</ele>
        <time>2026-05-11T09:45:36Z</time>
      </trkpt>
      <trkpt lat="45.96691" lon="5.57559">
        <ele>738</ele>
        <time>2026-05-11T09:45:37Z</time>
      </trkpt>
      <trkpt lat="45.96693" lon="5.57564">
        <ele>738.2</ele>
        <time>2026-05-11T09:45:38Z</time>
      </trkpt>
      <trkpt lat="45.96696" lon="5.5757">
        <ele>738.2</ele>
        <time>2026-05-11T09:45:39Z</time>
      </trkpt>
      <trkpt lat="45.96699" lon="5.57574">
        <ele>737.8</ele>
        <time>2026-05-11T09:45:40Z</time>
      </trkpt>
      <trkpt lat="45.96703" lon="5.57579">
        <ele>737.8</ele>
        <time>2026-05-11T09:45:41Z</time>
      </trkpt>
      <trkpt lat="45.96706" lon="5.57582">
        <ele>737.8</ele>
        <time>2026-05-11T09:45:42Z</time>
      </trkpt>
      <trkpt lat="45.96709" lon="5.57585">
        <ele>738</ele>
        <time>2026-05-11T09:45:43Z</time>
      </trkpt>
      <trkpt lat="45.96712" lon="5.57588">
        <ele>738</ele>
        <time>2026-05-11T09:45:44Z</time>
      </trkpt>
      <trkpt lat="45.96716" lon="5.57593">
        <ele>738</ele>
        <time>2026-05-11T09:45:45Z</time>
      </trkpt>
      <trkpt lat="45.9672" lon="5.57596">
        <ele>738</ele>
        <time>2026-05-11T09:45:46Z</time>
      </trkpt>
      <trkpt lat="45.96725" lon="5.57598">
        <ele>738</ele>
        <time>2026-05-11T09:45:47Z</time>
      </trkpt>
      <trkpt lat="45.96729" lon="5.576">
        <ele>737.8</ele>
        <time>2026-05-11T09:45:48Z</time>
      </trkpt>
      <trkpt lat="45.96734" lon="5.57602">
        <ele>737.8</ele>
        <time>2026-05-11T09:45:49Z</time>
      </trkpt>
      <trkpt lat="45.96739" lon="5.57603">
        <ele>737.6</ele>
        <time>2026-05-11T09:45:50Z</time>
      </trkpt>
      <trkpt lat="45.96744" lon="5.57604">
        <ele>737.4</ele>
        <time>2026-05-11T09:45:51Z</time>
      </trkpt>
      <trkpt lat="45.9675" lon="5.57604">
        <ele>737.4</ele>
        <time>2026-05-11T09:45:52Z</time>
      </trkpt>
      <trkpt lat="45.96755" lon="5.57604">
        <ele>737.4</ele>
        <time>2026-05-11T09:45:53Z</time>
      </trkpt>
      <trkpt lat="45.9676" lon="5.57604">
        <ele>737</ele>
        <time>2026-05-11T09:45:54Z</time>
      </trkpt>
      <trkpt lat="45.96766" lon="5.57603">
        <ele>737</ele>
        <time>2026-05-11T09:45:55Z</time>
      </trkpt>
      <trkpt lat="45.96771" lon="5.576">
        <ele>737</ele>
        <time>2026-05-11T09:45:56Z</time>
      </trkpt>
      <trkpt lat="45.96775" lon="5.57596">
        <ele>736.8</ele>
        <time>2026-05-11T09:45:57Z</time>
      </trkpt>
      <trkpt lat="45.9678" lon="5.57593">
        <ele>736.4</ele>
        <time>2026-05-11T09:45:58Z</time>
      </trkpt>
      <trkpt lat="45.96785" lon="5.57589">
        <ele>736.4</ele>
        <time>2026-05-11T09:45:59Z</time>
      </trkpt>
      <trkpt lat="45.96788" lon="5.57584">
        <ele>736.4</ele>
        <time>2026-05-11T09:46:00Z</time>
      </trkpt>
      <trkpt lat="45.96792" lon="5.57579">
        <ele>736.4</ele>
        <time>2026-05-11T09:46:01Z</time>
      </trkpt>
      <trkpt lat="45.96795" lon="5.57573">
        <ele>736.4</ele>
        <time>2026-05-11T09:46:02Z</time>
      </trkpt>
      <trkpt lat="45.96799" lon="5.57568">
        <ele>736.4</ele>
        <time>2026-05-11T09:46:03Z</time>
      </trkpt>
      <trkpt lat="45.96801" lon="5.57562">
        <ele>736.4</ele>
        <time>2026-05-11T09:46:04Z</time>
      </trkpt>
      <trkpt lat="45.96804" lon="5.57557">
        <ele>736.4</ele>
        <time>2026-05-11T09:46:05Z</time>
      </trkpt>
      <trkpt lat="45.96808" lon="5.57552">
        <ele>736.8</ele>
        <time>2026-05-11T09:46:06Z</time>
      </trkpt>
      <trkpt lat="45.96812" lon="5.57547">
        <ele>736.8</ele>
        <time>2026-05-11T09:46:07Z</time>
      </trkpt>
      <trkpt lat="45.96815" lon="5.57542">
        <ele>736.8</ele>
        <time>2026-05-11T09:46:08Z</time>
      </trkpt>
      <trkpt lat="45.96819" lon="5.57537">
        <ele>736.8</ele>
        <time>2026-05-11T09:46:09Z</time>
      </trkpt>
      <trkpt lat="45.96823" lon="5.57533">
        <ele>736.8</ele>
        <time>2026-05-11T09:46:10Z</time>
      </trkpt>
      <trkpt lat="45.96828" lon="5.57532">
        <ele>736.8</ele>
        <time>2026-05-11T09:46:11Z</time>
      </trkpt>
      <trkpt lat="45.96832" lon="5.5753">
        <ele>736.8</ele>
        <time>2026-05-11T09:46:12Z</time>
      </trkpt>
      <trkpt lat="45.96836" lon="5.57529">
        <ele>736.8</ele>
        <time>2026-05-11T09:46:13Z</time>
      </trkpt>
      <trkpt lat="45.9684" lon="5.57528">
        <ele>736.8</ele>
        <time>2026-05-11T09:46:14Z</time>
      </trkpt>
      <trkpt lat="45.96845" lon="5.57527">
        <ele>736.8</ele>
        <time>2026-05-11T09:46:15Z</time>
      </trkpt>
      <trkpt lat="45.96849" lon="5.57527">
        <ele>736.8</ele>
        <time>2026-05-11T09:46:16Z</time>
      </trkpt>
      <trkpt lat="45.96854" lon="5.57526">
        <ele>736.8</ele>
        <time>2026-05-11T09:46:17Z</time>
      </trkpt>
      <trkpt lat="45.96858" lon="5.57526">
        <ele>736.8</ele>
        <time>2026-05-11T09:46:18Z</time>
      </trkpt>
      <trkpt lat="45.96863" lon="5.57527">
        <ele>736.8</ele>
        <time>2026-05-11T09:46:19Z</time>
      </trkpt>
      <trkpt lat="45.96868" lon="5.57529">
        <ele>736.8</ele>
        <time>2026-05-11T09:46:20Z</time>
      </trkpt>
      <trkpt lat="45.96872" lon="5.57534">
        <ele>736.8</ele>
        <time>2026-05-11T09:46:21Z</time>
      </trkpt>
      <trkpt lat="45.96877" lon="5.57538">
        <ele>736.8</ele>
        <time>2026-05-11T09:46:22Z</time>
      </trkpt>
      <trkpt lat="45.96881" lon="5.57543">
        <ele>736.8</ele>
        <time>2026-05-11T09:46:23Z</time>
      </trkpt>
      <trkpt lat="45.96885" lon="5.57548">
        <ele>736.4</ele>
        <time>2026-05-11T09:46:24Z</time>
      </trkpt>
      <trkpt lat="45.96889" lon="5.57552">
        <ele>736.4</ele>
        <time>2026-05-11T09:46:25Z</time>
      </trkpt>
      <trkpt lat="45.96892" lon="5.57557">
        <ele>736.4</ele>
        <time>2026-05-11T09:46:26Z</time>
      </trkpt>
      <trkpt lat="45.96895" lon="5.57562">
        <ele>736.2</ele>
        <time>2026-05-11T09:46:27Z</time>
      </trkpt>
      <trkpt lat="45.96898" lon="5.57568">
        <ele>736.2</ele>
        <time>2026-05-11T09:46:28Z</time>
      </trkpt>
      <trkpt lat="45.969" lon="5.57574">
        <ele>736.2</ele>
        <time>2026-05-11T09:46:29Z</time>
      </trkpt>
      <trkpt lat="45.96903" lon="5.57578">
        <ele>736.2</ele>
        <time>2026-05-11T09:46:30Z</time>
      </trkpt>
      <trkpt lat="45.96906" lon="5.57583">
        <ele>736.4</ele>
        <time>2026-05-11T09:46:31Z</time>
      </trkpt>
      <trkpt lat="45.96908" lon="5.57589">
        <ele>736.4</ele>
        <time>2026-05-11T09:46:32Z</time>
      </trkpt>
      <trkpt lat="45.9691" lon="5.57593">
        <ele>736.4</ele>
        <time>2026-05-11T09:46:33Z</time>
      </trkpt>
      <trkpt lat="45.96914" lon="5.57599">
        <ele>736.4</ele>
        <time>2026-05-11T09:46:34Z</time>
      </trkpt>
      <trkpt lat="45.96916" lon="5.57605">
        <ele>736.4</ele>
        <time>2026-05-11T09:46:35Z</time>
      </trkpt>
      <trkpt lat="45.96919" lon="5.5761">
        <ele>736.6</ele>
        <time>2026-05-11T09:46:36Z</time>
      </trkpt>
      <trkpt lat="45.96921" lon="5.57616">
        <ele>736.6</ele>
        <time>2026-05-11T09:46:37Z</time>
      </trkpt>
      <trkpt lat="45.96924" lon="5.57622">
        <ele>736.6</ele>
        <time>2026-05-11T09:46:38Z</time>
      </trkpt>
      <trkpt lat="45.96926" lon="5.57626">
        <ele>736.6</ele>
        <time>2026-05-11T09:46:39Z</time>
      </trkpt>
      <trkpt lat="45.96928" lon="5.57631">
        <ele>736.6</ele>
        <time>2026-05-11T09:46:40Z</time>
      </trkpt>
      <trkpt lat="45.96931" lon="5.57636">
        <ele>736.6</ele>
        <time>2026-05-11T09:46:41Z</time>
      </trkpt>
      <trkpt lat="45.96933" lon="5.57641">
        <ele>736.6</ele>
        <time>2026-05-11T09:46:42Z</time>
      </trkpt>
      <trkpt lat="45.96933" lon="5.57641">
        <ele>737</ele>
        <time>2026-05-11T09:46:43Z</time>
      </trkpt>
      <trkpt lat="45.96936" lon="5.57646">
        <ele>737</ele>
        <time>2026-05-11T09:46:44Z</time>
      </trkpt>
      <trkpt lat="45.96939" lon="5.57652">
        <ele>737</ele>
        <time>2026-05-11T09:46:45Z</time>
      </trkpt>
      <trkpt lat="45.96941" lon="5.57657">
        <ele>737.2</ele>
        <time>2026-05-11T09:46:46Z</time>
      </trkpt>
      <trkpt lat="45.96944" lon="5.57662">
        <ele>737.6</ele>
        <time>2026-05-11T09:46:47Z</time>
      </trkpt>
      <trkpt lat="45.96946" lon="5.57667">
        <ele>737.6</ele>
        <time>2026-05-11T09:46:48Z</time>
      </trkpt>
      <trkpt lat="45.96949" lon="5.57672">
        <ele>737.6</ele>
        <time>2026-05-11T09:46:49Z</time>
      </trkpt>
      <trkpt lat="45.9695" lon="5.57676">
        <ele>737.6</ele>
        <time>2026-05-11T09:46:50Z</time>
      </trkpt>
      <trkpt lat="45.96953" lon="5.5768">
        <ele>737.6</ele>
        <time>2026-05-11T09:46:51Z</time>
      </trkpt>
      <trkpt lat="45.96955" lon="5.57685">
        <ele>737.8</ele>
        <time>2026-05-11T09:46:52Z</time>
      </trkpt>
      <trkpt lat="45.96957" lon="5.57688">
        <ele>737.8</ele>
        <time>2026-05-11T09:46:53Z</time>
      </trkpt>
      <trkpt lat="45.9696" lon="5.57691">
        <ele>737.8</ele>
        <time>2026-05-11T09:46:54Z</time>
      </trkpt>
      <trkpt lat="45.96964" lon="5.57692">
        <ele>737.8</ele>
        <time>2026-05-11T09:46:55Z</time>
      </trkpt>
      <trkpt lat="45.96967" lon="5.57692">
        <ele>738</ele>
        <time>2026-05-11T09:46:56Z</time>
      </trkpt>
      <trkpt lat="45.96971" lon="5.5769">
        <ele>738</ele>
        <time>2026-05-11T09:46:57Z</time>
      </trkpt>
      <trkpt lat="45.96974" lon="5.57688">
        <ele>738.2</ele>
        <time>2026-05-11T09:46:58Z</time>
      </trkpt>
      <trkpt lat="45.96977" lon="5.57686">
        <ele>738.2</ele>
        <time>2026-05-11T09:46:59Z</time>
      </trkpt>
      <trkpt lat="45.96979" lon="5.57683">
        <ele>738.4</ele>
        <time>2026-05-11T09:47:00Z</time>
      </trkpt>
      <trkpt lat="45.96981" lon="5.57681">
        <ele>738.4</ele>
        <time>2026-05-11T09:47:01Z</time>
      </trkpt>
      <trkpt lat="45.96983" lon="5.57679">
        <ele>738.4</ele>
        <time>2026-05-11T09:47:02Z</time>
      </trkpt>
      <trkpt lat="45.96986" lon="5.57677">
        <ele>738.8</ele>
        <time>2026-05-11T09:47:03Z</time>
      </trkpt>
      <trkpt lat="45.96987" lon="5.57675">
        <ele>738.8</ele>
        <time>2026-05-11T09:47:04Z</time>
      </trkpt>
      <trkpt lat="45.96989" lon="5.57674">
        <ele>739.2</ele>
        <time>2026-05-11T09:47:05Z</time>
      </trkpt>
      <trkpt lat="45.96991" lon="5.57672">
        <ele>739.2</ele>
        <time>2026-05-11T09:47:06Z</time>
      </trkpt>
      <trkpt lat="45.96992" lon="5.5767">
        <ele>739.4</ele>
        <time>2026-05-11T09:47:07Z</time>
      </trkpt>
      <trkpt lat="45.96993" lon="5.57668">
        <ele>739.8</ele>
        <time>2026-05-11T09:47:08Z</time>
      </trkpt>
      <trkpt lat="45.96995" lon="5.57666">
        <ele>739.8</ele>
        <time>2026-05-11T09:47:09Z</time>
      </trkpt>
      <trkpt lat="45.96996" lon="5.57665">
        <ele>740.2</ele>
        <time>2026-05-11T09:47:10Z</time>
      </trkpt>
      <trkpt lat="45.96998" lon="5.57664">
        <ele>740.4</ele>
        <time>2026-05-11T09:47:11Z</time>
      </trkpt>
      <trkpt lat="45.96999" lon="5.57662">
        <ele>740.8</ele>
        <time>2026-05-11T09:47:12Z</time>
      </trkpt>
      <trkpt lat="45.97001" lon="5.57661">
        <ele>741.2</ele>
        <time>2026-05-11T09:47:13Z</time>
      </trkpt>
      <trkpt lat="45.97002" lon="5.57659">
        <ele>741.2</ele>
        <time>2026-05-11T09:47:14Z</time>
      </trkpt>
      <trkpt lat="45.97003" lon="5.57657">
        <ele>741.2</ele>
        <time>2026-05-11T09:47:15Z</time>
      </trkpt>
      <trkpt lat="45.97004" lon="5.57655">
        <ele>741.4</ele>
        <time>2026-05-11T09:47:16Z</time>
      </trkpt>
      <trkpt lat="45.97005" lon="5.57653">
        <ele>741.4</ele>
        <time>2026-05-11T09:47:17Z</time>
      </trkpt>
      <trkpt lat="45.97007" lon="5.57651">
        <ele>742</ele>
        <time>2026-05-11T09:47:18Z</time>
      </trkpt>
      <trkpt lat="45.97008" lon="5.5765">
        <ele>742.2</ele>
        <time>2026-05-11T09:47:19Z</time>
      </trkpt>
      <trkpt lat="45.97009" lon="5.57648">
        <ele>742.4</ele>
        <time>2026-05-11T09:47:20Z</time>
      </trkpt>
      <trkpt lat="45.9701" lon="5.57647">
        <ele>742.4</ele>
        <time>2026-05-11T09:47:21Z</time>
      </trkpt>
      <trkpt lat="45.97011" lon="5.57645">
        <ele>742.4</ele>
        <time>2026-05-11T09:47:22Z</time>
      </trkpt>
      <trkpt lat="45.97012" lon="5.57643">
        <ele>742.8</ele>
        <time>2026-05-11T09:47:23Z</time>
      </trkpt>
      <trkpt lat="45.97013" lon="5.57641">
        <ele>742.8</ele>
        <time>2026-05-11T09:47:24Z</time>
      </trkpt>
      <trkpt lat="45.97014" lon="5.57639">
        <ele>743.2</ele>
        <time>2026-05-11T09:47:25Z</time>
      </trkpt>
      <trkpt lat="45.97014" lon="5.57636">
        <ele>743.4</ele>
        <time>2026-05-11T09:47:26Z</time>
      </trkpt>
      <trkpt lat="45.97015" lon="5.57631">
        <ele>743.6</ele>
        <time>2026-05-11T09:47:27Z</time>
      </trkpt>
      <trkpt lat="45.97016" lon="5.57629">
        <ele>743.8</ele>
        <time>2026-05-11T09:47:28Z</time>
      </trkpt>
      <trkpt lat="45.97015" lon="5.57627">
        <ele>744.2</ele>
        <time>2026-05-11T09:47:29Z</time>
      </trkpt>
      <trkpt lat="45.97015" lon="5.57624">
        <ele>744.4</ele>
        <time>2026-05-11T09:47:30Z</time>
      </trkpt>
      <trkpt lat="45.97015" lon="5.57622">
        <ele>744.6</ele>
        <time>2026-05-11T09:47:31Z</time>
      </trkpt>
      <trkpt lat="45.97015" lon="5.57619">
        <ele>744.8</ele>
        <time>2026-05-11T09:47:32Z</time>
      </trkpt>
      <trkpt lat="45.97015" lon="5.57617">
        <ele>744.8</ele>
        <time>2026-05-11T09:47:33Z</time>
      </trkpt>
      <trkpt lat="45.97015" lon="5.57615">
        <ele>745.2</ele>
        <time>2026-05-11T09:47:34Z</time>
      </trkpt>
      <trkpt lat="45.97015" lon="5.57613">
        <ele>745.6</ele>
        <time>2026-05-11T09:47:35Z</time>
      </trkpt>
      <trkpt lat="45.97014" lon="5.57611">
        <ele>746</ele>
        <time>2026-05-11T09:47:36Z</time>
      </trkpt>
      <trkpt lat="45.97013" lon="5.57609">
        <ele>746.2</ele>
        <time>2026-05-11T09:47:37Z</time>
      </trkpt>
      <trkpt lat="45.97012" lon="5.57608">
        <ele>746.2</ele>
        <time>2026-05-11T09:47:38Z</time>
      </trkpt>
      <trkpt lat="45.97011" lon="5.57606">
        <ele>746.4</ele>
        <time>2026-05-11T09:47:39Z</time>
      </trkpt>
      <trkpt lat="45.97009" lon="5.57604">
        <ele>746.8</ele>
        <time>2026-05-11T09:47:40Z</time>
      </trkpt>
      <trkpt lat="45.97008" lon="5.57602">
        <ele>746.8</ele>
        <time>2026-05-11T09:47:41Z</time>
      </trkpt>
      <trkpt lat="45.97007" lon="5.576">
        <ele>747</ele>
        <time>2026-05-11T09:47:42Z</time>
      </trkpt>
      <trkpt lat="45.97006" lon="5.57598">
        <ele>747.4</ele>
        <time>2026-05-11T09:47:43Z</time>
      </trkpt>
      <trkpt lat="45.97005" lon="5.57596">
        <ele>747.8</ele>
        <time>2026-05-11T09:47:44Z</time>
      </trkpt>
      <trkpt lat="45.97004" lon="5.57594">
        <ele>747.8</ele>
        <time>2026-05-11T09:47:45Z</time>
      </trkpt>
      <trkpt lat="45.97004" lon="5.57591">
        <ele>748</ele>
        <time>2026-05-11T09:47:46Z</time>
      </trkpt>
      <trkpt lat="45.97003" lon="5.57589">
        <ele>748.2</ele>
        <time>2026-05-11T09:47:47Z</time>
      </trkpt>
      <trkpt lat="45.97002" lon="5.57587">
        <ele>748.6</ele>
        <time>2026-05-11T09:47:48Z</time>
      </trkpt>
      <trkpt lat="45.97001" lon="5.57585">
        <ele>748.8</ele>
        <time>2026-05-11T09:47:49Z</time>
      </trkpt>
      <trkpt lat="45.97" lon="5.57584">
        <ele>749.2</ele>
        <time>2026-05-11T09:47:50Z</time>
      </trkpt>
      <trkpt lat="45.96999" lon="5.57582">
        <ele>749.2</ele>
        <time>2026-05-11T09:47:51Z</time>
      </trkpt>
      <trkpt lat="45.96998" lon="5.5758">
        <ele>749.4</ele>
        <time>2026-05-11T09:47:52Z</time>
      </trkpt>
      <trkpt lat="45.96997" lon="5.57579">
        <ele>749.4</ele>
        <time>2026-05-11T09:47:53Z</time>
      </trkpt>
      <trkpt lat="45.96996" lon="5.57577">
        <ele>749.4</ele>
        <time>2026-05-11T09:47:54Z</time>
      </trkpt>
      <trkpt lat="45.96995" lon="5.57575">
        <ele>749.8</ele>
        <time>2026-05-11T09:47:55Z</time>
      </trkpt>
      <trkpt lat="45.96993" lon="5.57573">
        <ele>749.8</ele>
        <time>2026-05-11T09:47:56Z</time>
      </trkpt>
      <trkpt lat="45.96992" lon="5.57571">
        <ele>749.8</ele>
        <time>2026-05-11T09:47:57Z</time>
      </trkpt>
      <trkpt lat="45.96991" lon="5.5757">
        <ele>750</ele>
        <time>2026-05-11T09:47:58Z</time>
      </trkpt>
      <trkpt lat="45.9699" lon="5.57568">
        <ele>750</ele>
        <time>2026-05-11T09:47:59Z</time>
      </trkpt>
      <trkpt lat="45.96989" lon="5.57566">
        <ele>750.4</ele>
        <time>2026-05-11T09:48:00Z</time>
      </trkpt>
      <trkpt lat="45.96988" lon="5.57564">
        <ele>750.4</ele>
        <time>2026-05-11T09:48:01Z</time>
      </trkpt>
      <trkpt lat="45.96987" lon="5.57562">
        <ele>750.6</ele>
        <time>2026-05-11T09:48:02Z</time>
      </trkpt>
      <trkpt lat="45.96987" lon="5.5756">
        <ele>750.8</ele>
        <time>2026-05-11T09:48:03Z</time>
      </trkpt>
      <trkpt lat="45.96986" lon="5.57558">
        <ele>750.8</ele>
        <time>2026-05-11T09:48:04Z</time>
      </trkpt>
      <trkpt lat="45.96986" lon="5.57555">
        <ele>751.2</ele>
        <time>2026-05-11T09:48:05Z</time>
      </trkpt>
      <trkpt lat="45.96985" lon="5.57553">
        <ele>751.2</ele>
        <time>2026-05-11T09:48:06Z</time>
      </trkpt>
      <trkpt lat="45.96985" lon="5.57551">
        <ele>751.4</ele>
        <time>2026-05-11T09:48:07Z</time>
      </trkpt>
      <trkpt lat="45.96985" lon="5.57549">
        <ele>751.4</ele>
        <time>2026-05-11T09:48:08Z</time>
      </trkpt>
      <trkpt lat="45.96985" lon="5.57548">
        <ele>751.6</ele>
        <time>2026-05-11T09:48:09Z</time>
      </trkpt>
      <trkpt lat="45.96984" lon="5.57546">
        <ele>751.6</ele>
        <time>2026-05-11T09:48:10Z</time>
      </trkpt>
      <trkpt lat="45.96984" lon="5.57543">
        <ele>752</ele>
        <time>2026-05-11T09:48:11Z</time>
      </trkpt>
      <trkpt lat="45.96984" lon="5.57541">
        <ele>752</ele>
        <time>2026-05-11T09:48:12Z</time>
      </trkpt>
      <trkpt lat="45.96983" lon="5.57538">
        <ele>752.2</ele>
        <time>2026-05-11T09:48:13Z</time>
      </trkpt>
      <trkpt lat="45.96983" lon="5.57536">
        <ele>752.2</ele>
        <time>2026-05-11T09:48:14Z</time>
      </trkpt>
      <trkpt lat="45.96984" lon="5.57534">
        <ele>752.6</ele>
        <time>2026-05-11T09:48:15Z</time>
      </trkpt>
      <trkpt lat="45.96984" lon="5.57532">
        <ele>752.8</ele>
        <time>2026-05-11T09:48:16Z</time>
      </trkpt>
      <trkpt lat="45.96985" lon="5.5753">
        <ele>753</ele>
        <time>2026-05-11T09:48:17Z</time>
      </trkpt>
      <trkpt lat="45.96985" lon="5.57528">
        <ele>753.2</ele>
        <time>2026-05-11T09:48:18Z</time>
      </trkpt>
      <trkpt lat="45.96987" lon="5.57527">
        <ele>753.4</ele>
        <time>2026-05-11T09:48:19Z</time>
      </trkpt>
      <trkpt lat="45.96988" lon="5.57525">
        <ele>753.4</ele>
        <time>2026-05-11T09:48:20Z</time>
      </trkpt>
      <trkpt lat="45.96989" lon="5.57524">
        <ele>753.8</ele>
        <time>2026-05-11T09:48:21Z</time>
      </trkpt>
      <trkpt lat="45.9699" lon="5.57523">
        <ele>753.8</ele>
        <time>2026-05-11T09:48:22Z</time>
      </trkpt>
      <trkpt lat="45.96991" lon="5.57523">
        <ele>754</ele>
        <time>2026-05-11T09:48:23Z</time>
      </trkpt>
      <trkpt lat="45.96993" lon="5.57522">
        <ele>754.4</ele>
        <time>2026-05-11T09:48:24Z</time>
      </trkpt>
      <trkpt lat="45.96995" lon="5.57522">
        <ele>754.6</ele>
        <time>2026-05-11T09:48:25Z</time>
      </trkpt>
      <trkpt lat="45.96996" lon="5.57522">
        <ele>754.6</ele>
        <time>2026-05-11T09:48:26Z</time>
      </trkpt>
      <trkpt lat="45.96998" lon="5.57522">
        <ele>754.6</ele>
        <time>2026-05-11T09:48:27Z</time>
      </trkpt>
      <trkpt lat="45.96999" lon="5.57522">
        <ele>755</ele>
        <time>2026-05-11T09:48:28Z</time>
      </trkpt>
      <trkpt lat="45.97001" lon="5.57522">
        <ele>755</ele>
        <time>2026-05-11T09:48:29Z</time>
      </trkpt>
      <trkpt lat="45.97003" lon="5.57522">
        <ele>755.2</ele>
        <time>2026-05-11T09:48:30Z</time>
      </trkpt>
      <trkpt lat="45.97005" lon="5.57522">
        <ele>755.4</ele>
        <time>2026-05-11T09:48:31Z</time>
      </trkpt>
      <trkpt lat="45.97007" lon="5.57522">
        <ele>755.6</ele>
        <time>2026-05-11T09:48:32Z</time>
      </trkpt>
      <trkpt lat="45.97009" lon="5.57522">
        <ele>755.6</ele>
        <time>2026-05-11T09:48:33Z</time>
      </trkpt>
      <trkpt lat="45.97011" lon="5.57522">
        <ele>756</ele>
        <time>2026-05-11T09:48:34Z</time>
      </trkpt>
      <trkpt lat="45.97012" lon="5.57522">
        <ele>756</ele>
        <time>2026-05-11T09:48:35Z</time>
      </trkpt>
      <trkpt lat="45.97014" lon="5.57522">
        <ele>756.2</ele>
        <time>2026-05-11T09:48:36Z</time>
      </trkpt>
      <trkpt lat="45.97016" lon="5.57522">
        <ele>756.2</ele>
        <time>2026-05-11T09:48:37Z</time>
      </trkpt>
      <trkpt lat="45.97017" lon="5.57522">
        <ele>756.6</ele>
        <time>2026-05-11T09:48:38Z</time>
      </trkpt>
      <trkpt lat="45.97019" lon="5.57523">
        <ele>756.8</ele>
        <time>2026-05-11T09:48:39Z</time>
      </trkpt>
      <trkpt lat="45.9702" lon="5.57523">
        <ele>756.8</ele>
        <time>2026-05-11T09:48:40Z</time>
      </trkpt>
      <trkpt lat="45.97021" lon="5.57523">
        <ele>756.8</ele>
        <time>2026-05-11T09:48:41Z</time>
      </trkpt>
      <trkpt lat="45.97023" lon="5.57523">
        <ele>757</ele>
        <time>2026-05-11T09:48:42Z</time>
      </trkpt>
      <trkpt lat="45.97025" lon="5.57523">
        <ele>757</ele>
        <time>2026-05-11T09:48:43Z</time>
      </trkpt>
      <trkpt lat="45.97026" lon="5.57524">
        <ele>757.2</ele>
        <time>2026-05-11T09:48:44Z</time>
      </trkpt>
      <trkpt lat="45.97028" lon="5.57524">
        <ele>757.2</ele>
        <time>2026-05-11T09:48:45Z</time>
      </trkpt>
      <trkpt lat="45.9703" lon="5.57525">
        <ele>757.2</ele>
        <time>2026-05-11T09:48:46Z</time>
      </trkpt>
      <trkpt lat="45.97032" lon="5.57525">
        <ele>757.2</ele>
        <time>2026-05-11T09:48:47Z</time>
      </trkpt>
      <trkpt lat="45.97033" lon="5.57524">
        <ele>757.8</ele>
        <time>2026-05-11T09:48:48Z</time>
      </trkpt>
      <trkpt lat="45.97035" lon="5.57524">
        <ele>757.8</ele>
        <time>2026-05-11T09:48:49Z</time>
      </trkpt>
      <trkpt lat="45.97036" lon="5.57524">
        <ele>758.2</ele>
        <time>2026-05-11T09:48:50Z</time>
      </trkpt>
      <trkpt lat="45.97037" lon="5.57525">
        <ele>758.2</ele>
        <time>2026-05-11T09:48:51Z</time>
      </trkpt>
      <trkpt lat="45.97039" lon="5.57525">
        <ele>758.4</ele>
        <time>2026-05-11T09:48:52Z</time>
      </trkpt>
      <trkpt lat="45.97041" lon="5.57525">
        <ele>758.8</ele>
        <time>2026-05-11T09:48:53Z</time>
      </trkpt>
      <trkpt lat="45.97043" lon="5.57525">
        <ele>759</ele>
        <time>2026-05-11T09:48:54Z</time>
      </trkpt>
      <trkpt lat="45.97044" lon="5.57525">
        <ele>759</ele>
        <time>2026-05-11T09:48:55Z</time>
      </trkpt>
      <trkpt lat="45.97045" lon="5.57524">
        <ele>759.2</ele>
        <time>2026-05-11T09:48:56Z</time>
      </trkpt>
      <trkpt lat="45.97047" lon="5.57524">
        <ele>759.2</ele>
        <time>2026-05-11T09:48:57Z</time>
      </trkpt>
      <trkpt lat="45.97049" lon="5.57524">
        <ele>759.6</ele>
        <time>2026-05-11T09:48:58Z</time>
      </trkpt>
      <trkpt lat="45.9705" lon="5.57523">
        <ele>759.6</ele>
        <time>2026-05-11T09:48:59Z</time>
      </trkpt>
      <trkpt lat="45.97052" lon="5.57523">
        <ele>759.8</ele>
        <time>2026-05-11T09:49:00Z</time>
      </trkpt>
      <trkpt lat="45.97053" lon="5.57523">
        <ele>760</ele>
        <time>2026-05-11T09:49:01Z</time>
      </trkpt>
      <trkpt lat="45.97055" lon="5.57522">
        <ele>760</ele>
        <time>2026-05-11T09:49:02Z</time>
      </trkpt>
      <trkpt lat="45.97056" lon="5.57522">
        <ele>760.4</ele>
        <time>2026-05-11T09:49:03Z</time>
      </trkpt>
      <trkpt lat="45.97058" lon="5.57522">
        <ele>760.4</ele>
        <time>2026-05-11T09:49:04Z</time>
      </trkpt>
      <trkpt lat="45.9706" lon="5.57522">
        <ele>760.4</ele>
        <time>2026-05-11T09:49:05Z</time>
      </trkpt>
      <trkpt lat="45.97061" lon="5.57521">
        <ele>760.8</ele>
        <time>2026-05-11T09:49:06Z</time>
      </trkpt>
      <trkpt lat="45.97063" lon="5.57521">
        <ele>760.8</ele>
        <time>2026-05-11T09:49:07Z</time>
      </trkpt>
      <trkpt lat="45.97065" lon="5.5752">
        <ele>761.2</ele>
        <time>2026-05-11T09:49:08Z</time>
      </trkpt>
      <trkpt lat="45.97066" lon="5.5752">
        <ele>761.4</ele>
        <time>2026-05-11T09:49:09Z</time>
      </trkpt>
      <trkpt lat="45.97068" lon="5.5752">
        <ele>761.4</ele>
        <time>2026-05-11T09:49:10Z</time>
      </trkpt>
      <trkpt lat="45.9707" lon="5.5752">
        <ele>761.4</ele>
        <time>2026-05-11T09:49:11Z</time>
      </trkpt>
      <trkpt lat="45.97072" lon="5.57521">
        <ele>761.6</ele>
        <time>2026-05-11T09:49:12Z</time>
      </trkpt>
      <trkpt lat="45.97074" lon="5.57521">
        <ele>761.6</ele>
        <time>2026-05-11T09:49:13Z</time>
      </trkpt>
      <trkpt lat="45.97076" lon="5.57521">
        <ele>761.8</ele>
        <time>2026-05-11T09:49:14Z</time>
      </trkpt>
      <trkpt lat="45.97078" lon="5.57521">
        <ele>762.2</ele>
        <time>2026-05-11T09:49:15Z</time>
      </trkpt>
      <trkpt lat="45.97079" lon="5.57522">
        <ele>762.2</ele>
        <time>2026-05-11T09:49:16Z</time>
      </trkpt>
      <trkpt lat="45.97081" lon="5.57522">
        <ele>762.4</ele>
        <time>2026-05-11T09:49:17Z</time>
      </trkpt>
      <trkpt lat="45.97083" lon="5.57522">
        <ele>762.4</ele>
        <time>2026-05-11T09:49:18Z</time>
      </trkpt>
      <trkpt lat="45.97085" lon="5.57523">
        <ele>762.8</ele>
        <time>2026-05-11T09:49:19Z</time>
      </trkpt>
      <trkpt lat="45.97086" lon="5.57523">
        <ele>762.8</ele>
        <time>2026-05-11T09:49:20Z</time>
      </trkpt>
      <trkpt lat="45.97088" lon="5.57523">
        <ele>763.2</ele>
        <time>2026-05-11T09:49:21Z</time>
      </trkpt>
      <trkpt lat="45.9709" lon="5.57523">
        <ele>763.2</ele>
        <time>2026-05-11T09:49:22Z</time>
      </trkpt>
      <trkpt lat="45.97091" lon="5.57523">
        <ele>763.4</ele>
        <time>2026-05-11T09:49:23Z</time>
      </trkpt>
      <trkpt lat="45.97093" lon="5.57523">
        <ele>763.4</ele>
        <time>2026-05-11T09:49:24Z</time>
      </trkpt>
      <trkpt lat="45.97094" lon="5.57524">
        <ele>763.8</ele>
        <time>2026-05-11T09:49:25Z</time>
      </trkpt>
      <trkpt lat="45.97096" lon="5.57525">
        <ele>763.8</ele>
        <time>2026-05-11T09:49:26Z</time>
      </trkpt>
      <trkpt lat="45.97098" lon="5.57527">
        <ele>764</ele>
        <time>2026-05-11T09:49:27Z</time>
      </trkpt>
      <trkpt lat="45.97099" lon="5.57528">
        <ele>764</ele>
        <time>2026-05-11T09:49:28Z</time>
      </trkpt>
      <trkpt lat="45.97101" lon="5.57529">
        <ele>764</ele>
        <time>2026-05-11T09:49:29Z</time>
      </trkpt>
      <trkpt lat="45.97103" lon="5.5753">
        <ele>764</ele>
        <time>2026-05-11T09:49:30Z</time>
      </trkpt>
      <trkpt lat="45.97104" lon="5.57531">
        <ele>764.4</ele>
        <time>2026-05-11T09:49:31Z</time>
      </trkpt>
      <trkpt lat="45.97105" lon="5.57532">
        <ele>764.6</ele>
        <time>2026-05-11T09:49:32Z</time>
      </trkpt>
      <trkpt lat="45.97107" lon="5.57533">
        <ele>764.6</ele>
        <time>2026-05-11T09:49:33Z</time>
      </trkpt>
      <trkpt lat="45.97108" lon="5.57533">
        <ele>765.2</ele>
        <time>2026-05-11T09:49:34Z</time>
      </trkpt>
      <trkpt lat="45.9711" lon="5.57533">
        <ele>765.6</ele>
        <time>2026-05-11T09:49:35Z</time>
      </trkpt>
      <trkpt lat="45.97111" lon="5.57534">
        <ele>765.8</ele>
        <time>2026-05-11T09:49:36Z</time>
      </trkpt>
      <trkpt lat="45.97112" lon="5.57535">
        <ele>766</ele>
        <time>2026-05-11T09:49:37Z</time>
      </trkpt>
      <trkpt lat="45.97114" lon="5.57536">
        <ele>766.4</ele>
        <time>2026-05-11T09:49:38Z</time>
      </trkpt>
      <trkpt lat="45.97115" lon="5.57537">
        <ele>766.6</ele>
        <time>2026-05-11T09:49:39Z</time>
      </trkpt>
      <trkpt lat="45.97117" lon="5.57538">
        <ele>766.8</ele>
        <time>2026-05-11T09:49:40Z</time>
      </trkpt>
      <trkpt lat="45.97118" lon="5.57539">
        <ele>766.8</ele>
        <time>2026-05-11T09:49:41Z</time>
      </trkpt>
      <trkpt lat="45.97119" lon="5.57539">
        <ele>767</ele>
        <time>2026-05-11T09:49:42Z</time>
      </trkpt>
      <trkpt lat="45.97121" lon="5.5754">
        <ele>767</ele>
        <time>2026-05-11T09:49:43Z</time>
      </trkpt>
      <trkpt lat="45.97122" lon="5.57541">
        <ele>767</ele>
        <time>2026-05-11T09:49:44Z</time>
      </trkpt>
      <trkpt lat="45.97123" lon="5.57542">
        <ele>767.4</ele>
        <time>2026-05-11T09:49:45Z</time>
      </trkpt>
      <trkpt lat="45.97124" lon="5.57542">
        <ele>767.4</ele>
        <time>2026-05-11T09:49:46Z</time>
      </trkpt>
      <trkpt lat="45.97126" lon="5.57543">
        <ele>767.8</ele>
        <time>2026-05-11T09:49:47Z</time>
      </trkpt>
      <trkpt lat="45.97128" lon="5.57544">
        <ele>767.8</ele>
        <time>2026-05-11T09:49:48Z</time>
      </trkpt>
      <trkpt lat="45.9713" lon="5.57545">
        <ele>768</ele>
        <time>2026-05-11T09:49:49Z</time>
      </trkpt>
      <trkpt lat="45.97132" lon="5.57545">
        <ele>768.2</ele>
        <time>2026-05-11T09:49:50Z</time>
      </trkpt>
      <trkpt lat="45.97134" lon="5.57546">
        <ele>768.6</ele>
        <time>2026-05-11T09:49:51Z</time>
      </trkpt>
      <trkpt lat="45.97135" lon="5.57547">
        <ele>768.6</ele>
        <time>2026-05-11T09:49:52Z</time>
      </trkpt>
      <trkpt lat="45.97137" lon="5.57548">
        <ele>769</ele>
        <time>2026-05-11T09:49:53Z</time>
      </trkpt>
      <trkpt lat="45.97138" lon="5.57548">
        <ele>769</ele>
        <time>2026-05-11T09:49:54Z</time>
      </trkpt>
      <trkpt lat="45.97139" lon="5.57549">
        <ele>769.2</ele>
        <time>2026-05-11T09:49:55Z</time>
      </trkpt>
      <trkpt lat="45.97141" lon="5.57549">
        <ele>769.2</ele>
        <time>2026-05-11T09:49:56Z</time>
      </trkpt>
      <trkpt lat="45.97143" lon="5.5755">
        <ele>769.6</ele>
        <time>2026-05-11T09:49:57Z</time>
      </trkpt>
      <trkpt lat="45.97144" lon="5.57551">
        <ele>769.6</ele>
        <time>2026-05-11T09:49:58Z</time>
      </trkpt>
      <trkpt lat="45.97146" lon="5.57552">
        <ele>769.8</ele>
        <time>2026-05-11T09:49:59Z</time>
      </trkpt>
      <trkpt lat="45.97147" lon="5.57553">
        <ele>770</ele>
        <time>2026-05-11T09:50:00Z</time>
      </trkpt>
      <trkpt lat="45.97148" lon="5.57556">
        <ele>770.2</ele>
        <time>2026-05-11T09:50:01Z</time>
      </trkpt>
      <trkpt lat="45.97149" lon="5.57558">
        <ele>770.6</ele>
        <time>2026-05-11T09:50:02Z</time>
      </trkpt>
      <trkpt lat="45.97151" lon="5.5756">
        <ele>770.8</ele>
        <time>2026-05-11T09:50:03Z</time>
      </trkpt>
      <trkpt lat="45.97152" lon="5.57561">
        <ele>770.8</ele>
        <time>2026-05-11T09:50:04Z</time>
      </trkpt>
      <trkpt lat="45.97153" lon="5.57562">
        <ele>771</ele>
        <time>2026-05-11T09:50:05Z</time>
      </trkpt>
      <trkpt lat="45.97154" lon="5.57563">
        <ele>771</ele>
        <time>2026-05-11T09:50:06Z</time>
      </trkpt>
      <trkpt lat="45.97155" lon="5.57564">
        <ele>771.4</ele>
        <time>2026-05-11T09:50:07Z</time>
      </trkpt>
      <trkpt lat="45.97157" lon="5.57566">
        <ele>771.4</ele>
        <time>2026-05-11T09:50:08Z</time>
      </trkpt>
      <trkpt lat="45.97158" lon="5.57567">
        <ele>771.6</ele>
        <time>2026-05-11T09:50:09Z</time>
      </trkpt>
      <trkpt lat="45.97159" lon="5.57569">
        <ele>771.6</ele>
        <time>2026-05-11T09:50:10Z</time>
      </trkpt>
      <trkpt lat="45.9716" lon="5.57571">
        <ele>771.8</ele>
        <time>2026-05-11T09:50:11Z</time>
      </trkpt>
      <trkpt lat="45.97162" lon="5.57573">
        <ele>771.8</ele>
        <time>2026-05-11T09:50:12Z</time>
      </trkpt>
      <trkpt lat="45.97162" lon="5.57573">
        <ele>772</ele>
        <time>2026-05-11T09:50:13Z</time>
      </trkpt>
      <trkpt lat="45.97163" lon="5.57574">
        <ele>772.4</ele>
        <time>2026-05-11T09:50:14Z</time>
      </trkpt>
      <trkpt lat="45.97164" lon="5.57576">
        <ele>772.6</ele>
        <time>2026-05-11T09:50:15Z</time>
      </trkpt>
      <trkpt lat="45.97166" lon="5.57577">
        <ele>773</ele>
        <time>2026-05-11T09:50:16Z</time>
      </trkpt>
      <trkpt lat="45.97167" lon="5.57579">
        <ele>773</ele>
        <time>2026-05-11T09:50:17Z</time>
      </trkpt>
      <trkpt lat="45.97168" lon="5.57581">
        <ele>773.2</ele>
        <time>2026-05-11T09:50:18Z</time>
      </trkpt>
      <trkpt lat="45.97169" lon="5.57582">
        <ele>773.2</ele>
        <time>2026-05-11T09:50:19Z</time>
      </trkpt>
      <trkpt lat="45.9717" lon="5.57584">
        <ele>773.6</ele>
        <time>2026-05-11T09:50:20Z</time>
      </trkpt>
      <trkpt lat="45.97171" lon="5.57585">
        <ele>773.6</ele>
        <time>2026-05-11T09:50:21Z</time>
      </trkpt>
      <trkpt lat="45.97173" lon="5.57586">
        <ele>774</ele>
        <time>2026-05-11T09:50:22Z</time>
      </trkpt>
      <trkpt lat="45.97174" lon="5.57588">
        <ele>774.2</ele>
        <time>2026-05-11T09:50:23Z</time>
      </trkpt>
      <trkpt lat="45.97176" lon="5.57589">
        <ele>774.4</ele>
        <time>2026-05-11T09:50:24Z</time>
      </trkpt>
      <trkpt lat="45.97177" lon="5.5759">
        <ele>774.4</ele>
        <time>2026-05-11T09:50:25Z</time>
      </trkpt>
      <trkpt lat="45.97178" lon="5.57591">
        <ele>774.6</ele>
        <time>2026-05-11T09:50:26Z</time>
      </trkpt>
      <trkpt lat="45.9718" lon="5.57592">
        <ele>774.6</ele>
        <time>2026-05-11T09:50:27Z</time>
      </trkpt>
      <trkpt lat="45.97181" lon="5.57592">
        <ele>774.8</ele>
        <time>2026-05-11T09:50:28Z</time>
      </trkpt>
      <trkpt lat="45.97183" lon="5.57593">
        <ele>775</ele>
        <time>2026-05-11T09:50:29Z</time>
      </trkpt>
      <trkpt lat="45.97184" lon="5.57594">
        <ele>775</ele>
        <time>2026-05-11T09:50:30Z</time>
      </trkpt>
      <trkpt lat="45.97186" lon="5.57594">
        <ele>775.4</ele>
        <time>2026-05-11T09:50:31Z</time>
      </trkpt>
      <trkpt lat="45.97187" lon="5.57594">
        <ele>775.6</ele>
        <time>2026-05-11T09:50:32Z</time>
      </trkpt>
      <trkpt lat="45.97189" lon="5.57594">
        <ele>775.6</ele>
        <time>2026-05-11T09:50:33Z</time>
      </trkpt>
      <trkpt lat="45.97191" lon="5.57593">
        <ele>776</ele>
        <time>2026-05-11T09:50:34Z</time>
      </trkpt>
      <trkpt lat="45.97192" lon="5.57593">
        <ele>776.2</ele>
        <time>2026-05-11T09:50:35Z</time>
      </trkpt>
      <trkpt lat="45.97194" lon="5.57592">
        <ele>776.2</ele>
        <time>2026-05-11T09:50:36Z</time>
      </trkpt>
      <trkpt lat="45.97195" lon="5.57592">
        <ele>776.2</ele>
        <time>2026-05-11T09:50:37Z</time>
      </trkpt>
      <trkpt lat="45.97197" lon="5.57591">
        <ele>776.6</ele>
        <time>2026-05-11T09:50:38Z</time>
      </trkpt>
      <trkpt lat="45.97198" lon="5.5759">
        <ele>776.6</ele>
        <time>2026-05-11T09:50:39Z</time>
      </trkpt>
      <trkpt lat="45.97199" lon="5.57589">
        <ele>777</ele>
        <time>2026-05-11T09:50:40Z</time>
      </trkpt>
      <trkpt lat="45.97201" lon="5.57588">
        <ele>777.2</ele>
        <time>2026-05-11T09:50:41Z</time>
      </trkpt>
      <trkpt lat="45.97202" lon="5.57587">
        <ele>777.6</ele>
        <time>2026-05-11T09:50:42Z</time>
      </trkpt>
      <trkpt lat="45.97202" lon="5.57586">
        <ele>777.8</ele>
        <time>2026-05-11T09:50:43Z</time>
      </trkpt>
      <trkpt lat="45.97203" lon="5.57584">
        <ele>777.8</ele>
        <time>2026-05-11T09:50:44Z</time>
      </trkpt>
      <trkpt lat="45.97204" lon="5.57583">
        <ele>778</ele>
        <time>2026-05-11T09:50:45Z</time>
      </trkpt>
      <trkpt lat="45.97204" lon="5.57581">
        <ele>778.4</ele>
        <time>2026-05-11T09:50:46Z</time>
      </trkpt>
      <trkpt lat="45.97205" lon="5.57579">
        <ele>778.4</ele>
        <time>2026-05-11T09:50:47Z</time>
      </trkpt>
      <trkpt lat="45.97205" lon="5.57577">
        <ele>778.8</ele>
        <time>2026-05-11T09:50:48Z</time>
      </trkpt>
      <trkpt lat="45.97206" lon="5.57575">
        <ele>779</ele>
        <time>2026-05-11T09:50:49Z</time>
      </trkpt>
      <trkpt lat="45.97206" lon="5.57572">
        <ele>779</ele>
        <time>2026-05-11T09:50:50Z</time>
      </trkpt>
      <trkpt lat="45.97207" lon="5.5757">
        <ele>779.2</ele>
        <time>2026-05-11T09:50:51Z</time>
      </trkpt>
      <trkpt lat="45.97207" lon="5.57568">
        <ele>779.4</ele>
        <time>2026-05-11T09:50:52Z</time>
      </trkpt>
      <trkpt lat="45.97208" lon="5.57566">
        <ele>779.4</ele>
        <time>2026-05-11T09:50:53Z</time>
      </trkpt>
      <trkpt lat="45.97208" lon="5.57564">
        <ele>779.6</ele>
        <time>2026-05-11T09:50:54Z</time>
      </trkpt>
      <trkpt lat="45.9721" lon="5.5756">
        <ele>779.6</ele>
        <time>2026-05-11T09:50:55Z</time>
      </trkpt>
      <trkpt lat="45.97211" lon="5.57559">
        <ele>780.2</ele>
        <time>2026-05-11T09:50:56Z</time>
      </trkpt>
      <trkpt lat="45.97212" lon="5.57557">
        <ele>780.2</ele>
        <time>2026-05-11T09:50:57Z</time>
      </trkpt>
      <trkpt lat="45.97214" lon="5.57556">
        <ele>780.4</ele>
        <time>2026-05-11T09:50:58Z</time>
      </trkpt>
      <trkpt lat="45.97215" lon="5.57554">
        <ele>780.6</ele>
        <time>2026-05-11T09:50:59Z</time>
      </trkpt>
      <trkpt lat="45.97217" lon="5.57553">
        <ele>780.6</ele>
        <time>2026-05-11T09:51:00Z</time>
      </trkpt>
      <trkpt lat="45.97218" lon="5.57552">
        <ele>780.6</ele>
        <time>2026-05-11T09:51:01Z</time>
      </trkpt>
      <trkpt lat="45.97219" lon="5.57551">
        <ele>781</ele>
        <time>2026-05-11T09:51:02Z</time>
      </trkpt>
      <trkpt lat="45.97221" lon="5.5755">
        <ele>781.2</ele>
        <time>2026-05-11T09:51:03Z</time>
      </trkpt>
      <trkpt lat="45.97223" lon="5.57549">
        <ele>781.2</ele>
        <time>2026-05-11T09:51:04Z</time>
      </trkpt>
      <trkpt lat="45.97224" lon="5.57548">
        <ele>781.6</ele>
        <time>2026-05-11T09:51:05Z</time>
      </trkpt>
      <trkpt lat="45.97226" lon="5.57548">
        <ele>781.6</ele>
        <time>2026-05-11T09:51:06Z</time>
      </trkpt>
      <trkpt lat="45.97227" lon="5.57547">
        <ele>781.6</ele>
        <time>2026-05-11T09:51:07Z</time>
      </trkpt>
      <trkpt lat="45.97229" lon="5.57546">
        <ele>781.8</ele>
        <time>2026-05-11T09:51:08Z</time>
      </trkpt>
      <trkpt lat="45.9723" lon="5.57545">
        <ele>781.8</ele>
        <time>2026-05-11T09:51:09Z</time>
      </trkpt>
      <trkpt lat="45.97231" lon="5.57544">
        <ele>782.4</ele>
        <time>2026-05-11T09:51:10Z</time>
      </trkpt>
      <trkpt lat="45.97232" lon="5.57543">
        <ele>782.6</ele>
        <time>2026-05-11T09:51:11Z</time>
      </trkpt>
      <trkpt lat="45.97233" lon="5.57542">
        <ele>783</ele>
        <time>2026-05-11T09:51:12Z</time>
      </trkpt>
      <trkpt lat="45.97234" lon="5.57541">
        <ele>783.2</ele>
        <time>2026-05-11T09:51:13Z</time>
      </trkpt>
      <trkpt lat="45.97236" lon="5.5754">
        <ele>783.4</ele>
        <time>2026-05-11T09:51:14Z</time>
      </trkpt>
      <trkpt lat="45.97238" lon="5.5754">
        <ele>783.6</ele>
        <time>2026-05-11T09:51:15Z</time>
      </trkpt>
      <trkpt lat="45.97239" lon="5.5754">
        <ele>784</ele>
        <time>2026-05-11T09:51:16Z</time>
      </trkpt>
      <trkpt lat="45.97241" lon="5.57539">
        <ele>784.2</ele>
        <time>2026-05-11T09:51:17Z</time>
      </trkpt>
      <trkpt lat="45.97242" lon="5.57537">
        <ele>784.2</ele>
        <time>2026-05-11T09:51:18Z</time>
      </trkpt>
      <trkpt lat="45.97242" lon="5.57534">
        <ele>784.6</ele>
        <time>2026-05-11T09:51:19Z</time>
      </trkpt>
      <trkpt lat="45.97242" lon="5.57531">
        <ele>784.6</ele>
        <time>2026-05-11T09:51:20Z</time>
      </trkpt>
      <trkpt lat="45.97242" lon="5.57528">
        <ele>784.8</ele>
        <time>2026-05-11T09:51:21Z</time>
      </trkpt>
      <trkpt lat="45.97242" lon="5.57526">
        <ele>785</ele>
        <time>2026-05-11T09:51:22Z</time>
      </trkpt>
      <trkpt lat="45.97242" lon="5.57523">
        <ele>785.2</ele>
        <time>2026-05-11T09:51:23Z</time>
      </trkpt>
      <trkpt lat="45.97241" lon="5.5752">
        <ele>785.2</ele>
        <time>2026-05-11T09:51:24Z</time>
      </trkpt>
      <trkpt lat="45.97241" lon="5.57517">
        <ele>785.2</ele>
        <time>2026-05-11T09:51:25Z</time>
      </trkpt>
      <trkpt lat="45.97241" lon="5.57514">
        <ele>785.2</ele>
        <time>2026-05-11T09:51:26Z</time>
      </trkpt>
      <trkpt lat="45.97241" lon="5.57511">
        <ele>785.6</ele>
        <time>2026-05-11T09:51:27Z</time>
      </trkpt>
      <trkpt lat="45.97241" lon="5.57508">
        <ele>785.8</ele>
        <time>2026-05-11T09:51:28Z</time>
      </trkpt>
      <trkpt lat="45.97241" lon="5.57505">
        <ele>785.8</ele>
        <time>2026-05-11T09:51:29Z</time>
      </trkpt>
      <trkpt lat="45.97241" lon="5.57503">
        <ele>785.8</ele>
        <time>2026-05-11T09:51:30Z</time>
      </trkpt>
      <trkpt lat="45.9724" lon="5.57501">
        <ele>785.8</ele>
        <time>2026-05-11T09:51:31Z</time>
      </trkpt>
      <trkpt lat="45.9724" lon="5.57499">
        <ele>786.2</ele>
        <time>2026-05-11T09:51:32Z</time>
      </trkpt>
      <trkpt lat="45.97239" lon="5.57497">
        <ele>786.2</ele>
        <time>2026-05-11T09:51:33Z</time>
      </trkpt>
      <trkpt lat="45.97239" lon="5.57495">
        <ele>786.2</ele>
        <time>2026-05-11T09:51:34Z</time>
      </trkpt>
      <trkpt lat="45.97238" lon="5.57493">
        <ele>786.6</ele>
        <time>2026-05-11T09:51:35Z</time>
      </trkpt>
      <trkpt lat="45.97237" lon="5.5749">
        <ele>786.6</ele>
        <time>2026-05-11T09:51:36Z</time>
      </trkpt>
      <trkpt lat="45.97237" lon="5.57488">
        <ele>786.6</ele>
        <time>2026-05-11T09:51:37Z</time>
      </trkpt>
      <trkpt lat="45.97236" lon="5.57485">
        <ele>786.8</ele>
        <time>2026-05-11T09:51:38Z</time>
      </trkpt>
      <trkpt lat="45.97235" lon="5.57483">
        <ele>786.8</ele>
        <time>2026-05-11T09:51:39Z</time>
      </trkpt>
      <trkpt lat="45.97234" lon="5.57481">
        <ele>787</ele>
        <time>2026-05-11T09:51:40Z</time>
      </trkpt>
      <trkpt lat="45.97233" lon="5.57479">
        <ele>787</ele>
        <time>2026-05-11T09:51:41Z</time>
      </trkpt>
      <trkpt lat="45.97232" lon="5.57476">
        <ele>787</ele>
        <time>2026-05-11T09:51:42Z</time>
      </trkpt>
      <trkpt lat="45.9723" lon="5.57474">
        <ele>787</ele>
        <time>2026-05-11T09:51:43Z</time>
      </trkpt>
      <trkpt lat="45.97229" lon="5.57473">
        <ele>787.2</ele>
        <time>2026-05-11T09:51:44Z</time>
      </trkpt>
      <trkpt lat="45.97228" lon="5.57471">
        <ele>787.2</ele>
        <time>2026-05-11T09:51:45Z</time>
      </trkpt>
      <trkpt lat="45.97226" lon="5.5747">
        <ele>787.2</ele>
        <time>2026-05-11T09:51:46Z</time>
      </trkpt>
      <trkpt lat="45.97225" lon="5.57468">
        <ele>787.2</ele>
        <time>2026-05-11T09:51:47Z</time>
      </trkpt>
      <trkpt lat="45.97223" lon="5.57467">
        <ele>787.8</ele>
        <time>2026-05-11T09:51:48Z</time>
      </trkpt>
      <trkpt lat="45.97221" lon="5.57466">
        <ele>788</ele>
        <time>2026-05-11T09:51:49Z</time>
      </trkpt>
      <trkpt lat="45.97219" lon="5.57464">
        <ele>788.2</ele>
        <time>2026-05-11T09:51:50Z</time>
      </trkpt>
      <trkpt lat="45.97218" lon="5.57463">
        <ele>788.2</ele>
        <time>2026-05-11T09:51:51Z</time>
      </trkpt>
      <trkpt lat="45.97216" lon="5.57462">
        <ele>788.6</ele>
        <time>2026-05-11T09:51:52Z</time>
      </trkpt>
      <trkpt lat="45.97214" lon="5.5746">
        <ele>789.2</ele>
        <time>2026-05-11T09:51:53Z</time>
      </trkpt>
      <trkpt lat="45.97212" lon="5.57459">
        <ele>789.2</ele>
        <time>2026-05-11T09:51:54Z</time>
      </trkpt>
      <trkpt lat="45.97211" lon="5.57458">
        <ele>789.2</ele>
        <time>2026-05-11T09:51:55Z</time>
      </trkpt>
      <trkpt lat="45.97209" lon="5.57456">
        <ele>789.2</ele>
        <time>2026-05-11T09:51:56Z</time>
      </trkpt>
      <trkpt lat="45.97208" lon="5.57455">
        <ele>788.6</ele>
        <time>2026-05-11T09:51:57Z</time>
      </trkpt>
      <trkpt lat="45.97206" lon="5.57454">
        <ele>789</ele>
        <time>2026-05-11T09:51:58Z</time>
      </trkpt>
      <trkpt lat="45.97204" lon="5.57453">
        <ele>789.4</ele>
        <time>2026-05-11T09:51:59Z</time>
      </trkpt>
      <trkpt lat="45.97203" lon="5.57452">
        <ele>789.6</ele>
        <time>2026-05-11T09:52:00Z</time>
      </trkpt>
      <trkpt lat="45.97201" lon="5.57451">
        <ele>789.6</ele>
        <time>2026-05-11T09:52:01Z</time>
      </trkpt>
      <trkpt lat="45.972" lon="5.5745">
        <ele>790</ele>
        <time>2026-05-11T09:52:02Z</time>
      </trkpt>
      <trkpt lat="45.97198" lon="5.57449">
        <ele>790</ele>
        <time>2026-05-11T09:52:03Z</time>
      </trkpt>
      <trkpt lat="45.97196" lon="5.57448">
        <ele>790</ele>
        <time>2026-05-11T09:52:04Z</time>
      </trkpt>
      <trkpt lat="45.97194" lon="5.57447">
        <ele>790.4</ele>
        <time>2026-05-11T09:52:05Z</time>
      </trkpt>
      <trkpt lat="45.97192" lon="5.57447">
        <ele>790.4</ele>
        <time>2026-05-11T09:52:06Z</time>
      </trkpt>
      <trkpt lat="45.9719" lon="5.57447">
        <ele>790.4</ele>
        <time>2026-05-11T09:52:07Z</time>
      </trkpt>
      <trkpt lat="45.97189" lon="5.57446">
        <ele>790.4</ele>
        <time>2026-05-11T09:52:08Z</time>
      </trkpt>
      <trkpt lat="45.97187" lon="5.57444">
        <ele>790.4</ele>
        <time>2026-05-11T09:52:09Z</time>
      </trkpt>
      <trkpt lat="45.97186" lon="5.57443">
        <ele>790.6</ele>
        <time>2026-05-11T09:52:10Z</time>
      </trkpt>
      <trkpt lat="45.97184" lon="5.57442">
        <ele>790.6</ele>
        <time>2026-05-11T09:52:11Z</time>
      </trkpt>
      <trkpt lat="45.97182" lon="5.5744">
        <ele>790.8</ele>
        <time>2026-05-11T09:52:12Z</time>
      </trkpt>
      <trkpt lat="45.97181" lon="5.57439">
        <ele>790.8</ele>
        <time>2026-05-11T09:52:13Z</time>
      </trkpt>
      <trkpt lat="45.97179" lon="5.57437">
        <ele>791.2</ele>
        <time>2026-05-11T09:52:14Z</time>
      </trkpt>
      <trkpt lat="45.97178" lon="5.57435">
        <ele>791.2</ele>
        <time>2026-05-11T09:52:15Z</time>
      </trkpt>
      <trkpt lat="45.97176" lon="5.57434">
        <ele>791.6</ele>
        <time>2026-05-11T09:52:16Z</time>
      </trkpt>
      <trkpt lat="45.97175" lon="5.57433">
        <ele>791.6</ele>
        <time>2026-05-11T09:52:17Z</time>
      </trkpt>
      <trkpt lat="45.97173" lon="5.57433">
        <ele>791.8</ele>
        <time>2026-05-11T09:52:18Z</time>
      </trkpt>
      <trkpt lat="45.97171" lon="5.57432">
        <ele>792</ele>
        <time>2026-05-11T09:52:19Z</time>
      </trkpt>
      <trkpt lat="45.97169" lon="5.57431">
        <ele>792</ele>
        <time>2026-05-11T09:52:20Z</time>
      </trkpt>
      <trkpt lat="45.97168" lon="5.5743">
        <ele>792.2</ele>
        <time>2026-05-11T09:52:21Z</time>
      </trkpt>
      <trkpt lat="45.97166" lon="5.57429">
        <ele>792.2</ele>
        <time>2026-05-11T09:52:22Z</time>
      </trkpt>
      <trkpt lat="45.97164" lon="5.57427">
        <ele>792.2</ele>
        <time>2026-05-11T09:52:23Z</time>
      </trkpt>
      <trkpt lat="45.97162" lon="5.57425">
        <ele>792.6</ele>
        <time>2026-05-11T09:52:24Z</time>
      </trkpt>
      <trkpt lat="45.97161" lon="5.57423">
        <ele>792.6</ele>
        <time>2026-05-11T09:52:25Z</time>
      </trkpt>
      <trkpt lat="45.97159" lon="5.57421">
        <ele>792.6</ele>
        <time>2026-05-11T09:52:26Z</time>
      </trkpt>
      <trkpt lat="45.97158" lon="5.57419">
        <ele>792.8</ele>
        <time>2026-05-11T09:52:27Z</time>
      </trkpt>
      <trkpt lat="45.97156" lon="5.57417">
        <ele>792.8</ele>
        <time>2026-05-11T09:52:28Z</time>
      </trkpt>
      <trkpt lat="45.97155" lon="5.57415">
        <ele>793</ele>
        <time>2026-05-11T09:52:29Z</time>
      </trkpt>
      <trkpt lat="45.97153" lon="5.57412">
        <ele>793</ele>
        <time>2026-05-11T09:52:30Z</time>
      </trkpt>
      <trkpt lat="45.97152" lon="5.5741">
        <ele>793.4</ele>
        <time>2026-05-11T09:52:31Z</time>
      </trkpt>
      <trkpt lat="45.97151" lon="5.57407">
        <ele>793.4</ele>
        <time>2026-05-11T09:52:32Z</time>
      </trkpt>
      <trkpt lat="45.97149" lon="5.57405">
        <ele>793.4</ele>
        <time>2026-05-11T09:52:33Z</time>
      </trkpt>
      <trkpt lat="45.97148" lon="5.57403">
        <ele>793.6</ele>
        <time>2026-05-11T09:52:34Z</time>
      </trkpt>
      <trkpt lat="45.97147" lon="5.574">
        <ele>793.6</ele>
        <time>2026-05-11T09:52:35Z</time>
      </trkpt>
      <trkpt lat="45.97146" lon="5.57397">
        <ele>793.8</ele>
        <time>2026-05-11T09:52:36Z</time>
      </trkpt>
      <trkpt lat="45.97146" lon="5.57394">
        <ele>794</ele>
        <time>2026-05-11T09:52:37Z</time>
      </trkpt>
      <trkpt lat="45.97145" lon="5.57391">
        <ele>794</ele>
        <time>2026-05-11T09:52:38Z</time>
      </trkpt>
      <trkpt lat="45.97145" lon="5.57387">
        <ele>794.2</ele>
        <time>2026-05-11T09:52:39Z</time>
      </trkpt>
      <trkpt lat="45.97145" lon="5.57384">
        <ele>794.2</ele>
        <time>2026-05-11T09:52:40Z</time>
      </trkpt>
      <trkpt lat="45.97145" lon="5.57382">
        <ele>794.6</ele>
        <time>2026-05-11T09:52:41Z</time>
      </trkpt>
      <trkpt lat="45.97145" lon="5.57379">
        <ele>794.6</ele>
        <time>2026-05-11T09:52:42Z</time>
      </trkpt>
      <trkpt lat="45.97146" lon="5.57376">
        <ele>794.6</ele>
        <time>2026-05-11T09:52:43Z</time>
      </trkpt>
      <trkpt lat="45.97146" lon="5.57373">
        <ele>794.6</ele>
        <time>2026-05-11T09:52:44Z</time>
      </trkpt>
      <trkpt lat="45.97147" lon="5.5737">
        <ele>794.8</ele>
        <time>2026-05-11T09:52:45Z</time>
      </trkpt>
      <trkpt lat="45.97148" lon="5.57367">
        <ele>794.8</ele>
        <time>2026-05-11T09:52:46Z</time>
      </trkpt>
      <trkpt lat="45.97148" lon="5.57367">
        <ele>794.8</ele>
        <time>2026-05-11T09:52:47Z</time>
      </trkpt>
      <trkpt lat="45.97148" lon="5.57367">
        <ele>795.2</ele>
        <time>2026-05-11T09:52:48Z</time>
      </trkpt>
      <trkpt lat="45.97148" lon="5.57367">
        <ele>795.2</ele>
        <time>2026-05-11T09:52:49Z</time>
      </trkpt>
      <trkpt lat="45.97152" lon="5.57358">
        <ele>795.6</ele>
        <time>2026-05-11T09:52:50Z</time>
      </trkpt>
      <trkpt lat="45.97154" lon="5.57355">
        <ele>795.6</ele>
        <time>2026-05-11T09:52:51Z</time>
      </trkpt>
      <trkpt lat="45.97155" lon="5.57352">
        <ele>795.8</ele>
        <time>2026-05-11T09:52:52Z</time>
      </trkpt>
      <trkpt lat="45.97157" lon="5.5735">
        <ele>795.8</ele>
        <time>2026-05-11T09:52:53Z</time>
      </trkpt>
      <trkpt lat="45.97158" lon="5.57348">
        <ele>796</ele>
        <time>2026-05-11T09:52:54Z</time>
      </trkpt>
      <trkpt lat="45.9716" lon="5.57346">
        <ele>796</ele>
        <time>2026-05-11T09:52:55Z</time>
      </trkpt>
      <trkpt lat="45.97162" lon="5.57344">
        <ele>796.4</ele>
        <time>2026-05-11T09:52:56Z</time>
      </trkpt>
      <trkpt lat="45.97163" lon="5.57343">
        <ele>796.6</ele>
        <time>2026-05-11T09:52:57Z</time>
      </trkpt>
      <trkpt lat="45.97165" lon="5.57341">
        <ele>796.8</ele>
        <time>2026-05-11T09:52:58Z</time>
      </trkpt>
      <trkpt lat="45.97167" lon="5.5734">
        <ele>796.8</ele>
        <time>2026-05-11T09:52:59Z</time>
      </trkpt>
      <trkpt lat="45.97169" lon="5.57339">
        <ele>797.2</ele>
        <time>2026-05-11T09:53:00Z</time>
      </trkpt>
      <trkpt lat="45.97171" lon="5.57339">
        <ele>797.2</ele>
        <time>2026-05-11T09:53:01Z</time>
      </trkpt>
      <trkpt lat="45.97173" lon="5.57338">
        <ele>797.6</ele>
        <time>2026-05-11T09:53:02Z</time>
      </trkpt>
      <trkpt lat="45.97175" lon="5.57337">
        <ele>797.6</ele>
        <time>2026-05-11T09:53:03Z</time>
      </trkpt>
      <trkpt lat="45.97177" lon="5.57336">
        <ele>798</ele>
        <time>2026-05-11T09:53:04Z</time>
      </trkpt>
      <trkpt lat="45.97179" lon="5.57336">
        <ele>798</ele>
        <time>2026-05-11T09:53:05Z</time>
      </trkpt>
      <trkpt lat="45.97181" lon="5.57335">
        <ele>798.2</ele>
        <time>2026-05-11T09:53:06Z</time>
      </trkpt>
      <trkpt lat="45.97183" lon="5.57335">
        <ele>798.2</ele>
        <time>2026-05-11T09:53:07Z</time>
      </trkpt>
      <trkpt lat="45.97185" lon="5.57335">
        <ele>798.2</ele>
        <time>2026-05-11T09:53:08Z</time>
      </trkpt>
      <trkpt lat="45.97185" lon="5.57335">
        <ele>798.2</ele>
        <time>2026-05-11T09:53:09Z</time>
      </trkpt>
      <trkpt lat="45.97187" lon="5.57334">
        <ele>798.6</ele>
        <time>2026-05-11T09:53:10Z</time>
      </trkpt>
      <trkpt lat="45.97189" lon="5.57334">
        <ele>798.6</ele>
        <time>2026-05-11T09:53:11Z</time>
      </trkpt>
      <trkpt lat="45.97191" lon="5.57334">
        <ele>798.8</ele>
        <time>2026-05-11T09:53:12Z</time>
      </trkpt>
      <trkpt lat="45.97192" lon="5.57334">
        <ele>798.8</ele>
        <time>2026-05-11T09:53:13Z</time>
      </trkpt>
      <trkpt lat="45.97194" lon="5.57334">
        <ele>799</ele>
        <time>2026-05-11T09:53:14Z</time>
      </trkpt>
      <trkpt lat="45.97196" lon="5.57334">
        <ele>799</ele>
        <time>2026-05-11T09:53:15Z</time>
      </trkpt>
      <trkpt lat="45.97198" lon="5.57334">
        <ele>799.2</ele>
        <time>2026-05-11T09:53:16Z</time>
      </trkpt>
      <trkpt lat="45.972" lon="5.57333">
        <ele>799.2</ele>
        <time>2026-05-11T09:53:17Z</time>
      </trkpt>
      <trkpt lat="45.97202" lon="5.57333">
        <ele>799.2</ele>
        <time>2026-05-11T09:53:18Z</time>
      </trkpt>
      <trkpt lat="45.97204" lon="5.57332">
        <ele>799.6</ele>
        <time>2026-05-11T09:53:19Z</time>
      </trkpt>
      <trkpt lat="45.97206" lon="5.57332">
        <ele>799.8</ele>
        <time>2026-05-11T09:53:20Z</time>
      </trkpt>
      <trkpt lat="45.97208" lon="5.57332">
        <ele>799.8</ele>
        <time>2026-05-11T09:53:21Z</time>
      </trkpt>
      <trkpt lat="45.9721" lon="5.57331">
        <ele>800</ele>
        <time>2026-05-11T09:53:22Z</time>
      </trkpt>
      <trkpt lat="45.97211" lon="5.57331">
        <ele>800</ele>
        <time>2026-05-11T09:53:23Z</time>
      </trkpt>
      <trkpt lat="45.97214" lon="5.57332">
        <ele>800</ele>
        <time>2026-05-11T09:53:24Z</time>
      </trkpt>
      <trkpt lat="45.97216" lon="5.57331">
        <ele>800</ele>
        <time>2026-05-11T09:53:25Z</time>
      </trkpt>
      <trkpt lat="45.97218" lon="5.57331">
        <ele>800.2</ele>
        <time>2026-05-11T09:53:26Z</time>
      </trkpt>
      <trkpt lat="45.9722" lon="5.5733">
        <ele>800.2</ele>
        <time>2026-05-11T09:53:27Z</time>
      </trkpt>
      <trkpt lat="45.97221" lon="5.57329">
        <ele>800.6</ele>
        <time>2026-05-11T09:53:28Z</time>
      </trkpt>
      <trkpt lat="45.97223" lon="5.57327">
        <ele>800.6</ele>
        <time>2026-05-11T09:53:29Z</time>
      </trkpt>
      <trkpt lat="45.97225" lon="5.57326">
        <ele>801</ele>
        <time>2026-05-11T09:53:30Z</time>
      </trkpt>
      <trkpt lat="45.97226" lon="5.57325">
        <ele>801</ele>
        <time>2026-05-11T09:53:31Z</time>
      </trkpt>
      <trkpt lat="45.97228" lon="5.57323">
        <ele>801.4</ele>
        <time>2026-05-11T09:53:32Z</time>
      </trkpt>
      <trkpt lat="45.97229" lon="5.57322">
        <ele>801.4</ele>
        <time>2026-05-11T09:53:33Z</time>
      </trkpt>
      <trkpt lat="45.97231" lon="5.5732">
        <ele>801.4</ele>
        <time>2026-05-11T09:53:34Z</time>
      </trkpt>
      <trkpt lat="45.97232" lon="5.57318">
        <ele>801.6</ele>
        <time>2026-05-11T09:53:35Z</time>
      </trkpt>
      <trkpt lat="45.97233" lon="5.57316">
        <ele>801.8</ele>
        <time>2026-05-11T09:53:36Z</time>
      </trkpt>
      <trkpt lat="45.97235" lon="5.57314">
        <ele>801.8</ele>
        <time>2026-05-11T09:53:37Z</time>
      </trkpt>
      <trkpt lat="45.97236" lon="5.57312">
        <ele>802</ele>
        <time>2026-05-11T09:53:38Z</time>
      </trkpt>
      <trkpt lat="45.97237" lon="5.5731">
        <ele>802</ele>
        <time>2026-05-11T09:53:39Z</time>
      </trkpt>
      <trkpt lat="45.97239" lon="5.57308">
        <ele>802.2</ele>
        <time>2026-05-11T09:53:40Z</time>
      </trkpt>
      <trkpt lat="45.9724" lon="5.57306">
        <ele>802.2</ele>
        <time>2026-05-11T09:53:41Z</time>
      </trkpt>
      <trkpt lat="45.97241" lon="5.57303">
        <ele>802.2</ele>
        <time>2026-05-11T09:53:42Z</time>
      </trkpt>
      <trkpt lat="45.97242" lon="5.573">
        <ele>802.6</ele>
        <time>2026-05-11T09:53:43Z</time>
      </trkpt>
      <trkpt lat="45.97243" lon="5.57297">
        <ele>802.6</ele>
        <time>2026-05-11T09:53:44Z</time>
      </trkpt>
      <trkpt lat="45.97243" lon="5.57294">
        <ele>802.6</ele>
        <time>2026-05-11T09:53:45Z</time>
      </trkpt>
      <trkpt lat="45.97244" lon="5.57288">
        <ele>802.6</ele>
        <time>2026-05-11T09:53:46Z</time>
      </trkpt>
      <trkpt lat="45.97244" lon="5.57285">
        <ele>802.8</ele>
        <time>2026-05-11T09:53:47Z</time>
      </trkpt>
      <trkpt lat="45.97245" lon="5.57282">
        <ele>803</ele>
        <time>2026-05-11T09:53:48Z</time>
      </trkpt>
      <trkpt lat="45.97245" lon="5.5728">
        <ele>803.2</ele>
        <time>2026-05-11T09:53:49Z</time>
      </trkpt>
      <trkpt lat="45.97246" lon="5.57278">
        <ele>803.4</ele>
        <time>2026-05-11T09:53:50Z</time>
      </trkpt>
      <trkpt lat="45.97247" lon="5.57275">
        <ele>803.6</ele>
        <time>2026-05-11T09:53:51Z</time>
      </trkpt>
      <trkpt lat="45.97247" lon="5.57273">
        <ele>803.6</ele>
        <time>2026-05-11T09:53:52Z</time>
      </trkpt>
      <trkpt lat="45.97248" lon="5.57271">
        <ele>803.8</ele>
        <time>2026-05-11T09:53:53Z</time>
      </trkpt>
      <trkpt lat="45.97248" lon="5.57268">
        <ele>803.8</ele>
        <time>2026-05-11T09:53:54Z</time>
      </trkpt>
      <trkpt lat="45.97248" lon="5.57265">
        <ele>803.8</ele>
        <time>2026-05-11T09:53:55Z</time>
      </trkpt>
      <trkpt lat="45.97249" lon="5.57263">
        <ele>803.8</ele>
        <time>2026-05-11T09:53:56Z</time>
      </trkpt>
      <trkpt lat="45.97249" lon="5.5726">
        <ele>803.8</ele>
        <time>2026-05-11T09:53:57Z</time>
      </trkpt>
      <trkpt lat="45.97249" lon="5.57257">
        <ele>804.2</ele>
        <time>2026-05-11T09:53:58Z</time>
      </trkpt>
      <trkpt lat="45.9725" lon="5.57254">
        <ele>804.2</ele>
        <time>2026-05-11T09:53:59Z</time>
      </trkpt>
      <trkpt lat="45.9725" lon="5.57251">
        <ele>804.2</ele>
        <time>2026-05-11T09:54:00Z</time>
      </trkpt>
      <trkpt lat="45.97251" lon="5.57248">
        <ele>804.2</ele>
        <time>2026-05-11T09:54:01Z</time>
      </trkpt>
      <trkpt lat="45.97252" lon="5.57245">
        <ele>804.4</ele>
        <time>2026-05-11T09:54:02Z</time>
      </trkpt>
      <trkpt lat="45.97253" lon="5.57242">
        <ele>804.4</ele>
        <time>2026-05-11T09:54:03Z</time>
      </trkpt>
      <trkpt lat="45.97254" lon="5.57239">
        <ele>804.6</ele>
        <time>2026-05-11T09:54:04Z</time>
      </trkpt>
      <trkpt lat="45.97254" lon="5.57236">
        <ele>804.6</ele>
        <time>2026-05-11T09:54:05Z</time>
      </trkpt>
      <trkpt lat="45.97255" lon="5.57232">
        <ele>805</ele>
        <time>2026-05-11T09:54:06Z</time>
      </trkpt>
      <trkpt lat="45.97255" lon="5.57229">
        <ele>805</ele>
        <time>2026-05-11T09:54:07Z</time>
      </trkpt>
      <trkpt lat="45.97255" lon="5.57225">
        <ele>805.2</ele>
        <time>2026-05-11T09:54:08Z</time>
      </trkpt>
      <trkpt lat="45.97255" lon="5.57221">
        <ele>805.4</ele>
        <time>2026-05-11T09:54:09Z</time>
      </trkpt>
      <trkpt lat="45.97255" lon="5.57217">
        <ele>805.4</ele>
        <time>2026-05-11T09:54:10Z</time>
      </trkpt>
      <trkpt lat="45.97255" lon="5.57214">
        <ele>805.8</ele>
        <time>2026-05-11T09:54:11Z</time>
      </trkpt>
      <trkpt lat="45.97255" lon="5.5721">
        <ele>805.8</ele>
        <time>2026-05-11T09:54:12Z</time>
      </trkpt>
      <trkpt lat="45.97255" lon="5.57206">
        <ele>806</ele>
        <time>2026-05-11T09:54:13Z</time>
      </trkpt>
      <trkpt lat="45.97255" lon="5.57202">
        <ele>806</ele>
        <time>2026-05-11T09:54:14Z</time>
      </trkpt>
      <trkpt lat="45.97255" lon="5.57197">
        <ele>806</ele>
        <time>2026-05-11T09:54:15Z</time>
      </trkpt>
      <trkpt lat="45.97255" lon="5.57194">
        <ele>806</ele>
        <time>2026-05-11T09:54:16Z</time>
      </trkpt>
      <trkpt lat="45.97254" lon="5.5719">
        <ele>806</ele>
        <time>2026-05-11T09:54:17Z</time>
      </trkpt>
      <trkpt lat="45.97253" lon="5.57186">
        <ele>806</ele>
        <time>2026-05-11T09:54:18Z</time>
      </trkpt>
      <trkpt lat="45.97253" lon="5.57183">
        <ele>806.4</ele>
        <time>2026-05-11T09:54:19Z</time>
      </trkpt>
      <trkpt lat="45.97253" lon="5.57178">
        <ele>806.4</ele>
        <time>2026-05-11T09:54:20Z</time>
      </trkpt>
      <trkpt lat="45.97252" lon="5.57174">
        <ele>806.4</ele>
        <time>2026-05-11T09:54:21Z</time>
      </trkpt>
      <trkpt lat="45.97252" lon="5.57169">
        <ele>806.6</ele>
        <time>2026-05-11T09:54:22Z</time>
      </trkpt>
      <trkpt lat="45.97252" lon="5.57165">
        <ele>806.6</ele>
        <time>2026-05-11T09:54:23Z</time>
      </trkpt>
      <trkpt lat="45.97252" lon="5.5716">
        <ele>806.8</ele>
        <time>2026-05-11T09:54:24Z</time>
      </trkpt>
      <trkpt lat="45.97251" lon="5.57155">
        <ele>806.8</ele>
        <time>2026-05-11T09:54:25Z</time>
      </trkpt>
      <trkpt lat="45.97251" lon="5.5715">
        <ele>807.2</ele>
        <time>2026-05-11T09:54:26Z</time>
      </trkpt>
      <trkpt lat="45.9725" lon="5.57145">
        <ele>807.2</ele>
        <time>2026-05-11T09:54:27Z</time>
      </trkpt>
      <trkpt lat="45.9725" lon="5.5714">
        <ele>807.2</ele>
        <time>2026-05-11T09:54:28Z</time>
      </trkpt>
      <trkpt lat="45.97249" lon="5.57135">
        <ele>807.4</ele>
        <time>2026-05-11T09:54:29Z</time>
      </trkpt>
      <trkpt lat="45.97249" lon="5.57131">
        <ele>807.4</ele>
        <time>2026-05-11T09:54:30Z</time>
      </trkpt>
      <trkpt lat="45.97248" lon="5.57125">
        <ele>807.8</ele>
        <time>2026-05-11T09:54:31Z</time>
      </trkpt>
      <trkpt lat="45.97248" lon="5.57125">
        <ele>807.8</ele>
        <time>2026-05-11T09:54:32Z</time>
      </trkpt>
      <trkpt lat="45.97248" lon="5.57125">
        <ele>807.8</ele>
        <time>2026-05-11T09:54:33Z</time>
      </trkpt>
      <trkpt lat="45.97247" lon="5.57115">
        <ele>807.8</ele>
        <time>2026-05-11T09:54:34Z</time>
      </trkpt>
      <trkpt lat="45.97246" lon="5.57105">
        <ele>807.8</ele>
        <time>2026-05-11T09:54:35Z</time>
      </trkpt>
      <trkpt lat="45.97245" lon="5.57101">
        <ele>807.8</ele>
        <time>2026-05-11T09:54:36Z</time>
      </trkpt>
      <trkpt lat="45.97245" lon="5.57096">
        <ele>807.8</ele>
        <time>2026-05-11T09:54:37Z</time>
      </trkpt>
      <trkpt lat="45.97245" lon="5.57091">
        <ele>807.8</ele>
        <time>2026-05-11T09:54:38Z</time>
      </trkpt>
      <trkpt lat="45.97245" lon="5.57087">
        <ele>807.8</ele>
        <time>2026-05-11T09:54:39Z</time>
      </trkpt>
      <trkpt lat="45.97245" lon="5.57082">
        <ele>807.8</ele>
        <time>2026-05-11T09:54:40Z</time>
      </trkpt>
      <trkpt lat="45.97244" lon="5.57077">
        <ele>807.8</ele>
        <time>2026-05-11T09:54:41Z</time>
      </trkpt>
      <trkpt lat="45.97244" lon="5.57073">
        <ele>807.8</ele>
        <time>2026-05-11T09:54:42Z</time>
      </trkpt>
      <trkpt lat="45.97243" lon="5.57068">
        <ele>807.8</ele>
        <time>2026-05-11T09:54:43Z</time>
      </trkpt>
      <trkpt lat="45.97242" lon="5.57063">
        <ele>807.4</ele>
        <time>2026-05-11T09:54:44Z</time>
      </trkpt>
      <trkpt lat="45.97242" lon="5.57058">
        <ele>807.4</ele>
        <time>2026-05-11T09:54:45Z</time>
      </trkpt>
      <trkpt lat="45.97241" lon="5.57053">
        <ele>807.4</ele>
        <time>2026-05-11T09:54:46Z</time>
      </trkpt>
      <trkpt lat="45.97241" lon="5.57048">
        <ele>807.4</ele>
        <time>2026-05-11T09:54:47Z</time>
      </trkpt>
      <trkpt lat="45.97241" lon="5.57044">
        <ele>807.4</ele>
        <time>2026-05-11T09:54:48Z</time>
      </trkpt>
      <trkpt lat="45.97241" lon="5.57039">
        <ele>807.4</ele>
        <time>2026-05-11T09:54:49Z</time>
      </trkpt>
      <trkpt lat="45.97241" lon="5.57034">
        <ele>807.4</ele>
        <time>2026-05-11T09:54:50Z</time>
      </trkpt>
      <trkpt lat="45.9724" lon="5.57029">
        <ele>807.4</ele>
        <time>2026-05-11T09:54:51Z</time>
      </trkpt>
      <trkpt lat="45.9724" lon="5.57024">
        <ele>807.4</ele>
        <time>2026-05-11T09:54:52Z</time>
      </trkpt>
      <trkpt lat="45.9724" lon="5.57019">
        <ele>807.4</ele>
        <time>2026-05-11T09:54:53Z</time>
      </trkpt>
      <trkpt lat="45.9724" lon="5.57013">
        <ele>807.4</ele>
        <time>2026-05-11T09:54:54Z</time>
      </trkpt>
      <trkpt lat="45.97239" lon="5.57008">
        <ele>807.4</ele>
        <time>2026-05-11T09:54:55Z</time>
      </trkpt>
      <trkpt lat="45.97239" lon="5.57003">
        <ele>807.4</ele>
        <time>2026-05-11T09:54:56Z</time>
      </trkpt>
      <trkpt lat="45.97239" lon="5.56998">
        <ele>807.8</ele>
        <time>2026-05-11T09:54:57Z</time>
      </trkpt>
      <trkpt lat="45.97239" lon="5.56992">
        <ele>808</ele>
        <time>2026-05-11T09:54:58Z</time>
      </trkpt>
      <trkpt lat="45.97239" lon="5.56986">
        <ele>808</ele>
        <time>2026-05-11T09:54:59Z</time>
      </trkpt>
      <trkpt lat="45.97239" lon="5.56981">
        <ele>808</ele>
        <time>2026-05-11T09:55:00Z</time>
      </trkpt>
      <trkpt lat="45.9724" lon="5.56975">
        <ele>808</ele>
        <time>2026-05-11T09:55:01Z</time>
      </trkpt>
      <trkpt lat="45.9724" lon="5.5697">
        <ele>808</ele>
        <time>2026-05-11T09:55:02Z</time>
      </trkpt>
      <trkpt lat="45.97241" lon="5.56965">
        <ele>808</ele>
        <time>2026-05-11T09:55:03Z</time>
      </trkpt>
      <trkpt lat="45.97241" lon="5.56961">
        <ele>808</ele>
        <time>2026-05-11T09:55:04Z</time>
      </trkpt>
      <trkpt lat="45.97242" lon="5.56956">
        <ele>808</ele>
        <time>2026-05-11T09:55:05Z</time>
      </trkpt>
      <trkpt lat="45.97242" lon="5.56952">
        <ele>808</ele>
        <time>2026-05-11T09:55:06Z</time>
      </trkpt>
      <trkpt lat="45.97242" lon="5.56947">
        <ele>807.8</ele>
        <time>2026-05-11T09:55:07Z</time>
      </trkpt>
      <trkpt lat="45.97241" lon="5.56943">
        <ele>807.8</ele>
        <time>2026-05-11T09:55:08Z</time>
      </trkpt>
      <trkpt lat="45.97239" lon="5.5694">
        <ele>808</ele>
        <time>2026-05-11T09:55:09Z</time>
      </trkpt>
      <trkpt lat="45.97237" lon="5.56937">
        <ele>808.6</ele>
        <time>2026-05-11T09:55:10Z</time>
      </trkpt>
      <trkpt lat="45.97236" lon="5.56935">
        <ele>808.8</ele>
        <time>2026-05-11T09:55:11Z</time>
      </trkpt>
      <trkpt lat="45.97234" lon="5.56931">
        <ele>808.8</ele>
        <time>2026-05-11T09:55:12Z</time>
      </trkpt>
      <trkpt lat="45.97234" lon="5.56929">
        <ele>809.2</ele>
        <time>2026-05-11T09:55:13Z</time>
      </trkpt>
      <trkpt lat="45.97233" lon="5.56926">
        <ele>809.4</ele>
        <time>2026-05-11T09:55:14Z</time>
      </trkpt>
      <trkpt lat="45.97233" lon="5.56923">
        <ele>809.4</ele>
        <time>2026-05-11T09:55:15Z</time>
      </trkpt>
      <trkpt lat="45.97232" lon="5.5692">
        <ele>810</ele>
        <time>2026-05-11T09:55:16Z</time>
      </trkpt>
      <trkpt lat="45.97232" lon="5.56916">
        <ele>810</ele>
        <time>2026-05-11T09:55:17Z</time>
      </trkpt>
      <trkpt lat="45.97231" lon="5.56912">
        <ele>810.4</ele>
        <time>2026-05-11T09:55:18Z</time>
      </trkpt>
      <trkpt lat="45.9723" lon="5.56908">
        <ele>810.4</ele>
        <time>2026-05-11T09:55:19Z</time>
      </trkpt>
      <trkpt lat="45.97229" lon="5.56904">
        <ele>810.4</ele>
        <time>2026-05-11T09:55:20Z</time>
      </trkpt>
      <trkpt lat="45.97229" lon="5.569">
        <ele>810.2</ele>
        <time>2026-05-11T09:55:21Z</time>
      </trkpt>
      <trkpt lat="45.97228" lon="5.56896">
        <ele>810</ele>
        <time>2026-05-11T09:55:22Z</time>
      </trkpt>
      <trkpt lat="45.97227" lon="5.56892">
        <ele>810</ele>
        <time>2026-05-11T09:55:23Z</time>
      </trkpt>
      <trkpt lat="45.97226" lon="5.5689">
        <ele>810</ele>
        <time>2026-05-11T09:55:24Z</time>
      </trkpt>
      <trkpt lat="45.97225" lon="5.56887">
        <ele>810</ele>
        <time>2026-05-11T09:55:25Z</time>
      </trkpt>
      <trkpt lat="45.97224" lon="5.56883">
        <ele>810</ele>
        <time>2026-05-11T09:55:26Z</time>
      </trkpt>
      <trkpt lat="45.97223" lon="5.56879">
        <ele>810.2</ele>
        <time>2026-05-11T09:55:27Z</time>
      </trkpt>
      <trkpt lat="45.97221" lon="5.56875">
        <ele>810.2</ele>
        <time>2026-05-11T09:55:28Z</time>
      </trkpt>
      <trkpt lat="45.9722" lon="5.56871">
        <ele>810.8</ele>
        <time>2026-05-11T09:55:29Z</time>
      </trkpt>
      <trkpt lat="45.97219" lon="5.56868">
        <ele>810.8</ele>
        <time>2026-05-11T09:55:30Z</time>
      </trkpt>
      <trkpt lat="45.97218" lon="5.56865">
        <ele>810.2</ele>
        <time>2026-05-11T09:55:31Z</time>
      </trkpt>
      <trkpt lat="45.97217" lon="5.56861">
        <ele>810.6</ele>
        <time>2026-05-11T09:55:32Z</time>
      </trkpt>
      <trkpt lat="45.97215" lon="5.56858">
        <ele>810.6</ele>
        <time>2026-05-11T09:55:33Z</time>
      </trkpt>
      <trkpt lat="45.97214" lon="5.56855">
        <ele>810.8</ele>
        <time>2026-05-11T09:55:34Z</time>
      </trkpt>
      <trkpt lat="45.97213" lon="5.56852">
        <ele>810.8</ele>
        <time>2026-05-11T09:55:35Z</time>
      </trkpt>
      <trkpt lat="45.97212" lon="5.56848">
        <ele>810.8</ele>
        <time>2026-05-11T09:55:36Z</time>
      </trkpt>
      <trkpt lat="45.97211" lon="5.56844">
        <ele>810.8</ele>
        <time>2026-05-11T09:55:37Z</time>
      </trkpt>
      <trkpt lat="45.97209" lon="5.56841">
        <ele>810.8</ele>
        <time>2026-05-11T09:55:38Z</time>
      </trkpt>
      <trkpt lat="45.97207" lon="5.56838">
        <ele>811.2</ele>
        <time>2026-05-11T09:55:39Z</time>
      </trkpt>
      <trkpt lat="45.97205" lon="5.56836">
        <ele>811.2</ele>
        <time>2026-05-11T09:55:40Z</time>
      </trkpt>
      <trkpt lat="45.97203" lon="5.56833">
        <ele>811.2</ele>
        <time>2026-05-11T09:55:41Z</time>
      </trkpt>
      <trkpt lat="45.97201" lon="5.56831">
        <ele>811.2</ele>
        <time>2026-05-11T09:55:42Z</time>
      </trkpt>
      <trkpt lat="45.97198" lon="5.56829">
        <ele>811.2</ele>
        <time>2026-05-11T09:55:43Z</time>
      </trkpt>
      <trkpt lat="45.97196" lon="5.56827">
        <ele>811.2</ele>
        <time>2026-05-11T09:55:44Z</time>
      </trkpt>
      <trkpt lat="45.97194" lon="5.56825">
        <ele>811.4</ele>
        <time>2026-05-11T09:55:45Z</time>
      </trkpt>
      <trkpt lat="45.97192" lon="5.56823">
        <ele>811.4</ele>
        <time>2026-05-11T09:55:46Z</time>
      </trkpt>
      <trkpt lat="45.9719" lon="5.56822">
        <ele>811</ele>
        <time>2026-05-11T09:55:47Z</time>
      </trkpt>
      <trkpt lat="45.97188" lon="5.5682">
        <ele>811.4</ele>
        <time>2026-05-11T09:55:48Z</time>
      </trkpt>
      <trkpt lat="45.97187" lon="5.56817">
        <ele>811.6</ele>
        <time>2026-05-11T09:55:49Z</time>
      </trkpt>
      <trkpt lat="45.97186" lon="5.56815">
        <ele>811.8</ele>
        <time>2026-05-11T09:55:50Z</time>
      </trkpt>
      <trkpt lat="45.97186" lon="5.56811">
        <ele>812.2</ele>
        <time>2026-05-11T09:55:51Z</time>
      </trkpt>
      <trkpt lat="45.97186" lon="5.56807">
        <ele>812.2</ele>
        <time>2026-05-11T09:55:52Z</time>
      </trkpt>
      <trkpt lat="45.97186" lon="5.56803">
        <ele>812.2</ele>
        <time>2026-05-11T09:55:53Z</time>
      </trkpt>
      <trkpt lat="45.97186" lon="5.568">
        <ele>812.6</ele>
        <time>2026-05-11T09:55:54Z</time>
      </trkpt>
      <trkpt lat="45.97186" lon="5.56796">
        <ele>813</ele>
        <time>2026-05-11T09:55:55Z</time>
      </trkpt>
      <trkpt lat="45.97186" lon="5.56793">
        <ele>813</ele>
        <time>2026-05-11T09:55:56Z</time>
      </trkpt>
      <trkpt lat="45.97187" lon="5.56791">
        <ele>813.4</ele>
        <time>2026-05-11T09:55:57Z</time>
      </trkpt>
      <trkpt lat="45.97187" lon="5.56788">
        <ele>813.6</ele>
        <time>2026-05-11T09:55:58Z</time>
      </trkpt>
      <trkpt lat="45.97187" lon="5.56788">
        <ele>814</ele>
        <time>2026-05-11T09:55:59Z</time>
      </trkpt>
      <trkpt lat="45.97188" lon="5.56784">
        <ele>814</ele>
        <time>2026-05-11T09:56:00Z</time>
      </trkpt>
      <trkpt lat="45.97188" lon="5.56781">
        <ele>814.4</ele>
        <time>2026-05-11T09:56:01Z</time>
      </trkpt>
      <trkpt lat="45.97188" lon="5.56778">
        <ele>814.2</ele>
        <time>2026-05-11T09:56:02Z</time>
      </trkpt>
      <trkpt lat="45.97188" lon="5.56776">
        <ele>814.2</ele>
        <time>2026-05-11T09:56:03Z</time>
      </trkpt>
      <trkpt lat="45.97188" lon="5.56774">
        <ele>814.8</ele>
        <time>2026-05-11T09:56:04Z</time>
      </trkpt>
      <trkpt lat="45.97188" lon="5.56772">
        <ele>815.2</ele>
        <time>2026-05-11T09:56:05Z</time>
      </trkpt>
      <trkpt lat="45.97188" lon="5.5677">
        <ele>815.2</ele>
        <time>2026-05-11T09:56:06Z</time>
      </trkpt>
      <trkpt lat="45.97188" lon="5.56767">
        <ele>815.8</ele>
        <time>2026-05-11T09:56:07Z</time>
      </trkpt>
      <trkpt lat="45.97187" lon="5.56764">
        <ele>816</ele>
        <time>2026-05-11T09:56:08Z</time>
      </trkpt>
      <trkpt lat="45.97187" lon="5.56762">
        <ele>816.4</ele>
        <time>2026-05-11T09:56:09Z</time>
      </trkpt>
      <trkpt lat="45.97187" lon="5.5676">
        <ele>816.8</ele>
        <time>2026-05-11T09:56:10Z</time>
      </trkpt>
      <trkpt lat="45.97187" lon="5.56758">
        <ele>816.8</ele>
        <time>2026-05-11T09:56:11Z</time>
      </trkpt>
      <trkpt lat="45.97186" lon="5.56755">
        <ele>817</ele>
        <time>2026-05-11T09:56:12Z</time>
      </trkpt>
      <trkpt lat="45.97186" lon="5.56753">
        <ele>817</ele>
        <time>2026-05-11T09:56:13Z</time>
      </trkpt>
      <trkpt lat="45.97185" lon="5.5675">
        <ele>817.6</ele>
        <time>2026-05-11T09:56:14Z</time>
      </trkpt>
      <trkpt lat="45.97185" lon="5.56747">
        <ele>817.6</ele>
        <time>2026-05-11T09:56:15Z</time>
      </trkpt>
      <trkpt lat="45.97185" lon="5.56744">
        <ele>817.8</ele>
        <time>2026-05-11T09:56:16Z</time>
      </trkpt>
      <trkpt lat="45.97185" lon="5.56741">
        <ele>817.8</ele>
        <time>2026-05-11T09:56:17Z</time>
      </trkpt>
      <trkpt lat="45.97184" lon="5.56738">
        <ele>818</ele>
        <time>2026-05-11T09:56:18Z</time>
      </trkpt>
      <trkpt lat="45.97184" lon="5.56736">
        <ele>818</ele>
        <time>2026-05-11T09:56:19Z</time>
      </trkpt>
      <trkpt lat="45.97183" lon="5.56734">
        <ele>818</ele>
        <time>2026-05-11T09:56:20Z</time>
      </trkpt>
      <trkpt lat="45.97182" lon="5.56731">
        <ele>818</ele>
        <time>2026-05-11T09:56:21Z</time>
      </trkpt>
      <trkpt lat="45.97182" lon="5.56729">
        <ele>818</ele>
        <time>2026-05-11T09:56:22Z</time>
      </trkpt>
      <trkpt lat="45.97182" lon="5.56728">
        <ele>818</ele>
        <time>2026-05-11T09:56:23Z</time>
      </trkpt>
      <trkpt lat="45.97182" lon="5.56727">
        <ele>818</ele>
        <time>2026-05-11T09:56:24Z</time>
      </trkpt>
      <trkpt lat="45.97182" lon="5.56727">
        <ele>818</ele>
        <time>2026-05-11T09:56:25Z</time>
      </trkpt>
      <trkpt lat="45.97183" lon="5.56727">
        <ele>818.8</ele>
        <time>2026-05-11T10:01:21Z</time>
      </trkpt>
      <trkpt lat="45.97183" lon="5.56728">
        <ele>818.8</ele>
        <time>2026-05-11T10:01:22Z</time>
      </trkpt>
      <trkpt lat="45.97183" lon="5.56728">
        <ele>818.4</ele>
        <time>2026-05-11T10:01:23Z</time>
      </trkpt>
      <trkpt lat="45.9718" lon="5.56724">
        <ele>819.4</ele>
        <time>2026-05-11T10:02:41Z</time>
      </trkpt>
      <trkpt lat="45.9718" lon="5.56721">
        <ele>819.2</ele>
        <time>2026-05-11T10:02:42Z</time>
      </trkpt>
      <trkpt lat="45.9718" lon="5.56718">
        <ele>819.2</ele>
        <time>2026-05-11T10:02:43Z</time>
      </trkpt>
      <trkpt lat="45.9718" lon="5.56714">
        <ele>818.8</ele>
        <time>2026-05-11T10:02:44Z</time>
      </trkpt>
      <trkpt lat="45.9718" lon="5.5671">
        <ele>818.8</ele>
        <time>2026-05-11T10:02:45Z</time>
      </trkpt>
      <trkpt lat="45.9718" lon="5.56707">
        <ele>818.6</ele>
        <time>2026-05-11T10:02:46Z</time>
      </trkpt>
      <trkpt lat="45.9718" lon="5.56704">
        <ele>818.6</ele>
        <time>2026-05-11T10:02:47Z</time>
      </trkpt>
      <trkpt lat="45.9718" lon="5.56701">
        <ele>818.6</ele>
        <time>2026-05-11T10:02:48Z</time>
      </trkpt>
      <trkpt lat="45.9718" lon="5.56697">
        <ele>818.6</ele>
        <time>2026-05-11T10:02:49Z</time>
      </trkpt>
      <trkpt lat="45.97181" lon="5.56693">
        <ele>818.6</ele>
        <time>2026-05-11T10:02:50Z</time>
      </trkpt>
      <trkpt lat="45.97181" lon="5.56689">
        <ele>818.2</ele>
        <time>2026-05-11T10:02:51Z</time>
      </trkpt>
      <trkpt lat="45.97181" lon="5.56686">
        <ele>818.2</ele>
        <time>2026-05-11T10:02:52Z</time>
      </trkpt>
      <trkpt lat="45.97181" lon="5.56684">
        <ele>818.2</ele>
        <time>2026-05-11T10:02:53Z</time>
      </trkpt>
      <trkpt lat="45.97181" lon="5.56681">
        <ele>817.8</ele>
        <time>2026-05-11T10:02:54Z</time>
      </trkpt>
      <trkpt lat="45.97182" lon="5.56677">
        <ele>817.8</ele>
        <time>2026-05-11T10:02:55Z</time>
      </trkpt>
      <trkpt lat="45.97182" lon="5.56673">
        <ele>817.8</ele>
        <time>2026-05-11T10:02:56Z</time>
      </trkpt>
      <trkpt lat="45.97182" lon="5.56669">
        <ele>817.8</ele>
        <time>2026-05-11T10:02:57Z</time>
      </trkpt>
      <trkpt lat="45.97181" lon="5.56665">
        <ele>818</ele>
        <time>2026-05-11T10:02:58Z</time>
      </trkpt>
      <trkpt lat="45.97181" lon="5.56661">
        <ele>818</ele>
        <time>2026-05-11T10:02:59Z</time>
      </trkpt>
      <trkpt lat="45.9718" lon="5.56657">
        <ele>818.4</ele>
        <time>2026-05-11T10:03:00Z</time>
      </trkpt>
      <trkpt lat="45.97178" lon="5.56653">
        <ele>818.8</ele>
        <time>2026-05-11T10:03:01Z</time>
      </trkpt>
      <trkpt lat="45.97177" lon="5.56649">
        <ele>818.8</ele>
        <time>2026-05-11T10:03:02Z</time>
      </trkpt>
      <trkpt lat="45.97175" lon="5.56646">
        <ele>818.8</ele>
        <time>2026-05-11T10:03:03Z</time>
      </trkpt>
      <trkpt lat="45.97175" lon="5.56643">
        <ele>818.8</ele>
        <time>2026-05-11T10:03:04Z</time>
      </trkpt>
      <trkpt lat="45.97174" lon="5.56639">
        <ele>818.8</ele>
        <time>2026-05-11T10:03:05Z</time>
      </trkpt>
      <trkpt lat="45.97174" lon="5.56635">
        <ele>818.8</ele>
        <time>2026-05-11T10:03:06Z</time>
      </trkpt>
      <trkpt lat="45.97174" lon="5.56631">
        <ele>818.4</ele>
        <time>2026-05-11T10:03:07Z</time>
      </trkpt>
      <trkpt lat="45.97175" lon="5.56627">
        <ele>818.4</ele>
        <time>2026-05-11T10:03:08Z</time>
      </trkpt>
      <trkpt lat="45.97176" lon="5.56623">
        <ele>818.4</ele>
        <time>2026-05-11T10:03:09Z</time>
      </trkpt>
      <trkpt lat="45.97177" lon="5.56619">
        <ele>818.4</ele>
        <time>2026-05-11T10:03:10Z</time>
      </trkpt>
      <trkpt lat="45.97178" lon="5.56614">
        <ele>818.4</ele>
        <time>2026-05-11T10:03:11Z</time>
      </trkpt>
      <trkpt lat="45.97179" lon="5.56609">
        <ele>818.4</ele>
        <time>2026-05-11T10:03:12Z</time>
      </trkpt>
      <trkpt lat="45.9718" lon="5.56605">
        <ele>818.2</ele>
        <time>2026-05-11T10:03:13Z</time>
      </trkpt>
      <trkpt lat="45.9718" lon="5.56601">
        <ele>818.2</ele>
        <time>2026-05-11T10:03:14Z</time>
      </trkpt>
      <trkpt lat="45.97181" lon="5.56597">
        <ele>818.2</ele>
        <time>2026-05-11T10:03:15Z</time>
      </trkpt>
      <trkpt lat="45.97182" lon="5.56591">
        <ele>818</ele>
        <time>2026-05-11T10:03:16Z</time>
      </trkpt>
      <trkpt lat="45.97182" lon="5.56586">
        <ele>817.6</ele>
        <time>2026-05-11T10:03:17Z</time>
      </trkpt>
      <trkpt lat="45.97183" lon="5.56581">
        <ele>817.2</ele>
        <time>2026-05-11T10:03:18Z</time>
      </trkpt>
      <trkpt lat="45.97183" lon="5.56575">
        <ele>816.8</ele>
        <time>2026-05-11T10:03:19Z</time>
      </trkpt>
      <trkpt lat="45.97182" lon="5.56569">
        <ele>816.2</ele>
        <time>2026-05-11T10:03:20Z</time>
      </trkpt>
      <trkpt lat="45.97181" lon="5.56563">
        <ele>815.8</ele>
        <time>2026-05-11T10:03:21Z</time>
      </trkpt>
      <trkpt lat="45.9718" lon="5.56558">
        <ele>815.8</ele>
        <time>2026-05-11T10:03:22Z</time>
      </trkpt>
      <trkpt lat="45.97178" lon="5.56552">
        <ele>815</ele>
        <time>2026-05-11T10:03:23Z</time>
      </trkpt>
      <trkpt lat="45.97177" lon="5.56547">
        <ele>815</ele>
        <time>2026-05-11T10:03:24Z</time>
      </trkpt>
      <trkpt lat="45.97176" lon="5.56542">
        <ele>815</ele>
        <time>2026-05-11T10:03:25Z</time>
      </trkpt>
      <trkpt lat="45.97176" lon="5.56542">
        <ele>815.4</ele>
        <time>2026-05-11T10:03:26Z</time>
      </trkpt>
      <trkpt lat="45.97176" lon="5.56542">
        <ele>815.4</ele>
        <time>2026-05-11T10:03:27Z</time>
      </trkpt>
      <trkpt lat="45.97174" lon="5.56523">
        <ele>815</ele>
        <time>2026-05-11T10:03:29Z</time>
      </trkpt>
      <trkpt lat="45.97173" lon="5.56518">
        <ele>814.8</ele>
        <time>2026-05-11T10:03:30Z</time>
      </trkpt>
      <trkpt lat="45.97171" lon="5.56513">
        <ele>815</ele>
        <time>2026-05-11T10:03:31Z</time>
      </trkpt>
      <trkpt lat="45.9717" lon="5.56508">
        <ele>814</ele>
        <time>2026-05-11T10:03:32Z</time>
      </trkpt>
      <trkpt lat="45.97169" lon="5.56503">
        <ele>813.8</ele>
        <time>2026-05-11T10:03:33Z</time>
      </trkpt>
      <trkpt lat="45.97168" lon="5.56499">
        <ele>813.8</ele>
        <time>2026-05-11T10:03:34Z</time>
      </trkpt>
      <trkpt lat="45.97167" lon="5.56494">
        <ele>813.2</ele>
        <time>2026-05-11T10:03:35Z</time>
      </trkpt>
      <trkpt lat="45.97165" lon="5.56488">
        <ele>812.6</ele>
        <time>2026-05-11T10:03:36Z</time>
      </trkpt>
      <trkpt lat="45.97163" lon="5.56484">
        <ele>812.4</ele>
        <time>2026-05-11T10:03:37Z</time>
      </trkpt>
      <trkpt lat="45.97162" lon="5.56476">
        <ele>811.8</ele>
        <time>2026-05-11T10:03:38Z</time>
      </trkpt>
      <trkpt lat="45.9716" lon="5.56471">
        <ele>811.2</ele>
        <time>2026-05-11T10:03:39Z</time>
      </trkpt>
      <trkpt lat="45.9716" lon="5.56464">
        <ele>811</ele>
        <time>2026-05-11T10:03:40Z</time>
      </trkpt>
      <trkpt lat="45.97159" lon="5.56457">
        <ele>811</ele>
        <time>2026-05-11T10:03:41Z</time>
      </trkpt>
      <trkpt lat="45.97159" lon="5.56451">
        <ele>811</ele>
        <time>2026-05-11T10:03:42Z</time>
      </trkpt>
      <trkpt lat="45.9716" lon="5.56445">
        <ele>810.4</ele>
        <time>2026-05-11T10:03:43Z</time>
      </trkpt>
      <trkpt lat="45.97158" lon="5.56439">
        <ele>810.4</ele>
        <time>2026-05-11T10:03:44Z</time>
      </trkpt>
      <trkpt lat="45.97158" lon="5.56433">
        <ele>810</ele>
        <time>2026-05-11T10:03:45Z</time>
      </trkpt>
      <trkpt lat="45.97157" lon="5.56427">
        <ele>810</ele>
        <time>2026-05-11T10:03:46Z</time>
      </trkpt>
      <trkpt lat="45.97156" lon="5.56421">
        <ele>809.4</ele>
        <time>2026-05-11T10:03:47Z</time>
      </trkpt>
      <trkpt lat="45.97156" lon="5.56415">
        <ele>809.4</ele>
        <time>2026-05-11T10:03:48Z</time>
      </trkpt>
      <trkpt lat="45.97155" lon="5.56408">
        <ele>809.4</ele>
        <time>2026-05-11T10:03:49Z</time>
      </trkpt>
      <trkpt lat="45.97156" lon="5.56402">
        <ele>809.4</ele>
        <time>2026-05-11T10:03:50Z</time>
      </trkpt>
      <trkpt lat="45.97155" lon="5.56396">
        <ele>808.8</ele>
        <time>2026-05-11T10:03:51Z</time>
      </trkpt>
      <trkpt lat="45.97155" lon="5.56389">
        <ele>808.8</ele>
        <time>2026-05-11T10:03:52Z</time>
      </trkpt>
      <trkpt lat="45.97155" lon="5.56383">
        <ele>808.8</ele>
        <time>2026-05-11T10:03:53Z</time>
      </trkpt>
      <trkpt lat="45.97154" lon="5.56377">
        <ele>808.6</ele>
        <time>2026-05-11T10:03:54Z</time>
      </trkpt>
      <trkpt lat="45.97153" lon="5.56371">
        <ele>808.6</ele>
        <time>2026-05-11T10:03:55Z</time>
      </trkpt>
      <trkpt lat="45.97152" lon="5.56365">
        <ele>809.2</ele>
        <time>2026-05-11T10:03:56Z</time>
      </trkpt>
      <trkpt lat="45.97151" lon="5.56361">
        <ele>808.8</ele>
        <time>2026-05-11T10:03:57Z</time>
      </trkpt>
      <trkpt lat="45.97149" lon="5.56355">
        <ele>809</ele>
        <time>2026-05-11T10:03:58Z</time>
      </trkpt>
      <trkpt lat="45.97148" lon="5.56351">
        <ele>809</ele>
        <time>2026-05-11T10:03:59Z</time>
      </trkpt>
      <trkpt lat="45.97146" lon="5.56345">
        <ele>809</ele>
        <time>2026-05-11T10:04:00Z</time>
      </trkpt>
      <trkpt lat="45.97143" lon="5.56339">
        <ele>808.2</ele>
        <time>2026-05-11T10:04:01Z</time>
      </trkpt>
      <trkpt lat="45.97141" lon="5.56333">
        <ele>808.2</ele>
        <time>2026-05-11T10:04:02Z</time>
      </trkpt>
      <trkpt lat="45.97139" lon="5.56327">
        <ele>807.6</ele>
        <time>2026-05-11T10:04:03Z</time>
      </trkpt>
      <trkpt lat="45.97139" lon="5.56322">
        <ele>807.6</ele>
        <time>2026-05-11T10:04:04Z</time>
      </trkpt>
      <trkpt lat="45.97138" lon="5.56317">
        <ele>807.2</ele>
        <time>2026-05-11T10:04:05Z</time>
      </trkpt>
      <trkpt lat="45.97136" lon="5.56314">
        <ele>806.8</ele>
        <time>2026-05-11T10:04:06Z</time>
      </trkpt>
      <trkpt lat="45.97132" lon="5.5631">
        <ele>806.4</ele>
        <time>2026-05-11T10:04:07Z</time>
      </trkpt>
      <trkpt lat="45.97129" lon="5.56307">
        <ele>806.4</ele>
        <time>2026-05-11T10:04:08Z</time>
      </trkpt>
      <trkpt lat="45.97125" lon="5.56302">
        <ele>805.6</ele>
        <time>2026-05-11T10:04:09Z</time>
      </trkpt>
      <trkpt lat="45.97122" lon="5.56298">
        <ele>805.2</ele>
        <time>2026-05-11T10:04:10Z</time>
      </trkpt>
      <trkpt lat="45.97122" lon="5.56294">
        <ele>805.2</ele>
        <time>2026-05-11T10:04:11Z</time>
      </trkpt>
      <trkpt lat="45.97121" lon="5.56292">
        <ele>805.8</ele>
        <time>2026-05-11T10:04:12Z</time>
      </trkpt>
      <trkpt lat="45.97121" lon="5.5629">
        <ele>805.8</ele>
        <time>2026-05-11T10:04:13Z</time>
      </trkpt>
      <trkpt lat="45.9712" lon="5.56286">
        <ele>806</ele>
        <time>2026-05-11T10:04:14Z</time>
      </trkpt>
      <trkpt lat="45.97118" lon="5.56282">
        <ele>805.8</ele>
        <time>2026-05-11T10:04:15Z</time>
      </trkpt>
      <trkpt lat="45.97116" lon="5.56278">
        <ele>805.8</ele>
        <time>2026-05-11T10:04:16Z</time>
      </trkpt>
      <trkpt lat="45.97113" lon="5.56275">
        <ele>805.8</ele>
        <time>2026-05-11T10:04:17Z</time>
      </trkpt>
      <trkpt lat="45.9711" lon="5.56272">
        <ele>805.8</ele>
        <time>2026-05-11T10:04:18Z</time>
      </trkpt>
      <trkpt lat="45.97107" lon="5.56268">
        <ele>805.2</ele>
        <time>2026-05-11T10:04:19Z</time>
      </trkpt>
      <trkpt lat="45.97104" lon="5.56263">
        <ele>805.4</ele>
        <time>2026-05-11T10:04:20Z</time>
      </trkpt>
      <trkpt lat="45.97101" lon="5.56259">
        <ele>805.4</ele>
        <time>2026-05-11T10:04:21Z</time>
      </trkpt>
      <trkpt lat="45.97097" lon="5.56257">
        <ele>805.6</ele>
        <time>2026-05-11T10:04:22Z</time>
      </trkpt>
      <trkpt lat="45.97092" lon="5.56254">
        <ele>805.2</ele>
        <time>2026-05-11T10:04:23Z</time>
      </trkpt>
      <trkpt lat="45.97088" lon="5.56251">
        <ele>804.8</ele>
        <time>2026-05-11T10:04:24Z</time>
      </trkpt>
      <trkpt lat="45.97083" lon="5.56248">
        <ele>803.8</ele>
        <time>2026-05-11T10:04:25Z</time>
      </trkpt>
      <trkpt lat="45.9708" lon="5.56244">
        <ele>803.6</ele>
        <time>2026-05-11T10:04:26Z</time>
      </trkpt>
      <trkpt lat="45.97075" lon="5.56242">
        <ele>803.6</ele>
        <time>2026-05-11T10:04:27Z</time>
      </trkpt>
      <trkpt lat="45.97075" lon="5.56242">
        <ele>803.6</ele>
        <time>2026-05-11T10:04:28Z</time>
      </trkpt>
      <trkpt lat="45.97075" lon="5.56242">
        <ele>803.2</ele>
        <time>2026-05-11T10:04:29Z</time>
      </trkpt>
      <trkpt lat="45.97066" lon="5.56239">
        <ele>803.8</ele>
        <time>2026-05-11T10:04:30Z</time>
      </trkpt>
      <trkpt lat="45.97058" lon="5.56244">
        <ele>803.8</ele>
        <time>2026-05-11T10:04:31Z</time>
      </trkpt>
      <trkpt lat="45.97055" lon="5.56245">
        <ele>803.2</ele>
        <time>2026-05-11T10:04:32Z</time>
      </trkpt>
      <trkpt lat="45.97049" lon="5.56246">
        <ele>802.8</ele>
        <time>2026-05-11T10:04:33Z</time>
      </trkpt>
      <trkpt lat="45.97045" lon="5.56246">
        <ele>802.4</ele>
        <time>2026-05-11T10:04:34Z</time>
      </trkpt>
      <trkpt lat="45.9704" lon="5.56246">
        <ele>802.2</ele>
        <time>2026-05-11T10:04:35Z</time>
      </trkpt>
      <trkpt lat="45.97035" lon="5.56245">
        <ele>801.8</ele>
        <time>2026-05-11T10:04:36Z</time>
      </trkpt>
      <trkpt lat="45.9703" lon="5.56245">
        <ele>801.2</ele>
        <time>2026-05-11T10:04:37Z</time>
      </trkpt>
      <trkpt lat="45.97024" lon="5.56244">
        <ele>800.4</ele>
        <time>2026-05-11T10:04:38Z</time>
      </trkpt>
      <trkpt lat="45.97019" lon="5.56243">
        <ele>800.4</ele>
        <time>2026-05-11T10:04:39Z</time>
      </trkpt>
      <trkpt lat="45.97014" lon="5.56241">
        <ele>800</ele>
        <time>2026-05-11T10:04:40Z</time>
      </trkpt>
      <trkpt lat="45.97009" lon="5.56238">
        <ele>800</ele>
        <time>2026-05-11T10:04:41Z</time>
      </trkpt>
      <trkpt lat="45.97004" lon="5.56233">
        <ele>799.4</ele>
        <time>2026-05-11T10:04:42Z</time>
      </trkpt>
      <trkpt lat="45.96999" lon="5.56228">
        <ele>798.8</ele>
        <time>2026-05-11T10:04:43Z</time>
      </trkpt>
      <trkpt lat="45.96994" lon="5.56224">
        <ele>798.4</ele>
        <time>2026-05-11T10:04:44Z</time>
      </trkpt>
      <trkpt lat="45.96991" lon="5.56218">
        <ele>798.4</ele>
        <time>2026-05-11T10:04:45Z</time>
      </trkpt>
      <trkpt lat="45.96989" lon="5.56213">
        <ele>798.4</ele>
        <time>2026-05-11T10:04:46Z</time>
      </trkpt>
      <trkpt lat="45.96987" lon="5.56208">
        <ele>798.4</ele>
        <time>2026-05-11T10:04:47Z</time>
      </trkpt>
      <trkpt lat="45.96989" lon="5.56203">
        <ele>798.6</ele>
        <time>2026-05-11T10:04:48Z</time>
      </trkpt>
      <trkpt lat="45.96989" lon="5.56201">
        <ele>798.6</ele>
        <time>2026-05-11T10:04:49Z</time>
      </trkpt>
      <trkpt lat="45.9699" lon="5.56196">
        <ele>798.6</ele>
        <time>2026-05-11T10:04:50Z</time>
      </trkpt>
      <trkpt lat="45.96991" lon="5.56191">
        <ele>798.8</ele>
        <time>2026-05-11T10:04:51Z</time>
      </trkpt>
      <trkpt lat="45.96991" lon="5.56186">
        <ele>798.8</ele>
        <time>2026-05-11T10:04:52Z</time>
      </trkpt>
      <trkpt lat="45.96992" lon="5.5618">
        <ele>798.8</ele>
        <time>2026-05-11T10:04:53Z</time>
      </trkpt>
      <trkpt lat="45.96995" lon="5.56174">
        <ele>798.4</ele>
        <time>2026-05-11T10:04:54Z</time>
      </trkpt>
      <trkpt lat="45.96995" lon="5.5617">
        <ele>798.2</ele>
        <time>2026-05-11T10:04:55Z</time>
      </trkpt>
      <trkpt lat="45.96996" lon="5.56162">
        <ele>797</ele>
        <time>2026-05-11T10:04:56Z</time>
      </trkpt>
      <trkpt lat="45.96995" lon="5.56155">
        <ele>797.4</ele>
        <time>2026-05-11T10:04:57Z</time>
      </trkpt>
      <trkpt lat="45.96993" lon="5.5615">
        <ele>797.4</ele>
        <time>2026-05-11T10:04:58Z</time>
      </trkpt>
      <trkpt lat="45.96991" lon="5.56145">
        <ele>797.6</ele>
        <time>2026-05-11T10:04:59Z</time>
      </trkpt>
      <trkpt lat="45.96989" lon="5.56141">
        <ele>797.2</ele>
        <time>2026-05-11T10:05:00Z</time>
      </trkpt>
      <trkpt lat="45.96986" lon="5.56135">
        <ele>797</ele>
        <time>2026-05-11T10:05:01Z</time>
      </trkpt>
      <trkpt lat="45.96985" lon="5.56131">
        <ele>797</ele>
        <time>2026-05-11T10:05:02Z</time>
      </trkpt>
      <trkpt lat="45.96983" lon="5.56125">
        <ele>797</ele>
        <time>2026-05-11T10:05:03Z</time>
      </trkpt>
      <trkpt lat="45.96982" lon="5.56119">
        <ele>797.4</ele>
        <time>2026-05-11T10:05:04Z</time>
      </trkpt>
      <trkpt lat="45.96981" lon="5.56112">
        <ele>797.4</ele>
        <time>2026-05-11T10:05:05Z</time>
      </trkpt>
      <trkpt lat="45.9698" lon="5.56105">
        <ele>797.4</ele>
        <time>2026-05-11T10:05:06Z</time>
      </trkpt>
      <trkpt lat="45.9698" lon="5.56103">
        <ele>797.4</ele>
        <time>2026-05-11T10:05:07Z</time>
      </trkpt>
      <trkpt lat="45.9698" lon="5.56097">
        <ele>797.4</ele>
        <time>2026-05-11T10:05:08Z</time>
      </trkpt>
      <trkpt lat="45.9698" lon="5.56093">
        <ele>797.4</ele>
        <time>2026-05-11T10:05:09Z</time>
      </trkpt>
      <trkpt lat="45.96981" lon="5.56086">
        <ele>797.4</ele>
        <time>2026-05-11T10:05:10Z</time>
      </trkpt>
      <trkpt lat="45.9698" lon="5.5608">
        <ele>797.4</ele>
        <time>2026-05-11T10:05:11Z</time>
      </trkpt>
      <trkpt lat="45.96981" lon="5.56074">
        <ele>797.4</ele>
        <time>2026-05-11T10:05:12Z</time>
      </trkpt>
      <trkpt lat="45.96982" lon="5.56069">
        <ele>797.2</ele>
        <time>2026-05-11T10:05:13Z</time>
      </trkpt>
      <trkpt lat="45.96983" lon="5.56059">
        <ele>797</ele>
        <time>2026-05-11T10:05:14Z</time>
      </trkpt>
      <trkpt lat="45.96981" lon="5.56055">
        <ele>797</ele>
        <time>2026-05-11T10:05:15Z</time>
      </trkpt>
      <trkpt lat="45.96981" lon="5.56048">
        <ele>797</ele>
        <time>2026-05-11T10:05:16Z</time>
      </trkpt>
      <trkpt lat="45.96979" lon="5.56044">
        <ele>796.4</ele>
        <time>2026-05-11T10:05:17Z</time>
      </trkpt>
      <trkpt lat="45.96976" lon="5.5604">
        <ele>796.6</ele>
        <time>2026-05-11T10:05:18Z</time>
      </trkpt>
      <trkpt lat="45.96976" lon="5.56037">
        <ele>796.6</ele>
        <time>2026-05-11T10:05:19Z</time>
      </trkpt>
      <trkpt lat="45.96976" lon="5.56031">
        <ele>796.4</ele>
        <time>2026-05-11T10:05:20Z</time>
      </trkpt>
      <trkpt lat="45.96975" lon="5.56027">
        <ele>796</ele>
        <time>2026-05-11T10:05:21Z</time>
      </trkpt>
      <trkpt lat="45.96974" lon="5.56025">
        <ele>796</ele>
        <time>2026-05-11T10:05:22Z</time>
      </trkpt>
      <trkpt lat="45.96973" lon="5.5602">
        <ele>795.4</ele>
        <time>2026-05-11T10:05:23Z</time>
      </trkpt>
      <trkpt lat="45.96972" lon="5.56015">
        <ele>795.4</ele>
        <time>2026-05-11T10:05:24Z</time>
      </trkpt>
      <trkpt lat="45.96972" lon="5.5601">
        <ele>795.4</ele>
        <time>2026-05-11T10:05:25Z</time>
      </trkpt>
      <trkpt lat="45.96973" lon="5.56004">
        <ele>795.4</ele>
        <time>2026-05-11T10:05:26Z</time>
      </trkpt>
      <trkpt lat="45.96975" lon="5.55999">
        <ele>795.4</ele>
        <time>2026-05-11T10:05:27Z</time>
      </trkpt>
      <trkpt lat="45.96977" lon="5.55995">
        <ele>795.2</ele>
        <time>2026-05-11T10:05:28Z</time>
      </trkpt>
      <trkpt lat="45.96979" lon="5.5599">
        <ele>795.2</ele>
        <time>2026-05-11T10:05:29Z</time>
      </trkpt>
      <trkpt lat="45.96981" lon="5.55985">
        <ele>795</ele>
        <time>2026-05-11T10:05:30Z</time>
      </trkpt>
      <trkpt lat="45.96983" lon="5.5598">
        <ele>795</ele>
        <time>2026-05-11T10:05:31Z</time>
      </trkpt>
      <trkpt lat="45.96985" lon="5.55974">
        <ele>794.6</ele>
        <time>2026-05-11T10:05:32Z</time>
      </trkpt>
      <trkpt lat="45.96986" lon="5.55969">
        <ele>794.6</ele>
        <time>2026-05-11T10:05:33Z</time>
      </trkpt>
      <trkpt lat="45.96988" lon="5.55966">
        <ele>795</ele>
        <time>2026-05-11T10:05:34Z</time>
      </trkpt>
      <trkpt lat="45.96991" lon="5.55962">
        <ele>795</ele>
        <time>2026-05-11T10:05:35Z</time>
      </trkpt>
      <trkpt lat="45.96993" lon="5.55959">
        <ele>795.2</ele>
        <time>2026-05-11T10:05:36Z</time>
      </trkpt>
      <trkpt lat="45.96995" lon="5.55955">
        <ele>795.2</ele>
        <time>2026-05-11T10:05:37Z</time>
      </trkpt>
      <trkpt lat="45.96997" lon="5.5595">
        <ele>795.2</ele>
        <time>2026-05-11T10:05:38Z</time>
      </trkpt>
      <trkpt lat="45.97" lon="5.55942">
        <ele>795.4</ele>
        <time>2026-05-11T10:05:39Z</time>
      </trkpt>
      <trkpt lat="45.97001" lon="5.55938">
        <ele>795.4</ele>
        <time>2026-05-11T10:05:40Z</time>
      </trkpt>
      <trkpt lat="45.97003" lon="5.55932">
        <ele>795.4</ele>
        <time>2026-05-11T10:05:41Z</time>
      </trkpt>
      <trkpt lat="45.97005" lon="5.55929">
        <ele>795.4</ele>
        <time>2026-05-11T10:05:42Z</time>
      </trkpt>
      <trkpt lat="45.9701" lon="5.55926">
        <ele>795.8</ele>
        <time>2026-05-11T10:05:43Z</time>
      </trkpt>
      <trkpt lat="45.97012" lon="5.55922">
        <ele>795.8</ele>
        <time>2026-05-11T10:05:44Z</time>
      </trkpt>
      <trkpt lat="45.97014" lon="5.55919">
        <ele>795.8</ele>
        <time>2026-05-11T10:05:45Z</time>
      </trkpt>
      <trkpt lat="45.97016" lon="5.55914">
        <ele>796</ele>
        <time>2026-05-11T10:05:46Z</time>
      </trkpt>
      <trkpt lat="45.9702" lon="5.55913">
        <ele>796</ele>
        <time>2026-05-11T10:05:47Z</time>
      </trkpt>
      <trkpt lat="45.97023" lon="5.55911">
        <ele>796</ele>
        <time>2026-05-11T10:05:48Z</time>
      </trkpt>
      <trkpt lat="45.97026" lon="5.55912">
        <ele>796</ele>
        <time>2026-05-11T10:05:49Z</time>
      </trkpt>
      <trkpt lat="45.9703" lon="5.55911">
        <ele>796.4</ele>
        <time>2026-05-11T10:05:50Z</time>
      </trkpt>
      <trkpt lat="45.97033" lon="5.55911">
        <ele>796.4</ele>
        <time>2026-05-11T10:05:51Z</time>
      </trkpt>
      <trkpt lat="45.97036" lon="5.55912">
        <ele>796.4</ele>
        <time>2026-05-11T10:05:52Z</time>
      </trkpt>
      <trkpt lat="45.97039" lon="5.55913">
        <ele>796.6</ele>
        <time>2026-05-11T10:05:53Z</time>
      </trkpt>
      <trkpt lat="45.97042" lon="5.55914">
        <ele>797</ele>
        <time>2026-05-11T10:05:54Z</time>
      </trkpt>
      <trkpt lat="45.97044" lon="5.55915">
        <ele>797</ele>
        <time>2026-05-11T10:05:55Z</time>
      </trkpt>
      <trkpt lat="45.97046" lon="5.55917">
        <ele>797.4</ele>
        <time>2026-05-11T10:05:56Z</time>
      </trkpt>
      <trkpt lat="45.97049" lon="5.55919">
        <ele>797.6</ele>
        <time>2026-05-11T10:05:57Z</time>
      </trkpt>
      <trkpt lat="45.97051" lon="5.5592">
        <ele>798</ele>
        <time>2026-05-11T10:05:58Z</time>
      </trkpt>
      <trkpt lat="45.97053" lon="5.55922">
        <ele>798</ele>
        <time>2026-05-11T10:05:59Z</time>
      </trkpt>
      <trkpt lat="45.97056" lon="5.55923">
        <ele>798.2</ele>
        <time>2026-05-11T10:06:00Z</time>
      </trkpt>
      <trkpt lat="45.97058" lon="5.55925">
        <ele>798.6</ele>
        <time>2026-05-11T10:06:01Z</time>
      </trkpt>
      <trkpt lat="45.9706" lon="5.55926">
        <ele>798.6</ele>
        <time>2026-05-11T10:06:02Z</time>
      </trkpt>
      <trkpt lat="45.97063" lon="5.55928">
        <ele>798.6</ele>
        <time>2026-05-11T10:06:03Z</time>
      </trkpt>
      <trkpt lat="45.97065" lon="5.5593">
        <ele>798.8</ele>
        <time>2026-05-11T10:06:04Z</time>
      </trkpt>
      <trkpt lat="45.97067" lon="5.55931">
        <ele>799.2</ele>
        <time>2026-05-11T10:06:05Z</time>
      </trkpt>
      <trkpt lat="45.9707" lon="5.55932">
        <ele>799.4</ele>
        <time>2026-05-11T10:06:06Z</time>
      </trkpt>
      <trkpt lat="45.97072" lon="5.55934">
        <ele>799.8</ele>
        <time>2026-05-11T10:06:07Z</time>
      </trkpt>
      <trkpt lat="45.97075" lon="5.55935">
        <ele>799.8</ele>
        <time>2026-05-11T10:06:08Z</time>
      </trkpt>
      <trkpt lat="45.97078" lon="5.55936">
        <ele>799.8</ele>
        <time>2026-05-11T10:06:09Z</time>
      </trkpt>
      <trkpt lat="45.9708" lon="5.55936">
        <ele>799.8</ele>
        <time>2026-05-11T10:06:10Z</time>
      </trkpt>
      <trkpt lat="45.97083" lon="5.55937">
        <ele>799.8</ele>
        <time>2026-05-11T10:06:11Z</time>
      </trkpt>
      <trkpt lat="45.97085" lon="5.55938">
        <ele>799.8</ele>
        <time>2026-05-11T10:06:12Z</time>
      </trkpt>
      <trkpt lat="45.97088" lon="5.55938">
        <ele>800.2</ele>
        <time>2026-05-11T10:06:13Z</time>
      </trkpt>
      <trkpt lat="45.97091" lon="5.55939">
        <ele>800.2</ele>
        <time>2026-05-11T10:06:14Z</time>
      </trkpt>
      <trkpt lat="45.97093" lon="5.5594">
        <ele>800.2</ele>
        <time>2026-05-11T10:06:15Z</time>
      </trkpt>
      <trkpt lat="45.97096" lon="5.5594">
        <ele>800.2</ele>
        <time>2026-05-11T10:06:16Z</time>
      </trkpt>
      <trkpt lat="45.97099" lon="5.5594">
        <ele>800.4</ele>
        <time>2026-05-11T10:06:17Z</time>
      </trkpt>
      <trkpt lat="45.97102" lon="5.5594">
        <ele>800.4</ele>
        <time>2026-05-11T10:06:18Z</time>
      </trkpt>
      <trkpt lat="45.97105" lon="5.5594">
        <ele>800.4</ele>
        <time>2026-05-11T10:06:19Z</time>
      </trkpt>
      <trkpt lat="45.97108" lon="5.55941">
        <ele>800.4</ele>
        <time>2026-05-11T10:06:20Z</time>
      </trkpt>
      <trkpt lat="45.97111" lon="5.55941">
        <ele>800.4</ele>
        <time>2026-05-11T10:06:21Z</time>
      </trkpt>
      <trkpt lat="45.97114" lon="5.55942">
        <ele>800.4</ele>
        <time>2026-05-11T10:06:22Z</time>
      </trkpt>
      <trkpt lat="45.97118" lon="5.55943">
        <ele>800.4</ele>
        <time>2026-05-11T10:06:23Z</time>
      </trkpt>
      <trkpt lat="45.97121" lon="5.55944">
        <ele>800.4</ele>
        <time>2026-05-11T10:06:24Z</time>
      </trkpt>
      <trkpt lat="45.97124" lon="5.55944">
        <ele>800.8</ele>
        <time>2026-05-11T10:06:25Z</time>
      </trkpt>
      <trkpt lat="45.97128" lon="5.55945">
        <ele>800.8</ele>
        <time>2026-05-11T10:06:26Z</time>
      </trkpt>
      <trkpt lat="45.97131" lon="5.55946">
        <ele>800.8</ele>
        <time>2026-05-11T10:06:27Z</time>
      </trkpt>
      <trkpt lat="45.97134" lon="5.55947">
        <ele>800.8</ele>
        <time>2026-05-11T10:06:28Z</time>
      </trkpt>
      <trkpt lat="45.97137" lon="5.55948">
        <ele>800.8</ele>
        <time>2026-05-11T10:06:29Z</time>
      </trkpt>
      <trkpt lat="45.9714" lon="5.55949">
        <ele>800.8</ele>
        <time>2026-05-11T10:06:30Z</time>
      </trkpt>
      <trkpt lat="45.97144" lon="5.55949">
        <ele>800.8</ele>
        <time>2026-05-11T10:06:31Z</time>
      </trkpt>
      <trkpt lat="45.97147" lon="5.5595">
        <ele>800.6</ele>
        <time>2026-05-11T10:06:32Z</time>
      </trkpt>
      <trkpt lat="45.97151" lon="5.5595">
        <ele>800.6</ele>
        <time>2026-05-11T10:06:33Z</time>
      </trkpt>
      <trkpt lat="45.97154" lon="5.55951">
        <ele>800.6</ele>
        <time>2026-05-11T10:06:34Z</time>
      </trkpt>
      <trkpt lat="45.97158" lon="5.55952">
        <ele>800.6</ele>
        <time>2026-05-11T10:06:35Z</time>
      </trkpt>
      <trkpt lat="45.97161" lon="5.55952">
        <ele>800.6</ele>
        <time>2026-05-11T10:06:36Z</time>
      </trkpt>
      <trkpt lat="45.97165" lon="5.55953">
        <ele>800.6</ele>
        <time>2026-05-11T10:06:37Z</time>
      </trkpt>
      <trkpt lat="45.97169" lon="5.55953">
        <ele>800.6</ele>
        <time>2026-05-11T10:06:38Z</time>
      </trkpt>
      <trkpt lat="45.97173" lon="5.55954">
        <ele>800.6</ele>
        <time>2026-05-11T10:06:39Z</time>
      </trkpt>
      <trkpt lat="45.97176" lon="5.55955">
        <ele>800.2</ele>
        <time>2026-05-11T10:06:40Z</time>
      </trkpt>
      <trkpt lat="45.97179" lon="5.55956">
        <ele>800.4</ele>
        <time>2026-05-11T10:06:41Z</time>
      </trkpt>
      <trkpt lat="45.97183" lon="5.55957">
        <ele>800.4</ele>
        <time>2026-05-11T10:06:42Z</time>
      </trkpt>
      <trkpt lat="45.97186" lon="5.55958">
        <ele>800.4</ele>
        <time>2026-05-11T10:06:43Z</time>
      </trkpt>
      <trkpt lat="45.9719" lon="5.55959">
        <ele>800</ele>
        <time>2026-05-11T10:06:44Z</time>
      </trkpt>
      <trkpt lat="45.97194" lon="5.5596">
        <ele>800.2</ele>
        <time>2026-05-11T10:06:45Z</time>
      </trkpt>
      <trkpt lat="45.97197" lon="5.5596">
        <ele>800.2</ele>
        <time>2026-05-11T10:06:46Z</time>
      </trkpt>
      <trkpt lat="45.97201" lon="5.55961">
        <ele>800.2</ele>
        <time>2026-05-11T10:06:47Z</time>
      </trkpt>
      <trkpt lat="45.97205" lon="5.55961">
        <ele>800.2</ele>
        <time>2026-05-11T10:06:48Z</time>
      </trkpt>
      <trkpt lat="45.97209" lon="5.55961">
        <ele>800.2</ele>
        <time>2026-05-11T10:06:49Z</time>
      </trkpt>
      <trkpt lat="45.97212" lon="5.55961">
        <ele>800.2</ele>
        <time>2026-05-11T10:06:50Z</time>
      </trkpt>
      <trkpt lat="45.97216" lon="5.55962">
        <ele>800.2</ele>
        <time>2026-05-11T10:06:51Z</time>
      </trkpt>
      <trkpt lat="45.9722" lon="5.55962">
        <ele>800.2</ele>
        <time>2026-05-11T10:06:52Z</time>
      </trkpt>
      <trkpt lat="45.97224" lon="5.55963">
        <ele>800.2</ele>
        <time>2026-05-11T10:06:53Z</time>
      </trkpt>
      <trkpt lat="45.97228" lon="5.55964">
        <ele>800.8</ele>
        <time>2026-05-11T10:06:54Z</time>
      </trkpt>
      <trkpt lat="45.97231" lon="5.55964">
        <ele>800.8</ele>
        <time>2026-05-11T10:06:55Z</time>
      </trkpt>
      <trkpt lat="45.97235" lon="5.55964">
        <ele>801</ele>
        <time>2026-05-11T10:06:56Z</time>
      </trkpt>
      <trkpt lat="45.97239" lon="5.55965">
        <ele>801</ele>
        <time>2026-05-11T10:06:57Z</time>
      </trkpt>
      <trkpt lat="45.97242" lon="5.55966">
        <ele>801.4</ele>
        <time>2026-05-11T10:06:58Z</time>
      </trkpt>
      <trkpt lat="45.97246" lon="5.55968">
        <ele>801.4</ele>
        <time>2026-05-11T10:06:59Z</time>
      </trkpt>
      <trkpt lat="45.97249" lon="5.55969">
        <ele>801.4</ele>
        <time>2026-05-11T10:07:00Z</time>
      </trkpt>
      <trkpt lat="45.97253" lon="5.5597">
        <ele>801.8</ele>
        <time>2026-05-11T10:07:01Z</time>
      </trkpt>
      <trkpt lat="45.97256" lon="5.55971">
        <ele>801.8</ele>
        <time>2026-05-11T10:07:02Z</time>
      </trkpt>
      <trkpt lat="45.9726" lon="5.55972">
        <ele>801.2</ele>
        <time>2026-05-11T10:07:03Z</time>
      </trkpt>
      <trkpt lat="45.97264" lon="5.55972">
        <ele>801.4</ele>
        <time>2026-05-11T10:07:04Z</time>
      </trkpt>
      <trkpt lat="45.97267" lon="5.55972">
        <ele>801.4</ele>
        <time>2026-05-11T10:07:05Z</time>
      </trkpt>
      <trkpt lat="45.97267" lon="5.55972">
        <ele>801.4</ele>
        <time>2026-05-11T10:07:06Z</time>
      </trkpt>
      <trkpt lat="45.97271" lon="5.55973">
        <ele>801.8</ele>
        <time>2026-05-11T10:07:07Z</time>
      </trkpt>
      <trkpt lat="45.97274" lon="5.55973">
        <ele>801.8</ele>
        <time>2026-05-11T10:07:08Z</time>
      </trkpt>
      <trkpt lat="45.97278" lon="5.55974">
        <ele>801.6</ele>
        <time>2026-05-11T10:07:09Z</time>
      </trkpt>
      <trkpt lat="45.97283" lon="5.55975">
        <ele>801.6</ele>
        <time>2026-05-11T10:07:10Z</time>
      </trkpt>
      <trkpt lat="45.97287" lon="5.55976">
        <ele>801.6</ele>
        <time>2026-05-11T10:07:11Z</time>
      </trkpt>
      <trkpt lat="45.9729" lon="5.55976">
        <ele>802</ele>
        <time>2026-05-11T10:07:12Z</time>
      </trkpt>
      <trkpt lat="45.97293" lon="5.55977">
        <ele>802.4</ele>
        <time>2026-05-11T10:07:13Z</time>
      </trkpt>
      <trkpt lat="45.97295" lon="5.55976">
        <ele>802.4</ele>
        <time>2026-05-11T10:07:14Z</time>
      </trkpt>
      <trkpt lat="45.97298" lon="5.55976">
        <ele>802.4</ele>
        <time>2026-05-11T10:07:15Z</time>
      </trkpt>
      <trkpt lat="45.973" lon="5.55976">
        <ele>802.6</ele>
        <time>2026-05-11T10:07:16Z</time>
      </trkpt>
      <trkpt lat="45.97302" lon="5.55976">
        <ele>802.6</ele>
        <time>2026-05-11T10:07:17Z</time>
      </trkpt>
      <trkpt lat="45.97304" lon="5.55976">
        <ele>803.2</ele>
        <time>2026-05-11T10:07:18Z</time>
      </trkpt>
      <trkpt lat="45.97306" lon="5.55976">
        <ele>803.4</ele>
        <time>2026-05-11T10:07:19Z</time>
      </trkpt>
      <trkpt lat="45.97309" lon="5.55977">
        <ele>803.8</ele>
        <time>2026-05-11T10:07:20Z</time>
      </trkpt>
      <trkpt lat="45.97311" lon="5.55978">
        <ele>803.8</ele>
        <time>2026-05-11T10:07:21Z</time>
      </trkpt>
      <trkpt lat="45.97315" lon="5.55979">
        <ele>803.8</ele>
        <time>2026-05-11T10:07:22Z</time>
      </trkpt>
      <trkpt lat="45.97317" lon="5.55979">
        <ele>804</ele>
        <time>2026-05-11T10:07:23Z</time>
      </trkpt>
      <trkpt lat="45.97319" lon="5.55979">
        <ele>803.8</ele>
        <time>2026-05-11T10:07:24Z</time>
      </trkpt>
      <trkpt lat="45.97322" lon="5.55979">
        <ele>803.8</ele>
        <time>2026-05-11T10:07:25Z</time>
      </trkpt>
      <trkpt lat="45.97325" lon="5.55978">
        <ele>803.4</ele>
        <time>2026-05-11T10:07:26Z</time>
      </trkpt>
      <trkpt lat="45.97328" lon="5.55978">
        <ele>803.4</ele>
        <time>2026-05-11T10:07:27Z</time>
      </trkpt>
      <trkpt lat="45.97332" lon="5.55979">
        <ele>803.2</ele>
        <time>2026-05-11T10:07:28Z</time>
      </trkpt>
      <trkpt lat="45.97338" lon="5.55981">
        <ele>802.4</ele>
        <time>2026-05-11T10:07:29Z</time>
      </trkpt>
      <trkpt lat="45.97343" lon="5.55982">
        <ele>802</ele>
        <time>2026-05-11T10:07:30Z</time>
      </trkpt>
      <trkpt lat="45.97348" lon="5.55983">
        <ele>801.8</ele>
        <time>2026-05-11T10:07:31Z</time>
      </trkpt>
      <trkpt lat="45.97352" lon="5.55983">
        <ele>801.8</ele>
        <time>2026-05-11T10:07:32Z</time>
      </trkpt>
      <trkpt lat="45.97357" lon="5.55983">
        <ele>801.8</ele>
        <time>2026-05-11T10:07:33Z</time>
      </trkpt>
      <trkpt lat="45.97361" lon="5.55984">
        <ele>801.8</ele>
        <time>2026-05-11T10:07:34Z</time>
      </trkpt>
      <trkpt lat="45.97365" lon="5.55983">
        <ele>801</ele>
        <time>2026-05-11T10:07:35Z</time>
      </trkpt>
      <trkpt lat="45.97368" lon="5.55984">
        <ele>801.4</ele>
        <time>2026-05-11T10:07:36Z</time>
      </trkpt>
      <trkpt lat="45.97372" lon="5.55987">
        <ele>801.6</ele>
        <time>2026-05-11T10:07:37Z</time>
      </trkpt>
      <trkpt lat="45.97376" lon="5.55987">
        <ele>801.6</ele>
        <time>2026-05-11T10:07:38Z</time>
      </trkpt>
      <trkpt lat="45.97379" lon="5.55987">
        <ele>801.6</ele>
        <time>2026-05-11T10:07:39Z</time>
      </trkpt>
      <trkpt lat="45.97383" lon="5.55988">
        <ele>801.8</ele>
        <time>2026-05-11T10:07:40Z</time>
      </trkpt>
      <trkpt lat="45.97388" lon="5.55988">
        <ele>802.2</ele>
        <time>2026-05-11T10:07:41Z</time>
      </trkpt>
      <trkpt lat="45.97392" lon="5.55988">
        <ele>802</ele>
        <time>2026-05-11T10:07:42Z</time>
      </trkpt>
      <trkpt lat="45.97397" lon="5.55989">
        <ele>802</ele>
        <time>2026-05-11T10:07:43Z</time>
      </trkpt>
      <trkpt lat="45.97401" lon="5.55988">
        <ele>801.8</ele>
        <time>2026-05-11T10:07:44Z</time>
      </trkpt>
      <trkpt lat="45.97406" lon="5.55988">
        <ele>801.8</ele>
        <time>2026-05-11T10:07:45Z</time>
      </trkpt>
      <trkpt lat="45.97411" lon="5.55989">
        <ele>801.4</ele>
        <time>2026-05-11T10:07:46Z</time>
      </trkpt>
      <trkpt lat="45.97416" lon="5.55991">
        <ele>801.4</ele>
        <time>2026-05-11T10:07:47Z</time>
      </trkpt>
      <trkpt lat="45.97425" lon="5.55992">
        <ele>801.4</ele>
        <time>2026-05-11T10:07:48Z</time>
      </trkpt>
      <trkpt lat="45.97429" lon="5.55992">
        <ele>801.2</ele>
        <time>2026-05-11T10:07:49Z</time>
      </trkpt>
      <trkpt lat="45.97434" lon="5.55991">
        <ele>801.2</ele>
        <time>2026-05-11T10:07:50Z</time>
      </trkpt>
      <trkpt lat="45.97438" lon="5.55992">
        <ele>801.2</ele>
        <time>2026-05-11T10:07:51Z</time>
      </trkpt>
      <trkpt lat="45.97441" lon="5.55993">
        <ele>801.6</ele>
        <time>2026-05-11T10:07:52Z</time>
      </trkpt>
      <trkpt lat="45.97445" lon="5.55995">
        <ele>802</ele>
        <time>2026-05-11T10:07:53Z</time>
      </trkpt>
      <trkpt lat="45.97449" lon="5.55996">
        <ele>802.4</ele>
        <time>2026-05-11T10:07:54Z</time>
      </trkpt>
      <trkpt lat="45.97452" lon="5.55999">
        <ele>802.8</ele>
        <time>2026-05-11T10:07:55Z</time>
      </trkpt>
      <trkpt lat="45.97456" lon="5.55999">
        <ele>803</ele>
        <time>2026-05-11T10:07:56Z</time>
      </trkpt>
      <trkpt lat="45.97459" lon="5.56">
        <ele>803</ele>
        <time>2026-05-11T10:07:57Z</time>
      </trkpt>
      <trkpt lat="45.97463" lon="5.56001">
        <ele>802.8</ele>
        <time>2026-05-11T10:07:58Z</time>
      </trkpt>
      <trkpt lat="45.97467" lon="5.56001">
        <ele>803.2</ele>
        <time>2026-05-11T10:07:59Z</time>
      </trkpt>
      <trkpt lat="45.9747" lon="5.56002">
        <ele>803.2</ele>
        <time>2026-05-11T10:08:00Z</time>
      </trkpt>
      <trkpt lat="45.97474" lon="5.56002">
        <ele>803.4</ele>
        <time>2026-05-11T10:08:01Z</time>
      </trkpt>
      <trkpt lat="45.97478" lon="5.56003">
        <ele>803.4</ele>
        <time>2026-05-11T10:08:02Z</time>
      </trkpt>
      <trkpt lat="45.97482" lon="5.56003">
        <ele>803.4</ele>
        <time>2026-05-11T10:08:03Z</time>
      </trkpt>
      <trkpt lat="45.97486" lon="5.56003">
        <ele>803.8</ele>
        <time>2026-05-11T10:08:04Z</time>
      </trkpt>
      <trkpt lat="45.97489" lon="5.56002">
        <ele>803.8</ele>
        <time>2026-05-11T10:08:05Z</time>
      </trkpt>
      <trkpt lat="45.97493" lon="5.56001">
        <ele>803.8</ele>
        <time>2026-05-11T10:08:06Z</time>
      </trkpt>
      <trkpt lat="45.97497" lon="5.56001">
        <ele>804</ele>
        <time>2026-05-11T10:08:07Z</time>
      </trkpt>
      <trkpt lat="45.975" lon="5.56">
        <ele>803.6</ele>
        <time>2026-05-11T10:08:08Z</time>
      </trkpt>
      <trkpt lat="45.97504" lon="5.56">
        <ele>803.2</ele>
        <time>2026-05-11T10:08:09Z</time>
      </trkpt>
      <trkpt lat="45.97508" lon="5.55999">
        <ele>803.2</ele>
        <time>2026-05-11T10:08:10Z</time>
      </trkpt>
      <trkpt lat="45.97512" lon="5.55998">
        <ele>803.4</ele>
        <time>2026-05-11T10:08:11Z</time>
      </trkpt>
      <trkpt lat="45.97515" lon="5.55996">
        <ele>803.4</ele>
        <time>2026-05-11T10:08:12Z</time>
      </trkpt>
      <trkpt lat="45.97518" lon="5.55995">
        <ele>803</ele>
        <time>2026-05-11T10:08:13Z</time>
      </trkpt>
      <trkpt lat="45.97521" lon="5.55994">
        <ele>803</ele>
        <time>2026-05-11T10:08:14Z</time>
      </trkpt>
      <trkpt lat="45.97524" lon="5.55993">
        <ele>802.8</ele>
        <time>2026-05-11T10:08:15Z</time>
      </trkpt>
      <trkpt lat="45.97528" lon="5.55993">
        <ele>802.8</ele>
        <time>2026-05-11T10:08:16Z</time>
      </trkpt>
      <trkpt lat="45.97531" lon="5.55993">
        <ele>802.8</ele>
        <time>2026-05-11T10:08:17Z</time>
      </trkpt>
      <trkpt lat="45.97535" lon="5.55993">
        <ele>803</ele>
        <time>2026-05-11T10:08:18Z</time>
      </trkpt>
      <trkpt lat="45.97539" lon="5.55994">
        <ele>803</ele>
        <time>2026-05-11T10:08:19Z</time>
      </trkpt>
      <trkpt lat="45.97542" lon="5.55995">
        <ele>803.2</ele>
        <time>2026-05-11T10:08:20Z</time>
      </trkpt>
      <trkpt lat="45.97545" lon="5.55996">
        <ele>803.2</ele>
        <time>2026-05-11T10:08:21Z</time>
      </trkpt>
      <trkpt lat="45.97548" lon="5.55998">
        <ele>803.2</ele>
        <time>2026-05-11T10:08:22Z</time>
      </trkpt>
      <trkpt lat="45.97551" lon="5.56">
        <ele>803.4</ele>
        <time>2026-05-11T10:08:23Z</time>
      </trkpt>
      <trkpt lat="45.97554" lon="5.56002">
        <ele>803.4</ele>
        <time>2026-05-11T10:08:24Z</time>
      </trkpt>
      <trkpt lat="45.97557" lon="5.56005">
        <ele>803.2</ele>
        <time>2026-05-11T10:08:25Z</time>
      </trkpt>
      <trkpt lat="45.97561" lon="5.56008">
        <ele>803.2</ele>
        <time>2026-05-11T10:08:26Z</time>
      </trkpt>
      <trkpt lat="45.97564" lon="5.56011">
        <ele>803.2</ele>
        <time>2026-05-11T10:08:27Z</time>
      </trkpt>
      <trkpt lat="45.97568" lon="5.56014">
        <ele>803.2</ele>
        <time>2026-05-11T10:08:28Z</time>
      </trkpt>
      <trkpt lat="45.97571" lon="5.56017">
        <ele>803.2</ele>
        <time>2026-05-11T10:08:29Z</time>
      </trkpt>
      <trkpt lat="45.97574" lon="5.5602">
        <ele>803.2</ele>
        <time>2026-05-11T10:08:30Z</time>
      </trkpt>
      <trkpt lat="45.97578" lon="5.56023">
        <ele>803</ele>
        <time>2026-05-11T10:08:31Z</time>
      </trkpt>
      <trkpt lat="45.97582" lon="5.56026">
        <ele>802.6</ele>
        <time>2026-05-11T10:08:32Z</time>
      </trkpt>
      <trkpt lat="45.97585" lon="5.56032">
        <ele>802.4</ele>
        <time>2026-05-11T10:08:33Z</time>
      </trkpt>
      <trkpt lat="45.97587" lon="5.56034">
        <ele>802.2</ele>
        <time>2026-05-11T10:08:34Z</time>
      </trkpt>
      <trkpt lat="45.9759" lon="5.56038">
        <ele>802.2</ele>
        <time>2026-05-11T10:08:35Z</time>
      </trkpt>
      <trkpt lat="45.97594" lon="5.56045">
        <ele>802.2</ele>
        <time>2026-05-11T10:08:36Z</time>
      </trkpt>
      <trkpt lat="45.97597" lon="5.56049">
        <ele>802</ele>
        <time>2026-05-11T10:08:37Z</time>
      </trkpt>
      <trkpt lat="45.976" lon="5.56054">
        <ele>802</ele>
        <time>2026-05-11T10:08:38Z</time>
      </trkpt>
      <trkpt lat="45.97603" lon="5.56059">
        <ele>802</ele>
        <time>2026-05-11T10:08:39Z</time>
      </trkpt>
      <trkpt lat="45.97606" lon="5.56063">
        <ele>802</ele>
        <time>2026-05-11T10:08:40Z</time>
      </trkpt>
      <trkpt lat="45.97609" lon="5.56067">
        <ele>802</ele>
        <time>2026-05-11T10:08:41Z</time>
      </trkpt>
      <trkpt lat="45.97611" lon="5.56073">
        <ele>802</ele>
        <time>2026-05-11T10:08:42Z</time>
      </trkpt>
      <trkpt lat="45.97614" lon="5.56078">
        <ele>802</ele>
        <time>2026-05-11T10:08:43Z</time>
      </trkpt>
      <trkpt lat="45.97617" lon="5.56083">
        <ele>802</ele>
        <time>2026-05-11T10:08:44Z</time>
      </trkpt>
      <trkpt lat="45.9762" lon="5.56087">
        <ele>802</ele>
        <time>2026-05-11T10:08:45Z</time>
      </trkpt>
      <trkpt lat="45.97622" lon="5.56091">
        <ele>802</ele>
        <time>2026-05-11T10:08:46Z</time>
      </trkpt>
      <trkpt lat="45.97625" lon="5.56095">
        <ele>802</ele>
        <time>2026-05-11T10:08:47Z</time>
      </trkpt>
      <trkpt lat="45.97628" lon="5.56098">
        <ele>802</ele>
        <time>2026-05-11T10:08:48Z</time>
      </trkpt>
      <trkpt lat="45.97631" lon="5.561">
        <ele>802.2</ele>
        <time>2026-05-11T10:08:49Z</time>
      </trkpt>
      <trkpt lat="45.97635" lon="5.56101">
        <ele>802.6</ele>
        <time>2026-05-11T10:08:50Z</time>
      </trkpt>
      <trkpt lat="45.97638" lon="5.56102">
        <ele>802.2</ele>
        <time>2026-05-11T10:08:51Z</time>
      </trkpt>
      <trkpt lat="45.97641" lon="5.56103">
        <ele>802.4</ele>
        <time>2026-05-11T10:08:52Z</time>
      </trkpt>
      <trkpt lat="45.97645" lon="5.56104">
        <ele>802.4</ele>
        <time>2026-05-11T10:08:53Z</time>
      </trkpt>
      <trkpt lat="45.97648" lon="5.56104">
        <ele>802.8</ele>
        <time>2026-05-11T10:08:54Z</time>
      </trkpt>
      <trkpt lat="45.97651" lon="5.56103">
        <ele>803</ele>
        <time>2026-05-11T10:08:55Z</time>
      </trkpt>
      <trkpt lat="45.97655" lon="5.56103">
        <ele>803</ele>
        <time>2026-05-11T10:08:56Z</time>
      </trkpt>
      <trkpt lat="45.97658" lon="5.56103">
        <ele>803.4</ele>
        <time>2026-05-11T10:08:57Z</time>
      </trkpt>
      <trkpt lat="45.97661" lon="5.56103">
        <ele>803.4</ele>
        <time>2026-05-11T10:08:58Z</time>
      </trkpt>
      <trkpt lat="45.97665" lon="5.56103">
        <ele>803.4</ele>
        <time>2026-05-11T10:08:59Z</time>
      </trkpt>
      <trkpt lat="45.97669" lon="5.56104">
        <ele>803.8</ele>
        <time>2026-05-11T10:09:00Z</time>
      </trkpt>
      <trkpt lat="45.97673" lon="5.56105">
        <ele>803.8</ele>
        <time>2026-05-11T10:09:01Z</time>
      </trkpt>
      <trkpt lat="45.97676" lon="5.56106">
        <ele>803.8</ele>
        <time>2026-05-11T10:09:02Z</time>
      </trkpt>
      <trkpt lat="45.97679" lon="5.56106">
        <ele>803.8</ele>
        <time>2026-05-11T10:09:03Z</time>
      </trkpt>
      <trkpt lat="45.97682" lon="5.56107">
        <ele>804</ele>
        <time>2026-05-11T10:09:04Z</time>
      </trkpt>
      <trkpt lat="45.97685" lon="5.56109">
        <ele>804</ele>
        <time>2026-05-11T10:09:05Z</time>
      </trkpt>
      <trkpt lat="45.97686" lon="5.56112">
        <ele>804</ele>
        <time>2026-05-11T10:09:06Z</time>
      </trkpt>
      <trkpt lat="45.97687" lon="5.56117">
        <ele>804</ele>
        <time>2026-05-11T10:09:07Z</time>
      </trkpt>
      <trkpt lat="45.97687" lon="5.56122">
        <ele>804</ele>
        <time>2026-05-11T10:09:08Z</time>
      </trkpt>
      <trkpt lat="45.97686" lon="5.56127">
        <ele>804</ele>
        <time>2026-05-11T10:09:09Z</time>
      </trkpt>
      <trkpt lat="45.97685" lon="5.56132">
        <ele>804</ele>
        <time>2026-05-11T10:09:10Z</time>
      </trkpt>
      <trkpt lat="45.97685" lon="5.56136">
        <ele>804</ele>
        <time>2026-05-11T10:09:11Z</time>
      </trkpt>
      <trkpt lat="45.97685" lon="5.5614">
        <ele>804</ele>
        <time>2026-05-11T10:09:12Z</time>
      </trkpt>
      <trkpt lat="45.97685" lon="5.56144">
        <ele>804.2</ele>
        <time>2026-05-11T10:09:13Z</time>
      </trkpt>
      <trkpt lat="45.97686" lon="5.56147">
        <ele>804.2</ele>
        <time>2026-05-11T10:09:14Z</time>
      </trkpt>
      <trkpt lat="45.97686" lon="5.5615">
        <ele>804.6</ele>
        <time>2026-05-11T10:09:15Z</time>
      </trkpt>
      <trkpt lat="45.97686" lon="5.56153">
        <ele>804.6</ele>
        <time>2026-05-11T10:09:16Z</time>
      </trkpt>
      <trkpt lat="45.97687" lon="5.56155">
        <ele>804.8</ele>
        <time>2026-05-11T10:09:17Z</time>
      </trkpt>
      <trkpt lat="45.97687" lon="5.56155">
        <ele>804.8</ele>
        <time>2026-05-11T10:09:18Z</time>
      </trkpt>
      <trkpt lat="45.97687" lon="5.56155">
        <ele>804.8</ele>
        <time>2026-05-11T10:09:19Z</time>
      </trkpt>
      <trkpt lat="45.97687" lon="5.56155">
        <ele>804.8</ele>
        <time>2026-05-11T10:09:20Z</time>
      </trkpt>
      <trkpt lat="45.97688" lon="5.56155">
        <ele>805.2</ele>
        <time>2026-05-11T10:09:21Z</time>
      </trkpt>
      <trkpt lat="45.97688" lon="5.56157">
        <ele>805.2</ele>
        <time>2026-05-11T10:09:22Z</time>
      </trkpt>
      <trkpt lat="45.97688" lon="5.56158">
        <ele>805.2</ele>
        <time>2026-05-11T10:09:23Z</time>
      </trkpt>
      <trkpt lat="45.97689" lon="5.56158">
        <ele>805.2</ele>
        <time>2026-05-11T10:09:24Z</time>
      </trkpt>
      <trkpt lat="45.97689" lon="5.56158">
        <ele>805.2</ele>
        <time>2026-05-11T10:09:25Z</time>
      </trkpt>
      <trkpt lat="45.97688" lon="5.56158">
        <ele>805.2</ele>
        <time>2026-05-11T10:09:26Z</time>
      </trkpt>
      <trkpt lat="45.97685" lon="5.56155">
        <ele>805</ele>
        <time>2026-05-11T10:10:15Z</time>
      </trkpt>
      <trkpt lat="45.97684" lon="5.56155">
        <ele>805</ele>
        <time>2026-05-11T10:10:16Z</time>
      </trkpt>
      <trkpt lat="45.97684" lon="5.56155">
        <ele>805</ele>
        <time>2026-05-11T10:10:17Z</time>
      </trkpt>
      <trkpt lat="45.97687" lon="5.56154">
        <ele>805.4</ele>
        <time>2026-05-11T10:11:14Z</time>
      </trkpt>
      <trkpt lat="45.97687" lon="5.56153">
        <ele>805.4</ele>
        <time>2026-05-11T10:11:15Z</time>
      </trkpt>
      <trkpt lat="45.97687" lon="5.56152">
        <ele>805.4</ele>
        <time>2026-05-11T10:11:16Z</time>
      </trkpt>
      <trkpt lat="45.97688" lon="5.5615">
        <ele>805.4</ele>
        <time>2026-05-11T10:11:17Z</time>
      </trkpt>
      <trkpt lat="45.9769" lon="5.56149">
        <ele>805.4</ele>
        <time>2026-05-11T10:11:18Z</time>
      </trkpt>
      <trkpt lat="45.97692" lon="5.56149">
        <ele>805.4</ele>
        <time>2026-05-11T10:11:19Z</time>
      </trkpt>
      <trkpt lat="45.97695" lon="5.56152">
        <ele>805.4</ele>
        <time>2026-05-11T10:11:20Z</time>
      </trkpt>
      <trkpt lat="45.97697" lon="5.56156">
        <ele>805</ele>
        <time>2026-05-11T10:11:21Z</time>
      </trkpt>
      <trkpt lat="45.97699" lon="5.56159">
        <ele>805</ele>
        <time>2026-05-11T10:11:22Z</time>
      </trkpt>
      <trkpt lat="45.97702" lon="5.56163">
        <ele>805</ele>
        <time>2026-05-11T10:11:23Z</time>
      </trkpt>
      <trkpt lat="45.97704" lon="5.56167">
        <ele>805</ele>
        <time>2026-05-11T10:11:24Z</time>
      </trkpt>
      <trkpt lat="45.97705" lon="5.5617">
        <ele>805</ele>
        <time>2026-05-11T10:11:25Z</time>
      </trkpt>
      <trkpt lat="45.97707" lon="5.56173">
        <ele>805.4</ele>
        <time>2026-05-11T10:11:26Z</time>
      </trkpt>
      <trkpt lat="45.97709" lon="5.56175">
        <ele>805.4</ele>
        <time>2026-05-11T10:11:27Z</time>
      </trkpt>
      <trkpt lat="45.9771" lon="5.56178">
        <ele>805.6</ele>
        <time>2026-05-11T10:11:28Z</time>
      </trkpt>
      <trkpt lat="45.97712" lon="5.56181">
        <ele>805.6</ele>
        <time>2026-05-11T10:11:29Z</time>
      </trkpt>
      <trkpt lat="45.97714" lon="5.56185">
        <ele>805.8</ele>
        <time>2026-05-11T10:11:30Z</time>
      </trkpt>
      <trkpt lat="45.97716" lon="5.56188">
        <ele>805.8</ele>
        <time>2026-05-11T10:11:31Z</time>
      </trkpt>
      <trkpt lat="45.97718" lon="5.56192">
        <ele>805.8</ele>
        <time>2026-05-11T10:11:32Z</time>
      </trkpt>
      <trkpt lat="45.97719" lon="5.56195">
        <ele>806</ele>
        <time>2026-05-11T10:11:33Z</time>
      </trkpt>
      <trkpt lat="45.97721" lon="5.56199">
        <ele>806</ele>
        <time>2026-05-11T10:11:34Z</time>
      </trkpt>
      <trkpt lat="45.97722" lon="5.56204">
        <ele>806</ele>
        <time>2026-05-11T10:11:35Z</time>
      </trkpt>
      <trkpt lat="45.97723" lon="5.56208">
        <ele>806.4</ele>
        <time>2026-05-11T10:11:36Z</time>
      </trkpt>
      <trkpt lat="45.97724" lon="5.56212">
        <ele>806.4</ele>
        <time>2026-05-11T10:11:37Z</time>
      </trkpt>
      <trkpt lat="45.97725" lon="5.56216">
        <ele>806.4</ele>
        <time>2026-05-11T10:11:38Z</time>
      </trkpt>
      <trkpt lat="45.97726" lon="5.56221">
        <ele>806.4</ele>
        <time>2026-05-11T10:11:39Z</time>
      </trkpt>
      <trkpt lat="45.97726" lon="5.56224">
        <ele>806.4</ele>
        <time>2026-05-11T10:11:40Z</time>
      </trkpt>
      <trkpt lat="45.97727" lon="5.56228">
        <ele>806.4</ele>
        <time>2026-05-11T10:11:41Z</time>
      </trkpt>
      <trkpt lat="45.97727" lon="5.56231">
        <ele>806.4</ele>
        <time>2026-05-11T10:11:42Z</time>
      </trkpt>
      <trkpt lat="45.97728" lon="5.56235">
        <ele>806.6</ele>
        <time>2026-05-11T10:11:43Z</time>
      </trkpt>
      <trkpt lat="45.97728" lon="5.56239">
        <ele>806.6</ele>
        <time>2026-05-11T10:11:44Z</time>
      </trkpt>
      <trkpt lat="45.97728" lon="5.56243">
        <ele>806.6</ele>
        <time>2026-05-11T10:11:45Z</time>
      </trkpt>
      <trkpt lat="45.97728" lon="5.56248">
        <ele>806.8</ele>
        <time>2026-05-11T10:11:46Z</time>
      </trkpt>
      <trkpt lat="45.97729" lon="5.56252">
        <ele>806.8</ele>
        <time>2026-05-11T10:11:47Z</time>
      </trkpt>
      <trkpt lat="45.9773" lon="5.56257">
        <ele>806.8</ele>
        <time>2026-05-11T10:11:48Z</time>
      </trkpt>
      <trkpt lat="45.97731" lon="5.56262">
        <ele>806.8</ele>
        <time>2026-05-11T10:11:49Z</time>
      </trkpt>
      <trkpt lat="45.97733" lon="5.56266">
        <ele>806.8</ele>
        <time>2026-05-11T10:11:50Z</time>
      </trkpt>
      <trkpt lat="45.97735" lon="5.56271">
        <ele>806.4</ele>
        <time>2026-05-11T10:11:51Z</time>
      </trkpt>
      <trkpt lat="45.97737" lon="5.56275">
        <ele>806.4</ele>
        <time>2026-05-11T10:11:52Z</time>
      </trkpt>
      <trkpt lat="45.9774" lon="5.56279">
        <ele>806.4</ele>
        <time>2026-05-11T10:11:53Z</time>
      </trkpt>
      <trkpt lat="45.97742" lon="5.56283">
        <ele>806.4</ele>
        <time>2026-05-11T10:11:54Z</time>
      </trkpt>
      <trkpt lat="45.97744" lon="5.56287">
        <ele>806.4</ele>
        <time>2026-05-11T10:11:55Z</time>
      </trkpt>
      <trkpt lat="45.97747" lon="5.56291">
        <ele>806.4</ele>
        <time>2026-05-11T10:11:56Z</time>
      </trkpt>
      <trkpt lat="45.97749" lon="5.56295">
        <ele>806.4</ele>
        <time>2026-05-11T10:11:57Z</time>
      </trkpt>
      <trkpt lat="45.97751" lon="5.56298">
        <ele>806.4</ele>
        <time>2026-05-11T10:11:58Z</time>
      </trkpt>
      <trkpt lat="45.97753" lon="5.56302">
        <ele>806.4</ele>
        <time>2026-05-11T10:11:59Z</time>
      </trkpt>
      <trkpt lat="45.97755" lon="5.56307">
        <ele>806.4</ele>
        <time>2026-05-11T10:12:00Z</time>
      </trkpt>
      <trkpt lat="45.97757" lon="5.56311">
        <ele>806.4</ele>
        <time>2026-05-11T10:12:01Z</time>
      </trkpt>
      <trkpt lat="45.97759" lon="5.56315">
        <ele>806.4</ele>
        <time>2026-05-11T10:12:02Z</time>
      </trkpt>
      <trkpt lat="45.97761" lon="5.56319">
        <ele>806.4</ele>
        <time>2026-05-11T10:12:03Z</time>
      </trkpt>
      <trkpt lat="45.97764" lon="5.56323">
        <ele>806.8</ele>
        <time>2026-05-11T10:12:04Z</time>
      </trkpt>
      <trkpt lat="45.97766" lon="5.56327">
        <ele>806.8</ele>
        <time>2026-05-11T10:12:05Z</time>
      </trkpt>
      <trkpt lat="45.97768" lon="5.56331">
        <ele>806.8</ele>
        <time>2026-05-11T10:12:06Z</time>
      </trkpt>
      <trkpt lat="45.9777" lon="5.56335">
        <ele>806.8</ele>
        <time>2026-05-11T10:12:07Z</time>
      </trkpt>
      <trkpt lat="45.97772" lon="5.56339">
        <ele>806.8</ele>
        <time>2026-05-11T10:12:08Z</time>
      </trkpt>
      <trkpt lat="45.97774" lon="5.56342">
        <ele>807</ele>
        <time>2026-05-11T10:12:09Z</time>
      </trkpt>
      <trkpt lat="45.97776" lon="5.56346">
        <ele>807</ele>
        <time>2026-05-11T10:12:10Z</time>
      </trkpt>
      <trkpt lat="45.97778" lon="5.56349">
        <ele>807.2</ele>
        <time>2026-05-11T10:12:11Z</time>
      </trkpt>
      <trkpt lat="45.9778" lon="5.56352">
        <ele>807.2</ele>
        <time>2026-05-11T10:12:12Z</time>
      </trkpt>
      <trkpt lat="45.97782" lon="5.56355">
        <ele>807.6</ele>
        <time>2026-05-11T10:12:13Z</time>
      </trkpt>
      <trkpt lat="45.97784" lon="5.56358">
        <ele>807.6</ele>
        <time>2026-05-11T10:12:14Z</time>
      </trkpt>
      <trkpt lat="45.97785" lon="5.56361">
        <ele>807.8</ele>
        <time>2026-05-11T10:12:15Z</time>
      </trkpt>
      <trkpt lat="45.97787" lon="5.56364">
        <ele>807.8</ele>
        <time>2026-05-11T10:12:16Z</time>
      </trkpt>
      <trkpt lat="45.97789" lon="5.56367">
        <ele>808.2</ele>
        <time>2026-05-11T10:12:17Z</time>
      </trkpt>
      <trkpt lat="45.97792" lon="5.56368">
        <ele>808.2</ele>
        <time>2026-05-11T10:12:18Z</time>
      </trkpt>
      <trkpt lat="45.97794" lon="5.56369">
        <ele>808.2</ele>
        <time>2026-05-11T10:12:19Z</time>
      </trkpt>
      <trkpt lat="45.97797" lon="5.56369">
        <ele>808.4</ele>
        <time>2026-05-11T10:12:20Z</time>
      </trkpt>
      <trkpt lat="45.978" lon="5.56367">
        <ele>808.4</ele>
        <time>2026-05-11T10:12:21Z</time>
      </trkpt>
      <trkpt lat="45.97803" lon="5.56365">
        <ele>808.8</ele>
        <time>2026-05-11T10:12:22Z</time>
      </trkpt>
      <trkpt lat="45.97806" lon="5.56363">
        <ele>808.8</ele>
        <time>2026-05-11T10:12:23Z</time>
      </trkpt>
      <trkpt lat="45.97809" lon="5.56361">
        <ele>808.8</ele>
        <time>2026-05-11T10:12:24Z</time>
      </trkpt>
      <trkpt lat="45.97812" lon="5.56358">
        <ele>809</ele>
        <time>2026-05-11T10:12:25Z</time>
      </trkpt>
      <trkpt lat="45.97815" lon="5.56356">
        <ele>809</ele>
        <time>2026-05-11T10:12:26Z</time>
      </trkpt>
      <trkpt lat="45.97818" lon="5.56353">
        <ele>809</ele>
        <time>2026-05-11T10:12:27Z</time>
      </trkpt>
      <trkpt lat="45.97821" lon="5.56351">
        <ele>809</ele>
        <time>2026-05-11T10:12:28Z</time>
      </trkpt>
      <trkpt lat="45.97824" lon="5.56349">
        <ele>809</ele>
        <time>2026-05-11T10:12:29Z</time>
      </trkpt>
      <trkpt lat="45.97827" lon="5.56346">
        <ele>809</ele>
        <time>2026-05-11T10:12:30Z</time>
      </trkpt>
      <trkpt lat="45.9783" lon="5.56344">
        <ele>809.2</ele>
        <time>2026-05-11T10:12:31Z</time>
      </trkpt>
      <trkpt lat="45.97833" lon="5.56341">
        <ele>809.2</ele>
        <time>2026-05-11T10:12:32Z</time>
      </trkpt>
      <trkpt lat="45.97836" lon="5.56339">
        <ele>809.2</ele>
        <time>2026-05-11T10:12:33Z</time>
      </trkpt>
      <trkpt lat="45.97839" lon="5.56336">
        <ele>809.2</ele>
        <time>2026-05-11T10:12:34Z</time>
      </trkpt>
      <trkpt lat="45.97843" lon="5.56334">
        <ele>809.2</ele>
        <time>2026-05-11T10:12:35Z</time>
      </trkpt>
      <trkpt lat="45.97846" lon="5.56332">
        <ele>809.4</ele>
        <time>2026-05-11T10:12:36Z</time>
      </trkpt>
      <trkpt lat="45.97849" lon="5.56329">
        <ele>809.4</ele>
        <time>2026-05-11T10:12:37Z</time>
      </trkpt>
      <trkpt lat="45.97852" lon="5.56327">
        <ele>809.4</ele>
        <time>2026-05-11T10:12:38Z</time>
      </trkpt>
      <trkpt lat="45.97855" lon="5.56324">
        <ele>809.8</ele>
        <time>2026-05-11T10:12:39Z</time>
      </trkpt>
      <trkpt lat="45.97858" lon="5.56322">
        <ele>809.8</ele>
        <time>2026-05-11T10:12:40Z</time>
      </trkpt>
      <trkpt lat="45.97861" lon="5.56319">
        <ele>809.8</ele>
        <time>2026-05-11T10:12:41Z</time>
      </trkpt>
      <trkpt lat="45.97864" lon="5.56317">
        <ele>809.8</ele>
        <time>2026-05-11T10:12:42Z</time>
      </trkpt>
      <trkpt lat="45.97867" lon="5.56315">
        <ele>810</ele>
        <time>2026-05-11T10:12:43Z</time>
      </trkpt>
      <trkpt lat="45.9787" lon="5.56313">
        <ele>810</ele>
        <time>2026-05-11T10:12:44Z</time>
      </trkpt>
      <trkpt lat="45.97873" lon="5.5631">
        <ele>810.4</ele>
        <time>2026-05-11T10:12:45Z</time>
      </trkpt>
      <trkpt lat="45.97876" lon="5.56308">
        <ele>810.4</ele>
        <time>2026-05-11T10:12:46Z</time>
      </trkpt>
      <trkpt lat="45.97876" lon="5.56308">
        <ele>810.4</ele>
        <time>2026-05-11T10:12:47Z</time>
      </trkpt>
      <trkpt lat="45.97879" lon="5.56306">
        <ele>810.4</ele>
        <time>2026-05-11T10:12:48Z</time>
      </trkpt>
      <trkpt lat="45.97882" lon="5.56304">
        <ele>810.4</ele>
        <time>2026-05-11T10:12:49Z</time>
      </trkpt>
      <trkpt lat="45.97885" lon="5.56301">
        <ele>810.8</ele>
        <time>2026-05-11T10:12:50Z</time>
      </trkpt>
      <trkpt lat="45.97888" lon="5.56299">
        <ele>810.8</ele>
        <time>2026-05-11T10:12:51Z</time>
      </trkpt>
      <trkpt lat="45.97891" lon="5.56297">
        <ele>811.4</ele>
        <time>2026-05-11T10:12:52Z</time>
      </trkpt>
      <trkpt lat="45.97894" lon="5.56295">
        <ele>811.6</ele>
        <time>2026-05-11T10:12:53Z</time>
      </trkpt>
      <trkpt lat="45.97897" lon="5.56294">
        <ele>811.6</ele>
        <time>2026-05-11T10:12:54Z</time>
      </trkpt>
      <trkpt lat="45.97899" lon="5.56292">
        <ele>812</ele>
        <time>2026-05-11T10:12:55Z</time>
      </trkpt>
      <trkpt lat="45.97902" lon="5.5629">
        <ele>812.2</ele>
        <time>2026-05-11T10:12:56Z</time>
      </trkpt>
      <trkpt lat="45.97905" lon="5.56289">
        <ele>812.2</ele>
        <time>2026-05-11T10:12:57Z</time>
      </trkpt>
      <trkpt lat="45.97908" lon="5.56288">
        <ele>812.6</ele>
        <time>2026-05-11T10:12:58Z</time>
      </trkpt>
      <trkpt lat="45.97911" lon="5.56286">
        <ele>812.8</ele>
        <time>2026-05-11T10:12:59Z</time>
      </trkpt>
      <trkpt lat="45.97913" lon="5.56285">
        <ele>813</ele>
        <time>2026-05-11T10:13:00Z</time>
      </trkpt>
      <trkpt lat="45.97916" lon="5.56284">
        <ele>813</ele>
        <time>2026-05-11T10:13:01Z</time>
      </trkpt>
      <trkpt lat="45.97919" lon="5.56283">
        <ele>813.4</ele>
        <time>2026-05-11T10:13:02Z</time>
      </trkpt>
      <trkpt lat="45.97921" lon="5.56281">
        <ele>813.6</ele>
        <time>2026-05-11T10:13:03Z</time>
      </trkpt>
      <trkpt lat="45.97924" lon="5.5628">
        <ele>813.6</ele>
        <time>2026-05-11T10:13:04Z</time>
      </trkpt>
      <trkpt lat="45.97927" lon="5.56279">
        <ele>813.6</ele>
        <time>2026-05-11T10:13:05Z</time>
      </trkpt>
      <trkpt lat="45.97929" lon="5.56277">
        <ele>813.6</ele>
        <time>2026-05-11T10:13:06Z</time>
      </trkpt>
      <trkpt lat="45.97932" lon="5.56276">
        <ele>813.8</ele>
        <time>2026-05-11T10:13:07Z</time>
      </trkpt>
      <trkpt lat="45.97935" lon="5.56275">
        <ele>813.8</ele>
        <time>2026-05-11T10:13:08Z</time>
      </trkpt>
      <trkpt lat="45.97938" lon="5.56273">
        <ele>814.2</ele>
        <time>2026-05-11T10:13:09Z</time>
      </trkpt>
      <trkpt lat="45.97941" lon="5.56272">
        <ele>814.2</ele>
        <time>2026-05-11T10:13:10Z</time>
      </trkpt>
      <trkpt lat="45.97944" lon="5.56271">
        <ele>814.6</ele>
        <time>2026-05-11T10:13:11Z</time>
      </trkpt>
      <trkpt lat="45.97947" lon="5.5627">
        <ele>814.6</ele>
        <time>2026-05-11T10:13:12Z</time>
      </trkpt>
      <trkpt lat="45.97949" lon="5.56269">
        <ele>814.8</ele>
        <time>2026-05-11T10:13:13Z</time>
      </trkpt>
      <trkpt lat="45.97952" lon="5.56267">
        <ele>814.8</ele>
        <time>2026-05-11T10:13:14Z</time>
      </trkpt>
      <trkpt lat="45.97955" lon="5.56266">
        <ele>815.2</ele>
        <time>2026-05-11T10:13:15Z</time>
      </trkpt>
      <trkpt lat="45.97957" lon="5.56264">
        <ele>815.2</ele>
        <time>2026-05-11T10:13:16Z</time>
      </trkpt>
      <trkpt lat="45.97959" lon="5.56263">
        <ele>815.4</ele>
        <time>2026-05-11T10:13:17Z</time>
      </trkpt>
      <trkpt lat="45.97961" lon="5.56261">
        <ele>815.4</ele>
        <time>2026-05-11T10:13:18Z</time>
      </trkpt>
      <trkpt lat="45.97964" lon="5.56259">
        <ele>815.8</ele>
        <time>2026-05-11T10:13:19Z</time>
      </trkpt>
      <trkpt lat="45.97966" lon="5.56257">
        <ele>815.8</ele>
        <time>2026-05-11T10:13:20Z</time>
      </trkpt>
      <trkpt lat="45.97968" lon="5.56256">
        <ele>816</ele>
        <time>2026-05-11T10:13:21Z</time>
      </trkpt>
      <trkpt lat="45.9797" lon="5.56254">
        <ele>816</ele>
        <time>2026-05-11T10:13:22Z</time>
      </trkpt>
      <trkpt lat="45.97972" lon="5.56252">
        <ele>816.2</ele>
        <time>2026-05-11T10:13:23Z</time>
      </trkpt>
      <trkpt lat="45.97974" lon="5.5625">
        <ele>816.2</ele>
        <time>2026-05-11T10:13:24Z</time>
      </trkpt>
      <trkpt lat="45.97976" lon="5.56249">
        <ele>816.6</ele>
        <time>2026-05-11T10:13:25Z</time>
      </trkpt>
      <trkpt lat="45.97978" lon="5.56247">
        <ele>816.8</ele>
        <time>2026-05-11T10:13:26Z</time>
      </trkpt>
      <trkpt lat="45.9798" lon="5.56245">
        <ele>816.8</ele>
        <time>2026-05-11T10:13:27Z</time>
      </trkpt>
      <trkpt lat="45.97982" lon="5.56244">
        <ele>817</ele>
        <time>2026-05-11T10:13:28Z</time>
      </trkpt>
      <trkpt lat="45.97983" lon="5.56242">
        <ele>817.2</ele>
        <time>2026-05-11T10:13:29Z</time>
      </trkpt>
      <trkpt lat="45.97985" lon="5.56241">
        <ele>817.2</ele>
        <time>2026-05-11T10:13:30Z</time>
      </trkpt>
      <trkpt lat="45.97987" lon="5.56239">
        <ele>817.6</ele>
        <time>2026-05-11T10:13:31Z</time>
      </trkpt>
      <trkpt lat="45.97989" lon="5.56238">
        <ele>817.6</ele>
        <time>2026-05-11T10:13:32Z</time>
      </trkpt>
      <trkpt lat="45.9799" lon="5.56236">
        <ele>818.4</ele>
        <time>2026-05-11T10:13:33Z</time>
      </trkpt>
      <trkpt lat="45.9799" lon="5.56236">
        <ele>818.4</ele>
        <time>2026-05-11T10:13:34Z</time>
      </trkpt>
      <trkpt lat="45.97996" lon="5.56226">
        <ele>818.4</ele>
        <time>2026-05-11T10:13:37Z</time>
      </trkpt>
      <trkpt lat="45.97997" lon="5.56224">
        <ele>818.6</ele>
        <time>2026-05-11T10:13:38Z</time>
      </trkpt>
      <trkpt lat="45.98001" lon="5.56221">
        <ele>818.6</ele>
        <time>2026-05-11T10:13:39Z</time>
      </trkpt>
      <trkpt lat="45.98003" lon="5.56219">
        <ele>818.8</ele>
        <time>2026-05-11T10:13:40Z</time>
      </trkpt>
      <trkpt lat="45.98004" lon="5.56218">
        <ele>819</ele>
        <time>2026-05-11T10:13:41Z</time>
      </trkpt>
      <trkpt lat="45.98006" lon="5.56216">
        <ele>819</ele>
        <time>2026-05-11T10:13:42Z</time>
      </trkpt>
      <trkpt lat="45.98008" lon="5.56215">
        <ele>819</ele>
        <time>2026-05-11T10:13:43Z</time>
      </trkpt>
      <trkpt lat="45.9801" lon="5.56213">
        <ele>819.4</ele>
        <time>2026-05-11T10:13:44Z</time>
      </trkpt>
      <trkpt lat="45.98012" lon="5.56212">
        <ele>819.4</ele>
        <time>2026-05-11T10:13:45Z</time>
      </trkpt>
      <trkpt lat="45.98013" lon="5.56211">
        <ele>819.4</ele>
        <time>2026-05-11T10:13:46Z</time>
      </trkpt>
      <trkpt lat="45.98015" lon="5.5621">
        <ele>819.8</ele>
        <time>2026-05-11T10:13:47Z</time>
      </trkpt>
      <trkpt lat="45.98017" lon="5.56208">
        <ele>819.8</ele>
        <time>2026-05-11T10:13:48Z</time>
      </trkpt>
      <trkpt lat="45.98019" lon="5.56207">
        <ele>819.8</ele>
        <time>2026-05-11T10:13:49Z</time>
      </trkpt>
      <trkpt lat="45.98021" lon="5.56205">
        <ele>820</ele>
        <time>2026-05-11T10:13:50Z</time>
      </trkpt>
      <trkpt lat="45.98023" lon="5.56203">
        <ele>820</ele>
        <time>2026-05-11T10:13:51Z</time>
      </trkpt>
      <trkpt lat="45.98024" lon="5.56202">
        <ele>820.2</ele>
        <time>2026-05-11T10:13:52Z</time>
      </trkpt>
      <trkpt lat="45.98026" lon="5.56201">
        <ele>820.6</ele>
        <time>2026-05-11T10:13:53Z</time>
      </trkpt>
      <trkpt lat="45.98027" lon="5.56199">
        <ele>820.6</ele>
        <time>2026-05-11T10:13:54Z</time>
      </trkpt>
      <trkpt lat="45.98029" lon="5.56198">
        <ele>821</ele>
        <time>2026-05-11T10:13:55Z</time>
      </trkpt>
      <trkpt lat="45.98031" lon="5.56196">
        <ele>821</ele>
        <time>2026-05-11T10:13:56Z</time>
      </trkpt>
      <trkpt lat="45.98032" lon="5.56195">
        <ele>821.2</ele>
        <time>2026-05-11T10:13:57Z</time>
      </trkpt>
      <trkpt lat="45.98033" lon="5.56195">
        <ele>821.2</ele>
        <time>2026-05-11T10:13:58Z</time>
      </trkpt>
      <trkpt lat="45.98034" lon="5.56195">
        <ele>821.2</ele>
        <time>2026-05-11T10:13:59Z</time>
      </trkpt>
      <trkpt lat="45.98036" lon="5.56194">
        <ele>821.6</ele>
        <time>2026-05-11T10:14:00Z</time>
      </trkpt>
      <trkpt lat="45.98038" lon="5.56192">
        <ele>821.6</ele>
        <time>2026-05-11T10:14:01Z</time>
      </trkpt>
      <trkpt lat="45.9804" lon="5.56191">
        <ele>821.8</ele>
        <time>2026-05-11T10:14:02Z</time>
      </trkpt>
      <trkpt lat="45.98041" lon="5.5619">
        <ele>821.8</ele>
        <time>2026-05-11T10:14:03Z</time>
      </trkpt>
      <trkpt lat="45.98043" lon="5.56188">
        <ele>821.8</ele>
        <time>2026-05-11T10:14:04Z</time>
      </trkpt>
      <trkpt lat="45.98045" lon="5.56187">
        <ele>822.2</ele>
        <time>2026-05-11T10:14:05Z</time>
      </trkpt>
      <trkpt lat="45.98047" lon="5.56186">
        <ele>822.4</ele>
        <time>2026-05-11T10:14:06Z</time>
      </trkpt>
      <trkpt lat="45.98049" lon="5.56185">
        <ele>822.4</ele>
        <time>2026-05-11T10:14:07Z</time>
      </trkpt>
      <trkpt lat="45.98051" lon="5.56183">
        <ele>822.8</ele>
        <time>2026-05-11T10:14:08Z</time>
      </trkpt>
      <trkpt lat="45.98052" lon="5.56182">
        <ele>822.8</ele>
        <time>2026-05-11T10:14:09Z</time>
      </trkpt>
      <trkpt lat="45.98054" lon="5.56181">
        <ele>822.8</ele>
        <time>2026-05-11T10:14:10Z</time>
      </trkpt>
      <trkpt lat="45.98056" lon="5.5618">
        <ele>823.2</ele>
        <time>2026-05-11T10:14:11Z</time>
      </trkpt>
      <trkpt lat="45.98058" lon="5.56179">
        <ele>823.2</ele>
        <time>2026-05-11T10:14:12Z</time>
      </trkpt>
      <trkpt lat="45.98061" lon="5.56178">
        <ele>823.2</ele>
        <time>2026-05-11T10:14:13Z</time>
      </trkpt>
      <trkpt lat="45.98062" lon="5.56177">
        <ele>823.6</ele>
        <time>2026-05-11T10:14:14Z</time>
      </trkpt>
      <trkpt lat="45.98064" lon="5.56176">
        <ele>823.6</ele>
        <time>2026-05-11T10:14:15Z</time>
      </trkpt>
      <trkpt lat="45.98066" lon="5.56175">
        <ele>823.8</ele>
        <time>2026-05-11T10:14:16Z</time>
      </trkpt>
      <trkpt lat="45.98068" lon="5.56174">
        <ele>823.8</ele>
        <time>2026-05-11T10:14:17Z</time>
      </trkpt>
      <trkpt lat="45.9807" lon="5.56173">
        <ele>824</ele>
        <time>2026-05-11T10:14:18Z</time>
      </trkpt>
      <trkpt lat="45.98072" lon="5.56172">
        <ele>824</ele>
        <time>2026-05-11T10:14:19Z</time>
      </trkpt>
      <trkpt lat="45.98074" lon="5.56171">
        <ele>824.2</ele>
        <time>2026-05-11T10:14:20Z</time>
      </trkpt>
      <trkpt lat="45.98076" lon="5.5617">
        <ele>824.2</ele>
        <time>2026-05-11T10:14:21Z</time>
      </trkpt>
      <trkpt lat="45.98078" lon="5.56169">
        <ele>824.6</ele>
        <time>2026-05-11T10:14:22Z</time>
      </trkpt>
      <trkpt lat="45.9808" lon="5.56168">
        <ele>824.8</ele>
        <time>2026-05-11T10:14:23Z</time>
      </trkpt>
      <trkpt lat="45.9808" lon="5.56168">
        <ele>824.8</ele>
        <time>2026-05-11T10:14:24Z</time>
      </trkpt>
      <trkpt lat="45.98082" lon="5.56167">
        <ele>824.8</ele>
        <time>2026-05-11T10:14:25Z</time>
      </trkpt>
      <trkpt lat="45.98084" lon="5.56166">
        <ele>824.8</ele>
        <time>2026-05-11T10:14:26Z</time>
      </trkpt>
      <trkpt lat="45.98086" lon="5.56164">
        <ele>824.8</ele>
        <time>2026-05-11T10:14:27Z</time>
      </trkpt>
      <trkpt lat="45.98088" lon="5.56163">
        <ele>825.2</ele>
        <time>2026-05-11T10:14:28Z</time>
      </trkpt>
      <trkpt lat="45.9809" lon="5.56161">
        <ele>825.2</ele>
        <time>2026-05-11T10:14:29Z</time>
      </trkpt>
      <trkpt lat="45.98092" lon="5.5616">
        <ele>825.4</ele>
        <time>2026-05-11T10:14:30Z</time>
      </trkpt>
      <trkpt lat="45.98094" lon="5.56159">
        <ele>825.6</ele>
        <time>2026-05-11T10:14:31Z</time>
      </trkpt>
      <trkpt lat="45.98096" lon="5.56158">
        <ele>825.6</ele>
        <time>2026-05-11T10:14:32Z</time>
      </trkpt>
      <trkpt lat="45.98098" lon="5.56157">
        <ele>825.8</ele>
        <time>2026-05-11T10:14:33Z</time>
      </trkpt>
      <trkpt lat="45.981" lon="5.56156">
        <ele>825.8</ele>
        <time>2026-05-11T10:14:34Z</time>
      </trkpt>
      <trkpt lat="45.98103" lon="5.56155">
        <ele>825.8</ele>
        <time>2026-05-11T10:14:35Z</time>
      </trkpt>
      <trkpt lat="45.98105" lon="5.56154">
        <ele>826</ele>
        <time>2026-05-11T10:14:36Z</time>
      </trkpt>
      <trkpt lat="45.98107" lon="5.56153">
        <ele>826</ele>
        <time>2026-05-11T10:14:37Z</time>
      </trkpt>
      <trkpt lat="45.98109" lon="5.56152">
        <ele>826</ele>
        <time>2026-05-11T10:14:38Z</time>
      </trkpt>
      <trkpt lat="45.98111" lon="5.5615">
        <ele>826.4</ele>
        <time>2026-05-11T10:14:39Z</time>
      </trkpt>
      <trkpt lat="45.98114" lon="5.56149">
        <ele>826.4</ele>
        <time>2026-05-11T10:14:40Z</time>
      </trkpt>
      <trkpt lat="45.98116" lon="5.56147">
        <ele>826.6</ele>
        <time>2026-05-11T10:14:41Z</time>
      </trkpt>
      <trkpt lat="45.98118" lon="5.56146">
        <ele>826.6</ele>
        <time>2026-05-11T10:14:42Z</time>
      </trkpt>
      <trkpt lat="45.9812" lon="5.56145">
        <ele>826.6</ele>
        <time>2026-05-11T10:14:43Z</time>
      </trkpt>
      <trkpt lat="45.98122" lon="5.56144">
        <ele>827</ele>
        <time>2026-05-11T10:14:44Z</time>
      </trkpt>
      <trkpt lat="45.98125" lon="5.56143">
        <ele>827.2</ele>
        <time>2026-05-11T10:14:45Z</time>
      </trkpt>
      <trkpt lat="45.98127" lon="5.56142">
        <ele>827.2</ele>
        <time>2026-05-11T10:14:46Z</time>
      </trkpt>
      <trkpt lat="45.98129" lon="5.5614">
        <ele>827.6</ele>
        <time>2026-05-11T10:14:47Z</time>
      </trkpt>
      <trkpt lat="45.98131" lon="5.56139">
        <ele>827.6</ele>
        <time>2026-05-11T10:14:48Z</time>
      </trkpt>
      <trkpt lat="45.98133" lon="5.56138">
        <ele>827.6</ele>
        <time>2026-05-11T10:14:49Z</time>
      </trkpt>
      <trkpt lat="45.98135" lon="5.56136">
        <ele>827.8</ele>
        <time>2026-05-11T10:14:50Z</time>
      </trkpt>
      <trkpt lat="45.98137" lon="5.56135">
        <ele>827.8</ele>
        <time>2026-05-11T10:14:51Z</time>
      </trkpt>
      <trkpt lat="45.98139" lon="5.56134">
        <ele>827.8</ele>
        <time>2026-05-11T10:14:52Z</time>
      </trkpt>
      <trkpt lat="45.98141" lon="5.56133">
        <ele>828</ele>
        <time>2026-05-11T10:14:53Z</time>
      </trkpt>
      <trkpt lat="45.98143" lon="5.56132">
        <ele>828</ele>
        <time>2026-05-11T10:14:54Z</time>
      </trkpt>
      <trkpt lat="45.98145" lon="5.5613">
        <ele>828.2</ele>
        <time>2026-05-11T10:14:55Z</time>
      </trkpt>
      <trkpt lat="45.98147" lon="5.56129">
        <ele>828.4</ele>
        <time>2026-05-11T10:14:56Z</time>
      </trkpt>
      <trkpt lat="45.98148" lon="5.56127">
        <ele>828.4</ele>
        <time>2026-05-11T10:14:57Z</time>
      </trkpt>
      <trkpt lat="45.9815" lon="5.56124">
        <ele>828.8</ele>
        <time>2026-05-11T10:14:58Z</time>
      </trkpt>
      <trkpt lat="45.98152" lon="5.56122">
        <ele>828.8</ele>
        <time>2026-05-11T10:14:59Z</time>
      </trkpt>
      <trkpt lat="45.98154" lon="5.5612">
        <ele>829</ele>
        <time>2026-05-11T10:15:00Z</time>
      </trkpt>
      <trkpt lat="45.98156" lon="5.56119">
        <ele>829</ele>
        <time>2026-05-11T10:15:01Z</time>
      </trkpt>
      <trkpt lat="45.98158" lon="5.56116">
        <ele>829.2</ele>
        <time>2026-05-11T10:15:02Z</time>
      </trkpt>
      <trkpt lat="45.98161" lon="5.56111">
        <ele>829.2</ele>
        <time>2026-05-11T10:15:03Z</time>
      </trkpt>
      <trkpt lat="45.98163" lon="5.56109">
        <ele>829.2</ele>
        <time>2026-05-11T10:15:04Z</time>
      </trkpt>
      <trkpt lat="45.98165" lon="5.56106">
        <ele>829.2</ele>
        <time>2026-05-11T10:15:05Z</time>
      </trkpt>
      <trkpt lat="45.98166" lon="5.56103">
        <ele>829.4</ele>
        <time>2026-05-11T10:15:06Z</time>
      </trkpt>
      <trkpt lat="45.98168" lon="5.56101">
        <ele>829.4</ele>
        <time>2026-05-11T10:15:07Z</time>
      </trkpt>
      <trkpt lat="45.9817" lon="5.56098">
        <ele>829.4</ele>
        <time>2026-05-11T10:15:08Z</time>
      </trkpt>
      <trkpt lat="45.98171" lon="5.56095">
        <ele>829.4</ele>
        <time>2026-05-11T10:15:09Z</time>
      </trkpt>
      <trkpt lat="45.98173" lon="5.56092">
        <ele>829.4</ele>
        <time>2026-05-11T10:15:10Z</time>
      </trkpt>
      <trkpt lat="45.98175" lon="5.56089">
        <ele>829.6</ele>
        <time>2026-05-11T10:15:11Z</time>
      </trkpt>
      <trkpt lat="45.98177" lon="5.56086">
        <ele>829.6</ele>
        <time>2026-05-11T10:15:12Z</time>
      </trkpt>
      <trkpt lat="45.98178" lon="5.56084">
        <ele>830</ele>
        <time>2026-05-11T10:15:13Z</time>
      </trkpt>
      <trkpt lat="45.9818" lon="5.56081">
        <ele>830</ele>
        <time>2026-05-11T10:15:14Z</time>
      </trkpt>
      <trkpt lat="45.98182" lon="5.56079">
        <ele>830</ele>
        <time>2026-05-11T10:15:15Z</time>
      </trkpt>
      <trkpt lat="45.98184" lon="5.56076">
        <ele>830.2</ele>
        <time>2026-05-11T10:15:16Z</time>
      </trkpt>
      <trkpt lat="45.98186" lon="5.56074">
        <ele>830.2</ele>
        <time>2026-05-11T10:15:17Z</time>
      </trkpt>
      <trkpt lat="45.98188" lon="5.56071">
        <ele>830.2</ele>
        <time>2026-05-11T10:15:18Z</time>
      </trkpt>
      <trkpt lat="45.98191" lon="5.56069">
        <ele>830.2</ele>
        <time>2026-05-11T10:15:19Z</time>
      </trkpt>
      <trkpt lat="45.98193" lon="5.56067">
        <ele>830.4</ele>
        <time>2026-05-11T10:15:20Z</time>
      </trkpt>
      <trkpt lat="45.98195" lon="5.56065">
        <ele>830.4</ele>
        <time>2026-05-11T10:15:21Z</time>
      </trkpt>
      <trkpt lat="45.98198" lon="5.56063">
        <ele>830.4</ele>
        <time>2026-05-11T10:15:22Z</time>
      </trkpt>
      <trkpt lat="45.982" lon="5.56061">
        <ele>830.6</ele>
        <time>2026-05-11T10:15:23Z</time>
      </trkpt>
      <trkpt lat="45.98203" lon="5.56059">
        <ele>830.6</ele>
        <time>2026-05-11T10:15:24Z</time>
      </trkpt>
      <trkpt lat="45.98205" lon="5.56056">
        <ele>830.6</ele>
        <time>2026-05-11T10:15:25Z</time>
      </trkpt>
      <trkpt lat="45.98208" lon="5.56054">
        <ele>830.6</ele>
        <time>2026-05-11T10:15:26Z</time>
      </trkpt>
      <trkpt lat="45.98211" lon="5.56053">
        <ele>830.6</ele>
        <time>2026-05-11T10:15:27Z</time>
      </trkpt>
      <trkpt lat="45.98213" lon="5.56051">
        <ele>830.8</ele>
        <time>2026-05-11T10:15:28Z</time>
      </trkpt>
      <trkpt lat="45.98216" lon="5.5605">
        <ele>831</ele>
        <time>2026-05-11T10:15:29Z</time>
      </trkpt>
      <trkpt lat="45.98219" lon="5.56048">
        <ele>831</ele>
        <time>2026-05-11T10:15:30Z</time>
      </trkpt>
      <trkpt lat="45.98221" lon="5.56047">
        <ele>831</ele>
        <time>2026-05-11T10:15:31Z</time>
      </trkpt>
      <trkpt lat="45.98224" lon="5.56045">
        <ele>831</ele>
        <time>2026-05-11T10:15:32Z</time>
      </trkpt>
      <trkpt lat="45.98227" lon="5.56044">
        <ele>831</ele>
        <time>2026-05-11T10:15:33Z</time>
      </trkpt>
      <trkpt lat="45.98229" lon="5.56043">
        <ele>831.4</ele>
        <time>2026-05-11T10:15:34Z</time>
      </trkpt>
      <trkpt lat="45.98232" lon="5.56042">
        <ele>831.8</ele>
        <time>2026-05-11T10:15:35Z</time>
      </trkpt>
      <trkpt lat="45.98235" lon="5.5604">
        <ele>831.8</ele>
        <time>2026-05-11T10:15:36Z</time>
      </trkpt>
      <trkpt lat="45.98237" lon="5.56038">
        <ele>831.8</ele>
        <time>2026-05-11T10:15:37Z</time>
      </trkpt>
      <trkpt lat="45.9824" lon="5.56036">
        <ele>831.8</ele>
        <time>2026-05-11T10:15:38Z</time>
      </trkpt>
      <trkpt lat="45.98242" lon="5.56034">
        <ele>831.8</ele>
        <time>2026-05-11T10:15:39Z</time>
      </trkpt>
      <trkpt lat="45.98245" lon="5.56033">
        <ele>832</ele>
        <time>2026-05-11T10:15:40Z</time>
      </trkpt>
      <trkpt lat="45.98248" lon="5.56031">
        <ele>832</ele>
        <time>2026-05-11T10:15:41Z</time>
      </trkpt>
      <trkpt lat="45.98251" lon="5.5603">
        <ele>832.2</ele>
        <time>2026-05-11T10:15:42Z</time>
      </trkpt>
      <trkpt lat="45.98254" lon="5.56029">
        <ele>832.2</ele>
        <time>2026-05-11T10:15:43Z</time>
      </trkpt>
      <trkpt lat="45.98257" lon="5.56028">
        <ele>832.2</ele>
        <time>2026-05-11T10:15:44Z</time>
      </trkpt>
      <trkpt lat="45.98259" lon="5.56026">
        <ele>832.4</ele>
        <time>2026-05-11T10:15:45Z</time>
      </trkpt>
      <trkpt lat="45.98262" lon="5.56025">
        <ele>832.4</ele>
        <time>2026-05-11T10:15:46Z</time>
      </trkpt>
      <trkpt lat="45.98265" lon="5.56024">
        <ele>832.8</ele>
        <time>2026-05-11T10:15:47Z</time>
      </trkpt>
      <trkpt lat="45.98267" lon="5.56022">
        <ele>832.8</ele>
        <time>2026-05-11T10:15:48Z</time>
      </trkpt>
      <trkpt lat="45.9827" lon="5.56021">
        <ele>833</ele>
        <time>2026-05-11T10:15:49Z</time>
      </trkpt>
      <trkpt lat="45.98272" lon="5.56018">
        <ele>833</ele>
        <time>2026-05-11T10:15:50Z</time>
      </trkpt>
      <trkpt lat="45.98274" lon="5.56016">
        <ele>833.2</ele>
        <time>2026-05-11T10:15:51Z</time>
      </trkpt>
      <trkpt lat="45.98276" lon="5.56013">
        <ele>833.2</ele>
        <time>2026-05-11T10:15:52Z</time>
      </trkpt>
      <trkpt lat="45.98277" lon="5.56009">
        <ele>833.2</ele>
        <time>2026-05-11T10:15:53Z</time>
      </trkpt>
      <trkpt lat="45.98278" lon="5.56005">
        <ele>833.6</ele>
        <time>2026-05-11T10:15:54Z</time>
      </trkpt>
      <trkpt lat="45.98279" lon="5.56002">
        <ele>833.6</ele>
        <time>2026-05-11T10:15:55Z</time>
      </trkpt>
      <trkpt lat="45.9828" lon="5.55998">
        <ele>833.8</ele>
        <time>2026-05-11T10:15:56Z</time>
      </trkpt>
      <trkpt lat="45.98281" lon="5.55994">
        <ele>833.8</ele>
        <time>2026-05-11T10:15:57Z</time>
      </trkpt>
      <trkpt lat="45.98281" lon="5.5599">
        <ele>833.8</ele>
        <time>2026-05-11T10:15:58Z</time>
      </trkpt>
      <trkpt lat="45.98282" lon="5.55986">
        <ele>833.8</ele>
        <time>2026-05-11T10:15:59Z</time>
      </trkpt>
      <trkpt lat="45.98282" lon="5.55982">
        <ele>833.8</ele>
        <time>2026-05-11T10:16:00Z</time>
      </trkpt>
      <trkpt lat="45.98283" lon="5.55978">
        <ele>834</ele>
        <time>2026-05-11T10:16:01Z</time>
      </trkpt>
      <trkpt lat="45.98283" lon="5.55975">
        <ele>834</ele>
        <time>2026-05-11T10:16:02Z</time>
      </trkpt>
      <trkpt lat="45.98283" lon="5.55971">
        <ele>834.4</ele>
        <time>2026-05-11T10:16:03Z</time>
      </trkpt>
      <trkpt lat="45.98283" lon="5.55967">
        <ele>834.4</ele>
        <time>2026-05-11T10:16:04Z</time>
      </trkpt>
      <trkpt lat="45.98284" lon="5.55964">
        <ele>834.4</ele>
        <time>2026-05-11T10:16:05Z</time>
      </trkpt>
      <trkpt lat="45.98284" lon="5.5596">
        <ele>834.4</ele>
        <time>2026-05-11T10:16:06Z</time>
      </trkpt>
      <trkpt lat="45.98284" lon="5.55956">
        <ele>834.6</ele>
        <time>2026-05-11T10:16:07Z</time>
      </trkpt>
      <trkpt lat="45.98284" lon="5.55952">
        <ele>834.6</ele>
        <time>2026-05-11T10:16:08Z</time>
      </trkpt>
      <trkpt lat="45.98284" lon="5.55948">
        <ele>834.6</ele>
        <time>2026-05-11T10:16:09Z</time>
      </trkpt>
      <trkpt lat="45.98284" lon="5.55943">
        <ele>834.6</ele>
        <time>2026-05-11T10:16:10Z</time>
      </trkpt>
      <trkpt lat="45.98285" lon="5.55939">
        <ele>834.6</ele>
        <time>2026-05-11T10:16:11Z</time>
      </trkpt>
      <trkpt lat="45.98285" lon="5.55935">
        <ele>834.6</ele>
        <time>2026-05-11T10:16:12Z</time>
      </trkpt>
      <trkpt lat="45.98286" lon="5.5593">
        <ele>835</ele>
        <time>2026-05-11T10:16:13Z</time>
      </trkpt>
      <trkpt lat="45.98286" lon="5.55926">
        <ele>835</ele>
        <time>2026-05-11T10:16:14Z</time>
      </trkpt>
      <trkpt lat="45.98287" lon="5.55923">
        <ele>835.2</ele>
        <time>2026-05-11T10:16:15Z</time>
      </trkpt>
      <trkpt lat="45.98288" lon="5.55919">
        <ele>835.2</ele>
        <time>2026-05-11T10:16:16Z</time>
      </trkpt>
      <trkpt lat="45.98289" lon="5.55916">
        <ele>835.4</ele>
        <time>2026-05-11T10:16:17Z</time>
      </trkpt>
      <trkpt lat="45.98291" lon="5.55912">
        <ele>835.4</ele>
        <time>2026-05-11T10:16:18Z</time>
      </trkpt>
      <trkpt lat="45.98292" lon="5.55909">
        <ele>835.8</ele>
        <time>2026-05-11T10:16:19Z</time>
      </trkpt>
      <trkpt lat="45.98294" lon="5.55905">
        <ele>835.8</ele>
        <time>2026-05-11T10:16:20Z</time>
      </trkpt>
      <trkpt lat="45.98296" lon="5.55902">
        <ele>835.8</ele>
        <time>2026-05-11T10:16:21Z</time>
      </trkpt>
      <trkpt lat="45.98297" lon="5.55899">
        <ele>836</ele>
        <time>2026-05-11T10:16:22Z</time>
      </trkpt>
      <trkpt lat="45.98299" lon="5.55896">
        <ele>836</ele>
        <time>2026-05-11T10:16:23Z</time>
      </trkpt>
      <trkpt lat="45.98301" lon="5.55893">
        <ele>836.4</ele>
        <time>2026-05-11T10:16:24Z</time>
      </trkpt>
      <trkpt lat="45.98302" lon="5.5589">
        <ele>836.4</ele>
        <time>2026-05-11T10:16:25Z</time>
      </trkpt>
      <trkpt lat="45.98304" lon="5.55886">
        <ele>836.4</ele>
        <time>2026-05-11T10:16:26Z</time>
      </trkpt>
      <trkpt lat="45.98306" lon="5.55882">
        <ele>836.4</ele>
        <time>2026-05-11T10:16:27Z</time>
      </trkpt>
      <trkpt lat="45.98308" lon="5.55878">
        <ele>836.4</ele>
        <time>2026-05-11T10:16:28Z</time>
      </trkpt>
      <trkpt lat="45.9831" lon="5.55874">
        <ele>836.4</ele>
        <time>2026-05-11T10:16:29Z</time>
      </trkpt>
      <trkpt lat="45.98312" lon="5.5587">
        <ele>835.8</ele>
        <time>2026-05-11T10:16:30Z</time>
      </trkpt>
      <trkpt lat="45.98313" lon="5.55866">
        <ele>835.8</ele>
        <time>2026-05-11T10:16:31Z</time>
      </trkpt>
      <trkpt lat="45.98315" lon="5.55861">
        <ele>835.8</ele>
        <time>2026-05-11T10:16:32Z</time>
      </trkpt>
      <trkpt lat="45.98316" lon="5.55856">
        <ele>835.6</ele>
        <time>2026-05-11T10:16:33Z</time>
      </trkpt>
      <trkpt lat="45.98318" lon="5.55851">
        <ele>835.6</ele>
        <time>2026-05-11T10:16:34Z</time>
      </trkpt>
      <trkpt lat="45.98319" lon="5.55846">
        <ele>835.6</ele>
        <time>2026-05-11T10:16:35Z</time>
      </trkpt>
      <trkpt lat="45.98321" lon="5.5584">
        <ele>835.4</ele>
        <time>2026-05-11T10:16:36Z</time>
      </trkpt>
      <trkpt lat="45.98322" lon="5.55835">
        <ele>835.4</ele>
        <time>2026-05-11T10:16:37Z</time>
      </trkpt>
      <trkpt lat="45.98323" lon="5.55829">
        <ele>835.4</ele>
        <time>2026-05-11T10:16:38Z</time>
      </trkpt>
      <trkpt lat="45.98324" lon="5.55823">
        <ele>835.4</ele>
        <time>2026-05-11T10:16:39Z</time>
      </trkpt>
      <trkpt lat="45.98326" lon="5.55818">
        <ele>835.4</ele>
        <time>2026-05-11T10:16:40Z</time>
      </trkpt>
      <trkpt lat="45.98328" lon="5.55812">
        <ele>835.4</ele>
        <time>2026-05-11T10:16:41Z</time>
      </trkpt>
      <trkpt lat="45.9833" lon="5.55806">
        <ele>835</ele>
        <time>2026-05-11T10:16:42Z</time>
      </trkpt>
      <trkpt lat="45.98331" lon="5.55801">
        <ele>835</ele>
        <time>2026-05-11T10:16:43Z</time>
      </trkpt>
      <trkpt lat="45.98333" lon="5.55795">
        <ele>835</ele>
        <time>2026-05-11T10:16:44Z</time>
      </trkpt>
      <trkpt lat="45.98335" lon="5.55789">
        <ele>835</ele>
        <time>2026-05-11T10:16:45Z</time>
      </trkpt>
      <trkpt lat="45.98336" lon="5.55783">
        <ele>834.6</ele>
        <time>2026-05-11T10:16:46Z</time>
      </trkpt>
      <trkpt lat="45.98338" lon="5.55778">
        <ele>834.6</ele>
        <time>2026-05-11T10:16:47Z</time>
      </trkpt>
      <trkpt lat="45.9834" lon="5.55771">
        <ele>834.6</ele>
        <time>2026-05-11T10:16:48Z</time>
      </trkpt>
      <trkpt lat="45.98342" lon="5.55765">
        <ele>834.6</ele>
        <time>2026-05-11T10:16:49Z</time>
      </trkpt>
      <trkpt lat="45.98344" lon="5.55759">
        <ele>834.6</ele>
        <time>2026-05-11T10:16:50Z</time>
      </trkpt>
      <trkpt lat="45.98344" lon="5.55759">
        <ele>834.6</ele>
        <time>2026-05-11T10:16:51Z</time>
      </trkpt>
      <trkpt lat="45.98345" lon="5.55753">
        <ele>834.6</ele>
        <time>2026-05-11T10:16:52Z</time>
      </trkpt>
      <trkpt lat="45.98347" lon="5.55747">
        <ele>834.6</ele>
        <time>2026-05-11T10:16:53Z</time>
      </trkpt>
      <trkpt lat="45.98349" lon="5.55742">
        <ele>834.2</ele>
        <time>2026-05-11T10:16:54Z</time>
      </trkpt>
      <trkpt lat="45.98351" lon="5.55736">
        <ele>834.2</ele>
        <time>2026-05-11T10:16:55Z</time>
      </trkpt>
      <trkpt lat="45.98352" lon="5.5573">
        <ele>834.2</ele>
        <time>2026-05-11T10:16:56Z</time>
      </trkpt>
      <trkpt lat="45.98354" lon="5.55725">
        <ele>834.2</ele>
        <time>2026-05-11T10:16:57Z</time>
      </trkpt>
      <trkpt lat="45.98356" lon="5.55721">
        <ele>834.2</ele>
        <time>2026-05-11T10:16:58Z</time>
      </trkpt>
      <trkpt lat="45.98357" lon="5.55715">
        <ele>834.6</ele>
        <time>2026-05-11T10:16:59Z</time>
      </trkpt>
      <trkpt lat="45.98358" lon="5.5571">
        <ele>834.6</ele>
        <time>2026-05-11T10:17:00Z</time>
      </trkpt>
      <trkpt lat="45.9836" lon="5.55705">
        <ele>834.6</ele>
        <time>2026-05-11T10:17:01Z</time>
      </trkpt>
      <trkpt lat="45.98361" lon="5.55699">
        <ele>834.8</ele>
        <time>2026-05-11T10:17:02Z</time>
      </trkpt>
      <trkpt lat="45.98362" lon="5.55694">
        <ele>834.8</ele>
        <time>2026-05-11T10:17:03Z</time>
      </trkpt>
      <trkpt lat="45.98363" lon="5.55687">
        <ele>834.8</ele>
        <time>2026-05-11T10:17:04Z</time>
      </trkpt>
      <trkpt lat="45.98364" lon="5.55681">
        <ele>834.8</ele>
        <time>2026-05-11T10:17:05Z</time>
      </trkpt>
      <trkpt lat="45.98365" lon="5.55674">
        <ele>834.2</ele>
        <time>2026-05-11T10:17:06Z</time>
      </trkpt>
      <trkpt lat="45.98366" lon="5.55668">
        <ele>834.2</ele>
        <time>2026-05-11T10:17:07Z</time>
      </trkpt>
      <trkpt lat="45.98367" lon="5.55662">
        <ele>834.2</ele>
        <time>2026-05-11T10:17:08Z</time>
      </trkpt>
      <trkpt lat="45.98367" lon="5.55656">
        <ele>834.2</ele>
        <time>2026-05-11T10:17:09Z</time>
      </trkpt>
      <trkpt lat="45.98367" lon="5.5565">
        <ele>834.2</ele>
        <time>2026-05-11T10:17:10Z</time>
      </trkpt>
      <trkpt lat="45.98367" lon="5.55643">
        <ele>834.2</ele>
        <time>2026-05-11T10:17:11Z</time>
      </trkpt>
      <trkpt lat="45.98367" lon="5.55637">
        <ele>834.2</ele>
        <time>2026-05-11T10:17:12Z</time>
      </trkpt>
      <trkpt lat="45.98366" lon="5.5563">
        <ele>834.2</ele>
        <time>2026-05-11T10:17:13Z</time>
      </trkpt>
      <trkpt lat="45.98365" lon="5.55623">
        <ele>834</ele>
        <time>2026-05-11T10:17:14Z</time>
      </trkpt>
      <trkpt lat="45.98364" lon="5.55617">
        <ele>833.6</ele>
        <time>2026-05-11T10:17:15Z</time>
      </trkpt>
      <trkpt lat="45.98363" lon="5.55611">
        <ele>833.6</ele>
        <time>2026-05-11T10:17:16Z</time>
      </trkpt>
      <trkpt lat="45.98361" lon="5.55605">
        <ele>833.4</ele>
        <time>2026-05-11T10:17:17Z</time>
      </trkpt>
      <trkpt lat="45.98359" lon="5.55599">
        <ele>833.4</ele>
        <time>2026-05-11T10:17:18Z</time>
      </trkpt>
      <trkpt lat="45.98358" lon="5.55593">
        <ele>833.4</ele>
        <time>2026-05-11T10:17:19Z</time>
      </trkpt>
      <trkpt lat="45.98354" lon="5.55587">
        <ele>833</ele>
        <time>2026-05-11T10:17:20Z</time>
      </trkpt>
      <trkpt lat="45.98352" lon="5.55581">
        <ele>833</ele>
        <time>2026-05-11T10:17:21Z</time>
      </trkpt>
      <trkpt lat="45.98349" lon="5.55575">
        <ele>833</ele>
        <time>2026-05-11T10:17:22Z</time>
      </trkpt>
      <trkpt lat="45.98346" lon="5.5557">
        <ele>832.8</ele>
        <time>2026-05-11T10:17:23Z</time>
      </trkpt>
      <trkpt lat="45.98343" lon="5.55565">
        <ele>832.4</ele>
        <time>2026-05-11T10:17:24Z</time>
      </trkpt>
      <trkpt lat="45.98339" lon="5.5556">
        <ele>832.2</ele>
        <time>2026-05-11T10:17:25Z</time>
      </trkpt>
      <trkpt lat="45.98335" lon="5.55554">
        <ele>832.2</ele>
        <time>2026-05-11T10:17:26Z</time>
      </trkpt>
      <trkpt lat="45.98331" lon="5.55549">
        <ele>832.2</ele>
        <time>2026-05-11T10:17:27Z</time>
      </trkpt>
      <trkpt lat="45.98327" lon="5.55544">
        <ele>831.8</ele>
        <time>2026-05-11T10:17:28Z</time>
      </trkpt>
      <trkpt lat="45.98323" lon="5.5554">
        <ele>831.8</ele>
        <time>2026-05-11T10:17:29Z</time>
      </trkpt>
      <trkpt lat="45.98318" lon="5.55536">
        <ele>831.6</ele>
        <time>2026-05-11T10:17:30Z</time>
      </trkpt>
      <trkpt lat="45.98314" lon="5.55532">
        <ele>831.4</ele>
        <time>2026-05-11T10:17:31Z</time>
      </trkpt>
      <trkpt lat="45.98309" lon="5.55528">
        <ele>830.8</ele>
        <time>2026-05-11T10:17:32Z</time>
      </trkpt>
      <trkpt lat="45.98304" lon="5.55523">
        <ele>830.8</ele>
        <time>2026-05-11T10:17:33Z</time>
      </trkpt>
      <trkpt lat="45.983" lon="5.55518">
        <ele>830.8</ele>
        <time>2026-05-11T10:17:34Z</time>
      </trkpt>
      <trkpt lat="45.98295" lon="5.55515">
        <ele>830.8</ele>
        <time>2026-05-11T10:17:35Z</time>
      </trkpt>
      <trkpt lat="45.9829" lon="5.55509">
        <ele>830.6</ele>
        <time>2026-05-11T10:17:36Z</time>
      </trkpt>
      <trkpt lat="45.98286" lon="5.55504">
        <ele>830.6</ele>
        <time>2026-05-11T10:17:37Z</time>
      </trkpt>
      <trkpt lat="45.98276" lon="5.55497">
        <ele>830.6</ele>
        <time>2026-05-11T10:17:38Z</time>
      </trkpt>
      <trkpt lat="45.98272" lon="5.55494">
        <ele>830.6</ele>
        <time>2026-05-11T10:17:39Z</time>
      </trkpt>
      <trkpt lat="45.98267" lon="5.5549">
        <ele>830.6</ele>
        <time>2026-05-11T10:17:40Z</time>
      </trkpt>
      <trkpt lat="45.98263" lon="5.55487">
        <ele>830.6</ele>
        <time>2026-05-11T10:17:41Z</time>
      </trkpt>
      <trkpt lat="45.98258" lon="5.55483">
        <ele>830.6</ele>
        <time>2026-05-11T10:17:42Z</time>
      </trkpt>
      <trkpt lat="45.98254" lon="5.55479">
        <ele>830.6</ele>
        <time>2026-05-11T10:17:43Z</time>
      </trkpt>
      <trkpt lat="45.9825" lon="5.55475">
        <ele>830.6</ele>
        <time>2026-05-11T10:17:44Z</time>
      </trkpt>
      <trkpt lat="45.98245" lon="5.55472">
        <ele>830.6</ele>
        <time>2026-05-11T10:17:45Z</time>
      </trkpt>
      <trkpt lat="45.98241" lon="5.55468">
        <ele>830.6</ele>
        <time>2026-05-11T10:17:46Z</time>
      </trkpt>
      <trkpt lat="45.98236" lon="5.55465">
        <ele>830.6</ele>
        <time>2026-05-11T10:17:47Z</time>
      </trkpt>
      <trkpt lat="45.98232" lon="5.55462">
        <ele>831</ele>
        <time>2026-05-11T10:17:48Z</time>
      </trkpt>
      <trkpt lat="45.98228" lon="5.55458">
        <ele>831</ele>
        <time>2026-05-11T10:17:49Z</time>
      </trkpt>
      <trkpt lat="45.98224" lon="5.55459">
        <ele>831</ele>
        <time>2026-05-11T10:17:50Z</time>
      </trkpt>
      <trkpt lat="45.9822" lon="5.55456">
        <ele>831</ele>
        <time>2026-05-11T10:17:51Z</time>
      </trkpt>
      <trkpt lat="45.98216" lon="5.55454">
        <ele>831.2</ele>
        <time>2026-05-11T10:17:52Z</time>
      </trkpt>
      <trkpt lat="45.98213" lon="5.5545">
        <ele>831.2</ele>
        <time>2026-05-11T10:17:53Z</time>
      </trkpt>
      <trkpt lat="45.98209" lon="5.55448">
        <ele>831.2</ele>
        <time>2026-05-11T10:17:54Z</time>
      </trkpt>
      <trkpt lat="45.98207" lon="5.55444">
        <ele>831.4</ele>
        <time>2026-05-11T10:17:55Z</time>
      </trkpt>
      <trkpt lat="45.98203" lon="5.55442">
        <ele>831.8</ele>
        <time>2026-05-11T10:17:56Z</time>
      </trkpt>
      <trkpt lat="45.982" lon="5.5544">
        <ele>831.8</ele>
        <time>2026-05-11T10:17:57Z</time>
      </trkpt>
      <trkpt lat="45.98197" lon="5.55438">
        <ele>832.2</ele>
        <time>2026-05-11T10:17:58Z</time>
      </trkpt>
      <trkpt lat="45.98194" lon="5.55435">
        <ele>832.6</ele>
        <time>2026-05-11T10:17:59Z</time>
      </trkpt>
      <trkpt lat="45.98191" lon="5.55432">
        <ele>833</ele>
        <time>2026-05-11T10:18:00Z</time>
      </trkpt>
      <trkpt lat="45.98188" lon="5.55429">
        <ele>833.4</ele>
        <time>2026-05-11T10:18:01Z</time>
      </trkpt>
      <trkpt lat="45.98185" lon="5.55427">
        <ele>833.4</ele>
        <time>2026-05-11T10:18:02Z</time>
      </trkpt>
      <trkpt lat="45.98182" lon="5.55425">
        <ele>833.4</ele>
        <time>2026-05-11T10:18:03Z</time>
      </trkpt>
      <trkpt lat="45.98179" lon="5.55423">
        <ele>833.4</ele>
        <time>2026-05-11T10:18:04Z</time>
      </trkpt>
      <trkpt lat="45.98176" lon="5.5542">
        <ele>833.4</ele>
        <time>2026-05-11T10:18:05Z</time>
      </trkpt>
      <trkpt lat="45.98173" lon="5.55418">
        <ele>833.8</ele>
        <time>2026-05-11T10:18:06Z</time>
      </trkpt>
      <trkpt lat="45.9817" lon="5.55416">
        <ele>833.8</ele>
        <time>2026-05-11T10:18:07Z</time>
      </trkpt>
      <trkpt lat="45.98167" lon="5.55413">
        <ele>834.2</ele>
        <time>2026-05-11T10:18:08Z</time>
      </trkpt>
      <trkpt lat="45.98165" lon="5.55411">
        <ele>834.2</ele>
        <time>2026-05-11T10:18:09Z</time>
      </trkpt>
      <trkpt lat="45.98163" lon="5.55408">
        <ele>834.6</ele>
        <time>2026-05-11T10:18:10Z</time>
      </trkpt>
      <trkpt lat="45.9816" lon="5.55405">
        <ele>834.8</ele>
        <time>2026-05-11T10:18:11Z</time>
      </trkpt>
      <trkpt lat="45.98158" lon="5.55402">
        <ele>835.2</ele>
        <time>2026-05-11T10:18:12Z</time>
      </trkpt>
      <trkpt lat="45.98156" lon="5.55399">
        <ele>835.2</ele>
        <time>2026-05-11T10:18:13Z</time>
      </trkpt>
      <trkpt lat="45.98153" lon="5.55395">
        <ele>835.2</ele>
        <time>2026-05-11T10:18:14Z</time>
      </trkpt>
      <trkpt lat="45.98151" lon="5.55392">
        <ele>835.2</ele>
        <time>2026-05-11T10:18:15Z</time>
      </trkpt>
      <trkpt lat="45.98149" lon="5.55388">
        <ele>835.2</ele>
        <time>2026-05-11T10:18:16Z</time>
      </trkpt>
      <trkpt lat="45.98147" lon="5.55384">
        <ele>835.8</ele>
        <time>2026-05-11T10:18:17Z</time>
      </trkpt>
      <trkpt lat="45.98145" lon="5.5538">
        <ele>835.8</ele>
        <time>2026-05-11T10:18:18Z</time>
      </trkpt>
      <trkpt lat="45.98143" lon="5.55376">
        <ele>835.8</ele>
        <time>2026-05-11T10:18:19Z</time>
      </trkpt>
      <trkpt lat="45.98142" lon="5.55372">
        <ele>835.8</ele>
        <time>2026-05-11T10:18:20Z</time>
      </trkpt>
      <trkpt lat="45.98141" lon="5.55368">
        <ele>835.8</ele>
        <time>2026-05-11T10:18:21Z</time>
      </trkpt>
      <trkpt lat="45.98139" lon="5.55364">
        <ele>836</ele>
        <time>2026-05-11T10:18:22Z</time>
      </trkpt>
      <trkpt lat="45.98138" lon="5.55361">
        <ele>836.4</ele>
        <time>2026-05-11T10:18:23Z</time>
      </trkpt>
      <trkpt lat="45.98137" lon="5.55357">
        <ele>836.4</ele>
        <time>2026-05-11T10:18:24Z</time>
      </trkpt>
      <trkpt lat="45.98136" lon="5.55353">
        <ele>836.6</ele>
        <time>2026-05-11T10:18:25Z</time>
      </trkpt>
      <trkpt lat="45.98135" lon="5.55349">
        <ele>836.8</ele>
        <time>2026-05-11T10:18:26Z</time>
      </trkpt>
      <trkpt lat="45.98135" lon="5.55346">
        <ele>837.2</ele>
        <time>2026-05-11T10:18:27Z</time>
      </trkpt>
      <trkpt lat="45.98134" lon="5.55342">
        <ele>837.4</ele>
        <time>2026-05-11T10:18:28Z</time>
      </trkpt>
      <trkpt lat="45.98133" lon="5.55338">
        <ele>837.4</ele>
        <time>2026-05-11T10:18:29Z</time>
      </trkpt>
      <trkpt lat="45.98132" lon="5.55335">
        <ele>837.6</ele>
        <time>2026-05-11T10:18:30Z</time>
      </trkpt>
      <trkpt lat="45.98132" lon="5.55331">
        <ele>837.6</ele>
        <time>2026-05-11T10:18:31Z</time>
      </trkpt>
      <trkpt lat="45.98131" lon="5.55327">
        <ele>837.8</ele>
        <time>2026-05-11T10:18:32Z</time>
      </trkpt>
      <trkpt lat="45.9813" lon="5.55323">
        <ele>838</ele>
        <time>2026-05-11T10:18:33Z</time>
      </trkpt>
      <trkpt lat="45.9813" lon="5.55319">
        <ele>838</ele>
        <time>2026-05-11T10:18:34Z</time>
      </trkpt>
      <trkpt lat="45.98129" lon="5.55316">
        <ele>838</ele>
        <time>2026-05-11T10:18:35Z</time>
      </trkpt>
      <trkpt lat="45.98128" lon="5.55312">
        <ele>838.2</ele>
        <time>2026-05-11T10:18:36Z</time>
      </trkpt>
      <trkpt lat="45.98127" lon="5.55308">
        <ele>838.2</ele>
        <time>2026-05-11T10:18:37Z</time>
      </trkpt>
      <trkpt lat="45.98126" lon="5.55304">
        <ele>838.2</ele>
        <time>2026-05-11T10:18:38Z</time>
      </trkpt>
      <trkpt lat="45.98124" lon="5.55299">
        <ele>838.2</ele>
        <time>2026-05-11T10:18:39Z</time>
      </trkpt>
      <trkpt lat="45.98123" lon="5.55295">
        <ele>838.2</ele>
        <time>2026-05-11T10:18:40Z</time>
      </trkpt>
      <trkpt lat="45.98122" lon="5.55291">
        <ele>838.2</ele>
        <time>2026-05-11T10:18:41Z</time>
      </trkpt>
      <trkpt lat="45.9812" lon="5.55287">
        <ele>838.2</ele>
        <time>2026-05-11T10:18:42Z</time>
      </trkpt>
      <trkpt lat="45.98118" lon="5.55283">
        <ele>838.6</ele>
        <time>2026-05-11T10:18:43Z</time>
      </trkpt>
      <trkpt lat="45.98117" lon="5.55279">
        <ele>838.6</ele>
        <time>2026-05-11T10:18:44Z</time>
      </trkpt>
      <trkpt lat="45.98115" lon="5.55275">
        <ele>838.6</ele>
        <time>2026-05-11T10:18:45Z</time>
      </trkpt>
      <trkpt lat="45.98113" lon="5.55272">
        <ele>838.8</ele>
        <time>2026-05-11T10:18:46Z</time>
      </trkpt>
      <trkpt lat="45.9811" lon="5.55269">
        <ele>838.8</ele>
        <time>2026-05-11T10:18:47Z</time>
      </trkpt>
      <trkpt lat="45.98108" lon="5.55266">
        <ele>838.8</ele>
        <time>2026-05-11T10:18:48Z</time>
      </trkpt>
      <trkpt lat="45.98106" lon="5.55262">
        <ele>839</ele>
        <time>2026-05-11T10:18:49Z</time>
      </trkpt>
      <trkpt lat="45.98104" lon="5.55259">
        <ele>839</ele>
        <time>2026-05-11T10:18:50Z</time>
      </trkpt>
      <trkpt lat="45.98102" lon="5.55255">
        <ele>839</ele>
        <time>2026-05-11T10:18:51Z</time>
      </trkpt>
      <trkpt lat="45.981" lon="5.55252">
        <ele>839.4</ele>
        <time>2026-05-11T10:18:52Z</time>
      </trkpt>
      <trkpt lat="45.98098" lon="5.55248">
        <ele>839.4</ele>
        <time>2026-05-11T10:18:53Z</time>
      </trkpt>
      <trkpt lat="45.98096" lon="5.55245">
        <ele>839.6</ele>
        <time>2026-05-11T10:18:54Z</time>
      </trkpt>
      <trkpt lat="45.98094" lon="5.55242">
        <ele>839.8</ele>
        <time>2026-05-11T10:18:55Z</time>
      </trkpt>
      <trkpt lat="45.98091" lon="5.55238">
        <ele>839.8</ele>
        <time>2026-05-11T10:18:56Z</time>
      </trkpt>
      <trkpt lat="45.98089" lon="5.55234">
        <ele>840.2</ele>
        <time>2026-05-11T10:18:57Z</time>
      </trkpt>
      <trkpt lat="45.98087" lon="5.5523">
        <ele>840.2</ele>
        <time>2026-05-11T10:18:58Z</time>
      </trkpt>
      <trkpt lat="45.98085" lon="5.55226">
        <ele>840.4</ele>
        <time>2026-05-11T10:18:59Z</time>
      </trkpt>
      <trkpt lat="45.98082" lon="5.55222">
        <ele>840.4</ele>
        <time>2026-05-11T10:19:00Z</time>
      </trkpt>
      <trkpt lat="45.9808" lon="5.55218">
        <ele>840.4</ele>
        <time>2026-05-11T10:19:01Z</time>
      </trkpt>
      <trkpt lat="45.98077" lon="5.55215">
        <ele>840.4</ele>
        <time>2026-05-11T10:19:02Z</time>
      </trkpt>
      <trkpt lat="45.98075" lon="5.55211">
        <ele>840.4</ele>
        <time>2026-05-11T10:19:03Z</time>
      </trkpt>
      <trkpt lat="45.98073" lon="5.55207">
        <ele>840.4</ele>
        <time>2026-05-11T10:19:04Z</time>
      </trkpt>
      <trkpt lat="45.98071" lon="5.55203">
        <ele>840.4</ele>
        <time>2026-05-11T10:19:05Z</time>
      </trkpt>
      <trkpt lat="45.98068" lon="5.55199">
        <ele>840.4</ele>
        <time>2026-05-11T10:19:06Z</time>
      </trkpt>
      <trkpt lat="45.98066" lon="5.55196">
        <ele>840.4</ele>
        <time>2026-05-11T10:19:07Z</time>
      </trkpt>
      <trkpt lat="45.98064" lon="5.55192">
        <ele>840.4</ele>
        <time>2026-05-11T10:19:08Z</time>
      </trkpt>
      <trkpt lat="45.98061" lon="5.55188">
        <ele>840.6</ele>
        <time>2026-05-11T10:19:09Z</time>
      </trkpt>
      <trkpt lat="45.98059" lon="5.55184">
        <ele>840.6</ele>
        <time>2026-05-11T10:19:10Z</time>
      </trkpt>
      <trkpt lat="45.98056" lon="5.55181">
        <ele>840.8</ele>
        <time>2026-05-11T10:19:11Z</time>
      </trkpt>
      <trkpt lat="45.98054" lon="5.55176">
        <ele>840.8</ele>
        <time>2026-05-11T10:19:12Z</time>
      </trkpt>
      <trkpt lat="45.98051" lon="5.55172">
        <ele>840.8</ele>
        <time>2026-05-11T10:19:13Z</time>
      </trkpt>
      <trkpt lat="45.98049" lon="5.55168">
        <ele>841.2</ele>
        <time>2026-05-11T10:19:14Z</time>
      </trkpt>
      <trkpt lat="45.98047" lon="5.55163">
        <ele>841.2</ele>
        <time>2026-05-11T10:19:15Z</time>
      </trkpt>
      <trkpt lat="45.98044" lon="5.55158">
        <ele>841.2</ele>
        <time>2026-05-11T10:19:16Z</time>
      </trkpt>
      <trkpt lat="45.98042" lon="5.55154">
        <ele>841.4</ele>
        <time>2026-05-11T10:19:17Z</time>
      </trkpt>
      <trkpt lat="45.9804" lon="5.55149">
        <ele>841.4</ele>
        <time>2026-05-11T10:19:18Z</time>
      </trkpt>
      <trkpt lat="45.98037" lon="5.55146">
        <ele>841.4</ele>
        <time>2026-05-11T10:19:19Z</time>
      </trkpt>
      <trkpt lat="45.98034" lon="5.55143">
        <ele>841.4</ele>
        <time>2026-05-11T10:19:20Z</time>
      </trkpt>
      <trkpt lat="45.98032" lon="5.55139">
        <ele>841.6</ele>
        <time>2026-05-11T10:19:21Z</time>
      </trkpt>
      <trkpt lat="45.98029" lon="5.55136">
        <ele>841.6</ele>
        <time>2026-05-11T10:19:22Z</time>
      </trkpt>
      <trkpt lat="45.98026" lon="5.55132">
        <ele>841.6</ele>
        <time>2026-05-11T10:19:23Z</time>
      </trkpt>
      <trkpt lat="45.98023" lon="5.55129">
        <ele>841.6</ele>
        <time>2026-05-11T10:19:24Z</time>
      </trkpt>
      <trkpt lat="45.9802" lon="5.55126">
        <ele>841.6</ele>
        <time>2026-05-11T10:19:25Z</time>
      </trkpt>
      <trkpt lat="45.98017" lon="5.55122">
        <ele>841.6</ele>
        <time>2026-05-11T10:19:26Z</time>
      </trkpt>
      <trkpt lat="45.98014" lon="5.55119">
        <ele>842</ele>
        <time>2026-05-11T10:19:27Z</time>
      </trkpt>
      <trkpt lat="45.98012" lon="5.55115">
        <ele>842</ele>
        <time>2026-05-11T10:19:28Z</time>
      </trkpt>
      <trkpt lat="45.98009" lon="5.55112">
        <ele>842.2</ele>
        <time>2026-05-11T10:19:29Z</time>
      </trkpt>
      <trkpt lat="45.98006" lon="5.55108">
        <ele>842.2</ele>
        <time>2026-05-11T10:19:30Z</time>
      </trkpt>
      <trkpt lat="45.98004" lon="5.55104">
        <ele>842.4</ele>
        <time>2026-05-11T10:19:31Z</time>
      </trkpt>
      <trkpt lat="45.98001" lon="5.551">
        <ele>842.2</ele>
        <time>2026-05-11T10:19:32Z</time>
      </trkpt>
      <trkpt lat="45.97999" lon="5.55096">
        <ele>842.2</ele>
        <time>2026-05-11T10:19:33Z</time>
      </trkpt>
      <trkpt lat="45.97996" lon="5.55092">
        <ele>842.2</ele>
        <time>2026-05-11T10:19:34Z</time>
      </trkpt>
      <trkpt lat="45.97994" lon="5.55087">
        <ele>842.2</ele>
        <time>2026-05-11T10:19:35Z</time>
      </trkpt>
      <trkpt lat="45.97991" lon="5.55083">
        <ele>842.2</ele>
        <time>2026-05-11T10:19:36Z</time>
      </trkpt>
      <trkpt lat="45.97989" lon="5.55079">
        <ele>842.2</ele>
        <time>2026-05-11T10:19:37Z</time>
      </trkpt>
      <trkpt lat="45.97986" lon="5.55075">
        <ele>842.4</ele>
        <time>2026-05-11T10:19:38Z</time>
      </trkpt>
      <trkpt lat="45.97984" lon="5.55071">
        <ele>842.4</ele>
        <time>2026-05-11T10:19:39Z</time>
      </trkpt>
      <trkpt lat="45.97982" lon="5.55067">
        <ele>842.4</ele>
        <time>2026-05-11T10:19:40Z</time>
      </trkpt>
      <trkpt lat="45.97979" lon="5.55063">
        <ele>842.8</ele>
        <time>2026-05-11T10:19:41Z</time>
      </trkpt>
      <trkpt lat="45.97977" lon="5.55059">
        <ele>842.8</ele>
        <time>2026-05-11T10:19:42Z</time>
      </trkpt>
      <trkpt lat="45.97975" lon="5.55055">
        <ele>843</ele>
        <time>2026-05-11T10:19:43Z</time>
      </trkpt>
      <trkpt lat="45.97972" lon="5.55051">
        <ele>843.2</ele>
        <time>2026-05-11T10:19:44Z</time>
      </trkpt>
      <trkpt lat="45.9797" lon="5.55047">
        <ele>843.2</ele>
        <time>2026-05-11T10:19:45Z</time>
      </trkpt>
      <trkpt lat="45.97968" lon="5.55044">
        <ele>843.2</ele>
        <time>2026-05-11T10:19:46Z</time>
      </trkpt>
      <trkpt lat="45.97965" lon="5.5504">
        <ele>843.4</ele>
        <time>2026-05-11T10:19:47Z</time>
      </trkpt>
      <trkpt lat="45.97963" lon="5.55036">
        <ele>843.4</ele>
        <time>2026-05-11T10:19:48Z</time>
      </trkpt>
      <trkpt lat="45.9796" lon="5.55032">
        <ele>843.8</ele>
        <time>2026-05-11T10:19:49Z</time>
      </trkpt>
      <trkpt lat="45.97958" lon="5.55028">
        <ele>843.8</ele>
        <time>2026-05-11T10:19:50Z</time>
      </trkpt>
      <trkpt lat="45.97956" lon="5.55024">
        <ele>844</ele>
        <time>2026-05-11T10:19:51Z</time>
      </trkpt>
      <trkpt lat="45.97953" lon="5.55021">
        <ele>844</ele>
        <time>2026-05-11T10:19:52Z</time>
      </trkpt>
      <trkpt lat="45.9795" lon="5.55017">
        <ele>844</ele>
        <time>2026-05-11T10:19:53Z</time>
      </trkpt>
      <trkpt lat="45.97948" lon="5.55014">
        <ele>844.2</ele>
        <time>2026-05-11T10:19:54Z</time>
      </trkpt>
      <trkpt lat="45.97945" lon="5.55012">
        <ele>844.2</ele>
        <time>2026-05-11T10:19:55Z</time>
      </trkpt>
      <trkpt lat="45.97942" lon="5.55009">
        <ele>844.2</ele>
        <time>2026-05-11T10:19:56Z</time>
      </trkpt>
      <trkpt lat="45.97939" lon="5.55006">
        <ele>844.2</ele>
        <time>2026-05-11T10:19:57Z</time>
      </trkpt>
      <trkpt lat="45.97936" lon="5.55003">
        <ele>844.2</ele>
        <time>2026-05-11T10:19:58Z</time>
      </trkpt>
      <trkpt lat="45.97932" lon="5.55">
        <ele>844.2</ele>
        <time>2026-05-11T10:19:59Z</time>
      </trkpt>
      <trkpt lat="45.97929" lon="5.54996">
        <ele>844.2</ele>
        <time>2026-05-11T10:20:00Z</time>
      </trkpt>
      <trkpt lat="45.97926" lon="5.54994">
        <ele>844.2</ele>
        <time>2026-05-11T10:20:01Z</time>
      </trkpt>
      <trkpt lat="45.97923" lon="5.54991">
        <ele>844.2</ele>
        <time>2026-05-11T10:20:02Z</time>
      </trkpt>
      <trkpt lat="45.9792" lon="5.54989">
        <ele>844.6</ele>
        <time>2026-05-11T10:20:03Z</time>
      </trkpt>
      <trkpt lat="45.97917" lon="5.54987">
        <ele>844.6</ele>
        <time>2026-05-11T10:20:04Z</time>
      </trkpt>
      <trkpt lat="45.97914" lon="5.54985">
        <ele>844.6</ele>
        <time>2026-05-11T10:20:05Z</time>
      </trkpt>
      <trkpt lat="45.97912" lon="5.54983">
        <ele>845</ele>
        <time>2026-05-11T10:20:06Z</time>
      </trkpt>
      <trkpt lat="45.97909" lon="5.54981">
        <ele>845</ele>
        <time>2026-05-11T10:20:07Z</time>
      </trkpt>
      <trkpt lat="45.97906" lon="5.54978">
        <ele>845.2</ele>
        <time>2026-05-11T10:20:08Z</time>
      </trkpt>
      <trkpt lat="45.97903" lon="5.54976">
        <ele>845.2</ele>
        <time>2026-05-11T10:20:09Z</time>
      </trkpt>
      <trkpt lat="45.97899" lon="5.54974">
        <ele>845.6</ele>
        <time>2026-05-11T10:20:10Z</time>
      </trkpt>
      <trkpt lat="45.97896" lon="5.54972">
        <ele>845.6</ele>
        <time>2026-05-11T10:20:11Z</time>
      </trkpt>
      <trkpt lat="45.97892" lon="5.5497">
        <ele>845.6</ele>
        <time>2026-05-11T10:20:12Z</time>
      </trkpt>
      <trkpt lat="45.97892" lon="5.5497">
        <ele>845.8</ele>
        <time>2026-05-11T10:20:13Z</time>
      </trkpt>
      <trkpt lat="45.97889" lon="5.54968">
        <ele>845.8</ele>
        <time>2026-05-11T10:20:14Z</time>
      </trkpt>
      <trkpt lat="45.97887" lon="5.54965">
        <ele>846</ele>
        <time>2026-05-11T10:20:15Z</time>
      </trkpt>
      <trkpt lat="45.97885" lon="5.54963">
        <ele>846</ele>
        <time>2026-05-11T10:20:16Z</time>
      </trkpt>
      <trkpt lat="45.97883" lon="5.5496">
        <ele>846.4</ele>
        <time>2026-05-11T10:20:17Z</time>
      </trkpt>
      <trkpt lat="45.9788" lon="5.54957">
        <ele>846.4</ele>
        <time>2026-05-11T10:20:18Z</time>
      </trkpt>
      <trkpt lat="45.97877" lon="5.54955">
        <ele>846.6</ele>
        <time>2026-05-11T10:20:19Z</time>
      </trkpt>
      <trkpt lat="45.97875" lon="5.54952">
        <ele>846.6</ele>
        <time>2026-05-11T10:20:20Z</time>
      </trkpt>
      <trkpt lat="45.97872" lon="5.54949">
        <ele>846.6</ele>
        <time>2026-05-11T10:20:21Z</time>
      </trkpt>
      <trkpt lat="45.97869" lon="5.54947">
        <ele>846.6</ele>
        <time>2026-05-11T10:20:22Z</time>
      </trkpt>
      <trkpt lat="45.97866" lon="5.54945">
        <ele>846.8</ele>
        <time>2026-05-11T10:20:23Z</time>
      </trkpt>
      <trkpt lat="45.97863" lon="5.54942">
        <ele>846.8</ele>
        <time>2026-05-11T10:20:24Z</time>
      </trkpt>
      <trkpt lat="45.9786" lon="5.54939">
        <ele>846.8</ele>
        <time>2026-05-11T10:20:25Z</time>
      </trkpt>
      <trkpt lat="45.97856" lon="5.54937">
        <ele>846.8</ele>
        <time>2026-05-11T10:20:26Z</time>
      </trkpt>
      <trkpt lat="45.97853" lon="5.54934">
        <ele>847</ele>
        <time>2026-05-11T10:20:27Z</time>
      </trkpt>
      <trkpt lat="45.9785" lon="5.54931">
        <ele>847</ele>
        <time>2026-05-11T10:20:28Z</time>
      </trkpt>
      <trkpt lat="45.97846" lon="5.54929">
        <ele>847.2</ele>
        <time>2026-05-11T10:20:29Z</time>
      </trkpt>
      <trkpt lat="45.97843" lon="5.54927">
        <ele>847.2</ele>
        <time>2026-05-11T10:20:30Z</time>
      </trkpt>
      <trkpt lat="45.9784" lon="5.54925">
        <ele>847.2</ele>
        <time>2026-05-11T10:20:31Z</time>
      </trkpt>
      <trkpt lat="45.97836" lon="5.54922">
        <ele>847.6</ele>
        <time>2026-05-11T10:20:32Z</time>
      </trkpt>
      <trkpt lat="45.97833" lon="5.5492">
        <ele>847.6</ele>
        <time>2026-05-11T10:20:33Z</time>
      </trkpt>
      <trkpt lat="45.97829" lon="5.54918">
        <ele>847.6</ele>
        <time>2026-05-11T10:20:34Z</time>
      </trkpt>
      <trkpt lat="45.97826" lon="5.54916">
        <ele>847.6</ele>
        <time>2026-05-11T10:20:35Z</time>
      </trkpt>
      <trkpt lat="45.97822" lon="5.54914">
        <ele>847.6</ele>
        <time>2026-05-11T10:20:36Z</time>
      </trkpt>
      <trkpt lat="45.97818" lon="5.54913">
        <ele>847.6</ele>
        <time>2026-05-11T10:20:37Z</time>
      </trkpt>
      <trkpt lat="45.97814" lon="5.54911">
        <ele>847.6</ele>
        <time>2026-05-11T10:20:38Z</time>
      </trkpt>
      <trkpt lat="45.97811" lon="5.54909">
        <ele>847.6</ele>
        <time>2026-05-11T10:20:39Z</time>
      </trkpt>
      <trkpt lat="45.97807" lon="5.54906">
        <ele>847.6</ele>
        <time>2026-05-11T10:20:40Z</time>
      </trkpt>
      <trkpt lat="45.97804" lon="5.54903">
        <ele>847.6</ele>
        <time>2026-05-11T10:20:41Z</time>
      </trkpt>
      <trkpt lat="45.978" lon="5.549">
        <ele>847.8</ele>
        <time>2026-05-11T10:20:42Z</time>
      </trkpt>
      <trkpt lat="45.97797" lon="5.54897">
        <ele>847.8</ele>
        <time>2026-05-11T10:20:43Z</time>
      </trkpt>
      <trkpt lat="45.97793" lon="5.54894">
        <ele>847.8</ele>
        <time>2026-05-11T10:20:44Z</time>
      </trkpt>
      <trkpt lat="45.9779" lon="5.54891">
        <ele>847.6</ele>
        <time>2026-05-11T10:20:45Z</time>
      </trkpt>
      <trkpt lat="45.97787" lon="5.54888">
        <ele>847.6</ele>
        <time>2026-05-11T10:20:46Z</time>
      </trkpt>
      <trkpt lat="45.97784" lon="5.54885">
        <ele>847.6</ele>
        <time>2026-05-11T10:20:47Z</time>
      </trkpt>
      <trkpt lat="45.97781" lon="5.54882">
        <ele>847.6</ele>
        <time>2026-05-11T10:20:48Z</time>
      </trkpt>
      <trkpt lat="45.97777" lon="5.54879">
        <ele>847.6</ele>
        <time>2026-05-11T10:20:49Z</time>
      </trkpt>
      <trkpt lat="45.97774" lon="5.54875">
        <ele>847.6</ele>
        <time>2026-05-11T10:20:50Z</time>
      </trkpt>
      <trkpt lat="45.97771" lon="5.54872">
        <ele>847.6</ele>
        <time>2026-05-11T10:20:51Z</time>
      </trkpt>
      <trkpt lat="45.97767" lon="5.54868">
        <ele>847.6</ele>
        <time>2026-05-11T10:20:52Z</time>
      </trkpt>
      <trkpt lat="45.97764" lon="5.54865">
        <ele>847.4</ele>
        <time>2026-05-11T10:20:53Z</time>
      </trkpt>
      <trkpt lat="45.97761" lon="5.54862">
        <ele>847.4</ele>
        <time>2026-05-11T10:20:54Z</time>
      </trkpt>
      <trkpt lat="45.97758" lon="5.54858">
        <ele>847.4</ele>
        <time>2026-05-11T10:20:55Z</time>
      </trkpt>
      <trkpt lat="45.97752" lon="5.54851">
        <ele>847.4</ele>
        <time>2026-05-11T10:20:56Z</time>
      </trkpt>
      <trkpt lat="45.97749" lon="5.54847">
        <ele>847.4</ele>
        <time>2026-05-11T10:20:57Z</time>
      </trkpt>
      <trkpt lat="45.97747" lon="5.54843">
        <ele>847.4</ele>
        <time>2026-05-11T10:20:58Z</time>
      </trkpt>
      <trkpt lat="45.97743" lon="5.5484">
        <ele>847.4</ele>
        <time>2026-05-11T10:20:59Z</time>
      </trkpt>
      <trkpt lat="45.9774" lon="5.54835">
        <ele>847.4</ele>
        <time>2026-05-11T10:21:00Z</time>
      </trkpt>
      <trkpt lat="45.97737" lon="5.54831">
        <ele>847.4</ele>
        <time>2026-05-11T10:21:01Z</time>
      </trkpt>
      <trkpt lat="45.97734" lon="5.54828">
        <ele>847.4</ele>
        <time>2026-05-11T10:21:02Z</time>
      </trkpt>
      <trkpt lat="45.97732" lon="5.54824">
        <ele>847.4</ele>
        <time>2026-05-11T10:21:03Z</time>
      </trkpt>
      <trkpt lat="45.97729" lon="5.5482">
        <ele>847.4</ele>
        <time>2026-05-11T10:21:04Z</time>
      </trkpt>
      <trkpt lat="45.97726" lon="5.54817">
        <ele>847.4</ele>
        <time>2026-05-11T10:21:05Z</time>
      </trkpt>
      <trkpt lat="45.97723" lon="5.54813">
        <ele>847.4</ele>
        <time>2026-05-11T10:21:06Z</time>
      </trkpt>
      <trkpt lat="45.9772" lon="5.54809">
        <ele>847.6</ele>
        <time>2026-05-11T10:21:07Z</time>
      </trkpt>
      <trkpt lat="45.97718" lon="5.54806">
        <ele>847.8</ele>
        <time>2026-05-11T10:21:08Z</time>
      </trkpt>
      <trkpt lat="45.97716" lon="5.54803">
        <ele>848.2</ele>
        <time>2026-05-11T10:21:09Z</time>
      </trkpt>
      <trkpt lat="45.97713" lon="5.548">
        <ele>848.4</ele>
        <time>2026-05-11T10:21:10Z</time>
      </trkpt>
      <trkpt lat="45.97711" lon="5.54798">
        <ele>848.6</ele>
        <time>2026-05-11T10:21:11Z</time>
      </trkpt>
      <trkpt lat="45.97709" lon="5.54795">
        <ele>848.6</ele>
        <time>2026-05-11T10:21:12Z</time>
      </trkpt>
      <trkpt lat="45.97707" lon="5.54793">
        <ele>849.2</ele>
        <time>2026-05-11T10:21:13Z</time>
      </trkpt>
      <trkpt lat="45.97706" lon="5.54791">
        <ele>849.4</ele>
        <time>2026-05-11T10:21:14Z</time>
      </trkpt>
      <trkpt lat="45.97704" lon="5.54788">
        <ele>849.8</ele>
        <time>2026-05-11T10:21:15Z</time>
      </trkpt>
      <trkpt lat="45.97703" lon="5.54786">
        <ele>849.8</ele>
        <time>2026-05-11T10:21:16Z</time>
      </trkpt>
      <trkpt lat="45.97701" lon="5.54784">
        <ele>850.2</ele>
        <time>2026-05-11T10:21:17Z</time>
      </trkpt>
      <trkpt lat="45.97699" lon="5.54782">
        <ele>850.4</ele>
        <time>2026-05-11T10:21:18Z</time>
      </trkpt>
      <trkpt lat="45.97698" lon="5.5478">
        <ele>850.4</ele>
        <time>2026-05-11T10:21:19Z</time>
      </trkpt>
      <trkpt lat="45.97697" lon="5.54778">
        <ele>850.8</ele>
        <time>2026-05-11T10:21:20Z</time>
      </trkpt>
      <trkpt lat="45.97695" lon="5.54775">
        <ele>851</ele>
        <time>2026-05-11T10:21:21Z</time>
      </trkpt>
      <trkpt lat="45.97694" lon="5.54772">
        <ele>851.4</ele>
        <time>2026-05-11T10:21:22Z</time>
      </trkpt>
      <trkpt lat="45.97692" lon="5.5477">
        <ele>851.4</ele>
        <time>2026-05-11T10:21:23Z</time>
      </trkpt>
      <trkpt lat="45.97691" lon="5.54768">
        <ele>851.8</ele>
        <time>2026-05-11T10:21:24Z</time>
      </trkpt>
      <trkpt lat="45.9769" lon="5.54766">
        <ele>852</ele>
        <time>2026-05-11T10:21:25Z</time>
      </trkpt>
      <trkpt lat="45.97688" lon="5.54764">
        <ele>852</ele>
        <time>2026-05-11T10:21:26Z</time>
      </trkpt>
      <trkpt lat="45.97687" lon="5.54761">
        <ele>852</ele>
        <time>2026-05-11T10:21:27Z</time>
      </trkpt>
      <trkpt lat="45.97685" lon="5.54758">
        <ele>852</ele>
        <time>2026-05-11T10:21:28Z</time>
      </trkpt>
      <trkpt lat="45.97684" lon="5.54756">
        <ele>852.4</ele>
        <time>2026-05-11T10:21:29Z</time>
      </trkpt>
      <trkpt lat="45.97683" lon="5.54753">
        <ele>852.4</ele>
        <time>2026-05-11T10:21:30Z</time>
      </trkpt>
      <trkpt lat="45.97681" lon="5.54751">
        <ele>852.6</ele>
        <time>2026-05-11T10:21:31Z</time>
      </trkpt>
      <trkpt lat="45.9768" lon="5.54749">
        <ele>852.6</ele>
        <time>2026-05-11T10:21:32Z</time>
      </trkpt>
      <trkpt lat="45.97678" lon="5.54746">
        <ele>852.8</ele>
        <time>2026-05-11T10:21:33Z</time>
      </trkpt>
      <trkpt lat="45.97677" lon="5.54743">
        <ele>852.8</ele>
        <time>2026-05-11T10:21:34Z</time>
      </trkpt>
      <trkpt lat="45.97675" lon="5.54741">
        <ele>852.8</ele>
        <time>2026-05-11T10:21:35Z</time>
      </trkpt>
      <trkpt lat="45.97674" lon="5.54738">
        <ele>852.8</ele>
        <time>2026-05-11T10:21:36Z</time>
      </trkpt>
      <trkpt lat="45.97673" lon="5.54736">
        <ele>852.8</ele>
        <time>2026-05-11T10:21:37Z</time>
      </trkpt>
      <trkpt lat="45.97672" lon="5.54733">
        <ele>852.8</ele>
        <time>2026-05-11T10:21:38Z</time>
      </trkpt>
      <trkpt lat="45.97671" lon="5.54731">
        <ele>852.8</ele>
        <time>2026-05-11T10:21:39Z</time>
      </trkpt>
      <trkpt lat="45.97669" lon="5.54729">
        <ele>852.8</ele>
        <time>2026-05-11T10:21:40Z</time>
      </trkpt>
      <trkpt lat="45.97668" lon="5.54727">
        <ele>852.8</ele>
        <time>2026-05-11T10:21:41Z</time>
      </trkpt>
      <trkpt lat="45.97667" lon="5.54725">
        <ele>852.8</ele>
        <time>2026-05-11T10:21:42Z</time>
      </trkpt>
      <trkpt lat="45.97666" lon="5.54723">
        <ele>852.8</ele>
        <time>2026-05-11T10:21:43Z</time>
      </trkpt>
      <trkpt lat="45.97665" lon="5.54722">
        <ele>852.8</ele>
        <time>2026-05-11T10:21:44Z</time>
      </trkpt>
      <trkpt lat="45.97664" lon="5.5472">
        <ele>852.8</ele>
        <time>2026-05-11T10:21:45Z</time>
      </trkpt>
      <trkpt lat="45.97663" lon="5.54717">
        <ele>852.8</ele>
        <time>2026-05-11T10:21:46Z</time>
      </trkpt>
      <trkpt lat="45.97663" lon="5.54715">
        <ele>852.8</ele>
        <time>2026-05-11T10:21:47Z</time>
      </trkpt>
      <trkpt lat="45.97663" lon="5.54713">
        <ele>853</ele>
        <time>2026-05-11T10:21:48Z</time>
      </trkpt>
      <trkpt lat="45.97664" lon="5.54713">
        <ele>853</ele>
        <time>2026-05-11T10:21:49Z</time>
      </trkpt>
      <trkpt lat="45.97664" lon="5.54713">
        <ele>853</ele>
        <time>2026-05-11T10:21:50Z</time>
      </trkpt>
      <trkpt lat="45.97664" lon="5.54713">
        <ele>853</ele>
        <time>2026-05-11T10:21:51Z</time>
      </trkpt>
      <trkpt lat="45.97665" lon="5.54714">
        <ele>853</ele>
        <time>2026-05-11T10:21:52Z</time>
      </trkpt>
      <trkpt lat="45.97665" lon="5.54715">
        <ele>853</ele>
        <time>2026-05-11T10:21:53Z</time>
      </trkpt>
      <trkpt lat="45.97667" lon="5.54716">
        <ele>853</ele>
        <time>2026-05-11T10:22:00Z</time>
      </trkpt>
      <trkpt lat="45.97667" lon="5.54716">
        <ele>853</ele>
        <time>2026-05-11T10:22:01Z</time>
      </trkpt>
      <trkpt lat="45.97667" lon="5.54716">
        <ele>853</ele>
        <time>2026-05-11T10:22:02Z</time>
      </trkpt>
      <trkpt lat="45.97669" lon="5.54717">
        <ele>852</ele>
        <time>2026-05-11T10:25:33Z</time>
      </trkpt>
      <trkpt lat="45.97669" lon="5.54717">
        <ele>852</ele>
        <time>2026-05-11T10:25:34Z</time>
      </trkpt>
      <trkpt lat="45.97669" lon="5.54717">
        <ele>852</ele>
        <time>2026-05-11T10:25:35Z</time>
      </trkpt>
      <trkpt lat="45.97662" lon="5.54713">
        <ele>851.4</ele>
        <time>2026-05-11T10:25:38Z</time>
      </trkpt>
      <trkpt lat="45.9766" lon="5.5471">
        <ele>851.4</ele>
        <time>2026-05-11T10:25:39Z</time>
      </trkpt>
      <trkpt lat="45.97659" lon="5.54707">
        <ele>851.4</ele>
        <time>2026-05-11T10:25:40Z</time>
      </trkpt>
      <trkpt lat="45.97658" lon="5.54704">
        <ele>851.2</ele>
        <time>2026-05-11T10:25:41Z</time>
      </trkpt>
      <trkpt lat="45.97656" lon="5.54701">
        <ele>851.2</ele>
        <time>2026-05-11T10:25:42Z</time>
      </trkpt>
      <trkpt lat="45.97655" lon="5.54698">
        <ele>851.2</ele>
        <time>2026-05-11T10:25:43Z</time>
      </trkpt>
      <trkpt lat="45.97653" lon="5.54694">
        <ele>851.2</ele>
        <time>2026-05-11T10:25:44Z</time>
      </trkpt>
      <trkpt lat="45.9765" lon="5.54691">
        <ele>851.2</ele>
        <time>2026-05-11T10:25:45Z</time>
      </trkpt>
      <trkpt lat="45.97648" lon="5.54687">
        <ele>851.2</ele>
        <time>2026-05-11T10:25:46Z</time>
      </trkpt>
      <trkpt lat="45.97646" lon="5.54683">
        <ele>851.2</ele>
        <time>2026-05-11T10:25:47Z</time>
      </trkpt>
      <trkpt lat="45.97645" lon="5.54679">
        <ele>851.2</ele>
        <time>2026-05-11T10:25:48Z</time>
      </trkpt>
      <trkpt lat="45.97643" lon="5.54675">
        <ele>851.2</ele>
        <time>2026-05-11T10:25:49Z</time>
      </trkpt>
      <trkpt lat="45.97641" lon="5.5467">
        <ele>850.8</ele>
        <time>2026-05-11T10:25:50Z</time>
      </trkpt>
      <trkpt lat="45.9764" lon="5.54666">
        <ele>850.8</ele>
        <time>2026-05-11T10:25:51Z</time>
      </trkpt>
      <trkpt lat="45.9764" lon="5.54661">
        <ele>850.6</ele>
        <time>2026-05-11T10:25:52Z</time>
      </trkpt>
      <trkpt lat="45.97639" lon="5.54656">
        <ele>850.6</ele>
        <time>2026-05-11T10:25:53Z</time>
      </trkpt>
      <trkpt lat="45.97639" lon="5.54652">
        <ele>850.6</ele>
        <time>2026-05-11T10:25:54Z</time>
      </trkpt>
      <trkpt lat="45.9764" lon="5.54647">
        <ele>850.6</ele>
        <time>2026-05-11T10:25:55Z</time>
      </trkpt>
      <trkpt lat="45.9764" lon="5.54643">
        <ele>851</ele>
        <time>2026-05-11T10:25:56Z</time>
      </trkpt>
      <trkpt lat="45.97641" lon="5.54639">
        <ele>851</ele>
        <time>2026-05-11T10:25:57Z</time>
      </trkpt>
      <trkpt lat="45.97642" lon="5.54636">
        <ele>851</ele>
        <time>2026-05-11T10:25:58Z</time>
      </trkpt>
      <trkpt lat="45.97643" lon="5.54632">
        <ele>851</ele>
        <time>2026-05-11T10:25:59Z</time>
      </trkpt>
      <trkpt lat="45.97645" lon="5.54628">
        <ele>851.2</ele>
        <time>2026-05-11T10:26:00Z</time>
      </trkpt>
      <trkpt lat="45.97646" lon="5.54625">
        <ele>851.2</ele>
        <time>2026-05-11T10:26:01Z</time>
      </trkpt>
      <trkpt lat="45.97648" lon="5.54622">
        <ele>851.2</ele>
        <time>2026-05-11T10:26:02Z</time>
      </trkpt>
      <trkpt lat="45.9765" lon="5.54618">
        <ele>851.2</ele>
        <time>2026-05-11T10:26:03Z</time>
      </trkpt>
      <trkpt lat="45.97651" lon="5.54614">
        <ele>851.4</ele>
        <time>2026-05-11T10:26:04Z</time>
      </trkpt>
      <trkpt lat="45.97652" lon="5.54612">
        <ele>851.4</ele>
        <time>2026-05-11T10:26:05Z</time>
      </trkpt>
      <trkpt lat="45.97653" lon="5.54609">
        <ele>851.4</ele>
        <time>2026-05-11T10:26:06Z</time>
      </trkpt>
      <trkpt lat="45.97655" lon="5.54606">
        <ele>851.4</ele>
        <time>2026-05-11T10:26:07Z</time>
      </trkpt>
      <trkpt lat="45.97659" lon="5.54602">
        <ele>851.6</ele>
        <time>2026-05-11T10:26:08Z</time>
      </trkpt>
      <trkpt lat="45.97661" lon="5.54601">
        <ele>851.6</ele>
        <time>2026-05-11T10:26:09Z</time>
      </trkpt>
      <trkpt lat="45.97664" lon="5.54598">
        <ele>852</ele>
        <time>2026-05-11T10:26:10Z</time>
      </trkpt>
      <trkpt lat="45.97666" lon="5.54595">
        <ele>852</ele>
        <time>2026-05-11T10:26:11Z</time>
      </trkpt>
      <trkpt lat="45.97668" lon="5.54592">
        <ele>852</ele>
        <time>2026-05-11T10:26:12Z</time>
      </trkpt>
      <trkpt lat="45.9767" lon="5.54589">
        <ele>852.2</ele>
        <time>2026-05-11T10:26:13Z</time>
      </trkpt>
      <trkpt lat="45.97673" lon="5.54586">
        <ele>852.2</ele>
        <time>2026-05-11T10:26:14Z</time>
      </trkpt>
      <trkpt lat="45.97675" lon="5.54583">
        <ele>852.2</ele>
        <time>2026-05-11T10:26:15Z</time>
      </trkpt>
      <trkpt lat="45.97678" lon="5.5458">
        <ele>852.2</ele>
        <time>2026-05-11T10:26:16Z</time>
      </trkpt>
      <trkpt lat="45.9768" lon="5.54577">
        <ele>852.2</ele>
        <time>2026-05-11T10:26:17Z</time>
      </trkpt>
      <trkpt lat="45.97682" lon="5.54574">
        <ele>852.2</ele>
        <time>2026-05-11T10:26:18Z</time>
      </trkpt>
      <trkpt lat="45.97684" lon="5.54571">
        <ele>852.8</ele>
        <time>2026-05-11T10:26:19Z</time>
      </trkpt>
      <trkpt lat="45.97686" lon="5.54568">
        <ele>853.2</ele>
        <time>2026-05-11T10:26:20Z</time>
      </trkpt>
      <trkpt lat="45.97688" lon="5.54566">
        <ele>853.2</ele>
        <time>2026-05-11T10:26:21Z</time>
      </trkpt>
      <trkpt lat="45.9769" lon="5.54563">
        <ele>853.4</ele>
        <time>2026-05-11T10:26:22Z</time>
      </trkpt>
      <trkpt lat="45.97692" lon="5.5456">
        <ele>853.4</ele>
        <time>2026-05-11T10:26:23Z</time>
      </trkpt>
      <trkpt lat="45.97694" lon="5.54557">
        <ele>853.6</ele>
        <time>2026-05-11T10:26:24Z</time>
      </trkpt>
      <trkpt lat="45.97696" lon="5.54554">
        <ele>853.6</ele>
        <time>2026-05-11T10:26:25Z</time>
      </trkpt>
      <trkpt lat="45.97698" lon="5.54551">
        <ele>853.8</ele>
        <time>2026-05-11T10:26:26Z</time>
      </trkpt>
      <trkpt lat="45.977" lon="5.54549">
        <ele>853.8</ele>
        <time>2026-05-11T10:26:27Z</time>
      </trkpt>
      <trkpt lat="45.97702" lon="5.54546">
        <ele>853.8</ele>
        <time>2026-05-11T10:26:28Z</time>
      </trkpt>
      <trkpt lat="45.97705" lon="5.54543">
        <ele>854</ele>
        <time>2026-05-11T10:26:29Z</time>
      </trkpt>
      <trkpt lat="45.97707" lon="5.54541">
        <ele>854</ele>
        <time>2026-05-11T10:26:30Z</time>
      </trkpt>
      <trkpt lat="45.97709" lon="5.54538">
        <ele>854.2</ele>
        <time>2026-05-11T10:26:31Z</time>
      </trkpt>
      <trkpt lat="45.97711" lon="5.54536">
        <ele>854.2</ele>
        <time>2026-05-11T10:26:32Z</time>
      </trkpt>
      <trkpt lat="45.97713" lon="5.54533">
        <ele>854.2</ele>
        <time>2026-05-11T10:26:33Z</time>
      </trkpt>
      <trkpt lat="45.97715" lon="5.54529">
        <ele>854.2</ele>
        <time>2026-05-11T10:26:34Z</time>
      </trkpt>
      <trkpt lat="45.97717" lon="5.54527">
        <ele>854.2</ele>
        <time>2026-05-11T10:26:35Z</time>
      </trkpt>
      <trkpt lat="45.97719" lon="5.54524">
        <ele>854.2</ele>
        <time>2026-05-11T10:26:36Z</time>
      </trkpt>
      <trkpt lat="45.97721" lon="5.54521">
        <ele>854.6</ele>
        <time>2026-05-11T10:26:37Z</time>
      </trkpt>
      <trkpt lat="45.97723" lon="5.54518">
        <ele>854.6</ele>
        <time>2026-05-11T10:26:38Z</time>
      </trkpt>
      <trkpt lat="45.97725" lon="5.54516">
        <ele>854.6</ele>
        <time>2026-05-11T10:26:39Z</time>
      </trkpt>
      <trkpt lat="45.97727" lon="5.54513">
        <ele>855</ele>
        <time>2026-05-11T10:26:40Z</time>
      </trkpt>
      <trkpt lat="45.97729" lon="5.5451">
        <ele>855</ele>
        <time>2026-05-11T10:26:41Z</time>
      </trkpt>
      <trkpt lat="45.97731" lon="5.54507">
        <ele>855.2</ele>
        <time>2026-05-11T10:26:42Z</time>
      </trkpt>
      <trkpt lat="45.97733" lon="5.54504">
        <ele>855.2</ele>
        <time>2026-05-11T10:26:43Z</time>
      </trkpt>
      <trkpt lat="45.97735" lon="5.54502">
        <ele>855.2</ele>
        <time>2026-05-11T10:26:44Z</time>
      </trkpt>
      <trkpt lat="45.97737" lon="5.54499">
        <ele>855.4</ele>
        <time>2026-05-11T10:26:45Z</time>
      </trkpt>
      <trkpt lat="45.97739" lon="5.54496">
        <ele>855.4</ele>
        <time>2026-05-11T10:26:46Z</time>
      </trkpt>
      <trkpt lat="45.97741" lon="5.54494">
        <ele>855.4</ele>
        <time>2026-05-11T10:26:47Z</time>
      </trkpt>
      <trkpt lat="45.97743" lon="5.54491">
        <ele>855.6</ele>
        <time>2026-05-11T10:26:48Z</time>
      </trkpt>
      <trkpt lat="45.97745" lon="5.54488">
        <ele>855.6</ele>
        <time>2026-05-11T10:26:49Z</time>
      </trkpt>
      <trkpt lat="45.97747" lon="5.54485">
        <ele>855.6</ele>
        <time>2026-05-11T10:26:50Z</time>
      </trkpt>
      <trkpt lat="45.97749" lon="5.54482">
        <ele>855.6</ele>
        <time>2026-05-11T10:26:51Z</time>
      </trkpt>
      <trkpt lat="45.97751" lon="5.54479">
        <ele>855.8</ele>
        <time>2026-05-11T10:26:52Z</time>
      </trkpt>
      <trkpt lat="45.97753" lon="5.54476">
        <ele>855.8</ele>
        <time>2026-05-11T10:26:53Z</time>
      </trkpt>
      <trkpt lat="45.97755" lon="5.54473">
        <ele>855.8</ele>
        <time>2026-05-11T10:26:54Z</time>
      </trkpt>
      <trkpt lat="45.97757" lon="5.5447">
        <ele>856</ele>
        <time>2026-05-11T10:26:55Z</time>
      </trkpt>
      <trkpt lat="45.97759" lon="5.54468">
        <ele>856</ele>
        <time>2026-05-11T10:26:56Z</time>
      </trkpt>
      <trkpt lat="45.97761" lon="5.54465">
        <ele>856</ele>
        <time>2026-05-11T10:26:57Z</time>
      </trkpt>
      <trkpt lat="45.97763" lon="5.54463">
        <ele>856.4</ele>
        <time>2026-05-11T10:26:58Z</time>
      </trkpt>
      <trkpt lat="45.97766" lon="5.5446">
        <ele>856.4</ele>
        <time>2026-05-11T10:26:59Z</time>
      </trkpt>
      <trkpt lat="45.97768" lon="5.54457">
        <ele>856.4</ele>
        <time>2026-05-11T10:27:00Z</time>
      </trkpt>
      <trkpt lat="45.9777" lon="5.54454">
        <ele>856.4</ele>
        <time>2026-05-11T10:27:01Z</time>
      </trkpt>
      <trkpt lat="45.97772" lon="5.54451">
        <ele>855.6</ele>
        <time>2026-05-11T10:27:02Z</time>
      </trkpt>
      <trkpt lat="45.97774" lon="5.54449">
        <ele>856</ele>
        <time>2026-05-11T10:27:03Z</time>
      </trkpt>
      <trkpt lat="45.97776" lon="5.54446">
        <ele>856</ele>
        <time>2026-05-11T10:27:04Z</time>
      </trkpt>
      <trkpt lat="45.97778" lon="5.54443">
        <ele>856.4</ele>
        <time>2026-05-11T10:27:05Z</time>
      </trkpt>
      <trkpt lat="45.9778" lon="5.5444">
        <ele>856.6</ele>
        <time>2026-05-11T10:27:06Z</time>
      </trkpt>
      <trkpt lat="45.97782" lon="5.54438">
        <ele>856.6</ele>
        <time>2026-05-11T10:27:07Z</time>
      </trkpt>
      <trkpt lat="45.97784" lon="5.54435">
        <ele>857</ele>
        <time>2026-05-11T10:27:08Z</time>
      </trkpt>
      <trkpt lat="45.97787" lon="5.54433">
        <ele>857</ele>
        <time>2026-05-11T10:27:09Z</time>
      </trkpt>
      <trkpt lat="45.97788" lon="5.5443">
        <ele>857.2</ele>
        <time>2026-05-11T10:27:10Z</time>
      </trkpt>
      <trkpt lat="45.9779" lon="5.54428">
        <ele>857.4</ele>
        <time>2026-05-11T10:27:11Z</time>
      </trkpt>
      <trkpt lat="45.97791" lon="5.54427">
        <ele>857.4</ele>
        <time>2026-05-11T10:27:12Z</time>
      </trkpt>
      <trkpt lat="45.97792" lon="5.54425">
        <ele>857.8</ele>
        <time>2026-05-11T10:27:13Z</time>
      </trkpt>
      <trkpt lat="45.97793" lon="5.54424">
        <ele>857.8</ele>
        <time>2026-05-11T10:27:14Z</time>
      </trkpt>
      <trkpt lat="45.97794" lon="5.54422">
        <ele>858</ele>
        <time>2026-05-11T10:27:15Z</time>
      </trkpt>
      <trkpt lat="45.97795" lon="5.54419">
        <ele>858</ele>
        <time>2026-05-11T10:27:16Z</time>
      </trkpt>
      <trkpt lat="45.97795" lon="5.54417">
        <ele>858.2</ele>
        <time>2026-05-11T10:27:17Z</time>
      </trkpt>
      <trkpt lat="45.97797" lon="5.54414">
        <ele>858.2</ele>
        <time>2026-05-11T10:27:18Z</time>
      </trkpt>
      <trkpt lat="45.97798" lon="5.54412">
        <ele>858</ele>
        <time>2026-05-11T10:27:19Z</time>
      </trkpt>
      <trkpt lat="45.978" lon="5.5441">
        <ele>858</ele>
        <time>2026-05-11T10:27:20Z</time>
      </trkpt>
      <trkpt lat="45.97802" lon="5.54408">
        <ele>858</ele>
        <time>2026-05-11T10:27:21Z</time>
      </trkpt>
      <trkpt lat="45.97804" lon="5.54406">
        <ele>858</ele>
        <time>2026-05-11T10:27:22Z</time>
      </trkpt>
      <trkpt lat="45.97806" lon="5.54404">
        <ele>858</ele>
        <time>2026-05-11T10:27:23Z</time>
      </trkpt>
      <trkpt lat="45.97809" lon="5.54402">
        <ele>858</ele>
        <time>2026-05-11T10:27:24Z</time>
      </trkpt>
      <trkpt lat="45.97811" lon="5.544">
        <ele>858.4</ele>
        <time>2026-05-11T10:27:25Z</time>
      </trkpt>
      <trkpt lat="45.97813" lon="5.54398">
        <ele>858.6</ele>
        <time>2026-05-11T10:27:26Z</time>
      </trkpt>
      <trkpt lat="45.97815" lon="5.54396">
        <ele>859</ele>
        <time>2026-05-11T10:27:27Z</time>
      </trkpt>
      <trkpt lat="45.97817" lon="5.54394">
        <ele>859</ele>
        <time>2026-05-11T10:27:28Z</time>
      </trkpt>
      <trkpt lat="45.97819" lon="5.54393">
        <ele>859.2</ele>
        <time>2026-05-11T10:27:29Z</time>
      </trkpt>
      <trkpt lat="45.97822" lon="5.54391">
        <ele>859.4</ele>
        <time>2026-05-11T10:27:30Z</time>
      </trkpt>
      <trkpt lat="45.97824" lon="5.5439">
        <ele>859.4</ele>
        <time>2026-05-11T10:27:31Z</time>
      </trkpt>
      <trkpt lat="45.97826" lon="5.54388">
        <ele>859.4</ele>
        <time>2026-05-11T10:27:32Z</time>
      </trkpt>
      <trkpt lat="45.97829" lon="5.54386">
        <ele>859.8</ele>
        <time>2026-05-11T10:27:33Z</time>
      </trkpt>
      <trkpt lat="45.97831" lon="5.54384">
        <ele>859.8</ele>
        <time>2026-05-11T10:27:34Z</time>
      </trkpt>
      <trkpt lat="45.97833" lon="5.54382">
        <ele>860</ele>
        <time>2026-05-11T10:27:35Z</time>
      </trkpt>
      <trkpt lat="45.97835" lon="5.5438">
        <ele>860</ele>
        <time>2026-05-11T10:27:36Z</time>
      </trkpt>
      <trkpt lat="45.97837" lon="5.54378">
        <ele>860</ele>
        <time>2026-05-11T10:27:37Z</time>
      </trkpt>
      <trkpt lat="45.97839" lon="5.54376">
        <ele>860.4</ele>
        <time>2026-05-11T10:27:38Z</time>
      </trkpt>
      <trkpt lat="45.97841" lon="5.54374">
        <ele>860.6</ele>
        <time>2026-05-11T10:27:39Z</time>
      </trkpt>
      <trkpt lat="45.97842" lon="5.54372">
        <ele>861</ele>
        <time>2026-05-11T10:27:40Z</time>
      </trkpt>
      <trkpt lat="45.97844" lon="5.54369">
        <ele>861</ele>
        <time>2026-05-11T10:27:41Z</time>
      </trkpt>
      <trkpt lat="45.97845" lon="5.54367">
        <ele>861.2</ele>
        <time>2026-05-11T10:27:42Z</time>
      </trkpt>
      <trkpt lat="45.97847" lon="5.54365">
        <ele>861.4</ele>
        <time>2026-05-11T10:27:43Z</time>
      </trkpt>
      <trkpt lat="45.97848" lon="5.54363">
        <ele>861.4</ele>
        <time>2026-05-11T10:27:44Z</time>
      </trkpt>
      <trkpt lat="45.97849" lon="5.54361">
        <ele>862</ele>
        <time>2026-05-11T10:27:45Z</time>
      </trkpt>
      <trkpt lat="45.97851" lon="5.54359">
        <ele>862.2</ele>
        <time>2026-05-11T10:27:46Z</time>
      </trkpt>
      <trkpt lat="45.97852" lon="5.54357">
        <ele>862.2</ele>
        <time>2026-05-11T10:27:47Z</time>
      </trkpt>
      <trkpt lat="45.97854" lon="5.54355">
        <ele>862.2</ele>
        <time>2026-05-11T10:27:48Z</time>
      </trkpt>
      <trkpt lat="45.97855" lon="5.54352">
        <ele>862.6</ele>
        <time>2026-05-11T10:27:49Z</time>
      </trkpt>
      <trkpt lat="45.97856" lon="5.54349">
        <ele>862.8</ele>
        <time>2026-05-11T10:27:50Z</time>
      </trkpt>
      <trkpt lat="45.97857" lon="5.54346">
        <ele>863.2</ele>
        <time>2026-05-11T10:27:51Z</time>
      </trkpt>
      <trkpt lat="45.97858" lon="5.54343">
        <ele>863.4</ele>
        <time>2026-05-11T10:27:52Z</time>
      </trkpt>
      <trkpt lat="45.9786" lon="5.54341">
        <ele>863.4</ele>
        <time>2026-05-11T10:27:53Z</time>
      </trkpt>
      <trkpt lat="45.97862" lon="5.54339">
        <ele>863.4</ele>
        <time>2026-05-11T10:27:54Z</time>
      </trkpt>
      <trkpt lat="45.97864" lon="5.54337">
        <ele>863.4</ele>
        <time>2026-05-11T10:27:55Z</time>
      </trkpt>
      <trkpt lat="45.97865" lon="5.54336">
        <ele>863.6</ele>
        <time>2026-05-11T10:27:56Z</time>
      </trkpt>
      <trkpt lat="45.97867" lon="5.54334">
        <ele>863.6</ele>
        <time>2026-05-11T10:27:57Z</time>
      </trkpt>
      <trkpt lat="45.97869" lon="5.54332">
        <ele>864</ele>
        <time>2026-05-11T10:27:58Z</time>
      </trkpt>
      <trkpt lat="45.97871" lon="5.54331">
        <ele>864</ele>
        <time>2026-05-11T10:27:59Z</time>
      </trkpt>
      <trkpt lat="45.97873" lon="5.5433">
        <ele>864</ele>
        <time>2026-05-11T10:28:00Z</time>
      </trkpt>
      <trkpt lat="45.97876" lon="5.54329">
        <ele>864.2</ele>
        <time>2026-05-11T10:28:01Z</time>
      </trkpt>
      <trkpt lat="45.97878" lon="5.54329">
        <ele>864.2</ele>
        <time>2026-05-11T10:28:02Z</time>
      </trkpt>
      <trkpt lat="45.97881" lon="5.5433">
        <ele>864.4</ele>
        <time>2026-05-11T10:28:03Z</time>
      </trkpt>
      <trkpt lat="45.97883" lon="5.5433">
        <ele>864.4</ele>
        <time>2026-05-11T10:28:04Z</time>
      </trkpt>
      <trkpt lat="45.97885" lon="5.54329">
        <ele>864.8</ele>
        <time>2026-05-11T10:28:05Z</time>
      </trkpt>
      <trkpt lat="45.97885" lon="5.54329">
        <ele>864.8</ele>
        <time>2026-05-11T10:28:06Z</time>
      </trkpt>
      <trkpt lat="45.97888" lon="5.54329">
        <ele>865.2</ele>
        <time>2026-05-11T10:28:07Z</time>
      </trkpt>
      <trkpt lat="45.9789" lon="5.54329">
        <ele>865.2</ele>
        <time>2026-05-11T10:28:08Z</time>
      </trkpt>
      <trkpt lat="45.97892" lon="5.54329">
        <ele>865.6</ele>
        <time>2026-05-11T10:28:09Z</time>
      </trkpt>
      <trkpt lat="45.97894" lon="5.54329">
        <ele>866</ele>
        <time>2026-05-11T10:28:10Z</time>
      </trkpt>
      <trkpt lat="45.97896" lon="5.54328">
        <ele>866.2</ele>
        <time>2026-05-11T10:28:11Z</time>
      </trkpt>
      <trkpt lat="45.97899" lon="5.54328">
        <ele>866.2</ele>
        <time>2026-05-11T10:28:12Z</time>
      </trkpt>
      <trkpt lat="45.97901" lon="5.54327">
        <ele>866.2</ele>
        <time>2026-05-11T10:28:13Z</time>
      </trkpt>
      <trkpt lat="45.97904" lon="5.54326">
        <ele>866.4</ele>
        <time>2026-05-11T10:28:14Z</time>
      </trkpt>
      <trkpt lat="45.97906" lon="5.54326">
        <ele>866.4</ele>
        <time>2026-05-11T10:28:15Z</time>
      </trkpt>
      <trkpt lat="45.97908" lon="5.54326">
        <ele>866.6</ele>
        <time>2026-05-11T10:28:16Z</time>
      </trkpt>
      <trkpt lat="45.97911" lon="5.54327">
        <ele>866.6</ele>
        <time>2026-05-11T10:28:17Z</time>
      </trkpt>
      <trkpt lat="45.97913" lon="5.54327">
        <ele>866.6</ele>
        <time>2026-05-11T10:28:18Z</time>
      </trkpt>
      <trkpt lat="45.97916" lon="5.54327">
        <ele>867</ele>
        <time>2026-05-11T10:28:19Z</time>
      </trkpt>
      <trkpt lat="45.97918" lon="5.54326">
        <ele>867</ele>
        <time>2026-05-11T10:28:20Z</time>
      </trkpt>
      <trkpt lat="45.9792" lon="5.54325">
        <ele>867</ele>
        <time>2026-05-11T10:28:21Z</time>
      </trkpt>
      <trkpt lat="45.97922" lon="5.54325">
        <ele>867.4</ele>
        <time>2026-05-11T10:28:22Z</time>
      </trkpt>
      <trkpt lat="45.97925" lon="5.54324">
        <ele>867.6</ele>
        <time>2026-05-11T10:28:23Z</time>
      </trkpt>
      <trkpt lat="45.97927" lon="5.54324">
        <ele>867.6</ele>
        <time>2026-05-11T10:28:24Z</time>
      </trkpt>
      <trkpt lat="45.97929" lon="5.54324">
        <ele>867.8</ele>
        <time>2026-05-11T10:28:25Z</time>
      </trkpt>
      <trkpt lat="45.97932" lon="5.54324">
        <ele>867.8</ele>
        <time>2026-05-11T10:28:26Z</time>
      </trkpt>
      <trkpt lat="45.97934" lon="5.54324">
        <ele>868</ele>
        <time>2026-05-11T10:28:27Z</time>
      </trkpt>
      <trkpt lat="45.97937" lon="5.54325">
        <ele>868</ele>
        <time>2026-05-11T10:28:28Z</time>
      </trkpt>
      <trkpt lat="45.97939" lon="5.54325">
        <ele>868.6</ele>
        <time>2026-05-11T10:28:29Z</time>
      </trkpt>
      <trkpt lat="45.97943" lon="5.54325">
        <ele>868.6</ele>
        <time>2026-05-11T10:28:30Z</time>
      </trkpt>
      <trkpt lat="45.97947" lon="5.54325">
        <ele>868.2</ele>
        <time>2026-05-11T10:28:31Z</time>
      </trkpt>
      <trkpt lat="45.9795" lon="5.54326">
        <ele>868.2</ele>
        <time>2026-05-11T10:28:32Z</time>
      </trkpt>
      <trkpt lat="45.97953" lon="5.54326">
        <ele>867.6</ele>
        <time>2026-05-11T10:28:33Z</time>
      </trkpt>
      <trkpt lat="45.97957" lon="5.54326">
        <ele>867.6</ele>
        <time>2026-05-11T10:28:34Z</time>
      </trkpt>
      <trkpt lat="45.9796" lon="5.54326">
        <ele>867.6</ele>
        <time>2026-05-11T10:28:35Z</time>
      </trkpt>
      <trkpt lat="45.97963" lon="5.54326">
        <ele>867.6</ele>
        <time>2026-05-11T10:28:36Z</time>
      </trkpt>
      <trkpt lat="45.97967" lon="5.54326">
        <ele>867.4</ele>
        <time>2026-05-11T10:28:37Z</time>
      </trkpt>
      <trkpt lat="45.97971" lon="5.54324">
        <ele>867.4</ele>
        <time>2026-05-11T10:28:38Z</time>
      </trkpt>
      <trkpt lat="45.97974" lon="5.54321">
        <ele>867.4</ele>
        <time>2026-05-11T10:28:39Z</time>
      </trkpt>
      <trkpt lat="45.97976" lon="5.54315">
        <ele>867</ele>
        <time>2026-05-11T10:28:40Z</time>
      </trkpt>
      <trkpt lat="45.97977" lon="5.5431">
        <ele>867</ele>
        <time>2026-05-11T10:28:41Z</time>
      </trkpt>
      <trkpt lat="45.97976" lon="5.54303">
        <ele>867</ele>
        <time>2026-05-11T10:28:42Z</time>
      </trkpt>
      <trkpt lat="45.97975" lon="5.54298">
        <ele>867.2</ele>
        <time>2026-05-11T10:28:43Z</time>
      </trkpt>
      <trkpt lat="45.97975" lon="5.54293">
        <ele>867.2</ele>
        <time>2026-05-11T10:28:44Z</time>
      </trkpt>
      <trkpt lat="45.97974" lon="5.54287">
        <ele>867.4</ele>
        <time>2026-05-11T10:28:45Z</time>
      </trkpt>
      <trkpt lat="45.97973" lon="5.54276">
        <ele>867.4</ele>
        <time>2026-05-11T10:28:46Z</time>
      </trkpt>
      <trkpt lat="45.97972" lon="5.54271">
        <ele>867.4</ele>
        <time>2026-05-11T10:28:47Z</time>
      </trkpt>
      <trkpt lat="45.97971" lon="5.54266">
        <ele>867.6</ele>
        <time>2026-05-11T10:28:48Z</time>
      </trkpt>
      <trkpt lat="45.9797" lon="5.54262">
        <ele>867.6</ele>
        <time>2026-05-11T10:28:49Z</time>
      </trkpt>
      <trkpt lat="45.97969" lon="5.54258">
        <ele>868</ele>
        <time>2026-05-11T10:28:50Z</time>
      </trkpt>
      <trkpt lat="45.97969" lon="5.54254">
        <ele>868</ele>
        <time>2026-05-11T10:28:51Z</time>
      </trkpt>
      <trkpt lat="45.97968" lon="5.5425">
        <ele>868</ele>
        <time>2026-05-11T10:28:52Z</time>
      </trkpt>
      <trkpt lat="45.97967" lon="5.54246">
        <ele>868</ele>
        <time>2026-05-11T10:28:53Z</time>
      </trkpt>
      <trkpt lat="45.97966" lon="5.54242">
        <ele>868.4</ele>
        <time>2026-05-11T10:28:54Z</time>
      </trkpt>
      <trkpt lat="45.97965" lon="5.54238">
        <ele>868.4</ele>
        <time>2026-05-11T10:28:55Z</time>
      </trkpt>
      <trkpt lat="45.97965" lon="5.54235">
        <ele>868.4</ele>
        <time>2026-05-11T10:28:56Z</time>
      </trkpt>
      <trkpt lat="45.97964" lon="5.54232">
        <ele>868.8</ele>
        <time>2026-05-11T10:28:57Z</time>
      </trkpt>
      <trkpt lat="45.97963" lon="5.54229">
        <ele>868.8</ele>
        <time>2026-05-11T10:28:58Z</time>
      </trkpt>
      <trkpt lat="45.97961" lon="5.54226">
        <ele>869</ele>
        <time>2026-05-11T10:28:59Z</time>
      </trkpt>
      <trkpt lat="45.9796" lon="5.54223">
        <ele>869</ele>
        <time>2026-05-11T10:29:00Z</time>
      </trkpt>
      <trkpt lat="45.97959" lon="5.5422">
        <ele>869.4</ele>
        <time>2026-05-11T10:29:01Z</time>
      </trkpt>
      <trkpt lat="45.97958" lon="5.54218">
        <ele>869.6</ele>
        <time>2026-05-11T10:29:02Z</time>
      </trkpt>
      <trkpt lat="45.97957" lon="5.54215">
        <ele>869.6</ele>
        <time>2026-05-11T10:29:03Z</time>
      </trkpt>
      <trkpt lat="45.97957" lon="5.54213">
        <ele>870</ele>
        <time>2026-05-11T10:29:04Z</time>
      </trkpt>
      <trkpt lat="45.97956" lon="5.5421">
        <ele>870</ele>
        <time>2026-05-11T10:29:05Z</time>
      </trkpt>
      <trkpt lat="45.97955" lon="5.54208">
        <ele>870.2</ele>
        <time>2026-05-11T10:29:06Z</time>
      </trkpt>
      <trkpt lat="45.97954" lon="5.54205">
        <ele>870.2</ele>
        <time>2026-05-11T10:29:07Z</time>
      </trkpt>
      <trkpt lat="45.97953" lon="5.54203">
        <ele>870.2</ele>
        <time>2026-05-11T10:29:08Z</time>
      </trkpt>
      <trkpt lat="45.97952" lon="5.54201">
        <ele>870.2</ele>
        <time>2026-05-11T10:29:09Z</time>
      </trkpt>
      <trkpt lat="45.97951" lon="5.54199">
        <ele>870.8</ele>
        <time>2026-05-11T10:29:10Z</time>
      </trkpt>
      <trkpt lat="45.97951" lon="5.54197">
        <ele>871</ele>
        <time>2026-05-11T10:29:11Z</time>
      </trkpt>
      <trkpt lat="45.9795" lon="5.54195">
        <ele>871.4</ele>
        <time>2026-05-11T10:29:12Z</time>
      </trkpt>
      <trkpt lat="45.97949" lon="5.54193">
        <ele>871.6</ele>
        <time>2026-05-11T10:29:13Z</time>
      </trkpt>
      <trkpt lat="45.97948" lon="5.54191">
        <ele>871.6</ele>
        <time>2026-05-11T10:29:14Z</time>
      </trkpt>
      <trkpt lat="45.97947" lon="5.54188">
        <ele>871.8</ele>
        <time>2026-05-11T10:29:15Z</time>
      </trkpt>
      <trkpt lat="45.97946" lon="5.54186">
        <ele>871.8</ele>
        <time>2026-05-11T10:29:16Z</time>
      </trkpt>
      <trkpt lat="45.97946" lon="5.54184">
        <ele>872.2</ele>
        <time>2026-05-11T10:29:17Z</time>
      </trkpt>
      <trkpt lat="45.97945" lon="5.54182">
        <ele>872.4</ele>
        <time>2026-05-11T10:29:18Z</time>
      </trkpt>
      <trkpt lat="45.97945" lon="5.54179">
        <ele>872.6</ele>
        <time>2026-05-11T10:29:19Z</time>
      </trkpt>
      <trkpt lat="45.97944" lon="5.54177">
        <ele>873</ele>
        <time>2026-05-11T10:29:20Z</time>
      </trkpt>
      <trkpt lat="45.97944" lon="5.54175">
        <ele>873.4</ele>
        <time>2026-05-11T10:29:21Z</time>
      </trkpt>
      <trkpt lat="45.97945" lon="5.54173">
        <ele>873.6</ele>
        <time>2026-05-11T10:29:22Z</time>
      </trkpt>
      <trkpt lat="45.97946" lon="5.5417">
        <ele>873.6</ele>
        <time>2026-05-11T10:29:23Z</time>
      </trkpt>
      <trkpt lat="45.97947" lon="5.54168">
        <ele>874</ele>
        <time>2026-05-11T10:29:24Z</time>
      </trkpt>
      <trkpt lat="45.97948" lon="5.54166">
        <ele>874.4</ele>
        <time>2026-05-11T10:29:25Z</time>
      </trkpt>
      <trkpt lat="45.97949" lon="5.54164">
        <ele>874.8</ele>
        <time>2026-05-11T10:29:26Z</time>
      </trkpt>
      <trkpt lat="45.97951" lon="5.54162">
        <ele>875</ele>
        <time>2026-05-11T10:29:27Z</time>
      </trkpt>
      <trkpt lat="45.97953" lon="5.5416">
        <ele>875.4</ele>
        <time>2026-05-11T10:29:28Z</time>
      </trkpt>
      <trkpt lat="45.97955" lon="5.54159">
        <ele>875.4</ele>
        <time>2026-05-11T10:29:29Z</time>
      </trkpt>
      <trkpt lat="45.97957" lon="5.54159">
        <ele>875.8</ele>
        <time>2026-05-11T10:29:30Z</time>
      </trkpt>
      <trkpt lat="45.97958" lon="5.54159">
        <ele>875.8</ele>
        <time>2026-05-11T10:29:31Z</time>
      </trkpt>
      <trkpt lat="45.9796" lon="5.54159">
        <ele>876.4</ele>
        <time>2026-05-11T10:29:32Z</time>
      </trkpt>
      <trkpt lat="45.97962" lon="5.54159">
        <ele>876.8</ele>
        <time>2026-05-11T10:29:33Z</time>
      </trkpt>
      <trkpt lat="45.97963" lon="5.54159">
        <ele>877</ele>
        <time>2026-05-11T10:29:34Z</time>
      </trkpt>
      <trkpt lat="45.97964" lon="5.54159">
        <ele>877.2</ele>
        <time>2026-05-11T10:29:35Z</time>
      </trkpt>
      <trkpt lat="45.97966" lon="5.54158">
        <ele>877.6</ele>
        <time>2026-05-11T10:29:36Z</time>
      </trkpt>
      <trkpt lat="45.97968" lon="5.54158">
        <ele>877.8</ele>
        <time>2026-05-11T10:29:37Z</time>
      </trkpt>
      <trkpt lat="45.97969" lon="5.54158">
        <ele>878</ele>
        <time>2026-05-11T10:29:38Z</time>
      </trkpt>
      <trkpt lat="45.97971" lon="5.54157">
        <ele>878</ele>
        <time>2026-05-11T10:29:39Z</time>
      </trkpt>
      <trkpt lat="45.97972" lon="5.54157">
        <ele>878.2</ele>
        <time>2026-05-11T10:29:40Z</time>
      </trkpt>
      <trkpt lat="45.97974" lon="5.54157">
        <ele>878.2</ele>
        <time>2026-05-11T10:29:41Z</time>
      </trkpt>
      <trkpt lat="45.97976" lon="5.54157">
        <ele>878.2</ele>
        <time>2026-05-11T10:29:42Z</time>
      </trkpt>
      <trkpt lat="45.97977" lon="5.54158">
        <ele>878.4</ele>
        <time>2026-05-11T10:29:43Z</time>
      </trkpt>
      <trkpt lat="45.97979" lon="5.54157">
        <ele>878.4</ele>
        <time>2026-05-11T10:29:44Z</time>
      </trkpt>
      <trkpt lat="45.9798" lon="5.54157">
        <ele>878.6</ele>
        <time>2026-05-11T10:29:45Z</time>
      </trkpt>
      <trkpt lat="45.97982" lon="5.54156">
        <ele>878.6</ele>
        <time>2026-05-11T10:29:46Z</time>
      </trkpt>
      <trkpt lat="45.97983" lon="5.54156">
        <ele>879</ele>
        <time>2026-05-11T10:29:47Z</time>
      </trkpt>
      <trkpt lat="45.97985" lon="5.54156">
        <ele>879.4</ele>
        <time>2026-05-11T10:29:48Z</time>
      </trkpt>
      <trkpt lat="45.97986" lon="5.54156">
        <ele>879.4</ele>
        <time>2026-05-11T10:29:49Z</time>
      </trkpt>
      <trkpt lat="45.97988" lon="5.54155">
        <ele>879.6</ele>
        <time>2026-05-11T10:29:50Z</time>
      </trkpt>
      <trkpt lat="45.97989" lon="5.54155">
        <ele>880</ele>
        <time>2026-05-11T10:29:51Z</time>
      </trkpt>
      <trkpt lat="45.9799" lon="5.54154">
        <ele>880.2</ele>
        <time>2026-05-11T10:29:52Z</time>
      </trkpt>
      <trkpt lat="45.97992" lon="5.54154">
        <ele>880.6</ele>
        <time>2026-05-11T10:29:53Z</time>
      </trkpt>
      <trkpt lat="45.97993" lon="5.54154">
        <ele>880.8</ele>
        <time>2026-05-11T10:29:54Z</time>
      </trkpt>
      <trkpt lat="45.97994" lon="5.54153">
        <ele>881</ele>
        <time>2026-05-11T10:29:55Z</time>
      </trkpt>
      <trkpt lat="45.97996" lon="5.54153">
        <ele>881</ele>
        <time>2026-05-11T10:29:56Z</time>
      </trkpt>
      <trkpt lat="45.97997" lon="5.54153">
        <ele>881.4</ele>
        <time>2026-05-11T10:29:57Z</time>
      </trkpt>
      <trkpt lat="45.97999" lon="5.54153">
        <ele>881.6</ele>
        <time>2026-05-11T10:29:58Z</time>
      </trkpt>
      <trkpt lat="45.98001" lon="5.54153">
        <ele>881.6</ele>
        <time>2026-05-11T10:29:59Z</time>
      </trkpt>
      <trkpt lat="45.98002" lon="5.54153">
        <ele>882</ele>
        <time>2026-05-11T10:30:00Z</time>
      </trkpt>
      <trkpt lat="45.98003" lon="5.54153">
        <ele>882</ele>
        <time>2026-05-11T10:30:01Z</time>
      </trkpt>
      <trkpt lat="45.98005" lon="5.54152">
        <ele>882.2</ele>
        <time>2026-05-11T10:30:02Z</time>
      </trkpt>
      <trkpt lat="45.98006" lon="5.54152">
        <ele>882.2</ele>
        <time>2026-05-11T10:30:03Z</time>
      </trkpt>
      <trkpt lat="45.98007" lon="5.54152">
        <ele>882.4</ele>
        <time>2026-05-11T10:30:04Z</time>
      </trkpt>
      <trkpt lat="45.98009" lon="5.54152">
        <ele>882.4</ele>
        <time>2026-05-11T10:30:05Z</time>
      </trkpt>
      <trkpt lat="45.9801" lon="5.54152">
        <ele>882.6</ele>
        <time>2026-05-11T10:30:06Z</time>
      </trkpt>
      <trkpt lat="45.98012" lon="5.54152">
        <ele>882.6</ele>
        <time>2026-05-11T10:30:07Z</time>
      </trkpt>
      <trkpt lat="45.98013" lon="5.54151">
        <ele>883</ele>
        <time>2026-05-11T10:30:08Z</time>
      </trkpt>
      <trkpt lat="45.98014" lon="5.54151">
        <ele>883</ele>
        <time>2026-05-11T10:30:09Z</time>
      </trkpt>
      <trkpt lat="45.98016" lon="5.54151">
        <ele>883.4</ele>
        <time>2026-05-11T10:30:10Z</time>
      </trkpt>
      <trkpt lat="45.98017" lon="5.54151">
        <ele>883.4</ele>
        <time>2026-05-11T10:30:11Z</time>
      </trkpt>
      <trkpt lat="45.98019" lon="5.54151">
        <ele>883.6</ele>
        <time>2026-05-11T10:30:12Z</time>
      </trkpt>
      <trkpt lat="45.9802" lon="5.54151">
        <ele>883.8</ele>
        <time>2026-05-11T10:30:13Z</time>
      </trkpt>
      <trkpt lat="45.98021" lon="5.54151">
        <ele>883.8</ele>
        <time>2026-05-11T10:30:14Z</time>
      </trkpt>
      <trkpt lat="45.98023" lon="5.5415">
        <ele>884.2</ele>
        <time>2026-05-11T10:30:15Z</time>
      </trkpt>
      <trkpt lat="45.98024" lon="5.5415">
        <ele>884.2</ele>
        <time>2026-05-11T10:30:16Z</time>
      </trkpt>
      <trkpt lat="45.98026" lon="5.5415">
        <ele>884.6</ele>
        <time>2026-05-11T10:30:17Z</time>
      </trkpt>
      <trkpt lat="45.98027" lon="5.54149">
        <ele>884.6</ele>
        <time>2026-05-11T10:30:18Z</time>
      </trkpt>
      <trkpt lat="45.98028" lon="5.54148">
        <ele>884.8</ele>
        <time>2026-05-11T10:30:19Z</time>
      </trkpt>
      <trkpt lat="45.98029" lon="5.54147">
        <ele>884.8</ele>
        <time>2026-05-11T10:30:20Z</time>
      </trkpt>
      <trkpt lat="45.9803" lon="5.54146">
        <ele>885.4</ele>
        <time>2026-05-11T10:30:21Z</time>
      </trkpt>
      <trkpt lat="45.98031" lon="5.54145">
        <ele>885.6</ele>
        <time>2026-05-11T10:30:22Z</time>
      </trkpt>
      <trkpt lat="45.98032" lon="5.54143">
        <ele>885.8</ele>
        <time>2026-05-11T10:30:23Z</time>
      </trkpt>
      <trkpt lat="45.98033" lon="5.54141">
        <ele>886</ele>
        <time>2026-05-11T10:30:24Z</time>
      </trkpt>
      <trkpt lat="45.98033" lon="5.5414">
        <ele>886</ele>
        <time>2026-05-11T10:30:25Z</time>
      </trkpt>
      <trkpt lat="45.98033" lon="5.54138">
        <ele>886.4</ele>
        <time>2026-05-11T10:30:26Z</time>
      </trkpt>
      <trkpt lat="45.98033" lon="5.54136">
        <ele>886.6</ele>
        <time>2026-05-11T10:30:27Z</time>
      </trkpt>
      <trkpt lat="45.98032" lon="5.54135">
        <ele>886.6</ele>
        <time>2026-05-11T10:30:28Z</time>
      </trkpt>
      <trkpt lat="45.98031" lon="5.54133">
        <ele>886.6</ele>
        <time>2026-05-11T10:30:29Z</time>
      </trkpt>
      <trkpt lat="45.9803" lon="5.54131">
        <ele>886.8</ele>
        <time>2026-05-11T10:30:30Z</time>
      </trkpt>
      <trkpt lat="45.98029" lon="5.5413">
        <ele>886.8</ele>
        <time>2026-05-11T10:30:31Z</time>
      </trkpt>
      <trkpt lat="45.98028" lon="5.54128">
        <ele>887</ele>
        <time>2026-05-11T10:30:32Z</time>
      </trkpt>
      <trkpt lat="45.98027" lon="5.54127">
        <ele>887</ele>
        <time>2026-05-11T10:30:33Z</time>
      </trkpt>
      <trkpt lat="45.98026" lon="5.54126">
        <ele>887.4</ele>
        <time>2026-05-11T10:30:34Z</time>
      </trkpt>
      <trkpt lat="45.98024" lon="5.54125">
        <ele>887.6</ele>
        <time>2026-05-11T10:30:35Z</time>
      </trkpt>
      <trkpt lat="45.98022" lon="5.54124">
        <ele>887.6</ele>
        <time>2026-05-11T10:30:36Z</time>
      </trkpt>
      <trkpt lat="45.9802" lon="5.54123">
        <ele>888</ele>
        <time>2026-05-11T10:30:37Z</time>
      </trkpt>
      <trkpt lat="45.98019" lon="5.54122">
        <ele>888</ele>
        <time>2026-05-11T10:30:38Z</time>
      </trkpt>
      <trkpt lat="45.98018" lon="5.54121">
        <ele>888</ele>
        <time>2026-05-11T10:30:39Z</time>
      </trkpt>
      <trkpt lat="45.98017" lon="5.5412">
        <ele>888.4</ele>
        <time>2026-05-11T10:30:40Z</time>
      </trkpt>
      <trkpt lat="45.98016" lon="5.54119">
        <ele>888.4</ele>
        <time>2026-05-11T10:30:41Z</time>
      </trkpt>
      <trkpt lat="45.98014" lon="5.54119">
        <ele>888.4</ele>
        <time>2026-05-11T10:30:42Z</time>
      </trkpt>
      <trkpt lat="45.98013" lon="5.54118">
        <ele>888.8</ele>
        <time>2026-05-11T10:30:43Z</time>
      </trkpt>
      <trkpt lat="45.98011" lon="5.54118">
        <ele>888.8</ele>
        <time>2026-05-11T10:30:44Z</time>
      </trkpt>
      <trkpt lat="45.98009" lon="5.54118">
        <ele>888.8</ele>
        <time>2026-05-11T10:30:45Z</time>
      </trkpt>
      <trkpt lat="45.98008" lon="5.54118">
        <ele>889.2</ele>
        <time>2026-05-11T10:30:46Z</time>
      </trkpt>
      <trkpt lat="45.98006" lon="5.54117">
        <ele>889.2</ele>
        <time>2026-05-11T10:30:47Z</time>
      </trkpt>
      <trkpt lat="45.98005" lon="5.54117">
        <ele>889.4</ele>
        <time>2026-05-11T10:30:48Z</time>
      </trkpt>
      <trkpt lat="45.98003" lon="5.54117">
        <ele>889.4</ele>
        <time>2026-05-11T10:30:49Z</time>
      </trkpt>
      <trkpt lat="45.98001" lon="5.54117">
        <ele>889.6</ele>
        <time>2026-05-11T10:30:50Z</time>
      </trkpt>
      <trkpt lat="45.97999" lon="5.54116">
        <ele>889.6</ele>
        <time>2026-05-11T10:30:51Z</time>
      </trkpt>
      <trkpt lat="45.97998" lon="5.54116">
        <ele>890</ele>
        <time>2026-05-11T10:30:52Z</time>
      </trkpt>
      <trkpt lat="45.97996" lon="5.54116">
        <ele>890</ele>
        <time>2026-05-11T10:30:53Z</time>
      </trkpt>
      <trkpt lat="45.97995" lon="5.54116">
        <ele>890.6</ele>
        <time>2026-05-11T10:30:54Z</time>
      </trkpt>
      <trkpt lat="45.97994" lon="5.54115">
        <ele>890.8</ele>
        <time>2026-05-11T10:30:55Z</time>
      </trkpt>
      <trkpt lat="45.97992" lon="5.54114">
        <ele>890.8</ele>
        <time>2026-05-11T10:30:56Z</time>
      </trkpt>
      <trkpt lat="45.97991" lon="5.54113">
        <ele>890.8</ele>
        <time>2026-05-11T10:30:57Z</time>
      </trkpt>
      <trkpt lat="45.9799" lon="5.54113">
        <ele>891</ele>
        <time>2026-05-11T10:30:58Z</time>
      </trkpt>
      <trkpt lat="45.97989" lon="5.54112">
        <ele>891</ele>
        <time>2026-05-11T10:30:59Z</time>
      </trkpt>
      <trkpt lat="45.97987" lon="5.54111">
        <ele>891.4</ele>
        <time>2026-05-11T10:31:00Z</time>
      </trkpt>
      <trkpt lat="45.97986" lon="5.5411">
        <ele>891.4</ele>
        <time>2026-05-11T10:31:01Z</time>
      </trkpt>
      <trkpt lat="45.97985" lon="5.54109">
        <ele>891.6</ele>
        <time>2026-05-11T10:31:02Z</time>
      </trkpt>
      <trkpt lat="45.97983" lon="5.54108">
        <ele>891.6</ele>
        <time>2026-05-11T10:31:03Z</time>
      </trkpt>
      <trkpt lat="45.97982" lon="5.54108">
        <ele>891.6</ele>
        <time>2026-05-11T10:31:04Z</time>
      </trkpt>
      <trkpt lat="45.9798" lon="5.54108">
        <ele>892</ele>
        <time>2026-05-11T10:31:05Z</time>
      </trkpt>
      <trkpt lat="45.9798" lon="5.54108">
        <ele>892</ele>
        <time>2026-05-11T10:31:06Z</time>
      </trkpt>
      <trkpt lat="45.97979" lon="5.54107">
        <ele>892</ele>
        <time>2026-05-11T10:31:07Z</time>
      </trkpt>
      <trkpt lat="45.97978" lon="5.54105">
        <ele>892.4</ele>
        <time>2026-05-11T10:31:08Z</time>
      </trkpt>
      <trkpt lat="45.97977" lon="5.54103">
        <ele>892.6</ele>
        <time>2026-05-11T10:31:09Z</time>
      </trkpt>
      <trkpt lat="45.97976" lon="5.54102">
        <ele>893</ele>
        <time>2026-05-11T10:31:10Z</time>
      </trkpt>
      <trkpt lat="45.97975" lon="5.54101">
        <ele>893</ele>
        <time>2026-05-11T10:31:11Z</time>
      </trkpt>
      <trkpt lat="45.97973" lon="5.541">
        <ele>893.2</ele>
        <time>2026-05-11T10:31:12Z</time>
      </trkpt>
      <trkpt lat="45.97972" lon="5.54099">
        <ele>893.2</ele>
        <time>2026-05-11T10:31:13Z</time>
      </trkpt>
      <trkpt lat="45.97971" lon="5.54098">
        <ele>893.4</ele>
        <time>2026-05-11T10:31:14Z</time>
      </trkpt>
      <trkpt lat="45.97969" lon="5.54097">
        <ele>893.4</ele>
        <time>2026-05-11T10:31:15Z</time>
      </trkpt>
      <trkpt lat="45.97968" lon="5.54096">
        <ele>893.6</ele>
        <time>2026-05-11T10:31:16Z</time>
      </trkpt>
      <trkpt lat="45.97967" lon="5.54095">
        <ele>894</ele>
        <time>2026-05-11T10:31:17Z</time>
      </trkpt>
      <trkpt lat="45.97966" lon="5.54094">
        <ele>894.2</ele>
        <time>2026-05-11T10:31:18Z</time>
      </trkpt>
      <trkpt lat="45.97964" lon="5.54093">
        <ele>894.2</ele>
        <time>2026-05-11T10:31:19Z</time>
      </trkpt>
      <trkpt lat="45.97963" lon="5.54092">
        <ele>894.4</ele>
        <time>2026-05-11T10:31:20Z</time>
      </trkpt>
      <trkpt lat="45.97962" lon="5.54091">
        <ele>894.4</ele>
        <time>2026-05-11T10:31:21Z</time>
      </trkpt>
      <trkpt lat="45.97961" lon="5.5409">
        <ele>894.4</ele>
        <time>2026-05-11T10:31:22Z</time>
      </trkpt>
      <trkpt lat="45.9796" lon="5.54089">
        <ele>894.8</ele>
        <time>2026-05-11T10:31:23Z</time>
      </trkpt>
      <trkpt lat="45.97958" lon="5.54087">
        <ele>895</ele>
        <time>2026-05-11T10:31:24Z</time>
      </trkpt>
      <trkpt lat="45.97957" lon="5.54086">
        <ele>895.4</ele>
        <time>2026-05-11T10:31:25Z</time>
      </trkpt>
      <trkpt lat="45.97956" lon="5.54085">
        <ele>895.4</ele>
        <time>2026-05-11T10:31:26Z</time>
      </trkpt>
      <trkpt lat="45.97954" lon="5.54084">
        <ele>895.6</ele>
        <time>2026-05-11T10:31:27Z</time>
      </trkpt>
      <trkpt lat="45.97953" lon="5.54083">
        <ele>895.6</ele>
        <time>2026-05-11T10:31:28Z</time>
      </trkpt>
      <trkpt lat="45.97952" lon="5.54082">
        <ele>895.6</ele>
        <time>2026-05-11T10:31:29Z</time>
      </trkpt>
      <trkpt lat="45.97951" lon="5.54081">
        <ele>895.8</ele>
        <time>2026-05-11T10:31:30Z</time>
      </trkpt>
      <trkpt lat="45.97949" lon="5.54079">
        <ele>895.8</ele>
        <time>2026-05-11T10:31:31Z</time>
      </trkpt>
      <trkpt lat="45.97948" lon="5.54078">
        <ele>896.2</ele>
        <time>2026-05-11T10:31:32Z</time>
      </trkpt>
      <trkpt lat="45.97947" lon="5.54078">
        <ele>896.2</ele>
        <time>2026-05-11T10:31:33Z</time>
      </trkpt>
      <trkpt lat="45.97946" lon="5.54077">
        <ele>896.6</ele>
        <time>2026-05-11T10:31:34Z</time>
      </trkpt>
      <trkpt lat="45.97945" lon="5.54076">
        <ele>896.6</ele>
        <time>2026-05-11T10:31:35Z</time>
      </trkpt>
      <trkpt lat="45.97944" lon="5.54075">
        <ele>896.6</ele>
        <time>2026-05-11T10:31:36Z</time>
      </trkpt>
      <trkpt lat="45.97943" lon="5.54074">
        <ele>897</ele>
        <time>2026-05-11T10:31:37Z</time>
      </trkpt>
      <trkpt lat="45.97941" lon="5.54073">
        <ele>897</ele>
        <time>2026-05-11T10:31:38Z</time>
      </trkpt>
      <trkpt lat="45.9794" lon="5.54072">
        <ele>897.4</ele>
        <time>2026-05-11T10:31:39Z</time>
      </trkpt>
      <trkpt lat="45.97939" lon="5.54071">
        <ele>897.6</ele>
        <time>2026-05-11T10:31:40Z</time>
      </trkpt>
      <trkpt lat="45.97937" lon="5.54069">
        <ele>897.6</ele>
        <time>2026-05-11T10:31:41Z</time>
      </trkpt>
      <trkpt lat="45.97936" lon="5.54069">
        <ele>897.8</ele>
        <time>2026-05-11T10:31:42Z</time>
      </trkpt>
      <trkpt lat="45.97934" lon="5.54068">
        <ele>897.8</ele>
        <time>2026-05-11T10:31:43Z</time>
      </trkpt>
      <trkpt lat="45.97933" lon="5.54066">
        <ele>898.2</ele>
        <time>2026-05-11T10:31:44Z</time>
      </trkpt>
      <trkpt lat="45.97932" lon="5.54066">
        <ele>898.2</ele>
        <time>2026-05-11T10:31:45Z</time>
      </trkpt>
      <trkpt lat="45.97931" lon="5.54062">
        <ele>898.4</ele>
        <time>2026-05-11T10:31:46Z</time>
      </trkpt>
      <trkpt lat="45.9793" lon="5.5406">
        <ele>898.6</ele>
        <time>2026-05-11T10:31:47Z</time>
      </trkpt>
      <trkpt lat="45.97929" lon="5.54057">
        <ele>898.6</ele>
        <time>2026-05-11T10:31:48Z</time>
      </trkpt>
      <trkpt lat="45.97927" lon="5.54056">
        <ele>899</ele>
        <time>2026-05-11T10:31:49Z</time>
      </trkpt>
      <trkpt lat="45.97925" lon="5.54055">
        <ele>899</ele>
        <time>2026-05-11T10:31:50Z</time>
      </trkpt>
      <trkpt lat="45.97924" lon="5.54053">
        <ele>899.4</ele>
        <time>2026-05-11T10:31:51Z</time>
      </trkpt>
      <trkpt lat="45.97923" lon="5.54051">
        <ele>899.4</ele>
        <time>2026-05-11T10:31:52Z</time>
      </trkpt>
      <trkpt lat="45.97922" lon="5.54049">
        <ele>899.4</ele>
        <time>2026-05-11T10:31:53Z</time>
      </trkpt>
      <trkpt lat="45.97921" lon="5.54047">
        <ele>899.8</ele>
        <time>2026-05-11T10:31:54Z</time>
      </trkpt>
      <trkpt lat="45.9792" lon="5.54046">
        <ele>899.8</ele>
        <time>2026-05-11T10:31:55Z</time>
      </trkpt>
      <trkpt lat="45.97919" lon="5.54044">
        <ele>900</ele>
        <time>2026-05-11T10:31:56Z</time>
      </trkpt>
      <trkpt lat="45.97918" lon="5.54042">
        <ele>900</ele>
        <time>2026-05-11T10:31:57Z</time>
      </trkpt>
      <trkpt lat="45.97917" lon="5.5404">
        <ele>900.4</ele>
        <time>2026-05-11T10:31:58Z</time>
      </trkpt>
      <trkpt lat="45.97916" lon="5.54039">
        <ele>900.4</ele>
        <time>2026-05-11T10:31:59Z</time>
      </trkpt>
      <trkpt lat="45.97915" lon="5.54038">
        <ele>900.6</ele>
        <time>2026-05-11T10:32:00Z</time>
      </trkpt>
      <trkpt lat="45.97914" lon="5.54036">
        <ele>900.6</ele>
        <time>2026-05-11T10:32:01Z</time>
      </trkpt>
      <trkpt lat="45.97913" lon="5.54035">
        <ele>900.6</ele>
        <time>2026-05-11T10:32:02Z</time>
      </trkpt>
      <trkpt lat="45.97912" lon="5.54034">
        <ele>901</ele>
        <time>2026-05-11T10:32:03Z</time>
      </trkpt>
      <trkpt lat="45.9791" lon="5.54032">
        <ele>901</ele>
        <time>2026-05-11T10:32:04Z</time>
      </trkpt>
      <trkpt lat="45.97909" lon="5.54029">
        <ele>901.4</ele>
        <time>2026-05-11T10:32:05Z</time>
      </trkpt>
      <trkpt lat="45.97908" lon="5.54027">
        <ele>901.4</ele>
        <time>2026-05-11T10:32:06Z</time>
      </trkpt>
      <trkpt lat="45.97906" lon="5.54025">
        <ele>901.6</ele>
        <time>2026-05-11T10:32:07Z</time>
      </trkpt>
      <trkpt lat="45.97906" lon="5.54024">
        <ele>901.6</ele>
        <time>2026-05-11T10:32:08Z</time>
      </trkpt>
      <trkpt lat="45.97904" lon="5.54023">
        <ele>902</ele>
        <time>2026-05-11T10:32:09Z</time>
      </trkpt>
      <trkpt lat="45.97903" lon="5.54021">
        <ele>902.2</ele>
        <time>2026-05-11T10:32:10Z</time>
      </trkpt>
      <trkpt lat="45.97902" lon="5.5402">
        <ele>902.2</ele>
        <time>2026-05-11T10:32:11Z</time>
      </trkpt>
      <trkpt lat="45.97901" lon="5.54019">
        <ele>902.4</ele>
        <time>2026-05-11T10:32:12Z</time>
      </trkpt>
      <trkpt lat="45.97899" lon="5.54018">
        <ele>902.6</ele>
        <time>2026-05-11T10:32:13Z</time>
      </trkpt>
      <trkpt lat="45.97898" lon="5.54016">
        <ele>902.6</ele>
        <time>2026-05-11T10:32:14Z</time>
      </trkpt>
      <trkpt lat="45.97896" lon="5.54015">
        <ele>903</ele>
        <time>2026-05-11T10:32:15Z</time>
      </trkpt>
      <trkpt lat="45.97895" lon="5.54013">
        <ele>903</ele>
        <time>2026-05-11T10:32:16Z</time>
      </trkpt>
      <trkpt lat="45.97893" lon="5.5401">
        <ele>903</ele>
        <time>2026-05-11T10:32:17Z</time>
      </trkpt>
      <trkpt lat="45.97892" lon="5.54009">
        <ele>903.2</ele>
        <time>2026-05-11T10:32:18Z</time>
      </trkpt>
      <trkpt lat="45.97891" lon="5.54007">
        <ele>903.6</ele>
        <time>2026-05-11T10:32:19Z</time>
      </trkpt>
      <trkpt lat="45.97889" lon="5.54006">
        <ele>903.8</ele>
        <time>2026-05-11T10:32:20Z</time>
      </trkpt>
      <trkpt lat="45.97888" lon="5.54005">
        <ele>903.8</ele>
        <time>2026-05-11T10:32:21Z</time>
      </trkpt>
      <trkpt lat="45.97886" lon="5.54004">
        <ele>904</ele>
        <time>2026-05-11T10:32:22Z</time>
      </trkpt>
      <trkpt lat="45.97885" lon="5.54003">
        <ele>904.4</ele>
        <time>2026-05-11T10:32:23Z</time>
      </trkpt>
      <trkpt lat="45.97884" lon="5.54001">
        <ele>904.4</ele>
        <time>2026-05-11T10:32:24Z</time>
      </trkpt>
      <trkpt lat="45.97883" lon="5.54">
        <ele>904.8</ele>
        <time>2026-05-11T10:32:25Z</time>
      </trkpt>
      <trkpt lat="45.97882" lon="5.53998">
        <ele>905</ele>
        <time>2026-05-11T10:32:26Z</time>
      </trkpt>
      <trkpt lat="45.9788" lon="5.53996">
        <ele>903.8</ele>
        <time>2026-05-11T10:32:27Z</time>
      </trkpt>
      <trkpt lat="45.97879" lon="5.53995">
        <ele>904</ele>
        <time>2026-05-11T10:32:28Z</time>
      </trkpt>
      <trkpt lat="45.97878" lon="5.53994">
        <ele>905</ele>
        <time>2026-05-11T10:32:29Z</time>
      </trkpt>
      <trkpt lat="45.97877" lon="5.53993">
        <ele>905.4</ele>
        <time>2026-05-11T10:32:30Z</time>
      </trkpt>
      <trkpt lat="45.97875" lon="5.53992">
        <ele>906</ele>
        <time>2026-05-11T10:32:31Z</time>
      </trkpt>
      <trkpt lat="45.97874" lon="5.53991">
        <ele>906</ele>
        <time>2026-05-11T10:32:32Z</time>
      </trkpt>
      <trkpt lat="45.97872" lon="5.5399">
        <ele>906.4</ele>
        <time>2026-05-11T10:32:33Z</time>
      </trkpt>
      <trkpt lat="45.97871" lon="5.53988">
        <ele>906.4</ele>
        <time>2026-05-11T10:32:34Z</time>
      </trkpt>
      <trkpt lat="45.9787" lon="5.53987">
        <ele>906.8</ele>
        <time>2026-05-11T10:32:35Z</time>
      </trkpt>
      <trkpt lat="45.97869" lon="5.53986">
        <ele>906.8</ele>
        <time>2026-05-11T10:32:36Z</time>
      </trkpt>
      <trkpt lat="45.97868" lon="5.53984">
        <ele>906.8</ele>
        <time>2026-05-11T10:32:37Z</time>
      </trkpt>
      <trkpt lat="45.97867" lon="5.53982">
        <ele>907</ele>
        <time>2026-05-11T10:32:38Z</time>
      </trkpt>
      <trkpt lat="45.97866" lon="5.53981">
        <ele>907</ele>
        <time>2026-05-11T10:32:39Z</time>
      </trkpt>
      <trkpt lat="45.97864" lon="5.5398">
        <ele>907.4</ele>
        <time>2026-05-11T10:32:40Z</time>
      </trkpt>
      <trkpt lat="45.97863" lon="5.5398">
        <ele>907.4</ele>
        <time>2026-05-11T10:32:41Z</time>
      </trkpt>
      <trkpt lat="45.97862" lon="5.53979">
        <ele>907.6</ele>
        <time>2026-05-11T10:32:42Z</time>
      </trkpt>
      <trkpt lat="45.97861" lon="5.53978">
        <ele>907.8</ele>
        <time>2026-05-11T10:32:43Z</time>
      </trkpt>
      <trkpt lat="45.97859" lon="5.53977">
        <ele>907.8</ele>
        <time>2026-05-11T10:32:44Z</time>
      </trkpt>
      <trkpt lat="45.97858" lon="5.53976">
        <ele>908.2</ele>
        <time>2026-05-11T10:32:45Z</time>
      </trkpt>
      <trkpt lat="45.97856" lon="5.53974">
        <ele>908.2</ele>
        <time>2026-05-11T10:32:46Z</time>
      </trkpt>
      <trkpt lat="45.97855" lon="5.53972">
        <ele>908.2</ele>
        <time>2026-05-11T10:32:47Z</time>
      </trkpt>
      <trkpt lat="45.97854" lon="5.53971">
        <ele>908.4</ele>
        <time>2026-05-11T10:32:48Z</time>
      </trkpt>
      <trkpt lat="45.97853" lon="5.5397">
        <ele>908.4</ele>
        <time>2026-05-11T10:32:49Z</time>
      </trkpt>
      <trkpt lat="45.97852" lon="5.5397">
        <ele>908.8</ele>
        <time>2026-05-11T10:32:50Z</time>
      </trkpt>
      <trkpt lat="45.97851" lon="5.5397">
        <ele>908.8</ele>
        <time>2026-05-11T10:32:51Z</time>
      </trkpt>
      <trkpt lat="45.9785" lon="5.53969">
        <ele>909.2</ele>
        <time>2026-05-11T10:32:52Z</time>
      </trkpt>
      <trkpt lat="45.97849" lon="5.53969">
        <ele>909.2</ele>
        <time>2026-05-11T10:32:53Z</time>
      </trkpt>
      <trkpt lat="45.97848" lon="5.53968">
        <ele>909.2</ele>
        <time>2026-05-11T10:32:54Z</time>
      </trkpt>
      <trkpt lat="45.97846" lon="5.53967">
        <ele>909.4</ele>
        <time>2026-05-11T10:32:55Z</time>
      </trkpt>
      <trkpt lat="45.97845" lon="5.53966">
        <ele>909.4</ele>
        <time>2026-05-11T10:32:56Z</time>
      </trkpt>
      <trkpt lat="45.97843" lon="5.53965">
        <ele>909.8</ele>
        <time>2026-05-11T10:32:57Z</time>
      </trkpt>
      <trkpt lat="45.97842" lon="5.53965">
        <ele>910</ele>
        <time>2026-05-11T10:32:58Z</time>
      </trkpt>
      <trkpt lat="45.97841" lon="5.53963">
        <ele>910.2</ele>
        <time>2026-05-11T10:32:59Z</time>
      </trkpt>
      <trkpt lat="45.97839" lon="5.53962">
        <ele>910.2</ele>
        <time>2026-05-11T10:33:00Z</time>
      </trkpt>
      <trkpt lat="45.97838" lon="5.53961">
        <ele>910.6</ele>
        <time>2026-05-11T10:33:01Z</time>
      </trkpt>
      <trkpt lat="45.97837" lon="5.53961">
        <ele>910.6</ele>
        <time>2026-05-11T10:33:02Z</time>
      </trkpt>
      <trkpt lat="45.97836" lon="5.5396">
        <ele>910.8</ele>
        <time>2026-05-11T10:33:03Z</time>
      </trkpt>
      <trkpt lat="45.97834" lon="5.53959">
        <ele>910.8</ele>
        <time>2026-05-11T10:33:04Z</time>
      </trkpt>
      <trkpt lat="45.97832" lon="5.53957">
        <ele>911.2</ele>
        <time>2026-05-11T10:33:05Z</time>
      </trkpt>
      <trkpt lat="45.9783" lon="5.53956">
        <ele>911.4</ele>
        <time>2026-05-11T10:33:06Z</time>
      </trkpt>
      <trkpt lat="45.97828" lon="5.53954">
        <ele>911.4</ele>
        <time>2026-05-11T10:33:07Z</time>
      </trkpt>
      <trkpt lat="45.97827" lon="5.53953">
        <ele>911.8</ele>
        <time>2026-05-11T10:33:08Z</time>
      </trkpt>
      <trkpt lat="45.97827" lon="5.53953">
        <ele>912</ele>
        <time>2026-05-11T10:33:09Z</time>
      </trkpt>
      <trkpt lat="45.97826" lon="5.53952">
        <ele>912.2</ele>
        <time>2026-05-11T10:33:10Z</time>
      </trkpt>
      <trkpt lat="45.97824" lon="5.53951">
        <ele>912.2</ele>
        <time>2026-05-11T10:33:11Z</time>
      </trkpt>
      <trkpt lat="45.97823" lon="5.5395">
        <ele>912.6</ele>
        <time>2026-05-11T10:33:12Z</time>
      </trkpt>
      <trkpt lat="45.97822" lon="5.53949">
        <ele>912.6</ele>
        <time>2026-05-11T10:33:13Z</time>
      </trkpt>
      <trkpt lat="45.97821" lon="5.53949">
        <ele>912.8</ele>
        <time>2026-05-11T10:33:14Z</time>
      </trkpt>
      <trkpt lat="45.9782" lon="5.53949">
        <ele>913.2</ele>
        <time>2026-05-11T10:33:15Z</time>
      </trkpt>
      <trkpt lat="45.97819" lon="5.53948">
        <ele>913.2</ele>
        <time>2026-05-11T10:33:16Z</time>
      </trkpt>
      <trkpt lat="45.97818" lon="5.53948">
        <ele>913.6</ele>
        <time>2026-05-11T10:33:17Z</time>
      </trkpt>
      <trkpt lat="45.97816" lon="5.53948">
        <ele>913.6</ele>
        <time>2026-05-11T10:33:18Z</time>
      </trkpt>
      <trkpt lat="45.97815" lon="5.53947">
        <ele>913.6</ele>
        <time>2026-05-11T10:33:19Z</time>
      </trkpt>
      <trkpt lat="45.97814" lon="5.53947">
        <ele>913.8</ele>
        <time>2026-05-11T10:33:20Z</time>
      </trkpt>
      <trkpt lat="45.97812" lon="5.53946">
        <ele>914.2</ele>
        <time>2026-05-11T10:33:21Z</time>
      </trkpt>
      <trkpt lat="45.97811" lon="5.53944">
        <ele>914.4</ele>
        <time>2026-05-11T10:33:22Z</time>
      </trkpt>
      <trkpt lat="45.97809" lon="5.53942">
        <ele>914.2</ele>
        <time>2026-05-11T10:33:23Z</time>
      </trkpt>
      <trkpt lat="45.97808" lon="5.53941">
        <ele>914.2</ele>
        <time>2026-05-11T10:33:24Z</time>
      </trkpt>
      <trkpt lat="45.97806" lon="5.5394">
        <ele>914.6</ele>
        <time>2026-05-11T10:33:25Z</time>
      </trkpt>
      <trkpt lat="45.97805" lon="5.53939">
        <ele>914.8</ele>
        <time>2026-05-11T10:33:26Z</time>
      </trkpt>
      <trkpt lat="45.97804" lon="5.53938">
        <ele>915.2</ele>
        <time>2026-05-11T10:33:27Z</time>
      </trkpt>
      <trkpt lat="45.97802" lon="5.53936">
        <ele>915.2</ele>
        <time>2026-05-11T10:33:28Z</time>
      </trkpt>
      <trkpt lat="45.97801" lon="5.53935">
        <ele>915.4</ele>
        <time>2026-05-11T10:33:29Z</time>
      </trkpt>
      <trkpt lat="45.978" lon="5.53935">
        <ele>915.6</ele>
        <time>2026-05-11T10:33:30Z</time>
      </trkpt>
      <trkpt lat="45.97798" lon="5.53934">
        <ele>915.6</ele>
        <time>2026-05-11T10:33:31Z</time>
      </trkpt>
      <trkpt lat="45.97797" lon="5.53933">
        <ele>915.8</ele>
        <time>2026-05-11T10:33:32Z</time>
      </trkpt>
      <trkpt lat="45.97795" lon="5.53932">
        <ele>916.2</ele>
        <time>2026-05-11T10:33:33Z</time>
      </trkpt>
      <trkpt lat="45.97794" lon="5.53932">
        <ele>916.2</ele>
        <time>2026-05-11T10:33:34Z</time>
      </trkpt>
      <trkpt lat="45.97792" lon="5.53931">
        <ele>916.2</ele>
        <time>2026-05-11T10:33:35Z</time>
      </trkpt>
      <trkpt lat="45.9779" lon="5.5393">
        <ele>916.2</ele>
        <time>2026-05-11T10:33:36Z</time>
      </trkpt>
      <trkpt lat="45.97789" lon="5.53928">
        <ele>916.6</ele>
        <time>2026-05-11T10:33:37Z</time>
      </trkpt>
      <trkpt lat="45.97788" lon="5.53927">
        <ele>917</ele>
        <time>2026-05-11T10:33:38Z</time>
      </trkpt>
      <trkpt lat="45.97786" lon="5.53926">
        <ele>917.2</ele>
        <time>2026-05-11T10:33:39Z</time>
      </trkpt>
      <trkpt lat="45.97785" lon="5.53925">
        <ele>917.2</ele>
        <time>2026-05-11T10:33:40Z</time>
      </trkpt>
      <trkpt lat="45.97784" lon="5.53925">
        <ele>917.4</ele>
        <time>2026-05-11T10:33:41Z</time>
      </trkpt>
      <trkpt lat="45.97783" lon="5.53925">
        <ele>917.4</ele>
        <time>2026-05-11T10:33:42Z</time>
      </trkpt>
      <trkpt lat="45.97781" lon="5.53924">
        <ele>917.8</ele>
        <time>2026-05-11T10:33:43Z</time>
      </trkpt>
      <trkpt lat="45.97779" lon="5.53924">
        <ele>917.8</ele>
        <time>2026-05-11T10:33:44Z</time>
      </trkpt>
      <trkpt lat="45.97778" lon="5.53924">
        <ele>918</ele>
        <time>2026-05-11T10:33:45Z</time>
      </trkpt>
      <trkpt lat="45.97776" lon="5.53923">
        <ele>918</ele>
        <time>2026-05-11T10:33:46Z</time>
      </trkpt>
      <trkpt lat="45.97773" lon="5.53922">
        <ele>918</ele>
        <time>2026-05-11T10:33:47Z</time>
      </trkpt>
      <trkpt lat="45.97772" lon="5.53921">
        <ele>918.4</ele>
        <time>2026-05-11T10:33:48Z</time>
      </trkpt>
      <trkpt lat="45.9777" lon="5.5392">
        <ele>918.4</ele>
        <time>2026-05-11T10:33:49Z</time>
      </trkpt>
      <trkpt lat="45.97769" lon="5.5392">
        <ele>918.6</ele>
        <time>2026-05-11T10:33:50Z</time>
      </trkpt>
      <trkpt lat="45.97767" lon="5.53919">
        <ele>918.6</ele>
        <time>2026-05-11T10:33:51Z</time>
      </trkpt>
      <trkpt lat="45.97765" lon="5.53919">
        <ele>919</ele>
        <time>2026-05-11T10:33:52Z</time>
      </trkpt>
      <trkpt lat="45.97764" lon="5.53918">
        <ele>919</ele>
        <time>2026-05-11T10:33:53Z</time>
      </trkpt>
      <trkpt lat="45.97762" lon="5.53918">
        <ele>919</ele>
        <time>2026-05-11T10:33:54Z</time>
      </trkpt>
      <trkpt lat="45.9776" lon="5.53919">
        <ele>919.2</ele>
        <time>2026-05-11T10:33:55Z</time>
      </trkpt>
      <trkpt lat="45.97758" lon="5.53919">
        <ele>919.2</ele>
        <time>2026-05-11T10:33:56Z</time>
      </trkpt>
      <trkpt lat="45.97756" lon="5.53919">
        <ele>919.6</ele>
        <time>2026-05-11T10:33:57Z</time>
      </trkpt>
      <trkpt lat="45.97755" lon="5.53919">
        <ele>919.6</ele>
        <time>2026-05-11T10:33:58Z</time>
      </trkpt>
      <trkpt lat="45.97753" lon="5.53919">
        <ele>920</ele>
        <time>2026-05-11T10:33:59Z</time>
      </trkpt>
      <trkpt lat="45.97751" lon="5.53919">
        <ele>920</ele>
        <time>2026-05-11T10:34:00Z</time>
      </trkpt>
      <trkpt lat="45.9775" lon="5.53919">
        <ele>920.4</ele>
        <time>2026-05-11T10:34:01Z</time>
      </trkpt>
      <trkpt lat="45.97748" lon="5.53919">
        <ele>920.4</ele>
        <time>2026-05-11T10:34:02Z</time>
      </trkpt>
      <trkpt lat="45.97747" lon="5.53918">
        <ele>920.6</ele>
        <time>2026-05-11T10:34:03Z</time>
      </trkpt>
      <trkpt lat="45.97745" lon="5.53918">
        <ele>921</ele>
        <time>2026-05-11T10:34:04Z</time>
      </trkpt>
      <trkpt lat="45.97743" lon="5.53917">
        <ele>921</ele>
        <time>2026-05-11T10:34:05Z</time>
      </trkpt>
      <trkpt lat="45.97743" lon="5.53916">
        <ele>921.4</ele>
        <time>2026-05-11T10:34:06Z</time>
      </trkpt>
      <trkpt lat="45.97742" lon="5.53915">
        <ele>921.6</ele>
        <time>2026-05-11T10:34:07Z</time>
      </trkpt>
      <trkpt lat="45.9774" lon="5.53915">
        <ele>921.6</ele>
        <time>2026-05-11T10:34:08Z</time>
      </trkpt>
      <trkpt lat="45.97738" lon="5.53915">
        <ele>922</ele>
        <time>2026-05-11T10:34:09Z</time>
      </trkpt>
      <trkpt lat="45.97736" lon="5.53915">
        <ele>922</ele>
        <time>2026-05-11T10:34:10Z</time>
      </trkpt>
      <trkpt lat="45.97734" lon="5.53915">
        <ele>922.4</ele>
        <time>2026-05-11T10:34:11Z</time>
      </trkpt>
      <trkpt lat="45.97732" lon="5.53915">
        <ele>922.4</ele>
        <time>2026-05-11T10:34:12Z</time>
      </trkpt>
      <trkpt lat="45.97731" lon="5.53915">
        <ele>922.6</ele>
        <time>2026-05-11T10:34:13Z</time>
      </trkpt>
      <trkpt lat="45.97729" lon="5.53914">
        <ele>922.6</ele>
        <time>2026-05-11T10:34:14Z</time>
      </trkpt>
      <trkpt lat="45.97728" lon="5.53914">
        <ele>922.6</ele>
        <time>2026-05-11T10:34:15Z</time>
      </trkpt>
      <trkpt lat="45.97726" lon="5.53913">
        <ele>922.6</ele>
        <time>2026-05-11T10:34:16Z</time>
      </trkpt>
      <trkpt lat="45.97725" lon="5.53912">
        <ele>922.8</ele>
        <time>2026-05-11T10:34:17Z</time>
      </trkpt>
      <trkpt lat="45.97724" lon="5.53912">
        <ele>922.8</ele>
        <time>2026-05-11T10:34:18Z</time>
      </trkpt>
      <trkpt lat="45.97722" lon="5.53912">
        <ele>922.8</ele>
        <time>2026-05-11T10:34:19Z</time>
      </trkpt>
      <trkpt lat="45.97721" lon="5.53912">
        <ele>922.4</ele>
        <time>2026-05-11T10:34:20Z</time>
      </trkpt>
      <trkpt lat="45.97718" lon="5.53912">
        <ele>922.4</ele>
        <time>2026-05-11T10:34:21Z</time>
      </trkpt>
      <trkpt lat="45.97716" lon="5.53912">
        <ele>922</ele>
        <time>2026-05-11T10:34:22Z</time>
      </trkpt>
      <trkpt lat="45.97712" lon="5.53911">
        <ele>922</ele>
        <time>2026-05-11T10:34:23Z</time>
      </trkpt>
      <trkpt lat="45.97709" lon="5.53911">
        <ele>921.6</ele>
        <time>2026-05-11T10:34:24Z</time>
      </trkpt>
      <trkpt lat="45.97705" lon="5.5391">
        <ele>921.6</ele>
        <time>2026-05-11T10:34:25Z</time>
      </trkpt>
      <trkpt lat="45.97701" lon="5.5391">
        <ele>921.4</ele>
        <time>2026-05-11T10:34:26Z</time>
      </trkpt>
      <trkpt lat="45.97696" lon="5.53912">
        <ele>921.4</ele>
        <time>2026-05-11T10:34:27Z</time>
      </trkpt>
      <trkpt lat="45.97692" lon="5.53912">
        <ele>921.4</ele>
        <time>2026-05-11T10:34:28Z</time>
      </trkpt>
      <trkpt lat="45.97688" lon="5.53912">
        <ele>921.2</ele>
        <time>2026-05-11T10:34:29Z</time>
      </trkpt>
      <trkpt lat="45.97684" lon="5.53912">
        <ele>921</ele>
        <time>2026-05-11T10:34:30Z</time>
      </trkpt>
      <trkpt lat="45.97678" lon="5.53916">
        <ele>920</ele>
        <time>2026-05-11T10:34:31Z</time>
      </trkpt>
      <trkpt lat="45.97672" lon="5.53917">
        <ele>919.8</ele>
        <time>2026-05-11T10:34:32Z</time>
      </trkpt>
      <trkpt lat="45.97671" lon="5.53919">
        <ele>919.8</ele>
        <time>2026-05-11T10:34:33Z</time>
      </trkpt>
      <trkpt lat="45.97666" lon="5.5392">
        <ele>919.4</ele>
        <time>2026-05-11T10:34:34Z</time>
      </trkpt>
      <trkpt lat="45.9766" lon="5.53924">
        <ele>919.6</ele>
        <time>2026-05-11T10:34:35Z</time>
      </trkpt>
      <trkpt lat="45.97657" lon="5.53923">
        <ele>919.6</ele>
        <time>2026-05-11T10:34:36Z</time>
      </trkpt>
      <trkpt lat="45.97652" lon="5.53926">
        <ele>919</ele>
        <time>2026-05-11T10:34:37Z</time>
      </trkpt>
      <trkpt lat="45.97645" lon="5.53928">
        <ele>918.4</ele>
        <time>2026-05-11T10:34:38Z</time>
      </trkpt>
      <trkpt lat="45.97639" lon="5.53929">
        <ele>917.6</ele>
        <time>2026-05-11T10:34:39Z</time>
      </trkpt>
      <trkpt lat="45.97633" lon="5.5393">
        <ele>917.6</ele>
        <time>2026-05-11T10:34:40Z</time>
      </trkpt>
      <trkpt lat="45.97626" lon="5.5393">
        <ele>917.6</ele>
        <time>2026-05-11T10:34:41Z</time>
      </trkpt>
      <trkpt lat="45.97621" lon="5.5393">
        <ele>917.6</ele>
        <time>2026-05-11T10:34:42Z</time>
      </trkpt>
      <trkpt lat="45.97615" lon="5.53928">
        <ele>917</ele>
        <time>2026-05-11T10:34:43Z</time>
      </trkpt>
      <trkpt lat="45.97615" lon="5.53931">
        <ele>916.6</ele>
        <time>2026-05-11T10:34:44Z</time>
      </trkpt>
      <trkpt lat="45.97611" lon="5.53931">
        <ele>916.6</ele>
        <time>2026-05-11T10:34:45Z</time>
      </trkpt>
      <trkpt lat="45.97605" lon="5.53929">
        <ele>916.6</ele>
        <time>2026-05-11T10:34:46Z</time>
      </trkpt>
      <trkpt lat="45.97601" lon="5.53929">
        <ele>917</ele>
        <time>2026-05-11T10:34:47Z</time>
      </trkpt>
      <trkpt lat="45.97597" lon="5.53931">
        <ele>917</ele>
        <time>2026-05-11T10:34:48Z</time>
      </trkpt>
      <trkpt lat="45.97592" lon="5.53931">
        <ele>917.4</ele>
        <time>2026-05-11T10:34:49Z</time>
      </trkpt>
      <trkpt lat="45.97588" lon="5.53935">
        <ele>917.4</ele>
        <time>2026-05-11T10:34:50Z</time>
      </trkpt>
      <trkpt lat="45.97584" lon="5.53938">
        <ele>917.4</ele>
        <time>2026-05-11T10:34:51Z</time>
      </trkpt>
      <trkpt lat="45.97581" lon="5.5394">
        <ele>917.6</ele>
        <time>2026-05-11T10:34:52Z</time>
      </trkpt>
      <trkpt lat="45.97577" lon="5.53942">
        <ele>917.6</ele>
        <time>2026-05-11T10:34:53Z</time>
      </trkpt>
      <trkpt lat="45.97575" lon="5.53947">
        <ele>917.8</ele>
        <time>2026-05-11T10:34:54Z</time>
      </trkpt>
      <trkpt lat="45.9757" lon="5.53949">
        <ele>917.8</ele>
        <time>2026-05-11T10:34:55Z</time>
      </trkpt>
      <trkpt lat="45.97565" lon="5.53949">
        <ele>918.4</ele>
        <time>2026-05-11T10:34:56Z</time>
      </trkpt>
      <trkpt lat="45.97562" lon="5.53951">
        <ele>918.4</ele>
        <time>2026-05-11T10:34:57Z</time>
      </trkpt>
      <trkpt lat="45.97559" lon="5.53954">
        <ele>918.4</ele>
        <time>2026-05-11T10:34:58Z</time>
      </trkpt>
      <trkpt lat="45.97556" lon="5.53957">
        <ele>918.4</ele>
        <time>2026-05-11T10:34:59Z</time>
      </trkpt>
      <trkpt lat="45.97552" lon="5.53959">
        <ele>918.6</ele>
        <time>2026-05-11T10:35:00Z</time>
      </trkpt>
      <trkpt lat="45.97549" lon="5.53961">
        <ele>918.6</ele>
        <time>2026-05-11T10:35:01Z</time>
      </trkpt>
      <trkpt lat="45.97544" lon="5.5396">
        <ele>918.6</ele>
        <time>2026-05-11T10:35:02Z</time>
      </trkpt>
      <trkpt lat="45.97539" lon="5.5396">
        <ele>917.8</ele>
        <time>2026-05-11T10:35:03Z</time>
      </trkpt>
      <trkpt lat="45.97536" lon="5.53959">
        <ele>917.8</ele>
        <time>2026-05-11T10:35:04Z</time>
      </trkpt>
      <trkpt lat="45.97533" lon="5.53957">
        <ele>917.8</ele>
        <time>2026-05-11T10:35:05Z</time>
      </trkpt>
      <trkpt lat="45.97529" lon="5.53955">
        <ele>917.6</ele>
        <time>2026-05-11T10:35:06Z</time>
      </trkpt>
      <trkpt lat="45.97526" lon="5.53953">
        <ele>917.8</ele>
        <time>2026-05-11T10:35:07Z</time>
      </trkpt>
      <trkpt lat="45.97523" lon="5.53953">
        <ele>918</ele>
        <time>2026-05-11T10:35:08Z</time>
      </trkpt>
      <trkpt lat="45.97518" lon="5.53952">
        <ele>918</ele>
        <time>2026-05-11T10:35:09Z</time>
      </trkpt>
      <trkpt lat="45.97513" lon="5.5395">
        <ele>918</ele>
        <time>2026-05-11T10:35:10Z</time>
      </trkpt>
      <trkpt lat="45.9751" lon="5.53949">
        <ele>918.8</ele>
        <time>2026-05-11T10:35:11Z</time>
      </trkpt>
      <trkpt lat="45.97508" lon="5.53949">
        <ele>919.4</ele>
        <time>2026-05-11T10:35:12Z</time>
      </trkpt>
      <trkpt lat="45.97506" lon="5.53948">
        <ele>920</ele>
        <time>2026-05-11T10:35:13Z</time>
      </trkpt>
      <trkpt lat="45.97505" lon="5.53946">
        <ele>920.4</ele>
        <time>2026-05-11T10:35:14Z</time>
      </trkpt>
      <trkpt lat="45.97503" lon="5.53944">
        <ele>920.8</ele>
        <time>2026-05-11T10:35:15Z</time>
      </trkpt>
      <trkpt lat="45.97502" lon="5.53943">
        <ele>921</ele>
        <time>2026-05-11T10:35:16Z</time>
      </trkpt>
      <trkpt lat="45.97501" lon="5.53941">
        <ele>921.2</ele>
        <time>2026-05-11T10:35:17Z</time>
      </trkpt>
      <trkpt lat="45.975" lon="5.53939">
        <ele>921.6</ele>
        <time>2026-05-11T10:35:18Z</time>
      </trkpt>
      <trkpt lat="45.975" lon="5.53936">
        <ele>921.8</ele>
        <time>2026-05-11T10:35:19Z</time>
      </trkpt>
      <trkpt lat="45.97501" lon="5.53933">
        <ele>922</ele>
        <time>2026-05-11T10:35:20Z</time>
      </trkpt>
      <trkpt lat="45.97502" lon="5.53931">
        <ele>922.4</ele>
        <time>2026-05-11T10:35:21Z</time>
      </trkpt>
      <trkpt lat="45.97503" lon="5.5393">
        <ele>922.6</ele>
        <time>2026-05-11T10:35:22Z</time>
      </trkpt>
      <trkpt lat="45.97504" lon="5.53927">
        <ele>922.8</ele>
        <time>2026-05-11T10:35:23Z</time>
      </trkpt>
      <trkpt lat="45.97505" lon="5.53925">
        <ele>923</ele>
        <time>2026-05-11T10:35:24Z</time>
      </trkpt>
      <trkpt lat="45.97505" lon="5.53922">
        <ele>923</ele>
        <time>2026-05-11T10:35:25Z</time>
      </trkpt>
      <trkpt lat="45.97506" lon="5.53919">
        <ele>923.6</ele>
        <time>2026-05-11T10:35:26Z</time>
      </trkpt>
      <trkpt lat="45.97506" lon="5.53917">
        <ele>923.8</ele>
        <time>2026-05-11T10:35:27Z</time>
      </trkpt>
      <trkpt lat="45.97507" lon="5.53915">
        <ele>924.2</ele>
        <time>2026-05-11T10:35:28Z</time>
      </trkpt>
      <trkpt lat="45.97508" lon="5.53913">
        <ele>924.8</ele>
        <time>2026-05-11T10:35:29Z</time>
      </trkpt>
      <trkpt lat="45.97508" lon="5.53911">
        <ele>925.2</ele>
        <time>2026-05-11T10:35:30Z</time>
      </trkpt>
      <trkpt lat="45.97509" lon="5.53909">
        <ele>925.6</ele>
        <time>2026-05-11T10:35:31Z</time>
      </trkpt>
      <trkpt lat="45.9751" lon="5.53907">
        <ele>925.8</ele>
        <time>2026-05-11T10:35:32Z</time>
      </trkpt>
      <trkpt lat="45.97511" lon="5.53905">
        <ele>925.8</ele>
        <time>2026-05-11T10:35:33Z</time>
      </trkpt>
      <trkpt lat="45.97512" lon="5.53902">
        <ele>926.2</ele>
        <time>2026-05-11T10:35:34Z</time>
      </trkpt>
      <trkpt lat="45.97512" lon="5.53902">
        <ele>926.6</ele>
        <time>2026-05-11T10:35:35Z</time>
      </trkpt>
      <trkpt lat="45.97512" lon="5.53902">
        <ele>926.8</ele>
        <time>2026-05-11T10:35:36Z</time>
      </trkpt>
      <trkpt lat="45.97515" lon="5.53894">
        <ele>927.4</ele>
        <time>2026-05-11T10:35:38Z</time>
      </trkpt>
      <trkpt lat="45.97515" lon="5.53892">
        <ele>927.6</ele>
        <time>2026-05-11T10:35:39Z</time>
      </trkpt>
      <trkpt lat="45.97516" lon="5.53889">
        <ele>927.8</ele>
        <time>2026-05-11T10:35:40Z</time>
      </trkpt>
      <trkpt lat="45.97517" lon="5.53887">
        <ele>928.2</ele>
        <time>2026-05-11T10:35:41Z</time>
      </trkpt>
      <trkpt lat="45.97518" lon="5.53884">
        <ele>928.2</ele>
        <time>2026-05-11T10:35:42Z</time>
      </trkpt>
      <trkpt lat="45.97519" lon="5.53882">
        <ele>928.4</ele>
        <time>2026-05-11T10:35:43Z</time>
      </trkpt>
      <trkpt lat="45.9752" lon="5.53879">
        <ele>928.4</ele>
        <time>2026-05-11T10:35:44Z</time>
      </trkpt>
      <trkpt lat="45.97521" lon="5.53877">
        <ele>928.8</ele>
        <time>2026-05-11T10:35:45Z</time>
      </trkpt>
      <trkpt lat="45.97522" lon="5.53875">
        <ele>928.8</ele>
        <time>2026-05-11T10:35:46Z</time>
      </trkpt>
      <trkpt lat="45.97523" lon="5.53872">
        <ele>929.2</ele>
        <time>2026-05-11T10:35:47Z</time>
      </trkpt>
      <trkpt lat="45.97524" lon="5.5387">
        <ele>929.6</ele>
        <time>2026-05-11T10:35:48Z</time>
      </trkpt>
      <trkpt lat="45.97524" lon="5.53868">
        <ele>929.6</ele>
        <time>2026-05-11T10:35:49Z</time>
      </trkpt>
      <trkpt lat="45.97525" lon="5.53866">
        <ele>930</ele>
        <time>2026-05-11T10:35:50Z</time>
      </trkpt>
      <trkpt lat="45.97526" lon="5.53864">
        <ele>930</ele>
        <time>2026-05-11T10:35:51Z</time>
      </trkpt>
      <trkpt lat="45.97527" lon="5.53862">
        <ele>930.6</ele>
        <time>2026-05-11T10:35:52Z</time>
      </trkpt>
      <trkpt lat="45.97528" lon="5.5386">
        <ele>930.8</ele>
        <time>2026-05-11T10:35:53Z</time>
      </trkpt>
      <trkpt lat="45.97529" lon="5.53858">
        <ele>930.8</ele>
        <time>2026-05-11T10:35:54Z</time>
      </trkpt>
      <trkpt lat="45.9753" lon="5.53855">
        <ele>930.8</ele>
        <time>2026-05-11T10:35:55Z</time>
      </trkpt>
      <trkpt lat="45.9753" lon="5.53853">
        <ele>930.8</ele>
        <time>2026-05-11T10:35:56Z</time>
      </trkpt>
      <trkpt lat="45.97531" lon="5.5385">
        <ele>931</ele>
        <time>2026-05-11T10:35:57Z</time>
      </trkpt>
      <trkpt lat="45.97532" lon="5.53848">
        <ele>931</ele>
        <time>2026-05-11T10:35:58Z</time>
      </trkpt>
      <trkpt lat="45.97532" lon="5.53845">
        <ele>931</ele>
        <time>2026-05-11T10:35:59Z</time>
      </trkpt>
      <trkpt lat="45.97533" lon="5.53842">
        <ele>931</ele>
        <time>2026-05-11T10:36:00Z</time>
      </trkpt>
      <trkpt lat="45.97533" lon="5.53842">
        <ele>931</ele>
        <time>2026-05-11T10:36:01Z</time>
      </trkpt>
      <trkpt lat="45.97534" lon="5.5384">
        <ele>931</ele>
        <time>2026-05-11T10:36:02Z</time>
      </trkpt>
      <trkpt lat="45.97535" lon="5.53838">
        <ele>931</ele>
        <time>2026-05-11T10:36:03Z</time>
      </trkpt>
      <trkpt lat="45.97537" lon="5.53835">
        <ele>931</ele>
        <time>2026-05-11T10:36:04Z</time>
      </trkpt>
      <trkpt lat="45.97538" lon="5.53833">
        <ele>931</ele>
        <time>2026-05-11T10:36:05Z</time>
      </trkpt>
      <trkpt lat="45.97541" lon="5.53829">
        <ele>931</ele>
        <time>2026-05-11T10:36:06Z</time>
      </trkpt>
      <trkpt lat="45.97542" lon="5.53826">
        <ele>931.2</ele>
        <time>2026-05-11T10:36:07Z</time>
      </trkpt>
      <trkpt lat="45.97543" lon="5.53824">
        <ele>931.2</ele>
        <time>2026-05-11T10:36:08Z</time>
      </trkpt>
      <trkpt lat="45.97545" lon="5.53821">
        <ele>931.2</ele>
        <time>2026-05-11T10:36:09Z</time>
      </trkpt>
      <trkpt lat="45.97546" lon="5.53819">
        <ele>931.6</ele>
        <time>2026-05-11T10:36:10Z</time>
      </trkpt>
      <trkpt lat="45.97547" lon="5.53816">
        <ele>932</ele>
        <time>2026-05-11T10:36:11Z</time>
      </trkpt>
      <trkpt lat="45.97548" lon="5.53814">
        <ele>932.2</ele>
        <time>2026-05-11T10:36:12Z</time>
      </trkpt>
      <trkpt lat="45.9755" lon="5.53811">
        <ele>932.2</ele>
        <time>2026-05-11T10:36:13Z</time>
      </trkpt>
      <trkpt lat="45.97551" lon="5.53809">
        <ele>932.6</ele>
        <time>2026-05-11T10:36:14Z</time>
      </trkpt>
      <trkpt lat="45.97552" lon="5.53806">
        <ele>932.6</ele>
        <time>2026-05-11T10:36:15Z</time>
      </trkpt>
      <trkpt lat="45.97553" lon="5.53804">
        <ele>932.6</ele>
        <time>2026-05-11T10:36:16Z</time>
      </trkpt>
      <trkpt lat="45.97554" lon="5.53802">
        <ele>932.6</ele>
        <time>2026-05-11T10:36:17Z</time>
      </trkpt>
      <trkpt lat="45.97555" lon="5.538">
        <ele>932.8</ele>
        <time>2026-05-11T10:36:18Z</time>
      </trkpt>
      <trkpt lat="45.97557" lon="5.53797">
        <ele>932.8</ele>
        <time>2026-05-11T10:36:19Z</time>
      </trkpt>
      <trkpt lat="45.97558" lon="5.53795">
        <ele>932.8</ele>
        <time>2026-05-11T10:36:20Z</time>
      </trkpt>
      <trkpt lat="45.9756" lon="5.53793">
        <ele>933</ele>
        <time>2026-05-11T10:36:21Z</time>
      </trkpt>
      <trkpt lat="45.97561" lon="5.53791">
        <ele>933</ele>
        <time>2026-05-11T10:36:22Z</time>
      </trkpt>
      <trkpt lat="45.97562" lon="5.53789">
        <ele>933.4</ele>
        <time>2026-05-11T10:36:23Z</time>
      </trkpt>
      <trkpt lat="45.97563" lon="5.53786">
        <ele>933.4</ele>
        <time>2026-05-11T10:36:24Z</time>
      </trkpt>
      <trkpt lat="45.97564" lon="5.53784">
        <ele>933.4</ele>
        <time>2026-05-11T10:36:25Z</time>
      </trkpt>
      <trkpt lat="45.97565" lon="5.53782">
        <ele>933.8</ele>
        <time>2026-05-11T10:36:26Z</time>
      </trkpt>
      <trkpt lat="45.97567" lon="5.5378">
        <ele>934</ele>
        <time>2026-05-11T10:36:27Z</time>
      </trkpt>
      <trkpt lat="45.97568" lon="5.53777">
        <ele>934.2</ele>
        <time>2026-05-11T10:36:28Z</time>
      </trkpt>
      <trkpt lat="45.97569" lon="5.53775">
        <ele>934.2</ele>
        <time>2026-05-11T10:36:29Z</time>
      </trkpt>
      <trkpt lat="45.9757" lon="5.53773">
        <ele>934.2</ele>
        <time>2026-05-11T10:36:30Z</time>
      </trkpt>
      <trkpt lat="45.97572" lon="5.53771">
        <ele>934.2</ele>
        <time>2026-05-11T10:36:31Z</time>
      </trkpt>
      <trkpt lat="45.97573" lon="5.53769">
        <ele>934.2</ele>
        <time>2026-05-11T10:36:32Z</time>
      </trkpt>
      <trkpt lat="45.97574" lon="5.53766">
        <ele>934.6</ele>
        <time>2026-05-11T10:36:33Z</time>
      </trkpt>
      <trkpt lat="45.97575" lon="5.53764">
        <ele>934.6</ele>
        <time>2026-05-11T10:36:34Z</time>
      </trkpt>
      <trkpt lat="45.97576" lon="5.53762">
        <ele>934.8</ele>
        <time>2026-05-11T10:36:35Z</time>
      </trkpt>
      <trkpt lat="45.97577" lon="5.5376">
        <ele>935</ele>
        <time>2026-05-11T10:36:36Z</time>
      </trkpt>
      <trkpt lat="45.97579" lon="5.53758">
        <ele>935</ele>
        <time>2026-05-11T10:36:37Z</time>
      </trkpt>
      <trkpt lat="45.9758" lon="5.53756">
        <ele>935.2</ele>
        <time>2026-05-11T10:36:38Z</time>
      </trkpt>
      <trkpt lat="45.97581" lon="5.53754">
        <ele>935.6</ele>
        <time>2026-05-11T10:36:39Z</time>
      </trkpt>
      <trkpt lat="45.97582" lon="5.53753">
        <ele>935.6</ele>
        <time>2026-05-11T10:36:40Z</time>
      </trkpt>
      <trkpt lat="45.97582" lon="5.53751">
        <ele>935.8</ele>
        <time>2026-05-11T10:36:41Z</time>
      </trkpt>
      <trkpt lat="45.97583" lon="5.53749">
        <ele>935.8</ele>
        <time>2026-05-11T10:36:42Z</time>
      </trkpt>
      <trkpt lat="45.97585" lon="5.53747">
        <ele>936.2</ele>
        <time>2026-05-11T10:36:43Z</time>
      </trkpt>
      <trkpt lat="45.97586" lon="5.53745">
        <ele>936.2</ele>
        <time>2026-05-11T10:36:44Z</time>
      </trkpt>
      <trkpt lat="45.97587" lon="5.53742">
        <ele>936.4</ele>
        <time>2026-05-11T10:36:45Z</time>
      </trkpt>
      <trkpt lat="45.97588" lon="5.5374">
        <ele>936.8</ele>
        <time>2026-05-11T10:36:46Z</time>
      </trkpt>
      <trkpt lat="45.97589" lon="5.53737">
        <ele>937</ele>
        <time>2026-05-11T10:36:47Z</time>
      </trkpt>
      <trkpt lat="45.9759" lon="5.53735">
        <ele>937</ele>
        <time>2026-05-11T10:36:48Z</time>
      </trkpt>
      <trkpt lat="45.97591" lon="5.53733">
        <ele>937.4</ele>
        <time>2026-05-11T10:36:49Z</time>
      </trkpt>
      <trkpt lat="45.97592" lon="5.5373">
        <ele>937.4</ele>
        <time>2026-05-11T10:36:50Z</time>
      </trkpt>
      <trkpt lat="45.97593" lon="5.53728">
        <ele>937.6</ele>
        <time>2026-05-11T10:36:51Z</time>
      </trkpt>
      <trkpt lat="45.97594" lon="5.53726">
        <ele>937.6</ele>
        <time>2026-05-11T10:36:52Z</time>
      </trkpt>
      <trkpt lat="45.97595" lon="5.53724">
        <ele>938</ele>
        <time>2026-05-11T10:36:53Z</time>
      </trkpt>
      <trkpt lat="45.97596" lon="5.53721">
        <ele>938</ele>
        <time>2026-05-11T10:36:54Z</time>
      </trkpt>
      <trkpt lat="45.97597" lon="5.53719">
        <ele>938.2</ele>
        <time>2026-05-11T10:36:55Z</time>
      </trkpt>
      <trkpt lat="45.97598" lon="5.53717">
        <ele>938.6</ele>
        <time>2026-05-11T10:36:56Z</time>
      </trkpt>
      <trkpt lat="45.97599" lon="5.53715">
        <ele>938.8</ele>
        <time>2026-05-11T10:36:57Z</time>
      </trkpt>
      <trkpt lat="45.976" lon="5.53713">
        <ele>939.2</ele>
        <time>2026-05-11T10:36:58Z</time>
      </trkpt>
      <trkpt lat="45.97601" lon="5.53711">
        <ele>939.4</ele>
        <time>2026-05-11T10:36:59Z</time>
      </trkpt>
      <trkpt lat="45.97602" lon="5.5371">
        <ele>939.4</ele>
        <time>2026-05-11T10:37:00Z</time>
      </trkpt>
      <trkpt lat="45.97602" lon="5.53708">
        <ele>939.8</ele>
        <time>2026-05-11T10:37:01Z</time>
      </trkpt>
      <trkpt lat="45.97603" lon="5.53705">
        <ele>939.8</ele>
        <time>2026-05-11T10:37:02Z</time>
      </trkpt>
      <trkpt lat="45.97605" lon="5.53703">
        <ele>939.8</ele>
        <time>2026-05-11T10:37:03Z</time>
      </trkpt>
      <trkpt lat="45.97606" lon="5.53701">
        <ele>940</ele>
        <time>2026-05-11T10:37:04Z</time>
      </trkpt>
      <trkpt lat="45.97607" lon="5.537">
        <ele>940</ele>
        <time>2026-05-11T10:37:05Z</time>
      </trkpt>
      <trkpt lat="45.97608" lon="5.53698">
        <ele>940.4</ele>
        <time>2026-05-11T10:37:06Z</time>
      </trkpt>
      <trkpt lat="45.9761" lon="5.53696">
        <ele>940.4</ele>
        <time>2026-05-11T10:37:07Z</time>
      </trkpt>
      <trkpt lat="45.97611" lon="5.53694">
        <ele>940.8</ele>
        <time>2026-05-11T10:37:08Z</time>
      </trkpt>
      <trkpt lat="45.97612" lon="5.53692">
        <ele>940.8</ele>
        <time>2026-05-11T10:37:09Z</time>
      </trkpt>
      <trkpt lat="45.97613" lon="5.5369">
        <ele>940.8</ele>
        <time>2026-05-11T10:37:10Z</time>
      </trkpt>
      <trkpt lat="45.97614" lon="5.53688">
        <ele>941.2</ele>
        <time>2026-05-11T10:37:11Z</time>
      </trkpt>
      <trkpt lat="45.97616" lon="5.53686">
        <ele>941.2</ele>
        <time>2026-05-11T10:37:12Z</time>
      </trkpt>
      <trkpt lat="45.97617" lon="5.53684">
        <ele>941.6</ele>
        <time>2026-05-11T10:37:13Z</time>
      </trkpt>
      <trkpt lat="45.97618" lon="5.53682">
        <ele>941.6</ele>
        <time>2026-05-11T10:37:14Z</time>
      </trkpt>
      <trkpt lat="45.97619" lon="5.5368">
        <ele>941.8</ele>
        <time>2026-05-11T10:37:15Z</time>
      </trkpt>
      <trkpt lat="45.9762" lon="5.53679">
        <ele>941.8</ele>
        <time>2026-05-11T10:37:16Z</time>
      </trkpt>
      <trkpt lat="45.97622" lon="5.53677">
        <ele>941.8</ele>
        <time>2026-05-11T10:37:17Z</time>
      </trkpt>
      <trkpt lat="45.97624" lon="5.53675">
        <ele>942</ele>
        <time>2026-05-11T10:37:18Z</time>
      </trkpt>
      <trkpt lat="45.97626" lon="5.53674">
        <ele>942</ele>
        <time>2026-05-11T10:37:19Z</time>
      </trkpt>
      <trkpt lat="45.97628" lon="5.53672">
        <ele>942.2</ele>
        <time>2026-05-11T10:37:20Z</time>
      </trkpt>
      <trkpt lat="45.9763" lon="5.5367">
        <ele>942.4</ele>
        <time>2026-05-11T10:37:21Z</time>
      </trkpt>
      <trkpt lat="45.97632" lon="5.53668">
        <ele>942.4</ele>
        <time>2026-05-11T10:37:22Z</time>
      </trkpt>
      <trkpt lat="45.97633" lon="5.53667">
        <ele>942.4</ele>
        <time>2026-05-11T10:37:23Z</time>
      </trkpt>
      <trkpt lat="45.97635" lon="5.53665">
        <ele>942.4</ele>
        <time>2026-05-11T10:37:24Z</time>
      </trkpt>
      <trkpt lat="45.97637" lon="5.53663">
        <ele>942.4</ele>
        <time>2026-05-11T10:37:25Z</time>
      </trkpt>
      <trkpt lat="45.97639" lon="5.53662">
        <ele>942.6</ele>
        <time>2026-05-11T10:37:26Z</time>
      </trkpt>
      <trkpt lat="45.97641" lon="5.5366">
        <ele>942.6</ele>
        <time>2026-05-11T10:37:27Z</time>
      </trkpt>
      <trkpt lat="45.97643" lon="5.53659">
        <ele>942.6</ele>
        <time>2026-05-11T10:37:28Z</time>
      </trkpt>
      <trkpt lat="45.97645" lon="5.53657">
        <ele>942.6</ele>
        <time>2026-05-11T10:37:29Z</time>
      </trkpt>
      <trkpt lat="45.97647" lon="5.53655">
        <ele>943</ele>
        <time>2026-05-11T10:37:30Z</time>
      </trkpt>
      <trkpt lat="45.97648" lon="5.53653">
        <ele>943</ele>
        <time>2026-05-11T10:37:31Z</time>
      </trkpt>
      <trkpt lat="45.9765" lon="5.53651">
        <ele>943</ele>
        <time>2026-05-11T10:37:32Z</time>
      </trkpt>
      <trkpt lat="45.97652" lon="5.53649">
        <ele>943.2</ele>
        <time>2026-05-11T10:37:33Z</time>
      </trkpt>
      <trkpt lat="45.97655" lon="5.53647">
        <ele>943.2</ele>
        <time>2026-05-11T10:37:34Z</time>
      </trkpt>
      <trkpt lat="45.97657" lon="5.53645">
        <ele>943.2</ele>
        <time>2026-05-11T10:37:35Z</time>
      </trkpt>
      <trkpt lat="45.9766" lon="5.53643">
        <ele>943.2</ele>
        <time>2026-05-11T10:37:36Z</time>
      </trkpt>
      <trkpt lat="45.97662" lon="5.53642">
        <ele>943.2</ele>
        <time>2026-05-11T10:37:37Z</time>
      </trkpt>
      <trkpt lat="45.97664" lon="5.5364">
        <ele>943.2</ele>
        <time>2026-05-11T10:37:38Z</time>
      </trkpt>
      <trkpt lat="45.97666" lon="5.53638">
        <ele>943.4</ele>
        <time>2026-05-11T10:37:39Z</time>
      </trkpt>
      <trkpt lat="45.97668" lon="5.53635">
        <ele>943.4</ele>
        <time>2026-05-11T10:37:40Z</time>
      </trkpt>
      <trkpt lat="45.97671" lon="5.53633">
        <ele>943.4</ele>
        <time>2026-05-11T10:37:41Z</time>
      </trkpt>
      <trkpt lat="45.97673" lon="5.5363">
        <ele>943.4</ele>
        <time>2026-05-11T10:37:42Z</time>
      </trkpt>
      <trkpt lat="45.97675" lon="5.53628">
        <ele>943.6</ele>
        <time>2026-05-11T10:37:43Z</time>
      </trkpt>
      <trkpt lat="45.97677" lon="5.53626">
        <ele>943.6</ele>
        <time>2026-05-11T10:37:44Z</time>
      </trkpt>
      <trkpt lat="45.9768" lon="5.53624">
        <ele>943.6</ele>
        <time>2026-05-11T10:37:45Z</time>
      </trkpt>
      <trkpt lat="45.97682" lon="5.53622">
        <ele>943.6</ele>
        <time>2026-05-11T10:37:46Z</time>
      </trkpt>
      <trkpt lat="45.97684" lon="5.53619">
        <ele>944</ele>
        <time>2026-05-11T10:37:47Z</time>
      </trkpt>
      <trkpt lat="45.97687" lon="5.53617">
        <ele>944</ele>
        <time>2026-05-11T10:37:48Z</time>
      </trkpt>
      <trkpt lat="45.97689" lon="5.53614">
        <ele>944.2</ele>
        <time>2026-05-11T10:37:49Z</time>
      </trkpt>
      <trkpt lat="45.9769" lon="5.53611">
        <ele>944.2</ele>
        <time>2026-05-11T10:37:50Z</time>
      </trkpt>
      <trkpt lat="45.97692" lon="5.53608">
        <ele>944.2</ele>
        <time>2026-05-11T10:37:51Z</time>
      </trkpt>
      <trkpt lat="45.97694" lon="5.53605">
        <ele>944.2</ele>
        <time>2026-05-11T10:37:52Z</time>
      </trkpt>
      <trkpt lat="45.97696" lon="5.53603">
        <ele>944.2</ele>
        <time>2026-05-11T10:37:53Z</time>
      </trkpt>
      <trkpt lat="45.97698" lon="5.536">
        <ele>944.4</ele>
        <time>2026-05-11T10:37:54Z</time>
      </trkpt>
      <trkpt lat="45.97699" lon="5.53598">
        <ele>944.4</ele>
        <time>2026-05-11T10:37:55Z</time>
      </trkpt>
      <trkpt lat="45.97701" lon="5.53595">
        <ele>944.8</ele>
        <time>2026-05-11T10:37:56Z</time>
      </trkpt>
      <trkpt lat="45.97703" lon="5.53592">
        <ele>944.8</ele>
        <time>2026-05-11T10:37:57Z</time>
      </trkpt>
      <trkpt lat="45.97705" lon="5.53588">
        <ele>945.2</ele>
        <time>2026-05-11T10:37:58Z</time>
      </trkpt>
      <trkpt lat="45.97708" lon="5.53585">
        <ele>945.2</ele>
        <time>2026-05-11T10:37:59Z</time>
      </trkpt>
      <trkpt lat="45.97709" lon="5.53582">
        <ele>944.8</ele>
        <time>2026-05-11T10:38:00Z</time>
      </trkpt>
      <trkpt lat="45.97711" lon="5.53579">
        <ele>944.8</ele>
        <time>2026-05-11T10:38:01Z</time>
      </trkpt>
      <trkpt lat="45.97713" lon="5.53576">
        <ele>944.8</ele>
        <time>2026-05-11T10:38:02Z</time>
      </trkpt>
      <trkpt lat="45.97715" lon="5.53573">
        <ele>944.8</ele>
        <time>2026-05-11T10:38:03Z</time>
      </trkpt>
      <trkpt lat="45.97717" lon="5.5357">
        <ele>944.8</ele>
        <time>2026-05-11T10:38:04Z</time>
      </trkpt>
      <trkpt lat="45.97718" lon="5.53567">
        <ele>945</ele>
        <time>2026-05-11T10:38:05Z</time>
      </trkpt>
      <trkpt lat="45.9772" lon="5.53564">
        <ele>945</ele>
        <time>2026-05-11T10:38:06Z</time>
      </trkpt>
      <trkpt lat="45.97722" lon="5.53561">
        <ele>945</ele>
        <time>2026-05-11T10:38:07Z</time>
      </trkpt>
      <trkpt lat="45.97724" lon="5.53557">
        <ele>945</ele>
        <time>2026-05-11T10:38:08Z</time>
      </trkpt>
      <trkpt lat="45.97726" lon="5.53554">
        <ele>945.4</ele>
        <time>2026-05-11T10:38:09Z</time>
      </trkpt>
      <trkpt lat="45.97728" lon="5.53551">
        <ele>945.4</ele>
        <time>2026-05-11T10:38:10Z</time>
      </trkpt>
      <trkpt lat="45.9773" lon="5.53548">
        <ele>945.4</ele>
        <time>2026-05-11T10:38:11Z</time>
      </trkpt>
      <trkpt lat="45.97732" lon="5.53545">
        <ele>945.4</ele>
        <time>2026-05-11T10:38:12Z</time>
      </trkpt>
      <trkpt lat="45.97734" lon="5.53542">
        <ele>945.6</ele>
        <time>2026-05-11T10:38:13Z</time>
      </trkpt>
      <trkpt lat="45.97736" lon="5.5354">
        <ele>945.6</ele>
        <time>2026-05-11T10:38:14Z</time>
      </trkpt>
      <trkpt lat="45.97739" lon="5.53537">
        <ele>945.6</ele>
        <time>2026-05-11T10:38:15Z</time>
      </trkpt>
      <trkpt lat="45.97739" lon="5.53537">
        <ele>946</ele>
        <time>2026-05-11T10:38:16Z</time>
      </trkpt>
      <trkpt lat="45.97741" lon="5.53534">
        <ele>946.2</ele>
        <time>2026-05-11T10:38:17Z</time>
      </trkpt>
      <trkpt lat="45.97743" lon="5.53532">
        <ele>946.2</ele>
        <time>2026-05-11T10:38:18Z</time>
      </trkpt>
      <trkpt lat="45.97745" lon="5.53529">
        <ele>945.6</ele>
        <time>2026-05-11T10:38:19Z</time>
      </trkpt>
      <trkpt lat="45.97747" lon="5.53526">
        <ele>945.4</ele>
        <time>2026-05-11T10:38:20Z</time>
      </trkpt>
      <trkpt lat="45.97749" lon="5.53524">
        <ele>945.4</ele>
        <time>2026-05-11T10:38:21Z</time>
      </trkpt>
      <trkpt lat="45.97751" lon="5.53522">
        <ele>945.2</ele>
        <time>2026-05-11T10:38:22Z</time>
      </trkpt>
      <trkpt lat="45.97753" lon="5.5352">
        <ele>945.2</ele>
        <time>2026-05-11T10:38:23Z</time>
      </trkpt>
      <trkpt lat="45.97755" lon="5.53517">
        <ele>945.2</ele>
        <time>2026-05-11T10:38:24Z</time>
      </trkpt>
      <trkpt lat="45.97757" lon="5.53515">
        <ele>945.4</ele>
        <time>2026-05-11T10:38:25Z</time>
      </trkpt>
      <trkpt lat="45.9776" lon="5.53513">
        <ele>945.8</ele>
        <time>2026-05-11T10:38:26Z</time>
      </trkpt>
      <trkpt lat="45.97762" lon="5.5351">
        <ele>946.2</ele>
        <time>2026-05-11T10:38:27Z</time>
      </trkpt>
      <trkpt lat="45.97765" lon="5.53508">
        <ele>946.2</ele>
        <time>2026-05-11T10:38:28Z</time>
      </trkpt>
      <trkpt lat="45.97767" lon="5.53506">
        <ele>946.6</ele>
        <time>2026-05-11T10:38:29Z</time>
      </trkpt>
      <trkpt lat="45.97769" lon="5.53504">
        <ele>946.6</ele>
        <time>2026-05-11T10:38:30Z</time>
      </trkpt>
      <trkpt lat="45.97772" lon="5.53501">
        <ele>947.2</ele>
        <time>2026-05-11T10:38:31Z</time>
      </trkpt>
      <trkpt lat="45.97774" lon="5.53498">
        <ele>947.8</ele>
        <time>2026-05-11T10:38:32Z</time>
      </trkpt>
      <trkpt lat="45.97776" lon="5.53496">
        <ele>947.8</ele>
        <time>2026-05-11T10:38:33Z</time>
      </trkpt>
      <trkpt lat="45.97778" lon="5.53494">
        <ele>947.8</ele>
        <time>2026-05-11T10:38:34Z</time>
      </trkpt>
      <trkpt lat="45.97779" lon="5.53492">
        <ele>947.8</ele>
        <time>2026-05-11T10:38:35Z</time>
      </trkpt>
      <trkpt lat="45.97781" lon="5.5349">
        <ele>948</ele>
        <time>2026-05-11T10:38:36Z</time>
      </trkpt>
      <trkpt lat="45.97783" lon="5.53487">
        <ele>948</ele>
        <time>2026-05-11T10:38:37Z</time>
      </trkpt>
      <trkpt lat="45.97786" lon="5.53485">
        <ele>947.6</ele>
        <time>2026-05-11T10:38:38Z</time>
      </trkpt>
      <trkpt lat="45.97789" lon="5.53482">
        <ele>947.6</ele>
        <time>2026-05-11T10:38:39Z</time>
      </trkpt>
      <trkpt lat="45.97792" lon="5.5348">
        <ele>947.6</ele>
        <time>2026-05-11T10:38:40Z</time>
      </trkpt>
      <trkpt lat="45.97795" lon="5.53478">
        <ele>947.6</ele>
        <time>2026-05-11T10:38:41Z</time>
      </trkpt>
      <trkpt lat="45.97798" lon="5.53475">
        <ele>947.6</ele>
        <time>2026-05-11T10:38:42Z</time>
      </trkpt>
      <trkpt lat="45.97802" lon="5.53472">
        <ele>947.6</ele>
        <time>2026-05-11T10:38:43Z</time>
      </trkpt>
      <trkpt lat="45.97805" lon="5.5347">
        <ele>947.6</ele>
        <time>2026-05-11T10:38:44Z</time>
      </trkpt>
      <trkpt lat="45.97808" lon="5.53467">
        <ele>947.6</ele>
        <time>2026-05-11T10:38:45Z</time>
      </trkpt>
      <trkpt lat="45.97812" lon="5.53465">
        <ele>948</ele>
        <time>2026-05-11T10:38:46Z</time>
      </trkpt>
      <trkpt lat="45.97815" lon="5.53462">
        <ele>948</ele>
        <time>2026-05-11T10:38:47Z</time>
      </trkpt>
      <trkpt lat="45.97819" lon="5.53459">
        <ele>948</ele>
        <time>2026-05-11T10:38:48Z</time>
      </trkpt>
      <trkpt lat="45.97822" lon="5.53457">
        <ele>948</ele>
        <time>2026-05-11T10:38:49Z</time>
      </trkpt>
      <trkpt lat="45.97824" lon="5.53455">
        <ele>948</ele>
        <time>2026-05-11T10:38:50Z</time>
      </trkpt>
      <trkpt lat="45.97826" lon="5.53452">
        <ele>948</ele>
        <time>2026-05-11T10:38:51Z</time>
      </trkpt>
      <trkpt lat="45.97829" lon="5.5345">
        <ele>948.4</ele>
        <time>2026-05-11T10:38:52Z</time>
      </trkpt>
      <trkpt lat="45.97831" lon="5.53447">
        <ele>948.4</ele>
        <time>2026-05-11T10:38:53Z</time>
      </trkpt>
      <trkpt lat="45.97834" lon="5.53444">
        <ele>948.6</ele>
        <time>2026-05-11T10:38:54Z</time>
      </trkpt>
      <trkpt lat="45.97836" lon="5.53442">
        <ele>948.6</ele>
        <time>2026-05-11T10:38:55Z</time>
      </trkpt>
      <trkpt lat="45.97838" lon="5.53439">
        <ele>948.8</ele>
        <time>2026-05-11T10:38:56Z</time>
      </trkpt>
      <trkpt lat="45.9784" lon="5.53437">
        <ele>948.8</ele>
        <time>2026-05-11T10:38:57Z</time>
      </trkpt>
      <trkpt lat="45.97845" lon="5.53432">
        <ele>948.8</ele>
        <time>2026-05-11T10:38:58Z</time>
      </trkpt>
      <trkpt lat="45.97846" lon="5.5343">
        <ele>948.8</ele>
        <time>2026-05-11T10:38:59Z</time>
      </trkpt>
      <trkpt lat="45.97848" lon="5.53429">
        <ele>948.8</ele>
        <time>2026-05-11T10:39:00Z</time>
      </trkpt>
      <trkpt lat="45.9785" lon="5.53428">
        <ele>948.8</ele>
        <time>2026-05-11T10:39:01Z</time>
      </trkpt>
      <trkpt lat="45.9785" lon="5.53428">
        <ele>949</ele>
        <time>2026-05-11T10:39:02Z</time>
      </trkpt>
      <trkpt lat="45.9785" lon="5.53428">
        <ele>949</ele>
        <time>2026-05-11T10:39:03Z</time>
      </trkpt>
      <trkpt lat="45.9785" lon="5.53428">
        <ele>949</ele>
        <time>2026-05-11T10:39:04Z</time>
      </trkpt>
      <trkpt lat="45.97851" lon="5.53425">
        <ele>948.8</ele>
        <time>2026-05-11T10:40:08Z</time>
      </trkpt>
      <trkpt lat="45.97853" lon="5.53425">
        <ele>948.8</ele>
        <time>2026-05-11T10:40:09Z</time>
      </trkpt>
      <trkpt lat="45.97854" lon="5.53425">
        <ele>948.6</ele>
        <time>2026-05-11T10:40:10Z</time>
      </trkpt>
      <trkpt lat="45.97855" lon="5.53425">
        <ele>948.6</ele>
        <time>2026-05-11T10:40:11Z</time>
      </trkpt>
      <trkpt lat="45.97857" lon="5.53425">
        <ele>948.8</ele>
        <time>2026-05-11T10:40:12Z</time>
      </trkpt>
      <trkpt lat="45.97858" lon="5.53425">
        <ele>948.8</ele>
        <time>2026-05-11T10:40:13Z</time>
      </trkpt>
      <trkpt lat="45.97858" lon="5.53425">
        <ele>948.8</ele>
        <time>2026-05-11T10:40:14Z</time>
      </trkpt>
      <trkpt lat="45.97857" lon="5.53425">
        <ele>948.8</ele>
        <time>2026-05-11T10:40:15Z</time>
      </trkpt>
      <trkpt lat="45.97859" lon="5.53426">
        <ele>949</ele>
        <time>2026-05-11T10:40:52Z</time>
      </trkpt>
      <trkpt lat="45.97861" lon="5.53425">
        <ele>949</ele>
        <time>2026-05-11T10:40:53Z</time>
      </trkpt>
      <trkpt lat="45.97863" lon="5.53424">
        <ele>949</ele>
        <time>2026-05-11T10:40:54Z</time>
      </trkpt>
      <trkpt lat="45.97864" lon="5.53423">
        <ele>948.6</ele>
        <time>2026-05-11T10:40:55Z</time>
      </trkpt>
      <trkpt lat="45.97866" lon="5.53422">
        <ele>948.6</ele>
        <time>2026-05-11T10:40:56Z</time>
      </trkpt>
      <trkpt lat="45.97868" lon="5.5342">
        <ele>948.6</ele>
        <time>2026-05-11T10:40:57Z</time>
      </trkpt>
      <trkpt lat="45.97871" lon="5.53419">
        <ele>948.6</ele>
        <time>2026-05-11T10:40:58Z</time>
      </trkpt>
      <trkpt lat="45.97873" lon="5.53418">
        <ele>948.6</ele>
        <time>2026-05-11T10:40:59Z</time>
      </trkpt>
      <trkpt lat="45.97876" lon="5.53416">
        <ele>948.4</ele>
        <time>2026-05-11T10:41:00Z</time>
      </trkpt>
      <trkpt lat="45.97878" lon="5.53414">
        <ele>948.6</ele>
        <time>2026-05-11T10:41:01Z</time>
      </trkpt>
      <trkpt lat="45.97881" lon="5.53412">
        <ele>948.6</ele>
        <time>2026-05-11T10:41:02Z</time>
      </trkpt>
      <trkpt lat="45.97883" lon="5.5341">
        <ele>948.6</ele>
        <time>2026-05-11T10:41:03Z</time>
      </trkpt>
      <trkpt lat="45.97886" lon="5.53408">
        <ele>948.8</ele>
        <time>2026-05-11T10:41:04Z</time>
      </trkpt>
      <trkpt lat="45.97889" lon="5.53406">
        <ele>948.8</ele>
        <time>2026-05-11T10:41:05Z</time>
      </trkpt>
      <trkpt lat="45.97892" lon="5.53403">
        <ele>948.8</ele>
        <time>2026-05-11T10:41:06Z</time>
      </trkpt>
      <trkpt lat="45.97895" lon="5.53401">
        <ele>948.8</ele>
        <time>2026-05-11T10:41:07Z</time>
      </trkpt>
      <trkpt lat="45.97898" lon="5.53398">
        <ele>948.8</ele>
        <time>2026-05-11T10:41:08Z</time>
      </trkpt>
      <trkpt lat="45.97901" lon="5.53396">
        <ele>949.2</ele>
        <time>2026-05-11T10:41:09Z</time>
      </trkpt>
      <trkpt lat="45.97904" lon="5.53394">
        <ele>949.6</ele>
        <time>2026-05-11T10:41:10Z</time>
      </trkpt>
      <trkpt lat="45.97907" lon="5.53392">
        <ele>949.6</ele>
        <time>2026-05-11T10:41:11Z</time>
      </trkpt>
      <trkpt lat="45.9791" lon="5.53389">
        <ele>949.2</ele>
        <time>2026-05-11T10:41:12Z</time>
      </trkpt>
      <trkpt lat="45.97912" lon="5.53387">
        <ele>949.2</ele>
        <time>2026-05-11T10:41:13Z</time>
      </trkpt>
      <trkpt lat="45.97915" lon="5.53385">
        <ele>949.6</ele>
        <time>2026-05-11T10:41:14Z</time>
      </trkpt>
      <trkpt lat="45.97918" lon="5.53383">
        <ele>949.6</ele>
        <time>2026-05-11T10:41:15Z</time>
      </trkpt>
      <trkpt lat="45.97921" lon="5.53381">
        <ele>949.8</ele>
        <time>2026-05-11T10:41:16Z</time>
      </trkpt>
      <trkpt lat="45.97923" lon="5.53379">
        <ele>949.8</ele>
        <time>2026-05-11T10:41:17Z</time>
      </trkpt>
      <trkpt lat="45.97926" lon="5.53377">
        <ele>949.8</ele>
        <time>2026-05-11T10:41:18Z</time>
      </trkpt>
      <trkpt lat="45.97928" lon="5.53375">
        <ele>949.8</ele>
        <time>2026-05-11T10:41:19Z</time>
      </trkpt>
      <trkpt lat="45.9793" lon="5.53372">
        <ele>949.8</ele>
        <time>2026-05-11T10:41:20Z</time>
      </trkpt>
      <trkpt lat="45.97933" lon="5.5337">
        <ele>949.8</ele>
        <time>2026-05-11T10:41:21Z</time>
      </trkpt>
      <trkpt lat="45.97936" lon="5.53368">
        <ele>949.8</ele>
        <time>2026-05-11T10:41:22Z</time>
      </trkpt>
      <trkpt lat="45.97939" lon="5.53366">
        <ele>950.2</ele>
        <time>2026-05-11T10:41:23Z</time>
      </trkpt>
      <trkpt lat="45.97942" lon="5.53364">
        <ele>950.2</ele>
        <time>2026-05-11T10:41:24Z</time>
      </trkpt>
      <trkpt lat="45.97945" lon="5.53361">
        <ele>950.2</ele>
        <time>2026-05-11T10:41:25Z</time>
      </trkpt>
      <trkpt lat="45.97947" lon="5.53357">
        <ele>950.2</ele>
        <time>2026-05-11T10:41:26Z</time>
      </trkpt>
      <trkpt lat="45.97949" lon="5.53354">
        <ele>950.2</ele>
        <time>2026-05-11T10:41:27Z</time>
      </trkpt>
      <trkpt lat="45.97951" lon="5.5335">
        <ele>950.2</ele>
        <time>2026-05-11T10:41:28Z</time>
      </trkpt>
      <trkpt lat="45.97953" lon="5.53346">
        <ele>950.4</ele>
        <time>2026-05-11T10:41:29Z</time>
      </trkpt>
      <trkpt lat="45.97954" lon="5.53341">
        <ele>950.2</ele>
        <time>2026-05-11T10:41:30Z</time>
      </trkpt>
      <trkpt lat="45.97954" lon="5.53337">
        <ele>950.2</ele>
        <time>2026-05-11T10:41:31Z</time>
      </trkpt>
      <trkpt lat="45.97954" lon="5.53332">
        <ele>949.8</ele>
        <time>2026-05-11T10:41:32Z</time>
      </trkpt>
      <trkpt lat="45.97954" lon="5.53328">
        <ele>949.8</ele>
        <time>2026-05-11T10:41:33Z</time>
      </trkpt>
      <trkpt lat="45.97954" lon="5.53324">
        <ele>950.2</ele>
        <time>2026-05-11T10:41:34Z</time>
      </trkpt>
      <trkpt lat="45.97955" lon="5.53321">
        <ele>949.8</ele>
        <time>2026-05-11T10:41:35Z</time>
      </trkpt>
      <trkpt lat="45.97955" lon="5.53317">
        <ele>949.8</ele>
        <time>2026-05-11T10:41:36Z</time>
      </trkpt>
      <trkpt lat="45.97956" lon="5.53313">
        <ele>949.8</ele>
        <time>2026-05-11T10:41:37Z</time>
      </trkpt>
      <trkpt lat="45.97958" lon="5.5331">
        <ele>949.8</ele>
        <time>2026-05-11T10:41:38Z</time>
      </trkpt>
      <trkpt lat="45.97961" lon="5.53307">
        <ele>949.8</ele>
        <time>2026-05-11T10:41:39Z</time>
      </trkpt>
      <trkpt lat="45.97965" lon="5.53304">
        <ele>949.6</ele>
        <time>2026-05-11T10:41:40Z</time>
      </trkpt>
      <trkpt lat="45.97973" lon="5.53303">
        <ele>949.6</ele>
        <time>2026-05-11T10:41:41Z</time>
      </trkpt>
      <trkpt lat="45.97978" lon="5.53301">
        <ele>949.2</ele>
        <time>2026-05-11T10:41:42Z</time>
      </trkpt>
      <trkpt lat="45.97982" lon="5.53299">
        <ele>949</ele>
        <time>2026-05-11T10:41:43Z</time>
      </trkpt>
      <trkpt lat="45.97986" lon="5.533">
        <ele>948.4</ele>
        <time>2026-05-11T10:41:44Z</time>
      </trkpt>
      <trkpt lat="45.9799" lon="5.53297">
        <ele>948</ele>
        <time>2026-05-11T10:41:45Z</time>
      </trkpt>
      <trkpt lat="45.97996" lon="5.53296">
        <ele>947.6</ele>
        <time>2026-05-11T10:41:46Z</time>
      </trkpt>
      <trkpt lat="45.98" lon="5.53295">
        <ele>947</ele>
        <time>2026-05-11T10:41:47Z</time>
      </trkpt>
      <trkpt lat="45.98002" lon="5.53293">
        <ele>946.4</ele>
        <time>2026-05-11T10:41:48Z</time>
      </trkpt>
      <trkpt lat="45.98005" lon="5.5329">
        <ele>946.4</ele>
        <time>2026-05-11T10:41:49Z</time>
      </trkpt>
      <trkpt lat="45.9801" lon="5.53282">
        <ele>945.4</ele>
        <time>2026-05-11T10:41:50Z</time>
      </trkpt>
      <trkpt lat="45.98016" lon="5.53279">
        <ele>946</ele>
        <time>2026-05-11T10:41:51Z</time>
      </trkpt>
      <trkpt lat="45.98019" lon="5.53277">
        <ele>945.8</ele>
        <time>2026-05-11T10:41:52Z</time>
      </trkpt>
      <trkpt lat="45.98025" lon="5.53272">
        <ele>944.8</ele>
        <time>2026-05-11T10:41:53Z</time>
      </trkpt>
      <trkpt lat="45.9803" lon="5.53266">
        <ele>944.8</ele>
        <time>2026-05-11T10:41:54Z</time>
      </trkpt>
      <trkpt lat="45.98035" lon="5.5326">
        <ele>944.8</ele>
        <time>2026-05-11T10:41:55Z</time>
      </trkpt>
      <trkpt lat="45.98039" lon="5.53256">
        <ele>944.2</ele>
        <time>2026-05-11T10:41:56Z</time>
      </trkpt>
      <trkpt lat="45.98042" lon="5.53249">
        <ele>944.2</ele>
        <time>2026-05-11T10:41:57Z</time>
      </trkpt>
      <trkpt lat="45.98048" lon="5.53244">
        <ele>943.8</ele>
        <time>2026-05-11T10:41:58Z</time>
      </trkpt>
      <trkpt lat="45.98052" lon="5.53239">
        <ele>942.8</ele>
        <time>2026-05-11T10:41:59Z</time>
      </trkpt>
      <trkpt lat="45.98062" lon="5.53238">
        <ele>942.4</ele>
        <time>2026-05-11T10:42:00Z</time>
      </trkpt>
      <trkpt lat="45.98066" lon="5.53232">
        <ele>942</ele>
        <time>2026-05-11T10:42:01Z</time>
      </trkpt>
      <trkpt lat="45.98072" lon="5.53226">
        <ele>941.6</ele>
        <time>2026-05-11T10:42:02Z</time>
      </trkpt>
      <trkpt lat="45.98078" lon="5.53221">
        <ele>941</ele>
        <time>2026-05-11T10:42:03Z</time>
      </trkpt>
      <trkpt lat="45.98083" lon="5.53215">
        <ele>940.8</ele>
        <time>2026-05-11T10:42:04Z</time>
      </trkpt>
      <trkpt lat="45.98089" lon="5.53207">
        <ele>940.8</ele>
        <time>2026-05-11T10:42:05Z</time>
      </trkpt>
      <trkpt lat="45.98093" lon="5.53201">
        <ele>940.4</ele>
        <time>2026-05-11T10:42:06Z</time>
      </trkpt>
      <trkpt lat="45.98101" lon="5.53195">
        <ele>940.2</ele>
        <time>2026-05-11T10:42:07Z</time>
      </trkpt>
      <trkpt lat="45.98106" lon="5.53187">
        <ele>940.2</ele>
        <time>2026-05-11T10:42:08Z</time>
      </trkpt>
      <trkpt lat="45.98111" lon="5.53179">
        <ele>940.2</ele>
        <time>2026-05-11T10:42:09Z</time>
      </trkpt>
      <trkpt lat="45.98118" lon="5.53172">
        <ele>939.6</ele>
        <time>2026-05-11T10:42:10Z</time>
      </trkpt>
      <trkpt lat="45.98126" lon="5.5317">
        <ele>939.6</ele>
        <time>2026-05-11T10:42:11Z</time>
      </trkpt>
      <trkpt lat="45.98132" lon="5.53168">
        <ele>939.6</ele>
        <time>2026-05-11T10:42:12Z</time>
      </trkpt>
      <trkpt lat="45.9814" lon="5.53162">
        <ele>939.6</ele>
        <time>2026-05-11T10:42:13Z</time>
      </trkpt>
      <trkpt lat="45.98146" lon="5.53158">
        <ele>939</ele>
        <time>2026-05-11T10:42:14Z</time>
      </trkpt>
      <trkpt lat="45.98152" lon="5.53155">
        <ele>938.8</ele>
        <time>2026-05-11T10:42:15Z</time>
      </trkpt>
      <trkpt lat="45.98159" lon="5.5315">
        <ele>938.8</ele>
        <time>2026-05-11T10:42:16Z</time>
      </trkpt>
      <trkpt lat="45.98165" lon="5.53145">
        <ele>938.8</ele>
        <time>2026-05-11T10:42:17Z</time>
      </trkpt>
      <trkpt lat="45.9817" lon="5.53139">
        <ele>937.8</ele>
        <time>2026-05-11T10:42:18Z</time>
      </trkpt>
      <trkpt lat="45.98175" lon="5.53133">
        <ele>937.2</ele>
        <time>2026-05-11T10:42:19Z</time>
      </trkpt>
      <trkpt lat="45.98181" lon="5.53128">
        <ele>937.2</ele>
        <time>2026-05-11T10:42:20Z</time>
      </trkpt>
      <trkpt lat="45.98187" lon="5.53124">
        <ele>937.2</ele>
        <time>2026-05-11T10:42:21Z</time>
      </trkpt>
      <trkpt lat="45.98195" lon="5.53122">
        <ele>937.2</ele>
        <time>2026-05-11T10:42:22Z</time>
      </trkpt>
      <trkpt lat="45.98201" lon="5.53121">
        <ele>937</ele>
        <time>2026-05-11T10:42:23Z</time>
      </trkpt>
      <trkpt lat="45.98202" lon="5.53116">
        <ele>937</ele>
        <time>2026-05-11T10:42:24Z</time>
      </trkpt>
      <trkpt lat="45.98207" lon="5.53114">
        <ele>937</ele>
        <time>2026-05-11T10:42:25Z</time>
      </trkpt>
      <trkpt lat="45.98212" lon="5.53112">
        <ele>937</ele>
        <time>2026-05-11T10:42:26Z</time>
      </trkpt>
      <trkpt lat="45.98215" lon="5.5311">
        <ele>937</ele>
        <time>2026-05-11T10:42:27Z</time>
      </trkpt>
      <trkpt lat="45.98217" lon="5.53109">
        <ele>937</ele>
        <time>2026-05-11T10:42:28Z</time>
      </trkpt>
      <trkpt lat="45.9822" lon="5.53107">
        <ele>937</ele>
        <time>2026-05-11T10:42:29Z</time>
      </trkpt>
      <trkpt lat="45.98224" lon="5.53102">
        <ele>937</ele>
        <time>2026-05-11T10:42:30Z</time>
      </trkpt>
      <trkpt lat="45.98228" lon="5.53098">
        <ele>937</ele>
        <time>2026-05-11T10:42:31Z</time>
      </trkpt>
      <trkpt lat="45.98232" lon="5.53095">
        <ele>937.4</ele>
        <time>2026-05-11T10:42:32Z</time>
      </trkpt>
      <trkpt lat="45.98235" lon="5.53089">
        <ele>937.4</ele>
        <time>2026-05-11T10:42:33Z</time>
      </trkpt>
      <trkpt lat="45.98235" lon="5.53085">
        <ele>937.4</ele>
        <time>2026-05-11T10:42:34Z</time>
      </trkpt>
      <trkpt lat="45.98238" lon="5.5308">
        <ele>937.4</ele>
        <time>2026-05-11T10:42:35Z</time>
      </trkpt>
      <trkpt lat="45.98242" lon="5.53076">
        <ele>937.4</ele>
        <time>2026-05-11T10:42:36Z</time>
      </trkpt>
      <trkpt lat="45.98243" lon="5.53072">
        <ele>937.6</ele>
        <time>2026-05-11T10:42:37Z</time>
      </trkpt>
      <trkpt lat="45.98246" lon="5.53069">
        <ele>938</ele>
        <time>2026-05-11T10:42:38Z</time>
      </trkpt>
      <trkpt lat="45.9825" lon="5.53066">
        <ele>938</ele>
        <time>2026-05-11T10:42:39Z</time>
      </trkpt>
      <trkpt lat="45.98252" lon="5.53061">
        <ele>938</ele>
        <time>2026-05-11T10:42:40Z</time>
      </trkpt>
      <trkpt lat="45.98255" lon="5.53057">
        <ele>938</ele>
        <time>2026-05-11T10:42:41Z</time>
      </trkpt>
      <trkpt lat="45.98256" lon="5.53055">
        <ele>938.2</ele>
        <time>2026-05-11T10:42:42Z</time>
      </trkpt>
      <trkpt lat="45.98257" lon="5.53051">
        <ele>938.2</ele>
        <time>2026-05-11T10:42:43Z</time>
      </trkpt>
      <trkpt lat="45.98258" lon="5.53048">
        <ele>938.2</ele>
        <time>2026-05-11T10:42:44Z</time>
      </trkpt>
      <trkpt lat="45.98258" lon="5.53048">
        <ele>938.2</ele>
        <time>2026-05-11T10:42:45Z</time>
      </trkpt>
      <trkpt lat="45.98259" lon="5.53045">
        <ele>938.6</ele>
        <time>2026-05-11T10:42:46Z</time>
      </trkpt>
      <trkpt lat="45.98263" lon="5.53039">
        <ele>939</ele>
        <time>2026-05-11T10:42:47Z</time>
      </trkpt>
      <trkpt lat="45.98267" lon="5.53036">
        <ele>939</ele>
        <time>2026-05-11T10:42:48Z</time>
      </trkpt>
      <trkpt lat="45.98269" lon="5.53032">
        <ele>939.4</ele>
        <time>2026-05-11T10:42:49Z</time>
      </trkpt>
      <trkpt lat="45.98271" lon="5.53027">
        <ele>939.6</ele>
        <time>2026-05-11T10:42:50Z</time>
      </trkpt>
      <trkpt lat="45.98273" lon="5.53024">
        <ele>939.8</ele>
        <time>2026-05-11T10:42:51Z</time>
      </trkpt>
      <trkpt lat="45.98274" lon="5.5302">
        <ele>939.8</ele>
        <time>2026-05-11T10:42:52Z</time>
      </trkpt>
      <trkpt lat="45.98274" lon="5.53016">
        <ele>939.8</ele>
        <time>2026-05-11T10:42:53Z</time>
      </trkpt>
      <trkpt lat="45.98273" lon="5.53011">
        <ele>940.2</ele>
        <time>2026-05-11T10:42:54Z</time>
      </trkpt>
      <trkpt lat="45.9827" lon="5.53006">
        <ele>939.8</ele>
        <time>2026-05-11T10:42:55Z</time>
      </trkpt>
      <trkpt lat="45.98268" lon="5.53002">
        <ele>939.8</ele>
        <time>2026-05-11T10:42:56Z</time>
      </trkpt>
      <trkpt lat="45.98266" lon="5.52998">
        <ele>939.8</ele>
        <time>2026-05-11T10:42:57Z</time>
      </trkpt>
      <trkpt lat="45.98263" lon="5.52993">
        <ele>939.4</ele>
        <time>2026-05-11T10:42:58Z</time>
      </trkpt>
      <trkpt lat="45.9826" lon="5.52988">
        <ele>939.4</ele>
        <time>2026-05-11T10:42:59Z</time>
      </trkpt>
      <trkpt lat="45.98256" lon="5.52985">
        <ele>939.4</ele>
        <time>2026-05-11T10:43:00Z</time>
      </trkpt>
      <trkpt lat="45.98253" lon="5.52981">
        <ele>939.2</ele>
        <time>2026-05-11T10:43:01Z</time>
      </trkpt>
      <trkpt lat="45.9825" lon="5.52978">
        <ele>938.8</ele>
        <time>2026-05-11T10:43:02Z</time>
      </trkpt>
      <trkpt lat="45.98247" lon="5.52974">
        <ele>939.2</ele>
        <time>2026-05-11T10:43:03Z</time>
      </trkpt>
      <trkpt lat="45.98243" lon="5.52971">
        <ele>939.2</ele>
        <time>2026-05-11T10:43:04Z</time>
      </trkpt>
      <trkpt lat="45.9824" lon="5.52969">
        <ele>939.2</ele>
        <time>2026-05-11T10:43:05Z</time>
      </trkpt>
      <trkpt lat="45.98237" lon="5.52966">
        <ele>939.2</ele>
        <time>2026-05-11T10:43:06Z</time>
      </trkpt>
      <trkpt lat="45.98235" lon="5.52961">
        <ele>939.4</ele>
        <time>2026-05-11T10:43:07Z</time>
      </trkpt>
      <trkpt lat="45.9823" lon="5.52958">
        <ele>939.4</ele>
        <time>2026-05-11T10:43:08Z</time>
      </trkpt>
      <trkpt lat="45.98229" lon="5.52954">
        <ele>939.4</ele>
        <time>2026-05-11T10:43:09Z</time>
      </trkpt>
      <trkpt lat="45.98226" lon="5.5295">
        <ele>939.6</ele>
        <time>2026-05-11T10:43:10Z</time>
      </trkpt>
      <trkpt lat="45.98224" lon="5.52948">
        <ele>939.6</ele>
        <time>2026-05-11T10:43:11Z</time>
      </trkpt>
      <trkpt lat="45.98221" lon="5.52946">
        <ele>939.8</ele>
        <time>2026-05-11T10:43:12Z</time>
      </trkpt>
      <trkpt lat="45.98218" lon="5.52943">
        <ele>939.8</ele>
        <time>2026-05-11T10:43:13Z</time>
      </trkpt>
      <trkpt lat="45.98216" lon="5.52939">
        <ele>939.8</ele>
        <time>2026-05-11T10:43:14Z</time>
      </trkpt>
      <trkpt lat="45.98215" lon="5.52936">
        <ele>939.8</ele>
        <time>2026-05-11T10:43:15Z</time>
      </trkpt>
      <trkpt lat="45.98214" lon="5.52931">
        <ele>939.8</ele>
        <time>2026-05-11T10:43:16Z</time>
      </trkpt>
      <trkpt lat="45.98212" lon="5.52925">
        <ele>939.8</ele>
        <time>2026-05-11T10:43:17Z</time>
      </trkpt>
      <trkpt lat="45.98211" lon="5.52919">
        <ele>939.8</ele>
        <time>2026-05-11T10:43:18Z</time>
      </trkpt>
      <trkpt lat="45.9821" lon="5.52912">
        <ele>939.6</ele>
        <time>2026-05-11T10:43:19Z</time>
      </trkpt>
      <trkpt lat="45.98209" lon="5.52906">
        <ele>939.4</ele>
        <time>2026-05-11T10:43:20Z</time>
      </trkpt>
      <trkpt lat="45.98208" lon="5.52899">
        <ele>939.4</ele>
        <time>2026-05-11T10:43:21Z</time>
      </trkpt>
      <trkpt lat="45.98207" lon="5.52893">
        <ele>939.4</ele>
        <time>2026-05-11T10:43:22Z</time>
      </trkpt>
      <trkpt lat="45.98206" lon="5.52887">
        <ele>939.4</ele>
        <time>2026-05-11T10:43:23Z</time>
      </trkpt>
      <trkpt lat="45.98206" lon="5.52881">
        <ele>939.4</ele>
        <time>2026-05-11T10:43:24Z</time>
      </trkpt>
      <trkpt lat="45.98205" lon="5.52876">
        <ele>939.4</ele>
        <time>2026-05-11T10:43:25Z</time>
      </trkpt>
      <trkpt lat="45.98203" lon="5.5287">
        <ele>939.4</ele>
        <time>2026-05-11T10:43:26Z</time>
      </trkpt>
      <trkpt lat="45.98201" lon="5.52865">
        <ele>939.4</ele>
        <time>2026-05-11T10:43:27Z</time>
      </trkpt>
      <trkpt lat="45.982" lon="5.52861">
        <ele>939.4</ele>
        <time>2026-05-11T10:43:28Z</time>
      </trkpt>
      <trkpt lat="45.98198" lon="5.52857">
        <ele>940</ele>
        <time>2026-05-11T10:43:29Z</time>
      </trkpt>
      <trkpt lat="45.98196" lon="5.52853">
        <ele>940.2</ele>
        <time>2026-05-11T10:43:30Z</time>
      </trkpt>
      <trkpt lat="45.98194" lon="5.5285">
        <ele>940.6</ele>
        <time>2026-05-11T10:43:31Z</time>
      </trkpt>
      <trkpt lat="45.98193" lon="5.52848">
        <ele>941</ele>
        <time>2026-05-11T10:43:32Z</time>
      </trkpt>
      <trkpt lat="45.98192" lon="5.52845">
        <ele>941.2</ele>
        <time>2026-05-11T10:43:33Z</time>
      </trkpt>
      <trkpt lat="45.9819" lon="5.52842">
        <ele>941.6</ele>
        <time>2026-05-11T10:43:34Z</time>
      </trkpt>
      <trkpt lat="45.98189" lon="5.5284">
        <ele>941.8</ele>
        <time>2026-05-11T10:43:35Z</time>
      </trkpt>
      <trkpt lat="45.98187" lon="5.52838">
        <ele>941.8</ele>
        <time>2026-05-11T10:43:36Z</time>
      </trkpt>
      <trkpt lat="45.98186" lon="5.52836">
        <ele>941.8</ele>
        <time>2026-05-11T10:43:37Z</time>
      </trkpt>
      <trkpt lat="45.98185" lon="5.52833">
        <ele>942.2</ele>
        <time>2026-05-11T10:43:38Z</time>
      </trkpt>
      <trkpt lat="45.98184" lon="5.52832">
        <ele>942.6</ele>
        <time>2026-05-11T10:43:39Z</time>
      </trkpt>
      <trkpt lat="45.98183" lon="5.5283">
        <ele>942.8</ele>
        <time>2026-05-11T10:43:40Z</time>
      </trkpt>
      <trkpt lat="45.98181" lon="5.52828">
        <ele>942.8</ele>
        <time>2026-05-11T10:43:41Z</time>
      </trkpt>
      <trkpt lat="45.9818" lon="5.52827">
        <ele>943.2</ele>
        <time>2026-05-11T10:43:42Z</time>
      </trkpt>
      <trkpt lat="45.98179" lon="5.52825">
        <ele>943.4</ele>
        <time>2026-05-11T10:43:43Z</time>
      </trkpt>
      <trkpt lat="45.98177" lon="5.52821">
        <ele>943.4</ele>
        <time>2026-05-11T10:43:44Z</time>
      </trkpt>
      <trkpt lat="45.98176" lon="5.52819">
        <ele>943.4</ele>
        <time>2026-05-11T10:43:45Z</time>
      </trkpt>
      <trkpt lat="45.98175" lon="5.52818">
        <ele>944</ele>
        <time>2026-05-11T10:43:46Z</time>
      </trkpt>
      <trkpt lat="45.98173" lon="5.52816">
        <ele>944.2</ele>
        <time>2026-05-11T10:43:47Z</time>
      </trkpt>
      <trkpt lat="45.98172" lon="5.52815">
        <ele>944.4</ele>
        <time>2026-05-11T10:43:48Z</time>
      </trkpt>
      <trkpt lat="45.9817" lon="5.52813">
        <ele>944.4</ele>
        <time>2026-05-11T10:43:49Z</time>
      </trkpt>
      <trkpt lat="45.98169" lon="5.52812">
        <ele>944.8</ele>
        <time>2026-05-11T10:43:50Z</time>
      </trkpt>
      <trkpt lat="45.98168" lon="5.52811">
        <ele>944.8</ele>
        <time>2026-05-11T10:43:51Z</time>
      </trkpt>
      <trkpt lat="45.98167" lon="5.5281">
        <ele>945</ele>
        <time>2026-05-11T10:43:52Z</time>
      </trkpt>
      <trkpt lat="45.98165" lon="5.52808">
        <ele>945.2</ele>
        <time>2026-05-11T10:43:53Z</time>
      </trkpt>
      <trkpt lat="45.98164" lon="5.52807">
        <ele>945.6</ele>
        <time>2026-05-11T10:43:54Z</time>
      </trkpt>
      <trkpt lat="45.98162" lon="5.52806">
        <ele>945.6</ele>
        <time>2026-05-11T10:43:55Z</time>
      </trkpt>
      <trkpt lat="45.98161" lon="5.52805">
        <ele>945.8</ele>
        <time>2026-05-11T10:43:56Z</time>
      </trkpt>
      <trkpt lat="45.9816" lon="5.52804">
        <ele>946.2</ele>
        <time>2026-05-11T10:43:57Z</time>
      </trkpt>
      <trkpt lat="45.98158" lon="5.52802">
        <ele>946.2</ele>
        <time>2026-05-11T10:43:58Z</time>
      </trkpt>
      <trkpt lat="45.98156" lon="5.52801">
        <ele>946.4</ele>
        <time>2026-05-11T10:43:59Z</time>
      </trkpt>
      <trkpt lat="45.98155" lon="5.528">
        <ele>946.4</ele>
        <time>2026-05-11T10:44:00Z</time>
      </trkpt>
      <trkpt lat="45.98153" lon="5.52798">
        <ele>946.4</ele>
        <time>2026-05-11T10:44:01Z</time>
      </trkpt>
      <trkpt lat="45.98151" lon="5.52797">
        <ele>946.8</ele>
        <time>2026-05-11T10:44:02Z</time>
      </trkpt>
      <trkpt lat="45.9815" lon="5.52795">
        <ele>947</ele>
        <time>2026-05-11T10:44:03Z</time>
      </trkpt>
      <trkpt lat="45.98149" lon="5.52793">
        <ele>947</ele>
        <time>2026-05-11T10:44:04Z</time>
      </trkpt>
      <trkpt lat="45.98148" lon="5.52791">
        <ele>947.2</ele>
        <time>2026-05-11T10:44:05Z</time>
      </trkpt>
      <trkpt lat="45.98148" lon="5.52788">
        <ele>947.2</ele>
        <time>2026-05-11T10:44:06Z</time>
      </trkpt>
      <trkpt lat="45.98147" lon="5.52786">
        <ele>947.6</ele>
        <time>2026-05-11T10:44:07Z</time>
      </trkpt>
      <trkpt lat="45.98147" lon="5.52783">
        <ele>947.6</ele>
        <time>2026-05-11T10:44:08Z</time>
      </trkpt>
      <trkpt lat="45.98147" lon="5.52782">
        <ele>947.6</ele>
        <time>2026-05-11T10:44:09Z</time>
      </trkpt>
      <trkpt lat="45.98146" lon="5.5278">
        <ele>948</ele>
        <time>2026-05-11T10:44:10Z</time>
      </trkpt>
      <trkpt lat="45.98145" lon="5.52778">
        <ele>948</ele>
        <time>2026-05-11T10:44:11Z</time>
      </trkpt>
      <trkpt lat="45.98145" lon="5.52776">
        <ele>948</ele>
        <time>2026-05-11T10:44:12Z</time>
      </trkpt>
      <trkpt lat="45.98145" lon="5.52774">
        <ele>948</ele>
        <time>2026-05-11T10:44:13Z</time>
      </trkpt>
      <trkpt lat="45.98144" lon="5.52771">
        <ele>948.2</ele>
        <time>2026-05-11T10:44:14Z</time>
      </trkpt>
      <trkpt lat="45.98144" lon="5.52769">
        <ele>948.2</ele>
        <time>2026-05-11T10:44:15Z</time>
      </trkpt>
      <trkpt lat="45.98143" lon="5.52767">
        <ele>948.2</ele>
        <time>2026-05-11T10:44:16Z</time>
      </trkpt>
      <trkpt lat="45.98143" lon="5.52765">
        <ele>948.2</ele>
        <time>2026-05-11T10:44:17Z</time>
      </trkpt>
      <trkpt lat="45.98142" lon="5.52763">
        <ele>948.4</ele>
        <time>2026-05-11T10:44:18Z</time>
      </trkpt>
      <trkpt lat="45.98142" lon="5.5276">
        <ele>948.4</ele>
        <time>2026-05-11T10:44:19Z</time>
      </trkpt>
      <trkpt lat="45.98141" lon="5.52758">
        <ele>948.8</ele>
        <time>2026-05-11T10:44:20Z</time>
      </trkpt>
      <trkpt lat="45.9814" lon="5.52756">
        <ele>948.8</ele>
        <time>2026-05-11T10:44:21Z</time>
      </trkpt>
      <trkpt lat="45.98139" lon="5.52753">
        <ele>948.8</ele>
        <time>2026-05-11T10:44:22Z</time>
      </trkpt>
      <trkpt lat="45.98138" lon="5.5275">
        <ele>948.8</ele>
        <time>2026-05-11T10:44:23Z</time>
      </trkpt>
      <trkpt lat="45.98137" lon="5.52748">
        <ele>949</ele>
        <time>2026-05-11T10:44:24Z</time>
      </trkpt>
      <trkpt lat="45.98136" lon="5.52746">
        <ele>949</ele>
        <time>2026-05-11T10:44:25Z</time>
      </trkpt>
      <trkpt lat="45.98135" lon="5.52744">
        <ele>949.6</ele>
        <time>2026-05-11T10:44:26Z</time>
      </trkpt>
      <trkpt lat="45.98134" lon="5.52743">
        <ele>949.8</ele>
        <time>2026-05-11T10:44:27Z</time>
      </trkpt>
      <trkpt lat="45.98133" lon="5.52742">
        <ele>949.8</ele>
        <time>2026-05-11T10:44:28Z</time>
      </trkpt>
      <trkpt lat="45.98131" lon="5.52741">
        <ele>949.8</ele>
        <time>2026-05-11T10:44:29Z</time>
      </trkpt>
      <trkpt lat="45.98129" lon="5.52741">
        <ele>949.8</ele>
        <time>2026-05-11T10:44:30Z</time>
      </trkpt>
      <trkpt lat="45.98127" lon="5.5274">
        <ele>949.8</ele>
        <time>2026-05-11T10:44:31Z</time>
      </trkpt>
      <trkpt lat="45.98125" lon="5.5274">
        <ele>949.8</ele>
        <time>2026-05-11T10:44:32Z</time>
      </trkpt>
      <trkpt lat="45.98124" lon="5.5274">
        <ele>949.8</ele>
        <time>2026-05-11T10:44:33Z</time>
      </trkpt>
      <trkpt lat="45.98122" lon="5.52741">
        <ele>949.8</ele>
        <time>2026-05-11T10:44:34Z</time>
      </trkpt>
      <trkpt lat="45.9812" lon="5.52742">
        <ele>949.8</ele>
        <time>2026-05-11T10:44:35Z</time>
      </trkpt>
      <trkpt lat="45.98118" lon="5.52743">
        <ele>949.8</ele>
        <time>2026-05-11T10:44:36Z</time>
      </trkpt>
      <trkpt lat="45.98117" lon="5.52744">
        <ele>950</ele>
        <time>2026-05-11T10:44:37Z</time>
      </trkpt>
      <trkpt lat="45.98115" lon="5.52744">
        <ele>950.2</ele>
        <time>2026-05-11T10:44:38Z</time>
      </trkpt>
      <trkpt lat="45.98113" lon="5.52746">
        <ele>950.6</ele>
        <time>2026-05-11T10:44:39Z</time>
      </trkpt>
      <trkpt lat="45.98112" lon="5.52748">
        <ele>950.6</ele>
        <time>2026-05-11T10:44:40Z</time>
      </trkpt>
      <trkpt lat="45.9811" lon="5.52749">
        <ele>950.6</ele>
        <time>2026-05-11T10:44:41Z</time>
      </trkpt>
      <trkpt lat="45.98109" lon="5.52751">
        <ele>950.6</ele>
        <time>2026-05-11T10:44:42Z</time>
      </trkpt>
      <trkpt lat="45.98107" lon="5.52752">
        <ele>950.8</ele>
        <time>2026-05-11T10:44:43Z</time>
      </trkpt>
      <trkpt lat="45.98106" lon="5.52754">
        <ele>950.8</ele>
        <time>2026-05-11T10:44:44Z</time>
      </trkpt>
      <trkpt lat="45.98104" lon="5.52756">
        <ele>950.8</ele>
        <time>2026-05-11T10:44:45Z</time>
      </trkpt>
      <trkpt lat="45.98101" lon="5.52757">
        <ele>950.8</ele>
        <time>2026-05-11T10:44:46Z</time>
      </trkpt>
      <trkpt lat="45.98098" lon="5.52757">
        <ele>950.8</ele>
        <time>2026-05-11T10:44:47Z</time>
      </trkpt>
      <trkpt lat="45.98096" lon="5.52756">
        <ele>950.8</ele>
        <time>2026-05-11T10:44:48Z</time>
      </trkpt>
      <trkpt lat="45.98094" lon="5.52756">
        <ele>950.8</ele>
        <time>2026-05-11T10:44:49Z</time>
      </trkpt>
      <trkpt lat="45.98092" lon="5.52756">
        <ele>950.8</ele>
        <time>2026-05-11T10:44:50Z</time>
      </trkpt>
      <trkpt lat="45.98089" lon="5.52757">
        <ele>950.8</ele>
        <time>2026-05-11T10:44:51Z</time>
      </trkpt>
      <trkpt lat="45.98086" lon="5.52757">
        <ele>950.8</ele>
        <time>2026-05-11T10:44:52Z</time>
      </trkpt>
      <trkpt lat="45.98082" lon="5.52757">
        <ele>951</ele>
        <time>2026-05-11T10:44:53Z</time>
      </trkpt>
      <trkpt lat="45.98078" lon="5.52756">
        <ele>951</ele>
        <time>2026-05-11T10:44:54Z</time>
      </trkpt>
      <trkpt lat="45.98074" lon="5.52756">
        <ele>951</ele>
        <time>2026-05-11T10:44:55Z</time>
      </trkpt>
      <trkpt lat="45.9807" lon="5.52755">
        <ele>950.6</ele>
        <time>2026-05-11T10:44:56Z</time>
      </trkpt>
      <trkpt lat="45.98067" lon="5.52754">
        <ele>951</ele>
        <time>2026-05-11T10:44:57Z</time>
      </trkpt>
      <trkpt lat="45.98064" lon="5.52753">
        <ele>951</ele>
        <time>2026-05-11T10:44:58Z</time>
      </trkpt>
      <trkpt lat="45.98061" lon="5.52752">
        <ele>951</ele>
        <time>2026-05-11T10:44:59Z</time>
      </trkpt>
      <trkpt lat="45.98057" lon="5.52752">
        <ele>951</ele>
        <time>2026-05-11T10:45:00Z</time>
      </trkpt>
      <trkpt lat="45.98054" lon="5.52751">
        <ele>950.8</ele>
        <time>2026-05-11T10:45:01Z</time>
      </trkpt>
      <trkpt lat="45.98052" lon="5.5275">
        <ele>950.8</ele>
        <time>2026-05-11T10:45:02Z</time>
      </trkpt>
      <trkpt lat="45.98048" lon="5.52748">
        <ele>950.8</ele>
        <time>2026-05-11T10:45:03Z</time>
      </trkpt>
      <trkpt lat="45.98046" lon="5.52746">
        <ele>950.8</ele>
        <time>2026-05-11T10:45:04Z</time>
      </trkpt>
      <trkpt lat="45.98043" lon="5.52745">
        <ele>951</ele>
        <time>2026-05-11T10:45:05Z</time>
      </trkpt>
      <trkpt lat="45.98039" lon="5.52744">
        <ele>951</ele>
        <time>2026-05-11T10:45:06Z</time>
      </trkpt>
      <trkpt lat="45.98036" lon="5.52743">
        <ele>950.4</ele>
        <time>2026-05-11T10:45:07Z</time>
      </trkpt>
      <trkpt lat="45.98033" lon="5.52742">
        <ele>950.4</ele>
        <time>2026-05-11T10:45:08Z</time>
      </trkpt>
      <trkpt lat="45.9803" lon="5.5274">
        <ele>950.8</ele>
        <time>2026-05-11T10:45:09Z</time>
      </trkpt>
      <trkpt lat="45.98026" lon="5.52739">
        <ele>950.8</ele>
        <time>2026-05-11T10:45:10Z</time>
      </trkpt>
      <trkpt lat="45.98022" lon="5.52737">
        <ele>950.4</ele>
        <time>2026-05-11T10:45:11Z</time>
      </trkpt>
      <trkpt lat="45.98019" lon="5.52737">
        <ele>950.4</ele>
        <time>2026-05-11T10:45:12Z</time>
      </trkpt>
      <trkpt lat="45.98016" lon="5.52736">
        <ele>950</ele>
        <time>2026-05-11T10:45:13Z</time>
      </trkpt>
      <trkpt lat="45.98014" lon="5.52736">
        <ele>950</ele>
        <time>2026-05-11T10:45:14Z</time>
      </trkpt>
      <trkpt lat="45.98011" lon="5.52737">
        <ele>950.2</ele>
        <time>2026-05-11T10:45:15Z</time>
      </trkpt>
      <trkpt lat="45.98009" lon="5.52737">
        <ele>950</ele>
        <time>2026-05-11T10:45:16Z</time>
      </trkpt>
      <trkpt lat="45.98006" lon="5.52737">
        <ele>950.4</ele>
        <time>2026-05-11T10:45:17Z</time>
      </trkpt>
      <trkpt lat="45.98003" lon="5.52737">
        <ele>950.4</ele>
        <time>2026-05-11T10:45:18Z</time>
      </trkpt>
      <trkpt lat="45.98" lon="5.52737">
        <ele>950.4</ele>
        <time>2026-05-11T10:45:19Z</time>
      </trkpt>
      <trkpt lat="45.97997" lon="5.52737">
        <ele>950</ele>
        <time>2026-05-11T10:45:20Z</time>
      </trkpt>
      <trkpt lat="45.97994" lon="5.52737">
        <ele>950</ele>
        <time>2026-05-11T10:45:21Z</time>
      </trkpt>
      <trkpt lat="45.97991" lon="5.52737">
        <ele>950.4</ele>
        <time>2026-05-11T10:45:22Z</time>
      </trkpt>
      <trkpt lat="45.97989" lon="5.52737">
        <ele>950.4</ele>
        <time>2026-05-11T10:45:23Z</time>
      </trkpt>
      <trkpt lat="45.97985" lon="5.52736">
        <ele>950.4</ele>
        <time>2026-05-11T10:45:24Z</time>
      </trkpt>
      <trkpt lat="45.9798" lon="5.52736">
        <ele>950.4</ele>
        <time>2026-05-11T10:45:25Z</time>
      </trkpt>
      <trkpt lat="45.97976" lon="5.52736">
        <ele>950.4</ele>
        <time>2026-05-11T10:45:26Z</time>
      </trkpt>
      <trkpt lat="45.97972" lon="5.52735">
        <ele>950.2</ele>
        <time>2026-05-11T10:45:27Z</time>
      </trkpt>
      <trkpt lat="45.97969" lon="5.52734">
        <ele>950.2</ele>
        <time>2026-05-11T10:45:28Z</time>
      </trkpt>
      <trkpt lat="45.97963" lon="5.52732">
        <ele>950.2</ele>
        <time>2026-05-11T10:45:29Z</time>
      </trkpt>
      <trkpt lat="45.97961" lon="5.52731">
        <ele>950.2</ele>
        <time>2026-05-11T10:45:30Z</time>
      </trkpt>
      <trkpt lat="45.97959" lon="5.52729">
        <ele>950.2</ele>
        <time>2026-05-11T10:45:31Z</time>
      </trkpt>
      <trkpt lat="45.97957" lon="5.52728">
        <ele>950.2</ele>
        <time>2026-05-11T10:45:32Z</time>
      </trkpt>
      <trkpt lat="45.97953" lon="5.52727">
        <ele>950.2</ele>
        <time>2026-05-11T10:45:33Z</time>
      </trkpt>
      <trkpt lat="45.97949" lon="5.52725">
        <ele>949.8</ele>
        <time>2026-05-11T10:45:34Z</time>
      </trkpt>
      <trkpt lat="45.97945" lon="5.52724">
        <ele>949.8</ele>
        <time>2026-05-11T10:45:35Z</time>
      </trkpt>
      <trkpt lat="45.97943" lon="5.52722">
        <ele>949.8</ele>
        <time>2026-05-11T10:45:36Z</time>
      </trkpt>
      <trkpt lat="45.9794" lon="5.52721">
        <ele>949.8</ele>
        <time>2026-05-11T10:45:37Z</time>
      </trkpt>
      <trkpt lat="45.97937" lon="5.52721">
        <ele>949.8</ele>
        <time>2026-05-11T10:45:38Z</time>
      </trkpt>
      <trkpt lat="45.97933" lon="5.52719">
        <ele>949.8</ele>
        <time>2026-05-11T10:45:39Z</time>
      </trkpt>
      <trkpt lat="45.9793" lon="5.52718">
        <ele>950</ele>
        <time>2026-05-11T10:45:40Z</time>
      </trkpt>
      <trkpt lat="45.97926" lon="5.52718">
        <ele>950.4</ele>
        <time>2026-05-11T10:45:41Z</time>
      </trkpt>
      <trkpt lat="45.97923" lon="5.52717">
        <ele>950.4</ele>
        <time>2026-05-11T10:45:42Z</time>
      </trkpt>
      <trkpt lat="45.97919" lon="5.52714">
        <ele>950.2</ele>
        <time>2026-05-11T10:45:43Z</time>
      </trkpt>
      <trkpt lat="45.97916" lon="5.52711">
        <ele>950.2</ele>
        <time>2026-05-11T10:45:44Z</time>
      </trkpt>
      <trkpt lat="45.97913" lon="5.52709">
        <ele>950</ele>
        <time>2026-05-11T10:45:45Z</time>
      </trkpt>
      <trkpt lat="45.9791" lon="5.52708">
        <ele>950</ele>
        <time>2026-05-11T10:45:46Z</time>
      </trkpt>
      <trkpt lat="45.97906" lon="5.52706">
        <ele>949</ele>
        <time>2026-05-11T10:45:47Z</time>
      </trkpt>
      <trkpt lat="45.97902" lon="5.52705">
        <ele>949.4</ele>
        <time>2026-05-11T10:45:48Z</time>
      </trkpt>
      <trkpt lat="45.97899" lon="5.52704">
        <ele>949.4</ele>
        <time>2026-05-11T10:45:49Z</time>
      </trkpt>
      <trkpt lat="45.97895" lon="5.52703">
        <ele>949.4</ele>
        <time>2026-05-11T10:45:50Z</time>
      </trkpt>
      <trkpt lat="45.97891" lon="5.52702">
        <ele>949.4</ele>
        <time>2026-05-11T10:45:51Z</time>
      </trkpt>
      <trkpt lat="45.97888" lon="5.52701">
        <ele>949.4</ele>
        <time>2026-05-11T10:45:52Z</time>
      </trkpt>
      <trkpt lat="45.97884" lon="5.52699">
        <ele>949.4</ele>
        <time>2026-05-11T10:45:53Z</time>
      </trkpt>
      <trkpt lat="45.97879" lon="5.52698">
        <ele>949.4</ele>
        <time>2026-05-11T10:45:54Z</time>
      </trkpt>
      <trkpt lat="45.97876" lon="5.52697">
        <ele>949.8</ele>
        <time>2026-05-11T10:45:55Z</time>
      </trkpt>
      <trkpt lat="45.97872" lon="5.52696">
        <ele>950.2</ele>
        <time>2026-05-11T10:45:56Z</time>
      </trkpt>
      <trkpt lat="45.97869" lon="5.52695">
        <ele>950.2</ele>
        <time>2026-05-11T10:45:57Z</time>
      </trkpt>
      <trkpt lat="45.97866" lon="5.52695">
        <ele>950.2</ele>
        <time>2026-05-11T10:45:58Z</time>
      </trkpt>
      <trkpt lat="45.97862" lon="5.52695">
        <ele>950</ele>
        <time>2026-05-11T10:45:59Z</time>
      </trkpt>
      <trkpt lat="45.97859" lon="5.52694">
        <ele>950</ele>
        <time>2026-05-11T10:46:00Z</time>
      </trkpt>
      <trkpt lat="45.97859" lon="5.52694">
        <ele>950</ele>
        <time>2026-05-11T10:46:01Z</time>
      </trkpt>
      <trkpt lat="45.97855" lon="5.52692">
        <ele>950</ele>
        <time>2026-05-11T10:46:02Z</time>
      </trkpt>
      <trkpt lat="45.97852" lon="5.52691">
        <ele>950.2</ele>
        <time>2026-05-11T10:46:03Z</time>
      </trkpt>
      <trkpt lat="45.97846" lon="5.52691">
        <ele>950.2</ele>
        <time>2026-05-11T10:46:04Z</time>
      </trkpt>
      <trkpt lat="45.97844" lon="5.52691">
        <ele>949.8</ele>
        <time>2026-05-11T10:46:05Z</time>
      </trkpt>
      <trkpt lat="45.9784" lon="5.52692">
        <ele>949.6</ele>
        <time>2026-05-11T10:46:06Z</time>
      </trkpt>
      <trkpt lat="45.97833" lon="5.52691">
        <ele>949.6</ele>
        <time>2026-05-11T10:46:07Z</time>
      </trkpt>
      <trkpt lat="45.9783" lon="5.5269">
        <ele>949.6</ele>
        <time>2026-05-11T10:46:08Z</time>
      </trkpt>
      <trkpt lat="45.97826" lon="5.52691">
        <ele>949.6</ele>
        <time>2026-05-11T10:46:09Z</time>
      </trkpt>
      <trkpt lat="45.97822" lon="5.52691">
        <ele>949.8</ele>
        <time>2026-05-11T10:46:10Z</time>
      </trkpt>
      <trkpt lat="45.9782" lon="5.52688">
        <ele>949.8</ele>
        <time>2026-05-11T10:46:11Z</time>
      </trkpt>
      <trkpt lat="45.97816" lon="5.52687">
        <ele>949.8</ele>
        <time>2026-05-11T10:46:12Z</time>
      </trkpt>
      <trkpt lat="45.97812" lon="5.52686">
        <ele>949.8</ele>
        <time>2026-05-11T10:46:13Z</time>
      </trkpt>
      <trkpt lat="45.97812" lon="5.52686">
        <ele>949.8</ele>
        <time>2026-05-11T10:46:14Z</time>
      </trkpt>
      <trkpt lat="45.97798" lon="5.52679">
        <ele>949.2</ele>
        <time>2026-05-11T10:46:16Z</time>
      </trkpt>
      <trkpt lat="45.97794" lon="5.52678">
        <ele>948.8</ele>
        <time>2026-05-11T10:46:17Z</time>
      </trkpt>
      <trkpt lat="45.97791" lon="5.52678">
        <ele>949.2</ele>
        <time>2026-05-11T10:46:18Z</time>
      </trkpt>
      <trkpt lat="45.97788" lon="5.52677">
        <ele>949.2</ele>
        <time>2026-05-11T10:46:19Z</time>
      </trkpt>
      <trkpt lat="45.97784" lon="5.52675">
        <ele>949.2</ele>
        <time>2026-05-11T10:46:20Z</time>
      </trkpt>
      <trkpt lat="45.9778" lon="5.52673">
        <ele>948.2</ele>
        <time>2026-05-11T10:46:21Z</time>
      </trkpt>
      <trkpt lat="45.97776" lon="5.52671">
        <ele>948.2</ele>
        <time>2026-05-11T10:46:22Z</time>
      </trkpt>
      <trkpt lat="45.97772" lon="5.52669">
        <ele>947.8</ele>
        <time>2026-05-11T10:46:23Z</time>
      </trkpt>
      <trkpt lat="45.97768" lon="5.52667">
        <ele>947.8</ele>
        <time>2026-05-11T10:46:24Z</time>
      </trkpt>
      <trkpt lat="45.97764" lon="5.52666">
        <ele>947.6</ele>
        <time>2026-05-11T10:46:25Z</time>
      </trkpt>
      <trkpt lat="45.9776" lon="5.52662">
        <ele>947.2</ele>
        <time>2026-05-11T10:46:26Z</time>
      </trkpt>
      <trkpt lat="45.97756" lon="5.52661">
        <ele>947.2</ele>
        <time>2026-05-11T10:46:27Z</time>
      </trkpt>
      <trkpt lat="45.9775" lon="5.52659">
        <ele>947.6</ele>
        <time>2026-05-11T10:46:28Z</time>
      </trkpt>
      <trkpt lat="45.97745" lon="5.52657">
        <ele>947.2</ele>
        <time>2026-05-11T10:46:29Z</time>
      </trkpt>
      <trkpt lat="45.9774" lon="5.52655">
        <ele>946.8</ele>
        <time>2026-05-11T10:46:30Z</time>
      </trkpt>
      <trkpt lat="45.97737" lon="5.52654">
        <ele>946.8</ele>
        <time>2026-05-11T10:46:31Z</time>
      </trkpt>
      <trkpt lat="45.97734" lon="5.52653">
        <ele>946</ele>
        <time>2026-05-11T10:46:32Z</time>
      </trkpt>
      <trkpt lat="45.97729" lon="5.52649">
        <ele>946</ele>
        <time>2026-05-11T10:46:33Z</time>
      </trkpt>
      <trkpt lat="45.97727" lon="5.52648">
        <ele>946</ele>
        <time>2026-05-11T10:46:34Z</time>
      </trkpt>
      <trkpt lat="45.9772" lon="5.52644">
        <ele>946</ele>
        <time>2026-05-11T10:46:35Z</time>
      </trkpt>
      <trkpt lat="45.9772" lon="5.52642">
        <ele>945.4</ele>
        <time>2026-05-11T10:46:36Z</time>
      </trkpt>
      <trkpt lat="45.97716" lon="5.52638">
        <ele>945.4</ele>
        <time>2026-05-11T10:46:37Z</time>
      </trkpt>
      <trkpt lat="45.97716" lon="5.52638">
        <ele>945.8</ele>
        <time>2026-05-11T10:46:38Z</time>
      </trkpt>
      <trkpt lat="45.97711" lon="5.52637">
        <ele>945.4</ele>
        <time>2026-05-11T10:46:39Z</time>
      </trkpt>
      <trkpt lat="45.97706" lon="5.52636">
        <ele>945.4</ele>
        <time>2026-05-11T10:46:40Z</time>
      </trkpt>
      <trkpt lat="45.97701" lon="5.52635">
        <ele>945.2</ele>
        <time>2026-05-11T10:46:41Z</time>
      </trkpt>
      <trkpt lat="45.97696" lon="5.5263">
        <ele>945</ele>
        <time>2026-05-11T10:46:42Z</time>
      </trkpt>
      <trkpt lat="45.97691" lon="5.52626">
        <ele>945</ele>
        <time>2026-05-11T10:46:43Z</time>
      </trkpt>
      <trkpt lat="45.97687" lon="5.52621">
        <ele>945.2</ele>
        <time>2026-05-11T10:46:44Z</time>
      </trkpt>
      <trkpt lat="45.97682" lon="5.52616">
        <ele>945.2</ele>
        <time>2026-05-11T10:46:45Z</time>
      </trkpt>
      <trkpt lat="45.97678" lon="5.5261">
        <ele>945.2</ele>
        <time>2026-05-11T10:46:46Z</time>
      </trkpt>
      <trkpt lat="45.97675" lon="5.52607">
        <ele>945.2</ele>
        <time>2026-05-11T10:46:47Z</time>
      </trkpt>
      <trkpt lat="45.97673" lon="5.52603">
        <ele>945.2</ele>
        <time>2026-05-11T10:46:48Z</time>
      </trkpt>
      <trkpt lat="45.9767" lon="5.52596">
        <ele>945.2</ele>
        <time>2026-05-11T10:46:49Z</time>
      </trkpt>
      <trkpt lat="45.97666" lon="5.52591">
        <ele>944.2</ele>
        <time>2026-05-11T10:46:50Z</time>
      </trkpt>
      <trkpt lat="45.97662" lon="5.52587">
        <ele>943.8</ele>
        <time>2026-05-11T10:46:51Z</time>
      </trkpt>
      <trkpt lat="45.97658" lon="5.52583">
        <ele>943.8</ele>
        <time>2026-05-11T10:46:52Z</time>
      </trkpt>
      <trkpt lat="45.97653" lon="5.52578">
        <ele>943.8</ele>
        <time>2026-05-11T10:46:53Z</time>
      </trkpt>
      <trkpt lat="45.9765" lon="5.52577">
        <ele>944</ele>
        <time>2026-05-11T10:46:54Z</time>
      </trkpt>
      <trkpt lat="45.97646" lon="5.52576">
        <ele>944</ele>
        <time>2026-05-11T10:46:55Z</time>
      </trkpt>
      <trkpt lat="45.97642" lon="5.52576">
        <ele>944</ele>
        <time>2026-05-11T10:46:56Z</time>
      </trkpt>
      <trkpt lat="45.97638" lon="5.52576">
        <ele>943.8</ele>
        <time>2026-05-11T10:46:57Z</time>
      </trkpt>
      <trkpt lat="45.97631" lon="5.52579">
        <ele>944.2</ele>
        <time>2026-05-11T10:46:58Z</time>
      </trkpt>
      <trkpt lat="45.97627" lon="5.52581">
        <ele>944.4</ele>
        <time>2026-05-11T10:46:59Z</time>
      </trkpt>
      <trkpt lat="45.97624" lon="5.52581">
        <ele>944.4</ele>
        <time>2026-05-11T10:47:00Z</time>
      </trkpt>
      <trkpt lat="45.97621" lon="5.52583">
        <ele>944.8</ele>
        <time>2026-05-11T10:47:01Z</time>
      </trkpt>
      <trkpt lat="45.97617" lon="5.52585">
        <ele>945</ele>
        <time>2026-05-11T10:47:02Z</time>
      </trkpt>
      <trkpt lat="45.97614" lon="5.52584">
        <ele>945</ele>
        <time>2026-05-11T10:47:03Z</time>
      </trkpt>
      <trkpt lat="45.97611" lon="5.52585">
        <ele>945</ele>
        <time>2026-05-11T10:47:04Z</time>
      </trkpt>
      <trkpt lat="45.97607" lon="5.52586">
        <ele>945.2</ele>
        <time>2026-05-11T10:47:05Z</time>
      </trkpt>
      <trkpt lat="45.97604" lon="5.52588">
        <ele>945.4</ele>
        <time>2026-05-11T10:47:06Z</time>
      </trkpt>
      <trkpt lat="45.97601" lon="5.52589">
        <ele>945.4</ele>
        <time>2026-05-11T10:47:07Z</time>
      </trkpt>
      <trkpt lat="45.97599" lon="5.5259">
        <ele>945.6</ele>
        <time>2026-05-11T10:47:08Z</time>
      </trkpt>
      <trkpt lat="45.97597" lon="5.52592">
        <ele>945.6</ele>
        <time>2026-05-11T10:47:09Z</time>
      </trkpt>
      <trkpt lat="45.97594" lon="5.52593">
        <ele>945.6</ele>
        <time>2026-05-11T10:47:10Z</time>
      </trkpt>
      <trkpt lat="45.97592" lon="5.52595">
        <ele>945.6</ele>
        <time>2026-05-11T10:47:11Z</time>
      </trkpt>
      <trkpt lat="45.97589" lon="5.52597">
        <ele>946.2</ele>
        <time>2026-05-11T10:47:12Z</time>
      </trkpt>
      <trkpt lat="45.97586" lon="5.52599">
        <ele>946.2</ele>
        <time>2026-05-11T10:47:13Z</time>
      </trkpt>
      <trkpt lat="45.97584" lon="5.52601">
        <ele>946.2</ele>
        <time>2026-05-11T10:47:14Z</time>
      </trkpt>
      <trkpt lat="45.97582" lon="5.52602">
        <ele>946.2</ele>
        <time>2026-05-11T10:47:15Z</time>
      </trkpt>
      <trkpt lat="45.97579" lon="5.52603">
        <ele>946.2</ele>
        <time>2026-05-11T10:47:16Z</time>
      </trkpt>
      <trkpt lat="45.97576" lon="5.52604">
        <ele>946.2</ele>
        <time>2026-05-11T10:47:17Z</time>
      </trkpt>
      <trkpt lat="45.97574" lon="5.52605">
        <ele>946.4</ele>
        <time>2026-05-11T10:47:18Z</time>
      </trkpt>
      <trkpt lat="45.97572" lon="5.52606">
        <ele>946.4</ele>
        <time>2026-05-11T10:47:19Z</time>
      </trkpt>
      <trkpt lat="45.97571" lon="5.52606">
        <ele>946.8</ele>
        <time>2026-05-11T10:47:20Z</time>
      </trkpt>
      <trkpt lat="45.9757" lon="5.52607">
        <ele>947</ele>
        <time>2026-05-11T10:47:21Z</time>
      </trkpt>
      <trkpt lat="45.97567" lon="5.52608">
        <ele>947.4</ele>
        <time>2026-05-11T10:47:22Z</time>
      </trkpt>
      <trkpt lat="45.97564" lon="5.52609">
        <ele>947.4</ele>
        <time>2026-05-11T10:47:23Z</time>
      </trkpt>
      <trkpt lat="45.97561" lon="5.52611">
        <ele>947.6</ele>
        <time>2026-05-11T10:47:24Z</time>
      </trkpt>
      <trkpt lat="45.97559" lon="5.52613">
        <ele>947.4</ele>
        <time>2026-05-11T10:47:25Z</time>
      </trkpt>
      <trkpt lat="45.97556" lon="5.52615">
        <ele>947.4</ele>
        <time>2026-05-11T10:47:26Z</time>
      </trkpt>
      <trkpt lat="45.97554" lon="5.52616">
        <ele>947.8</ele>
        <time>2026-05-11T10:47:27Z</time>
      </trkpt>
      <trkpt lat="45.97553" lon="5.52617">
        <ele>947.8</ele>
        <time>2026-05-11T10:47:28Z</time>
      </trkpt>
      <trkpt lat="45.97551" lon="5.52618">
        <ele>947.8</ele>
        <time>2026-05-11T10:47:29Z</time>
      </trkpt>
      <trkpt lat="45.97549" lon="5.52619">
        <ele>948</ele>
        <time>2026-05-11T10:47:30Z</time>
      </trkpt>
      <trkpt lat="45.97546" lon="5.52619">
        <ele>948.4</ele>
        <time>2026-05-11T10:47:31Z</time>
      </trkpt>
      <trkpt lat="45.97544" lon="5.5262">
        <ele>948.4</ele>
        <time>2026-05-11T10:47:32Z</time>
      </trkpt>
      <trkpt lat="45.97542" lon="5.5262">
        <ele>948.4</ele>
        <time>2026-05-11T10:47:33Z</time>
      </trkpt>
      <trkpt lat="45.97539" lon="5.52621">
        <ele>948.8</ele>
        <time>2026-05-11T10:47:34Z</time>
      </trkpt>
      <trkpt lat="45.97536" lon="5.52622">
        <ele>948.8</ele>
        <time>2026-05-11T10:47:35Z</time>
      </trkpt>
      <trkpt lat="45.97534" lon="5.52623">
        <ele>948.8</ele>
        <time>2026-05-11T10:47:36Z</time>
      </trkpt>
      <trkpt lat="45.97531" lon="5.52623">
        <ele>949</ele>
        <time>2026-05-11T10:47:37Z</time>
      </trkpt>
      <trkpt lat="45.97528" lon="5.52623">
        <ele>949</ele>
        <time>2026-05-11T10:47:38Z</time>
      </trkpt>
      <trkpt lat="45.97526" lon="5.52622">
        <ele>949</ele>
        <time>2026-05-11T10:47:39Z</time>
      </trkpt>
      <trkpt lat="45.97523" lon="5.52622">
        <ele>949.4</ele>
        <time>2026-05-11T10:47:40Z</time>
      </trkpt>
      <trkpt lat="45.97519" lon="5.5262">
        <ele>949.4</ele>
        <time>2026-05-11T10:47:41Z</time>
      </trkpt>
      <trkpt lat="45.97516" lon="5.52618">
        <ele>949.6</ele>
        <time>2026-05-11T10:47:42Z</time>
      </trkpt>
      <trkpt lat="45.97513" lon="5.52617">
        <ele>949.6</ele>
        <time>2026-05-11T10:47:43Z</time>
      </trkpt>
      <trkpt lat="45.97509" lon="5.52616">
        <ele>949.6</ele>
        <time>2026-05-11T10:47:44Z</time>
      </trkpt>
      <trkpt lat="45.97505" lon="5.52615">
        <ele>949.6</ele>
        <time>2026-05-11T10:47:45Z</time>
      </trkpt>
      <trkpt lat="45.97501" lon="5.52615">
        <ele>949.4</ele>
        <time>2026-05-11T10:47:46Z</time>
      </trkpt>
      <trkpt lat="45.97497" lon="5.52615">
        <ele>949.4</ele>
        <time>2026-05-11T10:47:47Z</time>
      </trkpt>
      <trkpt lat="45.97493" lon="5.52615">
        <ele>949.4</ele>
        <time>2026-05-11T10:47:48Z</time>
      </trkpt>
      <trkpt lat="45.97486" lon="5.52618">
        <ele>949</ele>
        <time>2026-05-11T10:47:49Z</time>
      </trkpt>
      <trkpt lat="45.97482" lon="5.52619">
        <ele>949</ele>
        <time>2026-05-11T10:47:50Z</time>
      </trkpt>
      <trkpt lat="45.97478" lon="5.52618">
        <ele>948.8</ele>
        <time>2026-05-11T10:47:51Z</time>
      </trkpt>
      <trkpt lat="45.97478" lon="5.52613">
        <ele>948.8</ele>
        <time>2026-05-11T10:47:52Z</time>
      </trkpt>
      <trkpt lat="45.97476" lon="5.52612">
        <ele>948.6</ele>
        <time>2026-05-11T10:47:53Z</time>
      </trkpt>
      <trkpt lat="45.9747" lon="5.52612">
        <ele>948.4</ele>
        <time>2026-05-11T10:47:54Z</time>
      </trkpt>
      <trkpt lat="45.97467" lon="5.52609">
        <ele>948.4</ele>
        <time>2026-05-11T10:47:55Z</time>
      </trkpt>
      <trkpt lat="45.97465" lon="5.52606">
        <ele>948.4</ele>
        <time>2026-05-11T10:47:56Z</time>
      </trkpt>
      <trkpt lat="45.97461" lon="5.52603">
        <ele>948.4</ele>
        <time>2026-05-11T10:47:57Z</time>
      </trkpt>
      <trkpt lat="45.97457" lon="5.526">
        <ele>948.4</ele>
        <time>2026-05-11T10:47:58Z</time>
      </trkpt>
      <trkpt lat="45.97454" lon="5.52596">
        <ele>948.2</ele>
        <time>2026-05-11T10:47:59Z</time>
      </trkpt>
      <trkpt lat="45.97451" lon="5.52594">
        <ele>948.2</ele>
        <time>2026-05-11T10:48:00Z</time>
      </trkpt>
      <trkpt lat="45.97445" lon="5.52586">
        <ele>948.2</ele>
        <time>2026-05-11T10:48:01Z</time>
      </trkpt>
      <trkpt lat="45.97441" lon="5.52584">
        <ele>948.2</ele>
        <time>2026-05-11T10:48:02Z</time>
      </trkpt>
      <trkpt lat="45.97437" lon="5.52579">
        <ele>948.6</ele>
        <time>2026-05-11T10:48:03Z</time>
      </trkpt>
      <trkpt lat="45.97434" lon="5.52574">
        <ele>948.4</ele>
        <time>2026-05-11T10:48:04Z</time>
      </trkpt>
      <trkpt lat="45.97431" lon="5.5257">
        <ele>948.2</ele>
        <time>2026-05-11T10:48:05Z</time>
      </trkpt>
      <trkpt lat="45.9743" lon="5.52566">
        <ele>948.2</ele>
        <time>2026-05-11T10:48:06Z</time>
      </trkpt>
      <trkpt lat="45.97426" lon="5.52563">
        <ele>947.8</ele>
        <time>2026-05-11T10:48:07Z</time>
      </trkpt>
      <trkpt lat="45.97422" lon="5.5256">
        <ele>947.6</ele>
        <time>2026-05-11T10:48:08Z</time>
      </trkpt>
      <trkpt lat="45.97418" lon="5.52558">
        <ele>947.6</ele>
        <time>2026-05-11T10:48:09Z</time>
      </trkpt>
      <trkpt lat="45.97414" lon="5.52555">
        <ele>947.6</ele>
        <time>2026-05-11T10:48:10Z</time>
      </trkpt>
      <trkpt lat="45.9741" lon="5.52552">
        <ele>947.6</ele>
        <time>2026-05-11T10:48:11Z</time>
      </trkpt>
      <trkpt lat="45.97407" lon="5.52549">
        <ele>947.6</ele>
        <time>2026-05-11T10:48:12Z</time>
      </trkpt>
      <trkpt lat="45.97402" lon="5.52545">
        <ele>947.6</ele>
        <time>2026-05-11T10:48:13Z</time>
      </trkpt>
      <trkpt lat="45.97398" lon="5.52543">
        <ele>947.6</ele>
        <time>2026-05-11T10:48:14Z</time>
      </trkpt>
      <trkpt lat="45.97394" lon="5.52539">
        <ele>947.6</ele>
        <time>2026-05-11T10:48:15Z</time>
      </trkpt>
      <trkpt lat="45.9739" lon="5.52537">
        <ele>947.2</ele>
        <time>2026-05-11T10:48:16Z</time>
      </trkpt>
      <trkpt lat="45.97385" lon="5.52535">
        <ele>947.2</ele>
        <time>2026-05-11T10:48:17Z</time>
      </trkpt>
      <trkpt lat="45.97381" lon="5.52533">
        <ele>946.8</ele>
        <time>2026-05-11T10:48:18Z</time>
      </trkpt>
      <trkpt lat="45.97377" lon="5.52532">
        <ele>947.2</ele>
        <time>2026-05-11T10:48:19Z</time>
      </trkpt>
      <trkpt lat="45.97374" lon="5.52531">
        <ele>947</ele>
        <time>2026-05-11T10:48:20Z</time>
      </trkpt>
      <trkpt lat="45.97371" lon="5.52532">
        <ele>947</ele>
        <time>2026-05-11T10:48:21Z</time>
      </trkpt>
      <trkpt lat="45.97368" lon="5.52528">
        <ele>947</ele>
        <time>2026-05-11T10:48:22Z</time>
      </trkpt>
      <trkpt lat="45.97363" lon="5.52525">
        <ele>947</ele>
        <time>2026-05-11T10:48:23Z</time>
      </trkpt>
      <trkpt lat="45.97359" lon="5.52522">
        <ele>946.6</ele>
        <time>2026-05-11T10:48:24Z</time>
      </trkpt>
      <trkpt lat="45.97359" lon="5.52522">
        <ele>946.6</ele>
        <time>2026-05-11T10:48:25Z</time>
      </trkpt>
      <trkpt lat="45.97356" lon="5.5252">
        <ele>946.4</ele>
        <time>2026-05-11T10:48:26Z</time>
      </trkpt>
      <trkpt lat="45.97352" lon="5.52516">
        <ele>946.4</ele>
        <time>2026-05-11T10:48:27Z</time>
      </trkpt>
      <trkpt lat="45.97348" lon="5.52511">
        <ele>946.4</ele>
        <time>2026-05-11T10:48:28Z</time>
      </trkpt>
      <trkpt lat="45.97345" lon="5.52508">
        <ele>946.4</ele>
        <time>2026-05-11T10:48:29Z</time>
      </trkpt>
      <trkpt lat="45.9734" lon="5.52504">
        <ele>946</ele>
        <time>2026-05-11T10:48:30Z</time>
      </trkpt>
      <trkpt lat="45.97335" lon="5.52502">
        <ele>946</ele>
        <time>2026-05-11T10:48:31Z</time>
      </trkpt>
      <trkpt lat="45.97331" lon="5.52501">
        <ele>946</ele>
        <time>2026-05-11T10:48:32Z</time>
      </trkpt>
      <trkpt lat="45.97327" lon="5.52498">
        <ele>946</ele>
        <time>2026-05-11T10:48:33Z</time>
      </trkpt>
      <trkpt lat="45.97323" lon="5.52496">
        <ele>946</ele>
        <time>2026-05-11T10:48:34Z</time>
      </trkpt>
      <trkpt lat="45.97319" lon="5.52496">
        <ele>946.4</ele>
        <time>2026-05-11T10:48:35Z</time>
      </trkpt>
      <trkpt lat="45.97315" lon="5.52495">
        <ele>946.4</ele>
        <time>2026-05-11T10:48:36Z</time>
      </trkpt>
      <trkpt lat="45.97316" lon="5.52495">
        <ele>946.8</ele>
        <time>2026-05-11T10:48:37Z</time>
      </trkpt>
      <trkpt lat="45.97313" lon="5.52493">
        <ele>946.8</ele>
        <time>2026-05-11T10:48:38Z</time>
      </trkpt>
      <trkpt lat="45.97309" lon="5.52492">
        <ele>946.8</ele>
        <time>2026-05-11T10:48:39Z</time>
      </trkpt>
      <trkpt lat="45.97308" lon="5.5249">
        <ele>946.8</ele>
        <time>2026-05-11T10:48:40Z</time>
      </trkpt>
      <trkpt lat="45.97306" lon="5.5249">
        <ele>947</ele>
        <time>2026-05-11T10:48:41Z</time>
      </trkpt>
      <trkpt lat="45.97305" lon="5.5249">
        <ele>947</ele>
        <time>2026-05-11T10:48:42Z</time>
      </trkpt>
      <trkpt lat="45.97304" lon="5.52489">
        <ele>947</ele>
        <time>2026-05-11T10:48:43Z</time>
      </trkpt>
      <trkpt lat="45.97304" lon="5.52489">
        <ele>947</ele>
        <time>2026-05-11T10:48:44Z</time>
      </trkpt>
      <trkpt lat="45.97291" lon="5.52487">
        <ele>947.2</ele>
        <time>2026-05-11T10:54:44Z</time>
      </trkpt>
      <trkpt lat="45.9729" lon="5.52486">
        <ele>947.2</ele>
        <time>2026-05-11T10:54:45Z</time>
      </trkpt>
      <trkpt lat="45.9729" lon="5.52485">
        <ele>947</ele>
        <time>2026-05-11T10:54:46Z</time>
      </trkpt>
      <trkpt lat="45.9729" lon="5.52484">
        <ele>947</ele>
        <time>2026-05-11T10:54:47Z</time>
      </trkpt>
      <trkpt lat="45.97288" lon="5.52482">
        <ele>947</ele>
        <time>2026-05-11T10:54:48Z</time>
      </trkpt>
      <trkpt lat="45.97285" lon="5.52481">
        <ele>947</ele>
        <time>2026-05-11T10:54:49Z</time>
      </trkpt>
      <trkpt lat="45.97283" lon="5.5248">
        <ele>947</ele>
        <time>2026-05-11T10:54:50Z</time>
      </trkpt>
      <trkpt lat="45.97281" lon="5.52479">
        <ele>947</ele>
        <time>2026-05-11T10:54:51Z</time>
      </trkpt>
      <trkpt lat="45.97279" lon="5.52478">
        <ele>947</ele>
        <time>2026-05-11T10:54:52Z</time>
      </trkpt>
      <trkpt lat="45.97278" lon="5.52477">
        <ele>947.2</ele>
        <time>2026-05-11T10:54:53Z</time>
      </trkpt>
      <trkpt lat="45.97277" lon="5.52475">
        <ele>947.2</ele>
        <time>2026-05-11T10:54:54Z</time>
      </trkpt>
      <trkpt lat="45.97275" lon="5.52473">
        <ele>947</ele>
        <time>2026-05-11T10:54:55Z</time>
      </trkpt>
      <trkpt lat="45.97274" lon="5.52471">
        <ele>947</ele>
        <time>2026-05-11T10:54:56Z</time>
      </trkpt>
      <trkpt lat="45.97273" lon="5.5247">
        <ele>946.8</ele>
        <time>2026-05-11T10:54:57Z</time>
      </trkpt>
      <trkpt lat="45.97271" lon="5.52469">
        <ele>946.8</ele>
        <time>2026-05-11T10:54:58Z</time>
      </trkpt>
      <trkpt lat="45.97268" lon="5.52467">
        <ele>947</ele>
        <time>2026-05-11T10:54:59Z</time>
      </trkpt>
      <trkpt lat="45.97266" lon="5.52466">
        <ele>947</ele>
        <time>2026-05-11T10:55:00Z</time>
      </trkpt>
      <trkpt lat="45.97266" lon="5.52466">
        <ele>947.2</ele>
        <time>2026-05-11T10:55:01Z</time>
      </trkpt>
      <trkpt lat="45.97263" lon="5.52465">
        <ele>947.2</ele>
        <time>2026-05-11T10:55:02Z</time>
      </trkpt>
      <trkpt lat="45.97261" lon="5.52464">
        <ele>947.2</ele>
        <time>2026-05-11T10:55:03Z</time>
      </trkpt>
      <trkpt lat="45.97259" lon="5.52464">
        <ele>947.4</ele>
        <time>2026-05-11T10:55:04Z</time>
      </trkpt>
      <trkpt lat="45.97256" lon="5.52462">
        <ele>947.8</ele>
        <time>2026-05-11T10:55:05Z</time>
      </trkpt>
      <trkpt lat="45.97253" lon="5.52459">
        <ele>947.8</ele>
        <time>2026-05-11T10:55:06Z</time>
      </trkpt>
      <trkpt lat="45.97252" lon="5.52457">
        <ele>947.8</ele>
        <time>2026-05-11T10:55:07Z</time>
      </trkpt>
      <trkpt lat="45.97251" lon="5.52455">
        <ele>947.8</ele>
        <time>2026-05-11T10:55:08Z</time>
      </trkpt>
      <trkpt lat="45.97249" lon="5.52453">
        <ele>947.8</ele>
        <time>2026-05-11T10:55:09Z</time>
      </trkpt>
      <trkpt lat="45.97247" lon="5.52452">
        <ele>947.8</ele>
        <time>2026-05-11T10:55:10Z</time>
      </trkpt>
      <trkpt lat="45.97244" lon="5.5245">
        <ele>948</ele>
        <time>2026-05-11T10:55:11Z</time>
      </trkpt>
      <trkpt lat="45.97242" lon="5.52449">
        <ele>948</ele>
        <time>2026-05-11T10:55:12Z</time>
      </trkpt>
      <trkpt lat="45.9724" lon="5.52448">
        <ele>948</ele>
        <time>2026-05-11T10:55:13Z</time>
      </trkpt>
      <trkpt lat="45.97238" lon="5.52446">
        <ele>948</ele>
        <time>2026-05-11T10:55:14Z</time>
      </trkpt>
      <trkpt lat="45.97235" lon="5.52445">
        <ele>948.2</ele>
        <time>2026-05-11T10:55:15Z</time>
      </trkpt>
      <trkpt lat="45.97233" lon="5.52444">
        <ele>948.2</ele>
        <time>2026-05-11T10:55:16Z</time>
      </trkpt>
      <trkpt lat="45.97231" lon="5.52443">
        <ele>948.6</ele>
        <time>2026-05-11T10:55:17Z</time>
      </trkpt>
      <trkpt lat="45.97229" lon="5.52443">
        <ele>948.6</ele>
        <time>2026-05-11T10:55:18Z</time>
      </trkpt>
      <trkpt lat="45.97226" lon="5.52443">
        <ele>948.8</ele>
        <time>2026-05-11T10:55:19Z</time>
      </trkpt>
      <trkpt lat="45.97224" lon="5.52443">
        <ele>949.2</ele>
        <time>2026-05-11T10:55:20Z</time>
      </trkpt>
      <trkpt lat="45.97222" lon="5.52443">
        <ele>949.2</ele>
        <time>2026-05-11T10:55:21Z</time>
      </trkpt>
      <trkpt lat="45.9722" lon="5.52442">
        <ele>949.4</ele>
        <time>2026-05-11T10:55:22Z</time>
      </trkpt>
      <trkpt lat="45.97218" lon="5.52442">
        <ele>949.4</ele>
        <time>2026-05-11T10:55:23Z</time>
      </trkpt>
      <trkpt lat="45.97216" lon="5.52441">
        <ele>949.6</ele>
        <time>2026-05-11T10:55:24Z</time>
      </trkpt>
      <trkpt lat="45.97214" lon="5.52441">
        <ele>949.6</ele>
        <time>2026-05-11T10:55:25Z</time>
      </trkpt>
      <trkpt lat="45.97212" lon="5.5244">
        <ele>949.6</ele>
        <time>2026-05-11T10:55:26Z</time>
      </trkpt>
      <trkpt lat="45.97211" lon="5.52439">
        <ele>950</ele>
        <time>2026-05-11T10:55:27Z</time>
      </trkpt>
      <trkpt lat="45.9721" lon="5.52439">
        <ele>950.2</ele>
        <time>2026-05-11T10:55:28Z</time>
      </trkpt>
      <trkpt lat="45.97209" lon="5.52438">
        <ele>950.6</ele>
        <time>2026-05-11T10:55:29Z</time>
      </trkpt>
      <trkpt lat="45.97207" lon="5.52436">
        <ele>950.6</ele>
        <time>2026-05-11T10:55:30Z</time>
      </trkpt>
      <trkpt lat="45.97205" lon="5.52434">
        <ele>950.8</ele>
        <time>2026-05-11T10:55:31Z</time>
      </trkpt>
      <trkpt lat="45.97202" lon="5.52433">
        <ele>950.8</ele>
        <time>2026-05-11T10:55:32Z</time>
      </trkpt>
      <trkpt lat="45.972" lon="5.52431">
        <ele>950.8</ele>
        <time>2026-05-11T10:55:33Z</time>
      </trkpt>
      <trkpt lat="45.972" lon="5.52431">
        <ele>950.8</ele>
        <time>2026-05-11T10:55:34Z</time>
      </trkpt>
      <trkpt lat="45.97199" lon="5.52431">
        <ele>950.8</ele>
        <time>2026-05-11T10:55:35Z</time>
      </trkpt>
      <trkpt lat="45.97197" lon="5.52429">
        <ele>951.2</ele>
        <time>2026-05-11T10:55:36Z</time>
      </trkpt>
      <trkpt lat="45.97197" lon="5.52429">
        <ele>951.4</ele>
        <time>2026-05-11T10:55:37Z</time>
      </trkpt>
      <trkpt lat="45.97197" lon="5.52429">
        <ele>951.6</ele>
        <time>2026-05-11T10:55:38Z</time>
      </trkpt>
      <trkpt lat="45.97195" lon="5.52427">
        <ele>951.8</ele>
        <time>2026-05-11T10:55:41Z</time>
      </trkpt>
      <trkpt lat="45.97192" lon="5.52426">
        <ele>951.8</ele>
        <time>2026-05-11T10:55:42Z</time>
      </trkpt>
      <trkpt lat="45.9719" lon="5.52424">
        <ele>951.8</ele>
        <time>2026-05-11T10:55:43Z</time>
      </trkpt>
      <trkpt lat="45.97188" lon="5.52423">
        <ele>951.8</ele>
        <time>2026-05-11T10:55:44Z</time>
      </trkpt>
      <trkpt lat="45.97186" lon="5.52422">
        <ele>951.8</ele>
        <time>2026-05-11T10:55:45Z</time>
      </trkpt>
      <trkpt lat="45.97184" lon="5.52421">
        <ele>952.2</ele>
        <time>2026-05-11T10:55:46Z</time>
      </trkpt>
      <trkpt lat="45.97181" lon="5.5242">
        <ele>952.2</ele>
        <time>2026-05-11T10:55:47Z</time>
      </trkpt>
      <trkpt lat="45.97177" lon="5.52419">
        <ele>952.2</ele>
        <time>2026-05-11T10:55:48Z</time>
      </trkpt>
      <trkpt lat="45.97174" lon="5.52418">
        <ele>952.4</ele>
        <time>2026-05-11T10:55:49Z</time>
      </trkpt>
      <trkpt lat="45.97172" lon="5.52417">
        <ele>952.4</ele>
        <time>2026-05-11T10:55:50Z</time>
      </trkpt>
      <trkpt lat="45.9717" lon="5.52416">
        <ele>952.8</ele>
        <time>2026-05-11T10:55:51Z</time>
      </trkpt>
      <trkpt lat="45.97167" lon="5.52416">
        <ele>952.8</ele>
        <time>2026-05-11T10:55:52Z</time>
      </trkpt>
      <trkpt lat="45.97164" lon="5.52415">
        <ele>953</ele>
        <time>2026-05-11T10:55:53Z</time>
      </trkpt>
      <trkpt lat="45.97163" lon="5.52415">
        <ele>953</ele>
        <time>2026-05-11T10:55:54Z</time>
      </trkpt>
      <trkpt lat="45.97161" lon="5.52414">
        <ele>953</ele>
        <time>2026-05-11T10:55:55Z</time>
      </trkpt>
      <trkpt lat="45.97159" lon="5.52413">
        <ele>953</ele>
        <time>2026-05-11T10:55:56Z</time>
      </trkpt>
      <trkpt lat="45.97155" lon="5.52412">
        <ele>953.4</ele>
        <time>2026-05-11T10:55:57Z</time>
      </trkpt>
      <trkpt lat="45.97153" lon="5.52411">
        <ele>953.4</ele>
        <time>2026-05-11T10:55:58Z</time>
      </trkpt>
      <trkpt lat="45.97151" lon="5.52411">
        <ele>953.6</ele>
        <time>2026-05-11T10:55:59Z</time>
      </trkpt>
      <trkpt lat="45.97149" lon="5.52409">
        <ele>953.6</ele>
        <time>2026-05-11T10:56:00Z</time>
      </trkpt>
      <trkpt lat="45.97147" lon="5.52408">
        <ele>953.8</ele>
        <time>2026-05-11T10:56:01Z</time>
      </trkpt>
      <trkpt lat="45.97146" lon="5.52406">
        <ele>953.8</ele>
        <time>2026-05-11T10:56:02Z</time>
      </trkpt>
      <trkpt lat="45.97145" lon="5.52405">
        <ele>953.8</ele>
        <time>2026-05-11T10:56:03Z</time>
      </trkpt>
      <trkpt lat="45.97144" lon="5.52404">
        <ele>953.8</ele>
        <time>2026-05-11T10:56:04Z</time>
      </trkpt>
      <trkpt lat="45.97141" lon="5.52402">
        <ele>954.2</ele>
        <time>2026-05-11T10:56:05Z</time>
      </trkpt>
      <trkpt lat="45.97139" lon="5.52401">
        <ele>954.2</ele>
        <time>2026-05-11T10:56:06Z</time>
      </trkpt>
      <trkpt lat="45.97137" lon="5.524">
        <ele>954.6</ele>
        <time>2026-05-11T10:56:07Z</time>
      </trkpt>
      <trkpt lat="45.97135" lon="5.52399">
        <ele>954.8</ele>
        <time>2026-05-11T10:56:08Z</time>
      </trkpt>
      <trkpt lat="45.97133" lon="5.52398">
        <ele>955</ele>
        <time>2026-05-11T10:56:09Z</time>
      </trkpt>
      <trkpt lat="45.97132" lon="5.52398">
        <ele>955</ele>
        <time>2026-05-11T10:56:10Z</time>
      </trkpt>
      <trkpt lat="45.97129" lon="5.52397">
        <ele>955</ele>
        <time>2026-05-11T10:56:11Z</time>
      </trkpt>
      <trkpt lat="45.97127" lon="5.52396">
        <ele>955.4</ele>
        <time>2026-05-11T10:56:12Z</time>
      </trkpt>
      <trkpt lat="45.97125" lon="5.52395">
        <ele>955.6</ele>
        <time>2026-05-11T10:56:13Z</time>
      </trkpt>
      <trkpt lat="45.97122" lon="5.52394">
        <ele>955.6</ele>
        <time>2026-05-11T10:56:14Z</time>
      </trkpt>
      <trkpt lat="45.9712" lon="5.52392">
        <ele>956</ele>
        <time>2026-05-11T10:56:15Z</time>
      </trkpt>
      <trkpt lat="45.97118" lon="5.52391">
        <ele>956</ele>
        <time>2026-05-11T10:56:16Z</time>
      </trkpt>
      <trkpt lat="45.97115" lon="5.5239">
        <ele>956</ele>
        <time>2026-05-11T10:56:17Z</time>
      </trkpt>
      <trkpt lat="45.97112" lon="5.52389">
        <ele>956.4</ele>
        <time>2026-05-11T10:56:18Z</time>
      </trkpt>
      <trkpt lat="45.97109" lon="5.52388">
        <ele>956.6</ele>
        <time>2026-05-11T10:56:19Z</time>
      </trkpt>
      <trkpt lat="45.97106" lon="5.52387">
        <ele>956.6</ele>
        <time>2026-05-11T10:56:20Z</time>
      </trkpt>
      <trkpt lat="45.97104" lon="5.52385">
        <ele>956.6</ele>
        <time>2026-05-11T10:56:21Z</time>
      </trkpt>
      <trkpt lat="45.97102" lon="5.52384">
        <ele>956.6</ele>
        <time>2026-05-11T10:56:22Z</time>
      </trkpt>
      <trkpt lat="45.971" lon="5.52383">
        <ele>956.6</ele>
        <time>2026-05-11T10:56:23Z</time>
      </trkpt>
      <trkpt lat="45.97098" lon="5.52382">
        <ele>957</ele>
        <time>2026-05-11T10:56:24Z</time>
      </trkpt>
      <trkpt lat="45.97095" lon="5.52381">
        <ele>957</ele>
        <time>2026-05-11T10:56:25Z</time>
      </trkpt>
      <trkpt lat="45.97093" lon="5.5238">
        <ele>957</ele>
        <time>2026-05-11T10:56:26Z</time>
      </trkpt>
      <trkpt lat="45.97091" lon="5.52379">
        <ele>957</ele>
        <time>2026-05-11T10:56:27Z</time>
      </trkpt>
      <trkpt lat="45.97089" lon="5.52379">
        <ele>957</ele>
        <time>2026-05-11T10:56:28Z</time>
      </trkpt>
      <trkpt lat="45.97087" lon="5.52378">
        <ele>957.4</ele>
        <time>2026-05-11T10:56:29Z</time>
      </trkpt>
      <trkpt lat="45.97086" lon="5.52378">
        <ele>957.4</ele>
        <time>2026-05-11T10:56:30Z</time>
      </trkpt>
      <trkpt lat="45.97083" lon="5.52378">
        <ele>957.4</ele>
        <time>2026-05-11T10:56:31Z</time>
      </trkpt>
      <trkpt lat="45.97081" lon="5.52377">
        <ele>957.6</ele>
        <time>2026-05-11T10:56:32Z</time>
      </trkpt>
      <trkpt lat="45.97079" lon="5.52376">
        <ele>957.6</ele>
        <time>2026-05-11T10:56:33Z</time>
      </trkpt>
      <trkpt lat="45.97077" lon="5.52375">
        <ele>958</ele>
        <time>2026-05-11T10:56:34Z</time>
      </trkpt>
      <trkpt lat="45.97075" lon="5.52373">
        <ele>958</ele>
        <time>2026-05-11T10:56:35Z</time>
      </trkpt>
      <trkpt lat="45.97073" lon="5.52371">
        <ele>958</ele>
        <time>2026-05-11T10:56:36Z</time>
      </trkpt>
      <trkpt lat="45.9707" lon="5.5237">
        <ele>958</ele>
        <time>2026-05-11T10:56:37Z</time>
      </trkpt>
      <trkpt lat="45.97066" lon="5.52368">
        <ele>958.2</ele>
        <time>2026-05-11T10:56:38Z</time>
      </trkpt>
      <trkpt lat="45.97063" lon="5.52367">
        <ele>958.2</ele>
        <time>2026-05-11T10:56:39Z</time>
      </trkpt>
      <trkpt lat="45.97061" lon="5.52365">
        <ele>958.2</ele>
        <time>2026-05-11T10:56:40Z</time>
      </trkpt>
      <trkpt lat="45.97059" lon="5.52364">
        <ele>958.2</ele>
        <time>2026-05-11T10:56:41Z</time>
      </trkpt>
      <trkpt lat="45.97056" lon="5.52362">
        <ele>958.6</ele>
        <time>2026-05-11T10:56:42Z</time>
      </trkpt>
      <trkpt lat="45.97055" lon="5.52361">
        <ele>958.6</ele>
        <time>2026-05-11T10:56:43Z</time>
      </trkpt>
      <trkpt lat="45.97053" lon="5.5236">
        <ele>959</ele>
        <time>2026-05-11T10:56:44Z</time>
      </trkpt>
      <trkpt lat="45.97051" lon="5.52358">
        <ele>959</ele>
        <time>2026-05-11T10:56:45Z</time>
      </trkpt>
      <trkpt lat="45.97049" lon="5.52357">
        <ele>959</ele>
        <time>2026-05-11T10:56:46Z</time>
      </trkpt>
      <trkpt lat="45.97046" lon="5.52355">
        <ele>959</ele>
        <time>2026-05-11T10:56:47Z</time>
      </trkpt>
      <trkpt lat="45.97044" lon="5.52354">
        <ele>959</ele>
        <time>2026-05-11T10:56:48Z</time>
      </trkpt>
      <trkpt lat="45.97042" lon="5.52353">
        <ele>959</ele>
        <time>2026-05-11T10:56:49Z</time>
      </trkpt>
      <trkpt lat="45.9704" lon="5.52352">
        <ele>959.2</ele>
        <time>2026-05-11T10:56:50Z</time>
      </trkpt>
      <trkpt lat="45.97038" lon="5.52351">
        <ele>959.2</ele>
        <time>2026-05-11T10:56:51Z</time>
      </trkpt>
      <trkpt lat="45.97035" lon="5.5235">
        <ele>959.2</ele>
        <time>2026-05-11T10:56:52Z</time>
      </trkpt>
      <trkpt lat="45.97033" lon="5.52348">
        <ele>959.2</ele>
        <time>2026-05-11T10:56:53Z</time>
      </trkpt>
      <trkpt lat="45.97031" lon="5.52346">
        <ele>959.2</ele>
        <time>2026-05-11T10:56:54Z</time>
      </trkpt>
      <trkpt lat="45.97031" lon="5.52346">
        <ele>959.2</ele>
        <time>2026-05-11T10:56:55Z</time>
      </trkpt>
      <trkpt lat="45.97025" lon="5.52345">
        <ele>959.2</ele>
        <time>2026-05-11T10:56:57Z</time>
      </trkpt>
      <trkpt lat="45.97023" lon="5.52344">
        <ele>959.2</ele>
        <time>2026-05-11T10:56:58Z</time>
      </trkpt>
      <trkpt lat="45.97022" lon="5.52343">
        <ele>959.4</ele>
        <time>2026-05-11T10:56:59Z</time>
      </trkpt>
      <trkpt lat="45.97022" lon="5.52342">
        <ele>959.4</ele>
        <time>2026-05-11T10:57:00Z</time>
      </trkpt>
      <trkpt lat="45.97021" lon="5.52341">
        <ele>959.4</ele>
        <time>2026-05-11T10:57:01Z</time>
      </trkpt>
      <trkpt lat="45.9702" lon="5.5234">
        <ele>959.4</ele>
        <time>2026-05-11T10:57:02Z</time>
      </trkpt>
      <trkpt lat="45.97018" lon="5.52337">
        <ele>959.2</ele>
        <time>2026-05-11T10:57:03Z</time>
      </trkpt>
      <trkpt lat="45.97015" lon="5.52335">
        <ele>959.2</ele>
        <time>2026-05-11T10:57:04Z</time>
      </trkpt>
      <trkpt lat="45.97012" lon="5.52333">
        <ele>959.2</ele>
        <time>2026-05-11T10:57:05Z</time>
      </trkpt>
      <trkpt lat="45.97009" lon="5.52331">
        <ele>959.2</ele>
        <time>2026-05-11T10:57:06Z</time>
      </trkpt>
      <trkpt lat="45.97006" lon="5.52329">
        <ele>959.2</ele>
        <time>2026-05-11T10:57:07Z</time>
      </trkpt>
      <trkpt lat="45.97004" lon="5.52327">
        <ele>959.4</ele>
        <time>2026-05-11T10:57:08Z</time>
      </trkpt>
      <trkpt lat="45.97001" lon="5.52324">
        <ele>959.4</ele>
        <time>2026-05-11T10:57:09Z</time>
      </trkpt>
      <trkpt lat="45.96999" lon="5.52322">
        <ele>959.4</ele>
        <time>2026-05-11T10:57:10Z</time>
      </trkpt>
      <trkpt lat="45.96996" lon="5.52319">
        <ele>959.4</ele>
        <time>2026-05-11T10:57:11Z</time>
      </trkpt>
      <trkpt lat="45.96994" lon="5.52317">
        <ele>959.4</ele>
        <time>2026-05-11T10:57:12Z</time>
      </trkpt>
      <trkpt lat="45.96994" lon="5.52314">
        <ele>959.4</ele>
        <time>2026-05-11T10:57:13Z</time>
      </trkpt>
      <trkpt lat="45.96994" lon="5.52312">
        <ele>959.4</ele>
        <time>2026-05-11T10:57:14Z</time>
      </trkpt>
      <trkpt lat="45.96993" lon="5.5231">
        <ele>959.2</ele>
        <time>2026-05-11T10:57:15Z</time>
      </trkpt>
      <trkpt lat="45.96991" lon="5.52307">
        <ele>959.6</ele>
        <time>2026-05-11T10:57:16Z</time>
      </trkpt>
      <trkpt lat="45.96988" lon="5.52304">
        <ele>959.6</ele>
        <time>2026-05-11T10:57:17Z</time>
      </trkpt>
      <trkpt lat="45.96985" lon="5.52301">
        <ele>959.6</ele>
        <time>2026-05-11T10:57:18Z</time>
      </trkpt>
      <trkpt lat="45.96983" lon="5.52297">
        <ele>959.2</ele>
        <time>2026-05-11T10:57:19Z</time>
      </trkpt>
      <trkpt lat="45.96981" lon="5.52293">
        <ele>959</ele>
        <time>2026-05-11T10:57:20Z</time>
      </trkpt>
      <trkpt lat="45.9698" lon="5.52288">
        <ele>959</ele>
        <time>2026-05-11T10:57:21Z</time>
      </trkpt>
      <trkpt lat="45.96978" lon="5.52283">
        <ele>958.6</ele>
        <time>2026-05-11T10:57:22Z</time>
      </trkpt>
      <trkpt lat="45.96975" lon="5.52278">
        <ele>958</ele>
        <time>2026-05-11T10:57:23Z</time>
      </trkpt>
      <trkpt lat="45.96972" lon="5.52274">
        <ele>957.4</ele>
        <time>2026-05-11T10:57:24Z</time>
      </trkpt>
      <trkpt lat="45.96969" lon="5.52271">
        <ele>957</ele>
        <time>2026-05-11T10:57:25Z</time>
      </trkpt>
      <trkpt lat="45.96965" lon="5.52269">
        <ele>956.4</ele>
        <time>2026-05-11T10:57:26Z</time>
      </trkpt>
      <trkpt lat="45.96961" lon="5.52267">
        <ele>956.4</ele>
        <time>2026-05-11T10:57:27Z</time>
      </trkpt>
      <trkpt lat="45.96957" lon="5.52267">
        <ele>956</ele>
        <time>2026-05-11T10:57:28Z</time>
      </trkpt>
      <trkpt lat="45.96953" lon="5.52266">
        <ele>955.4</ele>
        <time>2026-05-11T10:57:29Z</time>
      </trkpt>
      <trkpt lat="45.96945" lon="5.52268">
        <ele>955.4</ele>
        <time>2026-05-11T10:57:30Z</time>
      </trkpt>
      <trkpt lat="45.96941" lon="5.52265">
        <ele>955</ele>
        <time>2026-05-11T10:57:31Z</time>
      </trkpt>
      <trkpt lat="45.96933" lon="5.52262">
        <ele>954.2</ele>
        <time>2026-05-11T10:57:32Z</time>
      </trkpt>
      <trkpt lat="45.9693" lon="5.52259">
        <ele>953.8</ele>
        <time>2026-05-11T10:57:33Z</time>
      </trkpt>
      <trkpt lat="45.96924" lon="5.52256">
        <ele>953</ele>
        <time>2026-05-11T10:57:34Z</time>
      </trkpt>
      <trkpt lat="45.96917" lon="5.52251">
        <ele>952.4</ele>
        <time>2026-05-11T10:57:35Z</time>
      </trkpt>
      <trkpt lat="45.96912" lon="5.52246">
        <ele>951.8</ele>
        <time>2026-05-11T10:57:36Z</time>
      </trkpt>
      <trkpt lat="45.96906" lon="5.52242">
        <ele>951</ele>
        <time>2026-05-11T10:57:37Z</time>
      </trkpt>
      <trkpt lat="45.96903" lon="5.52239">
        <ele>950.4</ele>
        <time>2026-05-11T10:57:38Z</time>
      </trkpt>
      <trkpt lat="45.96899" lon="5.52236">
        <ele>949.8</ele>
        <time>2026-05-11T10:57:39Z</time>
      </trkpt>
      <trkpt lat="45.96895" lon="5.52233">
        <ele>949.8</ele>
        <time>2026-05-11T10:57:40Z</time>
      </trkpt>
      <trkpt lat="45.96893" lon="5.52233">
        <ele>949.8</ele>
        <time>2026-05-11T10:57:41Z</time>
      </trkpt>
      <trkpt lat="45.96894" lon="5.52233">
        <ele>949.8</ele>
        <time>2026-05-11T10:57:42Z</time>
      </trkpt>
      <trkpt lat="45.96892" lon="5.52231">
        <ele>949.4</ele>
        <time>2026-05-11T10:57:43Z</time>
      </trkpt>
      <trkpt lat="45.9689" lon="5.52228">
        <ele>949.2</ele>
        <time>2026-05-11T10:57:44Z</time>
      </trkpt>
      <trkpt lat="45.96888" lon="5.52227">
        <ele>949.2</ele>
        <time>2026-05-11T10:57:45Z</time>
      </trkpt>
      <trkpt lat="45.96884" lon="5.52225">
        <ele>949.2</ele>
        <time>2026-05-11T10:57:46Z</time>
      </trkpt>
      <trkpt lat="45.9688" lon="5.52223">
        <ele>947.8</ele>
        <time>2026-05-11T10:57:47Z</time>
      </trkpt>
      <trkpt lat="45.96876" lon="5.52221">
        <ele>947.6</ele>
        <time>2026-05-11T10:57:48Z</time>
      </trkpt>
      <trkpt lat="45.96872" lon="5.52219">
        <ele>947.4</ele>
        <time>2026-05-11T10:57:49Z</time>
      </trkpt>
      <trkpt lat="45.96869" lon="5.52216">
        <ele>946.8</ele>
        <time>2026-05-11T10:57:50Z</time>
      </trkpt>
      <trkpt lat="45.96865" lon="5.52213">
        <ele>946</ele>
        <time>2026-05-11T10:57:51Z</time>
      </trkpt>
      <trkpt lat="45.96861" lon="5.52211">
        <ele>945.6</ele>
        <time>2026-05-11T10:57:52Z</time>
      </trkpt>
      <trkpt lat="45.96855" lon="5.52207">
        <ele>944.8</ele>
        <time>2026-05-11T10:57:53Z</time>
      </trkpt>
      <trkpt lat="45.96849" lon="5.52204">
        <ele>944</ele>
        <time>2026-05-11T10:57:54Z</time>
      </trkpt>
      <trkpt lat="45.96844" lon="5.52203">
        <ele>943.8</ele>
        <time>2026-05-11T10:57:55Z</time>
      </trkpt>
      <trkpt lat="45.96838" lon="5.52201">
        <ele>943.4</ele>
        <time>2026-05-11T10:57:56Z</time>
      </trkpt>
      <trkpt lat="45.96832" lon="5.52198">
        <ele>943</ele>
        <time>2026-05-11T10:57:57Z</time>
      </trkpt>
      <trkpt lat="45.96827" lon="5.52197">
        <ele>942.2</ele>
        <time>2026-05-11T10:57:58Z</time>
      </trkpt>
      <trkpt lat="45.96825" lon="5.52195">
        <ele>942.2</ele>
        <time>2026-05-11T10:57:59Z</time>
      </trkpt>
      <trkpt lat="45.96822" lon="5.52195">
        <ele>942.2</ele>
        <time>2026-05-11T10:58:00Z</time>
      </trkpt>
      <trkpt lat="45.96818" lon="5.52193">
        <ele>941.8</ele>
        <time>2026-05-11T10:58:01Z</time>
      </trkpt>
      <trkpt lat="45.96817" lon="5.52194">
        <ele>941.8</ele>
        <time>2026-05-11T10:58:02Z</time>
      </trkpt>
      <trkpt lat="45.96815" lon="5.5219">
        <ele>941.6</ele>
        <time>2026-05-11T10:58:03Z</time>
      </trkpt>
      <trkpt lat="45.96814" lon="5.52187">
        <ele>941.6</ele>
        <time>2026-05-11T10:58:04Z</time>
      </trkpt>
      <trkpt lat="45.96814" lon="5.52182">
        <ele>941</ele>
        <time>2026-05-11T10:58:05Z</time>
      </trkpt>
      <trkpt lat="45.96814" lon="5.52182">
        <ele>941</ele>
        <time>2026-05-11T10:58:06Z</time>
      </trkpt>
      <trkpt lat="45.96814" lon="5.52179">
        <ele>940.4</ele>
        <time>2026-05-11T10:58:07Z</time>
      </trkpt>
      <trkpt lat="45.96816" lon="5.52177">
        <ele>939.8</ele>
        <time>2026-05-11T10:58:08Z</time>
      </trkpt>
      <trkpt lat="45.96816" lon="5.52176">
        <ele>939.4</ele>
        <time>2026-05-11T10:58:09Z</time>
      </trkpt>
      <trkpt lat="45.96823" lon="5.52174">
        <ele>938.6</ele>
        <time>2026-05-11T10:58:10Z</time>
      </trkpt>
      <trkpt lat="45.96826" lon="5.52173">
        <ele>938.6</ele>
        <time>2026-05-11T10:58:11Z</time>
      </trkpt>
      <trkpt lat="45.9683" lon="5.52172">
        <ele>937.8</ele>
        <time>2026-05-11T10:58:12Z</time>
      </trkpt>
      <trkpt lat="45.96835" lon="5.52171">
        <ele>937.4</ele>
        <time>2026-05-11T10:58:13Z</time>
      </trkpt>
      <trkpt lat="45.96843" lon="5.52169">
        <ele>936.6</ele>
        <time>2026-05-11T10:58:14Z</time>
      </trkpt>
      <trkpt lat="45.96841" lon="5.52167">
        <ele>936.6</ele>
        <time>2026-05-11T10:58:15Z</time>
      </trkpt>
      <trkpt lat="45.96846" lon="5.52166">
        <ele>936</ele>
        <time>2026-05-11T10:58:16Z</time>
      </trkpt>
      <trkpt lat="45.9685" lon="5.52165">
        <ele>936</ele>
        <time>2026-05-11T10:58:17Z</time>
      </trkpt>
      <trkpt lat="45.96854" lon="5.52164">
        <ele>935.4</ele>
        <time>2026-05-11T10:58:18Z</time>
      </trkpt>
      <trkpt lat="45.96862" lon="5.52163">
        <ele>934.6</ele>
        <time>2026-05-11T10:58:19Z</time>
      </trkpt>
      <trkpt lat="45.96865" lon="5.52161">
        <ele>934.6</ele>
        <time>2026-05-11T10:58:20Z</time>
      </trkpt>
      <trkpt lat="45.9687" lon="5.52161">
        <ele>934.2</ele>
        <time>2026-05-11T10:58:21Z</time>
      </trkpt>
      <trkpt lat="45.96874" lon="5.5216">
        <ele>933.2</ele>
        <time>2026-05-11T10:58:22Z</time>
      </trkpt>
      <trkpt lat="45.96878" lon="5.52158">
        <ele>932.8</ele>
        <time>2026-05-11T10:58:23Z</time>
      </trkpt>
      <trkpt lat="45.96883" lon="5.52156">
        <ele>932.8</ele>
        <time>2026-05-11T10:58:24Z</time>
      </trkpt>
      <trkpt lat="45.9689" lon="5.52153">
        <ele>932.2</ele>
        <time>2026-05-11T10:58:25Z</time>
      </trkpt>
      <trkpt lat="45.96892" lon="5.52154">
        <ele>931.4</ele>
        <time>2026-05-11T10:58:26Z</time>
      </trkpt>
      <trkpt lat="45.96894" lon="5.52152">
        <ele>931.4</ele>
        <time>2026-05-11T10:58:27Z</time>
      </trkpt>
      <trkpt lat="45.96897" lon="5.52151">
        <ele>930.6</ele>
        <time>2026-05-11T10:58:28Z</time>
      </trkpt>
      <trkpt lat="45.96902" lon="5.5215">
        <ele>930.4</ele>
        <time>2026-05-11T10:58:29Z</time>
      </trkpt>
      <trkpt lat="45.96905" lon="5.5215">
        <ele>930</ele>
        <time>2026-05-11T10:58:30Z</time>
      </trkpt>
      <trkpt lat="45.96909" lon="5.52148">
        <ele>930</ele>
        <time>2026-05-11T10:58:31Z</time>
      </trkpt>
      <trkpt lat="45.9691" lon="5.52146">
        <ele>929.8</ele>
        <time>2026-05-11T10:58:32Z</time>
      </trkpt>
      <trkpt lat="45.96913" lon="5.52144">
        <ele>930</ele>
        <time>2026-05-11T10:58:33Z</time>
      </trkpt>
      <trkpt lat="45.96917" lon="5.52142">
        <ele>930</ele>
        <time>2026-05-11T10:58:34Z</time>
      </trkpt>
      <trkpt lat="45.96919" lon="5.5214">
        <ele>930</ele>
        <time>2026-05-11T10:58:35Z</time>
      </trkpt>
      <trkpt lat="45.96922" lon="5.52139">
        <ele>929.6</ele>
        <time>2026-05-11T10:58:36Z</time>
      </trkpt>
      <trkpt lat="45.96922" lon="5.52139">
        <ele>928.6</ele>
        <time>2026-05-11T10:58:37Z</time>
      </trkpt>
      <trkpt lat="45.96925" lon="5.52137">
        <ele>928.6</ele>
        <time>2026-05-11T10:58:38Z</time>
      </trkpt>
      <trkpt lat="45.9693" lon="5.52133">
        <ele>927.8</ele>
        <time>2026-05-11T10:58:39Z</time>
      </trkpt>
      <trkpt lat="45.96934" lon="5.52131">
        <ele>927.6</ele>
        <time>2026-05-11T10:58:40Z</time>
      </trkpt>
      <trkpt lat="45.96937" lon="5.52129">
        <ele>927.6</ele>
        <time>2026-05-11T10:58:41Z</time>
      </trkpt>
      <trkpt lat="45.96939" lon="5.52126">
        <ele>927.6</ele>
        <time>2026-05-11T10:58:42Z</time>
      </trkpt>
      <trkpt lat="45.96942" lon="5.52125">
        <ele>927.6</ele>
        <time>2026-05-11T10:58:43Z</time>
      </trkpt>
      <trkpt lat="45.96943" lon="5.52122">
        <ele>927.2</ele>
        <time>2026-05-11T10:58:44Z</time>
      </trkpt>
      <trkpt lat="45.96945" lon="5.52121">
        <ele>926.6</ele>
        <time>2026-05-11T10:58:45Z</time>
      </trkpt>
      <trkpt lat="45.96953" lon="5.52118">
        <ele>925.2</ele>
        <time>2026-05-11T10:58:46Z</time>
      </trkpt>
      <trkpt lat="45.96956" lon="5.52117">
        <ele>925.4</ele>
        <time>2026-05-11T10:58:47Z</time>
      </trkpt>
      <trkpt lat="45.96961" lon="5.52116">
        <ele>925</ele>
        <time>2026-05-11T10:58:48Z</time>
      </trkpt>
      <trkpt lat="45.96965" lon="5.52115">
        <ele>923.6</ele>
        <time>2026-05-11T10:58:49Z</time>
      </trkpt>
      <trkpt lat="45.96969" lon="5.52112">
        <ele>923.6</ele>
        <time>2026-05-11T10:58:50Z</time>
      </trkpt>
      <trkpt lat="45.96977" lon="5.52109">
        <ele>923.6</ele>
        <time>2026-05-11T10:58:51Z</time>
      </trkpt>
      <trkpt lat="45.96983" lon="5.52106">
        <ele>923.6</ele>
        <time>2026-05-11T10:58:52Z</time>
      </trkpt>
      <trkpt lat="45.96988" lon="5.52105">
        <ele>923.2</ele>
        <time>2026-05-11T10:58:53Z</time>
      </trkpt>
      <trkpt lat="45.96993" lon="5.52105">
        <ele>923.2</ele>
        <time>2026-05-11T10:58:54Z</time>
      </trkpt>
      <trkpt lat="45.96994" lon="5.52104">
        <ele>922.8</ele>
        <time>2026-05-11T10:58:55Z</time>
      </trkpt>
      <trkpt lat="45.96998" lon="5.52103">
        <ele>922.8</ele>
        <time>2026-05-11T10:58:56Z</time>
      </trkpt>
      <trkpt lat="45.97002" lon="5.52104">
        <ele>922.8</ele>
        <time>2026-05-11T10:58:57Z</time>
      </trkpt>
      <trkpt lat="45.97006" lon="5.52102">
        <ele>922.4</ele>
        <time>2026-05-11T10:58:58Z</time>
      </trkpt>
      <trkpt lat="45.9701" lon="5.52099">
        <ele>922.2</ele>
        <time>2026-05-11T10:58:59Z</time>
      </trkpt>
      <trkpt lat="45.97017" lon="5.52096">
        <ele>921.8</ele>
        <time>2026-05-11T10:59:00Z</time>
      </trkpt>
      <trkpt lat="45.97021" lon="5.52091">
        <ele>921.8</ele>
        <time>2026-05-11T10:59:01Z</time>
      </trkpt>
      <trkpt lat="45.97019" lon="5.52085">
        <ele>921</ele>
        <time>2026-05-11T10:59:02Z</time>
      </trkpt>
      <trkpt lat="45.97019" lon="5.52079">
        <ele>921</ele>
        <time>2026-05-11T10:59:03Z</time>
      </trkpt>
      <trkpt lat="45.97021" lon="5.52073">
        <ele>921</ele>
        <time>2026-05-11T10:59:04Z</time>
      </trkpt>
      <trkpt lat="45.97021" lon="5.52066">
        <ele>919.4</ele>
        <time>2026-05-11T10:59:05Z</time>
      </trkpt>
      <trkpt lat="45.97021" lon="5.52059">
        <ele>918.8</ele>
        <time>2026-05-11T10:59:06Z</time>
      </trkpt>
      <trkpt lat="45.97021" lon="5.52051">
        <ele>918.6</ele>
        <time>2026-05-11T10:59:07Z</time>
      </trkpt>
      <trkpt lat="45.9702" lon="5.52048">
        <ele>918.2</ele>
        <time>2026-05-11T10:59:08Z</time>
      </trkpt>
      <trkpt lat="45.9702" lon="5.52048">
        <ele>918.2</ele>
        <time>2026-05-11T10:59:09Z</time>
      </trkpt>
      <trkpt lat="45.97021" lon="5.52048">
        <ele>918.2</ele>
        <time>2026-05-11T10:59:10Z</time>
      </trkpt>
      <trkpt lat="45.9702" lon="5.52051">
        <ele>917.4</ele>
        <time>2026-05-11T10:59:17Z</time>
      </trkpt>
      <trkpt lat="45.9702" lon="5.52051">
        <ele>917.4</ele>
        <time>2026-05-11T10:59:18Z</time>
      </trkpt>
      <trkpt lat="45.9702" lon="5.52053">
        <ele>917.4</ele>
        <time>2026-05-11T10:59:19Z</time>
      </trkpt>
      <trkpt lat="45.9702" lon="5.52053">
        <ele>917.4</ele>
        <time>2026-05-11T10:59:20Z</time>
      </trkpt>
      <trkpt lat="45.9702" lon="5.52053">
        <ele>917.4</ele>
        <time>2026-05-11T10:59:21Z</time>
      </trkpt>
      <trkpt lat="45.97019" lon="5.52048">
        <ele>917.6</ele>
        <time>2026-05-11T11:02:12Z</time>
      </trkpt>
      <trkpt lat="45.97019" lon="5.52046">
        <ele>917.6</ele>
        <time>2026-05-11T11:02:13Z</time>
      </trkpt>
      <trkpt lat="45.97019" lon="5.52045">
        <ele>917.6</ele>
        <time>2026-05-11T11:02:14Z</time>
      </trkpt>
      <trkpt lat="45.97019" lon="5.52043">
        <ele>917.6</ele>
        <time>2026-05-11T11:02:15Z</time>
      </trkpt>
      <trkpt lat="45.9702" lon="5.52041">
        <ele>917.6</ele>
        <time>2026-05-11T11:02:16Z</time>
      </trkpt>
      <trkpt lat="45.9702" lon="5.52039">
        <ele>917.2</ele>
        <time>2026-05-11T11:02:17Z</time>
      </trkpt>
      <trkpt lat="45.9702" lon="5.52037">
        <ele>917.2</ele>
        <time>2026-05-11T11:02:18Z</time>
      </trkpt>
      <trkpt lat="45.97019" lon="5.52036">
        <ele>917.2</ele>
        <time>2026-05-11T11:02:19Z</time>
      </trkpt>
      <trkpt lat="45.97019" lon="5.52034">
        <ele>917.2</ele>
        <time>2026-05-11T11:02:20Z</time>
      </trkpt>
      <trkpt lat="45.97019" lon="5.52033">
        <ele>917.2</ele>
        <time>2026-05-11T11:02:21Z</time>
      </trkpt>
      <trkpt lat="45.97019" lon="5.52031">
        <ele>917.2</ele>
        <time>2026-05-11T11:02:22Z</time>
      </trkpt>
      <trkpt lat="45.97019" lon="5.5203">
        <ele>917</ele>
        <time>2026-05-11T11:02:23Z</time>
      </trkpt>
      <trkpt lat="45.97019" lon="5.52029">
        <ele>917</ele>
        <time>2026-05-11T11:02:24Z</time>
      </trkpt>
      <trkpt lat="45.97018" lon="5.5203">
        <ele>917</ele>
        <time>2026-05-11T11:02:25Z</time>
      </trkpt>
      <trkpt lat="45.97018" lon="5.5203">
        <ele>917</ele>
        <time>2026-05-11T11:02:26Z</time>
      </trkpt>
      <trkpt lat="45.97021" lon="5.52029">
        <ele>916.8</ele>
        <time>2026-05-11T11:03:43Z</time>
      </trkpt>
      <trkpt lat="45.97021" lon="5.52027">
        <ele>916.8</ele>
        <time>2026-05-11T11:03:44Z</time>
      </trkpt>
      <trkpt lat="45.97021" lon="5.52025">
        <ele>916.8</ele>
        <time>2026-05-11T11:03:45Z</time>
      </trkpt>
      <trkpt lat="45.97021" lon="5.52024">
        <ele>916.4</ele>
        <time>2026-05-11T11:03:46Z</time>
      </trkpt>
      <trkpt lat="45.9702" lon="5.52021">
        <ele>915.8</ele>
        <time>2026-05-11T11:03:47Z</time>
      </trkpt>
      <trkpt lat="45.97019" lon="5.52018">
        <ele>915.8</ele>
        <time>2026-05-11T11:03:48Z</time>
      </trkpt>
      <trkpt lat="45.97018" lon="5.52014">
        <ele>915.8</ele>
        <time>2026-05-11T11:03:49Z</time>
      </trkpt>
      <trkpt lat="45.97017" lon="5.52011">
        <ele>915.8</ele>
        <time>2026-05-11T11:03:50Z</time>
      </trkpt>
      <trkpt lat="45.97016" lon="5.52006">
        <ele>915.8</ele>
        <time>2026-05-11T11:03:51Z</time>
      </trkpt>
      <trkpt lat="45.97015" lon="5.52003">
        <ele>915.8</ele>
        <time>2026-05-11T11:03:52Z</time>
      </trkpt>
      <trkpt lat="45.97014" lon="5.51999">
        <ele>915.8</ele>
        <time>2026-05-11T11:03:53Z</time>
      </trkpt>
      <trkpt lat="45.97013" lon="5.51996">
        <ele>915.8</ele>
        <time>2026-05-11T11:03:54Z</time>
      </trkpt>
      <trkpt lat="45.97012" lon="5.51992">
        <ele>915.8</ele>
        <time>2026-05-11T11:03:55Z</time>
      </trkpt>
      <trkpt lat="45.97011" lon="5.51989">
        <ele>915.4</ele>
        <time>2026-05-11T11:03:56Z</time>
      </trkpt>
      <trkpt lat="45.9701" lon="5.51987">
        <ele>915.8</ele>
        <time>2026-05-11T11:03:57Z</time>
      </trkpt>
      <trkpt lat="45.97008" lon="5.51985">
        <ele>916.2</ele>
        <time>2026-05-11T11:03:58Z</time>
      </trkpt>
      <trkpt lat="45.97005" lon="5.51983">
        <ele>916.8</ele>
        <time>2026-05-11T11:03:59Z</time>
      </trkpt>
      <trkpt lat="45.97003" lon="5.51981">
        <ele>917.2</ele>
        <time>2026-05-11T11:04:00Z</time>
      </trkpt>
      <trkpt lat="45.97" lon="5.51979">
        <ele>917.8</ele>
        <time>2026-05-11T11:04:01Z</time>
      </trkpt>
      <trkpt lat="45.96998" lon="5.51978">
        <ele>918</ele>
        <time>2026-05-11T11:04:02Z</time>
      </trkpt>
      <trkpt lat="45.96996" lon="5.51976">
        <ele>918.4</ele>
        <time>2026-05-11T11:04:03Z</time>
      </trkpt>
      <trkpt lat="45.96993" lon="5.51975">
        <ele>918.4</ele>
        <time>2026-05-11T11:04:04Z</time>
      </trkpt>
      <trkpt lat="45.96991" lon="5.51974">
        <ele>919</ele>
        <time>2026-05-11T11:04:05Z</time>
      </trkpt>
      <trkpt lat="45.96989" lon="5.51972">
        <ele>919.4</ele>
        <time>2026-05-11T11:04:06Z</time>
      </trkpt>
      <trkpt lat="45.96987" lon="5.51971">
        <ele>919.8</ele>
        <time>2026-05-11T11:04:07Z</time>
      </trkpt>
      <trkpt lat="45.96985" lon="5.51969">
        <ele>919.8</ele>
        <time>2026-05-11T11:04:08Z</time>
      </trkpt>
      <trkpt lat="45.96982" lon="5.51968">
        <ele>919.8</ele>
        <time>2026-05-11T11:04:09Z</time>
      </trkpt>
      <trkpt lat="45.96981" lon="5.51967">
        <ele>919.8</ele>
        <time>2026-05-11T11:04:10Z</time>
      </trkpt>
      <trkpt lat="45.96979" lon="5.51966">
        <ele>919.8</ele>
        <time>2026-05-11T11:04:11Z</time>
      </trkpt>
      <trkpt lat="45.96978" lon="5.51966">
        <ele>920.2</ele>
        <time>2026-05-11T11:04:12Z</time>
      </trkpt>
      <trkpt lat="45.96976" lon="5.51964">
        <ele>920.2</ele>
        <time>2026-05-11T11:04:13Z</time>
      </trkpt>
      <trkpt lat="45.96974" lon="5.51961">
        <ele>920.2</ele>
        <time>2026-05-11T11:04:14Z</time>
      </trkpt>
      <trkpt lat="45.96973" lon="5.51959">
        <ele>920.2</ele>
        <time>2026-05-11T11:04:15Z</time>
      </trkpt>
      <trkpt lat="45.96971" lon="5.51956">
        <ele>919.4</ele>
        <time>2026-05-11T11:04:16Z</time>
      </trkpt>
      <trkpt lat="45.9697" lon="5.51955">
        <ele>919.8</ele>
        <time>2026-05-11T11:04:17Z</time>
      </trkpt>
      <trkpt lat="45.96968" lon="5.51954">
        <ele>919.8</ele>
        <time>2026-05-11T11:04:18Z</time>
      </trkpt>
      <trkpt lat="45.96967" lon="5.51953">
        <ele>919.6</ele>
        <time>2026-05-11T11:04:19Z</time>
      </trkpt>
      <trkpt lat="45.96965" lon="5.51951">
        <ele>919.6</ele>
        <time>2026-05-11T11:04:20Z</time>
      </trkpt>
      <trkpt lat="45.96963" lon="5.51951">
        <ele>919.6</ele>
        <time>2026-05-11T11:04:21Z</time>
      </trkpt>
      <trkpt lat="45.9696" lon="5.5195">
        <ele>919.2</ele>
        <time>2026-05-11T11:04:22Z</time>
      </trkpt>
      <trkpt lat="45.96958" lon="5.51948">
        <ele>918.6</ele>
        <time>2026-05-11T11:04:23Z</time>
      </trkpt>
      <trkpt lat="45.96955" lon="5.51947">
        <ele>918.4</ele>
        <time>2026-05-11T11:04:24Z</time>
      </trkpt>
      <trkpt lat="45.96952" lon="5.51945">
        <ele>918.2</ele>
        <time>2026-05-11T11:04:25Z</time>
      </trkpt>
      <trkpt lat="45.96949" lon="5.51942">
        <ele>917.6</ele>
        <time>2026-05-11T11:04:26Z</time>
      </trkpt>
      <trkpt lat="45.96945" lon="5.51937">
        <ele>917</ele>
        <time>2026-05-11T11:04:27Z</time>
      </trkpt>
      <trkpt lat="45.96944" lon="5.51931">
        <ele>917</ele>
        <time>2026-05-11T11:04:28Z</time>
      </trkpt>
      <trkpt lat="45.96942" lon="5.51925">
        <ele>916.8</ele>
        <time>2026-05-11T11:04:29Z</time>
      </trkpt>
      <trkpt lat="45.96948" lon="5.51917">
        <ele>916.4</ele>
        <time>2026-05-11T11:04:30Z</time>
      </trkpt>
      <trkpt lat="45.96952" lon="5.51911">
        <ele>916.4</ele>
        <time>2026-05-11T11:04:31Z</time>
      </trkpt>
      <trkpt lat="45.96957" lon="5.51904">
        <ele>916.2</ele>
        <time>2026-05-11T11:04:32Z</time>
      </trkpt>
      <trkpt lat="45.9696" lon="5.51896">
        <ele>915.8</ele>
        <time>2026-05-11T11:04:33Z</time>
      </trkpt>
      <trkpt lat="45.96961" lon="5.51887">
        <ele>915.2</ele>
        <time>2026-05-11T11:04:34Z</time>
      </trkpt>
      <trkpt lat="45.96962" lon="5.51878">
        <ele>914.8</ele>
        <time>2026-05-11T11:04:35Z</time>
      </trkpt>
      <trkpt lat="45.96964" lon="5.5187">
        <ele>914.6</ele>
        <time>2026-05-11T11:04:36Z</time>
      </trkpt>
      <trkpt lat="45.96966" lon="5.51861">
        <ele>914</ele>
        <time>2026-05-11T11:04:37Z</time>
      </trkpt>
      <trkpt lat="45.96969" lon="5.51852">
        <ele>913.6</ele>
        <time>2026-05-11T11:04:38Z</time>
      </trkpt>
      <trkpt lat="45.96973" lon="5.51844">
        <ele>913.2</ele>
        <time>2026-05-11T11:04:39Z</time>
      </trkpt>
      <trkpt lat="45.96979" lon="5.51837">
        <ele>912.6</ele>
        <time>2026-05-11T11:04:40Z</time>
      </trkpt>
      <trkpt lat="45.96985" lon="5.5183">
        <ele>912.6</ele>
        <time>2026-05-11T11:04:41Z</time>
      </trkpt>
      <trkpt lat="45.96992" lon="5.51823">
        <ele>911.6</ele>
        <time>2026-05-11T11:04:42Z</time>
      </trkpt>
      <trkpt lat="45.96998" lon="5.51817">
        <ele>911.2</ele>
        <time>2026-05-11T11:04:43Z</time>
      </trkpt>
      <trkpt lat="45.97005" lon="5.51811">
        <ele>910.4</ele>
        <time>2026-05-11T11:04:44Z</time>
      </trkpt>
      <trkpt lat="45.97011" lon="5.51806">
        <ele>909.8</ele>
        <time>2026-05-11T11:04:45Z</time>
      </trkpt>
      <trkpt lat="45.97017" lon="5.518">
        <ele>909.4</ele>
        <time>2026-05-11T11:04:46Z</time>
      </trkpt>
      <trkpt lat="45.97023" lon="5.51795">
        <ele>908.8</ele>
        <time>2026-05-11T11:04:47Z</time>
      </trkpt>
      <trkpt lat="45.9703" lon="5.51789">
        <ele>908.4</ele>
        <time>2026-05-11T11:04:48Z</time>
      </trkpt>
      <trkpt lat="45.97036" lon="5.51784">
        <ele>907.8</ele>
        <time>2026-05-11T11:04:49Z</time>
      </trkpt>
      <trkpt lat="45.97042" lon="5.51774">
        <ele>907.2</ele>
        <time>2026-05-11T11:04:50Z</time>
      </trkpt>
      <trkpt lat="45.97041" lon="5.51765">
        <ele>906.8</ele>
        <time>2026-05-11T11:04:51Z</time>
      </trkpt>
      <trkpt lat="45.97042" lon="5.51754">
        <ele>904.8</ele>
        <time>2026-05-11T11:04:52Z</time>
      </trkpt>
      <trkpt lat="45.9704" lon="5.51743">
        <ele>903.8</ele>
        <time>2026-05-11T11:04:53Z</time>
      </trkpt>
      <trkpt lat="45.97037" lon="5.51732">
        <ele>903.2</ele>
        <time>2026-05-11T11:04:54Z</time>
      </trkpt>
      <trkpt lat="45.97032" lon="5.51723">
        <ele>903.2</ele>
        <time>2026-05-11T11:04:55Z</time>
      </trkpt>
      <trkpt lat="45.97027" lon="5.51716">
        <ele>902.2</ele>
        <time>2026-05-11T11:04:56Z</time>
      </trkpt>
      <trkpt lat="45.97022" lon="5.51709">
        <ele>901.2</ele>
        <time>2026-05-11T11:04:57Z</time>
      </trkpt>
      <trkpt lat="45.97017" lon="5.51702">
        <ele>900.8</ele>
        <time>2026-05-11T11:04:58Z</time>
      </trkpt>
      <trkpt lat="45.97014" lon="5.51694">
        <ele>900</ele>
        <time>2026-05-11T11:04:59Z</time>
      </trkpt>
      <trkpt lat="45.97011" lon="5.51685">
        <ele>899.8</ele>
        <time>2026-05-11T11:05:00Z</time>
      </trkpt>
      <trkpt lat="45.97008" lon="5.51677">
        <ele>899.8</ele>
        <time>2026-05-11T11:05:01Z</time>
      </trkpt>
      <trkpt lat="45.97005" lon="5.5167">
        <ele>899.2</ele>
        <time>2026-05-11T11:05:02Z</time>
      </trkpt>
      <trkpt lat="45.97002" lon="5.51664">
        <ele>898.6</ele>
        <time>2026-05-11T11:05:03Z</time>
      </trkpt>
      <trkpt lat="45.96999" lon="5.51655">
        <ele>897.8</ele>
        <time>2026-05-11T11:05:04Z</time>
      </trkpt>
      <trkpt lat="45.96998" lon="5.51646">
        <ele>897.2</ele>
        <time>2026-05-11T11:05:05Z</time>
      </trkpt>
      <trkpt lat="45.96997" lon="5.51635">
        <ele>896.2</ele>
        <time>2026-05-11T11:05:06Z</time>
      </trkpt>
      <trkpt lat="45.96997" lon="5.51625">
        <ele>895.2</ele>
        <time>2026-05-11T11:05:07Z</time>
      </trkpt>
      <trkpt lat="45.96997" lon="5.51613">
        <ele>894.2</ele>
        <time>2026-05-11T11:05:08Z</time>
      </trkpt>
      <trkpt lat="45.96998" lon="5.51602">
        <ele>893.8</ele>
        <time>2026-05-11T11:05:09Z</time>
      </trkpt>
      <trkpt lat="45.96999" lon="5.51591">
        <ele>893.2</ele>
        <time>2026-05-11T11:05:10Z</time>
      </trkpt>
      <trkpt lat="45.97002" lon="5.51582">
        <ele>892.8</ele>
        <time>2026-05-11T11:05:11Z</time>
      </trkpt>
      <trkpt lat="45.97004" lon="5.51574">
        <ele>892.8</ele>
        <time>2026-05-11T11:05:12Z</time>
      </trkpt>
      <trkpt lat="45.97008" lon="5.51567">
        <ele>892.2</ele>
        <time>2026-05-11T11:05:13Z</time>
      </trkpt>
      <trkpt lat="45.97016" lon="5.51562">
        <ele>892.6</ele>
        <time>2026-05-11T11:05:14Z</time>
      </trkpt>
      <trkpt lat="45.97024" lon="5.51558">
        <ele>892</ele>
        <time>2026-05-11T11:05:15Z</time>
      </trkpt>
      <trkpt lat="45.97031" lon="5.51554">
        <ele>891.4</ele>
        <time>2026-05-11T11:05:16Z</time>
      </trkpt>
      <trkpt lat="45.97037" lon="5.5155">
        <ele>890.8</ele>
        <time>2026-05-11T11:05:17Z</time>
      </trkpt>
      <trkpt lat="45.97044" lon="5.51544">
        <ele>889.8</ele>
        <time>2026-05-11T11:05:18Z</time>
      </trkpt>
      <trkpt lat="45.97048" lon="5.51536">
        <ele>889.4</ele>
        <time>2026-05-11T11:05:19Z</time>
      </trkpt>
      <trkpt lat="45.97051" lon="5.51527">
        <ele>888.8</ele>
        <time>2026-05-11T11:05:20Z</time>
      </trkpt>
      <trkpt lat="45.97052" lon="5.51518">
        <ele>888.2</ele>
        <time>2026-05-11T11:05:21Z</time>
      </trkpt>
      <trkpt lat="45.97055" lon="5.51509">
        <ele>887.8</ele>
        <time>2026-05-11T11:05:22Z</time>
      </trkpt>
      <trkpt lat="45.97059" lon="5.515">
        <ele>887.2</ele>
        <time>2026-05-11T11:05:23Z</time>
      </trkpt>
      <trkpt lat="45.97062" lon="5.51492">
        <ele>887</ele>
        <time>2026-05-11T11:05:24Z</time>
      </trkpt>
      <trkpt lat="45.97068" lon="5.51485">
        <ele>886.2</ele>
        <time>2026-05-11T11:05:25Z</time>
      </trkpt>
      <trkpt lat="45.97075" lon="5.51477">
        <ele>885.4</ele>
        <time>2026-05-11T11:05:26Z</time>
      </trkpt>
      <trkpt lat="45.97082" lon="5.51473">
        <ele>884.6</ele>
        <time>2026-05-11T11:05:27Z</time>
      </trkpt>
      <trkpt lat="45.97089" lon="5.51467">
        <ele>884</ele>
        <time>2026-05-11T11:05:28Z</time>
      </trkpt>
      <trkpt lat="45.97098" lon="5.51462">
        <ele>883</ele>
        <time>2026-05-11T11:05:29Z</time>
      </trkpt>
      <trkpt lat="45.97106" lon="5.51458">
        <ele>882.8</ele>
        <time>2026-05-11T11:05:30Z</time>
      </trkpt>
      <trkpt lat="45.97113" lon="5.51455">
        <ele>882.2</ele>
        <time>2026-05-11T11:05:31Z</time>
      </trkpt>
      <trkpt lat="45.97116" lon="5.51453">
        <ele>881.8</ele>
        <time>2026-05-11T11:05:32Z</time>
      </trkpt>
      <trkpt lat="45.97124" lon="5.51452">
        <ele>881.4</ele>
        <time>2026-05-11T11:05:33Z</time>
      </trkpt>
      <trkpt lat="45.97128" lon="5.5145">
        <ele>881.2</ele>
        <time>2026-05-11T11:05:34Z</time>
      </trkpt>
      <trkpt lat="45.97131" lon="5.51446">
        <ele>880.8</ele>
        <time>2026-05-11T11:05:35Z</time>
      </trkpt>
      <trkpt lat="45.97132" lon="5.5144">
        <ele>880.2</ele>
        <time>2026-05-11T11:05:36Z</time>
      </trkpt>
      <trkpt lat="45.9713" lon="5.51434">
        <ele>880.2</ele>
        <time>2026-05-11T11:05:37Z</time>
      </trkpt>
      <trkpt lat="45.97126" lon="5.51429">
        <ele>879.6</ele>
        <time>2026-05-11T11:05:38Z</time>
      </trkpt>
      <trkpt lat="45.97121" lon="5.51427">
        <ele>878.4</ele>
        <time>2026-05-11T11:05:39Z</time>
      </trkpt>
      <trkpt lat="45.97116" lon="5.51425">
        <ele>877.6</ele>
        <time>2026-05-11T11:05:40Z</time>
      </trkpt>
      <trkpt lat="45.97111" lon="5.51424">
        <ele>877</ele>
        <time>2026-05-11T11:05:41Z</time>
      </trkpt>
      <trkpt lat="45.97104" lon="5.51422">
        <ele>876.4</ele>
        <time>2026-05-11T11:05:42Z</time>
      </trkpt>
      <trkpt lat="45.97098" lon="5.51419">
        <ele>875.4</ele>
        <time>2026-05-11T11:05:43Z</time>
      </trkpt>
      <trkpt lat="45.97092" lon="5.51418">
        <ele>874.8</ele>
        <time>2026-05-11T11:05:44Z</time>
      </trkpt>
      <trkpt lat="45.97085" lon="5.51414">
        <ele>874.8</ele>
        <time>2026-05-11T11:05:45Z</time>
      </trkpt>
      <trkpt lat="45.97078" lon="5.51411">
        <ele>874.2</ele>
        <time>2026-05-11T11:05:46Z</time>
      </trkpt>
      <trkpt lat="45.97071" lon="5.51409">
        <ele>873.6</ele>
        <time>2026-05-11T11:05:47Z</time>
      </trkpt>
      <trkpt lat="45.97064" lon="5.51407">
        <ele>872.8</ele>
        <time>2026-05-11T11:05:48Z</time>
      </trkpt>
      <trkpt lat="45.97058" lon="5.51406">
        <ele>871.6</ele>
        <time>2026-05-11T11:05:49Z</time>
      </trkpt>
      <trkpt lat="45.97051" lon="5.51405">
        <ele>870.6</ele>
        <time>2026-05-11T11:05:50Z</time>
      </trkpt>
      <trkpt lat="45.97043" lon="5.51406">
        <ele>870</ele>
        <time>2026-05-11T11:05:51Z</time>
      </trkpt>
      <trkpt lat="45.97036" lon="5.51407">
        <ele>870</ele>
        <time>2026-05-11T11:05:52Z</time>
      </trkpt>
      <trkpt lat="45.97028" lon="5.51407">
        <ele>869.2</ele>
        <time>2026-05-11T11:05:53Z</time>
      </trkpt>
      <trkpt lat="45.9702" lon="5.51406">
        <ele>868.6</ele>
        <time>2026-05-11T11:05:54Z</time>
      </trkpt>
      <trkpt lat="45.97013" lon="5.51405">
        <ele>867.4</ele>
        <time>2026-05-11T11:05:55Z</time>
      </trkpt>
      <trkpt lat="45.97008" lon="5.51402">
        <ele>866.6</ele>
        <time>2026-05-11T11:05:56Z</time>
      </trkpt>
      <trkpt lat="45.97001" lon="5.51399">
        <ele>866.2</ele>
        <time>2026-05-11T11:05:57Z</time>
      </trkpt>
      <trkpt lat="45.96994" lon="5.51393">
        <ele>865.6</ele>
        <time>2026-05-11T11:05:58Z</time>
      </trkpt>
      <trkpt lat="45.96986" lon="5.51388">
        <ele>864.8</ele>
        <time>2026-05-11T11:05:59Z</time>
      </trkpt>
      <trkpt lat="45.96979" lon="5.51381">
        <ele>864</ele>
        <time>2026-05-11T11:06:00Z</time>
      </trkpt>
      <trkpt lat="45.96972" lon="5.51375">
        <ele>863.4</ele>
        <time>2026-05-11T11:06:01Z</time>
      </trkpt>
      <trkpt lat="45.96964" lon="5.51368">
        <ele>863.2</ele>
        <time>2026-05-11T11:06:02Z</time>
      </trkpt>
      <trkpt lat="45.96958" lon="5.51362">
        <ele>862.8</ele>
        <time>2026-05-11T11:06:03Z</time>
      </trkpt>
      <trkpt lat="45.96949" lon="5.51355">
        <ele>862.2</ele>
        <time>2026-05-11T11:06:04Z</time>
      </trkpt>
      <trkpt lat="45.96945" lon="5.51346">
        <ele>862.2</ele>
        <time>2026-05-11T11:06:05Z</time>
      </trkpt>
      <trkpt lat="45.96937" lon="5.51338">
        <ele>861.4</ele>
        <time>2026-05-11T11:06:06Z</time>
      </trkpt>
      <trkpt lat="45.96931" lon="5.5133">
        <ele>861</ele>
        <time>2026-05-11T11:06:07Z</time>
      </trkpt>
      <trkpt lat="45.96924" lon="5.51322">
        <ele>860.2</ele>
        <time>2026-05-11T11:06:08Z</time>
      </trkpt>
      <trkpt lat="45.96916" lon="5.51316">
        <ele>860</ele>
        <time>2026-05-11T11:06:09Z</time>
      </trkpt>
      <trkpt lat="45.9691" lon="5.5131">
        <ele>860</ele>
        <time>2026-05-11T11:06:10Z</time>
      </trkpt>
      <trkpt lat="45.96905" lon="5.51305">
        <ele>860</ele>
        <time>2026-05-11T11:06:11Z</time>
      </trkpt>
      <trkpt lat="45.96898" lon="5.51301">
        <ele>859.4</ele>
        <time>2026-05-11T11:06:12Z</time>
      </trkpt>
      <trkpt lat="45.96891" lon="5.51296">
        <ele>859</ele>
        <time>2026-05-11T11:06:13Z</time>
      </trkpt>
      <trkpt lat="45.96884" lon="5.51293">
        <ele>858.4</ele>
        <time>2026-05-11T11:06:14Z</time>
      </trkpt>
      <trkpt lat="45.96876" lon="5.51289">
        <ele>857.6</ele>
        <time>2026-05-11T11:06:15Z</time>
      </trkpt>
      <trkpt lat="45.96869" lon="5.51286">
        <ele>857.2</ele>
        <time>2026-05-11T11:06:16Z</time>
      </trkpt>
      <trkpt lat="45.96859" lon="5.51283">
        <ele>856.8</ele>
        <time>2026-05-11T11:06:17Z</time>
      </trkpt>
      <trkpt lat="45.96852" lon="5.51278">
        <ele>856.8</ele>
        <time>2026-05-11T11:06:18Z</time>
      </trkpt>
      <trkpt lat="45.96846" lon="5.51274">
        <ele>856.8</ele>
        <time>2026-05-11T11:06:19Z</time>
      </trkpt>
      <trkpt lat="45.9684" lon="5.51271">
        <ele>856.6</ele>
        <time>2026-05-11T11:06:20Z</time>
      </trkpt>
      <trkpt lat="45.96834" lon="5.51268">
        <ele>856.2</ele>
        <time>2026-05-11T11:06:21Z</time>
      </trkpt>
      <trkpt lat="45.96827" lon="5.51264">
        <ele>855.6</ele>
        <time>2026-05-11T11:06:22Z</time>
      </trkpt>
      <trkpt lat="45.96827" lon="5.51264">
        <ele>855.6</ele>
        <time>2026-05-11T11:06:23Z</time>
      </trkpt>
      <trkpt lat="45.96821" lon="5.51261">
        <ele>855.2</ele>
        <time>2026-05-11T11:06:24Z</time>
      </trkpt>
      <trkpt lat="45.96815" lon="5.51256">
        <ele>855.2</ele>
        <time>2026-05-11T11:06:25Z</time>
      </trkpt>
      <trkpt lat="45.9681" lon="5.51251">
        <ele>855.8</ele>
        <time>2026-05-11T11:06:26Z</time>
      </trkpt>
      <trkpt lat="45.96804" lon="5.51246">
        <ele>855.6</ele>
        <time>2026-05-11T11:06:27Z</time>
      </trkpt>
      <trkpt lat="45.96799" lon="5.5124">
        <ele>855.6</ele>
        <time>2026-05-11T11:06:28Z</time>
      </trkpt>
      <trkpt lat="45.96794" lon="5.51234">
        <ele>855.6</ele>
        <time>2026-05-11T11:06:29Z</time>
      </trkpt>
      <trkpt lat="45.96791" lon="5.51227">
        <ele>855.6</ele>
        <time>2026-05-11T11:06:30Z</time>
      </trkpt>
      <trkpt lat="45.96786" lon="5.51219">
        <ele>855.2</ele>
        <time>2026-05-11T11:06:31Z</time>
      </trkpt>
      <trkpt lat="45.96782" lon="5.51209">
        <ele>854.8</ele>
        <time>2026-05-11T11:06:32Z</time>
      </trkpt>
      <trkpt lat="45.96783" lon="5.51199">
        <ele>853.8</ele>
        <time>2026-05-11T11:06:33Z</time>
      </trkpt>
      <trkpt lat="45.9678" lon="5.51189">
        <ele>853.2</ele>
        <time>2026-05-11T11:06:34Z</time>
      </trkpt>
      <trkpt lat="45.96778" lon="5.51179">
        <ele>852.4</ele>
        <time>2026-05-11T11:06:35Z</time>
      </trkpt>
      <trkpt lat="45.96774" lon="5.51171">
        <ele>852</ele>
        <time>2026-05-11T11:06:36Z</time>
      </trkpt>
      <trkpt lat="45.96768" lon="5.51164">
        <ele>851.8</ele>
        <time>2026-05-11T11:06:37Z</time>
      </trkpt>
      <trkpt lat="45.96763" lon="5.51156">
        <ele>851.8</ele>
        <time>2026-05-11T11:06:38Z</time>
      </trkpt>
      <trkpt lat="45.9676" lon="5.51148">
        <ele>852.2</ele>
        <time>2026-05-11T11:06:39Z</time>
      </trkpt>
      <trkpt lat="45.96756" lon="5.51141">
        <ele>851.8</ele>
        <time>2026-05-11T11:06:40Z</time>
      </trkpt>
      <trkpt lat="45.96754" lon="5.51134">
        <ele>851.8</ele>
        <time>2026-05-11T11:06:41Z</time>
      </trkpt>
      <trkpt lat="45.96752" lon="5.51127">
        <ele>851.8</ele>
        <time>2026-05-11T11:06:42Z</time>
      </trkpt>
      <trkpt lat="45.9675" lon="5.51121">
        <ele>851.6</ele>
        <time>2026-05-11T11:06:43Z</time>
      </trkpt>
      <trkpt lat="45.96749" lon="5.51117">
        <ele>851.6</ele>
        <time>2026-05-11T11:06:44Z</time>
      </trkpt>
      <trkpt lat="45.96748" lon="5.51112">
        <ele>851.2</ele>
        <time>2026-05-11T11:06:45Z</time>
      </trkpt>
      <trkpt lat="45.96747" lon="5.51107">
        <ele>851.2</ele>
        <time>2026-05-11T11:06:46Z</time>
      </trkpt>
      <trkpt lat="45.96745" lon="5.51101">
        <ele>851.2</ele>
        <time>2026-05-11T11:06:47Z</time>
      </trkpt>
      <trkpt lat="45.96745" lon="5.51098">
        <ele>851.2</ele>
        <time>2026-05-11T11:06:48Z</time>
      </trkpt>
      <trkpt lat="45.96744" lon="5.51097">
        <ele>851.2</ele>
        <time>2026-05-11T11:06:49Z</time>
      </trkpt>
      <trkpt lat="45.96744" lon="5.51097">
        <ele>851.2</ele>
        <time>2026-05-11T11:06:50Z</time>
      </trkpt>
      <trkpt lat="45.96744" lon="5.51097">
        <ele>851.2</ele>
        <time>2026-05-11T11:06:51Z</time>
      </trkpt>
      <trkpt lat="45.96744" lon="5.51098">
        <ele>851.4</ele>
        <time>2026-05-11T11:06:52Z</time>
      </trkpt>
      <trkpt lat="45.96744" lon="5.511">
        <ele>851.4</ele>
        <time>2026-05-11T11:06:53Z</time>
      </trkpt>
      <trkpt lat="45.96745" lon="5.51102">
        <ele>851.4</ele>
        <time>2026-05-11T11:06:54Z</time>
      </trkpt>
      <trkpt lat="45.96745" lon="5.51103">
        <ele>851.4</ele>
        <time>2026-05-11T11:06:55Z</time>
      </trkpt>
      <trkpt lat="45.96746" lon="5.51104">
        <ele>851.4</ele>
        <time>2026-05-11T11:06:56Z</time>
      </trkpt>
      <trkpt lat="45.96746" lon="5.51104">
        <ele>851.4</ele>
        <time>2026-05-11T11:06:57Z</time>
      </trkpt>
      <trkpt lat="45.96745" lon="5.51108">
        <ele>851.2</ele>
        <time>2026-05-11T11:07:03Z</time>
      </trkpt>
      <trkpt lat="45.96745" lon="5.51108">
        <ele>851.2</ele>
        <time>2026-05-11T11:07:04Z</time>
      </trkpt>
      <trkpt lat="45.96746" lon="5.51109">
        <ele>851.2</ele>
        <time>2026-05-11T11:07:05Z</time>
      </trkpt>
      <trkpt lat="45.96746" lon="5.5111">
        <ele>851.2</ele>
        <time>2026-05-11T11:07:06Z</time>
      </trkpt>
      <trkpt lat="45.96745" lon="5.5111">
        <ele>851.2</ele>
        <time>2026-05-11T11:07:07Z</time>
      </trkpt>
      <trkpt lat="45.96745" lon="5.51111">
        <ele>851.4</ele>
        <time>2026-05-11T11:07:08Z</time>
      </trkpt>
      <trkpt lat="45.96748" lon="5.51106">
        <ele>852.8</ele>
        <time>2026-05-11T11:11:06Z</time>
      </trkpt>
      <trkpt lat="45.96748" lon="5.51104">
        <ele>852.8</ele>
        <time>2026-05-11T11:11:07Z</time>
      </trkpt>
      <trkpt lat="45.96748" lon="5.51103">
        <ele>852.8</ele>
        <time>2026-05-11T11:11:08Z</time>
      </trkpt>
      <trkpt lat="45.96747" lon="5.51102">
        <ele>852.4</ele>
        <time>2026-05-11T11:11:09Z</time>
      </trkpt>
      <trkpt lat="45.96747" lon="5.51101">
        <ele>852.4</ele>
        <time>2026-05-11T11:11:10Z</time>
      </trkpt>
      <trkpt lat="45.96746" lon="5.511">
        <ele>852.4</ele>
        <time>2026-05-11T11:11:11Z</time>
      </trkpt>
      <trkpt lat="45.96746" lon="5.51099">
        <ele>852.4</ele>
        <time>2026-05-11T11:11:12Z</time>
      </trkpt>
      <trkpt lat="45.96746" lon="5.51099">
        <ele>852.4</ele>
        <time>2026-05-11T11:11:13Z</time>
      </trkpt>
      <trkpt lat="45.96746" lon="5.51099">
        <ele>852.4</ele>
        <time>2026-05-11T11:11:14Z</time>
      </trkpt>
      <trkpt lat="45.96746" lon="5.51099">
        <ele>852.4</ele>
        <time>2026-05-11T11:11:15Z</time>
      </trkpt>
      <trkpt lat="45.96744" lon="5.51094">
        <ele>852.4</ele>
        <time>2026-05-11T11:11:39Z</time>
      </trkpt>
      <trkpt lat="45.96743" lon="5.51091">
        <ele>852.2</ele>
        <time>2026-05-11T11:11:40Z</time>
      </trkpt>
      <trkpt lat="45.96741" lon="5.51087">
        <ele>852.2</ele>
        <time>2026-05-11T11:11:41Z</time>
      </trkpt>
      <trkpt lat="45.9674" lon="5.51083">
        <ele>851.8</ele>
        <time>2026-05-11T11:11:42Z</time>
      </trkpt>
      <trkpt lat="45.96739" lon="5.51078">
        <ele>851.8</ele>
        <time>2026-05-11T11:11:43Z</time>
      </trkpt>
      <trkpt lat="45.96738" lon="5.51073">
        <ele>851.6</ele>
        <time>2026-05-11T11:11:44Z</time>
      </trkpt>
      <trkpt lat="45.96737" lon="5.51068">
        <ele>851.6</ele>
        <time>2026-05-11T11:11:45Z</time>
      </trkpt>
      <trkpt lat="45.96736" lon="5.51063">
        <ele>851</ele>
        <time>2026-05-11T11:11:46Z</time>
      </trkpt>
      <trkpt lat="45.96735" lon="5.51059">
        <ele>850.6</ele>
        <time>2026-05-11T11:11:47Z</time>
      </trkpt>
      <trkpt lat="45.96735" lon="5.51053">
        <ele>850.4</ele>
        <time>2026-05-11T11:11:48Z</time>
      </trkpt>
      <trkpt lat="45.96734" lon="5.51048">
        <ele>850.4</ele>
        <time>2026-05-11T11:11:49Z</time>
      </trkpt>
      <trkpt lat="45.96733" lon="5.51042">
        <ele>850</ele>
        <time>2026-05-11T11:11:50Z</time>
      </trkpt>
      <trkpt lat="45.96731" lon="5.51037">
        <ele>850</ele>
        <time>2026-05-11T11:11:51Z</time>
      </trkpt>
      <trkpt lat="45.96729" lon="5.51031">
        <ele>849.6</ele>
        <time>2026-05-11T11:11:52Z</time>
      </trkpt>
      <trkpt lat="45.96726" lon="5.51025">
        <ele>849.2</ele>
        <time>2026-05-11T11:11:53Z</time>
      </trkpt>
      <trkpt lat="45.96724" lon="5.5102">
        <ele>848.6</ele>
        <time>2026-05-11T11:11:54Z</time>
      </trkpt>
      <trkpt lat="45.96721" lon="5.51014">
        <ele>848.2</ele>
        <time>2026-05-11T11:11:55Z</time>
      </trkpt>
      <trkpt lat="45.96717" lon="5.51008">
        <ele>847.6</ele>
        <time>2026-05-11T11:11:56Z</time>
      </trkpt>
      <trkpt lat="45.96714" lon="5.51001">
        <ele>847.4</ele>
        <time>2026-05-11T11:11:57Z</time>
      </trkpt>
      <trkpt lat="45.9671" lon="5.50994">
        <ele>847.2</ele>
        <time>2026-05-11T11:11:58Z</time>
      </trkpt>
      <trkpt lat="45.96707" lon="5.50986">
        <ele>846.8</ele>
        <time>2026-05-11T11:11:59Z</time>
      </trkpt>
      <trkpt lat="45.96704" lon="5.5098">
        <ele>846.2</ele>
        <time>2026-05-11T11:12:00Z</time>
      </trkpt>
      <trkpt lat="45.96701" lon="5.50972">
        <ele>845.8</ele>
        <time>2026-05-11T11:12:01Z</time>
      </trkpt>
      <trkpt lat="45.96699" lon="5.50965">
        <ele>845.2</ele>
        <time>2026-05-11T11:12:02Z</time>
      </trkpt>
      <trkpt lat="45.96696" lon="5.50958">
        <ele>844.8</ele>
        <time>2026-05-11T11:12:03Z</time>
      </trkpt>
      <trkpt lat="45.96695" lon="5.50951">
        <ele>844.4</ele>
        <time>2026-05-11T11:12:04Z</time>
      </trkpt>
      <trkpt lat="45.96693" lon="5.50944">
        <ele>844.2</ele>
        <time>2026-05-11T11:12:05Z</time>
      </trkpt>
      <trkpt lat="45.96691" lon="5.50936">
        <ele>844</ele>
        <time>2026-05-11T11:12:06Z</time>
      </trkpt>
      <trkpt lat="45.96688" lon="5.5093">
        <ele>843.2</ele>
        <time>2026-05-11T11:12:07Z</time>
      </trkpt>
      <trkpt lat="45.96684" lon="5.50923">
        <ele>843.2</ele>
        <time>2026-05-11T11:12:08Z</time>
      </trkpt>
      <trkpt lat="45.9668" lon="5.50916">
        <ele>843.2</ele>
        <time>2026-05-11T11:12:09Z</time>
      </trkpt>
      <trkpt lat="45.96675" lon="5.5091">
        <ele>843.2</ele>
        <time>2026-05-11T11:12:10Z</time>
      </trkpt>
      <trkpt lat="45.96672" lon="5.50904">
        <ele>843.2</ele>
        <time>2026-05-11T11:12:11Z</time>
      </trkpt>
      <trkpt lat="45.96669" lon="5.509">
        <ele>843.2</ele>
        <time>2026-05-11T11:12:12Z</time>
      </trkpt>
      <trkpt lat="45.96665" lon="5.50895">
        <ele>843.2</ele>
        <time>2026-05-11T11:12:13Z</time>
      </trkpt>
      <trkpt lat="45.96662" lon="5.5089">
        <ele>842.8</ele>
        <time>2026-05-11T11:12:14Z</time>
      </trkpt>
      <trkpt lat="45.96658" lon="5.50884">
        <ele>842.6</ele>
        <time>2026-05-11T11:12:15Z</time>
      </trkpt>
      <trkpt lat="45.96653" lon="5.50878">
        <ele>842.6</ele>
        <time>2026-05-11T11:12:16Z</time>
      </trkpt>
      <trkpt lat="45.96649" lon="5.50872">
        <ele>842.4</ele>
        <time>2026-05-11T11:12:17Z</time>
      </trkpt>
      <trkpt lat="45.96644" lon="5.50866">
        <ele>841.8</ele>
        <time>2026-05-11T11:12:18Z</time>
      </trkpt>
      <trkpt lat="45.96641" lon="5.5086">
        <ele>841.4</ele>
        <time>2026-05-11T11:12:19Z</time>
      </trkpt>
      <trkpt lat="45.96636" lon="5.50855">
        <ele>841.4</ele>
        <time>2026-05-11T11:12:20Z</time>
      </trkpt>
      <trkpt lat="45.96631" lon="5.50848">
        <ele>841</ele>
        <time>2026-05-11T11:12:21Z</time>
      </trkpt>
      <trkpt lat="45.96627" lon="5.50843">
        <ele>841</ele>
        <time>2026-05-11T11:12:22Z</time>
      </trkpt>
      <trkpt lat="45.96623" lon="5.50837">
        <ele>840.2</ele>
        <time>2026-05-11T11:12:23Z</time>
      </trkpt>
      <trkpt lat="45.96621" lon="5.50833">
        <ele>839.8</ele>
        <time>2026-05-11T11:12:24Z</time>
      </trkpt>
      <trkpt lat="45.96617" lon="5.50828">
        <ele>839.8</ele>
        <time>2026-05-11T11:12:25Z</time>
      </trkpt>
      <trkpt lat="45.96614" lon="5.50823">
        <ele>840</ele>
        <time>2026-05-11T11:12:26Z</time>
      </trkpt>
      <trkpt lat="45.9661" lon="5.50819">
        <ele>840.6</ele>
        <time>2026-05-11T11:12:27Z</time>
      </trkpt>
      <trkpt lat="45.96607" lon="5.50815">
        <ele>840.8</ele>
        <time>2026-05-11T11:12:28Z</time>
      </trkpt>
      <trkpt lat="45.96607" lon="5.50815">
        <ele>841.4</ele>
        <time>2026-05-11T11:12:29Z</time>
      </trkpt>
      <trkpt lat="45.96605" lon="5.50811">
        <ele>842</ele>
        <time>2026-05-11T11:12:30Z</time>
      </trkpt>
      <trkpt lat="45.96603" lon="5.50807">
        <ele>842.4</ele>
        <time>2026-05-11T11:12:31Z</time>
      </trkpt>
      <trkpt lat="45.96601" lon="5.50803">
        <ele>842.8</ele>
        <time>2026-05-11T11:12:32Z</time>
      </trkpt>
      <trkpt lat="45.96599" lon="5.508">
        <ele>843.2</ele>
        <time>2026-05-11T11:12:33Z</time>
      </trkpt>
      <trkpt lat="45.96597" lon="5.50796">
        <ele>843.2</ele>
        <time>2026-05-11T11:12:34Z</time>
      </trkpt>
      <trkpt lat="45.96595" lon="5.50793">
        <ele>843.4</ele>
        <time>2026-05-11T11:12:35Z</time>
      </trkpt>
      <trkpt lat="45.96594" lon="5.50788">
        <ele>843.4</ele>
        <time>2026-05-11T11:12:36Z</time>
      </trkpt>
      <trkpt lat="45.96592" lon="5.50783">
        <ele>843.4</ele>
        <time>2026-05-11T11:12:37Z</time>
      </trkpt>
      <trkpt lat="45.96591" lon="5.50777">
        <ele>843.4</ele>
        <time>2026-05-11T11:12:38Z</time>
      </trkpt>
      <trkpt lat="45.9659" lon="5.50772">
        <ele>843.4</ele>
        <time>2026-05-11T11:12:39Z</time>
      </trkpt>
      <trkpt lat="45.96588" lon="5.50766">
        <ele>843.4</ele>
        <time>2026-05-11T11:12:40Z</time>
      </trkpt>
      <trkpt lat="45.96587" lon="5.50761">
        <ele>843.4</ele>
        <time>2026-05-11T11:12:41Z</time>
      </trkpt>
      <trkpt lat="45.96585" lon="5.50754">
        <ele>843</ele>
        <time>2026-05-11T11:12:42Z</time>
      </trkpt>
      <trkpt lat="45.96583" lon="5.50748">
        <ele>843</ele>
        <time>2026-05-11T11:12:43Z</time>
      </trkpt>
      <trkpt lat="45.96582" lon="5.50742">
        <ele>842.6</ele>
        <time>2026-05-11T11:12:44Z</time>
      </trkpt>
      <trkpt lat="45.9658" lon="5.50735">
        <ele>842.6</ele>
        <time>2026-05-11T11:12:45Z</time>
      </trkpt>
      <trkpt lat="45.96578" lon="5.50728">
        <ele>842.4</ele>
        <time>2026-05-11T11:12:46Z</time>
      </trkpt>
      <trkpt lat="45.96576" lon="5.50721">
        <ele>842.4</ele>
        <time>2026-05-11T11:12:47Z</time>
      </trkpt>
      <trkpt lat="45.96574" lon="5.50714">
        <ele>842</ele>
        <time>2026-05-11T11:12:48Z</time>
      </trkpt>
      <trkpt lat="45.96572" lon="5.50708">
        <ele>842</ele>
        <time>2026-05-11T11:12:49Z</time>
      </trkpt>
      <trkpt lat="45.9657" lon="5.50701">
        <ele>841.2</ele>
        <time>2026-05-11T11:12:50Z</time>
      </trkpt>
      <trkpt lat="45.96568" lon="5.50694">
        <ele>840.4</ele>
        <time>2026-05-11T11:12:51Z</time>
      </trkpt>
      <trkpt lat="45.96567" lon="5.50687">
        <ele>840.8</ele>
        <time>2026-05-11T11:12:52Z</time>
      </trkpt>
      <trkpt lat="45.96566" lon="5.5068">
        <ele>841</ele>
        <time>2026-05-11T11:12:53Z</time>
      </trkpt>
      <trkpt lat="45.96564" lon="5.50673">
        <ele>840.6</ele>
        <time>2026-05-11T11:12:54Z</time>
      </trkpt>
      <trkpt lat="45.96562" lon="5.50666">
        <ele>840.6</ele>
        <time>2026-05-11T11:12:55Z</time>
      </trkpt>
      <trkpt lat="45.9656" lon="5.5066">
        <ele>840.4</ele>
        <time>2026-05-11T11:12:56Z</time>
      </trkpt>
      <trkpt lat="45.96559" lon="5.50654">
        <ele>840.4</ele>
        <time>2026-05-11T11:12:57Z</time>
      </trkpt>
      <trkpt lat="45.96557" lon="5.50647">
        <ele>840.4</ele>
        <time>2026-05-11T11:12:58Z</time>
      </trkpt>
      <trkpt lat="45.96556" lon="5.50639">
        <ele>840.4</ele>
        <time>2026-05-11T11:12:59Z</time>
      </trkpt>
      <trkpt lat="45.96555" lon="5.50633">
        <ele>840.4</ele>
        <time>2026-05-11T11:13:00Z</time>
      </trkpt>
      <trkpt lat="45.96554" lon="5.50626">
        <ele>840.4</ele>
        <time>2026-05-11T11:13:01Z</time>
      </trkpt>
      <trkpt lat="45.96552" lon="5.50619">
        <ele>840.4</ele>
        <time>2026-05-11T11:13:02Z</time>
      </trkpt>
      <trkpt lat="45.9655" lon="5.50613">
        <ele>840.4</ele>
        <time>2026-05-11T11:13:03Z</time>
      </trkpt>
      <trkpt lat="45.96548" lon="5.50606">
        <ele>840.4</ele>
        <time>2026-05-11T11:13:04Z</time>
      </trkpt>
      <trkpt lat="45.96545" lon="5.506">
        <ele>840.2</ele>
        <time>2026-05-11T11:13:05Z</time>
      </trkpt>
      <trkpt lat="45.96543" lon="5.50594">
        <ele>840.2</ele>
        <time>2026-05-11T11:13:06Z</time>
      </trkpt>
      <trkpt lat="45.96539" lon="5.50588">
        <ele>840.6</ele>
        <time>2026-05-11T11:13:07Z</time>
      </trkpt>
      <trkpt lat="45.96536" lon="5.50583">
        <ele>840.6</ele>
        <time>2026-05-11T11:13:08Z</time>
      </trkpt>
      <trkpt lat="45.96534" lon="5.50577">
        <ele>840.6</ele>
        <time>2026-05-11T11:13:09Z</time>
      </trkpt>
      <trkpt lat="45.96531" lon="5.50571">
        <ele>840.6</ele>
        <time>2026-05-11T11:13:10Z</time>
      </trkpt>
      <trkpt lat="45.96526" lon="5.50566">
        <ele>840.8</ele>
        <time>2026-05-11T11:13:11Z</time>
      </trkpt>
      <trkpt lat="45.96523" lon="5.50561">
        <ele>840.8</ele>
        <time>2026-05-11T11:13:12Z</time>
      </trkpt>
      <trkpt lat="45.9652" lon="5.50557">
        <ele>841.4</ele>
        <time>2026-05-11T11:13:13Z</time>
      </trkpt>
      <trkpt lat="45.96517" lon="5.50552">
        <ele>842</ele>
        <time>2026-05-11T11:13:14Z</time>
      </trkpt>
      <trkpt lat="45.96513" lon="5.50548">
        <ele>842.4</ele>
        <time>2026-05-11T11:13:15Z</time>
      </trkpt>
      <trkpt lat="45.9651" lon="5.50544">
        <ele>842.6</ele>
        <time>2026-05-11T11:13:16Z</time>
      </trkpt>
      <trkpt lat="45.96507" lon="5.50539">
        <ele>843</ele>
        <time>2026-05-11T11:13:17Z</time>
      </trkpt>
      <trkpt lat="45.96502" lon="5.50537">
        <ele>843.2</ele>
        <time>2026-05-11T11:13:18Z</time>
      </trkpt>
      <trkpt lat="45.965" lon="5.50533">
        <ele>843.6</ele>
        <time>2026-05-11T11:13:19Z</time>
      </trkpt>
      <trkpt lat="45.96497" lon="5.50531">
        <ele>843.6</ele>
        <time>2026-05-11T11:13:20Z</time>
      </trkpt>
      <trkpt lat="45.96494" lon="5.50527">
        <ele>843.6</ele>
        <time>2026-05-11T11:13:21Z</time>
      </trkpt>
      <trkpt lat="45.96492" lon="5.50524">
        <ele>843.6</ele>
        <time>2026-05-11T11:13:22Z</time>
      </trkpt>
      <trkpt lat="45.96489" lon="5.50521">
        <ele>843.6</ele>
        <time>2026-05-11T11:13:23Z</time>
      </trkpt>
      <trkpt lat="45.96486" lon="5.50518">
        <ele>844</ele>
        <time>2026-05-11T11:13:24Z</time>
      </trkpt>
      <trkpt lat="45.96484" lon="5.50516">
        <ele>844</ele>
        <time>2026-05-11T11:13:25Z</time>
      </trkpt>
      <trkpt lat="45.96481" lon="5.50513">
        <ele>844.4</ele>
        <time>2026-05-11T11:13:26Z</time>
      </trkpt>
      <trkpt lat="45.96479" lon="5.5051">
        <ele>844.4</ele>
        <time>2026-05-11T11:13:27Z</time>
      </trkpt>
      <trkpt lat="45.96475" lon="5.50507">
        <ele>844.4</ele>
        <time>2026-05-11T11:13:28Z</time>
      </trkpt>
      <trkpt lat="45.96471" lon="5.50504">
        <ele>844.4</ele>
        <time>2026-05-11T11:13:29Z</time>
      </trkpt>
      <trkpt lat="45.96468" lon="5.50501">
        <ele>844</ele>
        <time>2026-05-11T11:13:30Z</time>
      </trkpt>
      <trkpt lat="45.96464" lon="5.50498">
        <ele>844</ele>
        <time>2026-05-11T11:13:31Z</time>
      </trkpt>
      <trkpt lat="45.96461" lon="5.50496">
        <ele>843.4</ele>
        <time>2026-05-11T11:13:32Z</time>
      </trkpt>
      <trkpt lat="45.96458" lon="5.50494">
        <ele>842.6</ele>
        <time>2026-05-11T11:13:33Z</time>
      </trkpt>
      <trkpt lat="45.96454" lon="5.50492">
        <ele>842</ele>
        <time>2026-05-11T11:13:34Z</time>
      </trkpt>
      <trkpt lat="45.96451" lon="5.50491">
        <ele>842</ele>
        <time>2026-05-11T11:13:35Z</time>
      </trkpt>
      <trkpt lat="45.96447" lon="5.5049">
        <ele>841.4</ele>
        <time>2026-05-11T11:13:36Z</time>
      </trkpt>
      <trkpt lat="45.96444" lon="5.50491">
        <ele>840.8</ele>
        <time>2026-05-11T11:13:37Z</time>
      </trkpt>
      <trkpt lat="45.9644" lon="5.50491">
        <ele>840.2</ele>
        <time>2026-05-11T11:13:38Z</time>
      </trkpt>
      <trkpt lat="45.96436" lon="5.50491">
        <ele>839.8</ele>
        <time>2026-05-11T11:13:39Z</time>
      </trkpt>
      <trkpt lat="45.96432" lon="5.5049">
        <ele>839.6</ele>
        <time>2026-05-11T11:13:40Z</time>
      </trkpt>
      <trkpt lat="45.96427" lon="5.50489">
        <ele>839</ele>
        <time>2026-05-11T11:13:41Z</time>
      </trkpt>
      <trkpt lat="45.96422" lon="5.50489">
        <ele>838.2</ele>
        <time>2026-05-11T11:13:42Z</time>
      </trkpt>
      <trkpt lat="45.96414" lon="5.5049">
        <ele>837.6</ele>
        <time>2026-05-11T11:13:43Z</time>
      </trkpt>
      <trkpt lat="45.9641" lon="5.5049">
        <ele>837.2</ele>
        <time>2026-05-11T11:13:44Z</time>
      </trkpt>
      <trkpt lat="45.96405" lon="5.50491">
        <ele>837.2</ele>
        <time>2026-05-11T11:13:45Z</time>
      </trkpt>
      <trkpt lat="45.96401" lon="5.50493">
        <ele>837.2</ele>
        <time>2026-05-11T11:13:46Z</time>
      </trkpt>
      <trkpt lat="45.96395" lon="5.50496">
        <ele>836.8</ele>
        <time>2026-05-11T11:13:47Z</time>
      </trkpt>
      <trkpt lat="45.96391" lon="5.50498">
        <ele>836.8</ele>
        <time>2026-05-11T11:13:48Z</time>
      </trkpt>
      <trkpt lat="45.96387" lon="5.50502">
        <ele>836.2</ele>
        <time>2026-05-11T11:13:49Z</time>
      </trkpt>
      <trkpt lat="45.96382" lon="5.50504">
        <ele>835.8</ele>
        <time>2026-05-11T11:13:50Z</time>
      </trkpt>
      <trkpt lat="45.96378" lon="5.50507">
        <ele>835.4</ele>
        <time>2026-05-11T11:13:51Z</time>
      </trkpt>
      <trkpt lat="45.96374" lon="5.5051">
        <ele>835.4</ele>
        <time>2026-05-11T11:13:52Z</time>
      </trkpt>
      <trkpt lat="45.96371" lon="5.50513">
        <ele>835</ele>
        <time>2026-05-11T11:13:53Z</time>
      </trkpt>
      <trkpt lat="45.96369" lon="5.50515">
        <ele>834.4</ele>
        <time>2026-05-11T11:13:54Z</time>
      </trkpt>
      <trkpt lat="45.96368" lon="5.50517">
        <ele>834</ele>
        <time>2026-05-11T11:13:55Z</time>
      </trkpt>
      <trkpt lat="45.96366" lon="5.50519">
        <ele>833.6</ele>
        <time>2026-05-11T11:13:56Z</time>
      </trkpt>
      <trkpt lat="45.96364" lon="5.5052">
        <ele>833.4</ele>
        <time>2026-05-11T11:13:57Z</time>
      </trkpt>
      <trkpt lat="45.96363" lon="5.50522">
        <ele>833.2</ele>
        <time>2026-05-11T11:13:58Z</time>
      </trkpt>
      <trkpt lat="45.96363" lon="5.50522">
        <ele>833.2</ele>
        <time>2026-05-11T11:13:59Z</time>
      </trkpt>
      <trkpt lat="45.96363" lon="5.50522">
        <ele>833.2</ele>
        <time>2026-05-11T11:14:00Z</time>
      </trkpt>
      <trkpt lat="45.9636" lon="5.50524">
        <ele>832.8</ele>
        <time>2026-05-11T11:14:04Z</time>
      </trkpt>
      <trkpt lat="45.96357" lon="5.50526">
        <ele>832.8</ele>
        <time>2026-05-11T11:14:05Z</time>
      </trkpt>
      <trkpt lat="45.96355" lon="5.50528">
        <ele>832.6</ele>
        <time>2026-05-11T11:14:06Z</time>
      </trkpt>
      <trkpt lat="45.96352" lon="5.5053">
        <ele>832.2</ele>
        <time>2026-05-11T11:14:07Z</time>
      </trkpt>
      <trkpt lat="45.9635" lon="5.50534">
        <ele>832.2</ele>
        <time>2026-05-11T11:14:08Z</time>
      </trkpt>
      <trkpt lat="45.96348" lon="5.50538">
        <ele>831.8</ele>
        <time>2026-05-11T11:14:09Z</time>
      </trkpt>
      <trkpt lat="45.96346" lon="5.50543">
        <ele>831.4</ele>
        <time>2026-05-11T11:14:10Z</time>
      </trkpt>
      <trkpt lat="45.96345" lon="5.5055">
        <ele>831.2</ele>
        <time>2026-05-11T11:14:11Z</time>
      </trkpt>
      <trkpt lat="45.96342" lon="5.50556">
        <ele>830.6</ele>
        <time>2026-05-11T11:14:12Z</time>
      </trkpt>
      <trkpt lat="45.9634" lon="5.50562">
        <ele>830.4</ele>
        <time>2026-05-11T11:14:13Z</time>
      </trkpt>
      <trkpt lat="45.96338" lon="5.50567">
        <ele>830.2</ele>
        <time>2026-05-11T11:14:14Z</time>
      </trkpt>
      <trkpt lat="45.96336" lon="5.50573">
        <ele>829.8</ele>
        <time>2026-05-11T11:14:15Z</time>
      </trkpt>
      <trkpt lat="45.96334" lon="5.5058">
        <ele>829.6</ele>
        <time>2026-05-11T11:14:16Z</time>
      </trkpt>
      <trkpt lat="45.9633" lon="5.50586">
        <ele>829.2</ele>
        <time>2026-05-11T11:14:17Z</time>
      </trkpt>
      <trkpt lat="45.96329" lon="5.50593">
        <ele>828.8</ele>
        <time>2026-05-11T11:14:18Z</time>
      </trkpt>
      <trkpt lat="45.96326" lon="5.506">
        <ele>828.8</ele>
        <time>2026-05-11T11:14:19Z</time>
      </trkpt>
      <trkpt lat="45.96325" lon="5.50605">
        <ele>828.4</ele>
        <time>2026-05-11T11:14:20Z</time>
      </trkpt>
      <trkpt lat="45.96322" lon="5.5061">
        <ele>828.4</ele>
        <time>2026-05-11T11:14:21Z</time>
      </trkpt>
      <trkpt lat="45.96321" lon="5.50616">
        <ele>828</ele>
        <time>2026-05-11T11:14:22Z</time>
      </trkpt>
      <trkpt lat="45.96319" lon="5.50622">
        <ele>827.6</ele>
        <time>2026-05-11T11:14:23Z</time>
      </trkpt>
      <trkpt lat="45.96317" lon="5.50629">
        <ele>827.6</ele>
        <time>2026-05-11T11:14:24Z</time>
      </trkpt>
      <trkpt lat="45.96314" lon="5.50635">
        <ele>827.4</ele>
        <time>2026-05-11T11:14:25Z</time>
      </trkpt>
      <trkpt lat="45.96312" lon="5.50641">
        <ele>827</ele>
        <time>2026-05-11T11:14:26Z</time>
      </trkpt>
      <trkpt lat="45.96309" lon="5.50648">
        <ele>826.6</ele>
        <time>2026-05-11T11:14:27Z</time>
      </trkpt>
      <trkpt lat="45.96306" lon="5.50655">
        <ele>826.2</ele>
        <time>2026-05-11T11:14:28Z</time>
      </trkpt>
      <trkpt lat="45.96303" lon="5.50663">
        <ele>825.6</ele>
        <time>2026-05-11T11:14:29Z</time>
      </trkpt>
      <trkpt lat="45.96299" lon="5.5067">
        <ele>824.8</ele>
        <time>2026-05-11T11:14:30Z</time>
      </trkpt>
      <trkpt lat="45.96294" lon="5.50676">
        <ele>824.2</ele>
        <time>2026-05-11T11:14:31Z</time>
      </trkpt>
      <trkpt lat="45.9629" lon="5.50681">
        <ele>823.6</ele>
        <time>2026-05-11T11:14:32Z</time>
      </trkpt>
      <trkpt lat="45.96285" lon="5.50685">
        <ele>823.4</ele>
        <time>2026-05-11T11:14:33Z</time>
      </trkpt>
      <trkpt lat="45.96279" lon="5.50689">
        <ele>823.2</ele>
        <time>2026-05-11T11:14:34Z</time>
      </trkpt>
      <trkpt lat="45.96275" lon="5.50692">
        <ele>822.8</ele>
        <time>2026-05-11T11:14:35Z</time>
      </trkpt>
      <trkpt lat="45.9627" lon="5.50694">
        <ele>822.6</ele>
        <time>2026-05-11T11:14:36Z</time>
      </trkpt>
      <trkpt lat="45.96264" lon="5.50695">
        <ele>822.6</ele>
        <time>2026-05-11T11:14:37Z</time>
      </trkpt>
      <trkpt lat="45.96259" lon="5.50696">
        <ele>822</ele>
        <time>2026-05-11T11:14:38Z</time>
      </trkpt>
      <trkpt lat="45.96254" lon="5.50696">
        <ele>821.8</ele>
        <time>2026-05-11T11:14:39Z</time>
      </trkpt>
      <trkpt lat="45.96248" lon="5.50695">
        <ele>821.8</ele>
        <time>2026-05-11T11:14:40Z</time>
      </trkpt>
      <trkpt lat="45.96242" lon="5.50693">
        <ele>821.2</ele>
        <time>2026-05-11T11:14:41Z</time>
      </trkpt>
      <trkpt lat="45.96237" lon="5.50691">
        <ele>820.6</ele>
        <time>2026-05-11T11:14:42Z</time>
      </trkpt>
      <trkpt lat="45.9623" lon="5.50689">
        <ele>820</ele>
        <time>2026-05-11T11:14:43Z</time>
      </trkpt>
      <trkpt lat="45.96224" lon="5.50687">
        <ele>819.6</ele>
        <time>2026-05-11T11:14:44Z</time>
      </trkpt>
      <trkpt lat="45.96219" lon="5.50686">
        <ele>819.2</ele>
        <time>2026-05-11T11:14:45Z</time>
      </trkpt>
      <trkpt lat="45.96215" lon="5.50685">
        <ele>819.2</ele>
        <time>2026-05-11T11:14:46Z</time>
      </trkpt>
      <trkpt lat="45.96212" lon="5.50685">
        <ele>819.2</ele>
        <time>2026-05-11T11:14:47Z</time>
      </trkpt>
      <trkpt lat="45.96211" lon="5.50685">
        <ele>819.2</ele>
        <time>2026-05-11T11:14:48Z</time>
      </trkpt>
      <trkpt lat="45.96209" lon="5.50685">
        <ele>819.2</ele>
        <time>2026-05-11T11:14:49Z</time>
      </trkpt>
      <trkpt lat="45.96207" lon="5.50685">
        <ele>819</ele>
        <time>2026-05-11T11:14:50Z</time>
      </trkpt>
      <trkpt lat="45.96205" lon="5.50685">
        <ele>819</ele>
        <time>2026-05-11T11:14:51Z</time>
      </trkpt>
      <trkpt lat="45.96202" lon="5.50686">
        <ele>818.6</ele>
        <time>2026-05-11T11:14:52Z</time>
      </trkpt>
      <trkpt lat="45.962" lon="5.50686">
        <ele>818.4</ele>
        <time>2026-05-11T11:14:53Z</time>
      </trkpt>
      <trkpt lat="45.96197" lon="5.50687">
        <ele>818.2</ele>
        <time>2026-05-11T11:14:54Z</time>
      </trkpt>
      <trkpt lat="45.96193" lon="5.50688">
        <ele>818.2</ele>
        <time>2026-05-11T11:14:55Z</time>
      </trkpt>
      <trkpt lat="45.96189" lon="5.5069">
        <ele>817.8</ele>
        <time>2026-05-11T11:14:56Z</time>
      </trkpt>
      <trkpt lat="45.96185" lon="5.50692">
        <ele>817.2</ele>
        <time>2026-05-11T11:14:57Z</time>
      </trkpt>
      <trkpt lat="45.9618" lon="5.50693">
        <ele>816.8</ele>
        <time>2026-05-11T11:14:58Z</time>
      </trkpt>
      <trkpt lat="45.96175" lon="5.50696">
        <ele>816.8</ele>
        <time>2026-05-11T11:14:59Z</time>
      </trkpt>
      <trkpt lat="45.9617" lon="5.50699">
        <ele>816.4</ele>
        <time>2026-05-11T11:15:00Z</time>
      </trkpt>
      <trkpt lat="45.96165" lon="5.50703">
        <ele>816</ele>
        <time>2026-05-11T11:15:01Z</time>
      </trkpt>
      <trkpt lat="45.96158" lon="5.50708">
        <ele>816</ele>
        <time>2026-05-11T11:15:02Z</time>
      </trkpt>
      <trkpt lat="45.96151" lon="5.50712">
        <ele>815.4</ele>
        <time>2026-05-11T11:15:03Z</time>
      </trkpt>
      <trkpt lat="45.96145" lon="5.50716">
        <ele>814.8</ele>
        <time>2026-05-11T11:15:04Z</time>
      </trkpt>
      <trkpt lat="45.96139" lon="5.50722">
        <ele>813.8</ele>
        <time>2026-05-11T11:15:05Z</time>
      </trkpt>
      <trkpt lat="45.96133" lon="5.50727">
        <ele>813.4</ele>
        <time>2026-05-11T11:15:06Z</time>
      </trkpt>
      <trkpt lat="45.96126" lon="5.50733">
        <ele>812.4</ele>
        <time>2026-05-11T11:15:07Z</time>
      </trkpt>
      <trkpt lat="45.96119" lon="5.50739">
        <ele>811.6</ele>
        <time>2026-05-11T11:15:08Z</time>
      </trkpt>
      <trkpt lat="45.96113" lon="5.50745">
        <ele>810.8</ele>
        <time>2026-05-11T11:15:09Z</time>
      </trkpt>
      <trkpt lat="45.96106" lon="5.5075">
        <ele>810.4</ele>
        <time>2026-05-11T11:15:10Z</time>
      </trkpt>
      <trkpt lat="45.96099" lon="5.50756">
        <ele>809.8</ele>
        <time>2026-05-11T11:15:11Z</time>
      </trkpt>
      <trkpt lat="45.96091" lon="5.50763">
        <ele>809.2</ele>
        <time>2026-05-11T11:15:12Z</time>
      </trkpt>
      <trkpt lat="45.96082" lon="5.50768">
        <ele>808.4</ele>
        <time>2026-05-11T11:15:13Z</time>
      </trkpt>
      <trkpt lat="45.96073" lon="5.50773">
        <ele>807.6</ele>
        <time>2026-05-11T11:15:14Z</time>
      </trkpt>
      <trkpt lat="45.96064" lon="5.50777">
        <ele>807</ele>
        <time>2026-05-11T11:15:15Z</time>
      </trkpt>
      <trkpt lat="45.96056" lon="5.50781">
        <ele>806</ele>
        <time>2026-05-11T11:15:16Z</time>
      </trkpt>
      <trkpt lat="45.96044" lon="5.50786">
        <ele>805</ele>
        <time>2026-05-11T11:15:17Z</time>
      </trkpt>
      <trkpt lat="45.96034" lon="5.50789">
        <ele>804.4</ele>
        <time>2026-05-11T11:15:18Z</time>
      </trkpt>
      <trkpt lat="45.96024" lon="5.50793">
        <ele>803.6</ele>
        <time>2026-05-11T11:15:19Z</time>
      </trkpt>
      <trkpt lat="45.96014" lon="5.50797">
        <ele>803</ele>
        <time>2026-05-11T11:15:20Z</time>
      </trkpt>
      <trkpt lat="45.96003" lon="5.50801">
        <ele>802.4</ele>
        <time>2026-05-11T11:15:21Z</time>
      </trkpt>
      <trkpt lat="45.95992" lon="5.50805">
        <ele>801.6</ele>
        <time>2026-05-11T11:15:22Z</time>
      </trkpt>
      <trkpt lat="45.95981" lon="5.50809">
        <ele>801</ele>
        <time>2026-05-11T11:15:23Z</time>
      </trkpt>
      <trkpt lat="45.9597" lon="5.50812">
        <ele>800.2</ele>
        <time>2026-05-11T11:15:24Z</time>
      </trkpt>
      <trkpt lat="45.95959" lon="5.50814">
        <ele>799.2</ele>
        <time>2026-05-11T11:15:25Z</time>
      </trkpt>
      <trkpt lat="45.95949" lon="5.50816">
        <ele>798.4</ele>
        <time>2026-05-11T11:15:26Z</time>
      </trkpt>
      <trkpt lat="45.95938" lon="5.50816">
        <ele>797.8</ele>
        <time>2026-05-11T11:15:27Z</time>
      </trkpt>
      <trkpt lat="45.95928" lon="5.50814">
        <ele>796.4</ele>
        <time>2026-05-11T11:15:28Z</time>
      </trkpt>
      <trkpt lat="45.95917" lon="5.50812">
        <ele>795.6</ele>
        <time>2026-05-11T11:15:29Z</time>
      </trkpt>
      <trkpt lat="45.95906" lon="5.50809">
        <ele>794.8</ele>
        <time>2026-05-11T11:15:30Z</time>
      </trkpt>
      <trkpt lat="45.95895" lon="5.50806">
        <ele>793.2</ele>
        <time>2026-05-11T11:15:31Z</time>
      </trkpt>
      <trkpt lat="45.95885" lon="5.50803">
        <ele>791.8</ele>
        <time>2026-05-11T11:15:32Z</time>
      </trkpt>
      <trkpt lat="45.95874" lon="5.50799">
        <ele>791.2</ele>
        <time>2026-05-11T11:15:33Z</time>
      </trkpt>
      <trkpt lat="45.95864" lon="5.50795">
        <ele>790.8</ele>
        <time>2026-05-11T11:15:34Z</time>
      </trkpt>
      <trkpt lat="45.95855" lon="5.50788">
        <ele>790.2</ele>
        <time>2026-05-11T11:15:35Z</time>
      </trkpt>
      <trkpt lat="45.95847" lon="5.50778">
        <ele>789.4</ele>
        <time>2026-05-11T11:15:36Z</time>
      </trkpt>
      <trkpt lat="45.95841" lon="5.50766">
        <ele>789</ele>
        <time>2026-05-11T11:15:37Z</time>
      </trkpt>
      <trkpt lat="45.95839" lon="5.5075">
        <ele>788.8</ele>
        <time>2026-05-11T11:15:38Z</time>
      </trkpt>
      <trkpt lat="45.95839" lon="5.50735">
        <ele>788.8</ele>
        <time>2026-05-11T11:15:39Z</time>
      </trkpt>
      <trkpt lat="45.9584" lon="5.5072">
        <ele>788</ele>
        <time>2026-05-11T11:15:40Z</time>
      </trkpt>
      <trkpt lat="45.95844" lon="5.50706">
        <ele>787.6</ele>
        <time>2026-05-11T11:15:41Z</time>
      </trkpt>
      <trkpt lat="45.95849" lon="5.50691">
        <ele>787.6</ele>
        <time>2026-05-11T11:15:42Z</time>
      </trkpt>
      <trkpt lat="45.95854" lon="5.50677">
        <ele>786.6</ele>
        <time>2026-05-11T11:15:43Z</time>
      </trkpt>
      <trkpt lat="45.9586" lon="5.50663">
        <ele>786</ele>
        <time>2026-05-11T11:15:44Z</time>
      </trkpt>
      <trkpt lat="45.95866" lon="5.50649">
        <ele>784.6</ele>
        <time>2026-05-11T11:15:45Z</time>
      </trkpt>
      <trkpt lat="45.95873" lon="5.50634">
        <ele>783.6</ele>
        <time>2026-05-11T11:15:46Z</time>
      </trkpt>
      <trkpt lat="45.95879" lon="5.50619">
        <ele>782.2</ele>
        <time>2026-05-11T11:15:47Z</time>
      </trkpt>
      <trkpt lat="45.95885" lon="5.50603">
        <ele>781.2</ele>
        <time>2026-05-11T11:15:48Z</time>
      </trkpt>
      <trkpt lat="45.95891" lon="5.50588">
        <ele>780</ele>
        <time>2026-05-11T11:15:49Z</time>
      </trkpt>
      <trkpt lat="45.95897" lon="5.50571">
        <ele>779.6</ele>
        <time>2026-05-11T11:15:50Z</time>
      </trkpt>
      <trkpt lat="45.95905" lon="5.50556">
        <ele>779</ele>
        <time>2026-05-11T11:15:51Z</time>
      </trkpt>
      <trkpt lat="45.95913" lon="5.50541">
        <ele>777.8</ele>
        <time>2026-05-11T11:15:52Z</time>
      </trkpt>
      <trkpt lat="45.9592" lon="5.50527">
        <ele>776.6</ele>
        <time>2026-05-11T11:15:53Z</time>
      </trkpt>
      <trkpt lat="45.95929" lon="5.50513">
        <ele>775.4</ele>
        <time>2026-05-11T11:15:54Z</time>
      </trkpt>
      <trkpt lat="45.95938" lon="5.50499">
        <ele>774.8</ele>
        <time>2026-05-11T11:15:55Z</time>
      </trkpt>
      <trkpt lat="45.95947" lon="5.50485">
        <ele>773.2</ele>
        <time>2026-05-11T11:15:56Z</time>
      </trkpt>
      <trkpt lat="45.95957" lon="5.50471">
        <ele>772.2</ele>
        <time>2026-05-11T11:15:57Z</time>
      </trkpt>
      <trkpt lat="45.95966" lon="5.50457">
        <ele>770.8</ele>
        <time>2026-05-11T11:15:58Z</time>
      </trkpt>
      <trkpt lat="45.95977" lon="5.50443">
        <ele>769.8</ele>
        <time>2026-05-11T11:15:59Z</time>
      </trkpt>
      <trkpt lat="45.95987" lon="5.5043">
        <ele>768.6</ele>
        <time>2026-05-11T11:16:00Z</time>
      </trkpt>
      <trkpt lat="45.95997" lon="5.50416">
        <ele>768</ele>
        <time>2026-05-11T11:16:01Z</time>
      </trkpt>
      <trkpt lat="45.96006" lon="5.50403">
        <ele>767.2</ele>
        <time>2026-05-11T11:16:02Z</time>
      </trkpt>
      <trkpt lat="45.96014" lon="5.50391">
        <ele>766.4</ele>
        <time>2026-05-11T11:16:03Z</time>
      </trkpt>
      <trkpt lat="45.96021" lon="5.50381">
        <ele>765.8</ele>
        <time>2026-05-11T11:16:04Z</time>
      </trkpt>
      <trkpt lat="45.96026" lon="5.5037">
        <ele>765.8</ele>
        <time>2026-05-11T11:16:05Z</time>
      </trkpt>
      <trkpt lat="45.96031" lon="5.5036">
        <ele>765.2</ele>
        <time>2026-05-11T11:16:06Z</time>
      </trkpt>
      <trkpt lat="45.96035" lon="5.50349">
        <ele>765.2</ele>
        <time>2026-05-11T11:16:07Z</time>
      </trkpt>
      <trkpt lat="45.96039" lon="5.50337">
        <ele>764.2</ele>
        <time>2026-05-11T11:16:08Z</time>
      </trkpt>
      <trkpt lat="45.96042" lon="5.50324">
        <ele>763.4</ele>
        <time>2026-05-11T11:16:09Z</time>
      </trkpt>
      <trkpt lat="45.96045" lon="5.50311">
        <ele>762.6</ele>
        <time>2026-05-11T11:16:10Z</time>
      </trkpt>
      <trkpt lat="45.96048" lon="5.50297">
        <ele>761</ele>
        <time>2026-05-11T11:16:11Z</time>
      </trkpt>
      <trkpt lat="45.9605" lon="5.50282">
        <ele>760.2</ele>
        <time>2026-05-11T11:16:12Z</time>
      </trkpt>
      <trkpt lat="45.96051" lon="5.50268">
        <ele>759.8</ele>
        <time>2026-05-11T11:16:13Z</time>
      </trkpt>
      <trkpt lat="45.96052" lon="5.50256">
        <ele>759.4</ele>
        <time>2026-05-11T11:16:14Z</time>
      </trkpt>
      <trkpt lat="45.96053" lon="5.50245">
        <ele>759.4</ele>
        <time>2026-05-11T11:16:15Z</time>
      </trkpt>
      <trkpt lat="45.96054" lon="5.50233">
        <ele>759.2</ele>
        <time>2026-05-11T11:16:16Z</time>
      </trkpt>
      <trkpt lat="45.96055" lon="5.50222">
        <ele>758.6</ele>
        <time>2026-05-11T11:16:17Z</time>
      </trkpt>
      <trkpt lat="45.96056" lon="5.5021">
        <ele>758.2</ele>
        <time>2026-05-11T11:16:18Z</time>
      </trkpt>
      <trkpt lat="45.96057" lon="5.50199">
        <ele>758.2</ele>
        <time>2026-05-11T11:16:19Z</time>
      </trkpt>
      <trkpt lat="45.96058" lon="5.50188">
        <ele>758</ele>
        <time>2026-05-11T11:16:20Z</time>
      </trkpt>
      <trkpt lat="45.96059" lon="5.50179">
        <ele>758</ele>
        <time>2026-05-11T11:16:21Z</time>
      </trkpt>
      <trkpt lat="45.96059" lon="5.50168">
        <ele>758.4</ele>
        <time>2026-05-11T11:16:22Z</time>
      </trkpt>
      <trkpt lat="45.96061" lon="5.5016">
        <ele>758.6</ele>
        <time>2026-05-11T11:16:23Z</time>
      </trkpt>
      <trkpt lat="45.96061" lon="5.50152">
        <ele>759</ele>
        <time>2026-05-11T11:16:24Z</time>
      </trkpt>
      <trkpt lat="45.96062" lon="5.50146">
        <ele>759</ele>
        <time>2026-05-11T11:16:25Z</time>
      </trkpt>
      <trkpt lat="45.96062" lon="5.5014">
        <ele>759.4</ele>
        <time>2026-05-11T11:16:26Z</time>
      </trkpt>
      <trkpt lat="45.96062" lon="5.50135">
        <ele>759.6</ele>
        <time>2026-05-11T11:16:27Z</time>
      </trkpt>
      <trkpt lat="45.96061" lon="5.50131">
        <ele>759.6</ele>
        <time>2026-05-11T11:16:28Z</time>
      </trkpt>
      <trkpt lat="45.96062" lon="5.50126">
        <ele>759.6</ele>
        <time>2026-05-11T11:16:29Z</time>
      </trkpt>
      <trkpt lat="45.96063" lon="5.50122">
        <ele>760</ele>
        <time>2026-05-11T11:16:30Z</time>
      </trkpt>
      <trkpt lat="45.96063" lon="5.50119">
        <ele>760</ele>
        <time>2026-05-11T11:16:31Z</time>
      </trkpt>
      <trkpt lat="45.96063" lon="5.50115">
        <ele>760.2</ele>
        <time>2026-05-11T11:16:32Z</time>
      </trkpt>
      <trkpt lat="45.96062" lon="5.50112">
        <ele>760.2</ele>
        <time>2026-05-11T11:16:33Z</time>
      </trkpt>
      <trkpt lat="45.96062" lon="5.5011">
        <ele>760.6</ele>
        <time>2026-05-11T11:16:34Z</time>
      </trkpt>
      <trkpt lat="45.96062" lon="5.50107">
        <ele>760.6</ele>
        <time>2026-05-11T11:16:35Z</time>
      </trkpt>
      <trkpt lat="45.96062" lon="5.50105">
        <ele>760.6</ele>
        <time>2026-05-11T11:16:36Z</time>
      </trkpt>
      <trkpt lat="45.96061" lon="5.50103">
        <ele>760.6</ele>
        <time>2026-05-11T11:16:37Z</time>
      </trkpt>
      <trkpt lat="45.96061" lon="5.50101">
        <ele>760.6</ele>
        <time>2026-05-11T11:16:38Z</time>
      </trkpt>
      <trkpt lat="45.96061" lon="5.50099">
        <ele>761</ele>
        <time>2026-05-11T11:16:39Z</time>
      </trkpt>
      <trkpt lat="45.96061" lon="5.50098">
        <ele>761</ele>
        <time>2026-05-11T11:16:40Z</time>
      </trkpt>
      <trkpt lat="45.96061" lon="5.50098">
        <ele>761.2</ele>
        <time>2026-05-11T11:16:41Z</time>
      </trkpt>
      <trkpt lat="45.96062" lon="5.501">
        <ele>761.2</ele>
        <time>2026-05-11T11:16:42Z</time>
      </trkpt>
      <trkpt lat="45.96063" lon="5.50101">
        <ele>761</ele>
        <time>2026-05-11T11:16:52Z</time>
      </trkpt>
      <trkpt lat="45.96063" lon="5.501">
        <ele>761</ele>
        <time>2026-05-11T11:16:53Z</time>
      </trkpt>
      <trkpt lat="45.96062" lon="5.501">
        <ele>761</ele>
        <time>2026-05-11T11:16:54Z</time>
      </trkpt>
      <trkpt lat="45.96063" lon="5.501">
        <ele>761</ele>
        <time>2026-05-11T11:16:55Z</time>
      </trkpt>
      <trkpt lat="45.96063" lon="5.501">
        <ele>761</ele>
        <time>2026-05-11T11:16:56Z</time>
      </trkpt>
      <trkpt lat="45.96063" lon="5.50101">
        <ele>761</ele>
        <time>2026-05-11T11:16:57Z</time>
      </trkpt>
      <trkpt lat="45.96063" lon="5.50102">
        <ele>761</ele>
        <time>2026-05-11T11:16:58Z</time>
      </trkpt>
      <trkpt lat="45.96063" lon="5.50103">
        <ele>761</ele>
        <time>2026-05-11T11:16:59Z</time>
      </trkpt>
      <trkpt lat="45.96063" lon="5.50104">
        <ele>761</ele>
        <time>2026-05-11T11:17:00Z</time>
      </trkpt>
      <trkpt lat="45.96063" lon="5.50104">
        <ele>761</ele>
        <time>2026-05-11T11:17:01Z</time>
      </trkpt>
      <trkpt lat="45.96065" lon="5.50104">
        <ele>761.2</ele>
        <time>2026-05-11T11:17:34Z</time>
      </trkpt>
      <trkpt lat="45.96065" lon="5.50104">
        <ele>761.2</ele>
        <time>2026-05-11T11:17:35Z</time>
      </trkpt>
      <trkpt lat="45.96066" lon="5.50107">
        <ele>761.6</ele>
        <time>2026-05-11T11:20:33Z</time>
      </trkpt>
      <trkpt lat="45.96066" lon="5.50107">
        <ele>761.6</ele>
        <time>2026-05-11T11:20:34Z</time>
      </trkpt>
      <trkpt lat="45.96066" lon="5.50107">
        <ele>761.6</ele>
        <time>2026-05-11T11:20:35Z</time>
      </trkpt>
      <trkpt lat="45.96068" lon="5.50106">
        <ele>761.6</ele>
        <time>2026-05-11T11:20:36Z</time>
      </trkpt>
      <trkpt lat="45.96068" lon="5.50105">
        <ele>761.6</ele>
        <time>2026-05-11T11:20:37Z</time>
      </trkpt>
      <trkpt lat="45.96068" lon="5.50105">
        <ele>761.6</ele>
        <time>2026-05-11T11:20:38Z</time>
      </trkpt>
      <trkpt lat="45.96071" lon="5.50103">
        <ele>761.4</ele>
        <time>2026-05-11T11:20:41Z</time>
      </trkpt>
      <trkpt lat="45.96072" lon="5.50101">
        <ele>761.4</ele>
        <time>2026-05-11T11:20:42Z</time>
      </trkpt>
      <trkpt lat="45.96073" lon="5.50099">
        <ele>761.4</ele>
        <time>2026-05-11T11:20:43Z</time>
      </trkpt>
      <trkpt lat="45.96072" lon="5.50096">
        <ele>761.4</ele>
        <time>2026-05-11T11:20:44Z</time>
      </trkpt>
      <trkpt lat="45.96072" lon="5.50093">
        <ele>761.4</ele>
        <time>2026-05-11T11:20:45Z</time>
      </trkpt>
      <trkpt lat="45.96073" lon="5.5009">
        <ele>761.4</ele>
        <time>2026-05-11T11:20:46Z</time>
      </trkpt>
      <trkpt lat="45.96073" lon="5.50087">
        <ele>761.4</ele>
        <time>2026-05-11T11:20:47Z</time>
      </trkpt>
      <trkpt lat="45.96074" lon="5.50083">
        <ele>761.4</ele>
        <time>2026-05-11T11:20:48Z</time>
      </trkpt>
      <trkpt lat="45.96074" lon="5.5008">
        <ele>761.4</ele>
        <time>2026-05-11T11:20:49Z</time>
      </trkpt>
      <trkpt lat="45.96075" lon="5.50076">
        <ele>761.6</ele>
        <time>2026-05-11T11:20:50Z</time>
      </trkpt>
      <trkpt lat="45.96075" lon="5.50073">
        <ele>761.6</ele>
        <time>2026-05-11T11:20:51Z</time>
      </trkpt>
      <trkpt lat="45.96075" lon="5.5007">
        <ele>761.6</ele>
        <time>2026-05-11T11:20:52Z</time>
      </trkpt>
      <trkpt lat="45.96075" lon="5.50066">
        <ele>761.6</ele>
        <time>2026-05-11T11:20:53Z</time>
      </trkpt>
      <trkpt lat="45.96075" lon="5.50061">
        <ele>761.6</ele>
        <time>2026-05-11T11:20:54Z</time>
      </trkpt>
      <trkpt lat="45.96074" lon="5.50057">
        <ele>761.6</ele>
        <time>2026-05-11T11:20:55Z</time>
      </trkpt>
      <trkpt lat="45.96074" lon="5.50052">
        <ele>761.6</ele>
        <time>2026-05-11T11:20:56Z</time>
      </trkpt>
      <trkpt lat="45.96073" lon="5.50046">
        <ele>761.6</ele>
        <time>2026-05-11T11:20:57Z</time>
      </trkpt>
      <trkpt lat="45.96073" lon="5.50041">
        <ele>761.6</ele>
        <time>2026-05-11T11:20:58Z</time>
      </trkpt>
      <trkpt lat="45.96073" lon="5.50036">
        <ele>761.6</ele>
        <time>2026-05-11T11:20:59Z</time>
      </trkpt>
      <trkpt lat="45.96073" lon="5.5003">
        <ele>761.6</ele>
        <time>2026-05-11T11:21:00Z</time>
      </trkpt>
      <trkpt lat="45.96073" lon="5.50023">
        <ele>761.6</ele>
        <time>2026-05-11T11:21:01Z</time>
      </trkpt>
      <trkpt lat="45.96073" lon="5.50017">
        <ele>761.2</ele>
        <time>2026-05-11T11:21:02Z</time>
      </trkpt>
      <trkpt lat="45.96072" lon="5.50012">
        <ele>761.2</ele>
        <time>2026-05-11T11:21:03Z</time>
      </trkpt>
      <trkpt lat="45.96072" lon="5.50007">
        <ele>761.4</ele>
        <time>2026-05-11T11:21:04Z</time>
      </trkpt>
      <trkpt lat="45.96071" lon="5.50003">
        <ele>761.4</ele>
        <time>2026-05-11T11:21:05Z</time>
      </trkpt>
      <trkpt lat="45.96071" lon="5.49998">
        <ele>761.4</ele>
        <time>2026-05-11T11:21:06Z</time>
      </trkpt>
      <trkpt lat="45.96071" lon="5.49995">
        <ele>761.4</ele>
        <time>2026-05-11T11:21:07Z</time>
      </trkpt>
      <trkpt lat="45.96071" lon="5.49991">
        <ele>761.6</ele>
        <time>2026-05-11T11:21:08Z</time>
      </trkpt>
      <trkpt lat="45.96071" lon="5.49987">
        <ele>761.6</ele>
        <time>2026-05-11T11:21:09Z</time>
      </trkpt>
      <trkpt lat="45.9607" lon="5.49984">
        <ele>761.6</ele>
        <time>2026-05-11T11:21:10Z</time>
      </trkpt>
      <trkpt lat="45.96069" lon="5.4998">
        <ele>761.6</ele>
        <time>2026-05-11T11:21:11Z</time>
      </trkpt>
      <trkpt lat="45.96069" lon="5.49977">
        <ele>761.8</ele>
        <time>2026-05-11T11:21:12Z</time>
      </trkpt>
      <trkpt lat="45.96067" lon="5.49974">
        <ele>761.8</ele>
        <time>2026-05-11T11:21:13Z</time>
      </trkpt>
      <trkpt lat="45.96067" lon="5.49971">
        <ele>761.8</ele>
        <time>2026-05-11T11:21:14Z</time>
      </trkpt>
      <trkpt lat="45.96066" lon="5.49969">
        <ele>761.8</ele>
        <time>2026-05-11T11:21:15Z</time>
      </trkpt>
      <trkpt lat="45.96066" lon="5.49967">
        <ele>761.8</ele>
        <time>2026-05-11T11:21:16Z</time>
      </trkpt>
      <trkpt lat="45.96066" lon="5.49966">
        <ele>761.8</ele>
        <time>2026-05-11T11:21:17Z</time>
      </trkpt>
      <trkpt lat="45.96066" lon="5.49966">
        <ele>762.2</ele>
        <time>2026-05-11T11:21:18Z</time>
      </trkpt>
      <trkpt lat="45.96066" lon="5.49966">
        <ele>762.2</ele>
        <time>2026-05-11T11:21:19Z</time>
      </trkpt>
      <trkpt lat="45.96067" lon="5.49966">
        <ele>761.6</ele>
        <time>2026-05-11T11:21:59Z</time>
      </trkpt>
      <trkpt lat="45.96065" lon="5.49964">
        <ele>761.4</ele>
        <time>2026-05-11T11:22:00Z</time>
      </trkpt>
      <trkpt lat="45.96064" lon="5.49961">
        <ele>761.2</ele>
        <time>2026-05-11T11:22:01Z</time>
      </trkpt>
      <trkpt lat="45.96063" lon="5.49957">
        <ele>761.2</ele>
        <time>2026-05-11T11:22:02Z</time>
      </trkpt>
      <trkpt lat="45.96062" lon="5.49953">
        <ele>760.8</ele>
        <time>2026-05-11T11:22:03Z</time>
      </trkpt>
      <trkpt lat="45.96061" lon="5.49948">
        <ele>760.4</ele>
        <time>2026-05-11T11:22:04Z</time>
      </trkpt>
      <trkpt lat="45.9606" lon="5.49944">
        <ele>760.4</ele>
        <time>2026-05-11T11:22:05Z</time>
      </trkpt>
      <trkpt lat="45.96059" lon="5.49939">
        <ele>760</ele>
        <time>2026-05-11T11:22:06Z</time>
      </trkpt>
      <trkpt lat="45.96057" lon="5.49935">
        <ele>760</ele>
        <time>2026-05-11T11:22:07Z</time>
      </trkpt>
      <trkpt lat="45.96056" lon="5.4993">
        <ele>760</ele>
        <time>2026-05-11T11:22:08Z</time>
      </trkpt>
      <trkpt lat="45.96054" lon="5.49926">
        <ele>759.8</ele>
        <time>2026-05-11T11:22:09Z</time>
      </trkpt>
      <trkpt lat="45.96052" lon="5.49921">
        <ele>759.8</ele>
        <time>2026-05-11T11:22:10Z</time>
      </trkpt>
      <trkpt lat="45.96049" lon="5.49917">
        <ele>759.8</ele>
        <time>2026-05-11T11:22:11Z</time>
      </trkpt>
      <trkpt lat="45.96047" lon="5.49912">
        <ele>759.6</ele>
        <time>2026-05-11T11:22:12Z</time>
      </trkpt>
      <trkpt lat="45.96045" lon="5.49907">
        <ele>759.6</ele>
        <time>2026-05-11T11:22:13Z</time>
      </trkpt>
      <trkpt lat="45.96043" lon="5.49903">
        <ele>759.2</ele>
        <time>2026-05-11T11:22:14Z</time>
      </trkpt>
      <trkpt lat="45.96041" lon="5.49898">
        <ele>759.2</ele>
        <time>2026-05-11T11:22:15Z</time>
      </trkpt>
      <trkpt lat="45.96041" lon="5.49893">
        <ele>759.2</ele>
        <time>2026-05-11T11:22:16Z</time>
      </trkpt>
      <trkpt lat="45.9604" lon="5.49888">
        <ele>759.2</ele>
        <time>2026-05-11T11:22:17Z</time>
      </trkpt>
      <trkpt lat="45.96039" lon="5.49883">
        <ele>759.2</ele>
        <time>2026-05-11T11:22:18Z</time>
      </trkpt>
      <trkpt lat="45.96038" lon="5.49879">
        <ele>759.2</ele>
        <time>2026-05-11T11:22:19Z</time>
      </trkpt>
      <trkpt lat="45.96038" lon="5.49874">
        <ele>759.2</ele>
        <time>2026-05-11T11:22:20Z</time>
      </trkpt>
      <trkpt lat="45.96037" lon="5.4987">
        <ele>759.2</ele>
        <time>2026-05-11T11:22:21Z</time>
      </trkpt>
      <trkpt lat="45.96037" lon="5.49865">
        <ele>759.2</ele>
        <time>2026-05-11T11:22:22Z</time>
      </trkpt>
      <trkpt lat="45.96037" lon="5.4986">
        <ele>759.2</ele>
        <time>2026-05-11T11:22:23Z</time>
      </trkpt>
      <trkpt lat="45.96037" lon="5.49855">
        <ele>759.2</ele>
        <time>2026-05-11T11:22:24Z</time>
      </trkpt>
      <trkpt lat="45.96037" lon="5.4985">
        <ele>759.2</ele>
        <time>2026-05-11T11:22:25Z</time>
      </trkpt>
      <trkpt lat="45.96037" lon="5.49844">
        <ele>759.2</ele>
        <time>2026-05-11T11:22:26Z</time>
      </trkpt>
      <trkpt lat="45.96038" lon="5.49838">
        <ele>759</ele>
        <time>2026-05-11T11:22:27Z</time>
      </trkpt>
      <trkpt lat="45.96038" lon="5.49833">
        <ele>759</ele>
        <time>2026-05-11T11:22:28Z</time>
      </trkpt>
      <trkpt lat="45.96039" lon="5.49827">
        <ele>759</ele>
        <time>2026-05-11T11:22:29Z</time>
      </trkpt>
      <trkpt lat="45.96039" lon="5.49822">
        <ele>759</ele>
        <time>2026-05-11T11:22:30Z</time>
      </trkpt>
      <trkpt lat="45.96038" lon="5.49818">
        <ele>759</ele>
        <time>2026-05-11T11:22:31Z</time>
      </trkpt>
      <trkpt lat="45.96038" lon="5.49813">
        <ele>759</ele>
        <time>2026-05-11T11:22:32Z</time>
      </trkpt>
      <trkpt lat="45.96038" lon="5.49809">
        <ele>759</ele>
        <time>2026-05-11T11:22:33Z</time>
      </trkpt>
      <trkpt lat="45.96037" lon="5.49804">
        <ele>758.6</ele>
        <time>2026-05-11T11:22:34Z</time>
      </trkpt>
      <trkpt lat="45.96037" lon="5.498">
        <ele>758.4</ele>
        <time>2026-05-11T11:22:35Z</time>
      </trkpt>
      <trkpt lat="45.96037" lon="5.49795">
        <ele>758.4</ele>
        <time>2026-05-11T11:22:36Z</time>
      </trkpt>
      <trkpt lat="45.96037" lon="5.49791">
        <ele>758.4</ele>
        <time>2026-05-11T11:22:37Z</time>
      </trkpt>
      <trkpt lat="45.96037" lon="5.49786">
        <ele>758.6</ele>
        <time>2026-05-11T11:22:38Z</time>
      </trkpt>
      <trkpt lat="45.96037" lon="5.49782">
        <ele>758.6</ele>
        <time>2026-05-11T11:22:39Z</time>
      </trkpt>
      <trkpt lat="45.96036" lon="5.49777">
        <ele>758.6</ele>
        <time>2026-05-11T11:22:40Z</time>
      </trkpt>
      <trkpt lat="45.96036" lon="5.49773">
        <ele>758.2</ele>
        <time>2026-05-11T11:22:41Z</time>
      </trkpt>
      <trkpt lat="45.96037" lon="5.49768">
        <ele>758.2</ele>
        <time>2026-05-11T11:22:42Z</time>
      </trkpt>
      <trkpt lat="45.96036" lon="5.49764">
        <ele>758</ele>
        <time>2026-05-11T11:22:43Z</time>
      </trkpt>
      <trkpt lat="45.96036" lon="5.49759">
        <ele>758</ele>
        <time>2026-05-11T11:22:44Z</time>
      </trkpt>
      <trkpt lat="45.96036" lon="5.49754">
        <ele>758</ele>
        <time>2026-05-11T11:22:45Z</time>
      </trkpt>
      <trkpt lat="45.96036" lon="5.49748">
        <ele>758</ele>
        <time>2026-05-11T11:22:46Z</time>
      </trkpt>
      <trkpt lat="45.96036" lon="5.49742">
        <ele>757.8</ele>
        <time>2026-05-11T11:22:47Z</time>
      </trkpt>
      <trkpt lat="45.96036" lon="5.49737">
        <ele>757.8</ele>
        <time>2026-05-11T11:22:48Z</time>
      </trkpt>
      <trkpt lat="45.96036" lon="5.49731">
        <ele>757.8</ele>
        <time>2026-05-11T11:22:49Z</time>
      </trkpt>
      <trkpt lat="45.96036" lon="5.49726">
        <ele>757.6</ele>
        <time>2026-05-11T11:22:50Z</time>
      </trkpt>
      <trkpt lat="45.96036" lon="5.49722">
        <ele>757.6</ele>
        <time>2026-05-11T11:22:51Z</time>
      </trkpt>
      <trkpt lat="45.96036" lon="5.49719">
        <ele>757.6</ele>
        <time>2026-05-11T11:22:52Z</time>
      </trkpt>
      <trkpt lat="45.96036" lon="5.49716">
        <ele>757.6</ele>
        <time>2026-05-11T11:22:53Z</time>
      </trkpt>
      <trkpt lat="45.96035" lon="5.49713">
        <ele>757.6</ele>
        <time>2026-05-11T11:22:54Z</time>
      </trkpt>
      <trkpt lat="45.96035" lon="5.49712">
        <ele>757.6</ele>
        <time>2026-05-11T11:22:55Z</time>
      </trkpt>
      <trkpt lat="45.96033" lon="5.49711">
        <ele>757.6</ele>
        <time>2026-05-11T11:22:56Z</time>
      </trkpt>
      <trkpt lat="45.96032" lon="5.49709">
        <ele>757.6</ele>
        <time>2026-05-11T11:22:57Z</time>
      </trkpt>
      <trkpt lat="45.96031" lon="5.49709">
        <ele>757.8</ele>
        <time>2026-05-11T11:22:58Z</time>
      </trkpt>
      <trkpt lat="45.9603" lon="5.49708">
        <ele>757.8</ele>
        <time>2026-05-11T11:22:59Z</time>
      </trkpt>
      <trkpt lat="45.96029" lon="5.49709">
        <ele>758</ele>
        <time>2026-05-11T11:23:00Z</time>
      </trkpt>
      <trkpt lat="45.96029" lon="5.49709">
        <ele>758</ele>
        <time>2026-05-11T11:23:01Z</time>
      </trkpt>
      <trkpt lat="45.96029" lon="5.49708">
        <ele>757.8</ele>
        <time>2026-05-11T11:23:51Z</time>
      </trkpt>
      <trkpt lat="45.96029" lon="5.49706">
        <ele>757.8</ele>
        <time>2026-05-11T11:23:52Z</time>
      </trkpt>
      <trkpt lat="45.96029" lon="5.49704">
        <ele>757.8</ele>
        <time>2026-05-11T11:23:53Z</time>
      </trkpt>
      <trkpt lat="45.9603" lon="5.49702">
        <ele>757.6</ele>
        <time>2026-05-11T11:23:54Z</time>
      </trkpt>
      <trkpt lat="45.96031" lon="5.49699">
        <ele>757.6</ele>
        <time>2026-05-11T11:23:55Z</time>
      </trkpt>
      <trkpt lat="45.96032" lon="5.49696">
        <ele>757.6</ele>
        <time>2026-05-11T11:23:56Z</time>
      </trkpt>
      <trkpt lat="45.96033" lon="5.49693">
        <ele>757.2</ele>
        <time>2026-05-11T11:23:57Z</time>
      </trkpt>
      <trkpt lat="45.96034" lon="5.4969">
        <ele>757.2</ele>
        <time>2026-05-11T11:23:58Z</time>
      </trkpt>
      <trkpt lat="45.96035" lon="5.49687">
        <ele>757.2</ele>
        <time>2026-05-11T11:23:59Z</time>
      </trkpt>
      <trkpt lat="45.96035" lon="5.49684">
        <ele>757.2</ele>
        <time>2026-05-11T11:24:00Z</time>
      </trkpt>
      <trkpt lat="45.96035" lon="5.49681">
        <ele>757.2</ele>
        <time>2026-05-11T11:24:01Z</time>
      </trkpt>
      <trkpt lat="45.96035" lon="5.49677">
        <ele>757.2</ele>
        <time>2026-05-11T11:24:02Z</time>
      </trkpt>
      <trkpt lat="45.96034" lon="5.49672">
        <ele>757</ele>
        <time>2026-05-11T11:24:03Z</time>
      </trkpt>
      <trkpt lat="45.96034" lon="5.49668">
        <ele>756.8</ele>
        <time>2026-05-11T11:24:04Z</time>
      </trkpt>
      <trkpt lat="45.96034" lon="5.49663">
        <ele>756.4</ele>
        <time>2026-05-11T11:24:05Z</time>
      </trkpt>
      <trkpt lat="45.96034" lon="5.49658">
        <ele>756.4</ele>
        <time>2026-05-11T11:24:06Z</time>
      </trkpt>
      <trkpt lat="45.96034" lon="5.49653">
        <ele>756.2</ele>
        <time>2026-05-11T11:24:07Z</time>
      </trkpt>
      <trkpt lat="45.96035" lon="5.49648">
        <ele>756.2</ele>
        <time>2026-05-11T11:24:08Z</time>
      </trkpt>
      <trkpt lat="45.96035" lon="5.49643">
        <ele>755.8</ele>
        <time>2026-05-11T11:24:09Z</time>
      </trkpt>
      <trkpt lat="45.96035" lon="5.49637">
        <ele>755.8</ele>
        <time>2026-05-11T11:24:10Z</time>
      </trkpt>
      <trkpt lat="45.96035" lon="5.49632">
        <ele>755.6</ele>
        <time>2026-05-11T11:24:11Z</time>
      </trkpt>
      <trkpt lat="45.96035" lon="5.49626">
        <ele>755.6</ele>
        <time>2026-05-11T11:24:12Z</time>
      </trkpt>
      <trkpt lat="45.96036" lon="5.4962">
        <ele>755.6</ele>
        <time>2026-05-11T11:24:13Z</time>
      </trkpt>
      <trkpt lat="45.96036" lon="5.49614">
        <ele>755.6</ele>
        <time>2026-05-11T11:24:14Z</time>
      </trkpt>
      <trkpt lat="45.96036" lon="5.49608">
        <ele>755.6</ele>
        <time>2026-05-11T11:24:15Z</time>
      </trkpt>
      <trkpt lat="45.96036" lon="5.49602">
        <ele>755.6</ele>
        <time>2026-05-11T11:24:16Z</time>
      </trkpt>
      <trkpt lat="45.96036" lon="5.49596">
        <ele>755.6</ele>
        <time>2026-05-11T11:24:17Z</time>
      </trkpt>
      <trkpt lat="45.96037" lon="5.4959">
        <ele>756</ele>
        <time>2026-05-11T11:24:18Z</time>
      </trkpt>
      <trkpt lat="45.96037" lon="5.49584">
        <ele>756</ele>
        <time>2026-05-11T11:24:19Z</time>
      </trkpt>
      <trkpt lat="45.96038" lon="5.4958">
        <ele>755.8</ele>
        <time>2026-05-11T11:24:20Z</time>
      </trkpt>
      <trkpt lat="45.96039" lon="5.49577">
        <ele>755.8</ele>
        <time>2026-05-11T11:24:21Z</time>
      </trkpt>
      <trkpt lat="45.96039" lon="5.49573">
        <ele>755.8</ele>
        <time>2026-05-11T11:24:22Z</time>
      </trkpt>
      <trkpt lat="45.96039" lon="5.49569">
        <ele>756</ele>
        <time>2026-05-11T11:24:23Z</time>
      </trkpt>
      <trkpt lat="45.96038" lon="5.49565">
        <ele>756</ele>
        <time>2026-05-11T11:24:24Z</time>
      </trkpt>
      <trkpt lat="45.96038" lon="5.4956">
        <ele>756</ele>
        <time>2026-05-11T11:24:25Z</time>
      </trkpt>
      <trkpt lat="45.96038" lon="5.49555">
        <ele>756</ele>
        <time>2026-05-11T11:24:26Z</time>
      </trkpt>
      <trkpt lat="45.96038" lon="5.4955">
        <ele>756</ele>
        <time>2026-05-11T11:24:27Z</time>
      </trkpt>
      <trkpt lat="45.96037" lon="5.49546">
        <ele>756</ele>
        <time>2026-05-11T11:24:28Z</time>
      </trkpt>
      <trkpt lat="45.96037" lon="5.49541">
        <ele>756</ele>
        <time>2026-05-11T11:24:29Z</time>
      </trkpt>
      <trkpt lat="45.96037" lon="5.49536">
        <ele>756</ele>
        <time>2026-05-11T11:24:30Z</time>
      </trkpt>
      <trkpt lat="45.96038" lon="5.49532">
        <ele>755.8</ele>
        <time>2026-05-11T11:24:31Z</time>
      </trkpt>
      <trkpt lat="45.96038" lon="5.49527">
        <ele>755.8</ele>
        <time>2026-05-11T11:24:32Z</time>
      </trkpt>
      <trkpt lat="45.96038" lon="5.49522">
        <ele>755.6</ele>
        <time>2026-05-11T11:24:33Z</time>
      </trkpt>
      <trkpt lat="45.96038" lon="5.49517">
        <ele>755.6</ele>
        <time>2026-05-11T11:24:34Z</time>
      </trkpt>
      <trkpt lat="45.96039" lon="5.4951">
        <ele>755.6</ele>
        <time>2026-05-11T11:24:35Z</time>
      </trkpt>
      <trkpt lat="45.96039" lon="5.49504">
        <ele>755.6</ele>
        <time>2026-05-11T11:24:36Z</time>
      </trkpt>
      <trkpt lat="45.96039" lon="5.49498">
        <ele>755.2</ele>
        <time>2026-05-11T11:24:37Z</time>
      </trkpt>
      <trkpt lat="45.9604" lon="5.49489">
        <ele>754.8</ele>
        <time>2026-05-11T11:24:38Z</time>
      </trkpt>
      <trkpt lat="45.96041" lon="5.49482">
        <ele>754.4</ele>
        <time>2026-05-11T11:24:39Z</time>
      </trkpt>
      <trkpt lat="45.9604" lon="5.49476">
        <ele>754</ele>
        <time>2026-05-11T11:24:40Z</time>
      </trkpt>
      <trkpt lat="45.9604" lon="5.49469">
        <ele>753.8</ele>
        <time>2026-05-11T11:24:41Z</time>
      </trkpt>
      <trkpt lat="45.96041" lon="5.49462">
        <ele>753.6</ele>
        <time>2026-05-11T11:24:42Z</time>
      </trkpt>
      <trkpt lat="45.96041" lon="5.49455">
        <ele>753.2</ele>
        <time>2026-05-11T11:24:43Z</time>
      </trkpt>
      <trkpt lat="45.96042" lon="5.49447">
        <ele>752.8</ele>
        <time>2026-05-11T11:24:44Z</time>
      </trkpt>
      <trkpt lat="45.96042" lon="5.49439">
        <ele>752.6</ele>
        <time>2026-05-11T11:24:45Z</time>
      </trkpt>
      <trkpt lat="45.96043" lon="5.4943">
        <ele>752.6</ele>
        <time>2026-05-11T11:24:46Z</time>
      </trkpt>
      <trkpt lat="45.96044" lon="5.49422">
        <ele>752.4</ele>
        <time>2026-05-11T11:24:47Z</time>
      </trkpt>
      <trkpt lat="45.96045" lon="5.49413">
        <ele>752</ele>
        <time>2026-05-11T11:24:48Z</time>
      </trkpt>
      <trkpt lat="45.96046" lon="5.49406">
        <ele>751.6</ele>
        <time>2026-05-11T11:24:49Z</time>
      </trkpt>
      <trkpt lat="45.96047" lon="5.494">
        <ele>751.2</ele>
        <time>2026-05-11T11:24:50Z</time>
      </trkpt>
      <trkpt lat="45.96048" lon="5.49394">
        <ele>751.2</ele>
        <time>2026-05-11T11:24:51Z</time>
      </trkpt>
      <trkpt lat="45.9605" lon="5.49388">
        <ele>750.8</ele>
        <time>2026-05-11T11:24:52Z</time>
      </trkpt>
      <trkpt lat="45.96052" lon="5.49381">
        <ele>750.6</ele>
        <time>2026-05-11T11:24:53Z</time>
      </trkpt>
      <trkpt lat="45.96056" lon="5.49374">
        <ele>750.2</ele>
        <time>2026-05-11T11:24:54Z</time>
      </trkpt>
      <trkpt lat="45.96058" lon="5.49366">
        <ele>750</ele>
        <time>2026-05-11T11:24:55Z</time>
      </trkpt>
      <trkpt lat="45.96062" lon="5.49359">
        <ele>749.6</ele>
        <time>2026-05-11T11:24:56Z</time>
      </trkpt>
      <trkpt lat="45.96066" lon="5.49352">
        <ele>749.6</ele>
        <time>2026-05-11T11:24:57Z</time>
      </trkpt>
      <trkpt lat="45.96071" lon="5.49343">
        <ele>749.2</ele>
        <time>2026-05-11T11:24:58Z</time>
      </trkpt>
      <trkpt lat="45.96075" lon="5.49335">
        <ele>748.6</ele>
        <time>2026-05-11T11:24:59Z</time>
      </trkpt>
      <trkpt lat="45.96079" lon="5.49325">
        <ele>748</ele>
        <time>2026-05-11T11:25:00Z</time>
      </trkpt>
      <trkpt lat="45.96084" lon="5.49315">
        <ele>747.4</ele>
        <time>2026-05-11T11:25:01Z</time>
      </trkpt>
      <trkpt lat="45.96089" lon="5.49306">
        <ele>747</ele>
        <time>2026-05-11T11:25:02Z</time>
      </trkpt>
      <trkpt lat="45.96094" lon="5.49295">
        <ele>746.4</ele>
        <time>2026-05-11T11:25:03Z</time>
      </trkpt>
      <trkpt lat="45.96099" lon="5.49285">
        <ele>745.8</ele>
        <time>2026-05-11T11:25:04Z</time>
      </trkpt>
      <trkpt lat="45.96103" lon="5.49275">
        <ele>745</ele>
        <time>2026-05-11T11:25:05Z</time>
      </trkpt>
      <trkpt lat="45.96107" lon="5.49265">
        <ele>744.6</ele>
        <time>2026-05-11T11:25:06Z</time>
      </trkpt>
      <trkpt lat="45.96113" lon="5.49255">
        <ele>744</ele>
        <time>2026-05-11T11:25:07Z</time>
      </trkpt>
      <trkpt lat="45.96118" lon="5.49245">
        <ele>743.6</ele>
        <time>2026-05-11T11:25:08Z</time>
      </trkpt>
      <trkpt lat="45.96123" lon="5.49235">
        <ele>743</ele>
        <time>2026-05-11T11:25:09Z</time>
      </trkpt>
      <trkpt lat="45.96127" lon="5.49225">
        <ele>742.4</ele>
        <time>2026-05-11T11:25:10Z</time>
      </trkpt>
      <trkpt lat="45.96132" lon="5.49215">
        <ele>742</ele>
        <time>2026-05-11T11:25:11Z</time>
      </trkpt>
      <trkpt lat="45.96137" lon="5.49206">
        <ele>741.2</ele>
        <time>2026-05-11T11:25:12Z</time>
      </trkpt>
      <trkpt lat="45.96143" lon="5.49198">
        <ele>741</ele>
        <time>2026-05-11T11:25:13Z</time>
      </trkpt>
      <trkpt lat="45.96149" lon="5.4919">
        <ele>740.8</ele>
        <time>2026-05-11T11:25:14Z</time>
      </trkpt>
      <trkpt lat="45.96154" lon="5.49182">
        <ele>740.2</ele>
        <time>2026-05-11T11:25:15Z</time>
      </trkpt>
      <trkpt lat="45.96159" lon="5.49175">
        <ele>739.6</ele>
        <time>2026-05-11T11:25:16Z</time>
      </trkpt>
      <trkpt lat="45.96163" lon="5.49168">
        <ele>739.2</ele>
        <time>2026-05-11T11:25:17Z</time>
      </trkpt>
      <trkpt lat="45.96167" lon="5.49162">
        <ele>739</ele>
        <time>2026-05-11T11:25:18Z</time>
      </trkpt>
      <trkpt lat="45.96171" lon="5.49157">
        <ele>738.6</ele>
        <time>2026-05-11T11:25:19Z</time>
      </trkpt>
      <trkpt lat="45.96175" lon="5.49151">
        <ele>738.6</ele>
        <time>2026-05-11T11:25:20Z</time>
      </trkpt>
      <trkpt lat="45.96178" lon="5.49145">
        <ele>738.2</ele>
        <time>2026-05-11T11:25:21Z</time>
      </trkpt>
      <trkpt lat="45.96179" lon="5.49141">
        <ele>738.2</ele>
        <time>2026-05-11T11:25:22Z</time>
      </trkpt>
      <trkpt lat="45.9618" lon="5.49137">
        <ele>737.8</ele>
        <time>2026-05-11T11:25:23Z</time>
      </trkpt>
      <trkpt lat="45.96181" lon="5.49133">
        <ele>737.4</ele>
        <time>2026-05-11T11:25:24Z</time>
      </trkpt>
      <trkpt lat="45.96179" lon="5.4913">
        <ele>737.2</ele>
        <time>2026-05-11T11:25:25Z</time>
      </trkpt>
      <trkpt lat="45.96177" lon="5.49127">
        <ele>736.8</ele>
        <time>2026-05-11T11:25:26Z</time>
      </trkpt>
      <trkpt lat="45.96174" lon="5.49126">
        <ele>736.8</ele>
        <time>2026-05-11T11:25:27Z</time>
      </trkpt>
      <trkpt lat="45.96171" lon="5.49127">
        <ele>736.8</ele>
        <time>2026-05-11T11:25:28Z</time>
      </trkpt>
      <trkpt lat="45.96168" lon="5.49129">
        <ele>736.4</ele>
        <time>2026-05-11T11:25:29Z</time>
      </trkpt>
      <trkpt lat="45.96166" lon="5.49132">
        <ele>736.2</ele>
        <time>2026-05-11T11:25:30Z</time>
      </trkpt>
      <trkpt lat="45.96164" lon="5.49136">
        <ele>736.2</ele>
        <time>2026-05-11T11:25:31Z</time>
      </trkpt>
      <trkpt lat="45.96163" lon="5.4914">
        <ele>736.2</ele>
        <time>2026-05-11T11:25:32Z</time>
      </trkpt>
      <trkpt lat="45.96163" lon="5.49144">
        <ele>736</ele>
        <time>2026-05-11T11:25:33Z</time>
      </trkpt>
      <trkpt lat="45.96163" lon="5.49148">
        <ele>736.4</ele>
        <time>2026-05-11T11:25:34Z</time>
      </trkpt>
      <trkpt lat="45.96162" lon="5.49152">
        <ele>736.4</ele>
        <time>2026-05-11T11:25:35Z</time>
      </trkpt>
      <trkpt lat="45.96161" lon="5.49155">
        <ele>736.8</ele>
        <time>2026-05-11T11:25:36Z</time>
      </trkpt>
      <trkpt lat="45.9616" lon="5.49157">
        <ele>737</ele>
        <time>2026-05-11T11:25:37Z</time>
      </trkpt>
      <trkpt lat="45.96159" lon="5.49159">
        <ele>737</ele>
        <time>2026-05-11T11:25:38Z</time>
      </trkpt>
      <trkpt lat="45.96158" lon="5.4916">
        <ele>737</ele>
        <time>2026-05-11T11:25:39Z</time>
      </trkpt>
      <trkpt lat="45.96157" lon="5.49161">
        <ele>736.8</ele>
        <time>2026-05-11T11:25:40Z</time>
      </trkpt>
      <trkpt lat="45.96156" lon="5.49163">
        <ele>736.8</ele>
        <time>2026-05-11T11:25:41Z</time>
      </trkpt>
      <trkpt lat="45.96154" lon="5.49165">
        <ele>736.8</ele>
        <time>2026-05-11T11:25:42Z</time>
      </trkpt>
      <trkpt lat="45.96152" lon="5.49167">
        <ele>736.6</ele>
        <time>2026-05-11T11:25:43Z</time>
      </trkpt>
      <trkpt lat="45.96151" lon="5.49169">
        <ele>736.6</ele>
        <time>2026-05-11T11:25:44Z</time>
      </trkpt>
      <trkpt lat="45.96149" lon="5.49171">
        <ele>736.6</ele>
        <time>2026-05-11T11:25:45Z</time>
      </trkpt>
      <trkpt lat="45.96147" lon="5.49174">
        <ele>736.6</ele>
        <time>2026-05-11T11:25:46Z</time>
      </trkpt>
      <trkpt lat="45.96145" lon="5.49175">
        <ele>736.6</ele>
        <time>2026-05-11T11:25:47Z</time>
      </trkpt>
      <trkpt lat="45.96144" lon="5.49177">
        <ele>736.6</ele>
        <time>2026-05-11T11:25:48Z</time>
      </trkpt>
      <trkpt lat="45.96142" lon="5.49179">
        <ele>736.6</ele>
        <time>2026-05-11T11:25:49Z</time>
      </trkpt>
      <trkpt lat="45.9614" lon="5.4918">
        <ele>736.6</ele>
        <time>2026-05-11T11:25:50Z</time>
      </trkpt>
      <trkpt lat="45.96138" lon="5.49182">
        <ele>736.6</ele>
        <time>2026-05-11T11:25:51Z</time>
      </trkpt>
      <trkpt lat="45.96137" lon="5.49183">
        <ele>736.6</ele>
        <time>2026-05-11T11:25:52Z</time>
      </trkpt>
      <trkpt lat="45.96135" lon="5.49185">
        <ele>736.2</ele>
        <time>2026-05-11T11:25:53Z</time>
      </trkpt>
      <trkpt lat="45.96134" lon="5.49186">
        <ele>736.2</ele>
        <time>2026-05-11T11:25:54Z</time>
      </trkpt>
      <trkpt lat="45.96133" lon="5.49188">
        <ele>736.6</ele>
        <time>2026-05-11T11:25:55Z</time>
      </trkpt>
      <trkpt lat="45.96131" lon="5.49189">
        <ele>736.6</ele>
        <time>2026-05-11T11:25:56Z</time>
      </trkpt>
      <trkpt lat="45.9613" lon="5.4919">
        <ele>737</ele>
        <time>2026-05-11T11:25:57Z</time>
      </trkpt>
      <trkpt lat="45.96129" lon="5.49191">
        <ele>737.2</ele>
        <time>2026-05-11T11:25:58Z</time>
      </trkpt>
      <trkpt lat="45.96128" lon="5.49191">
        <ele>737.4</ele>
        <time>2026-05-11T11:25:59Z</time>
      </trkpt>
      <trkpt lat="45.96127" lon="5.49191">
        <ele>737.4</ele>
        <time>2026-05-11T11:26:00Z</time>
      </trkpt>
      <trkpt lat="45.96127" lon="5.4919">
        <ele>737.6</ele>
        <time>2026-05-11T11:26:01Z</time>
      </trkpt>
      <trkpt lat="45.96126" lon="5.4919">
        <ele>737.6</ele>
        <time>2026-05-11T11:26:02Z</time>
      </trkpt>
      <trkpt lat="45.96132" lon="5.49187">
        <ele>737.8</ele>
        <time>2026-05-11T12:30:08Z</time>
      </trkpt>
      <trkpt lat="45.96134" lon="5.49184">
        <ele>737.6</ele>
        <time>2026-05-11T12:30:13Z</time>
      </trkpt>
      <trkpt lat="45.96135" lon="5.49183">
        <ele>737.6</ele>
        <time>2026-05-11T12:30:14Z</time>
      </trkpt>
      <trkpt lat="45.96137" lon="5.49181">
        <ele>737.4</ele>
        <time>2026-05-11T12:30:15Z</time>
      </trkpt>
      <trkpt lat="45.96138" lon="5.4918">
        <ele>737.4</ele>
        <time>2026-05-11T12:30:16Z</time>
      </trkpt>
      <trkpt lat="45.96138" lon="5.49179">
        <ele>737.4</ele>
        <time>2026-05-11T12:30:17Z</time>
      </trkpt>
      <trkpt lat="45.96139" lon="5.49179">
        <ele>737.4</ele>
        <time>2026-05-11T12:30:18Z</time>
      </trkpt>
      <trkpt lat="45.9614" lon="5.49177">
        <ele>737.4</ele>
        <time>2026-05-11T12:30:19Z</time>
      </trkpt>
      <trkpt lat="45.96141" lon="5.49176">
        <ele>737.2</ele>
        <time>2026-05-11T12:30:20Z</time>
      </trkpt>
      <trkpt lat="45.96142" lon="5.49175">
        <ele>737.2</ele>
        <time>2026-05-11T12:30:21Z</time>
      </trkpt>
      <trkpt lat="45.96143" lon="5.49174">
        <ele>736.8</ele>
        <time>2026-05-11T12:30:22Z</time>
      </trkpt>
      <trkpt lat="45.96144" lon="5.49174">
        <ele>736.8</ele>
        <time>2026-05-11T12:30:23Z</time>
      </trkpt>
      <trkpt lat="45.96145" lon="5.49174">
        <ele>736.8</ele>
        <time>2026-05-11T12:30:24Z</time>
      </trkpt>
      <trkpt lat="45.96146" lon="5.49173">
        <ele>736.8</ele>
        <time>2026-05-11T12:30:25Z</time>
      </trkpt>
      <trkpt lat="45.96147" lon="5.49172">
        <ele>736.6</ele>
        <time>2026-05-11T12:30:26Z</time>
      </trkpt>
      <trkpt lat="45.96148" lon="5.4917">
        <ele>736.6</ele>
        <time>2026-05-11T12:30:27Z</time>
      </trkpt>
      <trkpt lat="45.96149" lon="5.49169">
        <ele>736.6</ele>
        <time>2026-05-11T12:30:28Z</time>
      </trkpt>
      <trkpt lat="45.96151" lon="5.49167">
        <ele>736.2</ele>
        <time>2026-05-11T12:30:29Z</time>
      </trkpt>
      <trkpt lat="45.96152" lon="5.49166">
        <ele>736.2</ele>
        <time>2026-05-11T12:30:30Z</time>
      </trkpt>
      <trkpt lat="45.96152" lon="5.49165">
        <ele>736.2</ele>
        <time>2026-05-11T12:30:31Z</time>
      </trkpt>
      <trkpt lat="45.96153" lon="5.49164">
        <ele>736</ele>
        <time>2026-05-11T12:30:32Z</time>
      </trkpt>
      <trkpt lat="45.96153" lon="5.49163">
        <ele>736</ele>
        <time>2026-05-11T12:30:33Z</time>
      </trkpt>
      <trkpt lat="45.96154" lon="5.49162">
        <ele>736</ele>
        <time>2026-05-11T12:30:34Z</time>
      </trkpt>
      <trkpt lat="45.96154" lon="5.4916">
        <ele>736</ele>
        <time>2026-05-11T12:30:35Z</time>
      </trkpt>
      <trkpt lat="45.96155" lon="5.49159">
        <ele>736.2</ele>
        <time>2026-05-11T12:30:36Z</time>
      </trkpt>
      <trkpt lat="45.96156" lon="5.49159">
        <ele>736.2</ele>
        <time>2026-05-11T12:30:37Z</time>
      </trkpt>
      <trkpt lat="45.96157" lon="5.49158">
        <ele>736.2</ele>
        <time>2026-05-11T12:30:38Z</time>
      </trkpt>
      <trkpt lat="45.96158" lon="5.49158">
        <ele>736.2</ele>
        <time>2026-05-11T12:30:39Z</time>
      </trkpt>
      <trkpt lat="45.96159" lon="5.49157">
        <ele>736.2</ele>
        <time>2026-05-11T12:30:40Z</time>
      </trkpt>
      <trkpt lat="45.9616" lon="5.49156">
        <ele>736.2</ele>
        <time>2026-05-11T12:30:41Z</time>
      </trkpt>
      <trkpt lat="45.96161" lon="5.49155">
        <ele>736.2</ele>
        <time>2026-05-11T12:30:42Z</time>
      </trkpt>
      <trkpt lat="45.96161" lon="5.49153">
        <ele>736.2</ele>
        <time>2026-05-11T12:30:43Z</time>
      </trkpt>
      <trkpt lat="45.96162" lon="5.49152">
        <ele>736.2</ele>
        <time>2026-05-11T12:30:44Z</time>
      </trkpt>
      <trkpt lat="45.96162" lon="5.49151">
        <ele>736.2</ele>
        <time>2026-05-11T12:30:45Z</time>
      </trkpt>
      <trkpt lat="45.96162" lon="5.49149">
        <ele>736.2</ele>
        <time>2026-05-11T12:30:46Z</time>
      </trkpt>
      <trkpt lat="45.96162" lon="5.49148">
        <ele>736.2</ele>
        <time>2026-05-11T12:30:47Z</time>
      </trkpt>
      <trkpt lat="45.96162" lon="5.49147">
        <ele>736.2</ele>
        <time>2026-05-11T12:30:48Z</time>
      </trkpt>
      <trkpt lat="45.96162" lon="5.49146">
        <ele>736.2</ele>
        <time>2026-05-11T12:30:49Z</time>
      </trkpt>
      <trkpt lat="45.96162" lon="5.49145">
        <ele>736.2</ele>
        <time>2026-05-11T12:30:50Z</time>
      </trkpt>
      <trkpt lat="45.96162" lon="5.49143">
        <ele>736.2</ele>
        <time>2026-05-11T12:30:51Z</time>
      </trkpt>
      <trkpt lat="45.96162" lon="5.49142">
        <ele>736.4</ele>
        <time>2026-05-11T12:30:52Z</time>
      </trkpt>
      <trkpt lat="45.96163" lon="5.4914">
        <ele>736.4</ele>
        <time>2026-05-11T12:30:53Z</time>
      </trkpt>
      <trkpt lat="45.96163" lon="5.49138">
        <ele>736.4</ele>
        <time>2026-05-11T12:30:54Z</time>
      </trkpt>
      <trkpt lat="45.96163" lon="5.49136">
        <ele>736.4</ele>
        <time>2026-05-11T12:30:55Z</time>
      </trkpt>
      <trkpt lat="45.96162" lon="5.49133">
        <ele>736.4</ele>
        <time>2026-05-11T12:30:56Z</time>
      </trkpt>
      <trkpt lat="45.96161" lon="5.49131">
        <ele>736.4</ele>
        <time>2026-05-11T12:30:57Z</time>
      </trkpt>
      <trkpt lat="45.9616" lon="5.4913">
        <ele>736.2</ele>
        <time>2026-05-11T12:30:58Z</time>
      </trkpt>
      <trkpt lat="45.96159" lon="5.49129">
        <ele>736.2</ele>
        <time>2026-05-11T12:30:59Z</time>
      </trkpt>
      <trkpt lat="45.96157" lon="5.49129">
        <ele>736.2</ele>
        <time>2026-05-11T12:31:00Z</time>
      </trkpt>
      <trkpt lat="45.96157" lon="5.49128">
        <ele>736.2</ele>
        <time>2026-05-11T12:31:01Z</time>
      </trkpt>
      <trkpt lat="45.96156" lon="5.49127">
        <ele>736.2</ele>
        <time>2026-05-11T12:31:02Z</time>
      </trkpt>
      <trkpt lat="45.96155" lon="5.49125">
        <ele>736.2</ele>
        <time>2026-05-11T12:31:03Z</time>
      </trkpt>
      <trkpt lat="45.96155" lon="5.49123">
        <ele>736.2</ele>
        <time>2026-05-11T12:31:04Z</time>
      </trkpt>
      <trkpt lat="45.96156" lon="5.49121">
        <ele>736</ele>
        <time>2026-05-11T12:31:05Z</time>
      </trkpt>
      <trkpt lat="45.96157" lon="5.4912">
        <ele>736</ele>
        <time>2026-05-11T12:31:06Z</time>
      </trkpt>
      <trkpt lat="45.96158" lon="5.49119">
        <ele>735.8</ele>
        <time>2026-05-11T12:31:07Z</time>
      </trkpt>
      <trkpt lat="45.9616" lon="5.49118">
        <ele>735.8</ele>
        <time>2026-05-11T12:31:08Z</time>
      </trkpt>
      <trkpt lat="45.96161" lon="5.49119">
        <ele>735.8</ele>
        <time>2026-05-11T12:31:09Z</time>
      </trkpt>
      <trkpt lat="45.96162" lon="5.49119">
        <ele>735.8</ele>
        <time>2026-05-11T12:31:10Z</time>
      </trkpt>
      <trkpt lat="45.96163" lon="5.49121">
        <ele>735.8</ele>
        <time>2026-05-11T12:31:11Z</time>
      </trkpt>
      <trkpt lat="45.96164" lon="5.49123">
        <ele>735.8</ele>
        <time>2026-05-11T12:31:12Z</time>
      </trkpt>
      <trkpt lat="45.96165" lon="5.49125">
        <ele>735.8</ele>
        <time>2026-05-11T12:31:13Z</time>
      </trkpt>
      <trkpt lat="45.96166" lon="5.49126">
        <ele>735.8</ele>
        <time>2026-05-11T12:31:14Z</time>
      </trkpt>
      <trkpt lat="45.96168" lon="5.49127">
        <ele>735.8</ele>
        <time>2026-05-11T12:31:15Z</time>
      </trkpt>
      <trkpt lat="45.9617" lon="5.49127">
        <ele>735.8</ele>
        <time>2026-05-11T12:31:16Z</time>
      </trkpt>
      <trkpt lat="45.96172" lon="5.49126">
        <ele>735.8</ele>
        <time>2026-05-11T12:31:17Z</time>
      </trkpt>
      <trkpt lat="45.96175" lon="5.49126">
        <ele>735.8</ele>
        <time>2026-05-11T12:31:18Z</time>
      </trkpt>
      <trkpt lat="45.96177" lon="5.49125">
        <ele>735.8</ele>
        <time>2026-05-11T12:31:19Z</time>
      </trkpt>
      <trkpt lat="45.96179" lon="5.49125">
        <ele>735.4</ele>
        <time>2026-05-11T12:31:20Z</time>
      </trkpt>
      <trkpt lat="45.96182" lon="5.49123">
        <ele>735.4</ele>
        <time>2026-05-11T12:31:21Z</time>
      </trkpt>
      <trkpt lat="45.96184" lon="5.49122">
        <ele>735.6</ele>
        <time>2026-05-11T12:31:22Z</time>
      </trkpt>
      <trkpt lat="45.96186" lon="5.49121">
        <ele>735.6</ele>
        <time>2026-05-11T12:31:23Z</time>
      </trkpt>
      <trkpt lat="45.96188" lon="5.49118">
        <ele>735.6</ele>
        <time>2026-05-11T12:31:24Z</time>
      </trkpt>
      <trkpt lat="45.96189" lon="5.49114">
        <ele>735.6</ele>
        <time>2026-05-11T12:31:25Z</time>
      </trkpt>
      <trkpt lat="45.9619" lon="5.49109">
        <ele>735.6</ele>
        <time>2026-05-11T12:31:26Z</time>
      </trkpt>
      <trkpt lat="45.96191" lon="5.49104">
        <ele>735.4</ele>
        <time>2026-05-11T12:31:27Z</time>
      </trkpt>
      <trkpt lat="45.96191" lon="5.49098">
        <ele>735.4</ele>
        <time>2026-05-11T12:31:28Z</time>
      </trkpt>
      <trkpt lat="45.96191" lon="5.49092">
        <ele>735.4</ele>
        <time>2026-05-11T12:31:29Z</time>
      </trkpt>
      <trkpt lat="45.96191" lon="5.49087">
        <ele>734.4</ele>
        <time>2026-05-11T12:31:30Z</time>
      </trkpt>
      <trkpt lat="45.9619" lon="5.49082">
        <ele>734.4</ele>
        <time>2026-05-11T12:31:31Z</time>
      </trkpt>
      <trkpt lat="45.9619" lon="5.49075">
        <ele>735</ele>
        <time>2026-05-11T12:31:32Z</time>
      </trkpt>
      <trkpt lat="45.96189" lon="5.49069">
        <ele>735.2</ele>
        <time>2026-05-11T12:31:33Z</time>
      </trkpt>
      <trkpt lat="45.96189" lon="5.49064">
        <ele>735.2</ele>
        <time>2026-05-11T12:31:34Z</time>
      </trkpt>
      <trkpt lat="45.96189" lon="5.49059">
        <ele>734.8</ele>
        <time>2026-05-11T12:31:35Z</time>
      </trkpt>
      <trkpt lat="45.96189" lon="5.49054">
        <ele>735.8</ele>
        <time>2026-05-11T12:31:36Z</time>
      </trkpt>
      <trkpt lat="45.96189" lon="5.49051">
        <ele>735.8</ele>
        <time>2026-05-11T12:31:37Z</time>
      </trkpt>
      <trkpt lat="45.96189" lon="5.49047">
        <ele>735.8</ele>
        <time>2026-05-11T12:31:38Z</time>
      </trkpt>
      <trkpt lat="45.9619" lon="5.49043">
        <ele>735.8</ele>
        <time>2026-05-11T12:31:39Z</time>
      </trkpt>
      <trkpt lat="45.9619" lon="5.49038">
        <ele>735.8</ele>
        <time>2026-05-11T12:31:40Z</time>
      </trkpt>
      <trkpt lat="45.96191" lon="5.49035">
        <ele>735.8</ele>
        <time>2026-05-11T12:31:41Z</time>
      </trkpt>
      <trkpt lat="45.96192" lon="5.49031">
        <ele>736</ele>
        <time>2026-05-11T12:31:42Z</time>
      </trkpt>
      <trkpt lat="45.96193" lon="5.49026">
        <ele>736</ele>
        <time>2026-05-11T12:31:43Z</time>
      </trkpt>
      <trkpt lat="45.96194" lon="5.49022">
        <ele>736</ele>
        <time>2026-05-11T12:31:44Z</time>
      </trkpt>
      <trkpt lat="45.96195" lon="5.49018">
        <ele>736</ele>
        <time>2026-05-11T12:31:45Z</time>
      </trkpt>
      <trkpt lat="45.96196" lon="5.49015">
        <ele>736.4</ele>
        <time>2026-05-11T12:31:46Z</time>
      </trkpt>
      <trkpt lat="45.96197" lon="5.49011">
        <ele>736.4</ele>
        <time>2026-05-11T12:31:47Z</time>
      </trkpt>
      <trkpt lat="45.96198" lon="5.49008">
        <ele>736.4</ele>
        <time>2026-05-11T12:31:48Z</time>
      </trkpt>
      <trkpt lat="45.962" lon="5.49005">
        <ele>736.8</ele>
        <time>2026-05-11T12:31:49Z</time>
      </trkpt>
      <trkpt lat="45.96201" lon="5.49002">
        <ele>736.8</ele>
        <time>2026-05-11T12:31:50Z</time>
      </trkpt>
      <trkpt lat="45.96202" lon="5.49">
        <ele>737</ele>
        <time>2026-05-11T12:31:51Z</time>
      </trkpt>
      <trkpt lat="45.96204" lon="5.48997">
        <ele>737</ele>
        <time>2026-05-11T12:31:52Z</time>
      </trkpt>
      <trkpt lat="45.96205" lon="5.48995">
        <ele>737.4</ele>
        <time>2026-05-11T12:31:53Z</time>
      </trkpt>
      <trkpt lat="45.96207" lon="5.48992">
        <ele>737.4</ele>
        <time>2026-05-11T12:31:54Z</time>
      </trkpt>
      <trkpt lat="45.96208" lon="5.4899">
        <ele>737.8</ele>
        <time>2026-05-11T12:31:55Z</time>
      </trkpt>
      <trkpt lat="45.9621" lon="5.48987">
        <ele>737.8</ele>
        <time>2026-05-11T12:31:56Z</time>
      </trkpt>
      <trkpt lat="45.96212" lon="5.48985">
        <ele>738.2</ele>
        <time>2026-05-11T12:31:57Z</time>
      </trkpt>
      <trkpt lat="45.96214" lon="5.48983">
        <ele>738.4</ele>
        <time>2026-05-11T12:31:58Z</time>
      </trkpt>
      <trkpt lat="45.96215" lon="5.4898">
        <ele>738.6</ele>
        <time>2026-05-11T12:31:59Z</time>
      </trkpt>
      <trkpt lat="45.96217" lon="5.48978">
        <ele>738.8</ele>
        <time>2026-05-11T12:32:00Z</time>
      </trkpt>
      <trkpt lat="45.96219" lon="5.48977">
        <ele>738.8</ele>
        <time>2026-05-11T12:32:01Z</time>
      </trkpt>
      <trkpt lat="45.96221" lon="5.48975">
        <ele>738.8</ele>
        <time>2026-05-11T12:32:02Z</time>
      </trkpt>
      <trkpt lat="45.96223" lon="5.48973">
        <ele>739.2</ele>
        <time>2026-05-11T12:32:03Z</time>
      </trkpt>
      <trkpt lat="45.96224" lon="5.48971">
        <ele>739.2</ele>
        <time>2026-05-11T12:32:04Z</time>
      </trkpt>
      <trkpt lat="45.96226" lon="5.48969">
        <ele>739.6</ele>
        <time>2026-05-11T12:32:05Z</time>
      </trkpt>
      <trkpt lat="45.96228" lon="5.48968">
        <ele>739.6</ele>
        <time>2026-05-11T12:32:06Z</time>
      </trkpt>
      <trkpt lat="45.9623" lon="5.48966">
        <ele>739.6</ele>
        <time>2026-05-11T12:32:07Z</time>
      </trkpt>
      <trkpt lat="45.96232" lon="5.48965">
        <ele>739.8</ele>
        <time>2026-05-11T12:32:08Z</time>
      </trkpt>
      <trkpt lat="45.96234" lon="5.48963">
        <ele>739.8</ele>
        <time>2026-05-11T12:32:09Z</time>
      </trkpt>
      <trkpt lat="45.96236" lon="5.48961">
        <ele>740.2</ele>
        <time>2026-05-11T12:32:10Z</time>
      </trkpt>
      <trkpt lat="45.96238" lon="5.4896">
        <ele>740.2</ele>
        <time>2026-05-11T12:32:11Z</time>
      </trkpt>
      <trkpt lat="45.9624" lon="5.48958">
        <ele>740.6</ele>
        <time>2026-05-11T12:32:12Z</time>
      </trkpt>
      <trkpt lat="45.96242" lon="5.48957">
        <ele>740.6</ele>
        <time>2026-05-11T12:32:13Z</time>
      </trkpt>
      <trkpt lat="45.96244" lon="5.48955">
        <ele>740.6</ele>
        <time>2026-05-11T12:32:14Z</time>
      </trkpt>
      <trkpt lat="45.96246" lon="5.48954">
        <ele>740.8</ele>
        <time>2026-05-11T12:32:15Z</time>
      </trkpt>
      <trkpt lat="45.96248" lon="5.48952">
        <ele>740.8</ele>
        <time>2026-05-11T12:32:16Z</time>
      </trkpt>
      <trkpt lat="45.9625" lon="5.4895">
        <ele>741.2</ele>
        <time>2026-05-11T12:32:17Z</time>
      </trkpt>
      <trkpt lat="45.96252" lon="5.48948">
        <ele>741.2</ele>
        <time>2026-05-11T12:32:18Z</time>
      </trkpt>
      <trkpt lat="45.96254" lon="5.48946">
        <ele>741.4</ele>
        <time>2026-05-11T12:32:19Z</time>
      </trkpt>
      <trkpt lat="45.96256" lon="5.48945">
        <ele>741.4</ele>
        <time>2026-05-11T12:32:20Z</time>
      </trkpt>
      <trkpt lat="45.96258" lon="5.48943">
        <ele>741.8</ele>
        <time>2026-05-11T12:32:21Z</time>
      </trkpt>
      <trkpt lat="45.9626" lon="5.48941">
        <ele>741.8</ele>
        <time>2026-05-11T12:32:22Z</time>
      </trkpt>
      <trkpt lat="45.96262" lon="5.48939">
        <ele>742</ele>
        <time>2026-05-11T12:32:23Z</time>
      </trkpt>
      <trkpt lat="45.96264" lon="5.48937">
        <ele>742</ele>
        <time>2026-05-11T12:32:24Z</time>
      </trkpt>
      <trkpt lat="45.96264" lon="5.48937">
        <ele>742</ele>
        <time>2026-05-11T12:32:25Z</time>
      </trkpt>
      <trkpt lat="45.96266" lon="5.48935">
        <ele>742.4</ele>
        <time>2026-05-11T12:32:26Z</time>
      </trkpt>
      <trkpt lat="45.96268" lon="5.48933">
        <ele>742.4</ele>
        <time>2026-05-11T12:32:27Z</time>
      </trkpt>
      <trkpt lat="45.96269" lon="5.48931">
        <ele>742.6</ele>
        <time>2026-05-11T12:32:28Z</time>
      </trkpt>
      <trkpt lat="45.96271" lon="5.48928">
        <ele>742.6</ele>
        <time>2026-05-11T12:32:29Z</time>
      </trkpt>
      <trkpt lat="45.96273" lon="5.48926">
        <ele>743</ele>
        <time>2026-05-11T12:32:30Z</time>
      </trkpt>
      <trkpt lat="45.96274" lon="5.48924">
        <ele>743</ele>
        <time>2026-05-11T12:32:31Z</time>
      </trkpt>
      <trkpt lat="45.96276" lon="5.48922">
        <ele>743.2</ele>
        <time>2026-05-11T12:32:32Z</time>
      </trkpt>
      <trkpt lat="45.96278" lon="5.4892">
        <ele>743.2</ele>
        <time>2026-05-11T12:32:33Z</time>
      </trkpt>
      <trkpt lat="45.9628" lon="5.48918">
        <ele>743.4</ele>
        <time>2026-05-11T12:32:34Z</time>
      </trkpt>
      <trkpt lat="45.96282" lon="5.48916">
        <ele>743.6</ele>
        <time>2026-05-11T12:32:35Z</time>
      </trkpt>
      <trkpt lat="45.96284" lon="5.48914">
        <ele>743.6</ele>
        <time>2026-05-11T12:32:36Z</time>
      </trkpt>
      <trkpt lat="45.96285" lon="5.48912">
        <ele>744</ele>
        <time>2026-05-11T12:32:37Z</time>
      </trkpt>
      <trkpt lat="45.96287" lon="5.48909">
        <ele>744</ele>
        <time>2026-05-11T12:32:38Z</time>
      </trkpt>
      <trkpt lat="45.96288" lon="5.48907">
        <ele>744.4</ele>
        <time>2026-05-11T12:32:39Z</time>
      </trkpt>
      <trkpt lat="45.9629" lon="5.48904">
        <ele>744.8</ele>
        <time>2026-05-11T12:32:40Z</time>
      </trkpt>
      <trkpt lat="45.96292" lon="5.48901">
        <ele>744.8</ele>
        <time>2026-05-11T12:32:41Z</time>
      </trkpt>
      <trkpt lat="45.96293" lon="5.48899">
        <ele>744.8</ele>
        <time>2026-05-11T12:32:42Z</time>
      </trkpt>
      <trkpt lat="45.96294" lon="5.48897">
        <ele>744.8</ele>
        <time>2026-05-11T12:32:43Z</time>
      </trkpt>
      <trkpt lat="45.96295" lon="5.48894">
        <ele>745</ele>
        <time>2026-05-11T12:32:44Z</time>
      </trkpt>
      <trkpt lat="45.96296" lon="5.48891">
        <ele>745.2</ele>
        <time>2026-05-11T12:32:45Z</time>
      </trkpt>
      <trkpt lat="45.96297" lon="5.48889">
        <ele>745.2</ele>
        <time>2026-05-11T12:32:46Z</time>
      </trkpt>
      <trkpt lat="45.96299" lon="5.48886">
        <ele>745.6</ele>
        <time>2026-05-11T12:32:47Z</time>
      </trkpt>
      <trkpt lat="45.963" lon="5.48884">
        <ele>745.8</ele>
        <time>2026-05-11T12:32:48Z</time>
      </trkpt>
      <trkpt lat="45.96302" lon="5.48882">
        <ele>746</ele>
        <time>2026-05-11T12:32:49Z</time>
      </trkpt>
      <trkpt lat="45.96303" lon="5.48879">
        <ele>746.2</ele>
        <time>2026-05-11T12:32:50Z</time>
      </trkpt>
      <trkpt lat="45.96304" lon="5.48877">
        <ele>746.2</ele>
        <time>2026-05-11T12:32:51Z</time>
      </trkpt>
      <trkpt lat="45.96306" lon="5.48875">
        <ele>746.6</ele>
        <time>2026-05-11T12:32:52Z</time>
      </trkpt>
      <trkpt lat="45.96307" lon="5.48872">
        <ele>746.6</ele>
        <time>2026-05-11T12:32:53Z</time>
      </trkpt>
      <trkpt lat="45.96308" lon="5.48869">
        <ele>747</ele>
        <time>2026-05-11T12:32:54Z</time>
      </trkpt>
      <trkpt lat="45.96309" lon="5.48867">
        <ele>747</ele>
        <time>2026-05-11T12:32:55Z</time>
      </trkpt>
      <trkpt lat="45.9631" lon="5.48864">
        <ele>747.2</ele>
        <time>2026-05-11T12:32:56Z</time>
      </trkpt>
      <trkpt lat="45.96311" lon="5.48861">
        <ele>747.2</ele>
        <time>2026-05-11T12:32:57Z</time>
      </trkpt>
      <trkpt lat="45.96313" lon="5.48859">
        <ele>747.2</ele>
        <time>2026-05-11T12:32:58Z</time>
      </trkpt>
      <trkpt lat="45.96314" lon="5.48856">
        <ele>747.6</ele>
        <time>2026-05-11T12:32:59Z</time>
      </trkpt>
      <trkpt lat="45.96315" lon="5.48854">
        <ele>747.6</ele>
        <time>2026-05-11T12:33:00Z</time>
      </trkpt>
      <trkpt lat="45.96317" lon="5.48851">
        <ele>747.8</ele>
        <time>2026-05-11T12:33:01Z</time>
      </trkpt>
      <trkpt lat="45.96319" lon="5.48849">
        <ele>747.8</ele>
        <time>2026-05-11T12:33:02Z</time>
      </trkpt>
      <trkpt lat="45.9632" lon="5.48847">
        <ele>748</ele>
        <time>2026-05-11T12:33:03Z</time>
      </trkpt>
      <trkpt lat="45.96322" lon="5.48845">
        <ele>748</ele>
        <time>2026-05-11T12:33:04Z</time>
      </trkpt>
      <trkpt lat="45.96323" lon="5.48842">
        <ele>748.2</ele>
        <time>2026-05-11T12:33:05Z</time>
      </trkpt>
      <trkpt lat="45.96325" lon="5.48839">
        <ele>748.2</ele>
        <time>2026-05-11T12:33:06Z</time>
      </trkpt>
      <trkpt lat="45.96326" lon="5.48836">
        <ele>748.4</ele>
        <time>2026-05-11T12:33:07Z</time>
      </trkpt>
      <trkpt lat="45.96327" lon="5.48833">
        <ele>748.4</ele>
        <time>2026-05-11T12:33:08Z</time>
      </trkpt>
      <trkpt lat="45.96328" lon="5.48831">
        <ele>748.8</ele>
        <time>2026-05-11T12:33:09Z</time>
      </trkpt>
      <trkpt lat="45.96329" lon="5.48829">
        <ele>748.8</ele>
        <time>2026-05-11T12:33:10Z</time>
      </trkpt>
      <trkpt lat="45.9633" lon="5.48826">
        <ele>748.8</ele>
        <time>2026-05-11T12:33:11Z</time>
      </trkpt>
      <trkpt lat="45.96331" lon="5.48823">
        <ele>749.2</ele>
        <time>2026-05-11T12:33:12Z</time>
      </trkpt>
      <trkpt lat="45.96333" lon="5.48821">
        <ele>749.2</ele>
        <time>2026-05-11T12:33:13Z</time>
      </trkpt>
      <trkpt lat="45.96334" lon="5.48818">
        <ele>749.4</ele>
        <time>2026-05-11T12:33:14Z</time>
      </trkpt>
      <trkpt lat="45.96335" lon="5.48815">
        <ele>749.4</ele>
        <time>2026-05-11T12:33:15Z</time>
      </trkpt>
      <trkpt lat="45.96336" lon="5.48812">
        <ele>749.4</ele>
        <time>2026-05-11T12:33:16Z</time>
      </trkpt>
      <trkpt lat="45.96337" lon="5.48809">
        <ele>749.4</ele>
        <time>2026-05-11T12:33:17Z</time>
      </trkpt>
      <trkpt lat="45.96339" lon="5.48803">
        <ele>749.6</ele>
        <time>2026-05-11T12:33:18Z</time>
      </trkpt>
      <trkpt lat="45.9634" lon="5.48801">
        <ele>749.6</ele>
        <time>2026-05-11T12:33:19Z</time>
      </trkpt>
      <trkpt lat="45.96342" lon="5.48798">
        <ele>749.6</ele>
        <time>2026-05-11T12:33:20Z</time>
      </trkpt>
      <trkpt lat="45.96343" lon="5.48796">
        <ele>750</ele>
        <time>2026-05-11T12:33:21Z</time>
      </trkpt>
      <trkpt lat="45.96344" lon="5.48793">
        <ele>750</ele>
        <time>2026-05-11T12:33:22Z</time>
      </trkpt>
      <trkpt lat="45.96345" lon="5.4879">
        <ele>750</ele>
        <time>2026-05-11T12:33:23Z</time>
      </trkpt>
      <trkpt lat="45.96346" lon="5.48787">
        <ele>750.2</ele>
        <time>2026-05-11T12:33:24Z</time>
      </trkpt>
      <trkpt lat="45.96347" lon="5.48785">
        <ele>750.6</ele>
        <time>2026-05-11T12:33:25Z</time>
      </trkpt>
      <trkpt lat="45.96348" lon="5.48782">
        <ele>750.6</ele>
        <time>2026-05-11T12:33:26Z</time>
      </trkpt>
      <trkpt lat="45.96349" lon="5.48779">
        <ele>750.8</ele>
        <time>2026-05-11T12:33:27Z</time>
      </trkpt>
      <trkpt lat="45.96351" lon="5.48776">
        <ele>751.2</ele>
        <time>2026-05-11T12:33:28Z</time>
      </trkpt>
      <trkpt lat="45.96352" lon="5.48774">
        <ele>751.2</ele>
        <time>2026-05-11T12:33:29Z</time>
      </trkpt>
      <trkpt lat="45.96353" lon="5.48771">
        <ele>751.2</ele>
        <time>2026-05-11T12:33:30Z</time>
      </trkpt>
      <trkpt lat="45.96354" lon="5.48768">
        <ele>751.4</ele>
        <time>2026-05-11T12:33:31Z</time>
      </trkpt>
      <trkpt lat="45.96355" lon="5.48765">
        <ele>751.4</ele>
        <time>2026-05-11T12:33:32Z</time>
      </trkpt>
      <trkpt lat="45.96356" lon="5.48763">
        <ele>751.6</ele>
        <time>2026-05-11T12:33:33Z</time>
      </trkpt>
      <trkpt lat="45.96357" lon="5.4876">
        <ele>751.6</ele>
        <time>2026-05-11T12:33:34Z</time>
      </trkpt>
      <trkpt lat="45.96359" lon="5.48757">
        <ele>752</ele>
        <time>2026-05-11T12:33:35Z</time>
      </trkpt>
      <trkpt lat="45.9636" lon="5.48754">
        <ele>752</ele>
        <time>2026-05-11T12:33:36Z</time>
      </trkpt>
      <trkpt lat="45.96361" lon="5.48751">
        <ele>752.2</ele>
        <time>2026-05-11T12:33:37Z</time>
      </trkpt>
      <trkpt lat="45.96362" lon="5.48748">
        <ele>752.2</ele>
        <time>2026-05-11T12:33:38Z</time>
      </trkpt>
      <trkpt lat="45.96363" lon="5.48745">
        <ele>752.2</ele>
        <time>2026-05-11T12:33:39Z</time>
      </trkpt>
      <trkpt lat="45.96364" lon="5.48743">
        <ele>752.2</ele>
        <time>2026-05-11T12:33:40Z</time>
      </trkpt>
      <trkpt lat="45.96365" lon="5.4874">
        <ele>752.6</ele>
        <time>2026-05-11T12:33:41Z</time>
      </trkpt>
      <trkpt lat="45.96367" lon="5.48737">
        <ele>752.8</ele>
        <time>2026-05-11T12:33:42Z</time>
      </trkpt>
      <trkpt lat="45.96368" lon="5.48735">
        <ele>752.8</ele>
        <time>2026-05-11T12:33:43Z</time>
      </trkpt>
      <trkpt lat="45.96369" lon="5.48732">
        <ele>752.8</ele>
        <time>2026-05-11T12:33:44Z</time>
      </trkpt>
      <trkpt lat="45.9637" lon="5.4873">
        <ele>752.8</ele>
        <time>2026-05-11T12:33:45Z</time>
      </trkpt>
      <trkpt lat="45.96372" lon="5.48728">
        <ele>753.2</ele>
        <time>2026-05-11T12:33:46Z</time>
      </trkpt>
      <trkpt lat="45.96374" lon="5.48726">
        <ele>753.2</ele>
        <time>2026-05-11T12:33:47Z</time>
      </trkpt>
      <trkpt lat="45.96375" lon="5.48723">
        <ele>753.2</ele>
        <time>2026-05-11T12:33:48Z</time>
      </trkpt>
      <trkpt lat="45.96376" lon="5.48721">
        <ele>753.4</ele>
        <time>2026-05-11T12:33:49Z</time>
      </trkpt>
      <trkpt lat="45.96377" lon="5.48718">
        <ele>753.4</ele>
        <time>2026-05-11T12:33:50Z</time>
      </trkpt>
      <trkpt lat="45.96379" lon="5.48716">
        <ele>753.8</ele>
        <time>2026-05-11T12:33:51Z</time>
      </trkpt>
      <trkpt lat="45.9638" lon="5.48713">
        <ele>753.8</ele>
        <time>2026-05-11T12:33:52Z</time>
      </trkpt>
      <trkpt lat="45.96381" lon="5.48711">
        <ele>753.8</ele>
        <time>2026-05-11T12:33:53Z</time>
      </trkpt>
      <trkpt lat="45.96382" lon="5.48709">
        <ele>754.2</ele>
        <time>2026-05-11T12:33:54Z</time>
      </trkpt>
      <trkpt lat="45.96383" lon="5.48706">
        <ele>754.2</ele>
        <time>2026-05-11T12:33:55Z</time>
      </trkpt>
      <trkpt lat="45.96384" lon="5.48704">
        <ele>754.2</ele>
        <time>2026-05-11T12:33:56Z</time>
      </trkpt>
      <trkpt lat="45.96386" lon="5.48702">
        <ele>754.6</ele>
        <time>2026-05-11T12:33:57Z</time>
      </trkpt>
      <trkpt lat="45.96387" lon="5.48699">
        <ele>754.6</ele>
        <time>2026-05-11T12:33:58Z</time>
      </trkpt>
      <trkpt lat="45.96389" lon="5.48697">
        <ele>754.6</ele>
        <time>2026-05-11T12:33:59Z</time>
      </trkpt>
      <trkpt lat="45.9639" lon="5.48695">
        <ele>754.6</ele>
        <time>2026-05-11T12:34:00Z</time>
      </trkpt>
      <trkpt lat="45.96391" lon="5.48693">
        <ele>754.8</ele>
        <time>2026-05-11T12:34:01Z</time>
      </trkpt>
      <trkpt lat="45.96392" lon="5.48691">
        <ele>755</ele>
        <time>2026-05-11T12:34:02Z</time>
      </trkpt>
      <trkpt lat="45.96393" lon="5.48688">
        <ele>755</ele>
        <time>2026-05-11T12:34:03Z</time>
      </trkpt>
      <trkpt lat="45.96395" lon="5.48686">
        <ele>755.4</ele>
        <time>2026-05-11T12:34:04Z</time>
      </trkpt>
      <trkpt lat="45.96396" lon="5.48684">
        <ele>755.4</ele>
        <time>2026-05-11T12:34:05Z</time>
      </trkpt>
      <trkpt lat="45.96398" lon="5.48682">
        <ele>755.6</ele>
        <time>2026-05-11T12:34:06Z</time>
      </trkpt>
      <trkpt lat="45.964" lon="5.4868">
        <ele>755.6</ele>
        <time>2026-05-11T12:34:07Z</time>
      </trkpt>
      <trkpt lat="45.96401" lon="5.48677">
        <ele>756</ele>
        <time>2026-05-11T12:34:08Z</time>
      </trkpt>
      <trkpt lat="45.96402" lon="5.48675">
        <ele>756</ele>
        <time>2026-05-11T12:34:09Z</time>
      </trkpt>
      <trkpt lat="45.96404" lon="5.48673">
        <ele>756.4</ele>
        <time>2026-05-11T12:34:10Z</time>
      </trkpt>
      <trkpt lat="45.96405" lon="5.48671">
        <ele>756.6</ele>
        <time>2026-05-11T12:34:11Z</time>
      </trkpt>
      <trkpt lat="45.96407" lon="5.48668">
        <ele>756.6</ele>
        <time>2026-05-11T12:34:12Z</time>
      </trkpt>
      <trkpt lat="45.96408" lon="5.48666">
        <ele>756.8</ele>
        <time>2026-05-11T12:34:13Z</time>
      </trkpt>
      <trkpt lat="45.96409" lon="5.48664">
        <ele>756.8</ele>
        <time>2026-05-11T12:34:14Z</time>
      </trkpt>
      <trkpt lat="45.96411" lon="5.48662">
        <ele>757.2</ele>
        <time>2026-05-11T12:34:15Z</time>
      </trkpt>
      <trkpt lat="45.96412" lon="5.48659">
        <ele>757.2</ele>
        <time>2026-05-11T12:34:16Z</time>
      </trkpt>
      <trkpt lat="45.96414" lon="5.48657">
        <ele>757.2</ele>
        <time>2026-05-11T12:34:17Z</time>
      </trkpt>
      <trkpt lat="45.96415" lon="5.48655">
        <ele>757.4</ele>
        <time>2026-05-11T12:34:18Z</time>
      </trkpt>
      <trkpt lat="45.96417" lon="5.48653">
        <ele>757.4</ele>
        <time>2026-05-11T12:34:19Z</time>
      </trkpt>
      <trkpt lat="45.96418" lon="5.48651">
        <ele>757.8</ele>
        <time>2026-05-11T12:34:20Z</time>
      </trkpt>
      <trkpt lat="45.9642" lon="5.48649">
        <ele>758</ele>
        <time>2026-05-11T12:34:21Z</time>
      </trkpt>
      <trkpt lat="45.96421" lon="5.48648">
        <ele>758.2</ele>
        <time>2026-05-11T12:34:22Z</time>
      </trkpt>
      <trkpt lat="45.96423" lon="5.48646">
        <ele>758.2</ele>
        <time>2026-05-11T12:34:23Z</time>
      </trkpt>
      <trkpt lat="45.96425" lon="5.48644">
        <ele>758.6</ele>
        <time>2026-05-11T12:34:24Z</time>
      </trkpt>
      <trkpt lat="45.96426" lon="5.48642">
        <ele>758.6</ele>
        <time>2026-05-11T12:34:25Z</time>
      </trkpt>
      <trkpt lat="45.96428" lon="5.4864">
        <ele>758.6</ele>
        <time>2026-05-11T12:34:26Z</time>
      </trkpt>
      <trkpt lat="45.96429" lon="5.48638">
        <ele>759</ele>
        <time>2026-05-11T12:34:27Z</time>
      </trkpt>
      <trkpt lat="45.96431" lon="5.48636">
        <ele>759</ele>
        <time>2026-05-11T12:34:28Z</time>
      </trkpt>
      <trkpt lat="45.96432" lon="5.48634">
        <ele>759</ele>
        <time>2026-05-11T12:34:29Z</time>
      </trkpt>
      <trkpt lat="45.96433" lon="5.48632">
        <ele>759.2</ele>
        <time>2026-05-11T12:34:30Z</time>
      </trkpt>
      <trkpt lat="45.96435" lon="5.48631">
        <ele>759.2</ele>
        <time>2026-05-11T12:34:31Z</time>
      </trkpt>
      <trkpt lat="45.96436" lon="5.48629">
        <ele>759.4</ele>
        <time>2026-05-11T12:34:32Z</time>
      </trkpt>
      <trkpt lat="45.96438" lon="5.48627">
        <ele>759.6</ele>
        <time>2026-05-11T12:34:33Z</time>
      </trkpt>
      <trkpt lat="45.96439" lon="5.48625">
        <ele>759.6</ele>
        <time>2026-05-11T12:34:34Z</time>
      </trkpt>
      <trkpt lat="45.96441" lon="5.48624">
        <ele>759.8</ele>
        <time>2026-05-11T12:34:35Z</time>
      </trkpt>
      <trkpt lat="45.96442" lon="5.48622">
        <ele>760.2</ele>
        <time>2026-05-11T12:34:36Z</time>
      </trkpt>
      <trkpt lat="45.96444" lon="5.4862">
        <ele>760.2</ele>
        <time>2026-05-11T12:34:37Z</time>
      </trkpt>
      <trkpt lat="45.96445" lon="5.48618">
        <ele>760.6</ele>
        <time>2026-05-11T12:34:38Z</time>
      </trkpt>
      <trkpt lat="45.96446" lon="5.48616">
        <ele>760.6</ele>
        <time>2026-05-11T12:34:39Z</time>
      </trkpt>
      <trkpt lat="45.96447" lon="5.48614">
        <ele>760.6</ele>
        <time>2026-05-11T12:34:40Z</time>
      </trkpt>
      <trkpt lat="45.96448" lon="5.48611">
        <ele>760.8</ele>
        <time>2026-05-11T12:34:41Z</time>
      </trkpt>
      <trkpt lat="45.96449" lon="5.48609">
        <ele>760.8</ele>
        <time>2026-05-11T12:34:42Z</time>
      </trkpt>
      <trkpt lat="45.9645" lon="5.48607">
        <ele>761.2</ele>
        <time>2026-05-11T12:34:43Z</time>
      </trkpt>
      <trkpt lat="45.96451" lon="5.48605">
        <ele>761.4</ele>
        <time>2026-05-11T12:34:44Z</time>
      </trkpt>
      <trkpt lat="45.96452" lon="5.48603">
        <ele>761.8</ele>
        <time>2026-05-11T12:34:45Z</time>
      </trkpt>
      <trkpt lat="45.96454" lon="5.48601">
        <ele>762</ele>
        <time>2026-05-11T12:34:46Z</time>
      </trkpt>
      <trkpt lat="45.96455" lon="5.486">
        <ele>762</ele>
        <time>2026-05-11T12:34:47Z</time>
      </trkpt>
      <trkpt lat="45.96456" lon="5.48598">
        <ele>762.2</ele>
        <time>2026-05-11T12:34:48Z</time>
      </trkpt>
      <trkpt lat="45.96457" lon="5.48597">
        <ele>762.4</ele>
        <time>2026-05-11T12:34:49Z</time>
      </trkpt>
      <trkpt lat="45.96458" lon="5.48596">
        <ele>762.8</ele>
        <time>2026-05-11T12:34:50Z</time>
      </trkpt>
      <trkpt lat="45.96459" lon="5.48594">
        <ele>762.8</ele>
        <time>2026-05-11T12:34:51Z</time>
      </trkpt>
      <trkpt lat="45.9646" lon="5.48592">
        <ele>763.2</ele>
        <time>2026-05-11T12:34:52Z</time>
      </trkpt>
      <trkpt lat="45.9646" lon="5.48591">
        <ele>763.2</ele>
        <time>2026-05-11T12:34:53Z</time>
      </trkpt>
      <trkpt lat="45.9646" lon="5.48589">
        <ele>763.2</ele>
        <time>2026-05-11T12:34:54Z</time>
      </trkpt>
      <trkpt lat="45.9646" lon="5.48588">
        <ele>763.2</ele>
        <time>2026-05-11T12:34:55Z</time>
      </trkpt>
      <trkpt lat="45.96459" lon="5.48586">
        <ele>763.6</ele>
        <time>2026-05-11T12:34:56Z</time>
      </trkpt>
      <trkpt lat="45.96459" lon="5.48585">
        <ele>763.6</ele>
        <time>2026-05-11T12:34:57Z</time>
      </trkpt>
      <trkpt lat="45.96458" lon="5.48585">
        <ele>763.6</ele>
        <time>2026-05-11T12:34:58Z</time>
      </trkpt>
      <trkpt lat="45.96458" lon="5.48585">
        <ele>763.6</ele>
        <time>2026-05-11T12:34:59Z</time>
      </trkpt>
      <trkpt lat="45.96458" lon="5.48585">
        <ele>763.8</ele>
        <time>2026-05-11T12:35:00Z</time>
      </trkpt>
      <trkpt lat="45.96458" lon="5.48584">
        <ele>763.8</ele>
        <time>2026-05-11T12:35:01Z</time>
      </trkpt>
      <trkpt lat="45.96457" lon="5.48583">
        <ele>763.8</ele>
        <time>2026-05-11T12:35:02Z</time>
      </trkpt>
      <trkpt lat="45.96457" lon="5.48582">
        <ele>763.8</ele>
        <time>2026-05-11T12:35:03Z</time>
      </trkpt>
      <trkpt lat="45.96457" lon="5.48581">
        <ele>764.2</ele>
        <time>2026-05-11T12:35:04Z</time>
      </trkpt>
      <trkpt lat="45.96456" lon="5.4858">
        <ele>764.6</ele>
        <time>2026-05-11T12:35:05Z</time>
      </trkpt>
      <trkpt lat="45.96455" lon="5.48579">
        <ele>764.8</ele>
        <time>2026-05-11T12:35:06Z</time>
      </trkpt>
      <trkpt lat="45.96454" lon="5.48578">
        <ele>764.8</ele>
        <time>2026-05-11T12:35:07Z</time>
      </trkpt>
      <trkpt lat="45.96453" lon="5.48578">
        <ele>765.2</ele>
        <time>2026-05-11T12:35:08Z</time>
      </trkpt>
      <trkpt lat="45.96453" lon="5.48577">
        <ele>765.4</ele>
        <time>2026-05-11T12:35:09Z</time>
      </trkpt>
      <trkpt lat="45.96452" lon="5.48576">
        <ele>765.4</ele>
        <time>2026-05-11T12:35:10Z</time>
      </trkpt>
      <trkpt lat="45.96451" lon="5.48576">
        <ele>765.6</ele>
        <time>2026-05-11T12:35:11Z</time>
      </trkpt>
      <trkpt lat="45.9645" lon="5.48575">
        <ele>765.8</ele>
        <time>2026-05-11T12:35:12Z</time>
      </trkpt>
      <trkpt lat="45.9645" lon="5.48574">
        <ele>765.8</ele>
        <time>2026-05-11T12:35:13Z</time>
      </trkpt>
      <trkpt lat="45.96449" lon="5.48574">
        <ele>765.8</ele>
        <time>2026-05-11T12:35:14Z</time>
      </trkpt>
      <trkpt lat="45.96449" lon="5.48573">
        <ele>766.4</ele>
        <time>2026-05-11T12:35:15Z</time>
      </trkpt>
      <trkpt lat="45.96448" lon="5.48573">
        <ele>766.6</ele>
        <time>2026-05-11T12:35:16Z</time>
      </trkpt>
      <trkpt lat="45.96447" lon="5.48572">
        <ele>766.8</ele>
        <time>2026-05-11T12:35:17Z</time>
      </trkpt>
      <trkpt lat="45.96447" lon="5.48572">
        <ele>767</ele>
        <time>2026-05-11T12:35:18Z</time>
      </trkpt>
      <trkpt lat="45.96447" lon="5.48573">
        <ele>767</ele>
        <time>2026-05-11T12:35:19Z</time>
      </trkpt>
      <trkpt lat="45.96447" lon="5.48573">
        <ele>767.2</ele>
        <time>2026-05-11T12:35:20Z</time>
      </trkpt>
      <trkpt lat="45.96446" lon="5.48574">
        <ele>767.2</ele>
        <time>2026-05-11T12:35:21Z</time>
      </trkpt>
      <trkpt lat="45.96445" lon="5.48574">
        <ele>767.2</ele>
        <time>2026-05-11T12:35:22Z</time>
      </trkpt>
      <trkpt lat="45.96444" lon="5.48574">
        <ele>767.2</ele>
        <time>2026-05-11T12:35:23Z</time>
      </trkpt>
      <trkpt lat="45.96443" lon="5.48574">
        <ele>767.6</ele>
        <time>2026-05-11T12:35:24Z</time>
      </trkpt>
      <trkpt lat="45.96443" lon="5.48573">
        <ele>767.6</ele>
        <time>2026-05-11T12:35:25Z</time>
      </trkpt>
      <trkpt lat="45.96442" lon="5.48573">
        <ele>767.8</ele>
        <time>2026-05-11T12:35:26Z</time>
      </trkpt>
      <trkpt lat="45.96442" lon="5.48573">
        <ele>767.8</ele>
        <time>2026-05-11T12:35:27Z</time>
      </trkpt>
      <trkpt lat="45.96442" lon="5.48573">
        <ele>768</ele>
        <time>2026-05-11T12:35:28Z</time>
      </trkpt>
      <trkpt lat="45.96443" lon="5.48573">
        <ele>768</ele>
        <time>2026-05-11T12:35:29Z</time>
      </trkpt>
      <trkpt lat="45.96444" lon="5.48574">
        <ele>768</ele>
        <time>2026-05-11T12:35:30Z</time>
      </trkpt>
      <trkpt lat="45.96444" lon="5.48574">
        <ele>768</ele>
        <time>2026-05-11T12:35:31Z</time>
      </trkpt>
      <trkpt lat="45.96445" lon="5.48574">
        <ele>768</ele>
        <time>2026-05-11T12:35:32Z</time>
      </trkpt>
      <trkpt lat="45.96446" lon="5.48574">
        <ele>767.6</ele>
        <time>2026-05-11T12:35:33Z</time>
      </trkpt>
      <trkpt lat="45.96447" lon="5.48575">
        <ele>767.6</ele>
        <time>2026-05-11T12:35:34Z</time>
      </trkpt>
      <trkpt lat="45.96448" lon="5.48575">
        <ele>767.4</ele>
        <time>2026-05-11T12:35:35Z</time>
      </trkpt>
      <trkpt lat="45.96449" lon="5.48575">
        <ele>767.4</ele>
        <time>2026-05-11T12:35:36Z</time>
      </trkpt>
      <trkpt lat="45.9645" lon="5.48574">
        <ele>767.4</ele>
        <time>2026-05-11T12:35:37Z</time>
      </trkpt>
      <trkpt lat="45.9645" lon="5.48573">
        <ele>767.4</ele>
        <time>2026-05-11T12:35:38Z</time>
      </trkpt>
      <trkpt lat="45.9645" lon="5.48572">
        <ele>767.6</ele>
        <time>2026-05-11T12:35:39Z</time>
      </trkpt>
      <trkpt lat="45.9645" lon="5.4857">
        <ele>767.6</ele>
        <time>2026-05-11T12:35:40Z</time>
      </trkpt>
      <trkpt lat="45.9645" lon="5.48569">
        <ele>767.6</ele>
        <time>2026-05-11T12:35:41Z</time>
      </trkpt>
      <trkpt lat="45.9645" lon="5.48567">
        <ele>767.8</ele>
        <time>2026-05-11T12:35:42Z</time>
      </trkpt>
      <trkpt lat="45.9645" lon="5.48566">
        <ele>767.8</ele>
        <time>2026-05-11T12:35:43Z</time>
      </trkpt>
      <trkpt lat="45.96451" lon="5.48564">
        <ele>768.4</ele>
        <time>2026-05-11T12:35:44Z</time>
      </trkpt>
      <trkpt lat="45.96451" lon="5.48563">
        <ele>768.6</ele>
        <time>2026-05-11T12:35:45Z</time>
      </trkpt>
      <trkpt lat="45.9645" lon="5.48562">
        <ele>769</ele>
        <time>2026-05-11T12:35:46Z</time>
      </trkpt>
      <trkpt lat="45.9645" lon="5.48562">
        <ele>769.2</ele>
        <time>2026-05-11T12:35:47Z</time>
      </trkpt>
      <trkpt lat="45.9645" lon="5.48561">
        <ele>769.2</ele>
        <time>2026-05-11T12:35:48Z</time>
      </trkpt>
      <trkpt lat="45.96449" lon="5.4856">
        <ele>769.6</ele>
        <time>2026-05-11T12:35:49Z</time>
      </trkpt>
      <trkpt lat="45.96449" lon="5.48559">
        <ele>770</ele>
        <time>2026-05-11T12:35:50Z</time>
      </trkpt>
      <trkpt lat="45.96449" lon="5.48558">
        <ele>770.2</ele>
        <time>2026-05-11T12:35:51Z</time>
      </trkpt>
      <trkpt lat="45.96449" lon="5.48558">
        <ele>770.2</ele>
        <time>2026-05-11T12:35:52Z</time>
      </trkpt>
      <trkpt lat="45.96449" lon="5.48557">
        <ele>770.6</ele>
        <time>2026-05-11T12:35:53Z</time>
      </trkpt>
      <trkpt lat="45.96449" lon="5.48557">
        <ele>770.6</ele>
        <time>2026-05-11T12:35:54Z</time>
      </trkpt>
      <trkpt lat="45.9645" lon="5.48557">
        <ele>770.6</ele>
        <time>2026-05-11T12:35:55Z</time>
      </trkpt>
      <trkpt lat="45.9645" lon="5.48556">
        <ele>770.8</ele>
        <time>2026-05-11T12:35:56Z</time>
      </trkpt>
      <trkpt lat="45.9645" lon="5.48555">
        <ele>770.8</ele>
        <time>2026-05-11T12:35:57Z</time>
      </trkpt>
      <trkpt lat="45.9645" lon="5.48555">
        <ele>770.8</ele>
        <time>2026-05-11T12:35:58Z</time>
      </trkpt>
      <trkpt lat="45.9645" lon="5.48554">
        <ele>771.2</ele>
        <time>2026-05-11T12:36:01Z</time>
      </trkpt>
      <trkpt lat="45.96451" lon="5.48554">
        <ele>771.2</ele>
        <time>2026-05-11T12:36:02Z</time>
      </trkpt>
      <trkpt lat="45.96452" lon="5.48554">
        <ele>771.2</ele>
        <time>2026-05-11T12:36:03Z</time>
      </trkpt>
      <trkpt lat="45.96451" lon="5.48555">
        <ele>771.2</ele>
        <time>2026-05-11T12:36:04Z</time>
      </trkpt>
      <trkpt lat="45.9645" lon="5.48555">
        <ele>771.2</ele>
        <time>2026-05-11T12:36:11Z</time>
      </trkpt>
      <trkpt lat="45.96449" lon="5.48556">
        <ele>771.2</ele>
        <time>2026-05-11T12:36:12Z</time>
      </trkpt>
      <trkpt lat="45.96449" lon="5.48556">
        <ele>771</ele>
        <time>2026-05-11T12:36:13Z</time>
      </trkpt>
      <trkpt lat="45.96449" lon="5.48556">
        <ele>771</ele>
        <time>2026-05-11T12:36:14Z</time>
      </trkpt>
      <trkpt lat="45.9645" lon="5.48555">
        <ele>770.6</ele>
        <time>2026-05-11T12:36:20Z</time>
      </trkpt>
      <trkpt lat="45.96449" lon="5.48554">
        <ele>770.6</ele>
        <time>2026-05-11T12:36:21Z</time>
      </trkpt>
      <trkpt lat="45.96449" lon="5.48554">
        <ele>770.6</ele>
        <time>2026-05-11T12:36:22Z</time>
      </trkpt>
      <trkpt lat="45.96449" lon="5.48554">
        <ele>770.4</ele>
        <time>2026-05-11T12:36:23Z</time>
      </trkpt>
      <trkpt lat="45.96449" lon="5.48555">
        <ele>770.6</ele>
        <time>2026-05-11T12:36:24Z</time>
      </trkpt>
      <trkpt lat="45.96449" lon="5.48556">
        <ele>770.6</ele>
        <time>2026-05-11T12:36:25Z</time>
      </trkpt>
      <trkpt lat="45.96448" lon="5.48556">
        <ele>770.6</ele>
        <time>2026-05-11T12:36:26Z</time>
      </trkpt>
      <trkpt lat="45.96448" lon="5.48557">
        <ele>770.6</ele>
        <time>2026-05-11T12:36:27Z</time>
      </trkpt>
      <trkpt lat="45.96448" lon="5.48557">
        <ele>770.6</ele>
        <time>2026-05-11T12:36:28Z</time>
      </trkpt>
      <trkpt lat="45.96448" lon="5.48558">
        <ele>770.6</ele>
        <time>2026-05-11T12:36:29Z</time>
      </trkpt>
      <trkpt lat="45.96448" lon="5.48558">
        <ele>770.2</ele>
        <time>2026-05-11T12:36:30Z</time>
      </trkpt>
      <trkpt lat="45.96448" lon="5.48559">
        <ele>769.8</ele>
        <time>2026-05-11T12:36:31Z</time>
      </trkpt>
      <trkpt lat="45.96448" lon="5.4856">
        <ele>769.8</ele>
        <time>2026-05-11T12:36:32Z</time>
      </trkpt>
      <trkpt lat="45.96448" lon="5.48561">
        <ele>770</ele>
        <time>2026-05-11T12:36:33Z</time>
      </trkpt>
      <trkpt lat="45.96448" lon="5.48562">
        <ele>770</ele>
        <time>2026-05-11T12:36:34Z</time>
      </trkpt>
      <trkpt lat="45.96448" lon="5.48562">
        <ele>769.8</ele>
        <time>2026-05-11T12:36:35Z</time>
      </trkpt>
      <trkpt lat="45.96448" lon="5.48563">
        <ele>769.6</ele>
        <time>2026-05-11T12:36:36Z</time>
      </trkpt>
      <trkpt lat="45.96448" lon="5.48564">
        <ele>769.6</ele>
        <time>2026-05-11T12:36:37Z</time>
      </trkpt>
      <trkpt lat="45.96448" lon="5.48564">
        <ele>769.2</ele>
        <time>2026-05-11T12:36:38Z</time>
      </trkpt>
      <trkpt lat="45.96449" lon="5.48565">
        <ele>769</ele>
        <time>2026-05-11T12:36:39Z</time>
      </trkpt>
      <trkpt lat="45.9645" lon="5.48565">
        <ele>769</ele>
        <time>2026-05-11T12:36:40Z</time>
      </trkpt>
      <trkpt lat="45.96451" lon="5.48565">
        <ele>769</ele>
        <time>2026-05-11T12:36:41Z</time>
      </trkpt>
      <trkpt lat="45.96452" lon="5.48564">
        <ele>768.8</ele>
        <time>2026-05-11T12:36:42Z</time>
      </trkpt>
      <trkpt lat="45.96452" lon="5.48564">
        <ele>768.8</ele>
        <time>2026-05-11T12:36:43Z</time>
      </trkpt>
      <trkpt lat="45.96452" lon="5.48563">
        <ele>768.8</ele>
        <time>2026-05-11T12:36:44Z</time>
      </trkpt>
      <trkpt lat="45.96451" lon="5.48565">
        <ele>770.2</ele>
        <time>2026-05-11T12:50:18Z</time>
      </trkpt>
      <trkpt lat="45.96451" lon="5.48565">
        <ele>770.2</ele>
        <time>2026-05-11T12:50:19Z</time>
      </trkpt>
      <trkpt lat="45.96451" lon="5.48565">
        <ele>770.6</ele>
        <time>2026-05-11T12:50:20Z</time>
      </trkpt>
      <trkpt lat="45.96449" lon="5.48566">
        <ele>770.6</ele>
        <time>2026-05-11T12:50:22Z</time>
      </trkpt>
      <trkpt lat="45.96448" lon="5.48567">
        <ele>770.6</ele>
        <time>2026-05-11T12:50:23Z</time>
      </trkpt>
      <trkpt lat="45.96448" lon="5.48568">
        <ele>770.6</ele>
        <time>2026-05-11T12:50:24Z</time>
      </trkpt>
      <trkpt lat="45.96448" lon="5.48569">
        <ele>770.6</ele>
        <time>2026-05-11T12:50:25Z</time>
      </trkpt>
      <trkpt lat="45.96448" lon="5.48569">
        <ele>770.6</ele>
        <time>2026-05-11T12:50:26Z</time>
      </trkpt>
      <trkpt lat="45.96449" lon="5.48569">
        <ele>770.6</ele>
        <time>2026-05-11T12:50:27Z</time>
      </trkpt>
      <trkpt lat="45.96449" lon="5.48571">
        <ele>770.2</ele>
        <time>2026-05-11T12:50:28Z</time>
      </trkpt>
      <trkpt lat="45.96449" lon="5.48571">
        <ele>770.2</ele>
        <time>2026-05-11T12:50:29Z</time>
      </trkpt>
      <trkpt lat="45.96449" lon="5.48572">
        <ele>770</ele>
        <time>2026-05-11T12:50:30Z</time>
      </trkpt>
      <trkpt lat="45.9645" lon="5.48573">
        <ele>769.2</ele>
        <time>2026-05-11T12:50:31Z</time>
      </trkpt>
      <trkpt lat="45.96451" lon="5.48574">
        <ele>769.2</ele>
        <time>2026-05-11T12:50:32Z</time>
      </trkpt>
      <trkpt lat="45.96452" lon="5.48574">
        <ele>769</ele>
        <time>2026-05-11T12:50:33Z</time>
      </trkpt>
      <trkpt lat="45.96453" lon="5.48575">
        <ele>769</ele>
        <time>2026-05-11T12:50:34Z</time>
      </trkpt>
      <trkpt lat="45.96453" lon="5.48576">
        <ele>769</ele>
        <time>2026-05-11T12:50:35Z</time>
      </trkpt>
      <trkpt lat="45.96454" lon="5.48577">
        <ele>769</ele>
        <time>2026-05-11T12:50:36Z</time>
      </trkpt>
      <trkpt lat="45.96454" lon="5.48578">
        <ele>768.6</ele>
        <time>2026-05-11T12:50:37Z</time>
      </trkpt>
      <trkpt lat="45.96455" lon="5.48579">
        <ele>768.6</ele>
        <time>2026-05-11T12:50:38Z</time>
      </trkpt>
      <trkpt lat="45.96455" lon="5.4858">
        <ele>768.4</ele>
        <time>2026-05-11T12:50:39Z</time>
      </trkpt>
      <trkpt lat="45.96456" lon="5.4858">
        <ele>768.2</ele>
        <time>2026-05-11T12:50:40Z</time>
      </trkpt>
      <trkpt lat="45.96457" lon="5.48581">
        <ele>768</ele>
        <time>2026-05-11T12:50:41Z</time>
      </trkpt>
      <trkpt lat="45.96458" lon="5.48582">
        <ele>768</ele>
        <time>2026-05-11T12:50:42Z</time>
      </trkpt>
      <trkpt lat="45.96458" lon="5.48583">
        <ele>767.4</ele>
        <time>2026-05-11T12:50:43Z</time>
      </trkpt>
      <trkpt lat="45.96459" lon="5.48584">
        <ele>767</ele>
        <time>2026-05-11T12:50:44Z</time>
      </trkpt>
      <trkpt lat="45.96461" lon="5.48584">
        <ele>766.8</ele>
        <time>2026-05-11T12:50:45Z</time>
      </trkpt>
      <trkpt lat="45.96461" lon="5.48584">
        <ele>766.8</ele>
        <time>2026-05-11T12:50:46Z</time>
      </trkpt>
      <trkpt lat="45.96462" lon="5.48583">
        <ele>766.8</ele>
        <time>2026-05-11T12:50:47Z</time>
      </trkpt>
      <trkpt lat="45.96461" lon="5.48583">
        <ele>766.4</ele>
        <time>2026-05-11T12:50:48Z</time>
      </trkpt>
      <trkpt lat="45.96461" lon="5.48583">
        <ele>766.4</ele>
        <time>2026-05-11T12:50:49Z</time>
      </trkpt>
      <trkpt lat="45.96459" lon="5.48585">
        <ele>767.2</ele>
        <time>2026-05-11T12:51:30Z</time>
      </trkpt>
      <trkpt lat="45.96459" lon="5.48586">
        <ele>767.2</ele>
        <time>2026-05-11T12:51:31Z</time>
      </trkpt>
      <trkpt lat="45.96459" lon="5.48588">
        <ele>767.2</ele>
        <time>2026-05-11T12:51:32Z</time>
      </trkpt>
      <trkpt lat="45.96459" lon="5.48588">
        <ele>767.2</ele>
        <time>2026-05-11T12:51:33Z</time>
      </trkpt>
      <trkpt lat="45.96459" lon="5.48589">
        <ele>767.2</ele>
        <time>2026-05-11T12:51:34Z</time>
      </trkpt>
      <trkpt lat="45.96459" lon="5.4859">
        <ele>767.2</ele>
        <time>2026-05-11T12:51:35Z</time>
      </trkpt>
      <trkpt lat="45.96458" lon="5.48592">
        <ele>767.2</ele>
        <time>2026-05-11T12:51:36Z</time>
      </trkpt>
      <trkpt lat="45.96457" lon="5.48594">
        <ele>767.2</ele>
        <time>2026-05-11T12:51:37Z</time>
      </trkpt>
      <trkpt lat="45.96455" lon="5.48596">
        <ele>767.2</ele>
        <time>2026-05-11T12:51:38Z</time>
      </trkpt>
      <trkpt lat="45.96454" lon="5.48597">
        <ele>766.8</ele>
        <time>2026-05-11T12:51:39Z</time>
      </trkpt>
      <trkpt lat="45.96452" lon="5.48597">
        <ele>766.8</ele>
        <time>2026-05-11T12:51:40Z</time>
      </trkpt>
      <trkpt lat="45.96449" lon="5.48596">
        <ele>766.8</ele>
        <time>2026-05-11T12:51:41Z</time>
      </trkpt>
      <trkpt lat="45.96446" lon="5.48594">
        <ele>766.8</ele>
        <time>2026-05-11T12:51:42Z</time>
      </trkpt>
      <trkpt lat="45.96443" lon="5.48591">
        <ele>766.6</ele>
        <time>2026-05-11T12:51:43Z</time>
      </trkpt>
      <trkpt lat="45.96442" lon="5.48587">
        <ele>766.6</ele>
        <time>2026-05-11T12:51:44Z</time>
      </trkpt>
      <trkpt lat="45.9644" lon="5.48584">
        <ele>766.6</ele>
        <time>2026-05-11T12:51:45Z</time>
      </trkpt>
      <trkpt lat="45.96439" lon="5.48582">
        <ele>766.6</ele>
        <time>2026-05-11T12:51:46Z</time>
      </trkpt>
      <trkpt lat="45.96438" lon="5.4858">
        <ele>766.6</ele>
        <time>2026-05-11T12:51:47Z</time>
      </trkpt>
      <trkpt lat="45.96436" lon="5.48578">
        <ele>766.6</ele>
        <time>2026-05-11T12:51:48Z</time>
      </trkpt>
      <trkpt lat="45.96436" lon="5.48577">
        <ele>766.6</ele>
        <time>2026-05-11T12:51:49Z</time>
      </trkpt>
      <trkpt lat="45.96436" lon="5.48577">
        <ele>766.8</ele>
        <time>2026-05-11T12:51:50Z</time>
      </trkpt>
      <trkpt lat="45.96435" lon="5.48576">
        <ele>766.8</ele>
        <time>2026-05-11T12:51:53Z</time>
      </trkpt>
      <trkpt lat="45.96435" lon="5.48576">
        <ele>766.8</ele>
        <time>2026-05-11T12:51:54Z</time>
      </trkpt>
      <trkpt lat="45.96436" lon="5.48576">
        <ele>766.2</ele>
        <time>2026-05-11T12:52:37Z</time>
      </trkpt>
      <trkpt lat="45.96435" lon="5.48576">
        <ele>766.2</ele>
        <time>2026-05-11T12:52:38Z</time>
      </trkpt>
      <trkpt lat="45.96435" lon="5.48575">
        <ele>766.2</ele>
        <time>2026-05-11T12:52:39Z</time>
      </trkpt>
      <trkpt lat="45.96434" lon="5.48575">
        <ele>765.8</ele>
        <time>2026-05-11T12:52:40Z</time>
      </trkpt>
      <trkpt lat="45.96433" lon="5.48574">
        <ele>765.8</ele>
        <time>2026-05-11T12:52:41Z</time>
      </trkpt>
      <trkpt lat="45.96432" lon="5.48573">
        <ele>765.8</ele>
        <time>2026-05-11T12:52:42Z</time>
      </trkpt>
      <trkpt lat="45.96432" lon="5.48572">
        <ele>765.8</ele>
        <time>2026-05-11T12:52:43Z</time>
      </trkpt>
      <trkpt lat="45.96432" lon="5.48571">
        <ele>765.8</ele>
        <time>2026-05-11T12:52:44Z</time>
      </trkpt>
      <trkpt lat="45.96433" lon="5.4857">
        <ele>766</ele>
        <time>2026-05-11T12:52:45Z</time>
      </trkpt>
      <trkpt lat="45.96434" lon="5.48569">
        <ele>766</ele>
        <time>2026-05-11T12:52:46Z</time>
      </trkpt>
      <trkpt lat="45.96435" lon="5.48569">
        <ele>766.4</ele>
        <time>2026-05-11T12:52:47Z</time>
      </trkpt>
      <trkpt lat="45.96435" lon="5.48568">
        <ele>766.4</ele>
        <time>2026-05-11T12:52:48Z</time>
      </trkpt>
      <trkpt lat="45.96436" lon="5.48568">
        <ele>766.4</ele>
        <time>2026-05-11T12:52:49Z</time>
      </trkpt>
      <trkpt lat="45.96435" lon="5.48567">
        <ele>766.2</ele>
        <time>2026-05-11T12:56:42Z</time>
      </trkpt>
      <trkpt lat="45.96435" lon="5.48567">
        <ele>766.2</ele>
        <time>2026-05-11T12:56:43Z</time>
      </trkpt>
      <trkpt lat="45.96435" lon="5.48567">
        <ele>766.2</ele>
        <time>2026-05-11T12:56:44Z</time>
      </trkpt>
      <trkpt lat="45.96435" lon="5.48567">
        <ele>766.2</ele>
        <time>2026-05-11T12:56:45Z</time>
      </trkpt>
      <trkpt lat="45.96435" lon="5.48567">
        <ele>766.2</ele>
        <time>2026-05-11T12:56:46Z</time>
      </trkpt>
      <trkpt lat="45.96435" lon="5.48566">
        <ele>766</ele>
        <time>2026-05-11T12:56:47Z</time>
      </trkpt>
      <trkpt lat="45.96432" lon="5.48568">
        <ele>766</ele>
        <time>2026-05-11T12:57:21Z</time>
      </trkpt>
      <trkpt lat="45.96431" lon="5.48571">
        <ele>765.8</ele>
        <time>2026-05-11T12:57:22Z</time>
      </trkpt>
      <trkpt lat="45.96431" lon="5.48574">
        <ele>765.4</ele>
        <time>2026-05-11T12:57:23Z</time>
      </trkpt>
      <trkpt lat="45.96431" lon="5.48577">
        <ele>765.2</ele>
        <time>2026-05-11T12:57:24Z</time>
      </trkpt>
      <trkpt lat="45.96433" lon="5.48579">
        <ele>765.2</ele>
        <time>2026-05-11T12:57:25Z</time>
      </trkpt>
      <trkpt lat="45.96435" lon="5.48581">
        <ele>765.2</ele>
        <time>2026-05-11T12:57:26Z</time>
      </trkpt>
      <trkpt lat="45.96438" lon="5.48583">
        <ele>765.2</ele>
        <time>2026-05-11T12:57:27Z</time>
      </trkpt>
      <trkpt lat="45.96441" lon="5.48585">
        <ele>765.2</ele>
        <time>2026-05-11T12:57:28Z</time>
      </trkpt>
      <trkpt lat="45.96443" lon="5.48587">
        <ele>765.2</ele>
        <time>2026-05-11T12:57:29Z</time>
      </trkpt>
      <trkpt lat="45.96446" lon="5.48591">
        <ele>764.8</ele>
        <time>2026-05-11T12:57:30Z</time>
      </trkpt>
      <trkpt lat="45.96448" lon="5.48596">
        <ele>764.4</ele>
        <time>2026-05-11T12:57:31Z</time>
      </trkpt>
      <trkpt lat="45.96447" lon="5.48605">
        <ele>764.4</ele>
        <time>2026-05-11T12:57:32Z</time>
      </trkpt>
      <trkpt lat="45.96446" lon="5.4861">
        <ele>763.8</ele>
        <time>2026-05-11T12:57:33Z</time>
      </trkpt>
      <trkpt lat="45.96444" lon="5.48616">
        <ele>763.4</ele>
        <time>2026-05-11T12:57:34Z</time>
      </trkpt>
      <trkpt lat="45.9644" lon="5.48622">
        <ele>763.2</ele>
        <time>2026-05-11T12:57:35Z</time>
      </trkpt>
      <trkpt lat="45.96436" lon="5.48628">
        <ele>762.6</ele>
        <time>2026-05-11T12:57:36Z</time>
      </trkpt>
      <trkpt lat="45.96432" lon="5.48635">
        <ele>762.2</ele>
        <time>2026-05-11T12:57:37Z</time>
      </trkpt>
      <trkpt lat="45.96427" lon="5.48641">
        <ele>761.4</ele>
        <time>2026-05-11T12:57:38Z</time>
      </trkpt>
      <trkpt lat="45.96422" lon="5.48648">
        <ele>760.8</ele>
        <time>2026-05-11T12:57:39Z</time>
      </trkpt>
      <trkpt lat="45.96417" lon="5.48655">
        <ele>760.2</ele>
        <time>2026-05-11T12:57:40Z</time>
      </trkpt>
      <trkpt lat="45.96412" lon="5.48662">
        <ele>760.2</ele>
        <time>2026-05-11T12:57:41Z</time>
      </trkpt>
      <trkpt lat="45.96407" lon="5.4867">
        <ele>759.6</ele>
        <time>2026-05-11T12:57:42Z</time>
      </trkpt>
      <trkpt lat="45.96402" lon="5.48679">
        <ele>759</ele>
        <time>2026-05-11T12:57:43Z</time>
      </trkpt>
      <trkpt lat="45.96397" lon="5.48688">
        <ele>758.6</ele>
        <time>2026-05-11T12:57:44Z</time>
      </trkpt>
      <trkpt lat="45.96391" lon="5.48697">
        <ele>758</ele>
        <time>2026-05-11T12:57:45Z</time>
      </trkpt>
      <trkpt lat="45.96386" lon="5.48707">
        <ele>757.2</ele>
        <time>2026-05-11T12:57:46Z</time>
      </trkpt>
      <trkpt lat="45.96381" lon="5.48717">
        <ele>756.2</ele>
        <time>2026-05-11T12:57:47Z</time>
      </trkpt>
      <trkpt lat="45.96376" lon="5.48728">
        <ele>755.6</ele>
        <time>2026-05-11T12:57:48Z</time>
      </trkpt>
      <trkpt lat="45.96371" lon="5.48739">
        <ele>754.8</ele>
        <time>2026-05-11T12:57:49Z</time>
      </trkpt>
      <trkpt lat="45.96365" lon="5.48751">
        <ele>754.2</ele>
        <time>2026-05-11T12:57:50Z</time>
      </trkpt>
      <trkpt lat="45.9636" lon="5.48763">
        <ele>753.4</ele>
        <time>2026-05-11T12:57:51Z</time>
      </trkpt>
      <trkpt lat="45.96355" lon="5.48775">
        <ele>752.6</ele>
        <time>2026-05-11T12:57:52Z</time>
      </trkpt>
      <trkpt lat="45.9635" lon="5.48788">
        <ele>751.8</ele>
        <time>2026-05-11T12:57:53Z</time>
      </trkpt>
      <trkpt lat="45.96345" lon="5.48801">
        <ele>751.4</ele>
        <time>2026-05-11T12:57:54Z</time>
      </trkpt>
      <trkpt lat="45.96339" lon="5.48814">
        <ele>750.2</ele>
        <time>2026-05-11T12:57:55Z</time>
      </trkpt>
      <trkpt lat="45.96333" lon="5.48827">
        <ele>749.4</ele>
        <time>2026-05-11T12:57:56Z</time>
      </trkpt>
      <trkpt lat="45.96326" lon="5.48839">
        <ele>749.2</ele>
        <time>2026-05-11T12:57:57Z</time>
      </trkpt>
      <trkpt lat="45.96319" lon="5.48852">
        <ele>748.6</ele>
        <time>2026-05-11T12:57:58Z</time>
      </trkpt>
      <trkpt lat="45.96312" lon="5.48864">
        <ele>748.2</ele>
        <time>2026-05-11T12:57:59Z</time>
      </trkpt>
      <trkpt lat="45.96305" lon="5.48877">
        <ele>747.8</ele>
        <time>2026-05-11T12:58:00Z</time>
      </trkpt>
      <trkpt lat="45.96298" lon="5.4889">
        <ele>747</ele>
        <time>2026-05-11T12:58:01Z</time>
      </trkpt>
      <trkpt lat="45.96291" lon="5.48903">
        <ele>746</ele>
        <time>2026-05-11T12:58:02Z</time>
      </trkpt>
      <trkpt lat="45.96283" lon="5.48915">
        <ele>745</ele>
        <time>2026-05-11T12:58:03Z</time>
      </trkpt>
      <trkpt lat="45.96274" lon="5.48926">
        <ele>744.2</ele>
        <time>2026-05-11T12:58:04Z</time>
      </trkpt>
      <trkpt lat="45.96263" lon="5.48936">
        <ele>743.8</ele>
        <time>2026-05-11T12:58:05Z</time>
      </trkpt>
      <trkpt lat="45.96253" lon="5.48947">
        <ele>743</ele>
        <time>2026-05-11T12:58:06Z</time>
      </trkpt>
      <trkpt lat="45.96244" lon="5.48956">
        <ele>742.4</ele>
        <time>2026-05-11T12:58:07Z</time>
      </trkpt>
      <trkpt lat="45.96235" lon="5.48964">
        <ele>741.8</ele>
        <time>2026-05-11T12:58:08Z</time>
      </trkpt>
      <trkpt lat="45.96225" lon="5.48973">
        <ele>741</ele>
        <time>2026-05-11T12:58:09Z</time>
      </trkpt>
      <trkpt lat="45.96216" lon="5.48983">
        <ele>740</ele>
        <time>2026-05-11T12:58:10Z</time>
      </trkpt>
      <trkpt lat="45.96209" lon="5.48993">
        <ele>739</ele>
        <time>2026-05-11T12:58:11Z</time>
      </trkpt>
      <trkpt lat="45.96202" lon="5.49005">
        <ele>738</ele>
        <time>2026-05-11T12:58:12Z</time>
      </trkpt>
      <trkpt lat="45.96196" lon="5.49018">
        <ele>736.6</ele>
        <time>2026-05-11T12:58:13Z</time>
      </trkpt>
      <trkpt lat="45.96191" lon="5.49033">
        <ele>735.4</ele>
        <time>2026-05-11T12:58:14Z</time>
      </trkpt>
      <trkpt lat="45.96187" lon="5.49047">
        <ele>734.4</ele>
        <time>2026-05-11T12:58:15Z</time>
      </trkpt>
      <trkpt lat="45.96189" lon="5.49062">
        <ele>733.8</ele>
        <time>2026-05-11T12:58:16Z</time>
      </trkpt>
      <trkpt lat="45.96189" lon="5.49077">
        <ele>733.4</ele>
        <time>2026-05-11T12:58:17Z</time>
      </trkpt>
      <trkpt lat="45.96189" lon="5.4909">
        <ele>733</ele>
        <time>2026-05-11T12:58:18Z</time>
      </trkpt>
      <trkpt lat="45.96188" lon="5.49104">
        <ele>732.6</ele>
        <time>2026-05-11T12:58:19Z</time>
      </trkpt>
      <trkpt lat="45.96186" lon="5.49117">
        <ele>732.6</ele>
        <time>2026-05-11T12:58:20Z</time>
      </trkpt>
      <trkpt lat="45.96182" lon="5.49128">
        <ele>732.6</ele>
        <time>2026-05-11T12:58:21Z</time>
      </trkpt>
      <trkpt lat="45.96179" lon="5.49138">
        <ele>733.2</ele>
        <time>2026-05-11T12:58:22Z</time>
      </trkpt>
      <trkpt lat="45.96176" lon="5.49146">
        <ele>733.8</ele>
        <time>2026-05-11T12:58:23Z</time>
      </trkpt>
      <trkpt lat="45.96172" lon="5.49154">
        <ele>734.2</ele>
        <time>2026-05-11T12:58:24Z</time>
      </trkpt>
      <trkpt lat="45.96169" lon="5.49161">
        <ele>735</ele>
        <time>2026-05-11T12:58:25Z</time>
      </trkpt>
      <trkpt lat="45.96165" lon="5.49166">
        <ele>735.6</ele>
        <time>2026-05-11T12:58:26Z</time>
      </trkpt>
      <trkpt lat="45.96161" lon="5.49172">
        <ele>736.2</ele>
        <time>2026-05-11T12:58:27Z</time>
      </trkpt>
      <trkpt lat="45.96157" lon="5.49176">
        <ele>737</ele>
        <time>2026-05-11T12:58:28Z</time>
      </trkpt>
      <trkpt lat="45.96153" lon="5.49181">
        <ele>737.4</ele>
        <time>2026-05-11T12:58:29Z</time>
      </trkpt>
      <trkpt lat="45.9615" lon="5.49185">
        <ele>738</ele>
        <time>2026-05-11T12:58:30Z</time>
      </trkpt>
      <trkpt lat="45.96146" lon="5.49189">
        <ele>738.4</ele>
        <time>2026-05-11T12:58:31Z</time>
      </trkpt>
      <trkpt lat="45.96143" lon="5.49193">
        <ele>738.8</ele>
        <time>2026-05-11T12:58:32Z</time>
      </trkpt>
      <trkpt lat="45.9614" lon="5.49197">
        <ele>739.2</ele>
        <time>2026-05-11T12:58:33Z</time>
      </trkpt>
      <trkpt lat="45.96137" lon="5.492">
        <ele>739.4</ele>
        <time>2026-05-11T12:58:34Z</time>
      </trkpt>
      <trkpt lat="45.96134" lon="5.49203">
        <ele>740</ele>
        <time>2026-05-11T12:58:35Z</time>
      </trkpt>
      <trkpt lat="45.96133" lon="5.49208">
        <ele>740.6</ele>
        <time>2026-05-11T12:58:36Z</time>
      </trkpt>
      <trkpt lat="45.9613" lon="5.49211">
        <ele>741</ele>
        <time>2026-05-11T12:58:37Z</time>
      </trkpt>
      <trkpt lat="45.96129" lon="5.49215">
        <ele>741</ele>
        <time>2026-05-11T12:58:38Z</time>
      </trkpt>
      <trkpt lat="45.96127" lon="5.49219">
        <ele>741.4</ele>
        <time>2026-05-11T12:58:39Z</time>
      </trkpt>
      <trkpt lat="45.96125" lon="5.49223">
        <ele>741.4</ele>
        <time>2026-05-11T12:58:40Z</time>
      </trkpt>
      <trkpt lat="45.96123" lon="5.49226">
        <ele>741.8</ele>
        <time>2026-05-11T12:58:41Z</time>
      </trkpt>
      <trkpt lat="45.96122" lon="5.4923">
        <ele>742.4</ele>
        <time>2026-05-11T12:58:42Z</time>
      </trkpt>
      <trkpt lat="45.9612" lon="5.49233">
        <ele>742.6</ele>
        <time>2026-05-11T12:58:43Z</time>
      </trkpt>
      <trkpt lat="45.96118" lon="5.49237">
        <ele>743</ele>
        <time>2026-05-11T12:58:44Z</time>
      </trkpt>
      <trkpt lat="45.96117" lon="5.4924">
        <ele>743</ele>
        <time>2026-05-11T12:58:45Z</time>
      </trkpt>
      <trkpt lat="45.96115" lon="5.49243">
        <ele>743.2</ele>
        <time>2026-05-11T12:58:46Z</time>
      </trkpt>
      <trkpt lat="45.96114" lon="5.49246">
        <ele>743.2</ele>
        <time>2026-05-11T12:58:47Z</time>
      </trkpt>
      <trkpt lat="45.96112" lon="5.49249">
        <ele>743.2</ele>
        <time>2026-05-11T12:58:48Z</time>
      </trkpt>
      <trkpt lat="45.9611" lon="5.49252">
        <ele>743.4</ele>
        <time>2026-05-11T12:58:49Z</time>
      </trkpt>
      <trkpt lat="45.96108" lon="5.49255">
        <ele>743.4</ele>
        <time>2026-05-11T12:58:50Z</time>
      </trkpt>
      <trkpt lat="45.96106" lon="5.49258">
        <ele>743.8</ele>
        <time>2026-05-11T12:58:51Z</time>
      </trkpt>
      <trkpt lat="45.96105" lon="5.49261">
        <ele>743.8</ele>
        <time>2026-05-11T12:58:52Z</time>
      </trkpt>
      <trkpt lat="45.96104" lon="5.49265">
        <ele>744</ele>
        <time>2026-05-11T12:58:53Z</time>
      </trkpt>
      <trkpt lat="45.96102" lon="5.49268">
        <ele>744</ele>
        <time>2026-05-11T12:58:54Z</time>
      </trkpt>
      <trkpt lat="45.96101" lon="5.49271">
        <ele>744.4</ele>
        <time>2026-05-11T12:58:55Z</time>
      </trkpt>
      <trkpt lat="45.96099" lon="5.49274">
        <ele>744.4</ele>
        <time>2026-05-11T12:58:56Z</time>
      </trkpt>
      <trkpt lat="45.96098" lon="5.49276">
        <ele>744.4</ele>
        <time>2026-05-11T12:58:57Z</time>
      </trkpt>
      <trkpt lat="45.96096" lon="5.49279">
        <ele>744.6</ele>
        <time>2026-05-11T12:58:58Z</time>
      </trkpt>
      <trkpt lat="45.96095" lon="5.49282">
        <ele>744.6</ele>
        <time>2026-05-11T12:58:59Z</time>
      </trkpt>
      <trkpt lat="45.96094" lon="5.49285">
        <ele>745</ele>
        <time>2026-05-11T12:59:00Z</time>
      </trkpt>
      <trkpt lat="45.96093" lon="5.49288">
        <ele>745</ele>
        <time>2026-05-11T12:59:01Z</time>
      </trkpt>
      <trkpt lat="45.96091" lon="5.49291">
        <ele>745.6</ele>
        <time>2026-05-11T12:59:02Z</time>
      </trkpt>
      <trkpt lat="45.9609" lon="5.49294">
        <ele>745.8</ele>
        <time>2026-05-11T12:59:03Z</time>
      </trkpt>
      <trkpt lat="45.96088" lon="5.49297">
        <ele>745.8</ele>
        <time>2026-05-11T12:59:04Z</time>
      </trkpt>
      <trkpt lat="45.96086" lon="5.493">
        <ele>746</ele>
        <time>2026-05-11T12:59:05Z</time>
      </trkpt>
      <trkpt lat="45.96085" lon="5.49302">
        <ele>746</ele>
        <time>2026-05-11T12:59:06Z</time>
      </trkpt>
      <trkpt lat="45.96083" lon="5.49305">
        <ele>746.4</ele>
        <time>2026-05-11T12:59:07Z</time>
      </trkpt>
      <trkpt lat="45.96082" lon="5.49308">
        <ele>746.4</ele>
        <time>2026-05-11T12:59:08Z</time>
      </trkpt>
      <trkpt lat="45.9608" lon="5.49311">
        <ele>746.8</ele>
        <time>2026-05-11T12:59:09Z</time>
      </trkpt>
      <trkpt lat="45.96079" lon="5.49314">
        <ele>746.8</ele>
        <time>2026-05-11T12:59:10Z</time>
      </trkpt>
      <trkpt lat="45.96077" lon="5.49317">
        <ele>746.8</ele>
        <time>2026-05-11T12:59:11Z</time>
      </trkpt>
      <trkpt lat="45.96076" lon="5.4932">
        <ele>746.8</ele>
        <time>2026-05-11T12:59:12Z</time>
      </trkpt>
      <trkpt lat="45.96074" lon="5.49322">
        <ele>746.8</ele>
        <time>2026-05-11T12:59:13Z</time>
      </trkpt>
      <trkpt lat="45.96073" lon="5.49325">
        <ele>747</ele>
        <time>2026-05-11T12:59:14Z</time>
      </trkpt>
      <trkpt lat="45.96071" lon="5.49328">
        <ele>747.2</ele>
        <time>2026-05-11T12:59:15Z</time>
      </trkpt>
      <trkpt lat="45.9607" lon="5.49331">
        <ele>747.2</ele>
        <time>2026-05-11T12:59:16Z</time>
      </trkpt>
      <trkpt lat="45.96069" lon="5.49334">
        <ele>747.4</ele>
        <time>2026-05-11T12:59:17Z</time>
      </trkpt>
      <trkpt lat="45.96068" lon="5.49337">
        <ele>747.4</ele>
        <time>2026-05-11T12:59:18Z</time>
      </trkpt>
      <trkpt lat="45.96066" lon="5.4934">
        <ele>747.6</ele>
        <time>2026-05-11T12:59:19Z</time>
      </trkpt>
      <trkpt lat="45.96065" lon="5.49343">
        <ele>747.8</ele>
        <time>2026-05-11T12:59:20Z</time>
      </trkpt>
      <trkpt lat="45.96063" lon="5.49345">
        <ele>747.8</ele>
        <time>2026-05-11T12:59:21Z</time>
      </trkpt>
      <trkpt lat="45.96062" lon="5.49348">
        <ele>748.2</ele>
        <time>2026-05-11T12:59:22Z</time>
      </trkpt>
      <trkpt lat="45.96061" lon="5.49351">
        <ele>748.2</ele>
        <time>2026-05-11T12:59:23Z</time>
      </trkpt>
      <trkpt lat="45.96059" lon="5.49353">
        <ele>748.2</ele>
        <time>2026-05-11T12:59:24Z</time>
      </trkpt>
      <trkpt lat="45.96058" lon="5.49356">
        <ele>748.6</ele>
        <time>2026-05-11T12:59:25Z</time>
      </trkpt>
      <trkpt lat="45.96056" lon="5.49358">
        <ele>749</ele>
        <time>2026-05-11T12:59:26Z</time>
      </trkpt>
      <trkpt lat="45.96055" lon="5.49361">
        <ele>749</ele>
        <time>2026-05-11T12:59:27Z</time>
      </trkpt>
      <trkpt lat="45.96054" lon="5.49363">
        <ele>749.2</ele>
        <time>2026-05-11T12:59:28Z</time>
      </trkpt>
      <trkpt lat="45.96053" lon="5.49366">
        <ele>749.4</ele>
        <time>2026-05-11T12:59:29Z</time>
      </trkpt>
      <trkpt lat="45.96052" lon="5.49369">
        <ele>749.4</ele>
        <time>2026-05-11T12:59:30Z</time>
      </trkpt>
      <trkpt lat="45.96051" lon="5.49371">
        <ele>749.8</ele>
        <time>2026-05-11T12:59:31Z</time>
      </trkpt>
      <trkpt lat="45.9605" lon="5.49374">
        <ele>749.8</ele>
        <time>2026-05-11T12:59:32Z</time>
      </trkpt>
      <trkpt lat="45.96049" lon="5.49376">
        <ele>750.4</ele>
        <time>2026-05-11T12:59:33Z</time>
      </trkpt>
      <trkpt lat="45.96047" lon="5.49379">
        <ele>750.6</ele>
        <time>2026-05-11T12:59:34Z</time>
      </trkpt>
      <trkpt lat="45.96046" lon="5.49382">
        <ele>750.8</ele>
        <time>2026-05-11T12:59:35Z</time>
      </trkpt>
      <trkpt lat="45.96045" lon="5.49385">
        <ele>750.8</ele>
        <time>2026-05-11T12:59:36Z</time>
      </trkpt>
      <trkpt lat="45.96044" lon="5.49388">
        <ele>751</ele>
        <time>2026-05-11T12:59:37Z</time>
      </trkpt>
      <trkpt lat="45.96044" lon="5.49391">
        <ele>751</ele>
        <time>2026-05-11T12:59:38Z</time>
      </trkpt>
      <trkpt lat="45.96043" lon="5.49394">
        <ele>751</ele>
        <time>2026-05-11T12:59:39Z</time>
      </trkpt>
      <trkpt lat="45.96043" lon="5.49394">
        <ele>751</ele>
        <time>2026-05-11T12:59:40Z</time>
      </trkpt>
      <trkpt lat="45.96042" lon="5.49397">
        <ele>751</ele>
        <time>2026-05-11T12:59:41Z</time>
      </trkpt>
      <trkpt lat="45.96042" lon="5.494">
        <ele>751.4</ele>
        <time>2026-05-11T12:59:42Z</time>
      </trkpt>
      <trkpt lat="45.96041" lon="5.49403">
        <ele>751.4</ele>
        <time>2026-05-11T12:59:43Z</time>
      </trkpt>
      <trkpt lat="45.96041" lon="5.49406">
        <ele>751.4</ele>
        <time>2026-05-11T12:59:44Z</time>
      </trkpt>
      <trkpt lat="45.96041" lon="5.49409">
        <ele>751.6</ele>
        <time>2026-05-11T12:59:45Z</time>
      </trkpt>
      <trkpt lat="45.9604" lon="5.49413">
        <ele>751.6</ele>
        <time>2026-05-11T12:59:46Z</time>
      </trkpt>
      <trkpt lat="45.9604" lon="5.49416">
        <ele>751.6</ele>
        <time>2026-05-11T12:59:47Z</time>
      </trkpt>
      <trkpt lat="45.96039" lon="5.4942">
        <ele>751.6</ele>
        <time>2026-05-11T12:59:48Z</time>
      </trkpt>
      <trkpt lat="45.96039" lon="5.49423">
        <ele>751.6</ele>
        <time>2026-05-11T12:59:49Z</time>
      </trkpt>
      <trkpt lat="45.96039" lon="5.49427">
        <ele>751.6</ele>
        <time>2026-05-11T12:59:50Z</time>
      </trkpt>
      <trkpt lat="45.96038" lon="5.49431">
        <ele>751.6</ele>
        <time>2026-05-11T12:59:51Z</time>
      </trkpt>
      <trkpt lat="45.96038" lon="5.49434">
        <ele>751.6</ele>
        <time>2026-05-11T12:59:52Z</time>
      </trkpt>
      <trkpt lat="45.96039" lon="5.49438">
        <ele>752</ele>
        <time>2026-05-11T12:59:53Z</time>
      </trkpt>
      <trkpt lat="45.96039" lon="5.49442">
        <ele>752</ele>
        <time>2026-05-11T12:59:54Z</time>
      </trkpt>
      <trkpt lat="45.96039" lon="5.49445">
        <ele>752</ele>
        <time>2026-05-11T12:59:55Z</time>
      </trkpt>
      <trkpt lat="45.9604" lon="5.49449">
        <ele>752.2</ele>
        <time>2026-05-11T12:59:56Z</time>
      </trkpt>
      <trkpt lat="45.9604" lon="5.49452">
        <ele>752.2</ele>
        <time>2026-05-11T12:59:57Z</time>
      </trkpt>
      <trkpt lat="45.96039" lon="5.49456">
        <ele>752.2</ele>
        <time>2026-05-11T12:59:58Z</time>
      </trkpt>
      <trkpt lat="45.96039" lon="5.49458">
        <ele>752.6</ele>
        <time>2026-05-11T12:59:59Z</time>
      </trkpt>
      <trkpt lat="45.96039" lon="5.49461">
        <ele>752.8</ele>
        <time>2026-05-11T13:00:00Z</time>
      </trkpt>
      <trkpt lat="45.9604" lon="5.49465">
        <ele>753</ele>
        <time>2026-05-11T13:00:01Z</time>
      </trkpt>
      <trkpt lat="45.9604" lon="5.49468">
        <ele>753</ele>
        <time>2026-05-11T13:00:02Z</time>
      </trkpt>
      <trkpt lat="45.9604" lon="5.49471">
        <ele>753.2</ele>
        <time>2026-05-11T13:00:03Z</time>
      </trkpt>
      <trkpt lat="45.9604" lon="5.49475">
        <ele>753.2</ele>
        <time>2026-05-11T13:00:04Z</time>
      </trkpt>
      <trkpt lat="45.9604" lon="5.49478">
        <ele>753.4</ele>
        <time>2026-05-11T13:00:05Z</time>
      </trkpt>
      <trkpt lat="45.9604" lon="5.49481">
        <ele>753.6</ele>
        <time>2026-05-11T13:00:06Z</time>
      </trkpt>
      <trkpt lat="45.9604" lon="5.49485">
        <ele>753.6</ele>
        <time>2026-05-11T13:00:07Z</time>
      </trkpt>
      <trkpt lat="45.9604" lon="5.49488">
        <ele>753.6</ele>
        <time>2026-05-11T13:00:08Z</time>
      </trkpt>
      <trkpt lat="45.9604" lon="5.49491">
        <ele>753.6</ele>
        <time>2026-05-11T13:00:09Z</time>
      </trkpt>
      <trkpt lat="45.96039" lon="5.49494">
        <ele>754.4</ele>
        <time>2026-05-11T13:00:10Z</time>
      </trkpt>
      <trkpt lat="45.96039" lon="5.49498">
        <ele>754.8</ele>
        <time>2026-05-11T13:00:11Z</time>
      </trkpt>
      <trkpt lat="45.96039" lon="5.49501">
        <ele>754.8</ele>
        <time>2026-05-11T13:00:12Z</time>
      </trkpt>
      <trkpt lat="45.96038" lon="5.49504">
        <ele>754.8</ele>
        <time>2026-05-11T13:00:13Z</time>
      </trkpt>
      <trkpt lat="45.96038" lon="5.49507">
        <ele>754.8</ele>
        <time>2026-05-11T13:00:14Z</time>
      </trkpt>
      <trkpt lat="45.96038" lon="5.4951">
        <ele>755</ele>
        <time>2026-05-11T13:00:15Z</time>
      </trkpt>
      <trkpt lat="45.96038" lon="5.49514">
        <ele>755</ele>
        <time>2026-05-11T13:00:16Z</time>
      </trkpt>
      <trkpt lat="45.96038" lon="5.49517">
        <ele>755</ele>
        <time>2026-05-11T13:00:17Z</time>
      </trkpt>
      <trkpt lat="45.96038" lon="5.4952">
        <ele>755.4</ele>
        <time>2026-05-11T13:00:18Z</time>
      </trkpt>
      <trkpt lat="45.96038" lon="5.49523">
        <ele>755.4</ele>
        <time>2026-05-11T13:00:19Z</time>
      </trkpt>
      <trkpt lat="45.96038" lon="5.49526">
        <ele>755.6</ele>
        <time>2026-05-11T13:00:20Z</time>
      </trkpt>
      <trkpt lat="45.96038" lon="5.49529">
        <ele>755.6</ele>
        <time>2026-05-11T13:00:21Z</time>
      </trkpt>
      <trkpt lat="45.96038" lon="5.49533">
        <ele>755.8</ele>
        <time>2026-05-11T13:00:22Z</time>
      </trkpt>
      <trkpt lat="45.96038" lon="5.49536">
        <ele>756.2</ele>
        <time>2026-05-11T13:00:23Z</time>
      </trkpt>
      <trkpt lat="45.96038" lon="5.4954">
        <ele>756.2</ele>
        <time>2026-05-11T13:00:24Z</time>
      </trkpt>
      <trkpt lat="45.96038" lon="5.49544">
        <ele>756.2</ele>
        <time>2026-05-11T13:00:25Z</time>
      </trkpt>
      <trkpt lat="45.96038" lon="5.49548">
        <ele>756.2</ele>
        <time>2026-05-11T13:00:26Z</time>
      </trkpt>
      <trkpt lat="45.96038" lon="5.49552">
        <ele>756.2</ele>
        <time>2026-05-11T13:00:27Z</time>
      </trkpt>
      <trkpt lat="45.96037" lon="5.49557">
        <ele>756.2</ele>
        <time>2026-05-11T13:00:28Z</time>
      </trkpt>
      <trkpt lat="45.96037" lon="5.4956">
        <ele>756.2</ele>
        <time>2026-05-11T13:00:29Z</time>
      </trkpt>
      <trkpt lat="45.96037" lon="5.49564">
        <ele>756.2</ele>
        <time>2026-05-11T13:00:30Z</time>
      </trkpt>
      <trkpt lat="45.96037" lon="5.49567">
        <ele>756.2</ele>
        <time>2026-05-11T13:00:31Z</time>
      </trkpt>
      <trkpt lat="45.96038" lon="5.49569">
        <ele>756.4</ele>
        <time>2026-05-11T13:00:32Z</time>
      </trkpt>
      <trkpt lat="45.96039" lon="5.49572">
        <ele>756.4</ele>
        <time>2026-05-11T13:00:33Z</time>
      </trkpt>
      <trkpt lat="45.96042" lon="5.49575">
        <ele>756.4</ele>
        <time>2026-05-11T13:00:34Z</time>
      </trkpt>
      <trkpt lat="45.96044" lon="5.49575">
        <ele>756.4</ele>
        <time>2026-05-11T13:00:35Z</time>
      </trkpt>
      <trkpt lat="45.96047" lon="5.49574">
        <ele>756.4</ele>
        <time>2026-05-11T13:00:36Z</time>
      </trkpt>
      <trkpt lat="45.9605" lon="5.49571">
        <ele>756.4</ele>
        <time>2026-05-11T13:00:37Z</time>
      </trkpt>
      <trkpt lat="45.96055" lon="5.49566">
        <ele>756.4</ele>
        <time>2026-05-11T13:00:38Z</time>
      </trkpt>
      <trkpt lat="45.96057" lon="5.49564">
        <ele>756.4</ele>
        <time>2026-05-11T13:00:39Z</time>
      </trkpt>
      <trkpt lat="45.96059" lon="5.49562">
        <ele>756.4</ele>
        <time>2026-05-11T13:00:40Z</time>
      </trkpt>
      <trkpt lat="45.96061" lon="5.4956">
        <ele>756.4</ele>
        <time>2026-05-11T13:00:41Z</time>
      </trkpt>
      <trkpt lat="45.96063" lon="5.49558">
        <ele>756.4</ele>
        <time>2026-05-11T13:00:42Z</time>
      </trkpt>
      <trkpt lat="45.96066" lon="5.49556">
        <ele>756.4</ele>
        <time>2026-05-11T13:00:43Z</time>
      </trkpt>
      <trkpt lat="45.96068" lon="5.49555">
        <ele>756.4</ele>
        <time>2026-05-11T13:00:44Z</time>
      </trkpt>
      <trkpt lat="45.96071" lon="5.49554">
        <ele>756.4</ele>
        <time>2026-05-11T13:00:45Z</time>
      </trkpt>
      <trkpt lat="45.96071" lon="5.49554">
        <ele>756.8</ele>
        <time>2026-05-11T13:00:46Z</time>
      </trkpt>
      <trkpt lat="45.96071" lon="5.49554">
        <ele>756.8</ele>
        <time>2026-05-11T13:00:47Z</time>
      </trkpt>
      <trkpt lat="45.9608" lon="5.49549">
        <ele>757</ele>
        <time>2026-05-11T13:00:49Z</time>
      </trkpt>
      <trkpt lat="45.96082" lon="5.49548">
        <ele>757</ele>
        <time>2026-05-11T13:00:50Z</time>
      </trkpt>
      <trkpt lat="45.96084" lon="5.49547">
        <ele>757</ele>
        <time>2026-05-11T13:00:51Z</time>
      </trkpt>
      <trkpt lat="45.96087" lon="5.49546">
        <ele>757</ele>
        <time>2026-05-11T13:00:52Z</time>
      </trkpt>
      <trkpt lat="45.96089" lon="5.49545">
        <ele>757.2</ele>
        <time>2026-05-11T13:00:53Z</time>
      </trkpt>
      <trkpt lat="45.96091" lon="5.49545">
        <ele>757.4</ele>
        <time>2026-05-11T13:00:54Z</time>
      </trkpt>
      <trkpt lat="45.96094" lon="5.49544">
        <ele>757.4</ele>
        <time>2026-05-11T13:00:55Z</time>
      </trkpt>
      <trkpt lat="45.96096" lon="5.49543">
        <ele>757.6</ele>
        <time>2026-05-11T13:00:56Z</time>
      </trkpt>
      <trkpt lat="45.96098" lon="5.49543">
        <ele>757.6</ele>
        <time>2026-05-11T13:00:57Z</time>
      </trkpt>
      <trkpt lat="45.961" lon="5.49542">
        <ele>757.8</ele>
        <time>2026-05-11T13:00:58Z</time>
      </trkpt>
      <trkpt lat="45.96103" lon="5.49541">
        <ele>757.8</ele>
        <time>2026-05-11T13:00:59Z</time>
      </trkpt>
      <trkpt lat="45.96105" lon="5.49541">
        <ele>757.8</ele>
        <time>2026-05-11T13:01:00Z</time>
      </trkpt>
      <trkpt lat="45.96107" lon="5.49541">
        <ele>758.2</ele>
        <time>2026-05-11T13:01:01Z</time>
      </trkpt>
      <trkpt lat="45.9611" lon="5.49541">
        <ele>758.2</ele>
        <time>2026-05-11T13:01:02Z</time>
      </trkpt>
      <trkpt lat="45.96113" lon="5.49542">
        <ele>758.2</ele>
        <time>2026-05-11T13:01:03Z</time>
      </trkpt>
      <trkpt lat="45.96115" lon="5.49541">
        <ele>758.4</ele>
        <time>2026-05-11T13:01:04Z</time>
      </trkpt>
      <trkpt lat="45.96118" lon="5.49541">
        <ele>758.4</ele>
        <time>2026-05-11T13:01:05Z</time>
      </trkpt>
      <trkpt lat="45.9612" lon="5.49541">
        <ele>758.4</ele>
        <time>2026-05-11T13:01:06Z</time>
      </trkpt>
      <trkpt lat="45.96123" lon="5.49541">
        <ele>758.4</ele>
        <time>2026-05-11T13:01:07Z</time>
      </trkpt>
      <trkpt lat="45.96126" lon="5.49541">
        <ele>758.6</ele>
        <time>2026-05-11T13:01:08Z</time>
      </trkpt>
      <trkpt lat="45.96129" lon="5.49541">
        <ele>758.6</ele>
        <time>2026-05-11T13:01:09Z</time>
      </trkpt>
      <trkpt lat="45.96131" lon="5.4954">
        <ele>758.6</ele>
        <time>2026-05-11T13:01:10Z</time>
      </trkpt>
      <trkpt lat="45.96134" lon="5.4954">
        <ele>758.8</ele>
        <time>2026-05-11T13:01:11Z</time>
      </trkpt>
      <trkpt lat="45.96137" lon="5.4954">
        <ele>758.8</ele>
        <time>2026-05-11T13:01:12Z</time>
      </trkpt>
      <trkpt lat="45.9614" lon="5.4954">
        <ele>758.8</ele>
        <time>2026-05-11T13:01:13Z</time>
      </trkpt>
      <trkpt lat="45.96142" lon="5.4954">
        <ele>758.8</ele>
        <time>2026-05-11T13:01:14Z</time>
      </trkpt>
      <trkpt lat="45.96145" lon="5.4954">
        <ele>758.8</ele>
        <time>2026-05-11T13:01:15Z</time>
      </trkpt>
      <trkpt lat="45.96148" lon="5.4954">
        <ele>759.2</ele>
        <time>2026-05-11T13:01:16Z</time>
      </trkpt>
      <trkpt lat="45.9615" lon="5.49539">
        <ele>759.2</ele>
        <time>2026-05-11T13:01:17Z</time>
      </trkpt>
      <trkpt lat="45.96153" lon="5.49539">
        <ele>759.2</ele>
        <time>2026-05-11T13:01:18Z</time>
      </trkpt>
      <trkpt lat="45.96155" lon="5.49538">
        <ele>759.4</ele>
        <time>2026-05-11T13:01:19Z</time>
      </trkpt>
      <trkpt lat="45.96157" lon="5.49537">
        <ele>759.4</ele>
        <time>2026-05-11T13:01:20Z</time>
      </trkpt>
      <trkpt lat="45.96159" lon="5.49536">
        <ele>759.4</ele>
        <time>2026-05-11T13:01:21Z</time>
      </trkpt>
      <trkpt lat="45.96159" lon="5.49536">
        <ele>759.8</ele>
        <time>2026-05-11T13:01:22Z</time>
      </trkpt>
      <trkpt lat="45.96162" lon="5.49535">
        <ele>759.8</ele>
        <time>2026-05-11T13:01:23Z</time>
      </trkpt>
      <trkpt lat="45.96164" lon="5.49534">
        <ele>759.8</ele>
        <time>2026-05-11T13:01:24Z</time>
      </trkpt>
      <trkpt lat="45.96166" lon="5.49534">
        <ele>760</ele>
        <time>2026-05-11T13:01:25Z</time>
      </trkpt>
      <trkpt lat="45.96168" lon="5.49533">
        <ele>760.2</ele>
        <time>2026-05-11T13:01:26Z</time>
      </trkpt>
      <trkpt lat="45.9617" lon="5.49532">
        <ele>760.6</ele>
        <time>2026-05-11T13:01:27Z</time>
      </trkpt>
      <trkpt lat="45.96171" lon="5.49532">
        <ele>760.6</ele>
        <time>2026-05-11T13:01:28Z</time>
      </trkpt>
      <trkpt lat="45.96172" lon="5.49531">
        <ele>760.6</ele>
        <time>2026-05-11T13:01:29Z</time>
      </trkpt>
      <trkpt lat="45.96174" lon="5.49531">
        <ele>760.6</ele>
        <time>2026-05-11T13:01:30Z</time>
      </trkpt>
      <trkpt lat="45.96176" lon="5.49531">
        <ele>760.8</ele>
        <time>2026-05-11T13:01:31Z</time>
      </trkpt>
      <trkpt lat="45.96178" lon="5.4953">
        <ele>760.4</ele>
        <time>2026-05-11T13:01:32Z</time>
      </trkpt>
      <trkpt lat="45.9618" lon="5.49529">
        <ele>760.6</ele>
        <time>2026-05-11T13:01:33Z</time>
      </trkpt>
      <trkpt lat="45.96182" lon="5.49528">
        <ele>761</ele>
        <time>2026-05-11T13:01:34Z</time>
      </trkpt>
      <trkpt lat="45.96184" lon="5.49527">
        <ele>761.4</ele>
        <time>2026-05-11T13:01:35Z</time>
      </trkpt>
      <trkpt lat="45.96185" lon="5.49526">
        <ele>761.6</ele>
        <time>2026-05-11T13:01:36Z</time>
      </trkpt>
      <trkpt lat="45.96187" lon="5.49526">
        <ele>761.8</ele>
        <time>2026-05-11T13:01:37Z</time>
      </trkpt>
      <trkpt lat="45.96189" lon="5.49526">
        <ele>762.2</ele>
        <time>2026-05-11T13:01:38Z</time>
      </trkpt>
      <trkpt lat="45.96191" lon="5.49526">
        <ele>762.4</ele>
        <time>2026-05-11T13:01:39Z</time>
      </trkpt>
      <trkpt lat="45.96193" lon="5.49526">
        <ele>762.8</ele>
        <time>2026-05-11T13:01:40Z</time>
      </trkpt>
      <trkpt lat="45.96195" lon="5.49525">
        <ele>763</ele>
        <time>2026-05-11T13:01:41Z</time>
      </trkpt>
      <trkpt lat="45.96196" lon="5.49525">
        <ele>763</ele>
        <time>2026-05-11T13:01:42Z</time>
      </trkpt>
      <trkpt lat="45.96198" lon="5.49525">
        <ele>763.4</ele>
        <time>2026-05-11T13:01:43Z</time>
      </trkpt>
      <trkpt lat="45.962" lon="5.49525">
        <ele>763.8</ele>
        <time>2026-05-11T13:01:44Z</time>
      </trkpt>
      <trkpt lat="45.96202" lon="5.49525">
        <ele>764</ele>
        <time>2026-05-11T13:01:45Z</time>
      </trkpt>
      <trkpt lat="45.96203" lon="5.49525">
        <ele>764.2</ele>
        <time>2026-05-11T13:01:46Z</time>
      </trkpt>
      <trkpt lat="45.96205" lon="5.49524">
        <ele>764.4</ele>
        <time>2026-05-11T13:01:47Z</time>
      </trkpt>
      <trkpt lat="45.96206" lon="5.49524">
        <ele>764.6</ele>
        <time>2026-05-11T13:01:48Z</time>
      </trkpt>
      <trkpt lat="45.96207" lon="5.49524">
        <ele>765</ele>
        <time>2026-05-11T13:01:49Z</time>
      </trkpt>
      <trkpt lat="45.96209" lon="5.49523">
        <ele>765.4</ele>
        <time>2026-05-11T13:01:50Z</time>
      </trkpt>
      <trkpt lat="45.9621" lon="5.49523">
        <ele>765.6</ele>
        <time>2026-05-11T13:01:51Z</time>
      </trkpt>
      <trkpt lat="45.96211" lon="5.49523">
        <ele>765.6</ele>
        <time>2026-05-11T13:01:52Z</time>
      </trkpt>
      <trkpt lat="45.96213" lon="5.49523">
        <ele>765.8</ele>
        <time>2026-05-11T13:01:53Z</time>
      </trkpt>
      <trkpt lat="45.96214" lon="5.49523">
        <ele>766</ele>
        <time>2026-05-11T13:01:54Z</time>
      </trkpt>
      <trkpt lat="45.96215" lon="5.49523">
        <ele>766.4</ele>
        <time>2026-05-11T13:01:55Z</time>
      </trkpt>
      <trkpt lat="45.96216" lon="5.49522">
        <ele>766.4</ele>
        <time>2026-05-11T13:01:56Z</time>
      </trkpt>
      <trkpt lat="45.96217" lon="5.49522">
        <ele>766.6</ele>
        <time>2026-05-11T13:01:57Z</time>
      </trkpt>
      <trkpt lat="45.96218" lon="5.49522">
        <ele>766.8</ele>
        <time>2026-05-11T13:01:58Z</time>
      </trkpt>
      <trkpt lat="45.96219" lon="5.49523">
        <ele>766.6</ele>
        <time>2026-05-11T13:01:59Z</time>
      </trkpt>
      <trkpt lat="45.96221" lon="5.49523">
        <ele>767</ele>
        <time>2026-05-11T13:02:00Z</time>
      </trkpt>
      <trkpt lat="45.96222" lon="5.49523">
        <ele>767.4</ele>
        <time>2026-05-11T13:02:01Z</time>
      </trkpt>
      <trkpt lat="45.96223" lon="5.49523">
        <ele>767.4</ele>
        <time>2026-05-11T13:02:02Z</time>
      </trkpt>
      <trkpt lat="45.96223" lon="5.49522">
        <ele>767.6</ele>
        <time>2026-05-11T13:02:03Z</time>
      </trkpt>
      <trkpt lat="45.96223" lon="5.4952">
        <ele>767.6</ele>
        <time>2026-05-11T13:02:04Z</time>
      </trkpt>
      <trkpt lat="45.96223" lon="5.4952">
        <ele>768</ele>
        <time>2026-05-11T13:02:05Z</time>
      </trkpt>
      <trkpt lat="45.96224" lon="5.49519">
        <ele>768.2</ele>
        <time>2026-05-11T13:02:06Z</time>
      </trkpt>
      <trkpt lat="45.96225" lon="5.4952">
        <ele>768.2</ele>
        <time>2026-05-11T13:02:07Z</time>
      </trkpt>
      <trkpt lat="45.96226" lon="5.4952">
        <ele>768.2</ele>
        <time>2026-05-11T13:02:08Z</time>
      </trkpt>
      <trkpt lat="45.96227" lon="5.4952">
        <ele>768.2</ele>
        <time>2026-05-11T13:02:09Z</time>
      </trkpt>
      <trkpt lat="45.96228" lon="5.49521">
        <ele>768.6</ele>
        <time>2026-05-11T13:02:10Z</time>
      </trkpt>
      <trkpt lat="45.96228" lon="5.4952">
        <ele>769</ele>
        <time>2026-05-11T13:02:11Z</time>
      </trkpt>
      <trkpt lat="45.96229" lon="5.4952">
        <ele>769</ele>
        <time>2026-05-11T13:02:12Z</time>
      </trkpt>
      <trkpt lat="45.9623" lon="5.4952">
        <ele>769.4</ele>
        <time>2026-05-11T13:02:13Z</time>
      </trkpt>
      <trkpt lat="45.96231" lon="5.4952">
        <ele>769.4</ele>
        <time>2026-05-11T13:02:14Z</time>
      </trkpt>
      <trkpt lat="45.96232" lon="5.49521">
        <ele>769.6</ele>
        <time>2026-05-11T13:02:15Z</time>
      </trkpt>
      <trkpt lat="45.96233" lon="5.49521">
        <ele>769.6</ele>
        <time>2026-05-11T13:02:16Z</time>
      </trkpt>
      <trkpt lat="45.96234" lon="5.49521">
        <ele>770</ele>
        <time>2026-05-11T13:02:17Z</time>
      </trkpt>
      <trkpt lat="45.96235" lon="5.49521">
        <ele>770</ele>
        <time>2026-05-11T13:02:18Z</time>
      </trkpt>
      <trkpt lat="45.96236" lon="5.49521">
        <ele>770.2</ele>
        <time>2026-05-11T13:02:19Z</time>
      </trkpt>
      <trkpt lat="45.96236" lon="5.49521">
        <ele>770.2</ele>
        <time>2026-05-11T13:02:20Z</time>
      </trkpt>
      <trkpt lat="45.96236" lon="5.49521">
        <ele>770.6</ele>
        <time>2026-05-11T13:02:21Z</time>
      </trkpt>
      <trkpt lat="45.96237" lon="5.49521">
        <ele>770.6</ele>
        <time>2026-05-11T13:02:22Z</time>
      </trkpt>
      <trkpt lat="45.96237" lon="5.49521">
        <ele>770.8</ele>
        <time>2026-05-11T13:02:23Z</time>
      </trkpt>
      <trkpt lat="45.96241" lon="5.49522">
        <ele>771.2</ele>
        <time>2026-05-11T13:02:28Z</time>
      </trkpt>
      <trkpt lat="45.96242" lon="5.49522">
        <ele>771.2</ele>
        <time>2026-05-11T13:02:29Z</time>
      </trkpt>
      <trkpt lat="45.96244" lon="5.49522">
        <ele>771.2</ele>
        <time>2026-05-11T13:02:30Z</time>
      </trkpt>
      <trkpt lat="45.96245" lon="5.49522">
        <ele>771.6</ele>
        <time>2026-05-11T13:02:31Z</time>
      </trkpt>
      <trkpt lat="45.96246" lon="5.49522">
        <ele>771.6</ele>
        <time>2026-05-11T13:02:32Z</time>
      </trkpt>
      <trkpt lat="45.96248" lon="5.49522">
        <ele>771.6</ele>
        <time>2026-05-11T13:02:33Z</time>
      </trkpt>
      <trkpt lat="45.9625" lon="5.49523">
        <ele>771.8</ele>
        <time>2026-05-11T13:02:34Z</time>
      </trkpt>
      <trkpt lat="45.96251" lon="5.49523">
        <ele>771.8</ele>
        <time>2026-05-11T13:02:35Z</time>
      </trkpt>
      <trkpt lat="45.96252" lon="5.49523">
        <ele>771.8</ele>
        <time>2026-05-11T13:02:36Z</time>
      </trkpt>
      <trkpt lat="45.96254" lon="5.49524">
        <ele>771.8</ele>
        <time>2026-05-11T13:02:37Z</time>
      </trkpt>
      <trkpt lat="45.96256" lon="5.49524">
        <ele>771.8</ele>
        <time>2026-05-11T13:02:38Z</time>
      </trkpt>
      <trkpt lat="45.96257" lon="5.49525">
        <ele>772.2</ele>
        <time>2026-05-11T13:02:39Z</time>
      </trkpt>
      <trkpt lat="45.96258" lon="5.49525">
        <ele>772.2</ele>
        <time>2026-05-11T13:02:40Z</time>
      </trkpt>
      <trkpt lat="45.9626" lon="5.49526">
        <ele>772.4</ele>
        <time>2026-05-11T13:02:41Z</time>
      </trkpt>
      <trkpt lat="45.96261" lon="5.49526">
        <ele>772.4</ele>
        <time>2026-05-11T13:02:42Z</time>
      </trkpt>
      <trkpt lat="45.96262" lon="5.49526">
        <ele>773</ele>
        <time>2026-05-11T13:02:43Z</time>
      </trkpt>
      <trkpt lat="45.96263" lon="5.49526">
        <ele>773</ele>
        <time>2026-05-11T13:02:44Z</time>
      </trkpt>
      <trkpt lat="45.96265" lon="5.49527">
        <ele>773.4</ele>
        <time>2026-05-11T13:02:45Z</time>
      </trkpt>
      <trkpt lat="45.96266" lon="5.49527">
        <ele>773.6</ele>
        <time>2026-05-11T13:02:46Z</time>
      </trkpt>
      <trkpt lat="45.96267" lon="5.49527">
        <ele>773.6</ele>
        <time>2026-05-11T13:02:47Z</time>
      </trkpt>
      <trkpt lat="45.96268" lon="5.49528">
        <ele>773.8</ele>
        <time>2026-05-11T13:02:48Z</time>
      </trkpt>
      <trkpt lat="45.9627" lon="5.49528">
        <ele>773.8</ele>
        <time>2026-05-11T13:02:49Z</time>
      </trkpt>
      <trkpt lat="45.96271" lon="5.49528">
        <ele>773.8</ele>
        <time>2026-05-11T13:02:50Z</time>
      </trkpt>
      <trkpt lat="45.96272" lon="5.49529">
        <ele>774.2</ele>
        <time>2026-05-11T13:02:51Z</time>
      </trkpt>
      <trkpt lat="45.96273" lon="5.4953">
        <ele>774.4</ele>
        <time>2026-05-11T13:02:52Z</time>
      </trkpt>
      <trkpt lat="45.96274" lon="5.4953">
        <ele>774.6</ele>
        <time>2026-05-11T13:02:53Z</time>
      </trkpt>
      <trkpt lat="45.96276" lon="5.4953">
        <ele>774.6</ele>
        <time>2026-05-11T13:02:54Z</time>
      </trkpt>
      <trkpt lat="45.96277" lon="5.49531">
        <ele>775</ele>
        <time>2026-05-11T13:02:55Z</time>
      </trkpt>
      <trkpt lat="45.96279" lon="5.49532">
        <ele>775</ele>
        <time>2026-05-11T13:02:56Z</time>
      </trkpt>
      <trkpt lat="45.9628" lon="5.49533">
        <ele>775.2</ele>
        <time>2026-05-11T13:02:57Z</time>
      </trkpt>
      <trkpt lat="45.96281" lon="5.49534">
        <ele>775.2</ele>
        <time>2026-05-11T13:02:58Z</time>
      </trkpt>
      <trkpt lat="45.96282" lon="5.49534">
        <ele>775.6</ele>
        <time>2026-05-11T13:02:59Z</time>
      </trkpt>
      <trkpt lat="45.96283" lon="5.49535">
        <ele>775.6</ele>
        <time>2026-05-11T13:03:00Z</time>
      </trkpt>
      <trkpt lat="45.96284" lon="5.49536">
        <ele>775.8</ele>
        <time>2026-05-11T13:03:01Z</time>
      </trkpt>
      <trkpt lat="45.96285" lon="5.49537">
        <ele>775.8</ele>
        <time>2026-05-11T13:03:02Z</time>
      </trkpt>
      <trkpt lat="45.96286" lon="5.49537">
        <ele>776.2</ele>
        <time>2026-05-11T13:03:03Z</time>
      </trkpt>
      <trkpt lat="45.96287" lon="5.49538">
        <ele>776.4</ele>
        <time>2026-05-11T13:03:04Z</time>
      </trkpt>
      <trkpt lat="45.96288" lon="5.49539">
        <ele>776.6</ele>
        <time>2026-05-11T13:03:05Z</time>
      </trkpt>
      <trkpt lat="45.96289" lon="5.4954">
        <ele>776.6</ele>
        <time>2026-05-11T13:03:06Z</time>
      </trkpt>
      <trkpt lat="45.9629" lon="5.49541">
        <ele>777</ele>
        <time>2026-05-11T13:03:07Z</time>
      </trkpt>
      <trkpt lat="45.96291" lon="5.49542">
        <ele>777</ele>
        <time>2026-05-11T13:03:08Z</time>
      </trkpt>
      <trkpt lat="45.96292" lon="5.49543">
        <ele>777</ele>
        <time>2026-05-11T13:03:09Z</time>
      </trkpt>
      <trkpt lat="45.96294" lon="5.49545">
        <ele>777.2</ele>
        <time>2026-05-11T13:03:10Z</time>
      </trkpt>
      <trkpt lat="45.96294" lon="5.49546">
        <ele>777.6</ele>
        <time>2026-05-11T13:03:11Z</time>
      </trkpt>
      <trkpt lat="45.96295" lon="5.49547">
        <ele>777.8</ele>
        <time>2026-05-11T13:03:12Z</time>
      </trkpt>
      <trkpt lat="45.96296" lon="5.49548">
        <ele>777.8</ele>
        <time>2026-05-11T13:03:13Z</time>
      </trkpt>
      <trkpt lat="45.96297" lon="5.49549">
        <ele>778.2</ele>
        <time>2026-05-11T13:03:14Z</time>
      </trkpt>
      <trkpt lat="45.96298" lon="5.49549">
        <ele>778.2</ele>
        <time>2026-05-11T13:03:15Z</time>
      </trkpt>
      <trkpt lat="45.96299" lon="5.4955">
        <ele>778.6</ele>
        <time>2026-05-11T13:03:16Z</time>
      </trkpt>
      <trkpt lat="45.963" lon="5.4955">
        <ele>779</ele>
        <time>2026-05-11T13:03:17Z</time>
      </trkpt>
      <trkpt lat="45.96302" lon="5.4955">
        <ele>779.2</ele>
        <time>2026-05-11T13:03:18Z</time>
      </trkpt>
      <trkpt lat="45.96303" lon="5.4955">
        <ele>779.2</ele>
        <time>2026-05-11T13:03:19Z</time>
      </trkpt>
      <trkpt lat="45.96305" lon="5.49549">
        <ele>779.6</ele>
        <time>2026-05-11T13:03:20Z</time>
      </trkpt>
      <trkpt lat="45.96307" lon="5.49549">
        <ele>779.8</ele>
        <time>2026-05-11T13:03:21Z</time>
      </trkpt>
      <trkpt lat="45.96308" lon="5.49549">
        <ele>780</ele>
        <time>2026-05-11T13:03:22Z</time>
      </trkpt>
      <trkpt lat="45.96309" lon="5.49548">
        <ele>780.2</ele>
        <time>2026-05-11T13:03:23Z</time>
      </trkpt>
      <trkpt lat="45.96311" lon="5.49548">
        <ele>780.4</ele>
        <time>2026-05-11T13:03:24Z</time>
      </trkpt>
      <trkpt lat="45.96313" lon="5.49547">
        <ele>780.4</ele>
        <time>2026-05-11T13:03:25Z</time>
      </trkpt>
      <trkpt lat="45.96314" lon="5.49546">
        <ele>780.8</ele>
        <time>2026-05-11T13:03:26Z</time>
      </trkpt>
      <trkpt lat="45.96315" lon="5.49545">
        <ele>780.8</ele>
        <time>2026-05-11T13:03:27Z</time>
      </trkpt>
      <trkpt lat="45.96317" lon="5.49545">
        <ele>781.2</ele>
        <time>2026-05-11T13:03:28Z</time>
      </trkpt>
      <trkpt lat="45.96318" lon="5.49544">
        <ele>781.2</ele>
        <time>2026-05-11T13:03:29Z</time>
      </trkpt>
      <trkpt lat="45.9632" lon="5.49543">
        <ele>781.4</ele>
        <time>2026-05-11T13:03:30Z</time>
      </trkpt>
      <trkpt lat="45.96321" lon="5.49543">
        <ele>781.4</ele>
        <time>2026-05-11T13:03:31Z</time>
      </trkpt>
      <trkpt lat="45.96323" lon="5.49542">
        <ele>781.8</ele>
        <time>2026-05-11T13:03:32Z</time>
      </trkpt>
      <trkpt lat="45.96324" lon="5.49542">
        <ele>782</ele>
        <time>2026-05-11T13:03:33Z</time>
      </trkpt>
      <trkpt lat="45.96325" lon="5.49541">
        <ele>782</ele>
        <time>2026-05-11T13:03:34Z</time>
      </trkpt>
      <trkpt lat="45.96326" lon="5.49539">
        <ele>782.2</ele>
        <time>2026-05-11T13:03:35Z</time>
      </trkpt>
      <trkpt lat="45.96327" lon="5.49538">
        <ele>782.2</ele>
        <time>2026-05-11T13:03:36Z</time>
      </trkpt>
      <trkpt lat="45.96328" lon="5.49537">
        <ele>782.6</ele>
        <time>2026-05-11T13:03:37Z</time>
      </trkpt>
      <trkpt lat="45.9633" lon="5.49536">
        <ele>783</ele>
        <time>2026-05-11T13:03:38Z</time>
      </trkpt>
      <trkpt lat="45.96331" lon="5.49536">
        <ele>783</ele>
        <time>2026-05-11T13:03:39Z</time>
      </trkpt>
      <trkpt lat="45.96332" lon="5.49536">
        <ele>783.4</ele>
        <time>2026-05-11T13:03:40Z</time>
      </trkpt>
      <trkpt lat="45.96333" lon="5.49535">
        <ele>783.6</ele>
        <time>2026-05-11T13:03:41Z</time>
      </trkpt>
      <trkpt lat="45.96334" lon="5.49533">
        <ele>783.6</ele>
        <time>2026-05-11T13:03:42Z</time>
      </trkpt>
      <trkpt lat="45.96336" lon="5.49532">
        <ele>784</ele>
        <time>2026-05-11T13:03:43Z</time>
      </trkpt>
      <trkpt lat="45.96337" lon="5.49532">
        <ele>784</ele>
        <time>2026-05-11T13:03:44Z</time>
      </trkpt>
      <trkpt lat="45.96338" lon="5.49531">
        <ele>784</ele>
        <time>2026-05-11T13:03:45Z</time>
      </trkpt>
      <trkpt lat="45.96339" lon="5.49531">
        <ele>784</ele>
        <time>2026-05-11T13:03:46Z</time>
      </trkpt>
      <trkpt lat="45.96341" lon="5.4953">
        <ele>784</ele>
        <time>2026-05-11T13:03:47Z</time>
      </trkpt>
      <trkpt lat="45.96342" lon="5.4953">
        <ele>784.2</ele>
        <time>2026-05-11T13:03:48Z</time>
      </trkpt>
      <trkpt lat="45.96343" lon="5.4953">
        <ele>784.6</ele>
        <time>2026-05-11T13:03:49Z</time>
      </trkpt>
      <trkpt lat="45.96344" lon="5.49529">
        <ele>785</ele>
        <time>2026-05-11T13:03:50Z</time>
      </trkpt>
      <trkpt lat="45.96346" lon="5.49528">
        <ele>785</ele>
        <time>2026-05-11T13:03:51Z</time>
      </trkpt>
      <trkpt lat="45.96347" lon="5.49527">
        <ele>785</ele>
        <time>2026-05-11T13:03:52Z</time>
      </trkpt>
      <trkpt lat="45.96349" lon="5.49526">
        <ele>785</ele>
        <time>2026-05-11T13:03:53Z</time>
      </trkpt>
      <trkpt lat="45.9635" lon="5.49525">
        <ele>785.4</ele>
        <time>2026-05-11T13:03:54Z</time>
      </trkpt>
      <trkpt lat="45.96351" lon="5.49525">
        <ele>785.4</ele>
        <time>2026-05-11T13:03:55Z</time>
      </trkpt>
      <trkpt lat="45.96353" lon="5.49525">
        <ele>785.8</ele>
        <time>2026-05-11T13:03:56Z</time>
      </trkpt>
      <trkpt lat="45.96354" lon="5.49525">
        <ele>785.8</ele>
        <time>2026-05-11T13:03:57Z</time>
      </trkpt>
      <trkpt lat="45.96356" lon="5.49525">
        <ele>786</ele>
        <time>2026-05-11T13:03:58Z</time>
      </trkpt>
      <trkpt lat="45.96357" lon="5.49524">
        <ele>786</ele>
        <time>2026-05-11T13:03:59Z</time>
      </trkpt>
      <trkpt lat="45.96359" lon="5.49523">
        <ele>786</ele>
        <time>2026-05-11T13:04:00Z</time>
      </trkpt>
      <trkpt lat="45.9636" lon="5.49523">
        <ele>786</ele>
        <time>2026-05-11T13:04:01Z</time>
      </trkpt>
      <trkpt lat="45.96361" lon="5.49522">
        <ele>786</ele>
        <time>2026-05-11T13:04:02Z</time>
      </trkpt>
      <trkpt lat="45.96363" lon="5.49521">
        <ele>786.2</ele>
        <time>2026-05-11T13:04:03Z</time>
      </trkpt>
      <trkpt lat="45.96364" lon="5.4952">
        <ele>786.6</ele>
        <time>2026-05-11T13:04:04Z</time>
      </trkpt>
      <trkpt lat="45.96366" lon="5.49519">
        <ele>786.8</ele>
        <time>2026-05-11T13:04:05Z</time>
      </trkpt>
      <trkpt lat="45.96367" lon="5.49518">
        <ele>787</ele>
        <time>2026-05-11T13:04:06Z</time>
      </trkpt>
      <trkpt lat="45.96368" lon="5.49517">
        <ele>787.2</ele>
        <time>2026-05-11T13:04:07Z</time>
      </trkpt>
      <trkpt lat="45.9637" lon="5.49516">
        <ele>787.2</ele>
        <time>2026-05-11T13:04:08Z</time>
      </trkpt>
      <trkpt lat="45.96372" lon="5.49515">
        <ele>787.2</ele>
        <time>2026-05-11T13:04:09Z</time>
      </trkpt>
      <trkpt lat="45.96373" lon="5.49515">
        <ele>787.2</ele>
        <time>2026-05-11T13:04:10Z</time>
      </trkpt>
      <trkpt lat="45.96375" lon="5.49514">
        <ele>787.4</ele>
        <time>2026-05-11T13:04:11Z</time>
      </trkpt>
      <trkpt lat="45.96376" lon="5.49513">
        <ele>787.8</ele>
        <time>2026-05-11T13:04:12Z</time>
      </trkpt>
      <trkpt lat="45.96378" lon="5.49512">
        <ele>787.8</ele>
        <time>2026-05-11T13:04:13Z</time>
      </trkpt>
      <trkpt lat="45.96379" lon="5.49511">
        <ele>787.8</ele>
        <time>2026-05-11T13:04:14Z</time>
      </trkpt>
      <trkpt lat="45.96381" lon="5.4951">
        <ele>788</ele>
        <time>2026-05-11T13:04:15Z</time>
      </trkpt>
      <trkpt lat="45.96382" lon="5.49509">
        <ele>788</ele>
        <time>2026-05-11T13:04:16Z</time>
      </trkpt>
      <trkpt lat="45.96384" lon="5.49508">
        <ele>788</ele>
        <time>2026-05-11T13:04:17Z</time>
      </trkpt>
      <trkpt lat="45.96385" lon="5.49507">
        <ele>788.2</ele>
        <time>2026-05-11T13:04:18Z</time>
      </trkpt>
      <trkpt lat="45.96386" lon="5.49506">
        <ele>788.6</ele>
        <time>2026-05-11T13:04:19Z</time>
      </trkpt>
      <trkpt lat="45.96388" lon="5.49505">
        <ele>788.8</ele>
        <time>2026-05-11T13:04:20Z</time>
      </trkpt>
      <trkpt lat="45.96389" lon="5.49505">
        <ele>788.8</ele>
        <time>2026-05-11T13:04:21Z</time>
      </trkpt>
      <trkpt lat="45.9639" lon="5.49504">
        <ele>788.8</ele>
        <time>2026-05-11T13:04:22Z</time>
      </trkpt>
      <trkpt lat="45.96392" lon="5.49503">
        <ele>789.2</ele>
        <time>2026-05-11T13:04:23Z</time>
      </trkpt>
      <trkpt lat="45.96393" lon="5.49502">
        <ele>789.2</ele>
        <time>2026-05-11T13:04:24Z</time>
      </trkpt>
      <trkpt lat="45.96394" lon="5.49501">
        <ele>789.2</ele>
        <time>2026-05-11T13:04:25Z</time>
      </trkpt>
      <trkpt lat="45.96395" lon="5.49499">
        <ele>789.2</ele>
        <time>2026-05-11T13:04:26Z</time>
      </trkpt>
      <trkpt lat="45.96396" lon="5.49498">
        <ele>789.2</ele>
        <time>2026-05-11T13:04:27Z</time>
      </trkpt>
      <trkpt lat="45.96398" lon="5.49497">
        <ele>789.6</ele>
        <time>2026-05-11T13:04:28Z</time>
      </trkpt>
      <trkpt lat="45.96399" lon="5.49497">
        <ele>789.6</ele>
        <time>2026-05-11T13:04:29Z</time>
      </trkpt>
      <trkpt lat="45.964" lon="5.49496">
        <ele>790</ele>
        <time>2026-05-11T13:04:30Z</time>
      </trkpt>
      <trkpt lat="45.96401" lon="5.49495">
        <ele>790.4</ele>
        <time>2026-05-11T13:04:31Z</time>
      </trkpt>
      <trkpt lat="45.96402" lon="5.49493">
        <ele>790.4</ele>
        <time>2026-05-11T13:04:32Z</time>
      </trkpt>
      <trkpt lat="45.96403" lon="5.49492">
        <ele>790.4</ele>
        <time>2026-05-11T13:04:33Z</time>
      </trkpt>
      <trkpt lat="45.96404" lon="5.49491">
        <ele>790.4</ele>
        <time>2026-05-11T13:04:34Z</time>
      </trkpt>
      <trkpt lat="45.96405" lon="5.49489">
        <ele>790.6</ele>
        <time>2026-05-11T13:04:35Z</time>
      </trkpt>
      <trkpt lat="45.96406" lon="5.49488">
        <ele>791.2</ele>
        <time>2026-05-11T13:04:36Z</time>
      </trkpt>
      <trkpt lat="45.96406" lon="5.49488">
        <ele>791.2</ele>
        <time>2026-05-11T13:04:37Z</time>
      </trkpt>
      <trkpt lat="45.96408" lon="5.49487">
        <ele>791.2</ele>
        <time>2026-05-11T13:04:38Z</time>
      </trkpt>
      <trkpt lat="45.96409" lon="5.49485">
        <ele>791.2</ele>
        <time>2026-05-11T13:04:39Z</time>
      </trkpt>
      <trkpt lat="45.9641" lon="5.49483">
        <ele>791.2</ele>
        <time>2026-05-11T13:04:40Z</time>
      </trkpt>
      <trkpt lat="45.96411" lon="5.49482">
        <ele>791.4</ele>
        <time>2026-05-11T13:04:41Z</time>
      </trkpt>
      <trkpt lat="45.96412" lon="5.4948">
        <ele>791.4</ele>
        <time>2026-05-11T13:04:42Z</time>
      </trkpt>
      <trkpt lat="45.96414" lon="5.49479">
        <ele>792</ele>
        <time>2026-05-11T13:04:43Z</time>
      </trkpt>
      <trkpt lat="45.96415" lon="5.49478">
        <ele>792</ele>
        <time>2026-05-11T13:04:44Z</time>
      </trkpt>
      <trkpt lat="45.96416" lon="5.49476">
        <ele>792.4</ele>
        <time>2026-05-11T13:04:45Z</time>
      </trkpt>
      <trkpt lat="45.96417" lon="5.49474">
        <ele>792.6</ele>
        <time>2026-05-11T13:04:46Z</time>
      </trkpt>
      <trkpt lat="45.96418" lon="5.49473">
        <ele>792.6</ele>
        <time>2026-05-11T13:04:47Z</time>
      </trkpt>
      <trkpt lat="45.96419" lon="5.49472">
        <ele>792.8</ele>
        <time>2026-05-11T13:04:48Z</time>
      </trkpt>
      <trkpt lat="45.9642" lon="5.4947">
        <ele>792.8</ele>
        <time>2026-05-11T13:04:49Z</time>
      </trkpt>
      <trkpt lat="45.96421" lon="5.49469">
        <ele>792.8</ele>
        <time>2026-05-11T13:04:50Z</time>
      </trkpt>
      <trkpt lat="45.96422" lon="5.49468">
        <ele>793.2</ele>
        <time>2026-05-11T13:04:51Z</time>
      </trkpt>
      <trkpt lat="45.96424" lon="5.49467">
        <ele>793.4</ele>
        <time>2026-05-11T13:04:52Z</time>
      </trkpt>
      <trkpt lat="45.96425" lon="5.49465">
        <ele>793.4</ele>
        <time>2026-05-11T13:04:53Z</time>
      </trkpt>
      <trkpt lat="45.96426" lon="5.49464">
        <ele>793.6</ele>
        <time>2026-05-11T13:04:54Z</time>
      </trkpt>
      <trkpt lat="45.96427" lon="5.49463">
        <ele>793.6</ele>
        <time>2026-05-11T13:04:55Z</time>
      </trkpt>
      <trkpt lat="45.96428" lon="5.49461">
        <ele>793.6</ele>
        <time>2026-05-11T13:04:56Z</time>
      </trkpt>
      <trkpt lat="45.96429" lon="5.4946">
        <ele>793.6</ele>
        <time>2026-05-11T13:04:57Z</time>
      </trkpt>
      <trkpt lat="45.9643" lon="5.49458">
        <ele>794</ele>
        <time>2026-05-11T13:04:58Z</time>
      </trkpt>
      <trkpt lat="45.96431" lon="5.49456">
        <ele>794</ele>
        <time>2026-05-11T13:04:59Z</time>
      </trkpt>
      <trkpt lat="45.96433" lon="5.49455">
        <ele>794</ele>
        <time>2026-05-11T13:05:00Z</time>
      </trkpt>
      <trkpt lat="45.96434" lon="5.49454">
        <ele>794</ele>
        <time>2026-05-11T13:05:01Z</time>
      </trkpt>
      <trkpt lat="45.96435" lon="5.49453">
        <ele>794.4</ele>
        <time>2026-05-11T13:05:02Z</time>
      </trkpt>
      <trkpt lat="45.96436" lon="5.49452">
        <ele>794.6</ele>
        <time>2026-05-11T13:05:03Z</time>
      </trkpt>
      <trkpt lat="45.96438" lon="5.49451">
        <ele>795</ele>
        <time>2026-05-11T13:05:04Z</time>
      </trkpt>
      <trkpt lat="45.96439" lon="5.4945">
        <ele>795.2</ele>
        <time>2026-05-11T13:05:05Z</time>
      </trkpt>
      <trkpt lat="45.9644" lon="5.49449">
        <ele>795.2</ele>
        <time>2026-05-11T13:05:06Z</time>
      </trkpt>
      <trkpt lat="45.96441" lon="5.49448">
        <ele>795.8</ele>
        <time>2026-05-11T13:05:07Z</time>
      </trkpt>
      <trkpt lat="45.96441" lon="5.49447">
        <ele>796</ele>
        <time>2026-05-11T13:05:08Z</time>
      </trkpt>
      <trkpt lat="45.96442" lon="5.49445">
        <ele>796</ele>
        <time>2026-05-11T13:05:09Z</time>
      </trkpt>
      <trkpt lat="45.96443" lon="5.49444">
        <ele>796</ele>
        <time>2026-05-11T13:05:10Z</time>
      </trkpt>
      <trkpt lat="45.96444" lon="5.49443">
        <ele>796.4</ele>
        <time>2026-05-11T13:05:11Z</time>
      </trkpt>
      <trkpt lat="45.96446" lon="5.49442">
        <ele>796.4</ele>
        <time>2026-05-11T13:05:12Z</time>
      </trkpt>
      <trkpt lat="45.96447" lon="5.4944">
        <ele>796.6</ele>
        <time>2026-05-11T13:05:13Z</time>
      </trkpt>
      <trkpt lat="45.96448" lon="5.49439">
        <ele>796.6</ele>
        <time>2026-05-11T13:05:14Z</time>
      </trkpt>
      <trkpt lat="45.96449" lon="5.49438">
        <ele>797</ele>
        <time>2026-05-11T13:05:15Z</time>
      </trkpt>
      <trkpt lat="45.9645" lon="5.49437">
        <ele>797.2</ele>
        <time>2026-05-11T13:05:16Z</time>
      </trkpt>
      <trkpt lat="45.96452" lon="5.49436">
        <ele>797.2</ele>
        <time>2026-05-11T13:05:17Z</time>
      </trkpt>
      <trkpt lat="45.96454" lon="5.49435">
        <ele>797.4</ele>
        <time>2026-05-11T13:05:18Z</time>
      </trkpt>
      <trkpt lat="45.96455" lon="5.49434">
        <ele>797.4</ele>
        <time>2026-05-11T13:05:19Z</time>
      </trkpt>
      <trkpt lat="45.96457" lon="5.49433">
        <ele>797.4</ele>
        <time>2026-05-11T13:05:20Z</time>
      </trkpt>
      <trkpt lat="45.96458" lon="5.49432">
        <ele>797.4</ele>
        <time>2026-05-11T13:05:21Z</time>
      </trkpt>
      <trkpt lat="45.96459" lon="5.49431">
        <ele>797.4</ele>
        <time>2026-05-11T13:05:22Z</time>
      </trkpt>
      <trkpt lat="45.96461" lon="5.49431">
        <ele>797.4</ele>
        <time>2026-05-11T13:05:23Z</time>
      </trkpt>
      <trkpt lat="45.96463" lon="5.4943">
        <ele>797.4</ele>
        <time>2026-05-11T13:05:24Z</time>
      </trkpt>
      <trkpt lat="45.96464" lon="5.49428">
        <ele>797.8</ele>
        <time>2026-05-11T13:05:25Z</time>
      </trkpt>
      <trkpt lat="45.96464" lon="5.49427">
        <ele>797.8</ele>
        <time>2026-05-11T13:05:26Z</time>
      </trkpt>
      <trkpt lat="45.96464" lon="5.49427">
        <ele>797.8</ele>
        <time>2026-05-11T13:05:27Z</time>
      </trkpt>
      <trkpt lat="45.96464" lon="5.49427">
        <ele>797.8</ele>
        <time>2026-05-11T13:05:28Z</time>
      </trkpt>
      <trkpt lat="45.96467" lon="5.49426">
        <ele>797.8</ele>
        <time>2026-05-11T13:07:42Z</time>
      </trkpt>
      <trkpt lat="45.96469" lon="5.49425">
        <ele>797.8</ele>
        <time>2026-05-11T13:07:43Z</time>
      </trkpt>
      <trkpt lat="45.96471" lon="5.49423">
        <ele>797.8</ele>
        <time>2026-05-11T13:07:44Z</time>
      </trkpt>
      <trkpt lat="45.96472" lon="5.49422">
        <ele>797.8</ele>
        <time>2026-05-11T13:07:45Z</time>
      </trkpt>
      <trkpt lat="45.96474" lon="5.4942">
        <ele>797.8</ele>
        <time>2026-05-11T13:07:46Z</time>
      </trkpt>
      <trkpt lat="45.96476" lon="5.49419">
        <ele>797.8</ele>
        <time>2026-05-11T13:07:47Z</time>
      </trkpt>
      <trkpt lat="45.96478" lon="5.49417">
        <ele>797.8</ele>
        <time>2026-05-11T13:07:48Z</time>
      </trkpt>
      <trkpt lat="45.9648" lon="5.49415">
        <ele>797.8</ele>
        <time>2026-05-11T13:07:49Z</time>
      </trkpt>
      <trkpt lat="45.96481" lon="5.49413">
        <ele>797.8</ele>
        <time>2026-05-11T13:07:50Z</time>
      </trkpt>
      <trkpt lat="45.96483" lon="5.49411">
        <ele>797.8</ele>
        <time>2026-05-11T13:07:51Z</time>
      </trkpt>
      <trkpt lat="45.96485" lon="5.4941">
        <ele>797.8</ele>
        <time>2026-05-11T13:07:52Z</time>
      </trkpt>
      <trkpt lat="45.96487" lon="5.49409">
        <ele>798</ele>
        <time>2026-05-11T13:07:53Z</time>
      </trkpt>
      <trkpt lat="45.9649" lon="5.49407">
        <ele>798</ele>
        <time>2026-05-11T13:07:54Z</time>
      </trkpt>
      <trkpt lat="45.96492" lon="5.49406">
        <ele>798</ele>
        <time>2026-05-11T13:07:55Z</time>
      </trkpt>
      <trkpt lat="45.96495" lon="5.49405">
        <ele>798</ele>
        <time>2026-05-11T13:07:56Z</time>
      </trkpt>
      <trkpt lat="45.96497" lon="5.49404">
        <ele>798</ele>
        <time>2026-05-11T13:07:57Z</time>
      </trkpt>
      <trkpt lat="45.96499" lon="5.49402">
        <ele>798</ele>
        <time>2026-05-11T13:07:58Z</time>
      </trkpt>
      <trkpt lat="45.96502" lon="5.49401">
        <ele>798.2</ele>
        <time>2026-05-11T13:07:59Z</time>
      </trkpt>
      <trkpt lat="45.96504" lon="5.49399">
        <ele>797.8</ele>
        <time>2026-05-11T13:08:00Z</time>
      </trkpt>
      <trkpt lat="45.96506" lon="5.49396">
        <ele>798</ele>
        <time>2026-05-11T13:08:01Z</time>
      </trkpt>
      <trkpt lat="45.96508" lon="5.49394">
        <ele>798.6</ele>
        <time>2026-05-11T13:08:02Z</time>
      </trkpt>
      <trkpt lat="45.9651" lon="5.49393">
        <ele>798.6</ele>
        <time>2026-05-11T13:08:03Z</time>
      </trkpt>
      <trkpt lat="45.96513" lon="5.49392">
        <ele>798.6</ele>
        <time>2026-05-11T13:08:04Z</time>
      </trkpt>
      <trkpt lat="45.96514" lon="5.49391">
        <ele>798.8</ele>
        <time>2026-05-11T13:08:05Z</time>
      </trkpt>
      <trkpt lat="45.96516" lon="5.4939">
        <ele>799</ele>
        <time>2026-05-11T13:08:06Z</time>
      </trkpt>
      <trkpt lat="45.96518" lon="5.49389">
        <ele>799</ele>
        <time>2026-05-11T13:08:07Z</time>
      </trkpt>
      <trkpt lat="45.96519" lon="5.49388">
        <ele>799.2</ele>
        <time>2026-05-11T13:08:08Z</time>
      </trkpt>
      <trkpt lat="45.96521" lon="5.49387">
        <ele>799.2</ele>
        <time>2026-05-11T13:08:09Z</time>
      </trkpt>
      <trkpt lat="45.96522" lon="5.49386">
        <ele>799.2</ele>
        <time>2026-05-11T13:08:10Z</time>
      </trkpt>
      <trkpt lat="45.96524" lon="5.49384">
        <ele>799.6</ele>
        <time>2026-05-11T13:08:11Z</time>
      </trkpt>
      <trkpt lat="45.96526" lon="5.49383">
        <ele>799.6</ele>
        <time>2026-05-11T13:08:12Z</time>
      </trkpt>
      <trkpt lat="45.96527" lon="5.49382">
        <ele>799.8</ele>
        <time>2026-05-11T13:08:13Z</time>
      </trkpt>
      <trkpt lat="45.96529" lon="5.49381">
        <ele>799.8</ele>
        <time>2026-05-11T13:08:14Z</time>
      </trkpt>
      <trkpt lat="45.96531" lon="5.4938">
        <ele>799.8</ele>
        <time>2026-05-11T13:08:15Z</time>
      </trkpt>
      <trkpt lat="45.96533" lon="5.49379">
        <ele>800.4</ele>
        <time>2026-05-11T13:08:16Z</time>
      </trkpt>
      <trkpt lat="45.96535" lon="5.49378">
        <ele>801</ele>
        <time>2026-05-11T13:08:17Z</time>
      </trkpt>
      <trkpt lat="45.96537" lon="5.49377">
        <ele>801</ele>
        <time>2026-05-11T13:08:18Z</time>
      </trkpt>
      <trkpt lat="45.96539" lon="5.49376">
        <ele>801</ele>
        <time>2026-05-11T13:08:19Z</time>
      </trkpt>
      <trkpt lat="45.96541" lon="5.49376">
        <ele>801</ele>
        <time>2026-05-11T13:08:20Z</time>
      </trkpt>
      <trkpt lat="45.96543" lon="5.49378">
        <ele>801.4</ele>
        <time>2026-05-11T13:08:21Z</time>
      </trkpt>
      <trkpt lat="45.96544" lon="5.49379">
        <ele>801.4</ele>
        <time>2026-05-11T13:08:22Z</time>
      </trkpt>
      <trkpt lat="45.96545" lon="5.49381">
        <ele>801.6</ele>
        <time>2026-05-11T13:08:23Z</time>
      </trkpt>
      <trkpt lat="45.96545" lon="5.49383">
        <ele>801.6</ele>
        <time>2026-05-11T13:08:24Z</time>
      </trkpt>
      <trkpt lat="45.96544" lon="5.49386">
        <ele>802</ele>
        <time>2026-05-11T13:08:25Z</time>
      </trkpt>
      <trkpt lat="45.96542" lon="5.49389">
        <ele>802</ele>
        <time>2026-05-11T13:08:26Z</time>
      </trkpt>
      <trkpt lat="45.96541" lon="5.49392">
        <ele>802</ele>
        <time>2026-05-11T13:08:27Z</time>
      </trkpt>
      <trkpt lat="45.9654" lon="5.49396">
        <ele>802</ele>
        <time>2026-05-11T13:08:28Z</time>
      </trkpt>
      <trkpt lat="45.96539" lon="5.494">
        <ele>802</ele>
        <time>2026-05-11T13:08:29Z</time>
      </trkpt>
      <trkpt lat="45.96537" lon="5.49404">
        <ele>802</ele>
        <time>2026-05-11T13:08:30Z</time>
      </trkpt>
      <trkpt lat="45.96535" lon="5.49408">
        <ele>802</ele>
        <time>2026-05-11T13:08:31Z</time>
      </trkpt>
      <trkpt lat="45.96534" lon="5.49413">
        <ele>801.6</ele>
        <time>2026-05-11T13:08:32Z</time>
      </trkpt>
      <trkpt lat="45.96532" lon="5.49418">
        <ele>801</ele>
        <time>2026-05-11T13:08:33Z</time>
      </trkpt>
      <trkpt lat="45.96531" lon="5.49423">
        <ele>801</ele>
        <time>2026-05-11T13:08:34Z</time>
      </trkpt>
      <trkpt lat="45.9653" lon="5.49428">
        <ele>800.8</ele>
        <time>2026-05-11T13:08:35Z</time>
      </trkpt>
      <trkpt lat="45.9653" lon="5.49428">
        <ele>800.8</ele>
        <time>2026-05-11T13:08:36Z</time>
      </trkpt>
      <trkpt lat="45.96529" lon="5.49434">
        <ele>800.8</ele>
        <time>2026-05-11T13:08:37Z</time>
      </trkpt>
      <trkpt lat="45.96527" lon="5.49441">
        <ele>800.6</ele>
        <time>2026-05-11T13:08:38Z</time>
      </trkpt>
      <trkpt lat="45.96526" lon="5.49447">
        <ele>800.4</ele>
        <time>2026-05-11T13:08:39Z</time>
      </trkpt>
      <trkpt lat="45.96525" lon="5.49451">
        <ele>799.8</ele>
        <time>2026-05-11T13:08:40Z</time>
      </trkpt>
      <trkpt lat="45.96525" lon="5.49457">
        <ele>799.4</ele>
        <time>2026-05-11T13:08:41Z</time>
      </trkpt>
      <trkpt lat="45.96524" lon="5.49462">
        <ele>799</ele>
        <time>2026-05-11T13:08:42Z</time>
      </trkpt>
      <trkpt lat="45.96523" lon="5.49467">
        <ele>798.8</ele>
        <time>2026-05-11T13:08:43Z</time>
      </trkpt>
      <trkpt lat="45.96522" lon="5.49472">
        <ele>798.8</ele>
        <time>2026-05-11T13:08:44Z</time>
      </trkpt>
      <trkpt lat="45.96521" lon="5.49477">
        <ele>798.2</ele>
        <time>2026-05-11T13:08:45Z</time>
      </trkpt>
      <trkpt lat="45.9652" lon="5.49482">
        <ele>797.8</ele>
        <time>2026-05-11T13:08:46Z</time>
      </trkpt>
      <trkpt lat="45.96519" lon="5.49488">
        <ele>797.6</ele>
        <time>2026-05-11T13:08:47Z</time>
      </trkpt>
      <trkpt lat="45.96517" lon="5.49494">
        <ele>797.6</ele>
        <time>2026-05-11T13:08:48Z</time>
      </trkpt>
      <trkpt lat="45.96515" lon="5.49499">
        <ele>797</ele>
        <time>2026-05-11T13:08:49Z</time>
      </trkpt>
      <trkpt lat="45.96513" lon="5.49504">
        <ele>796.4</ele>
        <time>2026-05-11T13:08:50Z</time>
      </trkpt>
      <trkpt lat="45.96512" lon="5.49509">
        <ele>796</ele>
        <time>2026-05-11T13:08:51Z</time>
      </trkpt>
      <trkpt lat="45.96511" lon="5.49513">
        <ele>795.6</ele>
        <time>2026-05-11T13:08:52Z</time>
      </trkpt>
      <trkpt lat="45.9651" lon="5.49517">
        <ele>795.2</ele>
        <time>2026-05-11T13:08:53Z</time>
      </trkpt>
      <trkpt lat="45.9651" lon="5.49521">
        <ele>794.8</ele>
        <time>2026-05-11T13:08:54Z</time>
      </trkpt>
      <trkpt lat="45.96512" lon="5.49524">
        <ele>794.8</ele>
        <time>2026-05-11T13:08:55Z</time>
      </trkpt>
      <trkpt lat="45.96515" lon="5.49526">
        <ele>794.4</ele>
        <time>2026-05-11T13:08:56Z</time>
      </trkpt>
      <trkpt lat="45.96518" lon="5.49526">
        <ele>794.4</ele>
        <time>2026-05-11T13:08:57Z</time>
      </trkpt>
      <trkpt lat="45.96521" lon="5.49526">
        <ele>794.4</ele>
        <time>2026-05-11T13:08:58Z</time>
      </trkpt>
      <trkpt lat="45.96523" lon="5.49525">
        <ele>794.4</ele>
        <time>2026-05-11T13:08:59Z</time>
      </trkpt>
      <trkpt lat="45.96525" lon="5.49524">
        <ele>794.4</ele>
        <time>2026-05-11T13:09:00Z</time>
      </trkpt>
      <trkpt lat="45.96527" lon="5.49523">
        <ele>794.4</ele>
        <time>2026-05-11T13:09:01Z</time>
      </trkpt>
      <trkpt lat="45.96529" lon="5.49522">
        <ele>794.6</ele>
        <time>2026-05-11T13:09:02Z</time>
      </trkpt>
      <trkpt lat="45.96532" lon="5.49522">
        <ele>794.6</ele>
        <time>2026-05-11T13:09:03Z</time>
      </trkpt>
      <trkpt lat="45.96534" lon="5.49521">
        <ele>795</ele>
        <time>2026-05-11T13:09:04Z</time>
      </trkpt>
      <trkpt lat="45.96537" lon="5.4952">
        <ele>795.2</ele>
        <time>2026-05-11T13:09:05Z</time>
      </trkpt>
      <trkpt lat="45.96539" lon="5.49519">
        <ele>795.2</ele>
        <time>2026-05-11T13:09:06Z</time>
      </trkpt>
      <trkpt lat="45.96542" lon="5.49518">
        <ele>795.8</ele>
        <time>2026-05-11T13:09:07Z</time>
      </trkpt>
      <trkpt lat="45.96544" lon="5.49517">
        <ele>796</ele>
        <time>2026-05-11T13:09:08Z</time>
      </trkpt>
      <trkpt lat="45.96546" lon="5.49515">
        <ele>796</ele>
        <time>2026-05-11T13:09:09Z</time>
      </trkpt>
      <trkpt lat="45.96548" lon="5.49514">
        <ele>796.4</ele>
        <time>2026-05-11T13:09:10Z</time>
      </trkpt>
      <trkpt lat="45.9655" lon="5.49513">
        <ele>796.4</ele>
        <time>2026-05-11T13:09:11Z</time>
      </trkpt>
      <trkpt lat="45.96553" lon="5.49512">
        <ele>797</ele>
        <time>2026-05-11T13:09:12Z</time>
      </trkpt>
      <trkpt lat="45.96555" lon="5.49511">
        <ele>797.2</ele>
        <time>2026-05-11T13:09:13Z</time>
      </trkpt>
      <trkpt lat="45.96557" lon="5.49509">
        <ele>797.4</ele>
        <time>2026-05-11T13:09:14Z</time>
      </trkpt>
      <trkpt lat="45.96559" lon="5.49508">
        <ele>797.6</ele>
        <time>2026-05-11T13:09:15Z</time>
      </trkpt>
      <trkpt lat="45.96561" lon="5.49507">
        <ele>797.6</ele>
        <time>2026-05-11T13:09:16Z</time>
      </trkpt>
      <trkpt lat="45.96563" lon="5.49506">
        <ele>798.2</ele>
        <time>2026-05-11T13:09:17Z</time>
      </trkpt>
      <trkpt lat="45.96566" lon="5.49504">
        <ele>798.4</ele>
        <time>2026-05-11T13:09:18Z</time>
      </trkpt>
      <trkpt lat="45.96568" lon="5.49503">
        <ele>798.4</ele>
        <time>2026-05-11T13:09:19Z</time>
      </trkpt>
      <trkpt lat="45.9657" lon="5.49501">
        <ele>798.8</ele>
        <time>2026-05-11T13:09:20Z</time>
      </trkpt>
      <trkpt lat="45.96572" lon="5.495">
        <ele>799.2</ele>
        <time>2026-05-11T13:09:21Z</time>
      </trkpt>
      <trkpt lat="45.96574" lon="5.49498">
        <ele>799.2</ele>
        <time>2026-05-11T13:09:22Z</time>
      </trkpt>
      <trkpt lat="45.96576" lon="5.49497">
        <ele>799.2</ele>
        <time>2026-05-11T13:09:23Z</time>
      </trkpt>
      <trkpt lat="45.96578" lon="5.49495">
        <ele>799.2</ele>
        <time>2026-05-11T13:09:24Z</time>
      </trkpt>
      <trkpt lat="45.9658" lon="5.49494">
        <ele>799.2</ele>
        <time>2026-05-11T13:09:25Z</time>
      </trkpt>
      <trkpt lat="45.96583" lon="5.49492">
        <ele>799.6</ele>
        <time>2026-05-11T13:09:26Z</time>
      </trkpt>
      <trkpt lat="45.96585" lon="5.49491">
        <ele>799.6</ele>
        <time>2026-05-11T13:09:27Z</time>
      </trkpt>
      <trkpt lat="45.96587" lon="5.4949">
        <ele>800</ele>
        <time>2026-05-11T13:09:28Z</time>
      </trkpt>
      <trkpt lat="45.96589" lon="5.49489">
        <ele>800</ele>
        <time>2026-05-11T13:09:29Z</time>
      </trkpt>
      <trkpt lat="45.96592" lon="5.49487">
        <ele>800.4</ele>
        <time>2026-05-11T13:09:30Z</time>
      </trkpt>
      <trkpt lat="45.96594" lon="5.49486">
        <ele>800.6</ele>
        <time>2026-05-11T13:09:31Z</time>
      </trkpt>
      <trkpt lat="45.96596" lon="5.49485">
        <ele>800.6</ele>
        <time>2026-05-11T13:09:32Z</time>
      </trkpt>
      <trkpt lat="45.96598" lon="5.49485">
        <ele>801</ele>
        <time>2026-05-11T13:09:33Z</time>
      </trkpt>
      <trkpt lat="45.966" lon="5.49484">
        <ele>801</ele>
        <time>2026-05-11T13:09:34Z</time>
      </trkpt>
      <trkpt lat="45.96602" lon="5.49483">
        <ele>801.4</ele>
        <time>2026-05-11T13:09:35Z</time>
      </trkpt>
      <trkpt lat="45.96604" lon="5.49482">
        <ele>801.6</ele>
        <time>2026-05-11T13:09:36Z</time>
      </trkpt>
      <trkpt lat="45.96606" lon="5.49482">
        <ele>802</ele>
        <time>2026-05-11T13:09:37Z</time>
      </trkpt>
      <trkpt lat="45.96608" lon="5.49481">
        <ele>802.4</ele>
        <time>2026-05-11T13:09:38Z</time>
      </trkpt>
      <trkpt lat="45.9661" lon="5.49481">
        <ele>802.4</ele>
        <time>2026-05-11T13:09:39Z</time>
      </trkpt>
      <trkpt lat="45.96612" lon="5.4948">
        <ele>802.6</ele>
        <time>2026-05-11T13:09:40Z</time>
      </trkpt>
      <trkpt lat="45.96614" lon="5.49479">
        <ele>802.8</ele>
        <time>2026-05-11T13:09:41Z</time>
      </trkpt>
      <trkpt lat="45.96616" lon="5.49479">
        <ele>802.8</ele>
        <time>2026-05-11T13:09:42Z</time>
      </trkpt>
      <trkpt lat="45.96618" lon="5.49478">
        <ele>802.8</ele>
        <time>2026-05-11T13:09:43Z</time>
      </trkpt>
      <trkpt lat="45.9662" lon="5.49478">
        <ele>802.8</ele>
        <time>2026-05-11T13:09:44Z</time>
      </trkpt>
      <trkpt lat="45.96622" lon="5.49477">
        <ele>803</ele>
        <time>2026-05-11T13:09:45Z</time>
      </trkpt>
      <trkpt lat="45.96624" lon="5.49477">
        <ele>803.4</ele>
        <time>2026-05-11T13:09:46Z</time>
      </trkpt>
      <trkpt lat="45.96626" lon="5.49476">
        <ele>803.4</ele>
        <time>2026-05-11T13:09:47Z</time>
      </trkpt>
      <trkpt lat="45.96628" lon="5.49476">
        <ele>803.6</ele>
        <time>2026-05-11T13:09:48Z</time>
      </trkpt>
      <trkpt lat="45.9663" lon="5.49475">
        <ele>803.8</ele>
        <time>2026-05-11T13:09:49Z</time>
      </trkpt>
      <trkpt lat="45.96632" lon="5.49475">
        <ele>803.8</ele>
        <time>2026-05-11T13:09:50Z</time>
      </trkpt>
      <trkpt lat="45.96633" lon="5.49474">
        <ele>804.2</ele>
        <time>2026-05-11T13:09:51Z</time>
      </trkpt>
      <trkpt lat="45.96635" lon="5.49474">
        <ele>804.2</ele>
        <time>2026-05-11T13:09:52Z</time>
      </trkpt>
      <trkpt lat="45.96637" lon="5.49473">
        <ele>804.4</ele>
        <time>2026-05-11T13:09:53Z</time>
      </trkpt>
      <trkpt lat="45.96639" lon="5.49473">
        <ele>804.4</ele>
        <time>2026-05-11T13:09:54Z</time>
      </trkpt>
      <trkpt lat="45.9664" lon="5.49472">
        <ele>804.8</ele>
        <time>2026-05-11T13:09:55Z</time>
      </trkpt>
      <trkpt lat="45.96642" lon="5.49472">
        <ele>804.8</ele>
        <time>2026-05-11T13:09:56Z</time>
      </trkpt>
      <trkpt lat="45.96644" lon="5.49471">
        <ele>805</ele>
        <time>2026-05-11T13:09:57Z</time>
      </trkpt>
      <trkpt lat="45.96646" lon="5.4947">
        <ele>805.4</ele>
        <time>2026-05-11T13:09:58Z</time>
      </trkpt>
      <trkpt lat="45.96648" lon="5.49469">
        <ele>805.4</ele>
        <time>2026-05-11T13:09:59Z</time>
      </trkpt>
      <trkpt lat="45.9665" lon="5.49469">
        <ele>805.4</ele>
        <time>2026-05-11T13:10:00Z</time>
      </trkpt>
      <trkpt lat="45.96652" lon="5.49468">
        <ele>805.4</ele>
        <time>2026-05-11T13:10:01Z</time>
      </trkpt>
      <trkpt lat="45.96655" lon="5.49468">
        <ele>805.8</ele>
        <time>2026-05-11T13:10:02Z</time>
      </trkpt>
      <trkpt lat="45.96657" lon="5.49467">
        <ele>805.8</ele>
        <time>2026-05-11T13:10:03Z</time>
      </trkpt>
      <trkpt lat="45.96659" lon="5.49467">
        <ele>805.8</ele>
        <time>2026-05-11T13:10:04Z</time>
      </trkpt>
      <trkpt lat="45.96661" lon="5.49466">
        <ele>805.8</ele>
        <time>2026-05-11T13:10:05Z</time>
      </trkpt>
      <trkpt lat="45.96663" lon="5.49465">
        <ele>806</ele>
        <time>2026-05-11T13:10:06Z</time>
      </trkpt>
      <trkpt lat="45.96665" lon="5.49465">
        <ele>806</ele>
        <time>2026-05-11T13:10:07Z</time>
      </trkpt>
      <trkpt lat="45.96667" lon="5.49464">
        <ele>806</ele>
        <time>2026-05-11T13:10:08Z</time>
      </trkpt>
      <trkpt lat="45.96669" lon="5.49464">
        <ele>806</ele>
        <time>2026-05-11T13:10:09Z</time>
      </trkpt>
      <trkpt lat="45.96671" lon="5.49464">
        <ele>806.4</ele>
        <time>2026-05-11T13:10:10Z</time>
      </trkpt>
      <trkpt lat="45.96673" lon="5.49463">
        <ele>806.4</ele>
        <time>2026-05-11T13:10:11Z</time>
      </trkpt>
      <trkpt lat="45.96675" lon="5.49463">
        <ele>806.4</ele>
        <time>2026-05-11T13:10:12Z</time>
      </trkpt>
      <trkpt lat="45.96676" lon="5.49462">
        <ele>806.6</ele>
        <time>2026-05-11T13:10:13Z</time>
      </trkpt>
      <trkpt lat="45.96678" lon="5.49462">
        <ele>806.6</ele>
        <time>2026-05-11T13:10:14Z</time>
      </trkpt>
      <trkpt lat="45.9668" lon="5.49462">
        <ele>806.6</ele>
        <time>2026-05-11T13:10:15Z</time>
      </trkpt>
      <trkpt lat="45.96682" lon="5.49462">
        <ele>806.8</ele>
        <time>2026-05-11T13:10:16Z</time>
      </trkpt>
      <trkpt lat="45.96684" lon="5.49462">
        <ele>806.8</ele>
        <time>2026-05-11T13:10:17Z</time>
      </trkpt>
      <trkpt lat="45.96686" lon="5.49462">
        <ele>806.8</ele>
        <time>2026-05-11T13:10:18Z</time>
      </trkpt>
      <trkpt lat="45.96688" lon="5.49462">
        <ele>807.2</ele>
        <time>2026-05-11T13:10:19Z</time>
      </trkpt>
      <trkpt lat="45.9669" lon="5.49462">
        <ele>807.2</ele>
        <time>2026-05-11T13:10:20Z</time>
      </trkpt>
      <trkpt lat="45.96692" lon="5.49462">
        <ele>807.6</ele>
        <time>2026-05-11T13:10:21Z</time>
      </trkpt>
      <trkpt lat="45.96694" lon="5.49461">
        <ele>807.6</ele>
        <time>2026-05-11T13:10:22Z</time>
      </trkpt>
      <trkpt lat="45.96696" lon="5.4946">
        <ele>807.6</ele>
        <time>2026-05-11T13:10:23Z</time>
      </trkpt>
      <trkpt lat="45.96699" lon="5.4946">
        <ele>808</ele>
        <time>2026-05-11T13:10:24Z</time>
      </trkpt>
      <trkpt lat="45.96701" lon="5.49459">
        <ele>808</ele>
        <time>2026-05-11T13:10:25Z</time>
      </trkpt>
      <trkpt lat="45.96703" lon="5.49458">
        <ele>808.4</ele>
        <time>2026-05-11T13:10:26Z</time>
      </trkpt>
      <trkpt lat="45.96705" lon="5.49457">
        <ele>808.4</ele>
        <time>2026-05-11T13:10:27Z</time>
      </trkpt>
      <trkpt lat="45.96707" lon="5.49456">
        <ele>808.4</ele>
        <time>2026-05-11T13:10:28Z</time>
      </trkpt>
      <trkpt lat="45.96709" lon="5.49455">
        <ele>808.8</ele>
        <time>2026-05-11T13:10:29Z</time>
      </trkpt>
      <trkpt lat="45.96711" lon="5.49454">
        <ele>808.8</ele>
        <time>2026-05-11T13:10:30Z</time>
      </trkpt>
      <trkpt lat="45.96712" lon="5.49453">
        <ele>808.8</ele>
        <time>2026-05-11T13:10:31Z</time>
      </trkpt>
      <trkpt lat="45.96714" lon="5.49452">
        <ele>809</ele>
        <time>2026-05-11T13:10:32Z</time>
      </trkpt>
      <trkpt lat="45.96716" lon="5.4945">
        <ele>809.2</ele>
        <time>2026-05-11T13:10:33Z</time>
      </trkpt>
      <trkpt lat="45.96718" lon="5.49449">
        <ele>809.4</ele>
        <time>2026-05-11T13:10:34Z</time>
      </trkpt>
      <trkpt lat="45.9672" lon="5.49448">
        <ele>809.4</ele>
        <time>2026-05-11T13:10:35Z</time>
      </trkpt>
      <trkpt lat="45.96722" lon="5.49447">
        <ele>809.4</ele>
        <time>2026-05-11T13:10:36Z</time>
      </trkpt>
      <trkpt lat="45.96723" lon="5.49447">
        <ele>809.8</ele>
        <time>2026-05-11T13:10:37Z</time>
      </trkpt>
      <trkpt lat="45.96725" lon="5.49446">
        <ele>809.8</ele>
        <time>2026-05-11T13:10:38Z</time>
      </trkpt>
      <trkpt lat="45.96727" lon="5.49444">
        <ele>810</ele>
        <time>2026-05-11T13:10:39Z</time>
      </trkpt>
      <trkpt lat="45.96729" lon="5.49443">
        <ele>810.4</ele>
        <time>2026-05-11T13:10:40Z</time>
      </trkpt>
      <trkpt lat="45.96731" lon="5.49443">
        <ele>810.4</ele>
        <time>2026-05-11T13:10:41Z</time>
      </trkpt>
      <trkpt lat="45.96732" lon="5.49442">
        <ele>810.6</ele>
        <time>2026-05-11T13:10:42Z</time>
      </trkpt>
      <trkpt lat="45.96734" lon="5.49442">
        <ele>810.6</ele>
        <time>2026-05-11T13:10:43Z</time>
      </trkpt>
      <trkpt lat="45.96736" lon="5.49441">
        <ele>811</ele>
        <time>2026-05-11T13:10:44Z</time>
      </trkpt>
      <trkpt lat="45.96737" lon="5.4944">
        <ele>811.2</ele>
        <time>2026-05-11T13:10:45Z</time>
      </trkpt>
      <trkpt lat="45.96741" lon="5.4944">
        <ele>811.6</ele>
        <time>2026-05-11T13:10:46Z</time>
      </trkpt>
      <trkpt lat="45.96743" lon="5.4944">
        <ele>811.6</ele>
        <time>2026-05-11T13:10:47Z</time>
      </trkpt>
      <trkpt lat="45.96744" lon="5.4944">
        <ele>812</ele>
        <time>2026-05-11T13:10:48Z</time>
      </trkpt>
      <trkpt lat="45.96746" lon="5.4944">
        <ele>812</ele>
        <time>2026-05-11T13:10:49Z</time>
      </trkpt>
      <trkpt lat="45.96748" lon="5.4944">
        <ele>812.2</ele>
        <time>2026-05-11T13:10:50Z</time>
      </trkpt>
      <trkpt lat="45.9675" lon="5.49439">
        <ele>812.2</ele>
        <time>2026-05-11T13:10:51Z</time>
      </trkpt>
      <trkpt lat="45.96751" lon="5.49439">
        <ele>812.6</ele>
        <time>2026-05-11T13:10:52Z</time>
      </trkpt>
      <trkpt lat="45.96753" lon="5.49439">
        <ele>812.6</ele>
        <time>2026-05-11T13:10:53Z</time>
      </trkpt>
      <trkpt lat="45.96755" lon="5.49439">
        <ele>812.8</ele>
        <time>2026-05-11T13:10:54Z</time>
      </trkpt>
      <trkpt lat="45.96757" lon="5.49439">
        <ele>812.8</ele>
        <time>2026-05-11T13:10:55Z</time>
      </trkpt>
      <trkpt lat="45.96758" lon="5.49438">
        <ele>813</ele>
        <time>2026-05-11T13:10:56Z</time>
      </trkpt>
      <trkpt lat="45.9676" lon="5.49438">
        <ele>813</ele>
        <time>2026-05-11T13:10:57Z</time>
      </trkpt>
      <trkpt lat="45.96762" lon="5.49438">
        <ele>813.4</ele>
        <time>2026-05-11T13:10:58Z</time>
      </trkpt>
      <trkpt lat="45.96763" lon="5.49437">
        <ele>813.4</ele>
        <time>2026-05-11T13:10:59Z</time>
      </trkpt>
      <trkpt lat="45.96765" lon="5.49436">
        <ele>813.8</ele>
        <time>2026-05-11T13:11:00Z</time>
      </trkpt>
      <trkpt lat="45.96767" lon="5.49436">
        <ele>813.8</ele>
        <time>2026-05-11T13:11:01Z</time>
      </trkpt>
      <trkpt lat="45.96769" lon="5.49436">
        <ele>814</ele>
        <time>2026-05-11T13:11:02Z</time>
      </trkpt>
      <trkpt lat="45.96771" lon="5.49436">
        <ele>814</ele>
        <time>2026-05-11T13:11:03Z</time>
      </trkpt>
      <trkpt lat="45.96773" lon="5.49435">
        <ele>814.2</ele>
        <time>2026-05-11T13:11:04Z</time>
      </trkpt>
      <trkpt lat="45.96775" lon="5.49435">
        <ele>814.2</ele>
        <time>2026-05-11T13:11:05Z</time>
      </trkpt>
      <trkpt lat="45.96776" lon="5.49435">
        <ele>814.2</ele>
        <time>2026-05-11T13:11:06Z</time>
      </trkpt>
      <trkpt lat="45.96778" lon="5.49435">
        <ele>814.4</ele>
        <time>2026-05-11T13:11:07Z</time>
      </trkpt>
      <trkpt lat="45.96779" lon="5.49435">
        <ele>814.4</ele>
        <time>2026-05-11T13:11:08Z</time>
      </trkpt>
      <trkpt lat="45.96781" lon="5.49435">
        <ele>814.8</ele>
        <time>2026-05-11T13:11:09Z</time>
      </trkpt>
      <trkpt lat="45.96783" lon="5.49435">
        <ele>815.2</ele>
        <time>2026-05-11T13:11:10Z</time>
      </trkpt>
      <trkpt lat="45.96785" lon="5.49435">
        <ele>815.2</ele>
        <time>2026-05-11T13:11:11Z</time>
      </trkpt>
      <trkpt lat="45.96786" lon="5.49435">
        <ele>815.6</ele>
        <time>2026-05-11T13:11:12Z</time>
      </trkpt>
      <trkpt lat="45.96788" lon="5.49435">
        <ele>815.6</ele>
        <time>2026-05-11T13:11:13Z</time>
      </trkpt>
      <trkpt lat="45.96789" lon="5.49435">
        <ele>816.2</ele>
        <time>2026-05-11T13:11:14Z</time>
      </trkpt>
      <trkpt lat="45.96791" lon="5.49436">
        <ele>816.2</ele>
        <time>2026-05-11T13:11:15Z</time>
      </trkpt>
      <trkpt lat="45.96793" lon="5.49436">
        <ele>816.2</ele>
        <time>2026-05-11T13:11:16Z</time>
      </trkpt>
      <trkpt lat="45.96794" lon="5.49436">
        <ele>816.6</ele>
        <time>2026-05-11T13:11:17Z</time>
      </trkpt>
      <trkpt lat="45.96796" lon="5.49436">
        <ele>816.8</ele>
        <time>2026-05-11T13:11:18Z</time>
      </trkpt>
      <trkpt lat="45.96797" lon="5.49436">
        <ele>816.8</ele>
        <time>2026-05-11T13:11:19Z</time>
      </trkpt>
      <trkpt lat="45.96799" lon="5.49436">
        <ele>817</ele>
        <time>2026-05-11T13:11:20Z</time>
      </trkpt>
      <trkpt lat="45.96801" lon="5.49436">
        <ele>817.2</ele>
        <time>2026-05-11T13:11:21Z</time>
      </trkpt>
      <trkpt lat="45.96802" lon="5.49436">
        <ele>817.2</ele>
        <time>2026-05-11T13:11:22Z</time>
      </trkpt>
      <trkpt lat="45.96804" lon="5.49435">
        <ele>817.6</ele>
        <time>2026-05-11T13:11:23Z</time>
      </trkpt>
      <trkpt lat="45.96806" lon="5.49436">
        <ele>817.6</ele>
        <time>2026-05-11T13:11:24Z</time>
      </trkpt>
      <trkpt lat="45.96807" lon="5.49436">
        <ele>817.8</ele>
        <time>2026-05-11T13:11:25Z</time>
      </trkpt>
      <trkpt lat="45.96809" lon="5.49436">
        <ele>817.8</ele>
        <time>2026-05-11T13:11:26Z</time>
      </trkpt>
      <trkpt lat="45.9681" lon="5.49436">
        <ele>818.2</ele>
        <time>2026-05-11T13:11:27Z</time>
      </trkpt>
      <trkpt lat="45.96812" lon="5.49436">
        <ele>818.4</ele>
        <time>2026-05-11T13:11:28Z</time>
      </trkpt>
      <trkpt lat="45.96813" lon="5.49435">
        <ele>818.4</ele>
        <time>2026-05-11T13:11:29Z</time>
      </trkpt>
      <trkpt lat="45.96815" lon="5.49435">
        <ele>818.6</ele>
        <time>2026-05-11T13:11:30Z</time>
      </trkpt>
      <trkpt lat="45.96817" lon="5.49435">
        <ele>818.6</ele>
        <time>2026-05-11T13:11:31Z</time>
      </trkpt>
      <trkpt lat="45.96818" lon="5.49435">
        <ele>818.8</ele>
        <time>2026-05-11T13:11:32Z</time>
      </trkpt>
      <trkpt lat="45.9682" lon="5.49434">
        <ele>818.8</ele>
        <time>2026-05-11T13:11:33Z</time>
      </trkpt>
      <trkpt lat="45.96821" lon="5.49434">
        <ele>818.8</ele>
        <time>2026-05-11T13:11:34Z</time>
      </trkpt>
      <trkpt lat="45.96823" lon="5.49434">
        <ele>819.2</ele>
        <time>2026-05-11T13:11:35Z</time>
      </trkpt>
      <trkpt lat="45.96825" lon="5.49434">
        <ele>819.4</ele>
        <time>2026-05-11T13:11:36Z</time>
      </trkpt>
      <trkpt lat="45.96826" lon="5.49434">
        <ele>819.4</ele>
        <time>2026-05-11T13:11:37Z</time>
      </trkpt>
      <trkpt lat="45.96828" lon="5.49434">
        <ele>819.8</ele>
        <time>2026-05-11T13:11:38Z</time>
      </trkpt>
      <trkpt lat="45.9683" lon="5.49434">
        <ele>819.8</ele>
        <time>2026-05-11T13:11:39Z</time>
      </trkpt>
      <trkpt lat="45.96831" lon="5.49434">
        <ele>820</ele>
        <time>2026-05-11T13:11:40Z</time>
      </trkpt>
      <trkpt lat="45.96833" lon="5.49434">
        <ele>820.2</ele>
        <time>2026-05-11T13:11:41Z</time>
      </trkpt>
      <trkpt lat="45.96835" lon="5.49434">
        <ele>820.2</ele>
        <time>2026-05-11T13:11:42Z</time>
      </trkpt>
      <trkpt lat="45.96836" lon="5.49434">
        <ele>820.6</ele>
        <time>2026-05-11T13:11:43Z</time>
      </trkpt>
      <trkpt lat="45.96838" lon="5.49434">
        <ele>821</ele>
        <time>2026-05-11T13:11:44Z</time>
      </trkpt>
      <trkpt lat="45.9684" lon="5.49434">
        <ele>821.2</ele>
        <time>2026-05-11T13:11:45Z</time>
      </trkpt>
      <trkpt lat="45.96842" lon="5.49434">
        <ele>821.6</ele>
        <time>2026-05-11T13:11:46Z</time>
      </trkpt>
      <trkpt lat="45.96843" lon="5.49434">
        <ele>821.8</ele>
        <time>2026-05-11T13:11:47Z</time>
      </trkpt>
      <trkpt lat="45.96845" lon="5.49433">
        <ele>821.8</ele>
        <time>2026-05-11T13:11:48Z</time>
      </trkpt>
      <trkpt lat="45.96847" lon="5.49433">
        <ele>821.8</ele>
        <time>2026-05-11T13:11:49Z</time>
      </trkpt>
      <trkpt lat="45.96848" lon="5.49432">
        <ele>822.2</ele>
        <time>2026-05-11T13:11:50Z</time>
      </trkpt>
      <trkpt lat="45.9685" lon="5.49432">
        <ele>822.2</ele>
        <time>2026-05-11T13:11:51Z</time>
      </trkpt>
      <trkpt lat="45.96852" lon="5.49431">
        <ele>822.6</ele>
        <time>2026-05-11T13:11:52Z</time>
      </trkpt>
      <trkpt lat="45.96853" lon="5.49431">
        <ele>822.6</ele>
        <time>2026-05-11T13:11:53Z</time>
      </trkpt>
      <trkpt lat="45.96855" lon="5.49431">
        <ele>822.8</ele>
        <time>2026-05-11T13:11:54Z</time>
      </trkpt>
      <trkpt lat="45.96856" lon="5.4943">
        <ele>822.8</ele>
        <time>2026-05-11T13:11:55Z</time>
      </trkpt>
      <trkpt lat="45.96858" lon="5.4943">
        <ele>823.2</ele>
        <time>2026-05-11T13:11:56Z</time>
      </trkpt>
      <trkpt lat="45.96859" lon="5.49429">
        <ele>823.2</ele>
        <time>2026-05-11T13:11:57Z</time>
      </trkpt>
      <trkpt lat="45.96861" lon="5.49429">
        <ele>823.4</ele>
        <time>2026-05-11T13:11:58Z</time>
      </trkpt>
      <trkpt lat="45.96862" lon="5.49428">
        <ele>823.6</ele>
        <time>2026-05-11T13:11:59Z</time>
      </trkpt>
      <trkpt lat="45.96864" lon="5.49428">
        <ele>823.8</ele>
        <time>2026-05-11T13:12:00Z</time>
      </trkpt>
      <trkpt lat="45.96866" lon="5.49427">
        <ele>823.8</ele>
        <time>2026-05-11T13:12:01Z</time>
      </trkpt>
      <trkpt lat="45.96867" lon="5.49427">
        <ele>823.8</ele>
        <time>2026-05-11T13:12:02Z</time>
      </trkpt>
      <trkpt lat="45.96869" lon="5.49426">
        <ele>824.2</ele>
        <time>2026-05-11T13:12:03Z</time>
      </trkpt>
      <trkpt lat="45.96871" lon="5.49425">
        <ele>824.2</ele>
        <time>2026-05-11T13:12:04Z</time>
      </trkpt>
      <trkpt lat="45.96872" lon="5.49425">
        <ele>824.2</ele>
        <time>2026-05-11T13:12:05Z</time>
      </trkpt>
      <trkpt lat="45.96874" lon="5.49424">
        <ele>824.4</ele>
        <time>2026-05-11T13:12:06Z</time>
      </trkpt>
      <trkpt lat="45.96876" lon="5.49424">
        <ele>824.4</ele>
        <time>2026-05-11T13:12:07Z</time>
      </trkpt>
      <trkpt lat="45.96877" lon="5.49423">
        <ele>824.6</ele>
        <time>2026-05-11T13:12:08Z</time>
      </trkpt>
      <trkpt lat="45.9688" lon="5.49423">
        <ele>824.6</ele>
        <time>2026-05-11T13:12:09Z</time>
      </trkpt>
      <trkpt lat="45.96882" lon="5.49423">
        <ele>824.6</ele>
        <time>2026-05-11T13:12:10Z</time>
      </trkpt>
      <trkpt lat="45.96883" lon="5.49422">
        <ele>824.8</ele>
        <time>2026-05-11T13:12:11Z</time>
      </trkpt>
      <trkpt lat="45.96885" lon="5.49422">
        <ele>824.8</ele>
        <time>2026-05-11T13:12:12Z</time>
      </trkpt>
      <trkpt lat="45.96887" lon="5.49421">
        <ele>825.2</ele>
        <time>2026-05-11T13:12:13Z</time>
      </trkpt>
      <trkpt lat="45.96889" lon="5.49421">
        <ele>825.2</ele>
        <time>2026-05-11T13:12:14Z</time>
      </trkpt>
      <trkpt lat="45.96891" lon="5.4942">
        <ele>825.2</ele>
        <time>2026-05-11T13:12:15Z</time>
      </trkpt>
      <trkpt lat="45.96893" lon="5.4942">
        <ele>825.2</ele>
        <time>2026-05-11T13:12:16Z</time>
      </trkpt>
      <trkpt lat="45.96895" lon="5.4942">
        <ele>825.4</ele>
        <time>2026-05-11T13:12:17Z</time>
      </trkpt>
      <trkpt lat="45.96897" lon="5.4942">
        <ele>825.4</ele>
        <time>2026-05-11T13:12:18Z</time>
      </trkpt>
      <trkpt lat="45.96898" lon="5.4942">
        <ele>825.4</ele>
        <time>2026-05-11T13:12:19Z</time>
      </trkpt>
      <trkpt lat="45.969" lon="5.49419">
        <ele>825.6</ele>
        <time>2026-05-11T13:12:20Z</time>
      </trkpt>
      <trkpt lat="45.96902" lon="5.49419">
        <ele>825.8</ele>
        <time>2026-05-11T13:12:21Z</time>
      </trkpt>
      <trkpt lat="45.96904" lon="5.49418">
        <ele>825.8</ele>
        <time>2026-05-11T13:12:22Z</time>
      </trkpt>
      <trkpt lat="45.96906" lon="5.49418">
        <ele>826.2</ele>
        <time>2026-05-11T13:12:23Z</time>
      </trkpt>
      <trkpt lat="45.96908" lon="5.49418">
        <ele>826.2</ele>
        <time>2026-05-11T13:12:24Z</time>
      </trkpt>
      <trkpt lat="45.9691" lon="5.49417">
        <ele>826.6</ele>
        <time>2026-05-11T13:12:25Z</time>
      </trkpt>
      <trkpt lat="45.96912" lon="5.49417">
        <ele>826.6</ele>
        <time>2026-05-11T13:12:26Z</time>
      </trkpt>
      <trkpt lat="45.96914" lon="5.49416">
        <ele>827</ele>
        <time>2026-05-11T13:12:27Z</time>
      </trkpt>
      <trkpt lat="45.96915" lon="5.49416">
        <ele>827</ele>
        <time>2026-05-11T13:12:28Z</time>
      </trkpt>
      <trkpt lat="45.96917" lon="5.49415">
        <ele>827</ele>
        <time>2026-05-11T13:12:29Z</time>
      </trkpt>
      <trkpt lat="45.96919" lon="5.49415">
        <ele>827</ele>
        <time>2026-05-11T13:12:30Z</time>
      </trkpt>
      <trkpt lat="45.96921" lon="5.49414">
        <ele>827</ele>
        <time>2026-05-11T13:12:31Z</time>
      </trkpt>
      <trkpt lat="45.96923" lon="5.49414">
        <ele>827.4</ele>
        <time>2026-05-11T13:12:32Z</time>
      </trkpt>
      <trkpt lat="45.96924" lon="5.49413">
        <ele>827.4</ele>
        <time>2026-05-11T13:12:33Z</time>
      </trkpt>
      <trkpt lat="45.96926" lon="5.49413">
        <ele>827.4</ele>
        <time>2026-05-11T13:12:34Z</time>
      </trkpt>
      <trkpt lat="45.96928" lon="5.49412">
        <ele>827.8</ele>
        <time>2026-05-11T13:12:35Z</time>
      </trkpt>
      <trkpt lat="45.9693" lon="5.49412">
        <ele>828.2</ele>
        <time>2026-05-11T13:12:36Z</time>
      </trkpt>
      <trkpt lat="45.96931" lon="5.49411">
        <ele>828.4</ele>
        <time>2026-05-11T13:12:37Z</time>
      </trkpt>
      <trkpt lat="45.96933" lon="5.4941">
        <ele>828.4</ele>
        <time>2026-05-11T13:12:38Z</time>
      </trkpt>
      <trkpt lat="45.96935" lon="5.49409">
        <ele>828.6</ele>
        <time>2026-05-11T13:12:39Z</time>
      </trkpt>
      <trkpt lat="45.96936" lon="5.49409">
        <ele>828.6</ele>
        <time>2026-05-11T13:12:40Z</time>
      </trkpt>
      <trkpt lat="45.96936" lon="5.49408">
        <ele>828.6</ele>
        <time>2026-05-11T13:12:41Z</time>
      </trkpt>
      <trkpt lat="45.96936" lon="5.49408">
        <ele>828.6</ele>
        <time>2026-05-11T13:12:42Z</time>
      </trkpt>
      <trkpt lat="45.96936" lon="5.49408">
        <ele>828.6</ele>
        <time>2026-05-11T13:12:43Z</time>
      </trkpt>
      <trkpt lat="45.96936" lon="5.4941">
        <ele>828.6</ele>
        <time>2026-05-11T13:12:51Z</time>
      </trkpt>
      <trkpt lat="45.96937" lon="5.49409">
        <ele>828.6</ele>
        <time>2026-05-11T13:12:52Z</time>
      </trkpt>
      <trkpt lat="45.96937" lon="5.49409">
        <ele>828.6</ele>
        <time>2026-05-11T13:12:53Z</time>
      </trkpt>
      <trkpt lat="45.96937" lon="5.49408">
        <ele>830.8</ele>
        <time>2026-05-11T13:17:31Z</time>
      </trkpt>
      <trkpt lat="45.96937" lon="5.49408">
        <ele>830.8</ele>
        <time>2026-05-11T13:17:32Z</time>
      </trkpt>
      <trkpt lat="45.96939" lon="5.49408">
        <ele>830.6</ele>
        <time>2026-05-11T13:17:36Z</time>
      </trkpt>
      <trkpt lat="45.96941" lon="5.49407">
        <ele>830.6</ele>
        <time>2026-05-11T13:17:37Z</time>
      </trkpt>
      <trkpt lat="45.96942" lon="5.49405">
        <ele>830.6</ele>
        <time>2026-05-11T13:17:38Z</time>
      </trkpt>
      <trkpt lat="45.96944" lon="5.49404">
        <ele>830.6</ele>
        <time>2026-05-11T13:17:39Z</time>
      </trkpt>
      <trkpt lat="45.96946" lon="5.49403">
        <ele>831</ele>
        <time>2026-05-11T13:17:40Z</time>
      </trkpt>
      <trkpt lat="45.96948" lon="5.49403">
        <ele>831</ele>
        <time>2026-05-11T13:17:41Z</time>
      </trkpt>
      <trkpt lat="45.9695" lon="5.49403">
        <ele>831</ele>
        <time>2026-05-11T13:17:42Z</time>
      </trkpt>
      <trkpt lat="45.96952" lon="5.49403">
        <ele>831.4</ele>
        <time>2026-05-11T13:17:43Z</time>
      </trkpt>
      <trkpt lat="45.96956" lon="5.49402">
        <ele>831.4</ele>
        <time>2026-05-11T13:17:44Z</time>
      </trkpt>
      <trkpt lat="45.96958" lon="5.49401">
        <ele>831.6</ele>
        <time>2026-05-11T13:17:45Z</time>
      </trkpt>
      <trkpt lat="45.9696" lon="5.494">
        <ele>831.6</ele>
        <time>2026-05-11T13:17:46Z</time>
      </trkpt>
      <trkpt lat="45.96963" lon="5.494">
        <ele>832</ele>
        <time>2026-05-11T13:17:47Z</time>
      </trkpt>
      <trkpt lat="45.96965" lon="5.49399">
        <ele>832</ele>
        <time>2026-05-11T13:17:48Z</time>
      </trkpt>
      <trkpt lat="45.96966" lon="5.49399">
        <ele>832</ele>
        <time>2026-05-11T13:17:49Z</time>
      </trkpt>
      <trkpt lat="45.96968" lon="5.49399">
        <ele>832</ele>
        <time>2026-05-11T13:17:50Z</time>
      </trkpt>
      <trkpt lat="45.9697" lon="5.49398">
        <ele>832.2</ele>
        <time>2026-05-11T13:17:51Z</time>
      </trkpt>
      <trkpt lat="45.96972" lon="5.49398">
        <ele>832.6</ele>
        <time>2026-05-11T13:17:52Z</time>
      </trkpt>
      <trkpt lat="45.96974" lon="5.49397">
        <ele>832.6</ele>
        <time>2026-05-11T13:17:53Z</time>
      </trkpt>
      <trkpt lat="45.96976" lon="5.49396">
        <ele>832.6</ele>
        <time>2026-05-11T13:17:54Z</time>
      </trkpt>
      <trkpt lat="45.96977" lon="5.49395">
        <ele>833</ele>
        <time>2026-05-11T13:17:55Z</time>
      </trkpt>
      <trkpt lat="45.96979" lon="5.49394">
        <ele>833.2</ele>
        <time>2026-05-11T13:17:56Z</time>
      </trkpt>
      <trkpt lat="45.96981" lon="5.49394">
        <ele>833.4</ele>
        <time>2026-05-11T13:17:57Z</time>
      </trkpt>
      <trkpt lat="45.96983" lon="5.49394">
        <ele>833.4</ele>
        <time>2026-05-11T13:17:58Z</time>
      </trkpt>
      <trkpt lat="45.96985" lon="5.49395">
        <ele>833.8</ele>
        <time>2026-05-11T13:17:59Z</time>
      </trkpt>
      <trkpt lat="45.96987" lon="5.49394">
        <ele>833.8</ele>
        <time>2026-05-11T13:18:00Z</time>
      </trkpt>
      <trkpt lat="45.96988" lon="5.49393">
        <ele>834</ele>
        <time>2026-05-11T13:18:01Z</time>
      </trkpt>
      <trkpt lat="45.9699" lon="5.49393">
        <ele>834.4</ele>
        <time>2026-05-11T13:18:02Z</time>
      </trkpt>
      <trkpt lat="45.96992" lon="5.49392">
        <ele>834.6</ele>
        <time>2026-05-11T13:18:03Z</time>
      </trkpt>
      <trkpt lat="45.96994" lon="5.49392">
        <ele>834.6</ele>
        <time>2026-05-11T13:18:04Z</time>
      </trkpt>
      <trkpt lat="45.96996" lon="5.49392">
        <ele>834.8</ele>
        <time>2026-05-11T13:18:05Z</time>
      </trkpt>
      <trkpt lat="45.96998" lon="5.49392">
        <ele>834.8</ele>
        <time>2026-05-11T13:18:06Z</time>
      </trkpt>
      <trkpt lat="45.97" lon="5.49391">
        <ele>835.4</ele>
        <time>2026-05-11T13:18:07Z</time>
      </trkpt>
      <trkpt lat="45.97002" lon="5.49391">
        <ele>835.6</ele>
        <time>2026-05-11T13:18:08Z</time>
      </trkpt>
      <trkpt lat="45.97004" lon="5.49391">
        <ele>835.8</ele>
        <time>2026-05-11T13:18:09Z</time>
      </trkpt>
      <trkpt lat="45.97006" lon="5.49391">
        <ele>835.8</ele>
        <time>2026-05-11T13:18:10Z</time>
      </trkpt>
      <trkpt lat="45.97008" lon="5.49391">
        <ele>836.2</ele>
        <time>2026-05-11T13:18:11Z</time>
      </trkpt>
      <trkpt lat="45.9701" lon="5.4939">
        <ele>836.2</ele>
        <time>2026-05-11T13:18:12Z</time>
      </trkpt>
      <trkpt lat="45.97012" lon="5.49389">
        <ele>836.6</ele>
        <time>2026-05-11T13:18:13Z</time>
      </trkpt>
      <trkpt lat="45.97014" lon="5.49389">
        <ele>836.6</ele>
        <time>2026-05-11T13:18:14Z</time>
      </trkpt>
      <trkpt lat="45.97016" lon="5.49388">
        <ele>837</ele>
        <time>2026-05-11T13:18:15Z</time>
      </trkpt>
      <trkpt lat="45.97018" lon="5.49388">
        <ele>837</ele>
        <time>2026-05-11T13:18:16Z</time>
      </trkpt>
      <trkpt lat="45.9702" lon="5.49389">
        <ele>837.2</ele>
        <time>2026-05-11T13:18:17Z</time>
      </trkpt>
      <trkpt lat="45.97022" lon="5.49389">
        <ele>837.2</ele>
        <time>2026-05-11T13:18:18Z</time>
      </trkpt>
      <trkpt lat="45.97024" lon="5.49389">
        <ele>837.2</ele>
        <time>2026-05-11T13:18:19Z</time>
      </trkpt>
      <trkpt lat="45.97026" lon="5.4939">
        <ele>837.4</ele>
        <time>2026-05-11T13:18:20Z</time>
      </trkpt>
      <trkpt lat="45.97028" lon="5.4939">
        <ele>837.4</ele>
        <time>2026-05-11T13:18:21Z</time>
      </trkpt>
      <trkpt lat="45.9703" lon="5.49391">
        <ele>837.4</ele>
        <time>2026-05-11T13:18:22Z</time>
      </trkpt>
      <trkpt lat="45.97032" lon="5.49391">
        <ele>837.4</ele>
        <time>2026-05-11T13:18:23Z</time>
      </trkpt>
      <trkpt lat="45.97034" lon="5.49392">
        <ele>837.4</ele>
        <time>2026-05-11T13:18:24Z</time>
      </trkpt>
      <trkpt lat="45.97036" lon="5.49393">
        <ele>837.8</ele>
        <time>2026-05-11T13:18:25Z</time>
      </trkpt>
      <trkpt lat="45.97038" lon="5.49395">
        <ele>837.8</ele>
        <time>2026-05-11T13:18:26Z</time>
      </trkpt>
      <trkpt lat="45.97041" lon="5.49397">
        <ele>838</ele>
        <time>2026-05-11T13:18:27Z</time>
      </trkpt>
      <trkpt lat="45.97044" lon="5.49398">
        <ele>838</ele>
        <time>2026-05-11T13:18:28Z</time>
      </trkpt>
      <trkpt lat="45.97046" lon="5.49399">
        <ele>838</ele>
        <time>2026-05-11T13:18:29Z</time>
      </trkpt>
      <trkpt lat="45.97049" lon="5.49401">
        <ele>838</ele>
        <time>2026-05-11T13:18:30Z</time>
      </trkpt>
      <trkpt lat="45.97053" lon="5.49402">
        <ele>838</ele>
        <time>2026-05-11T13:18:31Z</time>
      </trkpt>
      <trkpt lat="45.97056" lon="5.49402">
        <ele>838</ele>
        <time>2026-05-11T13:18:32Z</time>
      </trkpt>
      <trkpt lat="45.9706" lon="5.49403">
        <ele>837.6</ele>
        <time>2026-05-11T13:18:33Z</time>
      </trkpt>
      <trkpt lat="45.97063" lon="5.49404">
        <ele>837.6</ele>
        <time>2026-05-11T13:18:34Z</time>
      </trkpt>
      <trkpt lat="45.97067" lon="5.49405">
        <ele>837.4</ele>
        <time>2026-05-11T13:18:35Z</time>
      </trkpt>
      <trkpt lat="45.9707" lon="5.49405">
        <ele>837.4</ele>
        <time>2026-05-11T13:18:36Z</time>
      </trkpt>
      <trkpt lat="45.97074" lon="5.49405">
        <ele>837.4</ele>
        <time>2026-05-11T13:18:37Z</time>
      </trkpt>
      <trkpt lat="45.97077" lon="5.49405">
        <ele>837.4</ele>
        <time>2026-05-11T13:18:38Z</time>
      </trkpt>
      <trkpt lat="45.97081" lon="5.49404">
        <ele>837.4</ele>
        <time>2026-05-11T13:18:39Z</time>
      </trkpt>
      <trkpt lat="45.97084" lon="5.49403">
        <ele>837.4</ele>
        <time>2026-05-11T13:18:40Z</time>
      </trkpt>
      <trkpt lat="45.97087" lon="5.49401">
        <ele>837.4</ele>
        <time>2026-05-11T13:18:41Z</time>
      </trkpt>
      <trkpt lat="45.9709" lon="5.49399">
        <ele>837.4</ele>
        <time>2026-05-11T13:18:42Z</time>
      </trkpt>
      <trkpt lat="45.97092" lon="5.49397">
        <ele>837.4</ele>
        <time>2026-05-11T13:18:43Z</time>
      </trkpt>
      <trkpt lat="45.97095" lon="5.49395">
        <ele>837.8</ele>
        <time>2026-05-11T13:18:44Z</time>
      </trkpt>
      <trkpt lat="45.97097" lon="5.49393">
        <ele>838</ele>
        <time>2026-05-11T13:18:45Z</time>
      </trkpt>
      <trkpt lat="45.97099" lon="5.49391">
        <ele>838.2</ele>
        <time>2026-05-11T13:18:46Z</time>
      </trkpt>
      <trkpt lat="45.97101" lon="5.4939">
        <ele>838.6</ele>
        <time>2026-05-11T13:18:47Z</time>
      </trkpt>
      <trkpt lat="45.97103" lon="5.49389">
        <ele>838.8</ele>
        <time>2026-05-11T13:18:48Z</time>
      </trkpt>
      <trkpt lat="45.97105" lon="5.49388">
        <ele>839.2</ele>
        <time>2026-05-11T13:18:49Z</time>
      </trkpt>
      <trkpt lat="45.97107" lon="5.49387">
        <ele>839.6</ele>
        <time>2026-05-11T13:18:50Z</time>
      </trkpt>
      <trkpt lat="45.97109" lon="5.49386">
        <ele>839.6</ele>
        <time>2026-05-11T13:18:51Z</time>
      </trkpt>
      <trkpt lat="45.97111" lon="5.49385">
        <ele>839.8</ele>
        <time>2026-05-11T13:18:52Z</time>
      </trkpt>
      <trkpt lat="45.97113" lon="5.49385">
        <ele>839.8</ele>
        <time>2026-05-11T13:18:53Z</time>
      </trkpt>
      <trkpt lat="45.97115" lon="5.49384">
        <ele>840.2</ele>
        <time>2026-05-11T13:18:54Z</time>
      </trkpt>
      <trkpt lat="45.97117" lon="5.49382">
        <ele>840.2</ele>
        <time>2026-05-11T13:18:55Z</time>
      </trkpt>
      <trkpt lat="45.97119" lon="5.49381">
        <ele>840.6</ele>
        <time>2026-05-11T13:18:56Z</time>
      </trkpt>
      <trkpt lat="45.97121" lon="5.4938">
        <ele>840.8</ele>
        <time>2026-05-11T13:18:57Z</time>
      </trkpt>
      <trkpt lat="45.97122" lon="5.49378">
        <ele>841</ele>
        <time>2026-05-11T13:18:58Z</time>
      </trkpt>
      <trkpt lat="45.97124" lon="5.49377">
        <ele>841</ele>
        <time>2026-05-11T13:18:59Z</time>
      </trkpt>
      <trkpt lat="45.97126" lon="5.49375">
        <ele>841.2</ele>
        <time>2026-05-11T13:19:00Z</time>
      </trkpt>
      <trkpt lat="45.97128" lon="5.49374">
        <ele>841.2</ele>
        <time>2026-05-11T13:19:01Z</time>
      </trkpt>
      <trkpt lat="45.97129" lon="5.49373">
        <ele>841.6</ele>
        <time>2026-05-11T13:19:02Z</time>
      </trkpt>
      <trkpt lat="45.97131" lon="5.49371">
        <ele>841.6</ele>
        <time>2026-05-11T13:19:03Z</time>
      </trkpt>
      <trkpt lat="45.97133" lon="5.49369">
        <ele>841.8</ele>
        <time>2026-05-11T13:19:04Z</time>
      </trkpt>
      <trkpt lat="45.97134" lon="5.49368">
        <ele>842</ele>
        <time>2026-05-11T13:19:05Z</time>
      </trkpt>
      <trkpt lat="45.97136" lon="5.49366">
        <ele>842</ele>
        <time>2026-05-11T13:19:06Z</time>
      </trkpt>
      <trkpt lat="45.97138" lon="5.49364">
        <ele>842.4</ele>
        <time>2026-05-11T13:19:07Z</time>
      </trkpt>
      <trkpt lat="45.97139" lon="5.49363">
        <ele>842.4</ele>
        <time>2026-05-11T13:19:08Z</time>
      </trkpt>
      <trkpt lat="45.97141" lon="5.49361">
        <ele>842.8</ele>
        <time>2026-05-11T13:19:09Z</time>
      </trkpt>
      <trkpt lat="45.97143" lon="5.4936">
        <ele>842.8</ele>
        <time>2026-05-11T13:19:10Z</time>
      </trkpt>
      <trkpt lat="45.97144" lon="5.49358">
        <ele>843</ele>
        <time>2026-05-11T13:19:11Z</time>
      </trkpt>
      <trkpt lat="45.97146" lon="5.49357">
        <ele>843</ele>
        <time>2026-05-11T13:19:12Z</time>
      </trkpt>
      <trkpt lat="45.97147" lon="5.49355">
        <ele>843</ele>
        <time>2026-05-11T13:19:13Z</time>
      </trkpt>
      <trkpt lat="45.97149" lon="5.49354">
        <ele>843.4</ele>
        <time>2026-05-11T13:19:14Z</time>
      </trkpt>
      <trkpt lat="45.97151" lon="5.49352">
        <ele>843.4</ele>
        <time>2026-05-11T13:19:15Z</time>
      </trkpt>
      <trkpt lat="45.97152" lon="5.4935">
        <ele>843.4</ele>
        <time>2026-05-11T13:19:16Z</time>
      </trkpt>
      <trkpt lat="45.97154" lon="5.49349">
        <ele>843.6</ele>
        <time>2026-05-11T13:19:17Z</time>
      </trkpt>
      <trkpt lat="45.97156" lon="5.49347">
        <ele>843.6</ele>
        <time>2026-05-11T13:19:18Z</time>
      </trkpt>
      <trkpt lat="45.97157" lon="5.49346">
        <ele>843.6</ele>
        <time>2026-05-11T13:19:19Z</time>
      </trkpt>
      <trkpt lat="45.97159" lon="5.49345">
        <ele>844</ele>
        <time>2026-05-11T13:19:20Z</time>
      </trkpt>
      <trkpt lat="45.97161" lon="5.49343">
        <ele>844</ele>
        <time>2026-05-11T13:19:21Z</time>
      </trkpt>
      <trkpt lat="45.97162" lon="5.49341">
        <ele>844</ele>
        <time>2026-05-11T13:19:22Z</time>
      </trkpt>
      <trkpt lat="45.97164" lon="5.4934">
        <ele>844.4</ele>
        <time>2026-05-11T13:19:23Z</time>
      </trkpt>
      <trkpt lat="45.97165" lon="5.49339">
        <ele>844.6</ele>
        <time>2026-05-11T13:19:24Z</time>
      </trkpt>
      <trkpt lat="45.97167" lon="5.49337">
        <ele>844.6</ele>
        <time>2026-05-11T13:19:25Z</time>
      </trkpt>
      <trkpt lat="45.97169" lon="5.49337">
        <ele>844.6</ele>
        <time>2026-05-11T13:19:26Z</time>
      </trkpt>
      <trkpt lat="45.97171" lon="5.49336">
        <ele>845.2</ele>
        <time>2026-05-11T13:19:27Z</time>
      </trkpt>
      <trkpt lat="45.97173" lon="5.49335">
        <ele>845.4</ele>
        <time>2026-05-11T13:19:28Z</time>
      </trkpt>
      <trkpt lat="45.97174" lon="5.49334">
        <ele>845.4</ele>
        <time>2026-05-11T13:19:29Z</time>
      </trkpt>
      <trkpt lat="45.97176" lon="5.49334">
        <ele>845.6</ele>
        <time>2026-05-11T13:19:30Z</time>
      </trkpt>
      <trkpt lat="45.97178" lon="5.49333">
        <ele>845.8</ele>
        <time>2026-05-11T13:19:31Z</time>
      </trkpt>
      <trkpt lat="45.9718" lon="5.49332">
        <ele>845.8</ele>
        <time>2026-05-11T13:19:32Z</time>
      </trkpt>
      <trkpt lat="45.97182" lon="5.49332">
        <ele>846.2</ele>
        <time>2026-05-11T13:19:33Z</time>
      </trkpt>
      <trkpt lat="45.97183" lon="5.49331">
        <ele>846.4</ele>
        <time>2026-05-11T13:19:34Z</time>
      </trkpt>
      <trkpt lat="45.97185" lon="5.49331">
        <ele>846.4</ele>
        <time>2026-05-11T13:19:35Z</time>
      </trkpt>
      <trkpt lat="45.97187" lon="5.4933">
        <ele>846.6</ele>
        <time>2026-05-11T13:19:36Z</time>
      </trkpt>
      <trkpt lat="45.97189" lon="5.49329">
        <ele>846.6</ele>
        <time>2026-05-11T13:19:37Z</time>
      </trkpt>
      <trkpt lat="45.97191" lon="5.49329">
        <ele>847</ele>
        <time>2026-05-11T13:19:38Z</time>
      </trkpt>
      <trkpt lat="45.97192" lon="5.49328">
        <ele>847</ele>
        <time>2026-05-11T13:19:39Z</time>
      </trkpt>
      <trkpt lat="45.97194" lon="5.49328">
        <ele>847.2</ele>
        <time>2026-05-11T13:19:40Z</time>
      </trkpt>
      <trkpt lat="45.97196" lon="5.49327">
        <ele>847.6</ele>
        <time>2026-05-11T13:19:41Z</time>
      </trkpt>
      <trkpt lat="45.97198" lon="5.49327">
        <ele>847.6</ele>
        <time>2026-05-11T13:19:42Z</time>
      </trkpt>
      <trkpt lat="45.972" lon="5.49327">
        <ele>847.6</ele>
        <time>2026-05-11T13:19:43Z</time>
      </trkpt>
      <trkpt lat="45.97202" lon="5.49326">
        <ele>848</ele>
        <time>2026-05-11T13:19:44Z</time>
      </trkpt>
      <trkpt lat="45.97204" lon="5.49326">
        <ele>848</ele>
        <time>2026-05-11T13:19:45Z</time>
      </trkpt>
      <trkpt lat="45.97205" lon="5.49325">
        <ele>848.4</ele>
        <time>2026-05-11T13:19:46Z</time>
      </trkpt>
      <trkpt lat="45.97207" lon="5.49324">
        <ele>848.6</ele>
        <time>2026-05-11T13:19:47Z</time>
      </trkpt>
      <trkpt lat="45.97209" lon="5.49323">
        <ele>848.6</ele>
        <time>2026-05-11T13:19:48Z</time>
      </trkpt>
      <trkpt lat="45.97211" lon="5.49323">
        <ele>848.6</ele>
        <time>2026-05-11T13:19:49Z</time>
      </trkpt>
      <trkpt lat="45.97213" lon="5.49322">
        <ele>849</ele>
        <time>2026-05-11T13:19:50Z</time>
      </trkpt>
      <trkpt lat="45.97215" lon="5.49321">
        <ele>849.2</ele>
        <time>2026-05-11T13:19:51Z</time>
      </trkpt>
      <trkpt lat="45.97217" lon="5.49321">
        <ele>849.2</ele>
        <time>2026-05-11T13:19:52Z</time>
      </trkpt>
      <trkpt lat="45.97219" lon="5.49321">
        <ele>849.2</ele>
        <time>2026-05-11T13:19:53Z</time>
      </trkpt>
      <trkpt lat="45.9722" lon="5.4932">
        <ele>849.4</ele>
        <time>2026-05-11T13:19:54Z</time>
      </trkpt>
      <trkpt lat="45.97222" lon="5.49319">
        <ele>849.6</ele>
        <time>2026-05-11T13:19:55Z</time>
      </trkpt>
      <trkpt lat="45.97224" lon="5.49319">
        <ele>849.6</ele>
        <time>2026-05-11T13:19:56Z</time>
      </trkpt>
      <trkpt lat="45.97226" lon="5.49318">
        <ele>850</ele>
        <time>2026-05-11T13:19:57Z</time>
      </trkpt>
      <trkpt lat="45.97228" lon="5.49318">
        <ele>850</ele>
        <time>2026-05-11T13:19:58Z</time>
      </trkpt>
      <trkpt lat="45.9723" lon="5.49317">
        <ele>850</ele>
        <time>2026-05-11T13:19:59Z</time>
      </trkpt>
      <trkpt lat="45.97232" lon="5.49317">
        <ele>850.2</ele>
        <time>2026-05-11T13:20:00Z</time>
      </trkpt>
      <trkpt lat="45.97234" lon="5.49315">
        <ele>850.2</ele>
        <time>2026-05-11T13:20:01Z</time>
      </trkpt>
      <trkpt lat="45.97236" lon="5.49314">
        <ele>850.4</ele>
        <time>2026-05-11T13:20:02Z</time>
      </trkpt>
      <trkpt lat="45.97238" lon="5.49313">
        <ele>850.4</ele>
        <time>2026-05-11T13:20:03Z</time>
      </trkpt>
      <trkpt lat="45.97239" lon="5.49312">
        <ele>850.8</ele>
        <time>2026-05-11T13:20:04Z</time>
      </trkpt>
      <trkpt lat="45.97241" lon="5.49312">
        <ele>851</ele>
        <time>2026-05-11T13:20:05Z</time>
      </trkpt>
      <trkpt lat="45.97243" lon="5.49312">
        <ele>851</ele>
        <time>2026-05-11T13:20:06Z</time>
      </trkpt>
      <trkpt lat="45.97245" lon="5.49311">
        <ele>851</ele>
        <time>2026-05-11T13:20:07Z</time>
      </trkpt>
      <trkpt lat="45.97247" lon="5.49311">
        <ele>851.4</ele>
        <time>2026-05-11T13:20:08Z</time>
      </trkpt>
      <trkpt lat="45.97249" lon="5.4931">
        <ele>851.8</ele>
        <time>2026-05-11T13:20:09Z</time>
      </trkpt>
      <trkpt lat="45.97251" lon="5.49309">
        <ele>852.2</ele>
        <time>2026-05-11T13:20:10Z</time>
      </trkpt>
      <trkpt lat="45.97252" lon="5.49309">
        <ele>852.2</ele>
        <time>2026-05-11T13:20:11Z</time>
      </trkpt>
      <trkpt lat="45.97254" lon="5.49308">
        <ele>852.2</ele>
        <time>2026-05-11T13:20:12Z</time>
      </trkpt>
      <trkpt lat="45.97256" lon="5.49308">
        <ele>852.2</ele>
        <time>2026-05-11T13:20:13Z</time>
      </trkpt>
      <trkpt lat="45.97258" lon="5.49307">
        <ele>852.4</ele>
        <time>2026-05-11T13:20:14Z</time>
      </trkpt>
      <trkpt lat="45.9726" lon="5.49307">
        <ele>852.8</ele>
        <time>2026-05-11T13:20:15Z</time>
      </trkpt>
      <trkpt lat="45.97261" lon="5.49306">
        <ele>852.8</ele>
        <time>2026-05-11T13:20:16Z</time>
      </trkpt>
      <trkpt lat="45.97262" lon="5.49305">
        <ele>853.2</ele>
        <time>2026-05-11T13:20:17Z</time>
      </trkpt>
      <trkpt lat="45.97264" lon="5.49305">
        <ele>853.2</ele>
        <time>2026-05-11T13:20:18Z</time>
      </trkpt>
      <trkpt lat="45.97266" lon="5.49305">
        <ele>853.6</ele>
        <time>2026-05-11T13:20:19Z</time>
      </trkpt>
      <trkpt lat="45.97267" lon="5.49305">
        <ele>853.6</ele>
        <time>2026-05-11T13:20:20Z</time>
      </trkpt>
      <trkpt lat="45.97269" lon="5.49304">
        <ele>853.8</ele>
        <time>2026-05-11T13:20:21Z</time>
      </trkpt>
      <trkpt lat="45.9727" lon="5.49304">
        <ele>853.8</ele>
        <time>2026-05-11T13:20:22Z</time>
      </trkpt>
      <trkpt lat="45.97272" lon="5.49303">
        <ele>854</ele>
        <time>2026-05-11T13:20:23Z</time>
      </trkpt>
      <trkpt lat="45.97273" lon="5.49303">
        <ele>854.4</ele>
        <time>2026-05-11T13:20:24Z</time>
      </trkpt>
      <trkpt lat="45.97274" lon="5.49303">
        <ele>854.4</ele>
        <time>2026-05-11T13:20:25Z</time>
      </trkpt>
      <trkpt lat="45.97273" lon="5.49303">
        <ele>854.6</ele>
        <time>2026-05-11T13:20:26Z</time>
      </trkpt>
      <trkpt lat="45.97273" lon="5.49303">
        <ele>854.6</ele>
        <time>2026-05-11T13:20:27Z</time>
      </trkpt>
      <trkpt lat="45.97272" lon="5.493">
        <ele>854.6</ele>
        <time>2026-05-11T13:20:33Z</time>
      </trkpt>
      <trkpt lat="45.97272" lon="5.49299">
        <ele>854.6</ele>
        <time>2026-05-11T13:20:34Z</time>
      </trkpt>
      <trkpt lat="45.97272" lon="5.49299">
        <ele>854.6</ele>
        <time>2026-05-11T13:20:35Z</time>
      </trkpt>
      <trkpt lat="45.97272" lon="5.49299">
        <ele>854.6</ele>
        <time>2026-05-11T13:20:36Z</time>
      </trkpt>
      <trkpt lat="45.97272" lon="5.49299">
        <ele>854.6</ele>
        <time>2026-05-11T13:20:37Z</time>
      </trkpt>
      <trkpt lat="45.97272" lon="5.493">
        <ele>854.4</ele>
        <time>2026-05-11T13:20:38Z</time>
      </trkpt>
      <trkpt lat="45.97271" lon="5.49303">
        <ele>854.6</ele>
        <time>2026-05-11T13:22:57Z</time>
      </trkpt>
      <trkpt lat="45.97272" lon="5.49305">
        <ele>854.6</ele>
        <time>2026-05-11T13:22:58Z</time>
      </trkpt>
      <trkpt lat="45.97272" lon="5.49305">
        <ele>854.6</ele>
        <time>2026-05-11T13:22:59Z</time>
      </trkpt>
      <trkpt lat="45.97272" lon="5.49305">
        <ele>854.6</ele>
        <time>2026-05-11T13:23:00Z</time>
      </trkpt>
      <trkpt lat="45.97273" lon="5.49305">
        <ele>854.6</ele>
        <time>2026-05-11T13:23:01Z</time>
      </trkpt>
      <trkpt lat="45.97275" lon="5.49306">
        <ele>854.2</ele>
        <time>2026-05-11T13:23:02Z</time>
      </trkpt>
      <trkpt lat="45.97276" lon="5.49306">
        <ele>854.2</ele>
        <time>2026-05-11T13:23:03Z</time>
      </trkpt>
      <trkpt lat="45.97278" lon="5.49305">
        <ele>854.2</ele>
        <time>2026-05-11T13:23:04Z</time>
      </trkpt>
      <trkpt lat="45.9728" lon="5.49305">
        <ele>854.2</ele>
        <time>2026-05-11T13:23:05Z</time>
      </trkpt>
      <trkpt lat="45.97282" lon="5.49304">
        <ele>854.2</ele>
        <time>2026-05-11T13:23:06Z</time>
      </trkpt>
      <trkpt lat="45.97284" lon="5.49304">
        <ele>854.2</ele>
        <time>2026-05-11T13:23:07Z</time>
      </trkpt>
      <trkpt lat="45.97286" lon="5.49304">
        <ele>854.2</ele>
        <time>2026-05-11T13:23:08Z</time>
      </trkpt>
      <trkpt lat="45.97288" lon="5.49304">
        <ele>854.2</ele>
        <time>2026-05-11T13:23:09Z</time>
      </trkpt>
      <trkpt lat="45.9729" lon="5.49303">
        <ele>854.6</ele>
        <time>2026-05-11T13:23:10Z</time>
      </trkpt>
      <trkpt lat="45.9729" lon="5.49303">
        <ele>854.6</ele>
        <time>2026-05-11T13:23:11Z</time>
      </trkpt>
      <trkpt lat="45.97292" lon="5.49303">
        <ele>855</ele>
        <time>2026-05-11T13:23:12Z</time>
      </trkpt>
      <trkpt lat="45.97294" lon="5.49303">
        <ele>855</ele>
        <time>2026-05-11T13:23:13Z</time>
      </trkpt>
      <trkpt lat="45.97297" lon="5.49302">
        <ele>855.2</ele>
        <time>2026-05-11T13:23:14Z</time>
      </trkpt>
      <trkpt lat="45.97299" lon="5.49302">
        <ele>855.2</ele>
        <time>2026-05-11T13:23:15Z</time>
      </trkpt>
      <trkpt lat="45.973" lon="5.49302">
        <ele>855.4</ele>
        <time>2026-05-11T13:23:16Z</time>
      </trkpt>
      <trkpt lat="45.97302" lon="5.49301">
        <ele>855.6</ele>
        <time>2026-05-11T13:23:17Z</time>
      </trkpt>
      <trkpt lat="45.97304" lon="5.493">
        <ele>855.6</ele>
        <time>2026-05-11T13:23:18Z</time>
      </trkpt>
      <trkpt lat="45.97306" lon="5.493">
        <ele>856</ele>
        <time>2026-05-11T13:23:19Z</time>
      </trkpt>
      <trkpt lat="45.97308" lon="5.493">
        <ele>856.2</ele>
        <time>2026-05-11T13:23:20Z</time>
      </trkpt>
      <trkpt lat="45.9731" lon="5.49299">
        <ele>856.2</ele>
        <time>2026-05-11T13:23:21Z</time>
      </trkpt>
      <trkpt lat="45.97312" lon="5.49299">
        <ele>856.4</ele>
        <time>2026-05-11T13:23:22Z</time>
      </trkpt>
      <trkpt lat="45.97314" lon="5.49299">
        <ele>856.8</ele>
        <time>2026-05-11T13:23:23Z</time>
      </trkpt>
      <trkpt lat="45.97315" lon="5.49298">
        <ele>857</ele>
        <time>2026-05-11T13:23:24Z</time>
      </trkpt>
      <trkpt lat="45.97317" lon="5.49298">
        <ele>857</ele>
        <time>2026-05-11T13:23:25Z</time>
      </trkpt>
      <trkpt lat="45.97319" lon="5.49297">
        <ele>857</ele>
        <time>2026-05-11T13:23:26Z</time>
      </trkpt>
      <trkpt lat="45.9732" lon="5.49297">
        <ele>857.4</ele>
        <time>2026-05-11T13:23:27Z</time>
      </trkpt>
      <trkpt lat="45.97322" lon="5.49297">
        <ele>857.4</ele>
        <time>2026-05-11T13:23:28Z</time>
      </trkpt>
      <trkpt lat="45.97324" lon="5.49297">
        <ele>857.8</ele>
        <time>2026-05-11T13:23:29Z</time>
      </trkpt>
      <trkpt lat="45.97326" lon="5.49297">
        <ele>857.8</ele>
        <time>2026-05-11T13:23:30Z</time>
      </trkpt>
      <trkpt lat="45.97328" lon="5.49298">
        <ele>857.8</ele>
        <time>2026-05-11T13:23:31Z</time>
      </trkpt>
      <trkpt lat="45.97329" lon="5.49297">
        <ele>858</ele>
        <time>2026-05-11T13:23:32Z</time>
      </trkpt>
      <trkpt lat="45.97331" lon="5.49297">
        <ele>858</ele>
        <time>2026-05-11T13:23:33Z</time>
      </trkpt>
      <trkpt lat="45.97333" lon="5.49296">
        <ele>858</ele>
        <time>2026-05-11T13:23:34Z</time>
      </trkpt>
      <trkpt lat="45.97334" lon="5.49294">
        <ele>858.4</ele>
        <time>2026-05-11T13:23:35Z</time>
      </trkpt>
      <trkpt lat="45.97336" lon="5.49293">
        <ele>858.8</ele>
        <time>2026-05-11T13:23:36Z</time>
      </trkpt>
      <trkpt lat="45.97337" lon="5.49292">
        <ele>859</ele>
        <time>2026-05-11T13:23:37Z</time>
      </trkpt>
      <trkpt lat="45.97339" lon="5.49292">
        <ele>859</ele>
        <time>2026-05-11T13:23:38Z</time>
      </trkpt>
      <trkpt lat="45.97341" lon="5.49292">
        <ele>859</ele>
        <time>2026-05-11T13:23:39Z</time>
      </trkpt>
      <trkpt lat="45.97344" lon="5.49291">
        <ele>859.2</ele>
        <time>2026-05-11T13:23:40Z</time>
      </trkpt>
      <trkpt lat="45.97346" lon="5.49291">
        <ele>859.2</ele>
        <time>2026-05-11T13:23:41Z</time>
      </trkpt>
      <trkpt lat="45.97348" lon="5.49291">
        <ele>859.6</ele>
        <time>2026-05-11T13:23:42Z</time>
      </trkpt>
      <trkpt lat="45.9735" lon="5.4929">
        <ele>859.8</ele>
        <time>2026-05-11T13:23:43Z</time>
      </trkpt>
      <trkpt lat="45.97352" lon="5.4929">
        <ele>859.8</ele>
        <time>2026-05-11T13:23:44Z</time>
      </trkpt>
      <trkpt lat="45.97354" lon="5.4929">
        <ele>860</ele>
        <time>2026-05-11T13:23:45Z</time>
      </trkpt>
      <trkpt lat="45.97356" lon="5.4929">
        <ele>860</ele>
        <time>2026-05-11T13:23:46Z</time>
      </trkpt>
      <trkpt lat="45.97357" lon="5.49289">
        <ele>860.4</ele>
        <time>2026-05-11T13:23:47Z</time>
      </trkpt>
      <trkpt lat="45.97359" lon="5.49289">
        <ele>860.6</ele>
        <time>2026-05-11T13:23:48Z</time>
      </trkpt>
      <trkpt lat="45.97361" lon="5.49289">
        <ele>860.6</ele>
        <time>2026-05-11T13:23:49Z</time>
      </trkpt>
      <trkpt lat="45.97363" lon="5.49288">
        <ele>860.8</ele>
        <time>2026-05-11T13:23:50Z</time>
      </trkpt>
      <trkpt lat="45.97364" lon="5.49288">
        <ele>860.8</ele>
        <time>2026-05-11T13:23:51Z</time>
      </trkpt>
      <trkpt lat="45.97366" lon="5.49288">
        <ele>861.2</ele>
        <time>2026-05-11T13:23:52Z</time>
      </trkpt>
      <trkpt lat="45.97368" lon="5.49287">
        <ele>861.2</ele>
        <time>2026-05-11T13:23:53Z</time>
      </trkpt>
      <trkpt lat="45.97369" lon="5.49287">
        <ele>861.4</ele>
        <time>2026-05-11T13:23:54Z</time>
      </trkpt>
      <trkpt lat="45.97371" lon="5.49287">
        <ele>861.4</ele>
        <time>2026-05-11T13:23:55Z</time>
      </trkpt>
      <trkpt lat="45.97373" lon="5.49286">
        <ele>861.4</ele>
        <time>2026-05-11T13:23:56Z</time>
      </trkpt>
      <trkpt lat="45.97375" lon="5.49286">
        <ele>861.6</ele>
        <time>2026-05-11T13:23:57Z</time>
      </trkpt>
      <trkpt lat="45.97377" lon="5.49286">
        <ele>861.6</ele>
        <time>2026-05-11T13:23:58Z</time>
      </trkpt>
      <trkpt lat="45.97379" lon="5.49286">
        <ele>861.8</ele>
        <time>2026-05-11T13:23:59Z</time>
      </trkpt>
      <trkpt lat="45.97381" lon="5.49286">
        <ele>862</ele>
        <time>2026-05-11T13:24:00Z</time>
      </trkpt>
      <trkpt lat="45.97383" lon="5.49286">
        <ele>862</ele>
        <time>2026-05-11T13:24:01Z</time>
      </trkpt>
      <trkpt lat="45.97385" lon="5.49286">
        <ele>862</ele>
        <time>2026-05-11T13:24:02Z</time>
      </trkpt>
      <trkpt lat="45.97386" lon="5.49285">
        <ele>862.4</ele>
        <time>2026-05-11T13:24:03Z</time>
      </trkpt>
      <trkpt lat="45.97388" lon="5.49285">
        <ele>862.4</ele>
        <time>2026-05-11T13:24:04Z</time>
      </trkpt>
      <trkpt lat="45.9739" lon="5.49284">
        <ele>862.4</ele>
        <time>2026-05-11T13:24:05Z</time>
      </trkpt>
      <trkpt lat="45.97392" lon="5.49283">
        <ele>862.6</ele>
        <time>2026-05-11T13:24:06Z</time>
      </trkpt>
      <trkpt lat="45.97394" lon="5.49282">
        <ele>862.6</ele>
        <time>2026-05-11T13:24:07Z</time>
      </trkpt>
      <trkpt lat="45.97396" lon="5.49282">
        <ele>862.8</ele>
        <time>2026-05-11T13:24:08Z</time>
      </trkpt>
      <trkpt lat="45.97397" lon="5.49281">
        <ele>862.8</ele>
        <time>2026-05-11T13:24:09Z</time>
      </trkpt>
      <trkpt lat="45.97399" lon="5.49281">
        <ele>862.8</ele>
        <time>2026-05-11T13:24:10Z</time>
      </trkpt>
      <trkpt lat="45.97401" lon="5.4928">
        <ele>862.8</ele>
        <time>2026-05-11T13:24:11Z</time>
      </trkpt>
      <trkpt lat="45.97403" lon="5.4928">
        <ele>862.8</ele>
        <time>2026-05-11T13:24:12Z</time>
      </trkpt>
      <trkpt lat="45.97405" lon="5.4928">
        <ele>863.2</ele>
        <time>2026-05-11T13:24:13Z</time>
      </trkpt>
      <trkpt lat="45.97407" lon="5.49279">
        <ele>863.2</ele>
        <time>2026-05-11T13:24:14Z</time>
      </trkpt>
      <trkpt lat="45.97409" lon="5.49279">
        <ele>863.4</ele>
        <time>2026-05-11T13:24:15Z</time>
      </trkpt>
      <trkpt lat="45.97411" lon="5.49279">
        <ele>863.4</ele>
        <time>2026-05-11T13:24:16Z</time>
      </trkpt>
      <trkpt lat="45.97414" lon="5.49279">
        <ele>863.4</ele>
        <time>2026-05-11T13:24:17Z</time>
      </trkpt>
      <trkpt lat="45.97416" lon="5.4928">
        <ele>863.4</ele>
        <time>2026-05-11T13:24:18Z</time>
      </trkpt>
      <trkpt lat="45.97418" lon="5.4928">
        <ele>863.4</ele>
        <time>2026-05-11T13:24:19Z</time>
      </trkpt>
      <trkpt lat="45.97419" lon="5.4928">
        <ele>863.4</ele>
        <time>2026-05-11T13:24:20Z</time>
      </trkpt>
      <trkpt lat="45.97421" lon="5.49281">
        <ele>863.4</ele>
        <time>2026-05-11T13:24:21Z</time>
      </trkpt>
      <trkpt lat="45.97424" lon="5.49281">
        <ele>863.4</ele>
        <time>2026-05-11T13:24:22Z</time>
      </trkpt>
      <trkpt lat="45.97426" lon="5.49281">
        <ele>863.4</ele>
        <time>2026-05-11T13:24:23Z</time>
      </trkpt>
      <trkpt lat="45.97429" lon="5.49281">
        <ele>863.4</ele>
        <time>2026-05-11T13:24:24Z</time>
      </trkpt>
      <trkpt lat="45.97432" lon="5.49282">
        <ele>863.2</ele>
        <time>2026-05-11T13:24:25Z</time>
      </trkpt>
      <trkpt lat="45.97435" lon="5.49283">
        <ele>862.8</ele>
        <time>2026-05-11T13:24:26Z</time>
      </trkpt>
      <trkpt lat="45.97438" lon="5.49284">
        <ele>862.6</ele>
        <time>2026-05-11T13:24:27Z</time>
      </trkpt>
      <trkpt lat="45.97442" lon="5.49286">
        <ele>862.4</ele>
        <time>2026-05-11T13:24:28Z</time>
      </trkpt>
      <trkpt lat="45.97445" lon="5.49288">
        <ele>862.4</ele>
        <time>2026-05-11T13:24:29Z</time>
      </trkpt>
      <trkpt lat="45.97448" lon="5.4929">
        <ele>862</ele>
        <time>2026-05-11T13:24:30Z</time>
      </trkpt>
      <trkpt lat="45.97451" lon="5.49294">
        <ele>862</ele>
        <time>2026-05-11T13:24:31Z</time>
      </trkpt>
      <trkpt lat="45.97452" lon="5.49301">
        <ele>862</ele>
        <time>2026-05-11T13:24:32Z</time>
      </trkpt>
      <trkpt lat="45.97453" lon="5.49307">
        <ele>861.4</ele>
        <time>2026-05-11T13:24:33Z</time>
      </trkpt>
      <trkpt lat="45.97454" lon="5.49314">
        <ele>861</ele>
        <time>2026-05-11T13:24:34Z</time>
      </trkpt>
      <trkpt lat="45.97454" lon="5.49321">
        <ele>860.6</ele>
        <time>2026-05-11T13:24:35Z</time>
      </trkpt>
      <trkpt lat="45.97453" lon="5.49327">
        <ele>860.2</ele>
        <time>2026-05-11T13:24:36Z</time>
      </trkpt>
      <trkpt lat="45.97454" lon="5.49334">
        <ele>860</ele>
        <time>2026-05-11T13:24:37Z</time>
      </trkpt>
      <trkpt lat="45.97455" lon="5.4934">
        <ele>858.8</ele>
        <time>2026-05-11T13:24:38Z</time>
      </trkpt>
      <trkpt lat="45.97457" lon="5.49347">
        <ele>858.8</ele>
        <time>2026-05-11T13:24:39Z</time>
      </trkpt>
      <trkpt lat="45.97459" lon="5.49352">
        <ele>858.8</ele>
        <time>2026-05-11T13:24:40Z</time>
      </trkpt>
      <trkpt lat="45.97462" lon="5.49357">
        <ele>857.6</ele>
        <time>2026-05-11T13:24:41Z</time>
      </trkpt>
      <trkpt lat="45.97466" lon="5.49361">
        <ele>858</ele>
        <time>2026-05-11T13:24:42Z</time>
      </trkpt>
      <trkpt lat="45.9747" lon="5.49363">
        <ele>858.4</ele>
        <time>2026-05-11T13:24:43Z</time>
      </trkpt>
      <trkpt lat="45.97475" lon="5.49365">
        <ele>858.4</ele>
        <time>2026-05-11T13:24:44Z</time>
      </trkpt>
      <trkpt lat="45.97479" lon="5.49367">
        <ele>858.4</ele>
        <time>2026-05-11T13:24:45Z</time>
      </trkpt>
      <trkpt lat="45.97484" lon="5.49368">
        <ele>858.8</ele>
        <time>2026-05-11T13:24:46Z</time>
      </trkpt>
      <trkpt lat="45.9749" lon="5.49367">
        <ele>859</ele>
        <time>2026-05-11T13:24:47Z</time>
      </trkpt>
      <trkpt lat="45.97494" lon="5.49367">
        <ele>858.8</ele>
        <time>2026-05-11T13:24:48Z</time>
      </trkpt>
      <trkpt lat="45.97499" lon="5.49367">
        <ele>858.8</ele>
        <time>2026-05-11T13:24:49Z</time>
      </trkpt>
      <trkpt lat="45.97502" lon="5.49367">
        <ele>858</ele>
        <time>2026-05-11T13:24:50Z</time>
      </trkpt>
      <trkpt lat="45.97506" lon="5.49367">
        <ele>858.4</ele>
        <time>2026-05-11T13:24:51Z</time>
      </trkpt>
      <trkpt lat="45.97508" lon="5.49366">
        <ele>858.4</ele>
        <time>2026-05-11T13:24:52Z</time>
      </trkpt>
      <trkpt lat="45.97512" lon="5.49365">
        <ele>858.6</ele>
        <time>2026-05-11T13:24:53Z</time>
      </trkpt>
      <trkpt lat="45.97515" lon="5.49366">
        <ele>858.8</ele>
        <time>2026-05-11T13:24:54Z</time>
      </trkpt>
      <trkpt lat="45.97519" lon="5.49366">
        <ele>859.2</ele>
        <time>2026-05-11T13:24:55Z</time>
      </trkpt>
      <trkpt lat="45.97523" lon="5.49366">
        <ele>858.6</ele>
        <time>2026-05-11T13:24:56Z</time>
      </trkpt>
      <trkpt lat="45.97527" lon="5.49366">
        <ele>858.4</ele>
        <time>2026-05-11T13:24:57Z</time>
      </trkpt>
      <trkpt lat="45.97533" lon="5.49366">
        <ele>858</ele>
        <time>2026-05-11T13:24:58Z</time>
      </trkpt>
      <trkpt lat="45.97537" lon="5.49367">
        <ele>858</ele>
        <time>2026-05-11T13:24:59Z</time>
      </trkpt>
      <trkpt lat="45.97543" lon="5.49367">
        <ele>857.4</ele>
        <time>2026-05-11T13:25:00Z</time>
      </trkpt>
      <trkpt lat="45.97549" lon="5.49367">
        <ele>857</ele>
        <time>2026-05-11T13:25:01Z</time>
      </trkpt>
      <trkpt lat="45.97556" lon="5.49366">
        <ele>856.2</ele>
        <time>2026-05-11T13:25:02Z</time>
      </trkpt>
      <trkpt lat="45.97562" lon="5.49367">
        <ele>855.2</ele>
        <time>2026-05-11T13:25:03Z</time>
      </trkpt>
      <trkpt lat="45.97569" lon="5.49367">
        <ele>855.2</ele>
        <time>2026-05-11T13:25:04Z</time>
      </trkpt>
      <trkpt lat="45.97576" lon="5.49368">
        <ele>854.6</ele>
        <time>2026-05-11T13:25:05Z</time>
      </trkpt>
      <trkpt lat="45.97582" lon="5.4937">
        <ele>854.4</ele>
        <time>2026-05-11T13:25:06Z</time>
      </trkpt>
      <trkpt lat="45.97588" lon="5.49371">
        <ele>854.4</ele>
        <time>2026-05-11T13:25:07Z</time>
      </trkpt>
      <trkpt lat="45.97593" lon="5.49375">
        <ele>854.2</ele>
        <time>2026-05-11T13:25:08Z</time>
      </trkpt>
      <trkpt lat="45.97597" lon="5.49378">
        <ele>854.2</ele>
        <time>2026-05-11T13:25:09Z</time>
      </trkpt>
      <trkpt lat="45.976" lon="5.49381">
        <ele>854.2</ele>
        <time>2026-05-11T13:25:10Z</time>
      </trkpt>
      <trkpt lat="45.97603" lon="5.49385">
        <ele>853.8</ele>
        <time>2026-05-11T13:25:11Z</time>
      </trkpt>
      <trkpt lat="45.97603" lon="5.49385">
        <ele>853.6</ele>
        <time>2026-05-11T13:25:12Z</time>
      </trkpt>
      <trkpt lat="45.97607" lon="5.49389">
        <ele>854</ele>
        <time>2026-05-11T13:25:13Z</time>
      </trkpt>
      <trkpt lat="45.9761" lon="5.49393">
        <ele>853.4</ele>
        <time>2026-05-11T13:25:14Z</time>
      </trkpt>
      <trkpt lat="45.97615" lon="5.494">
        <ele>852.6</ele>
        <time>2026-05-11T13:25:15Z</time>
      </trkpt>
      <trkpt lat="45.97621" lon="5.49403">
        <ele>851.6</ele>
        <time>2026-05-11T13:25:16Z</time>
      </trkpt>
      <trkpt lat="45.97626" lon="5.49405">
        <ele>851.6</ele>
        <time>2026-05-11T13:25:17Z</time>
      </trkpt>
      <trkpt lat="45.9763" lon="5.49406">
        <ele>851.2</ele>
        <time>2026-05-11T13:25:18Z</time>
      </trkpt>
      <trkpt lat="45.97637" lon="5.49407">
        <ele>850.8</ele>
        <time>2026-05-11T13:25:19Z</time>
      </trkpt>
      <trkpt lat="45.97642" lon="5.49408">
        <ele>851.2</ele>
        <time>2026-05-11T13:25:20Z</time>
      </trkpt>
      <trkpt lat="45.97648" lon="5.49409">
        <ele>851.2</ele>
        <time>2026-05-11T13:25:21Z</time>
      </trkpt>
      <trkpt lat="45.97654" lon="5.4941">
        <ele>851.2</ele>
        <time>2026-05-11T13:25:22Z</time>
      </trkpt>
      <trkpt lat="45.97659" lon="5.49413">
        <ele>851.2</ele>
        <time>2026-05-11T13:25:23Z</time>
      </trkpt>
      <trkpt lat="45.97664" lon="5.49413">
        <ele>851.2</ele>
        <time>2026-05-11T13:25:24Z</time>
      </trkpt>
      <trkpt lat="45.97669" lon="5.49415">
        <ele>851.2</ele>
        <time>2026-05-11T13:25:25Z</time>
      </trkpt>
      <trkpt lat="45.97674" lon="5.49415">
        <ele>851.6</ele>
        <time>2026-05-11T13:25:26Z</time>
      </trkpt>
      <trkpt lat="45.97679" lon="5.49418">
        <ele>851.6</ele>
        <time>2026-05-11T13:25:27Z</time>
      </trkpt>
      <trkpt lat="45.97684" lon="5.49419">
        <ele>851.8</ele>
        <time>2026-05-11T13:25:28Z</time>
      </trkpt>
      <trkpt lat="45.97689" lon="5.49421">
        <ele>851.8</ele>
        <time>2026-05-11T13:25:29Z</time>
      </trkpt>
      <trkpt lat="45.97694" lon="5.49424">
        <ele>851.6</ele>
        <time>2026-05-11T13:25:30Z</time>
      </trkpt>
      <trkpt lat="45.97699" lon="5.49427">
        <ele>851.6</ele>
        <time>2026-05-11T13:25:31Z</time>
      </trkpt>
      <trkpt lat="45.97703" lon="5.49429">
        <ele>852</ele>
        <time>2026-05-11T13:25:32Z</time>
      </trkpt>
      <trkpt lat="45.97707" lon="5.49433">
        <ele>852.2</ele>
        <time>2026-05-11T13:25:33Z</time>
      </trkpt>
      <trkpt lat="45.9771" lon="5.49436">
        <ele>852.8</ele>
        <time>2026-05-11T13:25:34Z</time>
      </trkpt>
      <trkpt lat="45.97714" lon="5.49439">
        <ele>853.6</ele>
        <time>2026-05-11T13:25:35Z</time>
      </trkpt>
      <trkpt lat="45.97717" lon="5.49442">
        <ele>853.6</ele>
        <time>2026-05-11T13:25:36Z</time>
      </trkpt>
      <trkpt lat="45.97719" lon="5.49446">
        <ele>853.6</ele>
        <time>2026-05-11T13:25:37Z</time>
      </trkpt>
      <trkpt lat="45.97722" lon="5.4945">
        <ele>854.2</ele>
        <time>2026-05-11T13:25:38Z</time>
      </trkpt>
      <trkpt lat="45.97725" lon="5.49453">
        <ele>854.4</ele>
        <time>2026-05-11T13:25:39Z</time>
      </trkpt>
      <trkpt lat="45.97727" lon="5.49456">
        <ele>855</ele>
        <time>2026-05-11T13:25:40Z</time>
      </trkpt>
      <trkpt lat="45.97729" lon="5.49458">
        <ele>854.8</ele>
        <time>2026-05-11T13:25:41Z</time>
      </trkpt>
      <trkpt lat="45.97732" lon="5.4946">
        <ele>854.8</ele>
        <time>2026-05-11T13:25:42Z</time>
      </trkpt>
      <trkpt lat="45.97734" lon="5.49463">
        <ele>853.6</ele>
        <time>2026-05-11T13:25:43Z</time>
      </trkpt>
      <trkpt lat="45.97735" lon="5.49463">
        <ele>854.2</ele>
        <time>2026-05-11T13:25:44Z</time>
      </trkpt>
      <trkpt lat="45.97738" lon="5.49465">
        <ele>855.2</ele>
        <time>2026-05-11T13:25:45Z</time>
      </trkpt>
      <trkpt lat="45.9774" lon="5.49468">
        <ele>855.2</ele>
        <time>2026-05-11T13:25:46Z</time>
      </trkpt>
      <trkpt lat="45.97741" lon="5.4947">
        <ele>855.4</ele>
        <time>2026-05-11T13:25:47Z</time>
      </trkpt>
      <trkpt lat="45.97743" lon="5.49472">
        <ele>855.8</ele>
        <time>2026-05-11T13:25:48Z</time>
      </trkpt>
      <trkpt lat="45.97745" lon="5.49474">
        <ele>856</ele>
        <time>2026-05-11T13:25:49Z</time>
      </trkpt>
      <trkpt lat="45.97747" lon="5.49474">
        <ele>856.4</ele>
        <time>2026-05-11T13:25:50Z</time>
      </trkpt>
      <trkpt lat="45.97749" lon="5.49475">
        <ele>856.4</ele>
        <time>2026-05-11T13:25:51Z</time>
      </trkpt>
      <trkpt lat="45.9775" lon="5.49476">
        <ele>857</ele>
        <time>2026-05-11T13:25:52Z</time>
      </trkpt>
      <trkpt lat="45.97752" lon="5.49478">
        <ele>857</ele>
        <time>2026-05-11T13:25:53Z</time>
      </trkpt>
      <trkpt lat="45.97754" lon="5.49479">
        <ele>857.4</ele>
        <time>2026-05-11T13:25:54Z</time>
      </trkpt>
      <trkpt lat="45.97756" lon="5.4948">
        <ele>857.4</ele>
        <time>2026-05-11T13:25:55Z</time>
      </trkpt>
      <trkpt lat="45.97758" lon="5.49481">
        <ele>857.8</ele>
        <time>2026-05-11T13:25:56Z</time>
      </trkpt>
      <trkpt lat="45.9776" lon="5.49483">
        <ele>857.8</ele>
        <time>2026-05-11T13:25:57Z</time>
      </trkpt>
      <trkpt lat="45.97762" lon="5.49484">
        <ele>858.4</ele>
        <time>2026-05-11T13:25:58Z</time>
      </trkpt>
      <trkpt lat="45.97765" lon="5.49486">
        <ele>858.6</ele>
        <time>2026-05-11T13:25:59Z</time>
      </trkpt>
      <trkpt lat="45.97767" lon="5.49487">
        <ele>858.6</ele>
        <time>2026-05-11T13:26:00Z</time>
      </trkpt>
      <trkpt lat="45.9777" lon="5.49488">
        <ele>859</ele>
        <time>2026-05-11T13:26:01Z</time>
      </trkpt>
      <trkpt lat="45.97773" lon="5.49489">
        <ele>858.6</ele>
        <time>2026-05-11T13:26:02Z</time>
      </trkpt>
      <trkpt lat="45.97777" lon="5.4949">
        <ele>859.2</ele>
        <time>2026-05-11T13:26:03Z</time>
      </trkpt>
      <trkpt lat="45.97779" lon="5.49491">
        <ele>859.2</ele>
        <time>2026-05-11T13:26:04Z</time>
      </trkpt>
      <trkpt lat="45.97782" lon="5.49493">
        <ele>859.4</ele>
        <time>2026-05-11T13:26:05Z</time>
      </trkpt>
      <trkpt lat="45.97784" lon="5.49494">
        <ele>859.4</ele>
        <time>2026-05-11T13:26:06Z</time>
      </trkpt>
      <trkpt lat="45.97787" lon="5.49496">
        <ele>859.4</ele>
        <time>2026-05-11T13:26:07Z</time>
      </trkpt>
      <trkpt lat="45.97789" lon="5.49498">
        <ele>859.4</ele>
        <time>2026-05-11T13:26:08Z</time>
      </trkpt>
      <trkpt lat="45.97791" lon="5.49498">
        <ele>859.8</ele>
        <time>2026-05-11T13:26:09Z</time>
      </trkpt>
      <trkpt lat="45.97793" lon="5.49499">
        <ele>859.8</ele>
        <time>2026-05-11T13:26:10Z</time>
      </trkpt>
      <trkpt lat="45.97796" lon="5.495">
        <ele>859.8</ele>
        <time>2026-05-11T13:26:11Z</time>
      </trkpt>
      <trkpt lat="45.97798" lon="5.49501">
        <ele>859.8</ele>
        <time>2026-05-11T13:26:12Z</time>
      </trkpt>
      <trkpt lat="45.97801" lon="5.49502">
        <ele>859.8</ele>
        <time>2026-05-11T13:26:13Z</time>
      </trkpt>
      <trkpt lat="45.97804" lon="5.49503">
        <ele>859.2</ele>
        <time>2026-05-11T13:26:14Z</time>
      </trkpt>
      <trkpt lat="45.97806" lon="5.49503">
        <ele>858.8</ele>
        <time>2026-05-11T13:26:15Z</time>
      </trkpt>
      <trkpt lat="45.97809" lon="5.49504">
        <ele>858.8</ele>
        <time>2026-05-11T13:26:16Z</time>
      </trkpt>
      <trkpt lat="45.97812" lon="5.49506">
        <ele>858.8</ele>
        <time>2026-05-11T13:26:17Z</time>
      </trkpt>
      <trkpt lat="45.97815" lon="5.49508">
        <ele>858.8</ele>
        <time>2026-05-11T13:26:18Z</time>
      </trkpt>
      <trkpt lat="45.97818" lon="5.49508">
        <ele>858.8</ele>
        <time>2026-05-11T13:26:19Z</time>
      </trkpt>
      <trkpt lat="45.97821" lon="5.49508">
        <ele>858.8</ele>
        <time>2026-05-11T13:26:20Z</time>
      </trkpt>
      <trkpt lat="45.97824" lon="5.49509">
        <ele>858.8</ele>
        <time>2026-05-11T13:26:21Z</time>
      </trkpt>
      <trkpt lat="45.97828" lon="5.4951">
        <ele>859</ele>
        <time>2026-05-11T13:26:22Z</time>
      </trkpt>
      <trkpt lat="45.97831" lon="5.4951">
        <ele>858.4</ele>
        <time>2026-05-11T13:26:23Z</time>
      </trkpt>
      <trkpt lat="45.97834" lon="5.49511">
        <ele>858.4</ele>
        <time>2026-05-11T13:26:24Z</time>
      </trkpt>
      <trkpt lat="45.97836" lon="5.49511">
        <ele>858.4</ele>
        <time>2026-05-11T13:26:25Z</time>
      </trkpt>
      <trkpt lat="45.9784" lon="5.49511">
        <ele>859</ele>
        <time>2026-05-11T13:26:26Z</time>
      </trkpt>
      <trkpt lat="45.97842" lon="5.49512">
        <ele>859</ele>
        <time>2026-05-11T13:26:27Z</time>
      </trkpt>
      <trkpt lat="45.97845" lon="5.49513">
        <ele>859.2</ele>
        <time>2026-05-11T13:26:28Z</time>
      </trkpt>
      <trkpt lat="45.97848" lon="5.49514">
        <ele>859.2</ele>
        <time>2026-05-11T13:26:29Z</time>
      </trkpt>
      <trkpt lat="45.9785" lon="5.49514">
        <ele>859.6</ele>
        <time>2026-05-11T13:26:30Z</time>
      </trkpt>
      <trkpt lat="45.97853" lon="5.49515">
        <ele>860</ele>
        <time>2026-05-11T13:26:31Z</time>
      </trkpt>
      <trkpt lat="45.97856" lon="5.49516">
        <ele>860</ele>
        <time>2026-05-11T13:26:32Z</time>
      </trkpt>
      <trkpt lat="45.97858" lon="5.49517">
        <ele>860.2</ele>
        <time>2026-05-11T13:26:33Z</time>
      </trkpt>
      <trkpt lat="45.9786" lon="5.49519">
        <ele>859.6</ele>
        <time>2026-05-11T13:26:34Z</time>
      </trkpt>
      <trkpt lat="45.97862" lon="5.4952">
        <ele>859.6</ele>
        <time>2026-05-11T13:26:35Z</time>
      </trkpt>
      <trkpt lat="45.97865" lon="5.49521">
        <ele>860</ele>
        <time>2026-05-11T13:26:36Z</time>
      </trkpt>
      <trkpt lat="45.97868" lon="5.49522">
        <ele>860.2</ele>
        <time>2026-05-11T13:26:37Z</time>
      </trkpt>
      <trkpt lat="45.9787" lon="5.49523">
        <ele>860.4</ele>
        <time>2026-05-11T13:26:38Z</time>
      </trkpt>
      <trkpt lat="45.97873" lon="5.49524">
        <ele>860.4</ele>
        <time>2026-05-11T13:26:39Z</time>
      </trkpt>
      <trkpt lat="45.97875" lon="5.49526">
        <ele>860.4</ele>
        <time>2026-05-11T13:26:40Z</time>
      </trkpt>
      <trkpt lat="45.97878" lon="5.49527">
        <ele>860.4</ele>
        <time>2026-05-11T13:26:41Z</time>
      </trkpt>
      <trkpt lat="45.97881" lon="5.49529">
        <ele>860.4</ele>
        <time>2026-05-11T13:26:42Z</time>
      </trkpt>
      <trkpt lat="45.97884" lon="5.4953">
        <ele>860.8</ele>
        <time>2026-05-11T13:26:43Z</time>
      </trkpt>
      <trkpt lat="45.97886" lon="5.4953">
        <ele>860.8</ele>
        <time>2026-05-11T13:26:44Z</time>
      </trkpt>
      <trkpt lat="45.97889" lon="5.4953">
        <ele>860.8</ele>
        <time>2026-05-11T13:26:45Z</time>
      </trkpt>
      <trkpt lat="45.97892" lon="5.49531">
        <ele>861.4</ele>
        <time>2026-05-11T13:26:46Z</time>
      </trkpt>
      <trkpt lat="45.97895" lon="5.49532">
        <ele>862</ele>
        <time>2026-05-11T13:26:47Z</time>
      </trkpt>
      <trkpt lat="45.97897" lon="5.49533">
        <ele>861.8</ele>
        <time>2026-05-11T13:26:48Z</time>
      </trkpt>
      <trkpt lat="45.97899" lon="5.49533">
        <ele>861.8</ele>
        <time>2026-05-11T13:26:49Z</time>
      </trkpt>
      <trkpt lat="45.97901" lon="5.49535">
        <ele>862</ele>
        <time>2026-05-11T13:26:50Z</time>
      </trkpt>
      <trkpt lat="45.97904" lon="5.49535">
        <ele>862</ele>
        <time>2026-05-11T13:26:51Z</time>
      </trkpt>
      <trkpt lat="45.97906" lon="5.49535">
        <ele>862</ele>
        <time>2026-05-11T13:26:52Z</time>
      </trkpt>
      <trkpt lat="45.97908" lon="5.49536">
        <ele>862</ele>
        <time>2026-05-11T13:26:53Z</time>
      </trkpt>
      <trkpt lat="45.97911" lon="5.49536">
        <ele>862</ele>
        <time>2026-05-11T13:26:54Z</time>
      </trkpt>
      <trkpt lat="45.97913" lon="5.49536">
        <ele>862.4</ele>
        <time>2026-05-11T13:26:55Z</time>
      </trkpt>
      <trkpt lat="45.97914" lon="5.49536">
        <ele>862.4</ele>
        <time>2026-05-11T13:26:56Z</time>
      </trkpt>
      <trkpt lat="45.97916" lon="5.49536">
        <ele>862.4</ele>
        <time>2026-05-11T13:26:57Z</time>
      </trkpt>
      <trkpt lat="45.97918" lon="5.49536">
        <ele>862.4</ele>
        <time>2026-05-11T13:26:58Z</time>
      </trkpt>
      <trkpt lat="45.97921" lon="5.49537">
        <ele>862.4</ele>
        <time>2026-05-11T13:26:59Z</time>
      </trkpt>
      <trkpt lat="45.97923" lon="5.49538">
        <ele>862.4</ele>
        <time>2026-05-11T13:27:00Z</time>
      </trkpt>
      <trkpt lat="45.97926" lon="5.49539">
        <ele>862.4</ele>
        <time>2026-05-11T13:27:01Z</time>
      </trkpt>
      <trkpt lat="45.97929" lon="5.49539">
        <ele>862.4</ele>
        <time>2026-05-11T13:27:02Z</time>
      </trkpt>
      <trkpt lat="45.97932" lon="5.49539">
        <ele>862.4</ele>
        <time>2026-05-11T13:27:03Z</time>
      </trkpt>
      <trkpt lat="45.97935" lon="5.49539">
        <ele>862.6</ele>
        <time>2026-05-11T13:27:04Z</time>
      </trkpt>
      <trkpt lat="45.97938" lon="5.49539">
        <ele>862.6</ele>
        <time>2026-05-11T13:27:05Z</time>
      </trkpt>
      <trkpt lat="45.9794" lon="5.49539">
        <ele>862.6</ele>
        <time>2026-05-11T13:27:06Z</time>
      </trkpt>
      <trkpt lat="45.97942" lon="5.49539">
        <ele>863</ele>
        <time>2026-05-11T13:27:07Z</time>
      </trkpt>
      <trkpt lat="45.97946" lon="5.49539">
        <ele>863</ele>
        <time>2026-05-11T13:27:08Z</time>
      </trkpt>
      <trkpt lat="45.9795" lon="5.49537">
        <ele>863</ele>
        <time>2026-05-11T13:27:09Z</time>
      </trkpt>
      <trkpt lat="45.97954" lon="5.49537">
        <ele>862.8</ele>
        <time>2026-05-11T13:27:10Z</time>
      </trkpt>
      <trkpt lat="45.97961" lon="5.4954">
        <ele>862.4</ele>
        <time>2026-05-11T13:27:11Z</time>
      </trkpt>
      <trkpt lat="45.97967" lon="5.49543">
        <ele>862.4</ele>
        <time>2026-05-11T13:27:12Z</time>
      </trkpt>
      <trkpt lat="45.97972" lon="5.49546">
        <ele>861.6</ele>
        <time>2026-05-11T13:27:13Z</time>
      </trkpt>
      <trkpt lat="45.97976" lon="5.49548">
        <ele>861.6</ele>
        <time>2026-05-11T13:27:14Z</time>
      </trkpt>
      <trkpt lat="45.97982" lon="5.49553">
        <ele>860.6</ele>
        <time>2026-05-11T13:27:15Z</time>
      </trkpt>
      <trkpt lat="45.97987" lon="5.49554">
        <ele>859.8</ele>
        <time>2026-05-11T13:27:16Z</time>
      </trkpt>
      <trkpt lat="45.97994" lon="5.49558">
        <ele>859</ele>
        <time>2026-05-11T13:27:17Z</time>
      </trkpt>
      <trkpt lat="45.97999" lon="5.49561">
        <ele>858.4</ele>
        <time>2026-05-11T13:27:18Z</time>
      </trkpt>
      <trkpt lat="45.98004" lon="5.49561">
        <ele>859</ele>
        <time>2026-05-11T13:27:19Z</time>
      </trkpt>
      <trkpt lat="45.98009" lon="5.49562">
        <ele>859.4</ele>
        <time>2026-05-11T13:27:20Z</time>
      </trkpt>
      <trkpt lat="45.98013" lon="5.49562">
        <ele>859.2</ele>
        <time>2026-05-11T13:27:21Z</time>
      </trkpt>
      <trkpt lat="45.98017" lon="5.49563">
        <ele>859.4</ele>
        <time>2026-05-11T13:27:22Z</time>
      </trkpt>
      <trkpt lat="45.98023" lon="5.49565">
        <ele>859.4</ele>
        <time>2026-05-11T13:27:23Z</time>
      </trkpt>
      <trkpt lat="45.98027" lon="5.49565">
        <ele>859.4</ele>
        <time>2026-05-11T13:27:24Z</time>
      </trkpt>
      <trkpt lat="45.98032" lon="5.49561">
        <ele>859.4</ele>
        <time>2026-05-11T13:27:25Z</time>
      </trkpt>
      <trkpt lat="45.98036" lon="5.49562">
        <ele>859.4</ele>
        <time>2026-05-11T13:27:26Z</time>
      </trkpt>
      <trkpt lat="45.98041" lon="5.49561">
        <ele>859.2</ele>
        <time>2026-05-11T13:27:27Z</time>
      </trkpt>
      <trkpt lat="45.98046" lon="5.49562">
        <ele>859.8</ele>
        <time>2026-05-11T13:27:28Z</time>
      </trkpt>
      <trkpt lat="45.9805" lon="5.49564">
        <ele>859.8</ele>
        <time>2026-05-11T13:27:29Z</time>
      </trkpt>
      <trkpt lat="45.98055" lon="5.49565">
        <ele>858.6</ele>
        <time>2026-05-11T13:27:30Z</time>
      </trkpt>
      <trkpt lat="45.98059" lon="5.49565">
        <ele>859.4</ele>
        <time>2026-05-11T13:27:31Z</time>
      </trkpt>
      <trkpt lat="45.98062" lon="5.49565">
        <ele>860</ele>
        <time>2026-05-11T13:27:32Z</time>
      </trkpt>
      <trkpt lat="45.98065" lon="5.49565">
        <ele>860.6</ele>
        <time>2026-05-11T13:27:33Z</time>
      </trkpt>
      <trkpt lat="45.98067" lon="5.49566">
        <ele>861.2</ele>
        <time>2026-05-11T13:27:34Z</time>
      </trkpt>
      <trkpt lat="45.98069" lon="5.49567">
        <ele>861.2</ele>
        <time>2026-05-11T13:27:35Z</time>
      </trkpt>
      <trkpt lat="45.98071" lon="5.49567">
        <ele>861.4</ele>
        <time>2026-05-11T13:27:36Z</time>
      </trkpt>
      <trkpt lat="45.98073" lon="5.49569">
        <ele>861.4</ele>
        <time>2026-05-11T13:27:37Z</time>
      </trkpt>
      <trkpt lat="45.98075" lon="5.49568">
        <ele>861.8</ele>
        <time>2026-05-11T13:27:38Z</time>
      </trkpt>
      <trkpt lat="45.98076" lon="5.49569">
        <ele>862</ele>
        <time>2026-05-11T13:27:39Z</time>
      </trkpt>
      <trkpt lat="45.98078" lon="5.4957">
        <ele>862.2</ele>
        <time>2026-05-11T13:27:40Z</time>
      </trkpt>
      <trkpt lat="45.9808" lon="5.4957">
        <ele>862.6</ele>
        <time>2026-05-11T13:27:41Z</time>
      </trkpt>
      <trkpt lat="45.98082" lon="5.4957">
        <ele>862.8</ele>
        <time>2026-05-11T13:27:42Z</time>
      </trkpt>
      <trkpt lat="45.98084" lon="5.49571">
        <ele>862.8</ele>
        <time>2026-05-11T13:27:43Z</time>
      </trkpt>
      <trkpt lat="45.98086" lon="5.49572">
        <ele>863.2</ele>
        <time>2026-05-11T13:27:44Z</time>
      </trkpt>
      <trkpt lat="45.98087" lon="5.49572">
        <ele>863.6</ele>
        <time>2026-05-11T13:27:45Z</time>
      </trkpt>
      <trkpt lat="45.98089" lon="5.49573">
        <ele>863.6</ele>
        <time>2026-05-11T13:27:46Z</time>
      </trkpt>
      <trkpt lat="45.98091" lon="5.49573">
        <ele>863.6</ele>
        <time>2026-05-11T13:27:47Z</time>
      </trkpt>
      <trkpt lat="45.98093" lon="5.49574">
        <ele>863.8</ele>
        <time>2026-05-11T13:27:48Z</time>
      </trkpt>
      <trkpt lat="45.98094" lon="5.49574">
        <ele>864.2</ele>
        <time>2026-05-11T13:27:49Z</time>
      </trkpt>
      <trkpt lat="45.98096" lon="5.49575">
        <ele>864.2</ele>
        <time>2026-05-11T13:27:50Z</time>
      </trkpt>
      <trkpt lat="45.98099" lon="5.49577">
        <ele>864.2</ele>
        <time>2026-05-11T13:27:51Z</time>
      </trkpt>
      <trkpt lat="45.981" lon="5.49577">
        <ele>864.6</ele>
        <time>2026-05-11T13:27:52Z</time>
      </trkpt>
      <trkpt lat="45.98102" lon="5.49577">
        <ele>864.6</ele>
        <time>2026-05-11T13:27:53Z</time>
      </trkpt>
      <trkpt lat="45.98104" lon="5.49577">
        <ele>864.8</ele>
        <time>2026-05-11T13:27:54Z</time>
      </trkpt>
      <trkpt lat="45.98106" lon="5.49578">
        <ele>865.2</ele>
        <time>2026-05-11T13:27:55Z</time>
      </trkpt>
      <trkpt lat="45.98108" lon="5.49579">
        <ele>865.2</ele>
        <time>2026-05-11T13:27:56Z</time>
      </trkpt>
      <trkpt lat="45.9811" lon="5.49579">
        <ele>865.2</ele>
        <time>2026-05-11T13:27:57Z</time>
      </trkpt>
      <trkpt lat="45.98112" lon="5.49579">
        <ele>865.6</ele>
        <time>2026-05-11T13:27:58Z</time>
      </trkpt>
      <trkpt lat="45.98113" lon="5.49579">
        <ele>865.6</ele>
        <time>2026-05-11T13:27:59Z</time>
      </trkpt>
      <trkpt lat="45.98115" lon="5.49579">
        <ele>866.2</ele>
        <time>2026-05-11T13:28:00Z</time>
      </trkpt>
      <trkpt lat="45.98117" lon="5.49579">
        <ele>866.2</ele>
        <time>2026-05-11T13:28:01Z</time>
      </trkpt>
      <trkpt lat="45.98118" lon="5.49579">
        <ele>866.4</ele>
        <time>2026-05-11T13:28:02Z</time>
      </trkpt>
      <trkpt lat="45.9812" lon="5.49579">
        <ele>866.4</ele>
        <time>2026-05-11T13:28:03Z</time>
      </trkpt>
      <trkpt lat="45.98121" lon="5.49578">
        <ele>866.8</ele>
        <time>2026-05-11T13:28:04Z</time>
      </trkpt>
      <trkpt lat="45.98123" lon="5.49577">
        <ele>866.8</ele>
        <time>2026-05-11T13:28:05Z</time>
      </trkpt>
      <trkpt lat="45.98126" lon="5.49577">
        <ele>866.8</ele>
        <time>2026-05-11T13:28:06Z</time>
      </trkpt>
      <trkpt lat="45.98127" lon="5.49576">
        <ele>867.2</ele>
        <time>2026-05-11T13:28:07Z</time>
      </trkpt>
      <trkpt lat="45.98129" lon="5.49575">
        <ele>867.4</ele>
        <time>2026-05-11T13:28:08Z</time>
      </trkpt>
      <trkpt lat="45.9813" lon="5.49575">
        <ele>867.6</ele>
        <time>2026-05-11T13:28:09Z</time>
      </trkpt>
      <trkpt lat="45.98132" lon="5.49574">
        <ele>868</ele>
        <time>2026-05-11T13:28:10Z</time>
      </trkpt>
      <trkpt lat="45.98133" lon="5.49574">
        <ele>868.2</ele>
        <time>2026-05-11T13:28:11Z</time>
      </trkpt>
      <trkpt lat="45.98134" lon="5.49574">
        <ele>868.2</ele>
        <time>2026-05-11T13:28:12Z</time>
      </trkpt>
      <trkpt lat="45.98136" lon="5.49574">
        <ele>868.4</ele>
        <time>2026-05-11T13:28:13Z</time>
      </trkpt>
      <trkpt lat="45.98138" lon="5.49574">
        <ele>868.4</ele>
        <time>2026-05-11T13:28:14Z</time>
      </trkpt>
      <trkpt lat="45.98139" lon="5.49574">
        <ele>868.4</ele>
        <time>2026-05-11T13:28:15Z</time>
      </trkpt>
      <trkpt lat="45.9814" lon="5.49574">
        <ele>868.4</ele>
        <time>2026-05-11T13:28:16Z</time>
      </trkpt>
      <trkpt lat="45.98142" lon="5.49574">
        <ele>868.4</ele>
        <time>2026-05-11T13:28:17Z</time>
      </trkpt>
      <trkpt lat="45.98144" lon="5.49574">
        <ele>869</ele>
        <time>2026-05-11T13:28:18Z</time>
      </trkpt>
      <trkpt lat="45.98145" lon="5.49575">
        <ele>869.2</ele>
        <time>2026-05-11T13:28:19Z</time>
      </trkpt>
      <trkpt lat="45.98147" lon="5.49576">
        <ele>869.8</ele>
        <time>2026-05-11T13:28:20Z</time>
      </trkpt>
      <trkpt lat="45.98149" lon="5.49577">
        <ele>869.8</ele>
        <time>2026-05-11T13:28:21Z</time>
      </trkpt>
      <trkpt lat="45.9815" lon="5.49578">
        <ele>869.4</ele>
        <time>2026-05-11T13:28:22Z</time>
      </trkpt>
      <trkpt lat="45.98152" lon="5.49579">
        <ele>869.4</ele>
        <time>2026-05-11T13:28:23Z</time>
      </trkpt>
      <trkpt lat="45.98153" lon="5.49581">
        <ele>869.4</ele>
        <time>2026-05-11T13:28:24Z</time>
      </trkpt>
      <trkpt lat="45.98155" lon="5.49582">
        <ele>869.4</ele>
        <time>2026-05-11T13:28:25Z</time>
      </trkpt>
      <trkpt lat="45.98156" lon="5.49583">
        <ele>869.4</ele>
        <time>2026-05-11T13:28:26Z</time>
      </trkpt>
      <trkpt lat="45.98157" lon="5.49584">
        <ele>869.4</ele>
        <time>2026-05-11T13:28:27Z</time>
      </trkpt>
      <trkpt lat="45.98158" lon="5.49585">
        <ele>869.4</ele>
        <time>2026-05-11T13:28:28Z</time>
      </trkpt>
      <trkpt lat="45.98159" lon="5.49586">
        <ele>869.6</ele>
        <time>2026-05-11T13:28:29Z</time>
      </trkpt>
      <trkpt lat="45.9816" lon="5.49586">
        <ele>869.6</ele>
        <time>2026-05-11T13:28:30Z</time>
      </trkpt>
      <trkpt lat="45.9816" lon="5.49586">
        <ele>870</ele>
        <time>2026-05-11T13:28:31Z</time>
      </trkpt>
      <trkpt lat="45.98161" lon="5.49588">
        <ele>870</ele>
        <time>2026-05-11T13:28:32Z</time>
      </trkpt>
      <trkpt lat="45.98163" lon="5.49588">
        <ele>870</ele>
        <time>2026-05-11T13:28:33Z</time>
      </trkpt>
      <trkpt lat="45.98164" lon="5.49589">
        <ele>870</ele>
        <time>2026-05-11T13:28:34Z</time>
      </trkpt>
      <trkpt lat="45.98165" lon="5.4959">
        <ele>870.4</ele>
        <time>2026-05-11T13:28:35Z</time>
      </trkpt>
      <trkpt lat="45.98167" lon="5.49591">
        <ele>870.8</ele>
        <time>2026-05-11T13:28:36Z</time>
      </trkpt>
      <trkpt lat="45.98168" lon="5.49591">
        <ele>870.8</ele>
        <time>2026-05-11T13:28:37Z</time>
      </trkpt>
      <trkpt lat="45.9817" lon="5.49592">
        <ele>870.8</ele>
        <time>2026-05-11T13:28:38Z</time>
      </trkpt>
      <trkpt lat="45.98172" lon="5.49594">
        <ele>871.2</ele>
        <time>2026-05-11T13:28:39Z</time>
      </trkpt>
      <trkpt lat="45.98175" lon="5.49596">
        <ele>871.4</ele>
        <time>2026-05-11T13:28:40Z</time>
      </trkpt>
      <trkpt lat="45.98176" lon="5.49597">
        <ele>871.4</ele>
        <time>2026-05-11T13:28:41Z</time>
      </trkpt>
      <trkpt lat="45.98178" lon="5.49598">
        <ele>871.4</ele>
        <time>2026-05-11T13:28:42Z</time>
      </trkpt>
      <trkpt lat="45.9818" lon="5.49599">
        <ele>871.6</ele>
        <time>2026-05-11T13:28:43Z</time>
      </trkpt>
      <trkpt lat="45.98182" lon="5.496">
        <ele>871.6</ele>
        <time>2026-05-11T13:28:44Z</time>
      </trkpt>
      <trkpt lat="45.98184" lon="5.496">
        <ele>872</ele>
        <time>2026-05-11T13:28:45Z</time>
      </trkpt>
      <trkpt lat="45.98186" lon="5.49601">
        <ele>872</ele>
        <time>2026-05-11T13:28:46Z</time>
      </trkpt>
      <trkpt lat="45.98186" lon="5.49601">
        <ele>872</ele>
        <time>2026-05-11T13:28:47Z</time>
      </trkpt>
      <trkpt lat="45.98188" lon="5.49602">
        <ele>872</ele>
        <time>2026-05-11T13:28:48Z</time>
      </trkpt>
      <trkpt lat="45.9819" lon="5.49603">
        <ele>871.4</ele>
        <time>2026-05-11T13:28:49Z</time>
      </trkpt>
      <trkpt lat="45.98192" lon="5.49604">
        <ele>871.4</ele>
        <time>2026-05-11T13:28:50Z</time>
      </trkpt>
      <trkpt lat="45.98195" lon="5.49607">
        <ele>871.4</ele>
        <time>2026-05-11T13:28:51Z</time>
      </trkpt>
      <trkpt lat="45.98197" lon="5.4961">
        <ele>871.4</ele>
        <time>2026-05-11T13:28:52Z</time>
      </trkpt>
      <trkpt lat="45.98199" lon="5.49612">
        <ele>871.4</ele>
        <time>2026-05-11T13:28:53Z</time>
      </trkpt>
      <trkpt lat="45.98201" lon="5.49613">
        <ele>871</ele>
        <time>2026-05-11T13:28:54Z</time>
      </trkpt>
      <trkpt lat="45.98204" lon="5.49616">
        <ele>871</ele>
        <time>2026-05-11T13:28:55Z</time>
      </trkpt>
      <trkpt lat="45.98205" lon="5.49619">
        <ele>871</ele>
        <time>2026-05-11T13:28:56Z</time>
      </trkpt>
      <trkpt lat="45.98206" lon="5.49621">
        <ele>870.4</ele>
        <time>2026-05-11T13:28:57Z</time>
      </trkpt>
      <trkpt lat="45.98206" lon="5.49622">
        <ele>870</ele>
        <time>2026-05-11T13:28:58Z</time>
      </trkpt>
      <trkpt lat="45.98207" lon="5.49625">
        <ele>870</ele>
        <time>2026-05-11T13:28:59Z</time>
      </trkpt>
      <trkpt lat="45.98208" lon="5.49628">
        <ele>869.8</ele>
        <time>2026-05-11T13:29:00Z</time>
      </trkpt>
      <trkpt lat="45.9821" lon="5.49633">
        <ele>869.4</ele>
        <time>2026-05-11T13:29:01Z</time>
      </trkpt>
      <trkpt lat="45.98213" lon="5.49637">
        <ele>868.6</ele>
        <time>2026-05-11T13:29:02Z</time>
      </trkpt>
      <trkpt lat="45.98216" lon="5.4964">
        <ele>868.6</ele>
        <time>2026-05-11T13:29:03Z</time>
      </trkpt>
      <trkpt lat="45.98221" lon="5.49649">
        <ele>868</ele>
        <time>2026-05-11T13:29:04Z</time>
      </trkpt>
      <trkpt lat="45.98222" lon="5.49654">
        <ele>867.8</ele>
        <time>2026-05-11T13:29:05Z</time>
      </trkpt>
      <trkpt lat="45.98226" lon="5.49659">
        <ele>867.8</ele>
        <time>2026-05-11T13:29:06Z</time>
      </trkpt>
      <trkpt lat="45.98227" lon="5.49661">
        <ele>867.4</ele>
        <time>2026-05-11T13:29:07Z</time>
      </trkpt>
      <trkpt lat="45.98229" lon="5.49663">
        <ele>867.4</ele>
        <time>2026-05-11T13:29:08Z</time>
      </trkpt>
      <trkpt lat="45.98231" lon="5.49664">
        <ele>867.4</ele>
        <time>2026-05-11T13:29:09Z</time>
      </trkpt>
      <trkpt lat="45.98232" lon="5.49666">
        <ele>867.4</ele>
        <time>2026-05-11T13:29:10Z</time>
      </trkpt>
      <trkpt lat="45.98233" lon="5.49668">
        <ele>866.8</ele>
        <time>2026-05-11T13:29:11Z</time>
      </trkpt>
      <trkpt lat="45.98234" lon="5.49672">
        <ele>866.6</ele>
        <time>2026-05-11T13:29:12Z</time>
      </trkpt>
      <trkpt lat="45.98236" lon="5.49676">
        <ele>866</ele>
        <time>2026-05-11T13:29:13Z</time>
      </trkpt>
      <trkpt lat="45.98237" lon="5.49681">
        <ele>866</ele>
        <time>2026-05-11T13:29:14Z</time>
      </trkpt>
      <trkpt lat="45.98238" lon="5.49686">
        <ele>865.6</ele>
        <time>2026-05-11T13:29:15Z</time>
      </trkpt>
      <trkpt lat="45.9824" lon="5.49691">
        <ele>865.6</ele>
        <time>2026-05-11T13:29:16Z</time>
      </trkpt>
      <trkpt lat="45.98242" lon="5.49695">
        <ele>865.2</ele>
        <time>2026-05-11T13:29:17Z</time>
      </trkpt>
      <trkpt lat="45.98244" lon="5.49698">
        <ele>864.6</ele>
        <time>2026-05-11T13:29:18Z</time>
      </trkpt>
      <trkpt lat="45.98247" lon="5.49701">
        <ele>864.2</ele>
        <time>2026-05-11T13:29:19Z</time>
      </trkpt>
      <trkpt lat="45.98249" lon="5.49704">
        <ele>863.6</ele>
        <time>2026-05-11T13:29:20Z</time>
      </trkpt>
      <trkpt lat="45.98252" lon="5.49707">
        <ele>863.6</ele>
        <time>2026-05-11T13:29:21Z</time>
      </trkpt>
      <trkpt lat="45.98256" lon="5.49711">
        <ele>863.6</ele>
        <time>2026-05-11T13:29:22Z</time>
      </trkpt>
      <trkpt lat="45.98258" lon="5.49715">
        <ele>863.2</ele>
        <time>2026-05-11T13:29:23Z</time>
      </trkpt>
      <trkpt lat="45.98261" lon="5.49719">
        <ele>862.8</ele>
        <time>2026-05-11T13:29:24Z</time>
      </trkpt>
      <trkpt lat="45.98263" lon="5.49722">
        <ele>862</ele>
        <time>2026-05-11T13:29:25Z</time>
      </trkpt>
      <trkpt lat="45.98265" lon="5.49725">
        <ele>862</ele>
        <time>2026-05-11T13:29:26Z</time>
      </trkpt>
      <trkpt lat="45.98268" lon="5.49728">
        <ele>861.4</ele>
        <time>2026-05-11T13:29:27Z</time>
      </trkpt>
      <trkpt lat="45.98271" lon="5.49732">
        <ele>860.2</ele>
        <time>2026-05-11T13:29:28Z</time>
      </trkpt>
      <trkpt lat="45.98274" lon="5.49736">
        <ele>859.2</ele>
        <time>2026-05-11T13:29:29Z</time>
      </trkpt>
      <trkpt lat="45.98277" lon="5.49739">
        <ele>858.8</ele>
        <time>2026-05-11T13:29:30Z</time>
      </trkpt>
      <trkpt lat="45.98282" lon="5.49743">
        <ele>858.2</ele>
        <time>2026-05-11T13:29:31Z</time>
      </trkpt>
      <trkpt lat="45.9829" lon="5.49751">
        <ele>857.8</ele>
        <time>2026-05-11T13:29:32Z</time>
      </trkpt>
      <trkpt lat="45.98294" lon="5.49754">
        <ele>857.4</ele>
        <time>2026-05-11T13:29:33Z</time>
      </trkpt>
      <trkpt lat="45.98297" lon="5.49758">
        <ele>857.2</ele>
        <time>2026-05-11T13:29:34Z</time>
      </trkpt>
      <trkpt lat="45.98301" lon="5.49761">
        <ele>857.2</ele>
        <time>2026-05-11T13:29:35Z</time>
      </trkpt>
      <trkpt lat="45.98304" lon="5.49764">
        <ele>856.6</ele>
        <time>2026-05-11T13:29:36Z</time>
      </trkpt>
      <trkpt lat="45.98307" lon="5.49768">
        <ele>856.6</ele>
        <time>2026-05-11T13:29:37Z</time>
      </trkpt>
      <trkpt lat="45.98309" lon="5.4977">
        <ele>856.4</ele>
        <time>2026-05-11T13:29:38Z</time>
      </trkpt>
      <trkpt lat="45.98312" lon="5.49775">
        <ele>855.6</ele>
        <time>2026-05-11T13:29:39Z</time>
      </trkpt>
      <trkpt lat="45.98316" lon="5.49782">
        <ele>855.2</ele>
        <time>2026-05-11T13:29:40Z</time>
      </trkpt>
      <trkpt lat="45.9832" lon="5.49787">
        <ele>854.8</ele>
        <time>2026-05-11T13:29:41Z</time>
      </trkpt>
      <trkpt lat="45.98323" lon="5.49791">
        <ele>854.8</ele>
        <time>2026-05-11T13:29:42Z</time>
      </trkpt>
      <trkpt lat="45.98325" lon="5.49793">
        <ele>854.6</ele>
        <time>2026-05-11T13:29:43Z</time>
      </trkpt>
      <trkpt lat="45.98326" lon="5.49794">
        <ele>853.8</ele>
        <time>2026-05-11T13:29:44Z</time>
      </trkpt>
      <trkpt lat="45.98329" lon="5.49798">
        <ele>853.8</ele>
        <time>2026-05-11T13:29:45Z</time>
      </trkpt>
      <trkpt lat="45.98333" lon="5.49804">
        <ele>853.6</ele>
        <time>2026-05-11T13:29:46Z</time>
      </trkpt>
      <trkpt lat="45.98337" lon="5.49807">
        <ele>853.8</ele>
        <time>2026-05-11T13:29:47Z</time>
      </trkpt>
      <trkpt lat="45.98339" lon="5.49808">
        <ele>853.6</ele>
        <time>2026-05-11T13:29:48Z</time>
      </trkpt>
      <trkpt lat="45.98343" lon="5.49809">
        <ele>853.6</ele>
        <time>2026-05-11T13:29:49Z</time>
      </trkpt>
      <trkpt lat="45.98347" lon="5.49811">
        <ele>853.6</ele>
        <time>2026-05-11T13:29:50Z</time>
      </trkpt>
      <trkpt lat="45.9835" lon="5.49811">
        <ele>853.6</ele>
        <time>2026-05-11T13:29:51Z</time>
      </trkpt>
      <trkpt lat="45.98353" lon="5.49811">
        <ele>853.2</ele>
        <time>2026-05-11T13:29:52Z</time>
      </trkpt>
      <trkpt lat="45.98355" lon="5.49811">
        <ele>852.8</ele>
        <time>2026-05-11T13:29:53Z</time>
      </trkpt>
      <trkpt lat="45.98357" lon="5.4981">
        <ele>852.4</ele>
        <time>2026-05-11T13:29:54Z</time>
      </trkpt>
      <trkpt lat="45.98359" lon="5.49808">
        <ele>852.4</ele>
        <time>2026-05-11T13:29:55Z</time>
      </trkpt>
      <trkpt lat="45.98361" lon="5.49808">
        <ele>852</ele>
        <time>2026-05-11T13:29:56Z</time>
      </trkpt>
      <trkpt lat="45.98363" lon="5.49808">
        <ele>851.6</ele>
        <time>2026-05-11T13:29:57Z</time>
      </trkpt>
      <trkpt lat="45.98365" lon="5.49809">
        <ele>851.6</ele>
        <time>2026-05-11T13:29:58Z</time>
      </trkpt>
      <trkpt lat="45.98367" lon="5.49809">
        <ele>851.4</ele>
        <time>2026-05-11T13:29:59Z</time>
      </trkpt>
      <trkpt lat="45.98369" lon="5.4981">
        <ele>851.4</ele>
        <time>2026-05-11T13:30:00Z</time>
      </trkpt>
      <trkpt lat="45.98371" lon="5.4981">
        <ele>851.4</ele>
        <time>2026-05-11T13:30:01Z</time>
      </trkpt>
      <trkpt lat="45.98373" lon="5.4981">
        <ele>851.4</ele>
        <time>2026-05-11T13:30:02Z</time>
      </trkpt>
      <trkpt lat="45.98375" lon="5.49811">
        <ele>850.8</ele>
        <time>2026-05-11T13:30:03Z</time>
      </trkpt>
      <trkpt lat="45.98377" lon="5.49811">
        <ele>850.6</ele>
        <time>2026-05-11T13:30:04Z</time>
      </trkpt>
      <trkpt lat="45.98378" lon="5.49812">
        <ele>850.6</ele>
        <time>2026-05-11T13:30:05Z</time>
      </trkpt>
      <trkpt lat="45.98378" lon="5.49814">
        <ele>850.6</ele>
        <time>2026-05-11T13:30:06Z</time>
      </trkpt>
      <trkpt lat="45.98377" lon="5.49814">
        <ele>850.4</ele>
        <time>2026-05-11T13:30:07Z</time>
      </trkpt>
      <trkpt lat="45.98377" lon="5.49815">
        <ele>850.4</ele>
        <time>2026-05-11T13:30:08Z</time>
      </trkpt>
      <trkpt lat="45.98379" lon="5.49816">
        <ele>850.8</ele>
        <time>2026-05-11T13:30:19Z</time>
      </trkpt>
      <trkpt lat="45.98378" lon="5.49815">
        <ele>850.6</ele>
        <time>2026-05-11T13:30:20Z</time>
      </trkpt>
      <trkpt lat="45.98378" lon="5.49815">
        <ele>850.6</ele>
        <time>2026-05-11T13:30:21Z</time>
      </trkpt>
      <trkpt lat="45.98379" lon="5.49815">
        <ele>850.2</ele>
        <time>2026-05-11T13:30:22Z</time>
      </trkpt>
      <trkpt lat="45.98381" lon="5.49816">
        <ele>850.2</ele>
        <time>2026-05-11T13:30:23Z</time>
      </trkpt>
      <trkpt lat="45.98382" lon="5.49817">
        <ele>850</ele>
        <time>2026-05-11T13:30:24Z</time>
      </trkpt>
      <trkpt lat="45.98383" lon="5.49817">
        <ele>850</ele>
        <time>2026-05-11T13:30:25Z</time>
      </trkpt>
      <trkpt lat="45.98384" lon="5.49818">
        <ele>850.2</ele>
        <time>2026-05-11T13:30:26Z</time>
      </trkpt>
      <trkpt lat="45.98385" lon="5.49819">
        <ele>850.2</ele>
        <time>2026-05-11T13:30:27Z</time>
      </trkpt>
      <trkpt lat="45.98386" lon="5.49819">
        <ele>850.2</ele>
        <time>2026-05-11T13:30:28Z</time>
      </trkpt>
      <trkpt lat="45.98386" lon="5.4982">
        <ele>850.2</ele>
        <time>2026-05-11T13:30:29Z</time>
      </trkpt>
      <trkpt lat="45.98387" lon="5.4982">
        <ele>850.2</ele>
        <time>2026-05-11T13:30:30Z</time>
      </trkpt>
      <trkpt lat="45.98388" lon="5.4982">
        <ele>850.2</ele>
        <time>2026-05-11T13:30:31Z</time>
      </trkpt>
      <trkpt lat="45.98388" lon="5.49821">
        <ele>850.2</ele>
        <time>2026-05-11T13:30:32Z</time>
      </trkpt>
      <trkpt lat="45.98388" lon="5.49822">
        <ele>850.2</ele>
        <time>2026-05-11T13:30:33Z</time>
      </trkpt>
      <trkpt lat="45.98388" lon="5.49824">
        <ele>850.2</ele>
        <time>2026-05-11T13:30:34Z</time>
      </trkpt>
      <trkpt lat="45.98388" lon="5.49825">
        <ele>850.2</ele>
        <time>2026-05-11T13:30:35Z</time>
      </trkpt>
      <trkpt lat="45.98389" lon="5.49827">
        <ele>850.2</ele>
        <time>2026-05-11T13:30:36Z</time>
      </trkpt>
      <trkpt lat="45.98389" lon="5.49829">
        <ele>850.2</ele>
        <time>2026-05-11T13:30:37Z</time>
      </trkpt>
      <trkpt lat="45.98389" lon="5.49829">
        <ele>850.2</ele>
        <time>2026-05-11T13:30:38Z</time>
      </trkpt>
      <trkpt lat="45.98391" lon="5.49829">
        <ele>850.2</ele>
        <time>2026-05-11T13:30:39Z</time>
      </trkpt>
      <trkpt lat="45.98393" lon="5.49828">
        <ele>850.2</ele>
        <time>2026-05-11T13:30:40Z</time>
      </trkpt>
      <trkpt lat="45.98394" lon="5.49828">
        <ele>850.2</ele>
        <time>2026-05-11T13:30:41Z</time>
      </trkpt>
      <trkpt lat="45.98395" lon="5.49829">
        <ele>850.2</ele>
        <time>2026-05-11T13:30:42Z</time>
      </trkpt>
      <trkpt lat="45.98396" lon="5.4983">
        <ele>850.4</ele>
        <time>2026-05-11T13:30:43Z</time>
      </trkpt>
      <trkpt lat="45.98397" lon="5.4983">
        <ele>850.4</ele>
        <time>2026-05-11T13:30:44Z</time>
      </trkpt>
      <trkpt lat="45.98398" lon="5.49831">
        <ele>850.4</ele>
        <time>2026-05-11T13:30:45Z</time>
      </trkpt>
      <trkpt lat="45.98399" lon="5.49832">
        <ele>850.4</ele>
        <time>2026-05-11T13:30:46Z</time>
      </trkpt>
      <trkpt lat="45.984" lon="5.49833">
        <ele>850.4</ele>
        <time>2026-05-11T13:30:47Z</time>
      </trkpt>
      <trkpt lat="45.984" lon="5.49834">
        <ele>850.4</ele>
        <time>2026-05-11T13:30:48Z</time>
      </trkpt>
      <trkpt lat="45.984" lon="5.49835">
        <ele>850.4</ele>
        <time>2026-05-11T13:30:49Z</time>
      </trkpt>
      <trkpt lat="45.984" lon="5.49835">
        <ele>850.4</ele>
        <time>2026-05-11T13:30:50Z</time>
      </trkpt>
      <trkpt lat="45.984" lon="5.49836">
        <ele>850.4</ele>
        <time>2026-05-11T13:30:51Z</time>
      </trkpt>
      <trkpt lat="45.984" lon="5.49836">
        <ele>850.4</ele>
        <time>2026-05-11T13:30:52Z</time>
      </trkpt>
      <trkpt lat="45.98401" lon="5.49836">
        <ele>850.4</ele>
        <time>2026-05-11T13:30:53Z</time>
      </trkpt>
      <trkpt lat="45.98401" lon="5.49836">
        <ele>850.4</ele>
        <time>2026-05-11T13:30:54Z</time>
      </trkpt>
      <trkpt lat="45.98402" lon="5.49836">
        <ele>850.4</ele>
        <time>2026-05-11T13:30:55Z</time>
      </trkpt>
      <trkpt lat="45.98403" lon="5.49835">
        <ele>850.4</ele>
        <time>2026-05-11T13:30:56Z</time>
      </trkpt>
      <trkpt lat="45.98404" lon="5.49835">
        <ele>850.4</ele>
        <time>2026-05-11T13:30:57Z</time>
      </trkpt>
      <trkpt lat="45.98405" lon="5.49835">
        <ele>850.4</ele>
        <time>2026-05-11T13:30:58Z</time>
      </trkpt>
      <trkpt lat="45.98406" lon="5.49836">
        <ele>850.4</ele>
        <time>2026-05-11T13:30:59Z</time>
      </trkpt>
      <trkpt lat="45.98407" lon="5.49836">
        <ele>850.4</ele>
        <time>2026-05-11T13:31:00Z</time>
      </trkpt>
      <trkpt lat="45.98408" lon="5.49837">
        <ele>850.4</ele>
        <time>2026-05-11T13:31:01Z</time>
      </trkpt>
      <trkpt lat="45.98408" lon="5.49837">
        <ele>850.4</ele>
        <time>2026-05-11T13:31:02Z</time>
      </trkpt>
      <trkpt lat="45.9841" lon="5.49838">
        <ele>850.4</ele>
        <time>2026-05-11T13:31:03Z</time>
      </trkpt>
      <trkpt lat="45.98411" lon="5.49838">
        <ele>850.4</ele>
        <time>2026-05-11T13:31:04Z</time>
      </trkpt>
      <trkpt lat="45.98412" lon="5.49838">
        <ele>850.4</ele>
        <time>2026-05-11T13:31:05Z</time>
      </trkpt>
      <trkpt lat="45.98413" lon="5.49838">
        <ele>850.4</ele>
        <time>2026-05-11T13:31:06Z</time>
      </trkpt>
      <trkpt lat="45.98414" lon="5.49838">
        <ele>850.4</ele>
        <time>2026-05-11T13:31:07Z</time>
      </trkpt>
      <trkpt lat="45.98415" lon="5.49838">
        <ele>850.4</ele>
        <time>2026-05-11T13:31:08Z</time>
      </trkpt>
      <trkpt lat="45.98416" lon="5.49838">
        <ele>850.4</ele>
        <time>2026-05-11T13:31:09Z</time>
      </trkpt>
      <trkpt lat="45.98416" lon="5.49837">
        <ele>850.4</ele>
        <time>2026-05-11T13:31:10Z</time>
      </trkpt>
      <trkpt lat="45.98417" lon="5.49837">
        <ele>850.4</ele>
        <time>2026-05-11T13:31:11Z</time>
      </trkpt>
      <trkpt lat="45.98418" lon="5.49837">
        <ele>850.4</ele>
        <time>2026-05-11T13:31:12Z</time>
      </trkpt>
      <trkpt lat="45.9842" lon="5.49838">
        <ele>850.2</ele>
        <time>2026-05-11T13:31:13Z</time>
      </trkpt>
      <trkpt lat="45.98421" lon="5.49838">
        <ele>850.2</ele>
        <time>2026-05-11T13:31:14Z</time>
      </trkpt>
      <trkpt lat="45.98422" lon="5.49839">
        <ele>850.4</ele>
        <time>2026-05-11T13:31:15Z</time>
      </trkpt>
      <trkpt lat="45.98423" lon="5.4984">
        <ele>850.4</ele>
        <time>2026-05-11T13:31:16Z</time>
      </trkpt>
      <trkpt lat="45.98425" lon="5.49841">
        <ele>850.4</ele>
        <time>2026-05-11T13:31:17Z</time>
      </trkpt>
      <trkpt lat="45.98426" lon="5.49842">
        <ele>850.4</ele>
        <time>2026-05-11T13:31:18Z</time>
      </trkpt>
      <trkpt lat="45.98427" lon="5.49842">
        <ele>850.4</ele>
        <time>2026-05-11T13:31:19Z</time>
      </trkpt>
      <trkpt lat="45.98428" lon="5.49843">
        <ele>850.4</ele>
        <time>2026-05-11T13:31:20Z</time>
      </trkpt>
      <trkpt lat="45.98429" lon="5.49843">
        <ele>850.4</ele>
        <time>2026-05-11T13:31:21Z</time>
      </trkpt>
      <trkpt lat="45.9843" lon="5.49843">
        <ele>850.4</ele>
        <time>2026-05-11T13:31:22Z</time>
      </trkpt>
      <trkpt lat="45.9843" lon="5.49842">
        <ele>850.4</ele>
        <time>2026-05-11T13:31:23Z</time>
      </trkpt>
      <trkpt lat="45.98431" lon="5.49842">
        <ele>850.4</ele>
        <time>2026-05-11T13:31:24Z</time>
      </trkpt>
      <trkpt lat="45.98432" lon="5.49842">
        <ele>850.4</ele>
        <time>2026-05-11T13:31:25Z</time>
      </trkpt>
      <trkpt lat="45.98432" lon="5.49842">
        <ele>850.4</ele>
        <time>2026-05-11T13:31:26Z</time>
      </trkpt>
      <trkpt lat="45.98432" lon="5.49843">
        <ele>850.4</ele>
        <time>2026-05-11T13:31:27Z</time>
      </trkpt>
      <trkpt lat="45.98432" lon="5.49843">
        <ele>850.2</ele>
        <time>2026-05-11T13:31:28Z</time>
      </trkpt>
      <trkpt lat="45.98432" lon="5.49844">
        <ele>850.2</ele>
        <time>2026-05-11T13:31:29Z</time>
      </trkpt>
      <trkpt lat="45.98434" lon="5.49844">
        <ele>850.2</ele>
        <time>2026-05-11T13:31:30Z</time>
      </trkpt>
      <trkpt lat="45.98435" lon="5.49845">
        <ele>850.2</ele>
        <time>2026-05-11T13:31:31Z</time>
      </trkpt>
      <trkpt lat="45.98436" lon="5.49845">
        <ele>850.2</ele>
        <time>2026-05-11T13:31:32Z</time>
      </trkpt>
      <trkpt lat="45.98437" lon="5.49845">
        <ele>850.2</ele>
        <time>2026-05-11T13:31:33Z</time>
      </trkpt>
      <trkpt lat="45.98438" lon="5.49846">
        <ele>850.2</ele>
        <time>2026-05-11T13:31:34Z</time>
      </trkpt>
      <trkpt lat="45.9844" lon="5.49847">
        <ele>850.2</ele>
        <time>2026-05-11T13:31:35Z</time>
      </trkpt>
      <trkpt lat="45.98441" lon="5.49847">
        <ele>850.2</ele>
        <time>2026-05-11T13:31:36Z</time>
      </trkpt>
      <trkpt lat="45.98441" lon="5.49847">
        <ele>850.2</ele>
        <time>2026-05-11T13:31:37Z</time>
      </trkpt>
      <trkpt lat="45.98442" lon="5.49847">
        <ele>850.2</ele>
        <time>2026-05-11T13:31:38Z</time>
      </trkpt>
      <trkpt lat="45.98442" lon="5.49846">
        <ele>850.2</ele>
        <time>2026-05-11T13:31:39Z</time>
      </trkpt>
      <trkpt lat="45.98443" lon="5.49846">
        <ele>850.2</ele>
        <time>2026-05-11T13:31:40Z</time>
      </trkpt>
      <trkpt lat="45.98445" lon="5.49846">
        <ele>850.2</ele>
        <time>2026-05-11T13:31:41Z</time>
      </trkpt>
      <trkpt lat="45.98446" lon="5.49847">
        <ele>850</ele>
        <time>2026-05-11T13:31:42Z</time>
      </trkpt>
      <trkpt lat="45.98447" lon="5.49847">
        <ele>850</ele>
        <time>2026-05-11T13:31:43Z</time>
      </trkpt>
      <trkpt lat="45.98448" lon="5.49847">
        <ele>850</ele>
        <time>2026-05-11T13:31:44Z</time>
      </trkpt>
      <trkpt lat="45.98449" lon="5.49847">
        <ele>850</ele>
        <time>2026-05-11T13:31:45Z</time>
      </trkpt>
      <trkpt lat="45.9845" lon="5.49847">
        <ele>850</ele>
        <time>2026-05-11T13:31:46Z</time>
      </trkpt>
      <trkpt lat="45.98451" lon="5.49847">
        <ele>850</ele>
        <time>2026-05-11T13:31:47Z</time>
      </trkpt>
      <trkpt lat="45.98451" lon="5.49847">
        <ele>850</ele>
        <time>2026-05-11T13:31:48Z</time>
      </trkpt>
      <trkpt lat="45.98451" lon="5.49847">
        <ele>850</ele>
        <time>2026-05-11T13:31:49Z</time>
      </trkpt>
      <trkpt lat="45.98451" lon="5.49847">
        <ele>850</ele>
        <time>2026-05-11T13:31:50Z</time>
      </trkpt>
      <trkpt lat="45.98458" lon="5.49851">
        <ele>849.6</ele>
        <time>2026-05-11T13:32:42Z</time>
      </trkpt>
      <trkpt lat="45.98458" lon="5.49851">
        <ele>849.6</ele>
        <time>2026-05-11T13:32:43Z</time>
      </trkpt>
      <trkpt lat="45.98459" lon="5.49852">
        <ele>849.6</ele>
        <time>2026-05-11T13:32:44Z</time>
      </trkpt>
      <trkpt lat="45.9846" lon="5.49853">
        <ele>849.6</ele>
        <time>2026-05-11T13:32:45Z</time>
      </trkpt>
      <trkpt lat="45.98462" lon="5.49855">
        <ele>849.6</ele>
        <time>2026-05-11T13:32:46Z</time>
      </trkpt>
      <trkpt lat="45.98464" lon="5.49857">
        <ele>849.6</ele>
        <time>2026-05-11T13:32:47Z</time>
      </trkpt>
      <trkpt lat="45.98465" lon="5.49858">
        <ele>849.6</ele>
        <time>2026-05-11T13:32:48Z</time>
      </trkpt>
      <trkpt lat="45.98467" lon="5.4986">
        <ele>847.6</ele>
        <time>2026-05-11T13:32:49Z</time>
      </trkpt>
      <trkpt lat="45.98469" lon="5.49861">
        <ele>847.6</ele>
        <time>2026-05-11T13:32:50Z</time>
      </trkpt>
      <trkpt lat="45.9847" lon="5.49863">
        <ele>848.4</ele>
        <time>2026-05-11T13:32:51Z</time>
      </trkpt>
      <trkpt lat="45.98472" lon="5.49865">
        <ele>848</ele>
        <time>2026-05-11T13:32:52Z</time>
      </trkpt>
      <trkpt lat="45.98474" lon="5.49866">
        <ele>848.6</ele>
        <time>2026-05-11T13:32:53Z</time>
      </trkpt>
      <trkpt lat="45.98475" lon="5.49868">
        <ele>848.6</ele>
        <time>2026-05-11T13:32:54Z</time>
      </trkpt>
      <trkpt lat="45.98477" lon="5.4987">
        <ele>848.6</ele>
        <time>2026-05-11T13:32:55Z</time>
      </trkpt>
      <trkpt lat="45.98478" lon="5.49872">
        <ele>848.2</ele>
        <time>2026-05-11T13:32:56Z</time>
      </trkpt>
      <trkpt lat="45.98479" lon="5.49873">
        <ele>848.2</ele>
        <time>2026-05-11T13:32:57Z</time>
      </trkpt>
      <trkpt lat="45.98481" lon="5.49875">
        <ele>848.8</ele>
        <time>2026-05-11T13:32:58Z</time>
      </trkpt>
      <trkpt lat="45.98482" lon="5.49877">
        <ele>848.8</ele>
        <time>2026-05-11T13:32:59Z</time>
      </trkpt>
      <trkpt lat="45.98484" lon="5.49879">
        <ele>848.8</ele>
        <time>2026-05-11T13:33:00Z</time>
      </trkpt>
      <trkpt lat="45.98485" lon="5.49882">
        <ele>848.8</ele>
        <time>2026-05-11T13:33:01Z</time>
      </trkpt>
      <trkpt lat="45.98487" lon="5.49885">
        <ele>848.8</ele>
        <time>2026-05-11T13:33:02Z</time>
      </trkpt>
      <trkpt lat="45.98489" lon="5.49887">
        <ele>848.4</ele>
        <time>2026-05-11T13:33:03Z</time>
      </trkpt>
      <trkpt lat="45.98491" lon="5.49889">
        <ele>848.2</ele>
        <time>2026-05-11T13:33:04Z</time>
      </trkpt>
      <trkpt lat="45.98493" lon="5.4989">
        <ele>848.2</ele>
        <time>2026-05-11T13:33:05Z</time>
      </trkpt>
      <trkpt lat="45.98495" lon="5.49892">
        <ele>848.4</ele>
        <time>2026-05-11T13:33:06Z</time>
      </trkpt>
      <trkpt lat="45.98496" lon="5.49893">
        <ele>848.2</ele>
        <time>2026-05-11T13:33:07Z</time>
      </trkpt>
      <trkpt lat="45.98498" lon="5.49894">
        <ele>848.2</ele>
        <time>2026-05-11T13:33:08Z</time>
      </trkpt>
      <trkpt lat="45.985" lon="5.49895">
        <ele>848.4</ele>
        <time>2026-05-11T13:33:09Z</time>
      </trkpt>
      <trkpt lat="45.98501" lon="5.49895">
        <ele>848.8</ele>
        <time>2026-05-11T13:33:10Z</time>
      </trkpt>
      <trkpt lat="45.98503" lon="5.49896">
        <ele>848.6</ele>
        <time>2026-05-11T13:33:11Z</time>
      </trkpt>
      <trkpt lat="45.98505" lon="5.49897">
        <ele>848.4</ele>
        <time>2026-05-11T13:33:12Z</time>
      </trkpt>
      <trkpt lat="45.98508" lon="5.49898">
        <ele>848.4</ele>
        <time>2026-05-11T13:33:13Z</time>
      </trkpt>
      <trkpt lat="45.98509" lon="5.49899">
        <ele>848.4</ele>
        <time>2026-05-11T13:33:14Z</time>
      </trkpt>
      <trkpt lat="45.98512" lon="5.49899">
        <ele>848.2</ele>
        <time>2026-05-11T13:33:15Z</time>
      </trkpt>
      <trkpt lat="45.98514" lon="5.49899">
        <ele>848.2</ele>
        <time>2026-05-11T13:33:16Z</time>
      </trkpt>
      <trkpt lat="45.98515" lon="5.49899">
        <ele>848.2</ele>
        <time>2026-05-11T13:33:17Z</time>
      </trkpt>
      <trkpt lat="45.98518" lon="5.49899">
        <ele>847.6</ele>
        <time>2026-05-11T13:33:18Z</time>
      </trkpt>
      <trkpt lat="45.9852" lon="5.49899">
        <ele>848</ele>
        <time>2026-05-11T13:33:19Z</time>
      </trkpt>
      <trkpt lat="45.98523" lon="5.499">
        <ele>848</ele>
        <time>2026-05-11T13:33:20Z</time>
      </trkpt>
      <trkpt lat="45.98525" lon="5.499">
        <ele>848</ele>
        <time>2026-05-11T13:33:21Z</time>
      </trkpt>
      <trkpt lat="45.98527" lon="5.49901">
        <ele>848</ele>
        <time>2026-05-11T13:33:22Z</time>
      </trkpt>
      <trkpt lat="45.98529" lon="5.49901">
        <ele>848</ele>
        <time>2026-05-11T13:33:23Z</time>
      </trkpt>
      <trkpt lat="45.98531" lon="5.49901">
        <ele>848</ele>
        <time>2026-05-11T13:33:24Z</time>
      </trkpt>
      <trkpt lat="45.98533" lon="5.49902">
        <ele>848</ele>
        <time>2026-05-11T13:33:25Z</time>
      </trkpt>
      <trkpt lat="45.98536" lon="5.49904">
        <ele>848</ele>
        <time>2026-05-11T13:33:26Z</time>
      </trkpt>
      <trkpt lat="45.98539" lon="5.49905">
        <ele>848</ele>
        <time>2026-05-11T13:33:27Z</time>
      </trkpt>
      <trkpt lat="45.98541" lon="5.49907">
        <ele>848</ele>
        <time>2026-05-11T13:33:28Z</time>
      </trkpt>
      <trkpt lat="45.98546" lon="5.49907">
        <ele>847.8</ele>
        <time>2026-05-11T13:33:29Z</time>
      </trkpt>
      <trkpt lat="45.98549" lon="5.49905">
        <ele>847.8</ele>
        <time>2026-05-11T13:33:30Z</time>
      </trkpt>
      <trkpt lat="45.98552" lon="5.49906">
        <ele>847.4</ele>
        <time>2026-05-11T13:33:31Z</time>
      </trkpt>
      <trkpt lat="45.98555" lon="5.49907">
        <ele>847.4</ele>
        <time>2026-05-11T13:33:32Z</time>
      </trkpt>
      <trkpt lat="45.98559" lon="5.49908">
        <ele>847.4</ele>
        <time>2026-05-11T13:33:33Z</time>
      </trkpt>
      <trkpt lat="45.98564" lon="5.49907">
        <ele>847</ele>
        <time>2026-05-11T13:33:34Z</time>
      </trkpt>
      <trkpt lat="45.98564" lon="5.49907">
        <ele>847</ele>
        <time>2026-05-11T13:33:35Z</time>
      </trkpt>
      <trkpt lat="45.98564" lon="5.49907">
        <ele>847.4</ele>
        <time>2026-05-11T13:33:36Z</time>
      </trkpt>
      <trkpt lat="45.98564" lon="5.49907">
        <ele>847.4</ele>
        <time>2026-05-11T13:33:37Z</time>
      </trkpt>
      <trkpt lat="45.98579" lon="5.4991">
        <ele>847.4</ele>
        <time>2026-05-11T13:33:38Z</time>
      </trkpt>
      <trkpt lat="45.98583" lon="5.49911">
        <ele>847.4</ele>
        <time>2026-05-11T13:33:39Z</time>
      </trkpt>
      <trkpt lat="45.98587" lon="5.49912">
        <ele>847</ele>
        <time>2026-05-11T13:33:40Z</time>
      </trkpt>
      <trkpt lat="45.9859" lon="5.49913">
        <ele>847</ele>
        <time>2026-05-11T13:33:41Z</time>
      </trkpt>
      <trkpt lat="45.98593" lon="5.49913">
        <ele>847</ele>
        <time>2026-05-11T13:33:42Z</time>
      </trkpt>
      <trkpt lat="45.98596" lon="5.49914">
        <ele>847</ele>
        <time>2026-05-11T13:33:43Z</time>
      </trkpt>
      <trkpt lat="45.98599" lon="5.49914">
        <ele>846.6</ele>
        <time>2026-05-11T13:33:44Z</time>
      </trkpt>
      <trkpt lat="45.98602" lon="5.49914">
        <ele>846.4</ele>
        <time>2026-05-11T13:33:45Z</time>
      </trkpt>
      <trkpt lat="45.98605" lon="5.49915">
        <ele>846.8</ele>
        <time>2026-05-11T13:33:46Z</time>
      </trkpt>
      <trkpt lat="45.98607" lon="5.49915">
        <ele>846.6</ele>
        <time>2026-05-11T13:33:47Z</time>
      </trkpt>
      <trkpt lat="45.98608" lon="5.49914">
        <ele>846.6</ele>
        <time>2026-05-11T13:33:48Z</time>
      </trkpt>
      <trkpt lat="45.98611" lon="5.49915">
        <ele>846.6</ele>
        <time>2026-05-11T13:33:49Z</time>
      </trkpt>
      <trkpt lat="45.98615" lon="5.49915">
        <ele>846.6</ele>
        <time>2026-05-11T13:33:50Z</time>
      </trkpt>
      <trkpt lat="45.98618" lon="5.49916">
        <ele>846.6</ele>
        <time>2026-05-11T13:33:51Z</time>
      </trkpt>
      <trkpt lat="45.98621" lon="5.49917">
        <ele>846.6</ele>
        <time>2026-05-11T13:33:52Z</time>
      </trkpt>
      <trkpt lat="45.98625" lon="5.49917">
        <ele>846.6</ele>
        <time>2026-05-11T13:33:53Z</time>
      </trkpt>
      <trkpt lat="45.98628" lon="5.49918">
        <ele>846.6</ele>
        <time>2026-05-11T13:33:54Z</time>
      </trkpt>
      <trkpt lat="45.98631" lon="5.49918">
        <ele>846.8</ele>
        <time>2026-05-11T13:33:55Z</time>
      </trkpt>
      <trkpt lat="45.98634" lon="5.49919">
        <ele>846.8</ele>
        <time>2026-05-11T13:33:56Z</time>
      </trkpt>
      <trkpt lat="45.98637" lon="5.49919">
        <ele>846.6</ele>
        <time>2026-05-11T13:33:57Z</time>
      </trkpt>
      <trkpt lat="45.9864" lon="5.49921">
        <ele>846.2</ele>
        <time>2026-05-11T13:33:58Z</time>
      </trkpt>
      <trkpt lat="45.98643" lon="5.49923">
        <ele>846.6</ele>
        <time>2026-05-11T13:33:59Z</time>
      </trkpt>
      <trkpt lat="45.98646" lon="5.49924">
        <ele>846.6</ele>
        <time>2026-05-11T13:34:00Z</time>
      </trkpt>
      <trkpt lat="45.98649" lon="5.49925">
        <ele>846.6</ele>
        <time>2026-05-11T13:34:01Z</time>
      </trkpt>
      <trkpt lat="45.98653" lon="5.49925">
        <ele>846.2</ele>
        <time>2026-05-11T13:34:02Z</time>
      </trkpt>
      <trkpt lat="45.98656" lon="5.49925">
        <ele>845.8</ele>
        <time>2026-05-11T13:34:03Z</time>
      </trkpt>
      <trkpt lat="45.98659" lon="5.49924">
        <ele>845.4</ele>
        <time>2026-05-11T13:34:04Z</time>
      </trkpt>
      <trkpt lat="45.98663" lon="5.49923">
        <ele>845.8</ele>
        <time>2026-05-11T13:34:05Z</time>
      </trkpt>
      <trkpt lat="45.98666" lon="5.49923">
        <ele>845.4</ele>
        <time>2026-05-11T13:34:06Z</time>
      </trkpt>
      <trkpt lat="45.9867" lon="5.49921">
        <ele>845.2</ele>
        <time>2026-05-11T13:34:07Z</time>
      </trkpt>
      <trkpt lat="45.98675" lon="5.49921">
        <ele>845.4</ele>
        <time>2026-05-11T13:34:08Z</time>
      </trkpt>
      <trkpt lat="45.98678" lon="5.49921">
        <ele>845</ele>
        <time>2026-05-11T13:34:09Z</time>
      </trkpt>
      <trkpt lat="45.98684" lon="5.49923">
        <ele>844.6</ele>
        <time>2026-05-11T13:34:10Z</time>
      </trkpt>
      <trkpt lat="45.98689" lon="5.49922">
        <ele>844.4</ele>
        <time>2026-05-11T13:34:11Z</time>
      </trkpt>
      <trkpt lat="45.98694" lon="5.49922">
        <ele>843.8</ele>
        <time>2026-05-11T13:34:12Z</time>
      </trkpt>
      <trkpt lat="45.98698" lon="5.49922">
        <ele>843.2</ele>
        <time>2026-05-11T13:34:13Z</time>
      </trkpt>
      <trkpt lat="45.98704" lon="5.49922">
        <ele>842.6</ele>
        <time>2026-05-11T13:34:14Z</time>
      </trkpt>
      <trkpt lat="45.98709" lon="5.49922">
        <ele>842.6</ele>
        <time>2026-05-11T13:34:15Z</time>
      </trkpt>
      <trkpt lat="45.98715" lon="5.49922">
        <ele>842.6</ele>
        <time>2026-05-11T13:34:16Z</time>
      </trkpt>
      <trkpt lat="45.98721" lon="5.4992">
        <ele>842.2</ele>
        <time>2026-05-11T13:34:17Z</time>
      </trkpt>
      <trkpt lat="45.98728" lon="5.49921">
        <ele>842.2</ele>
        <time>2026-05-11T13:34:18Z</time>
      </trkpt>
      <trkpt lat="45.98732" lon="5.49919">
        <ele>841.2</ele>
        <time>2026-05-11T13:34:19Z</time>
      </trkpt>
      <trkpt lat="45.98738" lon="5.49917">
        <ele>840.8</ele>
        <time>2026-05-11T13:34:20Z</time>
      </trkpt>
      <trkpt lat="45.98743" lon="5.49915">
        <ele>840.4</ele>
        <time>2026-05-11T13:34:21Z</time>
      </trkpt>
      <trkpt lat="45.98748" lon="5.49918">
        <ele>840.8</ele>
        <time>2026-05-11T13:34:22Z</time>
      </trkpt>
      <trkpt lat="45.98753" lon="5.49919">
        <ele>840.8</ele>
        <time>2026-05-11T13:34:23Z</time>
      </trkpt>
      <trkpt lat="45.98756" lon="5.49919">
        <ele>840.8</ele>
        <time>2026-05-11T13:34:24Z</time>
      </trkpt>
      <trkpt lat="45.9876" lon="5.49917">
        <ele>840.8</ele>
        <time>2026-05-11T13:34:25Z</time>
      </trkpt>
      <trkpt lat="45.98765" lon="5.49917">
        <ele>841.8</ele>
        <time>2026-05-11T13:34:26Z</time>
      </trkpt>
      <trkpt lat="45.9877" lon="5.49915">
        <ele>841.8</ele>
        <time>2026-05-11T13:34:27Z</time>
      </trkpt>
      <trkpt lat="45.98773" lon="5.49915">
        <ele>841</ele>
        <time>2026-05-11T13:34:28Z</time>
      </trkpt>
      <trkpt lat="45.98777" lon="5.49916">
        <ele>841</ele>
        <time>2026-05-11T13:34:29Z</time>
      </trkpt>
      <trkpt lat="45.98781" lon="5.49917">
        <ele>840.6</ele>
        <time>2026-05-11T13:34:30Z</time>
      </trkpt>
      <trkpt lat="45.98787" lon="5.49922">
        <ele>840.6</ele>
        <time>2026-05-11T13:34:31Z</time>
      </trkpt>
      <trkpt lat="45.98789" lon="5.49927">
        <ele>840.4</ele>
        <time>2026-05-11T13:34:32Z</time>
      </trkpt>
      <trkpt lat="45.98793" lon="5.49929">
        <ele>840</ele>
        <time>2026-05-11T13:34:33Z</time>
      </trkpt>
      <trkpt lat="45.98797" lon="5.49932">
        <ele>840</ele>
        <time>2026-05-11T13:34:34Z</time>
      </trkpt>
      <trkpt lat="45.988" lon="5.49935">
        <ele>840</ele>
        <time>2026-05-11T13:34:35Z</time>
      </trkpt>
      <trkpt lat="45.98803" lon="5.49937">
        <ele>838.8</ele>
        <time>2026-05-11T13:34:36Z</time>
      </trkpt>
      <trkpt lat="45.98805" lon="5.49939">
        <ele>838.4</ele>
        <time>2026-05-11T13:34:37Z</time>
      </trkpt>
      <trkpt lat="45.9881" lon="5.49941">
        <ele>838.6</ele>
        <time>2026-05-11T13:34:38Z</time>
      </trkpt>
      <trkpt lat="45.98816" lon="5.49946">
        <ele>838.8</ele>
        <time>2026-05-11T13:34:39Z</time>
      </trkpt>
      <trkpt lat="45.9882" lon="5.49949">
        <ele>838.2</ele>
        <time>2026-05-11T13:34:40Z</time>
      </trkpt>
      <trkpt lat="45.98824" lon="5.4995">
        <ele>837.6</ele>
        <time>2026-05-11T13:34:41Z</time>
      </trkpt>
      <trkpt lat="45.98826" lon="5.49951">
        <ele>837.6</ele>
        <time>2026-05-11T13:34:42Z</time>
      </trkpt>
      <trkpt lat="45.98831" lon="5.49954">
        <ele>837.4</ele>
        <time>2026-05-11T13:34:43Z</time>
      </trkpt>
      <trkpt lat="45.98837" lon="5.49957">
        <ele>837.4</ele>
        <time>2026-05-11T13:34:44Z</time>
      </trkpt>
      <trkpt lat="45.98841" lon="5.49963">
        <ele>837</ele>
        <time>2026-05-11T13:34:45Z</time>
      </trkpt>
      <trkpt lat="45.98845" lon="5.49965">
        <ele>836.6</ele>
        <time>2026-05-11T13:34:46Z</time>
      </trkpt>
      <trkpt lat="45.98849" lon="5.4997">
        <ele>837.4</ele>
        <time>2026-05-11T13:34:47Z</time>
      </trkpt>
      <trkpt lat="45.98853" lon="5.49972">
        <ele>836.6</ele>
        <time>2026-05-11T13:34:48Z</time>
      </trkpt>
      <trkpt lat="45.98856" lon="5.49976">
        <ele>837</ele>
        <time>2026-05-11T13:34:49Z</time>
      </trkpt>
      <trkpt lat="45.9886" lon="5.49978">
        <ele>837</ele>
        <time>2026-05-11T13:34:50Z</time>
      </trkpt>
      <trkpt lat="45.98864" lon="5.49979">
        <ele>835.4</ele>
        <time>2026-05-11T13:34:51Z</time>
      </trkpt>
      <trkpt lat="45.98866" lon="5.4998">
        <ele>834.6</ele>
        <time>2026-05-11T13:34:52Z</time>
      </trkpt>
      <trkpt lat="45.98871" lon="5.49979">
        <ele>835</ele>
        <time>2026-05-11T13:34:53Z</time>
      </trkpt>
      <trkpt lat="45.98875" lon="5.49979">
        <ele>835</ele>
        <time>2026-05-11T13:34:54Z</time>
      </trkpt>
      <trkpt lat="45.98881" lon="5.49983">
        <ele>835.2</ele>
        <time>2026-05-11T13:34:55Z</time>
      </trkpt>
      <trkpt lat="45.98883" lon="5.49986">
        <ele>835.2</ele>
        <time>2026-05-11T13:34:56Z</time>
      </trkpt>
      <trkpt lat="45.98888" lon="5.49987">
        <ele>834.6</ele>
        <time>2026-05-11T13:34:57Z</time>
      </trkpt>
      <trkpt lat="45.98893" lon="5.49987">
        <ele>834.6</ele>
        <time>2026-05-11T13:34:58Z</time>
      </trkpt>
      <trkpt lat="45.98897" lon="5.49988">
        <ele>834.6</ele>
        <time>2026-05-11T13:34:59Z</time>
      </trkpt>
      <trkpt lat="45.98902" lon="5.49989">
        <ele>835</ele>
        <time>2026-05-11T13:35:00Z</time>
      </trkpt>
      <trkpt lat="45.98906" lon="5.49992">
        <ele>834.2</ele>
        <time>2026-05-11T13:35:01Z</time>
      </trkpt>
      <trkpt lat="45.98912" lon="5.49993">
        <ele>834</ele>
        <time>2026-05-11T13:35:02Z</time>
      </trkpt>
      <trkpt lat="45.98916" lon="5.49995">
        <ele>833.6</ele>
        <time>2026-05-11T13:35:03Z</time>
      </trkpt>
      <trkpt lat="45.98921" lon="5.49998">
        <ele>833.2</ele>
        <time>2026-05-11T13:35:04Z</time>
      </trkpt>
      <trkpt lat="45.98928" lon="5.50002">
        <ele>832</ele>
        <time>2026-05-11T13:35:05Z</time>
      </trkpt>
      <trkpt lat="45.98932" lon="5.50006">
        <ele>831.6</ele>
        <time>2026-05-11T13:35:06Z</time>
      </trkpt>
      <trkpt lat="45.98937" lon="5.50008">
        <ele>832.4</ele>
        <time>2026-05-11T13:35:07Z</time>
      </trkpt>
      <trkpt lat="45.98941" lon="5.50011">
        <ele>831</ele>
        <time>2026-05-11T13:35:08Z</time>
      </trkpt>
      <trkpt lat="45.98947" lon="5.50011">
        <ele>831</ele>
        <time>2026-05-11T13:35:09Z</time>
      </trkpt>
      <trkpt lat="45.98954" lon="5.50016">
        <ele>831.8</ele>
        <time>2026-05-11T13:35:10Z</time>
      </trkpt>
      <trkpt lat="45.98961" lon="5.50022">
        <ele>831.8</ele>
        <time>2026-05-11T13:35:11Z</time>
      </trkpt>
      <trkpt lat="45.9897" lon="5.50022">
        <ele>831.4</ele>
        <time>2026-05-11T13:35:12Z</time>
      </trkpt>
      <trkpt lat="45.98978" lon="5.50024">
        <ele>831.2</ele>
        <time>2026-05-11T13:35:13Z</time>
      </trkpt>
      <trkpt lat="45.98984" lon="5.50025">
        <ele>831.6</ele>
        <time>2026-05-11T13:35:14Z</time>
      </trkpt>
      <trkpt lat="45.9899" lon="5.50028">
        <ele>831</ele>
        <time>2026-05-11T13:35:15Z</time>
      </trkpt>
      <trkpt lat="45.98998" lon="5.50031">
        <ele>829.4</ele>
        <time>2026-05-11T13:35:16Z</time>
      </trkpt>
      <trkpt lat="45.99005" lon="5.50031">
        <ele>828.2</ele>
        <time>2026-05-11T13:35:17Z</time>
      </trkpt>
      <trkpt lat="45.99013" lon="5.50031">
        <ele>828.2</ele>
        <time>2026-05-11T13:35:18Z</time>
      </trkpt>
      <trkpt lat="45.99018" lon="5.50034">
        <ele>827</ele>
        <time>2026-05-11T13:35:19Z</time>
      </trkpt>
      <trkpt lat="45.99025" lon="5.50037">
        <ele>827</ele>
        <time>2026-05-11T13:35:20Z</time>
      </trkpt>
      <trkpt lat="45.9903" lon="5.50039">
        <ele>827</ele>
        <time>2026-05-11T13:35:21Z</time>
      </trkpt>
      <trkpt lat="45.99036" lon="5.50044">
        <ele>826.6</ele>
        <time>2026-05-11T13:35:22Z</time>
      </trkpt>
      <trkpt lat="45.99041" lon="5.50045">
        <ele>826.6</ele>
        <time>2026-05-11T13:35:23Z</time>
      </trkpt>
      <trkpt lat="45.99048" lon="5.50048">
        <ele>826.6</ele>
        <time>2026-05-11T13:35:24Z</time>
      </trkpt>
      <trkpt lat="45.99053" lon="5.50051">
        <ele>826</ele>
        <time>2026-05-11T13:35:25Z</time>
      </trkpt>
      <trkpt lat="45.99059" lon="5.50055">
        <ele>826</ele>
        <time>2026-05-11T13:35:26Z</time>
      </trkpt>
      <trkpt lat="45.99063" lon="5.50061">
        <ele>826</ele>
        <time>2026-05-11T13:35:27Z</time>
      </trkpt>
      <trkpt lat="45.99071" lon="5.50064">
        <ele>824.4</ele>
        <time>2026-05-11T13:35:28Z</time>
      </trkpt>
      <trkpt lat="45.99077" lon="5.50066">
        <ele>824</ele>
        <time>2026-05-11T13:35:29Z</time>
      </trkpt>
      <trkpt lat="45.99084" lon="5.50069">
        <ele>824</ele>
        <time>2026-05-11T13:35:30Z</time>
      </trkpt>
      <trkpt lat="45.99084" lon="5.50069">
        <ele>824</ele>
        <time>2026-05-11T13:35:31Z</time>
      </trkpt>
      <trkpt lat="45.99087" lon="5.5007">
        <ele>824.4</ele>
        <time>2026-05-11T13:35:32Z</time>
      </trkpt>
      <trkpt lat="45.99091" lon="5.50072">
        <ele>824.4</ele>
        <time>2026-05-11T13:35:33Z</time>
      </trkpt>
      <trkpt lat="45.99095" lon="5.50073">
        <ele>824.4</ele>
        <time>2026-05-11T13:35:34Z</time>
      </trkpt>
      <trkpt lat="45.99098" lon="5.50073">
        <ele>824.4</ele>
        <time>2026-05-11T13:35:35Z</time>
      </trkpt>
      <trkpt lat="45.99101" lon="5.50074">
        <ele>824.8</ele>
        <time>2026-05-11T13:35:36Z</time>
      </trkpt>
      <trkpt lat="45.99105" lon="5.50075">
        <ele>824.8</ele>
        <time>2026-05-11T13:35:37Z</time>
      </trkpt>
      <trkpt lat="45.99108" lon="5.50076">
        <ele>824.8</ele>
        <time>2026-05-11T13:35:38Z</time>
      </trkpt>
      <trkpt lat="45.99112" lon="5.50076">
        <ele>824.8</ele>
        <time>2026-05-11T13:35:39Z</time>
      </trkpt>
      <trkpt lat="45.99115" lon="5.50077">
        <ele>824.6</ele>
        <time>2026-05-11T13:35:40Z</time>
      </trkpt>
      <trkpt lat="45.99118" lon="5.50076">
        <ele>824.6</ele>
        <time>2026-05-11T13:35:41Z</time>
      </trkpt>
      <trkpt lat="45.99122" lon="5.50077">
        <ele>823.6</ele>
        <time>2026-05-11T13:35:42Z</time>
      </trkpt>
      <trkpt lat="45.99126" lon="5.50079">
        <ele>823.6</ele>
        <time>2026-05-11T13:35:43Z</time>
      </trkpt>
      <trkpt lat="45.99129" lon="5.5008">
        <ele>822</ele>
        <time>2026-05-11T13:35:44Z</time>
      </trkpt>
      <trkpt lat="45.99133" lon="5.50082">
        <ele>821.6</ele>
        <time>2026-05-11T13:35:45Z</time>
      </trkpt>
      <trkpt lat="45.99137" lon="5.50084">
        <ele>821.8</ele>
        <time>2026-05-11T13:35:46Z</time>
      </trkpt>
      <trkpt lat="45.99143" lon="5.50086">
        <ele>822</ele>
        <time>2026-05-11T13:35:47Z</time>
      </trkpt>
      <trkpt lat="45.99148" lon="5.50087">
        <ele>821.8</ele>
        <time>2026-05-11T13:35:48Z</time>
      </trkpt>
      <trkpt lat="45.99152" lon="5.5009">
        <ele>820.8</ele>
        <time>2026-05-11T13:35:49Z</time>
      </trkpt>
      <trkpt lat="45.99157" lon="5.50093">
        <ele>821.4</ele>
        <time>2026-05-11T13:35:50Z</time>
      </trkpt>
      <trkpt lat="45.99161" lon="5.50094">
        <ele>820.6</ele>
        <time>2026-05-11T13:35:51Z</time>
      </trkpt>
      <trkpt lat="45.99168" lon="5.50092">
        <ele>819.4</ele>
        <time>2026-05-11T13:35:52Z</time>
      </trkpt>
      <trkpt lat="45.99173" lon="5.50095">
        <ele>820</ele>
        <time>2026-05-11T13:35:53Z</time>
      </trkpt>
      <trkpt lat="45.99178" lon="5.50097">
        <ele>819.6</ele>
        <time>2026-05-11T13:35:54Z</time>
      </trkpt>
      <trkpt lat="45.99183" lon="5.50098">
        <ele>820.2</ele>
        <time>2026-05-11T13:35:55Z</time>
      </trkpt>
      <trkpt lat="45.99187" lon="5.501">
        <ele>820.2</ele>
        <time>2026-05-11T13:35:56Z</time>
      </trkpt>
      <trkpt lat="45.9919" lon="5.50103">
        <ele>820.2</ele>
        <time>2026-05-11T13:35:57Z</time>
      </trkpt>
      <trkpt lat="45.99197" lon="5.50106">
        <ele>819.4</ele>
        <time>2026-05-11T13:35:58Z</time>
      </trkpt>
      <trkpt lat="45.99202" lon="5.50105">
        <ele>819.8</ele>
        <time>2026-05-11T13:35:59Z</time>
      </trkpt>
      <trkpt lat="45.99207" lon="5.50106">
        <ele>819.2</ele>
        <time>2026-05-11T13:36:00Z</time>
      </trkpt>
      <trkpt lat="45.99211" lon="5.50107">
        <ele>818.8</ele>
        <time>2026-05-11T13:36:01Z</time>
      </trkpt>
      <trkpt lat="45.99217" lon="5.50107">
        <ele>818.4</ele>
        <time>2026-05-11T13:36:02Z</time>
      </trkpt>
      <trkpt lat="45.99222" lon="5.50109">
        <ele>818</ele>
        <time>2026-05-11T13:36:03Z</time>
      </trkpt>
      <trkpt lat="45.99228" lon="5.50109">
        <ele>817.8</ele>
        <time>2026-05-11T13:36:04Z</time>
      </trkpt>
      <trkpt lat="45.99235" lon="5.50111">
        <ele>817.2</ele>
        <time>2026-05-11T13:36:05Z</time>
      </trkpt>
      <trkpt lat="45.9924" lon="5.50111">
        <ele>816.8</ele>
        <time>2026-05-11T13:36:06Z</time>
      </trkpt>
      <trkpt lat="45.99246" lon="5.50114">
        <ele>816.8</ele>
        <time>2026-05-11T13:36:07Z</time>
      </trkpt>
      <trkpt lat="45.9925" lon="5.50116">
        <ele>817.4</ele>
        <time>2026-05-11T13:36:08Z</time>
      </trkpt>
      <trkpt lat="45.99255" lon="5.50117">
        <ele>817</ele>
        <time>2026-05-11T13:36:09Z</time>
      </trkpt>
      <trkpt lat="45.9926" lon="5.50118">
        <ele>815.8</ele>
        <time>2026-05-11T13:36:10Z</time>
      </trkpt>
      <trkpt lat="45.99262" lon="5.5012">
        <ele>816.2</ele>
        <time>2026-05-11T13:36:11Z</time>
      </trkpt>
      <trkpt lat="45.99272" lon="5.50124">
        <ele>816.2</ele>
        <time>2026-05-11T13:36:12Z</time>
      </trkpt>
      <trkpt lat="45.99278" lon="5.50125">
        <ele>816.2</ele>
        <time>2026-05-11T13:36:13Z</time>
      </trkpt>
      <trkpt lat="45.99284" lon="5.50126">
        <ele>815.6</ele>
        <time>2026-05-11T13:36:14Z</time>
      </trkpt>
      <trkpt lat="45.99289" lon="5.50128">
        <ele>816.2</ele>
        <time>2026-05-11T13:36:15Z</time>
      </trkpt>
      <trkpt lat="45.99295" lon="5.50129">
        <ele>815.6</ele>
        <time>2026-05-11T13:36:16Z</time>
      </trkpt>
      <trkpt lat="45.993" lon="5.5013">
        <ele>815.2</ele>
        <time>2026-05-11T13:36:17Z</time>
      </trkpt>
      <trkpt lat="45.99305" lon="5.5013">
        <ele>815.2</ele>
        <time>2026-05-11T13:36:18Z</time>
      </trkpt>
      <trkpt lat="45.99312" lon="5.5013">
        <ele>814.4</ele>
        <time>2026-05-11T13:36:19Z</time>
      </trkpt>
      <trkpt lat="45.99318" lon="5.5013">
        <ele>814.4</ele>
        <time>2026-05-11T13:36:20Z</time>
      </trkpt>
      <trkpt lat="45.99322" lon="5.50133">
        <ele>813.8</ele>
        <time>2026-05-11T13:36:21Z</time>
      </trkpt>
      <trkpt lat="45.99328" lon="5.50134">
        <ele>813</ele>
        <time>2026-05-11T13:36:22Z</time>
      </trkpt>
      <trkpt lat="45.99331" lon="5.50132">
        <ele>812.8</ele>
        <time>2026-05-11T13:36:23Z</time>
      </trkpt>
      <trkpt lat="45.99335" lon="5.50137">
        <ele>813.2</ele>
        <time>2026-05-11T13:36:24Z</time>
      </trkpt>
      <trkpt lat="45.9934" lon="5.50137">
        <ele>813.2</ele>
        <time>2026-05-11T13:36:25Z</time>
      </trkpt>
      <trkpt lat="45.99345" lon="5.50141">
        <ele>813.2</ele>
        <time>2026-05-11T13:36:26Z</time>
      </trkpt>
      <trkpt lat="45.9935" lon="5.50143">
        <ele>813.2</ele>
        <time>2026-05-11T13:36:27Z</time>
      </trkpt>
      <trkpt lat="45.99359" lon="5.50146">
        <ele>813.2</ele>
        <time>2026-05-11T13:36:28Z</time>
      </trkpt>
      <trkpt lat="45.99363" lon="5.50153">
        <ele>813.2</ele>
        <time>2026-05-11T13:36:29Z</time>
      </trkpt>
      <trkpt lat="45.99364" lon="5.50155">
        <ele>813.2</ele>
        <time>2026-05-11T13:36:30Z</time>
      </trkpt>
      <trkpt lat="45.99367" lon="5.50157">
        <ele>813.2</ele>
        <time>2026-05-11T13:36:31Z</time>
      </trkpt>
      <trkpt lat="45.99369" lon="5.50158">
        <ele>812.8</ele>
        <time>2026-05-11T13:36:32Z</time>
      </trkpt>
      <trkpt lat="45.9937" lon="5.50159">
        <ele>813</ele>
        <time>2026-05-11T13:36:33Z</time>
      </trkpt>
      <trkpt lat="45.99372" lon="5.5016">
        <ele>812.8</ele>
        <time>2026-05-11T13:36:34Z</time>
      </trkpt>
      <trkpt lat="45.99373" lon="5.50161">
        <ele>813</ele>
        <time>2026-05-11T13:36:35Z</time>
      </trkpt>
      <trkpt lat="45.99375" lon="5.50161">
        <ele>813</ele>
        <time>2026-05-11T13:36:36Z</time>
      </trkpt>
      <trkpt lat="45.99375" lon="5.50161">
        <ele>813</ele>
        <time>2026-05-11T13:36:37Z</time>
      </trkpt>
      <trkpt lat="45.99374" lon="5.50163">
        <ele>813</ele>
        <time>2026-05-11T13:36:38Z</time>
      </trkpt>
      <trkpt lat="45.99375" lon="5.50163">
        <ele>813</ele>
        <time>2026-05-11T13:36:39Z</time>
      </trkpt>
      <trkpt lat="45.9938" lon="5.50166">
        <ele>812.8</ele>
        <time>2026-05-11T13:37:40Z</time>
      </trkpt>
      <trkpt lat="45.99382" lon="5.50167">
        <ele>812.8</ele>
        <time>2026-05-11T13:37:41Z</time>
      </trkpt>
      <trkpt lat="45.99384" lon="5.50168">
        <ele>812.6</ele>
        <time>2026-05-11T13:37:42Z</time>
      </trkpt>
      <trkpt lat="45.99385" lon="5.50168">
        <ele>812.6</ele>
        <time>2026-05-11T13:37:43Z</time>
      </trkpt>
      <trkpt lat="45.99386" lon="5.50167">
        <ele>812.6</ele>
        <time>2026-05-11T13:37:44Z</time>
      </trkpt>
      <trkpt lat="45.99389" lon="5.50166">
        <ele>812</ele>
        <time>2026-05-11T13:37:45Z</time>
      </trkpt>
      <trkpt lat="45.99391" lon="5.50167">
        <ele>812</ele>
        <time>2026-05-11T13:37:46Z</time>
      </trkpt>
      <trkpt lat="45.99395" lon="5.50169">
        <ele>812.4</ele>
        <time>2026-05-11T13:37:47Z</time>
      </trkpt>
      <trkpt lat="45.99398" lon="5.50172">
        <ele>812</ele>
        <time>2026-05-11T13:37:48Z</time>
      </trkpt>
      <trkpt lat="45.99401" lon="5.50174">
        <ele>812</ele>
        <time>2026-05-11T13:37:49Z</time>
      </trkpt>
      <trkpt lat="45.99404" lon="5.50176">
        <ele>812</ele>
        <time>2026-05-11T13:37:50Z</time>
      </trkpt>
      <trkpt lat="45.99406" lon="5.50178">
        <ele>811.8</ele>
        <time>2026-05-11T13:37:51Z</time>
      </trkpt>
      <trkpt lat="45.99409" lon="5.50179">
        <ele>812</ele>
        <time>2026-05-11T13:37:52Z</time>
      </trkpt>
      <trkpt lat="45.99412" lon="5.5018">
        <ele>811.6</ele>
        <time>2026-05-11T13:37:53Z</time>
      </trkpt>
      <trkpt lat="45.99418" lon="5.50182">
        <ele>811.4</ele>
        <time>2026-05-11T13:37:54Z</time>
      </trkpt>
      <trkpt lat="45.99421" lon="5.50185">
        <ele>811.2</ele>
        <time>2026-05-11T13:37:55Z</time>
      </trkpt>
      <trkpt lat="45.99425" lon="5.50186">
        <ele>810.8</ele>
        <time>2026-05-11T13:37:56Z</time>
      </trkpt>
      <trkpt lat="45.99429" lon="5.50187">
        <ele>810.8</ele>
        <time>2026-05-11T13:37:57Z</time>
      </trkpt>
      <trkpt lat="45.99435" lon="5.50191">
        <ele>810</ele>
        <time>2026-05-11T13:37:58Z</time>
      </trkpt>
      <trkpt lat="45.99439" lon="5.50195">
        <ele>810.6</ele>
        <time>2026-05-11T13:37:59Z</time>
      </trkpt>
      <trkpt lat="45.99443" lon="5.50195">
        <ele>810.2</ele>
        <time>2026-05-11T13:38:00Z</time>
      </trkpt>
      <trkpt lat="45.99449" lon="5.50197">
        <ele>810.2</ele>
        <time>2026-05-11T13:38:01Z</time>
      </trkpt>
      <trkpt lat="45.9945" lon="5.50197">
        <ele>810.2</ele>
        <time>2026-05-11T13:38:02Z</time>
      </trkpt>
      <trkpt lat="45.99454" lon="5.50198">
        <ele>809.8</ele>
        <time>2026-05-11T13:38:03Z</time>
      </trkpt>
      <trkpt lat="45.99458" lon="5.50198">
        <ele>809.4</ele>
        <time>2026-05-11T13:38:04Z</time>
      </trkpt>
      <trkpt lat="45.99459" lon="5.50198">
        <ele>809.4</ele>
        <time>2026-05-11T13:38:05Z</time>
      </trkpt>
      <trkpt lat="45.99465" lon="5.50198">
        <ele>809.4</ele>
        <time>2026-05-11T13:38:06Z</time>
      </trkpt>
      <trkpt lat="45.9947" lon="5.50197">
        <ele>809</ele>
        <time>2026-05-11T13:38:07Z</time>
      </trkpt>
      <trkpt lat="45.99474" lon="5.50196">
        <ele>809.4</ele>
        <time>2026-05-11T13:38:08Z</time>
      </trkpt>
      <trkpt lat="45.99478" lon="5.50195">
        <ele>809</ele>
        <time>2026-05-11T13:38:09Z</time>
      </trkpt>
      <trkpt lat="45.99483" lon="5.50192">
        <ele>809</ele>
        <time>2026-05-11T13:38:10Z</time>
      </trkpt>
      <trkpt lat="45.99488" lon="5.5019">
        <ele>808.8</ele>
        <time>2026-05-11T13:38:11Z</time>
      </trkpt>
      <trkpt lat="45.9949" lon="5.50188">
        <ele>808.4</ele>
        <time>2026-05-11T13:38:12Z</time>
      </trkpt>
      <trkpt lat="45.99497" lon="5.50192">
        <ele>808.4</ele>
        <time>2026-05-11T13:38:13Z</time>
      </trkpt>
      <trkpt lat="45.99501" lon="5.50191">
        <ele>808.4</ele>
        <time>2026-05-11T13:38:14Z</time>
      </trkpt>
      <trkpt lat="45.99506" lon="5.50189">
        <ele>808.2</ele>
        <time>2026-05-11T13:38:15Z</time>
      </trkpt>
      <trkpt lat="45.9951" lon="5.5019">
        <ele>808</ele>
        <time>2026-05-11T13:38:16Z</time>
      </trkpt>
      <trkpt lat="45.99514" lon="5.50187">
        <ele>808</ele>
        <time>2026-05-11T13:38:17Z</time>
      </trkpt>
      <trkpt lat="45.99518" lon="5.50185">
        <ele>808</ele>
        <time>2026-05-11T13:38:18Z</time>
      </trkpt>
      <trkpt lat="45.99521" lon="5.50182">
        <ele>807.6</ele>
        <time>2026-05-11T13:38:19Z</time>
      </trkpt>
      <trkpt lat="45.99526" lon="5.50181">
        <ele>807.2</ele>
        <time>2026-05-11T13:38:20Z</time>
      </trkpt>
      <trkpt lat="45.99528" lon="5.50177">
        <ele>807.2</ele>
        <time>2026-05-11T13:38:21Z</time>
      </trkpt>
      <trkpt lat="45.99533" lon="5.50175">
        <ele>807.2</ele>
        <time>2026-05-11T13:38:22Z</time>
      </trkpt>
      <trkpt lat="45.99538" lon="5.50174">
        <ele>806.8</ele>
        <time>2026-05-11T13:38:23Z</time>
      </trkpt>
      <trkpt lat="45.99543" lon="5.50173">
        <ele>806.8</ele>
        <time>2026-05-11T13:38:24Z</time>
      </trkpt>
      <trkpt lat="45.99546" lon="5.50171">
        <ele>805.8</ele>
        <time>2026-05-11T13:38:25Z</time>
      </trkpt>
      <trkpt lat="45.99551" lon="5.50169">
        <ele>805.8</ele>
        <time>2026-05-11T13:38:26Z</time>
      </trkpt>
      <trkpt lat="45.99555" lon="5.50167">
        <ele>805.8</ele>
        <time>2026-05-11T13:38:27Z</time>
      </trkpt>
      <trkpt lat="45.9956" lon="5.50166">
        <ele>805.8</ele>
        <time>2026-05-11T13:38:28Z</time>
      </trkpt>
      <trkpt lat="45.99564" lon="5.50162">
        <ele>806</ele>
        <time>2026-05-11T13:38:29Z</time>
      </trkpt>
      <trkpt lat="45.99567" lon="5.50158">
        <ele>806.4</ele>
        <time>2026-05-11T13:38:30Z</time>
      </trkpt>
      <trkpt lat="45.99571" lon="5.50155">
        <ele>806.4</ele>
        <time>2026-05-11T13:38:31Z</time>
      </trkpt>
      <trkpt lat="45.99575" lon="5.50151">
        <ele>806.4</ele>
        <time>2026-05-11T13:38:32Z</time>
      </trkpt>
      <trkpt lat="45.99579" lon="5.50151">
        <ele>805.6</ele>
        <time>2026-05-11T13:38:33Z</time>
      </trkpt>
      <trkpt lat="45.99584" lon="5.50149">
        <ele>805.6</ele>
        <time>2026-05-11T13:38:34Z</time>
      </trkpt>
      <trkpt lat="45.99588" lon="5.50148">
        <ele>804.8</ele>
        <time>2026-05-11T13:38:35Z</time>
      </trkpt>
      <trkpt lat="45.99592" lon="5.50147">
        <ele>804.2</ele>
        <time>2026-05-11T13:38:36Z</time>
      </trkpt>
      <trkpt lat="45.99601" lon="5.50149">
        <ele>804.8</ele>
        <time>2026-05-11T13:38:37Z</time>
      </trkpt>
      <trkpt lat="45.99605" lon="5.50146">
        <ele>804.2</ele>
        <time>2026-05-11T13:38:38Z</time>
      </trkpt>
      <trkpt lat="45.99611" lon="5.50145">
        <ele>804.2</ele>
        <time>2026-05-11T13:38:39Z</time>
      </trkpt>
      <trkpt lat="45.99617" lon="5.50143">
        <ele>803</ele>
        <time>2026-05-11T13:38:40Z</time>
      </trkpt>
      <trkpt lat="45.99622" lon="5.5014">
        <ele>803</ele>
        <time>2026-05-11T13:38:41Z</time>
      </trkpt>
      <trkpt lat="45.99626" lon="5.50139">
        <ele>802.8</ele>
        <time>2026-05-11T13:38:42Z</time>
      </trkpt>
      <trkpt lat="45.99631" lon="5.50137">
        <ele>801.8</ele>
        <time>2026-05-11T13:38:43Z</time>
      </trkpt>
      <trkpt lat="45.99636" lon="5.50134">
        <ele>801.6</ele>
        <time>2026-05-11T13:38:44Z</time>
      </trkpt>
      <trkpt lat="45.99641" lon="5.50131">
        <ele>801.6</ele>
        <time>2026-05-11T13:38:45Z</time>
      </trkpt>
      <trkpt lat="45.99647" lon="5.50129">
        <ele>800.8</ele>
        <time>2026-05-11T13:38:46Z</time>
      </trkpt>
      <trkpt lat="45.99652" lon="5.50127">
        <ele>800.8</ele>
        <time>2026-05-11T13:38:47Z</time>
      </trkpt>
      <trkpt lat="45.99658" lon="5.50125">
        <ele>800.8</ele>
        <time>2026-05-11T13:38:48Z</time>
      </trkpt>
      <trkpt lat="45.99663" lon="5.50124">
        <ele>800.8</ele>
        <time>2026-05-11T13:38:49Z</time>
      </trkpt>
      <trkpt lat="45.99669" lon="5.50122">
        <ele>799.8</ele>
        <time>2026-05-11T13:38:50Z</time>
      </trkpt>
      <trkpt lat="45.99674" lon="5.50122">
        <ele>800.4</ele>
        <time>2026-05-11T13:38:51Z</time>
      </trkpt>
      <trkpt lat="45.9968" lon="5.5012">
        <ele>798.6</ele>
        <time>2026-05-11T13:38:52Z</time>
      </trkpt>
      <trkpt lat="45.99685" lon="5.50119">
        <ele>797.4</ele>
        <time>2026-05-11T13:38:53Z</time>
      </trkpt>
      <trkpt lat="45.99692" lon="5.50119">
        <ele>797.4</ele>
        <time>2026-05-11T13:38:54Z</time>
      </trkpt>
      <trkpt lat="45.99697" lon="5.50118">
        <ele>797.4</ele>
        <time>2026-05-11T13:38:55Z</time>
      </trkpt>
      <trkpt lat="45.99702" lon="5.50119">
        <ele>797.4</ele>
        <time>2026-05-11T13:38:56Z</time>
      </trkpt>
      <trkpt lat="45.99708" lon="5.5012">
        <ele>797.8</ele>
        <time>2026-05-11T13:38:57Z</time>
      </trkpt>
      <trkpt lat="45.99713" lon="5.5012">
        <ele>798.4</ele>
        <time>2026-05-11T13:38:58Z</time>
      </trkpt>
      <trkpt lat="45.99718" lon="5.5012">
        <ele>798.4</ele>
        <time>2026-05-11T13:38:59Z</time>
      </trkpt>
      <trkpt lat="45.99723" lon="5.5012">
        <ele>798.4</ele>
        <time>2026-05-11T13:39:00Z</time>
      </trkpt>
      <trkpt lat="45.99729" lon="5.5012">
        <ele>798.4</ele>
        <time>2026-05-11T13:39:01Z</time>
      </trkpt>
      <trkpt lat="45.99733" lon="5.50119">
        <ele>798.8</ele>
        <time>2026-05-11T13:39:02Z</time>
      </trkpt>
      <trkpt lat="45.99738" lon="5.50118">
        <ele>798.8</ele>
        <time>2026-05-11T13:39:03Z</time>
      </trkpt>
      <trkpt lat="45.99743" lon="5.50116">
        <ele>798.8</ele>
        <time>2026-05-11T13:39:04Z</time>
      </trkpt>
      <trkpt lat="45.99748" lon="5.50113">
        <ele>798.4</ele>
        <time>2026-05-11T13:39:05Z</time>
      </trkpt>
      <trkpt lat="45.99752" lon="5.5011">
        <ele>798</ele>
        <time>2026-05-11T13:39:06Z</time>
      </trkpt>
      <trkpt lat="45.99758" lon="5.50108">
        <ele>797.8</ele>
        <time>2026-05-11T13:39:07Z</time>
      </trkpt>
      <trkpt lat="45.99762" lon="5.50105">
        <ele>797</ele>
        <time>2026-05-11T13:39:08Z</time>
      </trkpt>
      <trkpt lat="45.99767" lon="5.50101">
        <ele>797</ele>
        <time>2026-05-11T13:39:09Z</time>
      </trkpt>
      <trkpt lat="45.99771" lon="5.50097">
        <ele>797</ele>
        <time>2026-05-11T13:39:10Z</time>
      </trkpt>
      <trkpt lat="45.99775" lon="5.50092">
        <ele>796.6</ele>
        <time>2026-05-11T13:39:11Z</time>
      </trkpt>
      <trkpt lat="45.99778" lon="5.50089">
        <ele>797</ele>
        <time>2026-05-11T13:39:12Z</time>
      </trkpt>
      <trkpt lat="45.99781" lon="5.50086">
        <ele>797</ele>
        <time>2026-05-11T13:39:13Z</time>
      </trkpt>
      <trkpt lat="45.99783" lon="5.50084">
        <ele>797.8</ele>
        <time>2026-05-11T13:39:14Z</time>
      </trkpt>
      <trkpt lat="45.99784" lon="5.50083">
        <ele>797.8</ele>
        <time>2026-05-11T13:39:15Z</time>
      </trkpt>
      <trkpt lat="45.99787" lon="5.50082">
        <ele>797.8</ele>
        <time>2026-05-11T13:39:16Z</time>
      </trkpt>
      <trkpt lat="45.99789" lon="5.50081">
        <ele>797.8</ele>
        <time>2026-05-11T13:39:17Z</time>
      </trkpt>
      <trkpt lat="45.99791" lon="5.50077">
        <ele>797.6</ele>
        <time>2026-05-11T13:39:18Z</time>
      </trkpt>
      <trkpt lat="45.99793" lon="5.50075">
        <ele>797.6</ele>
        <time>2026-05-11T13:39:19Z</time>
      </trkpt>
      <trkpt lat="45.99796" lon="5.50072">
        <ele>797.6</ele>
        <time>2026-05-11T13:39:20Z</time>
      </trkpt>
      <trkpt lat="45.998" lon="5.5007">
        <ele>797.6</ele>
        <time>2026-05-11T13:39:21Z</time>
      </trkpt>
      <trkpt lat="45.99803" lon="5.50068">
        <ele>797.6</ele>
        <time>2026-05-11T13:39:22Z</time>
      </trkpt>
      <trkpt lat="45.99806" lon="5.50066">
        <ele>797.8</ele>
        <time>2026-05-11T13:39:23Z</time>
      </trkpt>
      <trkpt lat="45.9981" lon="5.50065">
        <ele>797.8</ele>
        <time>2026-05-11T13:39:24Z</time>
      </trkpt>
      <trkpt lat="45.99813" lon="5.50064">
        <ele>797.6</ele>
        <time>2026-05-11T13:39:25Z</time>
      </trkpt>
      <trkpt lat="45.99817" lon="5.50063">
        <ele>797.6</ele>
        <time>2026-05-11T13:39:26Z</time>
      </trkpt>
      <trkpt lat="45.99821" lon="5.50062">
        <ele>797.6</ele>
        <time>2026-05-11T13:39:27Z</time>
      </trkpt>
      <trkpt lat="45.99824" lon="5.5006">
        <ele>797.2</ele>
        <time>2026-05-11T13:39:28Z</time>
      </trkpt>
      <trkpt lat="45.99829" lon="5.50058">
        <ele>797.4</ele>
        <time>2026-05-11T13:39:29Z</time>
      </trkpt>
      <trkpt lat="45.99833" lon="5.50056">
        <ele>797.4</ele>
        <time>2026-05-11T13:39:30Z</time>
      </trkpt>
      <trkpt lat="45.99837" lon="5.50053">
        <ele>797.2</ele>
        <time>2026-05-11T13:39:31Z</time>
      </trkpt>
      <trkpt lat="45.99841" lon="5.50053">
        <ele>797.2</ele>
        <time>2026-05-11T13:39:32Z</time>
      </trkpt>
      <trkpt lat="45.99846" lon="5.50053">
        <ele>797.2</ele>
        <time>2026-05-11T13:39:33Z</time>
      </trkpt>
      <trkpt lat="45.9985" lon="5.50055">
        <ele>797.2</ele>
        <time>2026-05-11T13:39:34Z</time>
      </trkpt>
      <trkpt lat="45.99854" lon="5.50056">
        <ele>797.4</ele>
        <time>2026-05-11T13:39:35Z</time>
      </trkpt>
      <trkpt lat="45.99857" lon="5.50058">
        <ele>797.4</ele>
        <time>2026-05-11T13:39:36Z</time>
      </trkpt>
      <trkpt lat="45.99861" lon="5.50061">
        <ele>797.4</ele>
        <time>2026-05-11T13:39:37Z</time>
      </trkpt>
      <trkpt lat="45.99864" lon="5.50063">
        <ele>797.2</ele>
        <time>2026-05-11T13:39:38Z</time>
      </trkpt>
      <trkpt lat="45.99867" lon="5.50065">
        <ele>797.4</ele>
        <time>2026-05-11T13:39:39Z</time>
      </trkpt>
      <trkpt lat="45.99871" lon="5.50067">
        <ele>797.4</ele>
        <time>2026-05-11T13:39:40Z</time>
      </trkpt>
      <trkpt lat="45.99874" lon="5.50068">
        <ele>797.4</ele>
        <time>2026-05-11T13:39:41Z</time>
      </trkpt>
      <trkpt lat="45.99877" lon="5.5007">
        <ele>797.8</ele>
        <time>2026-05-11T13:39:42Z</time>
      </trkpt>
      <trkpt lat="45.99881" lon="5.50071">
        <ele>798</ele>
        <time>2026-05-11T13:39:43Z</time>
      </trkpt>
      <trkpt lat="45.99884" lon="5.50072">
        <ele>798.4</ele>
        <time>2026-05-11T13:39:44Z</time>
      </trkpt>
      <trkpt lat="45.99888" lon="5.50074">
        <ele>798.6</ele>
        <time>2026-05-11T13:39:45Z</time>
      </trkpt>
      <trkpt lat="45.99891" lon="5.50075">
        <ele>798.8</ele>
        <time>2026-05-11T13:39:46Z</time>
      </trkpt>
      <trkpt lat="45.99894" lon="5.50076">
        <ele>799.2</ele>
        <time>2026-05-11T13:39:47Z</time>
      </trkpt>
      <trkpt lat="45.99897" lon="5.50077">
        <ele>799.4</ele>
        <time>2026-05-11T13:39:48Z</time>
      </trkpt>
      <trkpt lat="45.999" lon="5.50078">
        <ele>799.8</ele>
        <time>2026-05-11T13:39:49Z</time>
      </trkpt>
      <trkpt lat="45.99902" lon="5.5008">
        <ele>800</ele>
        <time>2026-05-11T13:39:50Z</time>
      </trkpt>
      <trkpt lat="45.99905" lon="5.50082">
        <ele>800.2</ele>
        <time>2026-05-11T13:39:51Z</time>
      </trkpt>
      <trkpt lat="45.99907" lon="5.50084">
        <ele>800.2</ele>
        <time>2026-05-11T13:39:52Z</time>
      </trkpt>
      <trkpt lat="45.99907" lon="5.50084">
        <ele>800.8</ele>
        <time>2026-05-11T13:39:53Z</time>
      </trkpt>
      <trkpt lat="45.9991" lon="5.50085">
        <ele>800.8</ele>
        <time>2026-05-11T13:39:54Z</time>
      </trkpt>
      <trkpt lat="45.99912" lon="5.50087">
        <ele>801</ele>
        <time>2026-05-11T13:39:55Z</time>
      </trkpt>
      <trkpt lat="45.99914" lon="5.50088">
        <ele>801.4</ele>
        <time>2026-05-11T13:39:56Z</time>
      </trkpt>
      <trkpt lat="45.99916" lon="5.5009">
        <ele>801.4</ele>
        <time>2026-05-11T13:39:57Z</time>
      </trkpt>
      <trkpt lat="45.99919" lon="5.50092">
        <ele>801.6</ele>
        <time>2026-05-11T13:39:58Z</time>
      </trkpt>
      <trkpt lat="45.99921" lon="5.50095">
        <ele>801.8</ele>
        <time>2026-05-11T13:39:59Z</time>
      </trkpt>
      <trkpt lat="45.99922" lon="5.50098">
        <ele>802.2</ele>
        <time>2026-05-11T13:40:00Z</time>
      </trkpt>
      <trkpt lat="45.99924" lon="5.50101">
        <ele>802.2</ele>
        <time>2026-05-11T13:40:01Z</time>
      </trkpt>
      <trkpt lat="45.99926" lon="5.50103">
        <ele>802.4</ele>
        <time>2026-05-11T13:40:02Z</time>
      </trkpt>
      <trkpt lat="45.99928" lon="5.50105">
        <ele>802.4</ele>
        <time>2026-05-11T13:40:03Z</time>
      </trkpt>
      <trkpt lat="45.9993" lon="5.50107">
        <ele>802.8</ele>
        <time>2026-05-11T13:40:04Z</time>
      </trkpt>
      <trkpt lat="45.99932" lon="5.50109">
        <ele>802.8</ele>
        <time>2026-05-11T13:40:05Z</time>
      </trkpt>
      <trkpt lat="45.99934" lon="5.50112">
        <ele>803</ele>
        <time>2026-05-11T13:40:06Z</time>
      </trkpt>
      <trkpt lat="45.99936" lon="5.50114">
        <ele>803</ele>
        <time>2026-05-11T13:40:07Z</time>
      </trkpt>
      <trkpt lat="45.99938" lon="5.50117">
        <ele>803.2</ele>
        <time>2026-05-11T13:40:08Z</time>
      </trkpt>
      <trkpt lat="45.99939" lon="5.50119">
        <ele>803.2</ele>
        <time>2026-05-11T13:40:09Z</time>
      </trkpt>
      <trkpt lat="45.9994" lon="5.50121">
        <ele>803.6</ele>
        <time>2026-05-11T13:40:10Z</time>
      </trkpt>
      <trkpt lat="45.99942" lon="5.50124">
        <ele>804</ele>
        <time>2026-05-11T13:40:11Z</time>
      </trkpt>
      <trkpt lat="45.99944" lon="5.50126">
        <ele>804</ele>
        <time>2026-05-11T13:40:12Z</time>
      </trkpt>
      <trkpt lat="45.99945" lon="5.50128">
        <ele>804.4</ele>
        <time>2026-05-11T13:40:13Z</time>
      </trkpt>
      <trkpt lat="45.99946" lon="5.5013">
        <ele>804.4</ele>
        <time>2026-05-11T13:40:14Z</time>
      </trkpt>
      <trkpt lat="45.99948" lon="5.50132">
        <ele>804.8</ele>
        <time>2026-05-11T13:40:15Z</time>
      </trkpt>
      <trkpt lat="45.99949" lon="5.50134">
        <ele>804.8</ele>
        <time>2026-05-11T13:40:16Z</time>
      </trkpt>
      <trkpt lat="45.99951" lon="5.50136">
        <ele>804.8</ele>
        <time>2026-05-11T13:40:17Z</time>
      </trkpt>
      <trkpt lat="45.99952" lon="5.50138">
        <ele>805</ele>
        <time>2026-05-11T13:40:18Z</time>
      </trkpt>
      <trkpt lat="45.99954" lon="5.5014">
        <ele>805.2</ele>
        <time>2026-05-11T13:40:19Z</time>
      </trkpt>
      <trkpt lat="45.99955" lon="5.50142">
        <ele>805.2</ele>
        <time>2026-05-11T13:40:20Z</time>
      </trkpt>
      <trkpt lat="45.99957" lon="5.50144">
        <ele>805.6</ele>
        <time>2026-05-11T13:40:21Z</time>
      </trkpt>
      <trkpt lat="45.99958" lon="5.50146">
        <ele>805.8</ele>
        <time>2026-05-11T13:40:22Z</time>
      </trkpt>
      <trkpt lat="45.99959" lon="5.50148">
        <ele>805.8</ele>
        <time>2026-05-11T13:40:23Z</time>
      </trkpt>
      <trkpt lat="45.99961" lon="5.50151">
        <ele>806</ele>
        <time>2026-05-11T13:40:24Z</time>
      </trkpt>
      <trkpt lat="45.99962" lon="5.50153">
        <ele>806</ele>
        <time>2026-05-11T13:40:25Z</time>
      </trkpt>
      <trkpt lat="45.99963" lon="5.50156">
        <ele>806</ele>
        <time>2026-05-11T13:40:26Z</time>
      </trkpt>
      <trkpt lat="45.99965" lon="5.50158">
        <ele>806.4</ele>
        <time>2026-05-11T13:40:27Z</time>
      </trkpt>
      <trkpt lat="45.99966" lon="5.50161">
        <ele>806.4</ele>
        <time>2026-05-11T13:40:28Z</time>
      </trkpt>
      <trkpt lat="45.99967" lon="5.50163">
        <ele>806.8</ele>
        <time>2026-05-11T13:40:29Z</time>
      </trkpt>
      <trkpt lat="45.99968" lon="5.50166">
        <ele>807</ele>
        <time>2026-05-11T13:40:30Z</time>
      </trkpt>
      <trkpt lat="45.99969" lon="5.50168">
        <ele>807</ele>
        <time>2026-05-11T13:40:31Z</time>
      </trkpt>
      <trkpt lat="45.9997" lon="5.50171">
        <ele>807.4</ele>
        <time>2026-05-11T13:40:32Z</time>
      </trkpt>
      <trkpt lat="45.99971" lon="5.50174">
        <ele>807.6</ele>
        <time>2026-05-11T13:40:33Z</time>
      </trkpt>
      <trkpt lat="45.99971" lon="5.50177">
        <ele>807.6</ele>
        <time>2026-05-11T13:40:34Z</time>
      </trkpt>
      <trkpt lat="45.99972" lon="5.50179">
        <ele>808</ele>
        <time>2026-05-11T13:40:35Z</time>
      </trkpt>
      <trkpt lat="45.99972" lon="5.50182">
        <ele>808</ele>
        <time>2026-05-11T13:40:36Z</time>
      </trkpt>
      <trkpt lat="45.99973" lon="5.50185">
        <ele>808</ele>
        <time>2026-05-11T13:40:37Z</time>
      </trkpt>
      <trkpt lat="45.99973" lon="5.50188">
        <ele>808.4</ele>
        <time>2026-05-11T13:40:38Z</time>
      </trkpt>
      <trkpt lat="45.99974" lon="5.50191">
        <ele>808.4</ele>
        <time>2026-05-11T13:40:39Z</time>
      </trkpt>
      <trkpt lat="45.99974" lon="5.50194">
        <ele>808.6</ele>
        <time>2026-05-11T13:40:40Z</time>
      </trkpt>
      <trkpt lat="45.99974" lon="5.50197">
        <ele>808.6</ele>
        <time>2026-05-11T13:40:41Z</time>
      </trkpt>
      <trkpt lat="45.99973" lon="5.502">
        <ele>809</ele>
        <time>2026-05-11T13:40:42Z</time>
      </trkpt>
      <trkpt lat="45.99973" lon="5.50202">
        <ele>809.4</ele>
        <time>2026-05-11T13:40:43Z</time>
      </trkpt>
      <trkpt lat="45.99973" lon="5.50205">
        <ele>809.4</ele>
        <time>2026-05-11T13:40:44Z</time>
      </trkpt>
      <trkpt lat="45.99972" lon="5.50208">
        <ele>809.6</ele>
        <time>2026-05-11T13:40:45Z</time>
      </trkpt>
      <trkpt lat="45.99971" lon="5.50211">
        <ele>809.6</ele>
        <time>2026-05-11T13:40:46Z</time>
      </trkpt>
      <trkpt lat="45.99971" lon="5.50214">
        <ele>810</ele>
        <time>2026-05-11T13:40:47Z</time>
      </trkpt>
      <trkpt lat="45.99971" lon="5.50216">
        <ele>810</ele>
        <time>2026-05-11T13:40:48Z</time>
      </trkpt>
      <trkpt lat="45.9997" lon="5.50219">
        <ele>810.4</ele>
        <time>2026-05-11T13:40:49Z</time>
      </trkpt>
      <trkpt lat="45.99969" lon="5.50223">
        <ele>810.4</ele>
        <time>2026-05-11T13:40:50Z</time>
      </trkpt>
      <trkpt lat="45.99969" lon="5.50226">
        <ele>810.6</ele>
        <time>2026-05-11T13:40:51Z</time>
      </trkpt>
      <trkpt lat="45.99968" lon="5.50229">
        <ele>810.6</ele>
        <time>2026-05-11T13:40:52Z</time>
      </trkpt>
      <trkpt lat="45.99967" lon="5.50232">
        <ele>811</ele>
        <time>2026-05-11T13:40:53Z</time>
      </trkpt>
      <trkpt lat="45.99967" lon="5.50235">
        <ele>811</ele>
        <time>2026-05-11T13:40:54Z</time>
      </trkpt>
      <trkpt lat="45.99966" lon="5.5024">
        <ele>811.4</ele>
        <time>2026-05-11T13:40:55Z</time>
      </trkpt>
      <trkpt lat="45.99966" lon="5.50243">
        <ele>811.4</ele>
        <time>2026-05-11T13:40:56Z</time>
      </trkpt>
      <trkpt lat="45.99965" lon="5.50245">
        <ele>811.6</ele>
        <time>2026-05-11T13:40:57Z</time>
      </trkpt>
      <trkpt lat="45.99965" lon="5.50247">
        <ele>812</ele>
        <time>2026-05-11T13:40:58Z</time>
      </trkpt>
      <trkpt lat="45.99964" lon="5.5025">
        <ele>812</ele>
        <time>2026-05-11T13:40:59Z</time>
      </trkpt>
      <trkpt lat="45.99964" lon="5.50252">
        <ele>812.2</ele>
        <time>2026-05-11T13:41:00Z</time>
      </trkpt>
      <trkpt lat="45.99963" lon="5.50255">
        <ele>812.2</ele>
        <time>2026-05-11T13:41:01Z</time>
      </trkpt>
      <trkpt lat="45.99962" lon="5.50257">
        <ele>812.6</ele>
        <time>2026-05-11T13:41:02Z</time>
      </trkpt>
      <trkpt lat="45.99961" lon="5.50259">
        <ele>813</ele>
        <time>2026-05-11T13:41:03Z</time>
      </trkpt>
      <trkpt lat="45.9996" lon="5.50262">
        <ele>813.2</ele>
        <time>2026-05-11T13:41:04Z</time>
      </trkpt>
      <trkpt lat="45.9996" lon="5.50264">
        <ele>813.4</ele>
        <time>2026-05-11T13:41:05Z</time>
      </trkpt>
      <trkpt lat="45.99959" lon="5.50266">
        <ele>813.4</ele>
        <time>2026-05-11T13:41:06Z</time>
      </trkpt>
      <trkpt lat="45.99958" lon="5.50269">
        <ele>813.8</ele>
        <time>2026-05-11T13:41:07Z</time>
      </trkpt>
      <trkpt lat="45.99957" lon="5.50272">
        <ele>813.8</ele>
        <time>2026-05-11T13:41:08Z</time>
      </trkpt>
      <trkpt lat="45.99956" lon="5.50275">
        <ele>813.8</ele>
        <time>2026-05-11T13:41:09Z</time>
      </trkpt>
      <trkpt lat="45.99955" lon="5.50278">
        <ele>814</ele>
        <time>2026-05-11T13:41:10Z</time>
      </trkpt>
      <trkpt lat="45.99955" lon="5.50281">
        <ele>814</ele>
        <time>2026-05-11T13:41:11Z</time>
      </trkpt>
      <trkpt lat="45.99954" lon="5.50283">
        <ele>814</ele>
        <time>2026-05-11T13:41:12Z</time>
      </trkpt>
      <trkpt lat="45.99953" lon="5.50285">
        <ele>814.4</ele>
        <time>2026-05-11T13:41:13Z</time>
      </trkpt>
      <trkpt lat="45.99953" lon="5.50287">
        <ele>814.4</ele>
        <time>2026-05-11T13:41:14Z</time>
      </trkpt>
      <trkpt lat="45.99952" lon="5.50289">
        <ele>814.4</ele>
        <time>2026-05-11T13:41:15Z</time>
      </trkpt>
      <trkpt lat="45.99951" lon="5.50292">
        <ele>814.6</ele>
        <time>2026-05-11T13:41:16Z</time>
      </trkpt>
      <trkpt lat="45.9995" lon="5.50295">
        <ele>814.6</ele>
        <time>2026-05-11T13:41:17Z</time>
      </trkpt>
      <trkpt lat="45.99949" lon="5.50298">
        <ele>814.8</ele>
        <time>2026-05-11T13:41:18Z</time>
      </trkpt>
      <trkpt lat="45.99948" lon="5.50302">
        <ele>814.8</ele>
        <time>2026-05-11T13:41:19Z</time>
      </trkpt>
      <trkpt lat="45.99947" lon="5.50305">
        <ele>814.8</ele>
        <time>2026-05-11T13:41:20Z</time>
      </trkpt>
      <trkpt lat="45.99947" lon="5.50309">
        <ele>814.8</ele>
        <time>2026-05-11T13:41:21Z</time>
      </trkpt>
      <trkpt lat="45.99946" lon="5.50311">
        <ele>814.8</ele>
        <time>2026-05-11T13:41:22Z</time>
      </trkpt>
      <trkpt lat="45.99945" lon="5.50314">
        <ele>814.8</ele>
        <time>2026-05-11T13:41:23Z</time>
      </trkpt>
      <trkpt lat="45.99944" lon="5.50317">
        <ele>814.8</ele>
        <time>2026-05-11T13:41:24Z</time>
      </trkpt>
      <trkpt lat="45.99944" lon="5.5032">
        <ele>814.8</ele>
        <time>2026-05-11T13:41:25Z</time>
      </trkpt>
      <trkpt lat="45.99943" lon="5.50323">
        <ele>814.8</ele>
        <time>2026-05-11T13:41:26Z</time>
      </trkpt>
      <trkpt lat="45.99942" lon="5.50326">
        <ele>814.8</ele>
        <time>2026-05-11T13:41:27Z</time>
      </trkpt>
      <trkpt lat="45.99941" lon="5.50329">
        <ele>814.8</ele>
        <time>2026-05-11T13:41:28Z</time>
      </trkpt>
      <trkpt lat="45.99941" lon="5.50333">
        <ele>814.8</ele>
        <time>2026-05-11T13:41:29Z</time>
      </trkpt>
      <trkpt lat="45.99941" lon="5.50336">
        <ele>815.2</ele>
        <time>2026-05-11T13:41:30Z</time>
      </trkpt>
      <trkpt lat="45.9994" lon="5.5034">
        <ele>815.2</ele>
        <time>2026-05-11T13:41:31Z</time>
      </trkpt>
      <trkpt lat="45.99939" lon="5.50343">
        <ele>815.2</ele>
        <time>2026-05-11T13:41:32Z</time>
      </trkpt>
      <trkpt lat="45.99938" lon="5.50347">
        <ele>815.2</ele>
        <time>2026-05-11T13:41:33Z</time>
      </trkpt>
      <trkpt lat="45.99937" lon="5.50351">
        <ele>815.2</ele>
        <time>2026-05-11T13:41:34Z</time>
      </trkpt>
      <trkpt lat="45.99936" lon="5.50354">
        <ele>815.2</ele>
        <time>2026-05-11T13:41:35Z</time>
      </trkpt>
      <trkpt lat="45.99935" lon="5.50357">
        <ele>815.2</ele>
        <time>2026-05-11T13:41:36Z</time>
      </trkpt>
      <trkpt lat="45.99933" lon="5.5036">
        <ele>815.4</ele>
        <time>2026-05-11T13:41:37Z</time>
      </trkpt>
      <trkpt lat="45.99932" lon="5.50363">
        <ele>815.4</ele>
        <time>2026-05-11T13:41:38Z</time>
      </trkpt>
      <trkpt lat="45.99931" lon="5.50367">
        <ele>815.8</ele>
        <time>2026-05-11T13:41:39Z</time>
      </trkpt>
      <trkpt lat="45.9993" lon="5.5037">
        <ele>815.8</ele>
        <time>2026-05-11T13:41:40Z</time>
      </trkpt>
      <trkpt lat="45.99929" lon="5.50373">
        <ele>815.8</ele>
        <time>2026-05-11T13:41:41Z</time>
      </trkpt>
      <trkpt lat="45.99928" lon="5.50377">
        <ele>816</ele>
        <time>2026-05-11T13:41:42Z</time>
      </trkpt>
      <trkpt lat="45.99926" lon="5.5038">
        <ele>816</ele>
        <time>2026-05-11T13:41:43Z</time>
      </trkpt>
      <trkpt lat="45.99925" lon="5.50383">
        <ele>816.4</ele>
        <time>2026-05-11T13:41:44Z</time>
      </trkpt>
      <trkpt lat="45.99924" lon="5.50386">
        <ele>816.4</ele>
        <time>2026-05-11T13:41:45Z</time>
      </trkpt>
      <trkpt lat="45.99922" lon="5.50389">
        <ele>816.4</ele>
        <time>2026-05-11T13:41:46Z</time>
      </trkpt>
      <trkpt lat="45.9992" lon="5.50392">
        <ele>816.6</ele>
        <time>2026-05-11T13:41:47Z</time>
      </trkpt>
      <trkpt lat="45.99919" lon="5.50396">
        <ele>816.8</ele>
        <time>2026-05-11T13:41:48Z</time>
      </trkpt>
      <trkpt lat="45.99917" lon="5.50399">
        <ele>816.8</ele>
        <time>2026-05-11T13:41:49Z</time>
      </trkpt>
      <trkpt lat="45.99916" lon="5.50401">
        <ele>817</ele>
        <time>2026-05-11T13:41:50Z</time>
      </trkpt>
      <trkpt lat="45.99914" lon="5.50405">
        <ele>817</ele>
        <time>2026-05-11T13:41:51Z</time>
      </trkpt>
      <trkpt lat="45.99913" lon="5.50409">
        <ele>817.2</ele>
        <time>2026-05-11T13:41:52Z</time>
      </trkpt>
      <trkpt lat="45.99912" lon="5.50412">
        <ele>817.2</ele>
        <time>2026-05-11T13:41:53Z</time>
      </trkpt>
      <trkpt lat="45.99911" lon="5.50415">
        <ele>817.6</ele>
        <time>2026-05-11T13:41:54Z</time>
      </trkpt>
      <trkpt lat="45.9991" lon="5.50418">
        <ele>817.6</ele>
        <time>2026-05-11T13:41:55Z</time>
      </trkpt>
      <trkpt lat="45.99909" lon="5.50422">
        <ele>817.6</ele>
        <time>2026-05-11T13:41:56Z</time>
      </trkpt>
      <trkpt lat="45.99907" lon="5.50425">
        <ele>817.6</ele>
        <time>2026-05-11T13:41:57Z</time>
      </trkpt>
      <trkpt lat="45.99905" lon="5.50429">
        <ele>817.6</ele>
        <time>2026-05-11T13:41:58Z</time>
      </trkpt>
      <trkpt lat="45.99904" lon="5.50432">
        <ele>817.6</ele>
        <time>2026-05-11T13:41:59Z</time>
      </trkpt>
      <trkpt lat="45.99902" lon="5.50435">
        <ele>817.6</ele>
        <time>2026-05-11T13:42:00Z</time>
      </trkpt>
      <trkpt lat="45.999" lon="5.50439">
        <ele>817.6</ele>
        <time>2026-05-11T13:42:01Z</time>
      </trkpt>
      <trkpt lat="45.99898" lon="5.50442">
        <ele>817.6</ele>
        <time>2026-05-11T13:42:02Z</time>
      </trkpt>
      <trkpt lat="45.99897" lon="5.50446">
        <ele>817.6</ele>
        <time>2026-05-11T13:42:03Z</time>
      </trkpt>
      <trkpt lat="45.99895" lon="5.50449">
        <ele>817.8</ele>
        <time>2026-05-11T13:42:04Z</time>
      </trkpt>
      <trkpt lat="45.99894" lon="5.50453">
        <ele>817.8</ele>
        <time>2026-05-11T13:42:05Z</time>
      </trkpt>
      <trkpt lat="45.99892" lon="5.50456">
        <ele>817.8</ele>
        <time>2026-05-11T13:42:06Z</time>
      </trkpt>
      <trkpt lat="45.9989" lon="5.5046">
        <ele>817.8</ele>
        <time>2026-05-11T13:42:07Z</time>
      </trkpt>
      <trkpt lat="45.99888" lon="5.50464">
        <ele>817.8</ele>
        <time>2026-05-11T13:42:08Z</time>
      </trkpt>
      <trkpt lat="45.99885" lon="5.50468">
        <ele>817.8</ele>
        <time>2026-05-11T13:42:09Z</time>
      </trkpt>
      <trkpt lat="45.99884" lon="5.50471">
        <ele>817.8</ele>
        <time>2026-05-11T13:42:10Z</time>
      </trkpt>
      <trkpt lat="45.99882" lon="5.50474">
        <ele>817.8</ele>
        <time>2026-05-11T13:42:11Z</time>
      </trkpt>
      <trkpt lat="45.9988" lon="5.50477">
        <ele>817.8</ele>
        <time>2026-05-11T13:42:12Z</time>
      </trkpt>
      <trkpt lat="45.99878" lon="5.50481">
        <ele>817.6</ele>
        <time>2026-05-11T13:42:13Z</time>
      </trkpt>
      <trkpt lat="45.99876" lon="5.50484">
        <ele>817.4</ele>
        <time>2026-05-11T13:42:14Z</time>
      </trkpt>
      <trkpt lat="45.99874" lon="5.50487">
        <ele>817</ele>
        <time>2026-05-11T13:42:15Z</time>
      </trkpt>
      <trkpt lat="45.99872" lon="5.50491">
        <ele>816.8</ele>
        <time>2026-05-11T13:42:16Z</time>
      </trkpt>
      <trkpt lat="45.9987" lon="5.50495">
        <ele>816.8</ele>
        <time>2026-05-11T13:42:17Z</time>
      </trkpt>
      <trkpt lat="45.99868" lon="5.505">
        <ele>816.8</ele>
        <time>2026-05-11T13:42:18Z</time>
      </trkpt>
      <trkpt lat="45.99867" lon="5.50505">
        <ele>816.8</ele>
        <time>2026-05-11T13:42:19Z</time>
      </trkpt>
      <trkpt lat="45.99867" lon="5.5051">
        <ele>816.8</ele>
        <time>2026-05-11T13:42:20Z</time>
      </trkpt>
      <trkpt lat="45.99868" lon="5.50515">
        <ele>816.8</ele>
        <time>2026-05-11T13:42:21Z</time>
      </trkpt>
      <trkpt lat="45.99873" lon="5.50519">
        <ele>816.4</ele>
        <time>2026-05-11T13:42:22Z</time>
      </trkpt>
      <trkpt lat="45.99877" lon="5.50523">
        <ele>816.2</ele>
        <time>2026-05-11T13:42:23Z</time>
      </trkpt>
      <trkpt lat="45.99882" lon="5.50526">
        <ele>816</ele>
        <time>2026-05-11T13:42:24Z</time>
      </trkpt>
      <trkpt lat="45.99888" lon="5.50528">
        <ele>816</ele>
        <time>2026-05-11T13:42:25Z</time>
      </trkpt>
      <trkpt lat="45.99895" lon="5.50529">
        <ele>815.4</ele>
        <time>2026-05-11T13:42:26Z</time>
      </trkpt>
      <trkpt lat="45.99902" lon="5.50528">
        <ele>815</ele>
        <time>2026-05-11T13:42:27Z</time>
      </trkpt>
      <trkpt lat="45.99909" lon="5.50527">
        <ele>814.8</ele>
        <time>2026-05-11T13:42:28Z</time>
      </trkpt>
      <trkpt lat="45.99917" lon="5.50526">
        <ele>814.4</ele>
        <time>2026-05-11T13:42:29Z</time>
      </trkpt>
      <trkpt lat="45.99925" lon="5.50526">
        <ele>814</ele>
        <time>2026-05-11T13:42:30Z</time>
      </trkpt>
      <trkpt lat="45.99934" lon="5.50524">
        <ele>813.2</ele>
        <time>2026-05-11T13:42:31Z</time>
      </trkpt>
      <trkpt lat="45.99943" lon="5.50521">
        <ele>812.4</ele>
        <time>2026-05-11T13:42:32Z</time>
      </trkpt>
      <trkpt lat="45.99952" lon="5.5052">
        <ele>811.8</ele>
        <time>2026-05-11T13:42:33Z</time>
      </trkpt>
      <trkpt lat="45.99961" lon="5.50518">
        <ele>811.4</ele>
        <time>2026-05-11T13:42:34Z</time>
      </trkpt>
      <trkpt lat="45.99971" lon="5.50516">
        <ele>810.8</ele>
        <time>2026-05-11T13:42:35Z</time>
      </trkpt>
      <trkpt lat="45.9998" lon="5.50519">
        <ele>809.8</ele>
        <time>2026-05-11T13:42:36Z</time>
      </trkpt>
      <trkpt lat="45.99988" lon="5.50524">
        <ele>809</ele>
        <time>2026-05-11T13:42:37Z</time>
      </trkpt>
      <trkpt lat="45.99995" lon="5.50534">
        <ele>808</ele>
        <time>2026-05-11T13:42:38Z</time>
      </trkpt>
      <trkpt lat="46.00001" lon="5.50546">
        <ele>807</ele>
        <time>2026-05-11T13:42:39Z</time>
      </trkpt>
      <trkpt lat="46.00006" lon="5.50559">
        <ele>806.2</ele>
        <time>2026-05-11T13:42:40Z</time>
      </trkpt>
      <trkpt lat="46.00011" lon="5.50573">
        <ele>805</ele>
        <time>2026-05-11T13:42:41Z</time>
      </trkpt>
      <trkpt lat="46.00017" lon="5.50585">
        <ele>803.8</ele>
        <time>2026-05-11T13:42:42Z</time>
      </trkpt>
      <trkpt lat="46.00022" lon="5.50598">
        <ele>803.2</ele>
        <time>2026-05-11T13:42:43Z</time>
      </trkpt>
      <trkpt lat="46.00028" lon="5.5061">
        <ele>802.8</ele>
        <time>2026-05-11T13:42:44Z</time>
      </trkpt>
      <trkpt lat="46.00034" lon="5.5062">
        <ele>802</ele>
        <time>2026-05-11T13:42:45Z</time>
      </trkpt>
      <trkpt lat="46.00039" lon="5.50631">
        <ele>801.6</ele>
        <time>2026-05-11T13:42:46Z</time>
      </trkpt>
      <trkpt lat="46.00044" lon="5.50641">
        <ele>801.6</ele>
        <time>2026-05-11T13:42:47Z</time>
      </trkpt>
      <trkpt lat="46.00049" lon="5.5065">
        <ele>801.6</ele>
        <time>2026-05-11T13:42:48Z</time>
      </trkpt>
      <trkpt lat="46.00054" lon="5.5066">
        <ele>801.6</ele>
        <time>2026-05-11T13:42:49Z</time>
      </trkpt>
      <trkpt lat="46.0006" lon="5.50669">
        <ele>801.4</ele>
        <time>2026-05-11T13:42:50Z</time>
      </trkpt>
      <trkpt lat="46.00066" lon="5.50679">
        <ele>801.2</ele>
        <time>2026-05-11T13:42:51Z</time>
      </trkpt>
      <trkpt lat="46.00071" lon="5.50687">
        <ele>800.8</ele>
        <time>2026-05-11T13:42:52Z</time>
      </trkpt>
      <trkpt lat="46.00077" lon="5.50696">
        <ele>800</ele>
        <time>2026-05-11T13:42:53Z</time>
      </trkpt>
      <trkpt lat="46.00081" lon="5.50704">
        <ele>799.6</ele>
        <time>2026-05-11T13:42:54Z</time>
      </trkpt>
      <trkpt lat="46.00085" lon="5.50712">
        <ele>798.8</ele>
        <time>2026-05-11T13:42:55Z</time>
      </trkpt>
      <trkpt lat="46.00089" lon="5.50721">
        <ele>798.2</ele>
        <time>2026-05-11T13:42:56Z</time>
      </trkpt>
      <trkpt lat="46.00093" lon="5.50729">
        <ele>797.6</ele>
        <time>2026-05-11T13:42:57Z</time>
      </trkpt>
      <trkpt lat="46.00096" lon="5.50739">
        <ele>797.2</ele>
        <time>2026-05-11T13:42:58Z</time>
      </trkpt>
      <trkpt lat="46.00099" lon="5.50748">
        <ele>796.6</ele>
        <time>2026-05-11T13:42:59Z</time>
      </trkpt>
      <trkpt lat="46.00102" lon="5.50759">
        <ele>795.8</ele>
        <time>2026-05-11T13:43:00Z</time>
      </trkpt>
      <trkpt lat="46.00104" lon="5.50769">
        <ele>795.2</ele>
        <time>2026-05-11T13:43:01Z</time>
      </trkpt>
      <trkpt lat="46.00106" lon="5.50779">
        <ele>794.4</ele>
        <time>2026-05-11T13:43:02Z</time>
      </trkpt>
      <trkpt lat="46.00107" lon="5.50789">
        <ele>794</ele>
        <time>2026-05-11T13:43:03Z</time>
      </trkpt>
      <trkpt lat="46.00109" lon="5.50796">
        <ele>793.6</ele>
        <time>2026-05-11T13:43:04Z</time>
      </trkpt>
      <trkpt lat="46.0011" lon="5.50805">
        <ele>792.8</ele>
        <time>2026-05-11T13:43:05Z</time>
      </trkpt>
      <trkpt lat="46.00111" lon="5.50813">
        <ele>792.6</ele>
        <time>2026-05-11T13:43:06Z</time>
      </trkpt>
      <trkpt lat="46.00113" lon="5.50819">
        <ele>792.2</ele>
        <time>2026-05-11T13:43:07Z</time>
      </trkpt>
      <trkpt lat="46.00114" lon="5.50824">
        <ele>791.8</ele>
        <time>2026-05-11T13:43:08Z</time>
      </trkpt>
      <trkpt lat="46.00115" lon="5.50827">
        <ele>791.8</ele>
        <time>2026-05-11T13:43:09Z</time>
      </trkpt>
      <trkpt lat="46.00116" lon="5.5083">
        <ele>791.8</ele>
        <time>2026-05-11T13:43:10Z</time>
      </trkpt>
      <trkpt lat="46.00117" lon="5.50834">
        <ele>791.8</ele>
        <time>2026-05-11T13:43:11Z</time>
      </trkpt>
      <trkpt lat="46.00119" lon="5.50837">
        <ele>791.8</ele>
        <time>2026-05-11T13:43:12Z</time>
      </trkpt>
      <trkpt lat="46.00121" lon="5.50841">
        <ele>791.6</ele>
        <time>2026-05-11T13:43:13Z</time>
      </trkpt>
      <trkpt lat="46.00123" lon="5.50844">
        <ele>791.6</ele>
        <time>2026-05-11T13:43:14Z</time>
      </trkpt>
      <trkpt lat="46.00125" lon="5.50848">
        <ele>791.6</ele>
        <time>2026-05-11T13:43:15Z</time>
      </trkpt>
      <trkpt lat="46.00127" lon="5.50855">
        <ele>791.2</ele>
        <time>2026-05-11T13:43:16Z</time>
      </trkpt>
      <trkpt lat="46.00128" lon="5.50858">
        <ele>791.2</ele>
        <time>2026-05-11T13:43:17Z</time>
      </trkpt>
      <trkpt lat="46.00129" lon="5.50861">
        <ele>791</ele>
        <time>2026-05-11T13:43:18Z</time>
      </trkpt>
      <trkpt lat="46.00129" lon="5.50863">
        <ele>791</ele>
        <time>2026-05-11T13:43:19Z</time>
      </trkpt>
      <trkpt lat="46.0013" lon="5.50864">
        <ele>790.6</ele>
        <time>2026-05-11T13:43:20Z</time>
      </trkpt>
      <trkpt lat="46.0013" lon="5.50864">
        <ele>790.6</ele>
        <time>2026-05-11T13:43:21Z</time>
      </trkpt>
      <trkpt lat="46.0013" lon="5.50864">
        <ele>790.6</ele>
        <time>2026-05-11T13:43:22Z</time>
      </trkpt>
      <trkpt lat="46.00129" lon="5.50866">
        <ele>790.4</ele>
        <time>2026-05-11T13:43:36Z</time>
      </trkpt>
      <trkpt lat="46.00129" lon="5.50867">
        <ele>790.4</ele>
        <time>2026-05-11T13:43:37Z</time>
      </trkpt>
      <trkpt lat="46.00128" lon="5.50867">
        <ele>790.4</ele>
        <time>2026-05-11T13:43:38Z</time>
      </trkpt>
      <trkpt lat="46.00128" lon="5.50868">
        <ele>790.4</ele>
        <time>2026-05-11T13:43:39Z</time>
      </trkpt>
      <trkpt lat="46.00127" lon="5.50868">
        <ele>790.4</ele>
        <time>2026-05-11T13:43:40Z</time>
      </trkpt>
      <trkpt lat="46.00127" lon="5.50868">
        <ele>790.4</ele>
        <time>2026-05-11T13:43:41Z</time>
      </trkpt>
      <trkpt lat="46.0013" lon="5.50872">
        <ele>790.6</ele>
        <time>2026-05-11T13:46:52Z</time>
      </trkpt>
      <trkpt lat="46.00133" lon="5.50873">
        <ele>790.6</ele>
        <time>2026-05-11T13:46:53Z</time>
      </trkpt>
      <trkpt lat="46.00136" lon="5.50872">
        <ele>790.4</ele>
        <time>2026-05-11T13:46:54Z</time>
      </trkpt>
      <trkpt lat="46.00139" lon="5.50871">
        <ele>790.4</ele>
        <time>2026-05-11T13:46:55Z</time>
      </trkpt>
      <trkpt lat="46.00142" lon="5.50871">
        <ele>790</ele>
        <time>2026-05-11T13:46:56Z</time>
      </trkpt>
      <trkpt lat="46.00145" lon="5.5087">
        <ele>790</ele>
        <time>2026-05-11T13:46:57Z</time>
      </trkpt>
      <trkpt lat="46.00148" lon="5.5087">
        <ele>789.8</ele>
        <time>2026-05-11T13:46:58Z</time>
      </trkpt>
      <trkpt lat="46.00151" lon="5.5087">
        <ele>789.6</ele>
        <time>2026-05-11T13:46:59Z</time>
      </trkpt>
      <trkpt lat="46.00154" lon="5.50869">
        <ele>789.6</ele>
        <time>2026-05-11T13:47:00Z</time>
      </trkpt>
      <trkpt lat="46.00158" lon="5.50869">
        <ele>789.2</ele>
        <time>2026-05-11T13:47:01Z</time>
      </trkpt>
      <trkpt lat="46.00161" lon="5.50868">
        <ele>789</ele>
        <time>2026-05-11T13:47:02Z</time>
      </trkpt>
      <trkpt lat="46.00165" lon="5.50868">
        <ele>788.8</ele>
        <time>2026-05-11T13:47:03Z</time>
      </trkpt>
      <trkpt lat="46.00168" lon="5.50868">
        <ele>788.8</ele>
        <time>2026-05-11T13:47:04Z</time>
      </trkpt>
      <trkpt lat="46.00171" lon="5.50868">
        <ele>788.4</ele>
        <time>2026-05-11T13:47:05Z</time>
      </trkpt>
      <trkpt lat="46.00174" lon="5.50867">
        <ele>788.4</ele>
        <time>2026-05-11T13:47:06Z</time>
      </trkpt>
      <trkpt lat="46.00178" lon="5.50867">
        <ele>788.4</ele>
        <time>2026-05-11T13:47:07Z</time>
      </trkpt>
      <trkpt lat="46.00182" lon="5.50866">
        <ele>788</ele>
        <time>2026-05-11T13:47:08Z</time>
      </trkpt>
      <trkpt lat="46.00186" lon="5.50866">
        <ele>787.6</ele>
        <time>2026-05-11T13:47:09Z</time>
      </trkpt>
      <trkpt lat="46.0019" lon="5.50865">
        <ele>787.2</ele>
        <time>2026-05-11T13:47:10Z</time>
      </trkpt>
      <trkpt lat="46.00195" lon="5.50864">
        <ele>787</ele>
        <time>2026-05-11T13:47:11Z</time>
      </trkpt>
      <trkpt lat="46.00199" lon="5.50864">
        <ele>786.6</ele>
        <time>2026-05-11T13:47:12Z</time>
      </trkpt>
      <trkpt lat="46.00204" lon="5.50863">
        <ele>786.4</ele>
        <time>2026-05-11T13:47:13Z</time>
      </trkpt>
      <trkpt lat="46.00209" lon="5.50863">
        <ele>786.4</ele>
        <time>2026-05-11T13:47:14Z</time>
      </trkpt>
      <trkpt lat="46.00214" lon="5.50862">
        <ele>786.2</ele>
        <time>2026-05-11T13:47:15Z</time>
      </trkpt>
      <trkpt lat="46.00218" lon="5.50862">
        <ele>785.8</ele>
        <time>2026-05-11T13:47:16Z</time>
      </trkpt>
      <trkpt lat="46.00223" lon="5.50862">
        <ele>785.4</ele>
        <time>2026-05-11T13:47:17Z</time>
      </trkpt>
      <trkpt lat="46.00228" lon="5.50861">
        <ele>785</ele>
        <time>2026-05-11T13:47:18Z</time>
      </trkpt>
      <trkpt lat="46.00232" lon="5.50861">
        <ele>784.8</ele>
        <time>2026-05-11T13:47:19Z</time>
      </trkpt>
      <trkpt lat="46.00237" lon="5.50861">
        <ele>784.8</ele>
        <time>2026-05-11T13:47:20Z</time>
      </trkpt>
      <trkpt lat="46.00241" lon="5.5086">
        <ele>785</ele>
        <time>2026-05-11T13:47:21Z</time>
      </trkpt>
      <trkpt lat="46.00247" lon="5.50859">
        <ele>785</ele>
        <time>2026-05-11T13:47:22Z</time>
      </trkpt>
      <trkpt lat="46.00252" lon="5.50859">
        <ele>785</ele>
        <time>2026-05-11T13:47:23Z</time>
      </trkpt>
      <trkpt lat="46.00257" lon="5.50859">
        <ele>785</ele>
        <time>2026-05-11T13:47:24Z</time>
      </trkpt>
      <trkpt lat="46.00262" lon="5.50859">
        <ele>785</ele>
        <time>2026-05-11T13:47:25Z</time>
      </trkpt>
      <trkpt lat="46.00268" lon="5.5086">
        <ele>785</ele>
        <time>2026-05-11T13:47:26Z</time>
      </trkpt>
      <trkpt lat="46.00274" lon="5.50859">
        <ele>784.4</ele>
        <time>2026-05-11T13:47:27Z</time>
      </trkpt>
      <trkpt lat="46.00279" lon="5.5086">
        <ele>784</ele>
        <time>2026-05-11T13:47:28Z</time>
      </trkpt>
      <trkpt lat="46.00284" lon="5.5086">
        <ele>784</ele>
        <time>2026-05-11T13:47:29Z</time>
      </trkpt>
      <trkpt lat="46.0029" lon="5.5086">
        <ele>783.4</ele>
        <time>2026-05-11T13:47:30Z</time>
      </trkpt>
      <trkpt lat="46.0029" lon="5.5086">
        <ele>783.4</ele>
        <time>2026-05-11T13:47:31Z</time>
      </trkpt>
      <trkpt lat="46.00295" lon="5.50859">
        <ele>783</ele>
        <time>2026-05-11T13:47:32Z</time>
      </trkpt>
      <trkpt lat="46.00301" lon="5.50859">
        <ele>782.8</ele>
        <time>2026-05-11T13:47:33Z</time>
      </trkpt>
      <trkpt lat="46.00307" lon="5.50859">
        <ele>782.6</ele>
        <time>2026-05-11T13:47:34Z</time>
      </trkpt>
      <trkpt lat="46.00312" lon="5.50858">
        <ele>782.6</ele>
        <time>2026-05-11T13:47:35Z</time>
      </trkpt>
      <trkpt lat="46.00317" lon="5.50858">
        <ele>782.6</ele>
        <time>2026-05-11T13:47:36Z</time>
      </trkpt>
      <trkpt lat="46.00321" lon="5.50857">
        <ele>782.6</ele>
        <time>2026-05-11T13:47:37Z</time>
      </trkpt>
      <trkpt lat="46.00323" lon="5.50858">
        <ele>782.8</ele>
        <time>2026-05-11T13:47:38Z</time>
      </trkpt>
      <trkpt lat="46.00325" lon="5.50859">
        <ele>782.8</ele>
        <time>2026-05-11T13:47:39Z</time>
      </trkpt>
      <trkpt lat="46.00325" lon="5.50863">
        <ele>782.8</ele>
        <time>2026-05-11T13:47:40Z</time>
      </trkpt>
      <trkpt lat="46.00324" lon="5.50867">
        <ele>783</ele>
        <time>2026-05-11T13:47:41Z</time>
      </trkpt>
      <trkpt lat="46.00325" lon="5.5087">
        <ele>783</ele>
        <time>2026-05-11T13:47:42Z</time>
      </trkpt>
      <trkpt lat="46.00325" lon="5.50875">
        <ele>783</ele>
        <time>2026-05-11T13:47:43Z</time>
      </trkpt>
      <trkpt lat="46.00325" lon="5.50879">
        <ele>783.2</ele>
        <time>2026-05-11T13:47:44Z</time>
      </trkpt>
      <trkpt lat="46.00325" lon="5.50884">
        <ele>783.2</ele>
        <time>2026-05-11T13:47:45Z</time>
      </trkpt>
      <trkpt lat="46.00325" lon="5.50889">
        <ele>783.2</ele>
        <time>2026-05-11T13:47:46Z</time>
      </trkpt>
      <trkpt lat="46.00326" lon="5.50893">
        <ele>783</ele>
        <time>2026-05-11T13:47:47Z</time>
      </trkpt>
      <trkpt lat="46.00327" lon="5.50898">
        <ele>783</ele>
        <time>2026-05-11T13:47:48Z</time>
      </trkpt>
      <trkpt lat="46.00327" lon="5.50903">
        <ele>783</ele>
        <time>2026-05-11T13:47:49Z</time>
      </trkpt>
      <trkpt lat="46.00328" lon="5.50907">
        <ele>783</ele>
        <time>2026-05-11T13:47:50Z</time>
      </trkpt>
      <trkpt lat="46.00329" lon="5.50912">
        <ele>782.8</ele>
        <time>2026-05-11T13:47:51Z</time>
      </trkpt>
      <trkpt lat="46.00329" lon="5.50916">
        <ele>782.8</ele>
        <time>2026-05-11T13:47:52Z</time>
      </trkpt>
      <trkpt lat="46.0033" lon="5.5092">
        <ele>782.8</ele>
        <time>2026-05-11T13:47:53Z</time>
      </trkpt>
      <trkpt lat="46.00331" lon="5.50924">
        <ele>782.8</ele>
        <time>2026-05-11T13:47:54Z</time>
      </trkpt>
      <trkpt lat="46.00332" lon="5.50927">
        <ele>782.8</ele>
        <time>2026-05-11T13:47:55Z</time>
      </trkpt>
      <trkpt lat="46.00333" lon="5.5093">
        <ele>782.8</ele>
        <time>2026-05-11T13:47:56Z</time>
      </trkpt>
      <trkpt lat="46.00333" lon="5.50934">
        <ele>782.8</ele>
        <time>2026-05-11T13:47:57Z</time>
      </trkpt>
      <trkpt lat="46.00333" lon="5.50938">
        <ele>782.8</ele>
        <time>2026-05-11T13:47:58Z</time>
      </trkpt>
      <trkpt lat="46.00334" lon="5.50942">
        <ele>783</ele>
        <time>2026-05-11T13:47:59Z</time>
      </trkpt>
      <trkpt lat="46.00334" lon="5.50945">
        <ele>783</ele>
        <time>2026-05-11T13:48:00Z</time>
      </trkpt>
      <trkpt lat="46.00335" lon="5.50949">
        <ele>783</ele>
        <time>2026-05-11T13:48:01Z</time>
      </trkpt>
      <trkpt lat="46.00335" lon="5.50953">
        <ele>783.2</ele>
        <time>2026-05-11T13:48:02Z</time>
      </trkpt>
      <trkpt lat="46.00336" lon="5.50956">
        <ele>783.2</ele>
        <time>2026-05-11T13:48:03Z</time>
      </trkpt>
      <trkpt lat="46.00336" lon="5.5096">
        <ele>783.6</ele>
        <time>2026-05-11T13:48:04Z</time>
      </trkpt>
      <trkpt lat="46.00337" lon="5.50964">
        <ele>783.6</ele>
        <time>2026-05-11T13:48:05Z</time>
      </trkpt>
      <trkpt lat="46.00337" lon="5.50967">
        <ele>783.6</ele>
        <time>2026-05-11T13:48:06Z</time>
      </trkpt>
      <trkpt lat="46.00336" lon="5.50971">
        <ele>783.8</ele>
        <time>2026-05-11T13:48:07Z</time>
      </trkpt>
      <trkpt lat="46.00336" lon="5.50975">
        <ele>783.8</ele>
        <time>2026-05-11T13:48:08Z</time>
      </trkpt>
      <trkpt lat="46.00336" lon="5.50978">
        <ele>784.4</ele>
        <time>2026-05-11T13:48:09Z</time>
      </trkpt>
      <trkpt lat="46.00335" lon="5.50981">
        <ele>784.6</ele>
        <time>2026-05-11T13:48:10Z</time>
      </trkpt>
      <trkpt lat="46.00334" lon="5.50984">
        <ele>784.8</ele>
        <time>2026-05-11T13:48:11Z</time>
      </trkpt>
      <trkpt lat="46.00334" lon="5.50987">
        <ele>785.2</ele>
        <time>2026-05-11T13:48:12Z</time>
      </trkpt>
      <trkpt lat="46.00334" lon="5.5099">
        <ele>785.4</ele>
        <time>2026-05-11T13:48:13Z</time>
      </trkpt>
      <trkpt lat="46.00333" lon="5.50993">
        <ele>785.4</ele>
        <time>2026-05-11T13:48:14Z</time>
      </trkpt>
      <trkpt lat="46.00333" lon="5.50997">
        <ele>785.8</ele>
        <time>2026-05-11T13:48:15Z</time>
      </trkpt>
      <trkpt lat="46.00333" lon="5.51003">
        <ele>785.8</ele>
        <time>2026-05-11T13:48:16Z</time>
      </trkpt>
      <trkpt lat="46.00333" lon="5.51006">
        <ele>786</ele>
        <time>2026-05-11T13:48:17Z</time>
      </trkpt>
      <trkpt lat="46.00332" lon="5.5101">
        <ele>786</ele>
        <time>2026-05-11T13:48:18Z</time>
      </trkpt>
      <trkpt lat="46.00333" lon="5.51014">
        <ele>786</ele>
        <time>2026-05-11T13:48:19Z</time>
      </trkpt>
      <trkpt lat="46.00333" lon="5.51017">
        <ele>786</ele>
        <time>2026-05-11T13:48:20Z</time>
      </trkpt>
      <trkpt lat="46.00333" lon="5.51021">
        <ele>786</ele>
        <time>2026-05-11T13:48:21Z</time>
      </trkpt>
      <trkpt lat="46.00333" lon="5.51026">
        <ele>786</ele>
        <time>2026-05-11T13:48:22Z</time>
      </trkpt>
      <trkpt lat="46.00333" lon="5.5103">
        <ele>786</ele>
        <time>2026-05-11T13:48:23Z</time>
      </trkpt>
      <trkpt lat="46.00333" lon="5.51035">
        <ele>786</ele>
        <time>2026-05-11T13:48:24Z</time>
      </trkpt>
      <trkpt lat="46.00333" lon="5.5104">
        <ele>786.2</ele>
        <time>2026-05-11T13:48:25Z</time>
      </trkpt>
      <trkpt lat="46.00333" lon="5.51044">
        <ele>786.2</ele>
        <time>2026-05-11T13:48:26Z</time>
      </trkpt>
      <trkpt lat="46.00333" lon="5.51048">
        <ele>786.2</ele>
        <time>2026-05-11T13:48:27Z</time>
      </trkpt>
      <trkpt lat="46.00333" lon="5.51052">
        <ele>786.6</ele>
        <time>2026-05-11T13:48:28Z</time>
      </trkpt>
      <trkpt lat="46.00333" lon="5.51055">
        <ele>786.6</ele>
        <time>2026-05-11T13:48:29Z</time>
      </trkpt>
      <trkpt lat="46.00333" lon="5.51059">
        <ele>786.6</ele>
        <time>2026-05-11T13:48:30Z</time>
      </trkpt>
      <trkpt lat="46.00334" lon="5.51063">
        <ele>786.6</ele>
        <time>2026-05-11T13:48:31Z</time>
      </trkpt>
      <trkpt lat="46.00334" lon="5.51068">
        <ele>786.6</ele>
        <time>2026-05-11T13:48:32Z</time>
      </trkpt>
      <trkpt lat="46.00335" lon="5.51072">
        <ele>786.6</ele>
        <time>2026-05-11T13:48:33Z</time>
      </trkpt>
      <trkpt lat="46.00335" lon="5.51077">
        <ele>786.6</ele>
        <time>2026-05-11T13:48:34Z</time>
      </trkpt>
      <trkpt lat="46.00336" lon="5.51081">
        <ele>786.8</ele>
        <time>2026-05-11T13:48:35Z</time>
      </trkpt>
      <trkpt lat="46.00336" lon="5.51085">
        <ele>787.2</ele>
        <time>2026-05-11T13:48:36Z</time>
      </trkpt>
      <trkpt lat="46.00336" lon="5.51089">
        <ele>787.4</ele>
        <time>2026-05-11T13:48:37Z</time>
      </trkpt>
      <trkpt lat="46.00336" lon="5.51094">
        <ele>787.4</ele>
        <time>2026-05-11T13:48:38Z</time>
      </trkpt>
      <trkpt lat="46.00337" lon="5.51099">
        <ele>787.6</ele>
        <time>2026-05-11T13:48:39Z</time>
      </trkpt>
      <trkpt lat="46.00337" lon="5.51104">
        <ele>787.6</ele>
        <time>2026-05-11T13:48:40Z</time>
      </trkpt>
      <trkpt lat="46.00338" lon="5.51108">
        <ele>787.6</ele>
        <time>2026-05-11T13:48:41Z</time>
      </trkpt>
      <trkpt lat="46.00339" lon="5.51113">
        <ele>787.4</ele>
        <time>2026-05-11T13:48:42Z</time>
      </trkpt>
      <trkpt lat="46.0034" lon="5.51118">
        <ele>787.4</ele>
        <time>2026-05-11T13:48:43Z</time>
      </trkpt>
      <trkpt lat="46.0034" lon="5.51123">
        <ele>787.4</ele>
        <time>2026-05-11T13:48:44Z</time>
      </trkpt>
      <trkpt lat="46.0034" lon="5.51127">
        <ele>787.4</ele>
        <time>2026-05-11T13:48:45Z</time>
      </trkpt>
      <trkpt lat="46.00341" lon="5.51131">
        <ele>787.6</ele>
        <time>2026-05-11T13:48:46Z</time>
      </trkpt>
      <trkpt lat="46.00341" lon="5.51136">
        <ele>787.6</ele>
        <time>2026-05-11T13:48:47Z</time>
      </trkpt>
      <trkpt lat="46.00341" lon="5.5114">
        <ele>788</ele>
        <time>2026-05-11T13:48:48Z</time>
      </trkpt>
      <trkpt lat="46.00341" lon="5.51144">
        <ele>788</ele>
        <time>2026-05-11T13:48:49Z</time>
      </trkpt>
      <trkpt lat="46.00342" lon="5.51148">
        <ele>788.4</ele>
        <time>2026-05-11T13:48:50Z</time>
      </trkpt>
      <trkpt lat="46.00342" lon="5.51151">
        <ele>788.6</ele>
        <time>2026-05-11T13:48:51Z</time>
      </trkpt>
      <trkpt lat="46.00343" lon="5.51155">
        <ele>788.6</ele>
        <time>2026-05-11T13:48:52Z</time>
      </trkpt>
      <trkpt lat="46.00343" lon="5.51159">
        <ele>788.8</ele>
        <time>2026-05-11T13:48:53Z</time>
      </trkpt>
      <trkpt lat="46.00343" lon="5.51162">
        <ele>788.8</ele>
        <time>2026-05-11T13:48:54Z</time>
      </trkpt>
      <trkpt lat="46.00343" lon="5.51165">
        <ele>789</ele>
        <time>2026-05-11T13:48:55Z</time>
      </trkpt>
      <trkpt lat="46.00343" lon="5.51168">
        <ele>789</ele>
        <time>2026-05-11T13:48:56Z</time>
      </trkpt>
      <trkpt lat="46.00343" lon="5.51171">
        <ele>789.4</ele>
        <time>2026-05-11T13:48:57Z</time>
      </trkpt>
      <trkpt lat="46.00342" lon="5.51174">
        <ele>789.4</ele>
        <time>2026-05-11T13:48:58Z</time>
      </trkpt>
      <trkpt lat="46.00342" lon="5.51177">
        <ele>789.6</ele>
        <time>2026-05-11T13:48:59Z</time>
      </trkpt>
      <trkpt lat="46.00342" lon="5.5118">
        <ele>789.6</ele>
        <time>2026-05-11T13:49:00Z</time>
      </trkpt>
      <trkpt lat="46.00342" lon="5.51183">
        <ele>790</ele>
        <time>2026-05-11T13:49:01Z</time>
      </trkpt>
      <trkpt lat="46.00342" lon="5.51186">
        <ele>790</ele>
        <time>2026-05-11T13:49:02Z</time>
      </trkpt>
      <trkpt lat="46.00341" lon="5.51189">
        <ele>790.4</ele>
        <time>2026-05-11T13:49:03Z</time>
      </trkpt>
      <trkpt lat="46.00341" lon="5.51192">
        <ele>790.4</ele>
        <time>2026-05-11T13:49:04Z</time>
      </trkpt>
      <trkpt lat="46.00341" lon="5.51195">
        <ele>790.6</ele>
        <time>2026-05-11T13:49:05Z</time>
      </trkpt>
      <trkpt lat="46.00341" lon="5.51197">
        <ele>791</ele>
        <time>2026-05-11T13:49:06Z</time>
      </trkpt>
      <trkpt lat="46.00341" lon="5.512">
        <ele>791</ele>
        <time>2026-05-11T13:49:07Z</time>
      </trkpt>
      <trkpt lat="46.00341" lon="5.51203">
        <ele>791.4</ele>
        <time>2026-05-11T13:49:08Z</time>
      </trkpt>
      <trkpt lat="46.0034" lon="5.51206">
        <ele>791.4</ele>
        <time>2026-05-11T13:49:09Z</time>
      </trkpt>
      <trkpt lat="46.0034" lon="5.51208">
        <ele>791.6</ele>
        <time>2026-05-11T13:49:10Z</time>
      </trkpt>
      <trkpt lat="46.0034" lon="5.51211">
        <ele>791.6</ele>
        <time>2026-05-11T13:49:11Z</time>
      </trkpt>
      <trkpt lat="46.0034" lon="5.51213">
        <ele>792</ele>
        <time>2026-05-11T13:49:12Z</time>
      </trkpt>
      <trkpt lat="46.0034" lon="5.51216">
        <ele>792.2</ele>
        <time>2026-05-11T13:49:13Z</time>
      </trkpt>
      <trkpt lat="46.0034" lon="5.51218">
        <ele>792.4</ele>
        <time>2026-05-11T13:49:14Z</time>
      </trkpt>
      <trkpt lat="46.0034" lon="5.5122">
        <ele>792.4</ele>
        <time>2026-05-11T13:49:15Z</time>
      </trkpt>
      <trkpt lat="46.0034" lon="5.51223">
        <ele>792.4</ele>
        <time>2026-05-11T13:49:16Z</time>
      </trkpt>
      <trkpt lat="46.0034" lon="5.51225">
        <ele>792.8</ele>
        <time>2026-05-11T13:49:17Z</time>
      </trkpt>
      <trkpt lat="46.00341" lon="5.51228">
        <ele>792.8</ele>
        <time>2026-05-11T13:49:18Z</time>
      </trkpt>
      <trkpt lat="46.00341" lon="5.5123">
        <ele>793</ele>
        <time>2026-05-11T13:49:19Z</time>
      </trkpt>
      <trkpt lat="46.00341" lon="5.51232">
        <ele>793.2</ele>
        <time>2026-05-11T13:49:20Z</time>
      </trkpt>
      <trkpt lat="46.00341" lon="5.51235">
        <ele>793.2</ele>
        <time>2026-05-11T13:49:21Z</time>
      </trkpt>
      <trkpt lat="46.00341" lon="5.51237">
        <ele>793.8</ele>
        <time>2026-05-11T13:49:22Z</time>
      </trkpt>
      <trkpt lat="46.00341" lon="5.51239">
        <ele>793.8</ele>
        <time>2026-05-11T13:49:23Z</time>
      </trkpt>
      <trkpt lat="46.00341" lon="5.51241">
        <ele>794.2</ele>
        <time>2026-05-11T13:49:24Z</time>
      </trkpt>
      <trkpt lat="46.00341" lon="5.51244">
        <ele>794.2</ele>
        <time>2026-05-11T13:49:25Z</time>
      </trkpt>
      <trkpt lat="46.00341" lon="5.51246">
        <ele>794.4</ele>
        <time>2026-05-11T13:49:26Z</time>
      </trkpt>
      <trkpt lat="46.00341" lon="5.51248">
        <ele>794.6</ele>
        <time>2026-05-11T13:49:27Z</time>
      </trkpt>
      <trkpt lat="46.00341" lon="5.5125">
        <ele>794.8</ele>
        <time>2026-05-11T13:49:28Z</time>
      </trkpt>
      <trkpt lat="46.00342" lon="5.51252">
        <ele>794.8</ele>
        <time>2026-05-11T13:49:29Z</time>
      </trkpt>
      <trkpt lat="46.00342" lon="5.51254">
        <ele>795.2</ele>
        <time>2026-05-11T13:49:30Z</time>
      </trkpt>
      <trkpt lat="46.00343" lon="5.51257">
        <ele>795.2</ele>
        <time>2026-05-11T13:49:31Z</time>
      </trkpt>
      <trkpt lat="46.00343" lon="5.51259">
        <ele>795.4</ele>
        <time>2026-05-11T13:49:32Z</time>
      </trkpt>
      <trkpt lat="46.00344" lon="5.51261">
        <ele>795.4</ele>
        <time>2026-05-11T13:49:33Z</time>
      </trkpt>
      <trkpt lat="46.00344" lon="5.51264">
        <ele>795.8</ele>
        <time>2026-05-11T13:49:34Z</time>
      </trkpt>
      <trkpt lat="46.00344" lon="5.51266">
        <ele>795.8</ele>
        <time>2026-05-11T13:49:35Z</time>
      </trkpt>
      <trkpt lat="46.00344" lon="5.51268">
        <ele>795.8</ele>
        <time>2026-05-11T13:49:36Z</time>
      </trkpt>
      <trkpt lat="46.00344" lon="5.5127">
        <ele>796</ele>
        <time>2026-05-11T13:49:37Z</time>
      </trkpt>
      <trkpt lat="46.00345" lon="5.51272">
        <ele>796</ele>
        <time>2026-05-11T13:49:38Z</time>
      </trkpt>
      <trkpt lat="46.00345" lon="5.51274">
        <ele>796.4</ele>
        <time>2026-05-11T13:49:39Z</time>
      </trkpt>
      <trkpt lat="46.00345" lon="5.51276">
        <ele>796.6</ele>
        <time>2026-05-11T13:49:40Z</time>
      </trkpt>
      <trkpt lat="46.00345" lon="5.51278">
        <ele>796.8</ele>
        <time>2026-05-11T13:49:41Z</time>
      </trkpt>
      <trkpt lat="46.00345" lon="5.5128">
        <ele>796.8</ele>
        <time>2026-05-11T13:49:42Z</time>
      </trkpt>
      <trkpt lat="46.00345" lon="5.51282">
        <ele>796.8</ele>
        <time>2026-05-11T13:49:43Z</time>
      </trkpt>
      <trkpt lat="46.00345" lon="5.51284">
        <ele>797</ele>
        <time>2026-05-11T13:49:44Z</time>
      </trkpt>
      <trkpt lat="46.00345" lon="5.51285">
        <ele>797</ele>
        <time>2026-05-11T13:49:45Z</time>
      </trkpt>
      <trkpt lat="46.00345" lon="5.51288">
        <ele>797.2</ele>
        <time>2026-05-11T13:49:46Z</time>
      </trkpt>
      <trkpt lat="46.00345" lon="5.5129">
        <ele>797.6</ele>
        <time>2026-05-11T13:49:47Z</time>
      </trkpt>
      <trkpt lat="46.00345" lon="5.51291">
        <ele>797.8</ele>
        <time>2026-05-11T13:49:48Z</time>
      </trkpt>
      <trkpt lat="46.00345" lon="5.51293">
        <ele>798.2</ele>
        <time>2026-05-11T13:49:49Z</time>
      </trkpt>
      <trkpt lat="46.00346" lon="5.51295">
        <ele>798.2</ele>
        <time>2026-05-11T13:49:50Z</time>
      </trkpt>
      <trkpt lat="46.00346" lon="5.51298">
        <ele>798.6</ele>
        <time>2026-05-11T13:49:51Z</time>
      </trkpt>
      <trkpt lat="46.00346" lon="5.513">
        <ele>798.6</ele>
        <time>2026-05-11T13:49:52Z</time>
      </trkpt>
      <trkpt lat="46.00347" lon="5.51302">
        <ele>799</ele>
        <time>2026-05-11T13:49:53Z</time>
      </trkpt>
      <trkpt lat="46.00347" lon="5.51304">
        <ele>799.2</ele>
        <time>2026-05-11T13:49:54Z</time>
      </trkpt>
      <trkpt lat="46.00347" lon="5.51307">
        <ele>799.6</ele>
        <time>2026-05-11T13:49:55Z</time>
      </trkpt>
      <trkpt lat="46.00347" lon="5.51309">
        <ele>799.6</ele>
        <time>2026-05-11T13:49:56Z</time>
      </trkpt>
      <trkpt lat="46.00347" lon="5.51311">
        <ele>799.8</ele>
        <time>2026-05-11T13:49:57Z</time>
      </trkpt>
      <trkpt lat="46.00347" lon="5.51313">
        <ele>799.8</ele>
        <time>2026-05-11T13:49:58Z</time>
      </trkpt>
      <trkpt lat="46.00347" lon="5.51315">
        <ele>800</ele>
        <time>2026-05-11T13:49:59Z</time>
      </trkpt>
      <trkpt lat="46.00347" lon="5.51317">
        <ele>800.2</ele>
        <time>2026-05-11T13:50:00Z</time>
      </trkpt>
      <trkpt lat="46.00347" lon="5.5132">
        <ele>800.2</ele>
        <time>2026-05-11T13:50:01Z</time>
      </trkpt>
      <trkpt lat="46.00348" lon="5.51322">
        <ele>800.4</ele>
        <time>2026-05-11T13:50:02Z</time>
      </trkpt>
      <trkpt lat="46.00348" lon="5.51324">
        <ele>800.8</ele>
        <time>2026-05-11T13:50:03Z</time>
      </trkpt>
      <trkpt lat="46.00349" lon="5.51327">
        <ele>801</ele>
        <time>2026-05-11T13:50:04Z</time>
      </trkpt>
      <trkpt lat="46.00349" lon="5.51329">
        <ele>801</ele>
        <time>2026-05-11T13:50:05Z</time>
      </trkpt>
      <trkpt lat="46.0035" lon="5.51331">
        <ele>801.4</ele>
        <time>2026-05-11T13:50:06Z</time>
      </trkpt>
      <trkpt lat="46.0035" lon="5.51333">
        <ele>801.4</ele>
        <time>2026-05-11T13:50:07Z</time>
      </trkpt>
      <trkpt lat="46.00351" lon="5.51336">
        <ele>801.4</ele>
        <time>2026-05-11T13:50:08Z</time>
      </trkpt>
      <trkpt lat="46.00351" lon="5.51338">
        <ele>801.4</ele>
        <time>2026-05-11T13:50:09Z</time>
      </trkpt>
      <trkpt lat="46.00352" lon="5.5134">
        <ele>801.8</ele>
        <time>2026-05-11T13:50:10Z</time>
      </trkpt>
      <trkpt lat="46.00352" lon="5.51342">
        <ele>801.8</ele>
        <time>2026-05-11T13:50:11Z</time>
      </trkpt>
      <trkpt lat="46.00353" lon="5.51344">
        <ele>802.2</ele>
        <time>2026-05-11T13:50:12Z</time>
      </trkpt>
      <trkpt lat="46.00354" lon="5.51346">
        <ele>802.2</ele>
        <time>2026-05-11T13:50:13Z</time>
      </trkpt>
      <trkpt lat="46.00354" lon="5.51349">
        <ele>802.4</ele>
        <time>2026-05-11T13:50:14Z</time>
      </trkpt>
      <trkpt lat="46.00355" lon="5.51351">
        <ele>802.4</ele>
        <time>2026-05-11T13:50:15Z</time>
      </trkpt>
      <trkpt lat="46.00355" lon="5.51352">
        <ele>802.8</ele>
        <time>2026-05-11T13:50:16Z</time>
      </trkpt>
      <trkpt lat="46.00356" lon="5.51354">
        <ele>802.8</ele>
        <time>2026-05-11T13:50:17Z</time>
      </trkpt>
      <trkpt lat="46.00357" lon="5.51356">
        <ele>803.2</ele>
        <time>2026-05-11T13:50:18Z</time>
      </trkpt>
      <trkpt lat="46.00357" lon="5.51358">
        <ele>803.4</ele>
        <time>2026-05-11T13:50:19Z</time>
      </trkpt>
      <trkpt lat="46.00358" lon="5.5136">
        <ele>803.4</ele>
        <time>2026-05-11T13:50:20Z</time>
      </trkpt>
      <trkpt lat="46.00358" lon="5.51362">
        <ele>803.8</ele>
        <time>2026-05-11T13:50:21Z</time>
      </trkpt>
      <trkpt lat="46.00359" lon="5.51364">
        <ele>803.8</ele>
        <time>2026-05-11T13:50:22Z</time>
      </trkpt>
      <trkpt lat="46.0036" lon="5.51365">
        <ele>804.2</ele>
        <time>2026-05-11T13:50:23Z</time>
      </trkpt>
      <trkpt lat="46.0036" lon="5.51367">
        <ele>804.2</ele>
        <time>2026-05-11T13:50:24Z</time>
      </trkpt>
      <trkpt lat="46.00361" lon="5.51369">
        <ele>804.2</ele>
        <time>2026-05-11T13:50:25Z</time>
      </trkpt>
      <trkpt lat="46.00362" lon="5.51371">
        <ele>804.4</ele>
        <time>2026-05-11T13:50:26Z</time>
      </trkpt>
      <trkpt lat="46.00363" lon="5.51373">
        <ele>804.4</ele>
        <time>2026-05-11T13:50:27Z</time>
      </trkpt>
      <trkpt lat="46.00365" lon="5.51375">
        <ele>804.6</ele>
        <time>2026-05-11T13:50:28Z</time>
      </trkpt>
      <trkpt lat="46.00366" lon="5.51376">
        <ele>804.6</ele>
        <time>2026-05-11T13:50:29Z</time>
      </trkpt>
      <trkpt lat="46.00367" lon="5.51378">
        <ele>804.8</ele>
        <time>2026-05-11T13:50:30Z</time>
      </trkpt>
      <trkpt lat="46.00368" lon="5.5138">
        <ele>804.8</ele>
        <time>2026-05-11T13:50:31Z</time>
      </trkpt>
      <trkpt lat="46.00369" lon="5.51381">
        <ele>805.2</ele>
        <time>2026-05-11T13:50:32Z</time>
      </trkpt>
      <trkpt lat="46.0037" lon="5.51383">
        <ele>805.2</ele>
        <time>2026-05-11T13:50:33Z</time>
      </trkpt>
      <trkpt lat="46.00371" lon="5.51386">
        <ele>805.2</ele>
        <time>2026-05-11T13:50:34Z</time>
      </trkpt>
      <trkpt lat="46.00372" lon="5.51388">
        <ele>805.6</ele>
        <time>2026-05-11T13:50:35Z</time>
      </trkpt>
      <trkpt lat="46.00372" lon="5.5139">
        <ele>805.6</ele>
        <time>2026-05-11T13:50:36Z</time>
      </trkpt>
      <trkpt lat="46.00373" lon="5.51392">
        <ele>805.6</ele>
        <time>2026-05-11T13:50:37Z</time>
      </trkpt>
      <trkpt lat="46.00374" lon="5.51393">
        <ele>805.6</ele>
        <time>2026-05-11T13:50:38Z</time>
      </trkpt>
      <trkpt lat="46.00375" lon="5.51395">
        <ele>805.8</ele>
        <time>2026-05-11T13:50:39Z</time>
      </trkpt>
      <trkpt lat="46.00377" lon="5.51397">
        <ele>805.8</ele>
        <time>2026-05-11T13:50:40Z</time>
      </trkpt>
      <trkpt lat="46.00378" lon="5.51398">
        <ele>805.8</ele>
        <time>2026-05-11T13:50:41Z</time>
      </trkpt>
      <trkpt lat="46.00379" lon="5.514">
        <ele>805.8</ele>
        <time>2026-05-11T13:50:42Z</time>
      </trkpt>
      <trkpt lat="46.0038" lon="5.51401">
        <ele>805.8</ele>
        <time>2026-05-11T13:50:43Z</time>
      </trkpt>
      <trkpt lat="46.00382" lon="5.51403">
        <ele>806</ele>
        <time>2026-05-11T13:50:44Z</time>
      </trkpt>
      <trkpt lat="46.00383" lon="5.51405">
        <ele>806</ele>
        <time>2026-05-11T13:50:45Z</time>
      </trkpt>
      <trkpt lat="46.00385" lon="5.51407">
        <ele>806</ele>
        <time>2026-05-11T13:50:46Z</time>
      </trkpt>
      <trkpt lat="46.00386" lon="5.51408">
        <ele>806</ele>
        <time>2026-05-11T13:50:47Z</time>
      </trkpt>
      <trkpt lat="46.00388" lon="5.5141">
        <ele>806.4</ele>
        <time>2026-05-11T13:50:48Z</time>
      </trkpt>
      <trkpt lat="46.00389" lon="5.51411">
        <ele>806.6</ele>
        <time>2026-05-11T13:50:49Z</time>
      </trkpt>
      <trkpt lat="46.0039" lon="5.51412">
        <ele>806.6</ele>
        <time>2026-05-11T13:50:50Z</time>
      </trkpt>
      <trkpt lat="46.00391" lon="5.51414">
        <ele>807</ele>
        <time>2026-05-11T13:50:51Z</time>
      </trkpt>
      <trkpt lat="46.00392" lon="5.51415">
        <ele>807.2</ele>
        <time>2026-05-11T13:50:52Z</time>
      </trkpt>
      <trkpt lat="46.00393" lon="5.51417">
        <ele>807.4</ele>
        <time>2026-05-11T13:50:53Z</time>
      </trkpt>
      <trkpt lat="46.00395" lon="5.51418">
        <ele>807.4</ele>
        <time>2026-05-11T13:50:54Z</time>
      </trkpt>
      <trkpt lat="46.00396" lon="5.51419">
        <ele>807.6</ele>
        <time>2026-05-11T13:50:55Z</time>
      </trkpt>
      <trkpt lat="46.00396" lon="5.51419">
        <ele>807.6</ele>
        <time>2026-05-11T13:50:56Z</time>
      </trkpt>
      <trkpt lat="46.00397" lon="5.51421">
        <ele>808</ele>
        <time>2026-05-11T13:50:57Z</time>
      </trkpt>
      <trkpt lat="46.00399" lon="5.51422">
        <ele>808</ele>
        <time>2026-05-11T13:50:58Z</time>
      </trkpt>
      <trkpt lat="46.004" lon="5.51424">
        <ele>808</ele>
        <time>2026-05-11T13:50:59Z</time>
      </trkpt>
      <trkpt lat="46.00402" lon="5.51426">
        <ele>808.4</ele>
        <time>2026-05-11T13:51:00Z</time>
      </trkpt>
      <trkpt lat="46.00403" lon="5.51427">
        <ele>808.4</ele>
        <time>2026-05-11T13:51:01Z</time>
      </trkpt>
      <trkpt lat="46.00405" lon="5.51429">
        <ele>808.4</ele>
        <time>2026-05-11T13:51:02Z</time>
      </trkpt>
      <trkpt lat="46.00406" lon="5.5143">
        <ele>808.8</ele>
        <time>2026-05-11T13:51:03Z</time>
      </trkpt>
      <trkpt lat="46.00408" lon="5.51431">
        <ele>808.8</ele>
        <time>2026-05-11T13:51:04Z</time>
      </trkpt>
      <trkpt lat="46.0041" lon="5.51431">
        <ele>809</ele>
        <time>2026-05-11T13:51:05Z</time>
      </trkpt>
      <trkpt lat="46.00412" lon="5.51432">
        <ele>809</ele>
        <time>2026-05-11T13:51:06Z</time>
      </trkpt>
      <trkpt lat="46.00414" lon="5.51432">
        <ele>809</ele>
        <time>2026-05-11T13:51:07Z</time>
      </trkpt>
      <trkpt lat="46.00416" lon="5.51432">
        <ele>809.4</ele>
        <time>2026-05-11T13:51:08Z</time>
      </trkpt>
      <trkpt lat="46.00417" lon="5.51432">
        <ele>809.4</ele>
        <time>2026-05-11T13:51:09Z</time>
      </trkpt>
      <trkpt lat="46.00419" lon="5.51431">
        <ele>809.6</ele>
        <time>2026-05-11T13:51:10Z</time>
      </trkpt>
      <trkpt lat="46.00421" lon="5.51431">
        <ele>809.6</ele>
        <time>2026-05-11T13:51:11Z</time>
      </trkpt>
      <trkpt lat="46.00422" lon="5.51431">
        <ele>809.6</ele>
        <time>2026-05-11T13:51:12Z</time>
      </trkpt>
      <trkpt lat="46.00424" lon="5.51431">
        <ele>809.6</ele>
        <time>2026-05-11T13:51:13Z</time>
      </trkpt>
      <trkpt lat="46.00426" lon="5.5143">
        <ele>809.6</ele>
        <time>2026-05-11T13:51:14Z</time>
      </trkpt>
      <trkpt lat="46.00427" lon="5.5143">
        <ele>809.8</ele>
        <time>2026-05-11T13:51:15Z</time>
      </trkpt>
      <trkpt lat="46.00429" lon="5.5143">
        <ele>809.8</ele>
        <time>2026-05-11T13:51:16Z</time>
      </trkpt>
      <trkpt lat="46.0043" lon="5.5143">
        <ele>810</ele>
        <time>2026-05-11T13:51:17Z</time>
      </trkpt>
      <trkpt lat="46.00432" lon="5.5143">
        <ele>810</ele>
        <time>2026-05-11T13:51:18Z</time>
      </trkpt>
      <trkpt lat="46.00433" lon="5.5143">
        <ele>810.4</ele>
        <time>2026-05-11T13:51:19Z</time>
      </trkpt>
      <trkpt lat="46.00435" lon="5.5143">
        <ele>810.4</ele>
        <time>2026-05-11T13:51:20Z</time>
      </trkpt>
      <trkpt lat="46.00436" lon="5.5143">
        <ele>810.8</ele>
        <time>2026-05-11T13:51:21Z</time>
      </trkpt>
      <trkpt lat="46.00438" lon="5.5143">
        <ele>810.8</ele>
        <time>2026-05-11T13:51:22Z</time>
      </trkpt>
      <trkpt lat="46.0044" lon="5.5143">
        <ele>810.8</ele>
        <time>2026-05-11T13:51:23Z</time>
      </trkpt>
      <trkpt lat="46.00441" lon="5.51429">
        <ele>811.2</ele>
        <time>2026-05-11T13:51:24Z</time>
      </trkpt>
      <trkpt lat="46.00443" lon="5.51429">
        <ele>811.4</ele>
        <time>2026-05-11T13:51:25Z</time>
      </trkpt>
      <trkpt lat="46.00445" lon="5.51428">
        <ele>811.6</ele>
        <time>2026-05-11T13:51:26Z</time>
      </trkpt>
      <trkpt lat="46.00447" lon="5.51428">
        <ele>811.6</ele>
        <time>2026-05-11T13:51:27Z</time>
      </trkpt>
      <trkpt lat="46.00449" lon="5.51427">
        <ele>812.2</ele>
        <time>2026-05-11T13:51:28Z</time>
      </trkpt>
      <trkpt lat="46.00451" lon="5.51427">
        <ele>812.2</ele>
        <time>2026-05-11T13:51:29Z</time>
      </trkpt>
      <trkpt lat="46.00453" lon="5.51427">
        <ele>812.4</ele>
        <time>2026-05-11T13:51:30Z</time>
      </trkpt>
      <trkpt lat="46.00455" lon="5.51427">
        <ele>812.4</ele>
        <time>2026-05-11T13:51:31Z</time>
      </trkpt>
      <trkpt lat="46.00457" lon="5.51427">
        <ele>812.6</ele>
        <time>2026-05-11T13:51:32Z</time>
      </trkpt>
      <trkpt lat="46.00459" lon="5.51427">
        <ele>812.6</ele>
        <time>2026-05-11T13:51:33Z</time>
      </trkpt>
      <trkpt lat="46.00461" lon="5.51427">
        <ele>812.6</ele>
        <time>2026-05-11T13:51:34Z</time>
      </trkpt>
      <trkpt lat="46.00463" lon="5.51427">
        <ele>812.4</ele>
        <time>2026-05-11T13:51:35Z</time>
      </trkpt>
      <trkpt lat="46.00465" lon="5.51426">
        <ele>812.4</ele>
        <time>2026-05-11T13:51:36Z</time>
      </trkpt>
      <trkpt lat="46.00467" lon="5.51426">
        <ele>812.4</ele>
        <time>2026-05-11T13:51:37Z</time>
      </trkpt>
      <trkpt lat="46.00469" lon="5.51426">
        <ele>812.4</ele>
        <time>2026-05-11T13:51:38Z</time>
      </trkpt>
      <trkpt lat="46.00471" lon="5.51425">
        <ele>812.4</ele>
        <time>2026-05-11T13:51:39Z</time>
      </trkpt>
      <trkpt lat="46.00473" lon="5.51424">
        <ele>812.8</ele>
        <time>2026-05-11T13:51:40Z</time>
      </trkpt>
      <trkpt lat="46.00474" lon="5.51424">
        <ele>812.8</ele>
        <time>2026-05-11T13:51:41Z</time>
      </trkpt>
      <trkpt lat="46.00476" lon="5.51423">
        <ele>813.2</ele>
        <time>2026-05-11T13:51:42Z</time>
      </trkpt>
      <trkpt lat="46.00478" lon="5.51423">
        <ele>813.2</ele>
        <time>2026-05-11T13:51:43Z</time>
      </trkpt>
      <trkpt lat="46.0048" lon="5.51423">
        <ele>813.2</ele>
        <time>2026-05-11T13:51:44Z</time>
      </trkpt>
      <trkpt lat="46.00482" lon="5.51423">
        <ele>813.2</ele>
        <time>2026-05-11T13:51:45Z</time>
      </trkpt>
      <trkpt lat="46.00485" lon="5.51422">
        <ele>813.4</ele>
        <time>2026-05-11T13:51:46Z</time>
      </trkpt>
      <trkpt lat="46.00487" lon="5.51422">
        <ele>813.4</ele>
        <time>2026-05-11T13:51:47Z</time>
      </trkpt>
      <trkpt lat="46.00489" lon="5.51421">
        <ele>813.4</ele>
        <time>2026-05-11T13:51:48Z</time>
      </trkpt>
      <trkpt lat="46.00491" lon="5.51419">
        <ele>813.4</ele>
        <time>2026-05-11T13:51:49Z</time>
      </trkpt>
      <trkpt lat="46.00493" lon="5.51418">
        <ele>813.6</ele>
        <time>2026-05-11T13:51:50Z</time>
      </trkpt>
      <trkpt lat="46.00494" lon="5.51416">
        <ele>813.6</ele>
        <time>2026-05-11T13:51:51Z</time>
      </trkpt>
      <trkpt lat="46.00496" lon="5.51416">
        <ele>813.6</ele>
        <time>2026-05-11T13:51:52Z</time>
      </trkpt>
      <trkpt lat="46.00499" lon="5.51415">
        <ele>814</ele>
        <time>2026-05-11T13:51:53Z</time>
      </trkpt>
      <trkpt lat="46.00501" lon="5.51414">
        <ele>814.2</ele>
        <time>2026-05-11T13:51:54Z</time>
      </trkpt>
      <trkpt lat="46.00503" lon="5.51413">
        <ele>814.4</ele>
        <time>2026-05-11T13:51:55Z</time>
      </trkpt>
      <trkpt lat="46.00504" lon="5.51413">
        <ele>814.4</ele>
        <time>2026-05-11T13:51:56Z</time>
      </trkpt>
      <trkpt lat="46.00506" lon="5.51413">
        <ele>814.4</ele>
        <time>2026-05-11T13:51:57Z</time>
      </trkpt>
      <trkpt lat="46.00508" lon="5.51412">
        <ele>814.4</ele>
        <time>2026-05-11T13:51:58Z</time>
      </trkpt>
      <trkpt lat="46.0051" lon="5.51411">
        <ele>814.4</ele>
        <time>2026-05-11T13:51:59Z</time>
      </trkpt>
      <trkpt lat="46.00511" lon="5.5141">
        <ele>815</ele>
        <time>2026-05-11T13:52:00Z</time>
      </trkpt>
      <trkpt lat="46.00513" lon="5.51409">
        <ele>815.2</ele>
        <time>2026-05-11T13:52:01Z</time>
      </trkpt>
      <trkpt lat="46.00515" lon="5.51408">
        <ele>815.2</ele>
        <time>2026-05-11T13:52:02Z</time>
      </trkpt>
      <trkpt lat="46.00516" lon="5.51407">
        <ele>815.6</ele>
        <time>2026-05-11T13:52:03Z</time>
      </trkpt>
      <trkpt lat="46.00518" lon="5.51405">
        <ele>815.6</ele>
        <time>2026-05-11T13:52:04Z</time>
      </trkpt>
      <trkpt lat="46.00519" lon="5.51403">
        <ele>815.6</ele>
        <time>2026-05-11T13:52:05Z</time>
      </trkpt>
      <trkpt lat="46.0052" lon="5.51401">
        <ele>815.6</ele>
        <time>2026-05-11T13:52:06Z</time>
      </trkpt>
      <trkpt lat="46.00522" lon="5.514">
        <ele>815.6</ele>
        <time>2026-05-11T13:52:07Z</time>
      </trkpt>
      <trkpt lat="46.00523" lon="5.51399">
        <ele>815.8</ele>
        <time>2026-05-11T13:52:08Z</time>
      </trkpt>
      <trkpt lat="46.00525" lon="5.51398">
        <ele>816.2</ele>
        <time>2026-05-11T13:52:09Z</time>
      </trkpt>
      <trkpt lat="46.00526" lon="5.51397">
        <ele>816.4</ele>
        <time>2026-05-11T13:52:10Z</time>
      </trkpt>
      <trkpt lat="46.00527" lon="5.51396">
        <ele>816.6</ele>
        <time>2026-05-11T13:52:11Z</time>
      </trkpt>
      <trkpt lat="46.00529" lon="5.51394">
        <ele>816.8</ele>
        <time>2026-05-11T13:52:12Z</time>
      </trkpt>
      <trkpt lat="46.00531" lon="5.51393">
        <ele>817.2</ele>
        <time>2026-05-11T13:52:13Z</time>
      </trkpt>
      <trkpt lat="46.00532" lon="5.51392">
        <ele>817.2</ele>
        <time>2026-05-11T13:52:14Z</time>
      </trkpt>
      <trkpt lat="46.00534" lon="5.51391">
        <ele>817.6</ele>
        <time>2026-05-11T13:52:15Z</time>
      </trkpt>
      <trkpt lat="46.00535" lon="5.51389">
        <ele>817.6</ele>
        <time>2026-05-11T13:52:16Z</time>
      </trkpt>
      <trkpt lat="46.00537" lon="5.51388">
        <ele>818</ele>
        <time>2026-05-11T13:52:17Z</time>
      </trkpt>
      <trkpt lat="46.00539" lon="5.51387">
        <ele>818</ele>
        <time>2026-05-11T13:52:18Z</time>
      </trkpt>
      <trkpt lat="46.00541" lon="5.51385">
        <ele>818.2</ele>
        <time>2026-05-11T13:52:19Z</time>
      </trkpt>
      <trkpt lat="46.00542" lon="5.51384">
        <ele>818.6</ele>
        <time>2026-05-11T13:52:20Z</time>
      </trkpt>
      <trkpt lat="46.00544" lon="5.51383">
        <ele>818.8</ele>
        <time>2026-05-11T13:52:21Z</time>
      </trkpt>
      <trkpt lat="46.00546" lon="5.51382">
        <ele>818.8</ele>
        <time>2026-05-11T13:52:22Z</time>
      </trkpt>
      <trkpt lat="46.00547" lon="5.51381">
        <ele>819.2</ele>
        <time>2026-05-11T13:52:23Z</time>
      </trkpt>
      <trkpt lat="46.00549" lon="5.5138">
        <ele>819.4</ele>
        <time>2026-05-11T13:52:24Z</time>
      </trkpt>
      <trkpt lat="46.00551" lon="5.51379">
        <ele>819.4</ele>
        <time>2026-05-11T13:52:25Z</time>
      </trkpt>
      <trkpt lat="46.00553" lon="5.51378">
        <ele>819.4</ele>
        <time>2026-05-11T13:52:26Z</time>
      </trkpt>
      <trkpt lat="46.00555" lon="5.51377">
        <ele>819.8</ele>
        <time>2026-05-11T13:52:27Z</time>
      </trkpt>
      <trkpt lat="46.00557" lon="5.51376">
        <ele>820</ele>
        <time>2026-05-11T13:52:28Z</time>
      </trkpt>
      <trkpt lat="46.00558" lon="5.51375">
        <ele>820.2</ele>
        <time>2026-05-11T13:52:29Z</time>
      </trkpt>
      <trkpt lat="46.0056" lon="5.51375">
        <ele>820.4</ele>
        <time>2026-05-11T13:52:30Z</time>
      </trkpt>
      <trkpt lat="46.00562" lon="5.51374">
        <ele>820.4</ele>
        <time>2026-05-11T13:52:31Z</time>
      </trkpt>
      <trkpt lat="46.00564" lon="5.51373">
        <ele>820.8</ele>
        <time>2026-05-11T13:52:32Z</time>
      </trkpt>
      <trkpt lat="46.00566" lon="5.51372">
        <ele>820.8</ele>
        <time>2026-05-11T13:52:33Z</time>
      </trkpt>
      <trkpt lat="46.00568" lon="5.51372">
        <ele>821</ele>
        <time>2026-05-11T13:52:34Z</time>
      </trkpt>
      <trkpt lat="46.0057" lon="5.51371">
        <ele>821</ele>
        <time>2026-05-11T13:52:35Z</time>
      </trkpt>
      <trkpt lat="46.00572" lon="5.51371">
        <ele>821.4</ele>
        <time>2026-05-11T13:52:36Z</time>
      </trkpt>
      <trkpt lat="46.00573" lon="5.51371">
        <ele>821.4</ele>
        <time>2026-05-11T13:52:37Z</time>
      </trkpt>
      <trkpt lat="46.00575" lon="5.5137">
        <ele>821.6</ele>
        <time>2026-05-11T13:52:38Z</time>
      </trkpt>
      <trkpt lat="46.00577" lon="5.5137">
        <ele>821.6</ele>
        <time>2026-05-11T13:52:39Z</time>
      </trkpt>
      <trkpt lat="46.00578" lon="5.51369">
        <ele>821.6</ele>
        <time>2026-05-11T13:52:40Z</time>
      </trkpt>
      <trkpt lat="46.0058" lon="5.51369">
        <ele>821.8</ele>
        <time>2026-05-11T13:52:41Z</time>
      </trkpt>
      <trkpt lat="46.00582" lon="5.51368">
        <ele>821.8</ele>
        <time>2026-05-11T13:52:42Z</time>
      </trkpt>
      <trkpt lat="46.00584" lon="5.51368">
        <ele>821.8</ele>
        <time>2026-05-11T13:52:43Z</time>
      </trkpt>
      <trkpt lat="46.00586" lon="5.51367">
        <ele>822.2</ele>
        <time>2026-05-11T13:52:44Z</time>
      </trkpt>
      <trkpt lat="46.00588" lon="5.51367">
        <ele>822.2</ele>
        <time>2026-05-11T13:52:45Z</time>
      </trkpt>
      <trkpt lat="46.0059" lon="5.51367">
        <ele>822.4</ele>
        <time>2026-05-11T13:52:46Z</time>
      </trkpt>
      <trkpt lat="46.00592" lon="5.51366">
        <ele>822.4</ele>
        <time>2026-05-11T13:52:47Z</time>
      </trkpt>
      <trkpt lat="46.00593" lon="5.51366">
        <ele>822.6</ele>
        <time>2026-05-11T13:52:48Z</time>
      </trkpt>
      <trkpt lat="46.00595" lon="5.51367">
        <ele>822.6</ele>
        <time>2026-05-11T13:52:49Z</time>
      </trkpt>
      <trkpt lat="46.00597" lon="5.51367">
        <ele>822.6</ele>
        <time>2026-05-11T13:52:50Z</time>
      </trkpt>
      <trkpt lat="46.00599" lon="5.51367">
        <ele>823</ele>
        <time>2026-05-11T13:52:51Z</time>
      </trkpt>
      <trkpt lat="46.00601" lon="5.51367">
        <ele>823.2</ele>
        <time>2026-05-11T13:52:52Z</time>
      </trkpt>
      <trkpt lat="46.00603" lon="5.51367">
        <ele>823.2</ele>
        <time>2026-05-11T13:52:53Z</time>
      </trkpt>
      <trkpt lat="46.00605" lon="5.51367">
        <ele>823.2</ele>
        <time>2026-05-11T13:52:54Z</time>
      </trkpt>
      <trkpt lat="46.00607" lon="5.51367">
        <ele>823.4</ele>
        <time>2026-05-11T13:52:55Z</time>
      </trkpt>
      <trkpt lat="46.00609" lon="5.51367">
        <ele>823.4</ele>
        <time>2026-05-11T13:52:56Z</time>
      </trkpt>
      <trkpt lat="46.00611" lon="5.51367">
        <ele>823.8</ele>
        <time>2026-05-11T13:52:57Z</time>
      </trkpt>
      <trkpt lat="46.00613" lon="5.51367">
        <ele>823.8</ele>
        <time>2026-05-11T13:52:58Z</time>
      </trkpt>
      <trkpt lat="46.00615" lon="5.51367">
        <ele>824</ele>
        <time>2026-05-11T13:52:59Z</time>
      </trkpt>
      <trkpt lat="46.00616" lon="5.51367">
        <ele>824.4</ele>
        <time>2026-05-11T13:53:00Z</time>
      </trkpt>
      <trkpt lat="46.00618" lon="5.51367">
        <ele>824.6</ele>
        <time>2026-05-11T13:53:01Z</time>
      </trkpt>
      <trkpt lat="46.0062" lon="5.51367">
        <ele>824.6</ele>
        <time>2026-05-11T13:53:02Z</time>
      </trkpt>
      <trkpt lat="46.00622" lon="5.51367">
        <ele>824.8</ele>
        <time>2026-05-11T13:53:03Z</time>
      </trkpt>
      <trkpt lat="46.00624" lon="5.51367">
        <ele>825</ele>
        <time>2026-05-11T13:53:04Z</time>
      </trkpt>
      <trkpt lat="46.00626" lon="5.51366">
        <ele>825</ele>
        <time>2026-05-11T13:53:05Z</time>
      </trkpt>
      <trkpt lat="46.00627" lon="5.51367">
        <ele>825</ele>
        <time>2026-05-11T13:53:06Z</time>
      </trkpt>
      <trkpt lat="46.00629" lon="5.51367">
        <ele>825.2</ele>
        <time>2026-05-11T13:53:07Z</time>
      </trkpt>
      <trkpt lat="46.00631" lon="5.51367">
        <ele>825.2</ele>
        <time>2026-05-11T13:53:08Z</time>
      </trkpt>
      <trkpt lat="46.00633" lon="5.51367">
        <ele>825.6</ele>
        <time>2026-05-11T13:53:09Z</time>
      </trkpt>
      <trkpt lat="46.00635" lon="5.51367">
        <ele>825.6</ele>
        <time>2026-05-11T13:53:10Z</time>
      </trkpt>
      <trkpt lat="46.00636" lon="5.51367">
        <ele>825.8</ele>
        <time>2026-05-11T13:53:11Z</time>
      </trkpt>
      <trkpt lat="46.00638" lon="5.51366">
        <ele>825.8</ele>
        <time>2026-05-11T13:53:12Z</time>
      </trkpt>
      <trkpt lat="46.0064" lon="5.51366">
        <ele>825.8</ele>
        <time>2026-05-11T13:53:13Z</time>
      </trkpt>
      <trkpt lat="46.00642" lon="5.51366">
        <ele>826</ele>
        <time>2026-05-11T13:53:14Z</time>
      </trkpt>
      <trkpt lat="46.00643" lon="5.51366">
        <ele>826</ele>
        <time>2026-05-11T13:53:15Z</time>
      </trkpt>
      <trkpt lat="46.00645" lon="5.51366">
        <ele>826.4</ele>
        <time>2026-05-11T13:53:16Z</time>
      </trkpt>
      <trkpt lat="46.00647" lon="5.51366">
        <ele>826.4</ele>
        <time>2026-05-11T13:53:17Z</time>
      </trkpt>
      <trkpt lat="46.00649" lon="5.51366">
        <ele>826.4</ele>
        <time>2026-05-11T13:53:18Z</time>
      </trkpt>
      <trkpt lat="46.00651" lon="5.51366">
        <ele>826.8</ele>
        <time>2026-05-11T13:53:19Z</time>
      </trkpt>
      <trkpt lat="46.00653" lon="5.51365">
        <ele>826.8</ele>
        <time>2026-05-11T13:53:20Z</time>
      </trkpt>
      <trkpt lat="46.00655" lon="5.51365">
        <ele>827.2</ele>
        <time>2026-05-11T13:53:21Z</time>
      </trkpt>
      <trkpt lat="46.00656" lon="5.51365">
        <ele>827.2</ele>
        <time>2026-05-11T13:53:22Z</time>
      </trkpt>
      <trkpt lat="46.00658" lon="5.51365">
        <ele>827.4</ele>
        <time>2026-05-11T13:53:23Z</time>
      </trkpt>
      <trkpt lat="46.0066" lon="5.51365">
        <ele>827.4</ele>
        <time>2026-05-11T13:53:24Z</time>
      </trkpt>
      <trkpt lat="46.00662" lon="5.51365">
        <ele>827.6</ele>
        <time>2026-05-11T13:53:25Z</time>
      </trkpt>
      <trkpt lat="46.00664" lon="5.51365">
        <ele>827.6</ele>
        <time>2026-05-11T13:53:26Z</time>
      </trkpt>
      <trkpt lat="46.00666" lon="5.51365">
        <ele>827.6</ele>
        <time>2026-05-11T13:53:27Z</time>
      </trkpt>
      <trkpt lat="46.00667" lon="5.51365">
        <ele>827.6</ele>
        <time>2026-05-11T13:53:28Z</time>
      </trkpt>
      <trkpt lat="46.00669" lon="5.51365">
        <ele>827.8</ele>
        <time>2026-05-11T13:53:29Z</time>
      </trkpt>
      <trkpt lat="46.00671" lon="5.51365">
        <ele>827.8</ele>
        <time>2026-05-11T13:53:30Z</time>
      </trkpt>
      <trkpt lat="46.00673" lon="5.51365">
        <ele>827.8</ele>
        <time>2026-05-11T13:53:31Z</time>
      </trkpt>
      <trkpt lat="46.00675" lon="5.51365">
        <ele>827.8</ele>
        <time>2026-05-11T13:53:32Z</time>
      </trkpt>
      <trkpt lat="46.00677" lon="5.51365">
        <ele>828.2</ele>
        <time>2026-05-11T13:53:33Z</time>
      </trkpt>
      <trkpt lat="46.00679" lon="5.51365">
        <ele>828.2</ele>
        <time>2026-05-11T13:53:34Z</time>
      </trkpt>
      <trkpt lat="46.00681" lon="5.51365">
        <ele>828.4</ele>
        <time>2026-05-11T13:53:35Z</time>
      </trkpt>
      <trkpt lat="46.00683" lon="5.51366">
        <ele>828.4</ele>
        <time>2026-05-11T13:53:36Z</time>
      </trkpt>
      <trkpt lat="46.00684" lon="5.51366">
        <ele>828.6</ele>
        <time>2026-05-11T13:53:37Z</time>
      </trkpt>
      <trkpt lat="46.00686" lon="5.51366">
        <ele>828.6</ele>
        <time>2026-05-11T13:53:38Z</time>
      </trkpt>
      <trkpt lat="46.00688" lon="5.51366">
        <ele>828.8</ele>
        <time>2026-05-11T13:53:39Z</time>
      </trkpt>
      <trkpt lat="46.0069" lon="5.51367">
        <ele>829</ele>
        <time>2026-05-11T13:53:40Z</time>
      </trkpt>
      <trkpt lat="46.00692" lon="5.51367">
        <ele>829</ele>
        <time>2026-05-11T13:53:41Z</time>
      </trkpt>
      <trkpt lat="46.00694" lon="5.51367">
        <ele>829.4</ele>
        <time>2026-05-11T13:53:42Z</time>
      </trkpt>
      <trkpt lat="46.00696" lon="5.51368">
        <ele>829.4</ele>
        <time>2026-05-11T13:53:43Z</time>
      </trkpt>
      <trkpt lat="46.00698" lon="5.51368">
        <ele>829.4</ele>
        <time>2026-05-11T13:53:44Z</time>
      </trkpt>
      <trkpt lat="46.007" lon="5.51368">
        <ele>829.8</ele>
        <time>2026-05-11T13:53:45Z</time>
      </trkpt>
      <trkpt lat="46.00702" lon="5.51369">
        <ele>829.8</ele>
        <time>2026-05-11T13:53:46Z</time>
      </trkpt>
      <trkpt lat="46.00704" lon="5.51369">
        <ele>829.8</ele>
        <time>2026-05-11T13:53:47Z</time>
      </trkpt>
      <trkpt lat="46.00705" lon="5.51369">
        <ele>830</ele>
        <time>2026-05-11T13:53:48Z</time>
      </trkpt>
      <trkpt lat="46.00707" lon="5.5137">
        <ele>830</ele>
        <time>2026-05-11T13:53:49Z</time>
      </trkpt>
      <trkpt lat="46.00709" lon="5.51371">
        <ele>830</ele>
        <time>2026-05-11T13:53:50Z</time>
      </trkpt>
      <trkpt lat="46.00711" lon="5.51371">
        <ele>830.2</ele>
        <time>2026-05-11T13:53:51Z</time>
      </trkpt>
      <trkpt lat="46.00713" lon="5.51371">
        <ele>830.2</ele>
        <time>2026-05-11T13:53:52Z</time>
      </trkpt>
      <trkpt lat="46.00715" lon="5.51371">
        <ele>830.6</ele>
        <time>2026-05-11T13:53:53Z</time>
      </trkpt>
      <trkpt lat="46.00717" lon="5.51371">
        <ele>830.6</ele>
        <time>2026-05-11T13:53:54Z</time>
      </trkpt>
      <trkpt lat="46.00719" lon="5.51372">
        <ele>830.8</ele>
        <time>2026-05-11T13:53:55Z</time>
      </trkpt>
      <trkpt lat="46.00721" lon="5.51372">
        <ele>830.8</ele>
        <time>2026-05-11T13:53:56Z</time>
      </trkpt>
      <trkpt lat="46.00723" lon="5.51373">
        <ele>830.8</ele>
        <time>2026-05-11T13:53:57Z</time>
      </trkpt>
      <trkpt lat="46.00725" lon="5.51372">
        <ele>831.2</ele>
        <time>2026-05-11T13:53:58Z</time>
      </trkpt>
      <trkpt lat="46.00727" lon="5.51372">
        <ele>831.2</ele>
        <time>2026-05-11T13:53:59Z</time>
      </trkpt>
      <trkpt lat="46.00728" lon="5.51373">
        <ele>831.4</ele>
        <time>2026-05-11T13:54:00Z</time>
      </trkpt>
      <trkpt lat="46.0073" lon="5.51373">
        <ele>831.4</ele>
        <time>2026-05-11T13:54:01Z</time>
      </trkpt>
      <trkpt lat="46.00733" lon="5.51374">
        <ele>831.8</ele>
        <time>2026-05-11T13:54:02Z</time>
      </trkpt>
      <trkpt lat="46.00734" lon="5.51375">
        <ele>831.8</ele>
        <time>2026-05-11T13:54:03Z</time>
      </trkpt>
      <trkpt lat="46.00737" lon="5.51375">
        <ele>831.8</ele>
        <time>2026-05-11T13:54:04Z</time>
      </trkpt>
      <trkpt lat="46.00739" lon="5.51375">
        <ele>832.2</ele>
        <time>2026-05-11T13:54:05Z</time>
      </trkpt>
      <trkpt lat="46.0074" lon="5.51375">
        <ele>832.2</ele>
        <time>2026-05-11T13:54:06Z</time>
      </trkpt>
      <trkpt lat="46.00742" lon="5.51375">
        <ele>832.6</ele>
        <time>2026-05-11T13:54:07Z</time>
      </trkpt>
      <trkpt lat="46.00744" lon="5.51376">
        <ele>832.6</ele>
        <time>2026-05-11T13:54:08Z</time>
      </trkpt>
      <trkpt lat="46.00746" lon="5.51376">
        <ele>832.6</ele>
        <time>2026-05-11T13:54:09Z</time>
      </trkpt>
      <trkpt lat="46.00748" lon="5.51376">
        <ele>832.8</ele>
        <time>2026-05-11T13:54:10Z</time>
      </trkpt>
      <trkpt lat="46.0075" lon="5.51377">
        <ele>833</ele>
        <time>2026-05-11T13:54:11Z</time>
      </trkpt>
      <trkpt lat="46.00751" lon="5.51377">
        <ele>833</ele>
        <time>2026-05-11T13:54:12Z</time>
      </trkpt>
      <trkpt lat="46.00753" lon="5.51378">
        <ele>833</ele>
        <time>2026-05-11T13:54:13Z</time>
      </trkpt>
      <trkpt lat="46.00755" lon="5.51378">
        <ele>833.4</ele>
        <time>2026-05-11T13:54:14Z</time>
      </trkpt>
      <trkpt lat="46.00757" lon="5.51378">
        <ele>833.4</ele>
        <time>2026-05-11T13:54:15Z</time>
      </trkpt>
      <trkpt lat="46.00757" lon="5.51378">
        <ele>833.6</ele>
        <time>2026-05-11T13:54:16Z</time>
      </trkpt>
      <trkpt lat="46.00759" lon="5.51379">
        <ele>833.6</ele>
        <time>2026-05-11T13:54:17Z</time>
      </trkpt>
      <trkpt lat="46.00761" lon="5.51379">
        <ele>833.6</ele>
        <time>2026-05-11T13:54:18Z</time>
      </trkpt>
      <trkpt lat="46.00763" lon="5.5138">
        <ele>834</ele>
        <time>2026-05-11T13:54:19Z</time>
      </trkpt>
      <trkpt lat="46.00764" lon="5.5138">
        <ele>834</ele>
        <time>2026-05-11T13:54:20Z</time>
      </trkpt>
      <trkpt lat="46.00766" lon="5.5138">
        <ele>834</ele>
        <time>2026-05-11T13:54:21Z</time>
      </trkpt>
      <trkpt lat="46.00768" lon="5.5138">
        <ele>834</ele>
        <time>2026-05-11T13:54:22Z</time>
      </trkpt>
      <trkpt lat="46.0077" lon="5.5138">
        <ele>834.4</ele>
        <time>2026-05-11T13:54:23Z</time>
      </trkpt>
      <trkpt lat="46.00772" lon="5.5138">
        <ele>834.6</ele>
        <time>2026-05-11T13:54:24Z</time>
      </trkpt>
      <trkpt lat="46.00773" lon="5.51381">
        <ele>834.6</ele>
        <time>2026-05-11T13:54:25Z</time>
      </trkpt>
      <trkpt lat="46.00775" lon="5.51382">
        <ele>834.8</ele>
        <time>2026-05-11T13:54:26Z</time>
      </trkpt>
      <trkpt lat="46.00777" lon="5.51382">
        <ele>834.8</ele>
        <time>2026-05-11T13:54:27Z</time>
      </trkpt>
      <trkpt lat="46.00779" lon="5.51383">
        <ele>835</ele>
        <time>2026-05-11T13:54:28Z</time>
      </trkpt>
      <trkpt lat="46.00781" lon="5.51384">
        <ele>835</ele>
        <time>2026-05-11T13:54:29Z</time>
      </trkpt>
      <trkpt lat="46.00782" lon="5.51385">
        <ele>835</ele>
        <time>2026-05-11T13:54:30Z</time>
      </trkpt>
      <trkpt lat="46.00784" lon="5.51386">
        <ele>835</ele>
        <time>2026-05-11T13:54:31Z</time>
      </trkpt>
      <trkpt lat="46.00786" lon="5.51387">
        <ele>835.2</ele>
        <time>2026-05-11T13:54:32Z</time>
      </trkpt>
      <trkpt lat="46.00787" lon="5.51388">
        <ele>835.2</ele>
        <time>2026-05-11T13:54:33Z</time>
      </trkpt>
      <trkpt lat="46.00789" lon="5.51389">
        <ele>835.6</ele>
        <time>2026-05-11T13:54:34Z</time>
      </trkpt>
      <trkpt lat="46.00791" lon="5.51389">
        <ele>835.6</ele>
        <time>2026-05-11T13:54:35Z</time>
      </trkpt>
      <trkpt lat="46.00792" lon="5.5139">
        <ele>835.6</ele>
        <time>2026-05-11T13:54:36Z</time>
      </trkpt>
      <trkpt lat="46.00794" lon="5.5139">
        <ele>836</ele>
        <time>2026-05-11T13:54:37Z</time>
      </trkpt>
      <trkpt lat="46.00796" lon="5.5139">
        <ele>836</ele>
        <time>2026-05-11T13:54:38Z</time>
      </trkpt>
      <trkpt lat="46.00798" lon="5.51391">
        <ele>836.2</ele>
        <time>2026-05-11T13:54:39Z</time>
      </trkpt>
      <trkpt lat="46.00799" lon="5.51392">
        <ele>836.4</ele>
        <time>2026-05-11T13:54:40Z</time>
      </trkpt>
      <trkpt lat="46.00801" lon="5.51393">
        <ele>836.8</ele>
        <time>2026-05-11T13:54:41Z</time>
      </trkpt>
      <trkpt lat="46.00803" lon="5.51394">
        <ele>836.8</ele>
        <time>2026-05-11T13:54:42Z</time>
      </trkpt>
      <trkpt lat="46.00805" lon="5.51395">
        <ele>837</ele>
        <time>2026-05-11T13:54:43Z</time>
      </trkpt>
      <trkpt lat="46.00806" lon="5.51396">
        <ele>837</ele>
        <time>2026-05-11T13:54:44Z</time>
      </trkpt>
      <trkpt lat="46.00808" lon="5.51397">
        <ele>837</ele>
        <time>2026-05-11T13:54:45Z</time>
      </trkpt>
      <trkpt lat="46.00809" lon="5.51398">
        <ele>837.4</ele>
        <time>2026-05-11T13:54:46Z</time>
      </trkpt>
      <trkpt lat="46.00811" lon="5.51399">
        <ele>837.4</ele>
        <time>2026-05-11T13:54:47Z</time>
      </trkpt>
      <trkpt lat="46.00813" lon="5.51401">
        <ele>837.8</ele>
        <time>2026-05-11T13:54:48Z</time>
      </trkpt>
      <trkpt lat="46.00815" lon="5.51402">
        <ele>837.8</ele>
        <time>2026-05-11T13:54:49Z</time>
      </trkpt>
      <trkpt lat="46.00816" lon="5.51403">
        <ele>838</ele>
        <time>2026-05-11T13:54:50Z</time>
      </trkpt>
      <trkpt lat="46.00818" lon="5.51404">
        <ele>838</ele>
        <time>2026-05-11T13:54:51Z</time>
      </trkpt>
      <trkpt lat="46.0082" lon="5.51405">
        <ele>838.4</ele>
        <time>2026-05-11T13:54:52Z</time>
      </trkpt>
      <trkpt lat="46.00821" lon="5.51407">
        <ele>838.4</ele>
        <time>2026-05-11T13:54:53Z</time>
      </trkpt>
      <trkpt lat="46.00823" lon="5.51408">
        <ele>838.6</ele>
        <time>2026-05-11T13:54:54Z</time>
      </trkpt>
      <trkpt lat="46.00825" lon="5.51409">
        <ele>838</ele>
        <time>2026-05-11T13:54:55Z</time>
      </trkpt>
      <trkpt lat="46.00826" lon="5.51409">
        <ele>838.4</ele>
        <time>2026-05-11T13:54:56Z</time>
      </trkpt>
      <trkpt lat="46.00828" lon="5.5141">
        <ele>838.8</ele>
        <time>2026-05-11T13:54:57Z</time>
      </trkpt>
      <trkpt lat="46.0083" lon="5.51411">
        <ele>838.8</ele>
        <time>2026-05-11T13:54:58Z</time>
      </trkpt>
      <trkpt lat="46.00833" lon="5.51413">
        <ele>838.6</ele>
        <time>2026-05-11T13:54:59Z</time>
      </trkpt>
      <trkpt lat="46.00835" lon="5.51415">
        <ele>838.6</ele>
        <time>2026-05-11T13:55:00Z</time>
      </trkpt>
      <trkpt lat="46.00836" lon="5.51415">
        <ele>838.2</ele>
        <time>2026-05-11T13:55:01Z</time>
      </trkpt>
      <trkpt lat="46.00838" lon="5.51416">
        <ele>839.6</ele>
        <time>2026-05-11T13:55:02Z</time>
      </trkpt>
      <trkpt lat="46.00839" lon="5.51416">
        <ele>839.8</ele>
        <time>2026-05-11T13:55:03Z</time>
      </trkpt>
      <trkpt lat="46.00841" lon="5.51416">
        <ele>839.8</ele>
        <time>2026-05-11T13:55:04Z</time>
      </trkpt>
      <trkpt lat="46.00843" lon="5.51417">
        <ele>839.8</ele>
        <time>2026-05-11T13:55:05Z</time>
      </trkpt>
      <trkpt lat="46.00844" lon="5.51419">
        <ele>840.6</ele>
        <time>2026-05-11T13:55:06Z</time>
      </trkpt>
      <trkpt lat="46.00846" lon="5.5142">
        <ele>840.8</ele>
        <time>2026-05-11T13:55:07Z</time>
      </trkpt>
      <trkpt lat="46.00847" lon="5.51421">
        <ele>840.8</ele>
        <time>2026-05-11T13:55:08Z</time>
      </trkpt>
      <trkpt lat="46.00849" lon="5.51422">
        <ele>840.8</ele>
        <time>2026-05-11T13:55:09Z</time>
      </trkpt>
      <trkpt lat="46.0085" lon="5.51424">
        <ele>841.2</ele>
        <time>2026-05-11T13:55:10Z</time>
      </trkpt>
      <trkpt lat="46.00851" lon="5.51426">
        <ele>841.4</ele>
        <time>2026-05-11T13:55:11Z</time>
      </trkpt>
      <trkpt lat="46.00852" lon="5.51428">
        <ele>841.4</ele>
        <time>2026-05-11T13:55:12Z</time>
      </trkpt>
      <trkpt lat="46.00853" lon="5.51431">
        <ele>841.6</ele>
        <time>2026-05-11T13:55:13Z</time>
      </trkpt>
      <trkpt lat="46.00854" lon="5.51433">
        <ele>842</ele>
        <time>2026-05-11T13:55:14Z</time>
      </trkpt>
      <trkpt lat="46.00854" lon="5.51435">
        <ele>842.2</ele>
        <time>2026-05-11T13:55:15Z</time>
      </trkpt>
      <trkpt lat="46.00854" lon="5.51438">
        <ele>842.2</ele>
        <time>2026-05-11T13:55:16Z</time>
      </trkpt>
      <trkpt lat="46.00854" lon="5.51441">
        <ele>842.2</ele>
        <time>2026-05-11T13:55:17Z</time>
      </trkpt>
      <trkpt lat="46.00853" lon="5.51443">
        <ele>842.4</ele>
        <time>2026-05-11T13:55:18Z</time>
      </trkpt>
      <trkpt lat="46.00852" lon="5.51445">
        <ele>842.4</ele>
        <time>2026-05-11T13:55:19Z</time>
      </trkpt>
      <trkpt lat="46.00851" lon="5.51447">
        <ele>842.8</ele>
        <time>2026-05-11T13:55:20Z</time>
      </trkpt>
      <trkpt lat="46.0085" lon="5.51449">
        <ele>842.8</ele>
        <time>2026-05-11T13:55:21Z</time>
      </trkpt>
      <trkpt lat="46.00848" lon="5.5145">
        <ele>843</ele>
        <time>2026-05-11T13:55:22Z</time>
      </trkpt>
      <trkpt lat="46.00846" lon="5.51451">
        <ele>843</ele>
        <time>2026-05-11T13:55:23Z</time>
      </trkpt>
      <trkpt lat="46.00844" lon="5.51451">
        <ele>843</ele>
        <time>2026-05-11T13:55:24Z</time>
      </trkpt>
      <trkpt lat="46.00842" lon="5.51451">
        <ele>843</ele>
        <time>2026-05-11T13:55:25Z</time>
      </trkpt>
      <trkpt lat="46.00841" lon="5.51451">
        <ele>843</ele>
        <time>2026-05-11T13:55:26Z</time>
      </trkpt>
      <trkpt lat="46.00839" lon="5.51451">
        <ele>843</ele>
        <time>2026-05-11T13:55:27Z</time>
      </trkpt>
      <trkpt lat="46.00837" lon="5.51451">
        <ele>843</ele>
        <time>2026-05-11T13:55:28Z</time>
      </trkpt>
      <trkpt lat="46.00835" lon="5.5145">
        <ele>843.2</ele>
        <time>2026-05-11T13:55:29Z</time>
      </trkpt>
      <trkpt lat="46.00833" lon="5.5145">
        <ele>843.4</ele>
        <time>2026-05-11T13:55:30Z</time>
      </trkpt>
      <trkpt lat="46.00831" lon="5.5145">
        <ele>843.6</ele>
        <time>2026-05-11T13:55:31Z</time>
      </trkpt>
      <trkpt lat="46.00829" lon="5.5145">
        <ele>843.6</ele>
        <time>2026-05-11T13:55:32Z</time>
      </trkpt>
      <trkpt lat="46.00827" lon="5.5145">
        <ele>844</ele>
        <time>2026-05-11T13:55:33Z</time>
      </trkpt>
      <trkpt lat="46.00825" lon="5.5145">
        <ele>844</ele>
        <time>2026-05-11T13:55:34Z</time>
      </trkpt>
      <trkpt lat="46.00823" lon="5.5145">
        <ele>844.4</ele>
        <time>2026-05-11T13:55:35Z</time>
      </trkpt>
      <trkpt lat="46.00821" lon="5.5145">
        <ele>844.8</ele>
        <time>2026-05-11T13:55:36Z</time>
      </trkpt>
      <trkpt lat="46.00819" lon="5.5145">
        <ele>844.8</ele>
        <time>2026-05-11T13:55:37Z</time>
      </trkpt>
      <trkpt lat="46.00817" lon="5.51451">
        <ele>845.2</ele>
        <time>2026-05-11T13:55:38Z</time>
      </trkpt>
      <trkpt lat="46.00815" lon="5.51451">
        <ele>845.2</ele>
        <time>2026-05-11T13:55:39Z</time>
      </trkpt>
      <trkpt lat="46.00813" lon="5.51452">
        <ele>845.2</ele>
        <time>2026-05-11T13:55:40Z</time>
      </trkpt>
      <trkpt lat="46.0081" lon="5.51452">
        <ele>845.6</ele>
        <time>2026-05-11T13:55:41Z</time>
      </trkpt>
      <trkpt lat="46.00809" lon="5.51453">
        <ele>845.8</ele>
        <time>2026-05-11T13:55:42Z</time>
      </trkpt>
      <trkpt lat="46.00809" lon="5.51453">
        <ele>845.8</ele>
        <time>2026-05-11T13:55:43Z</time>
      </trkpt>
      <trkpt lat="46.00809" lon="5.51453">
        <ele>846</ele>
        <time>2026-05-11T13:55:44Z</time>
      </trkpt>
      <trkpt lat="46.008" lon="5.51455">
        <ele>846.2</ele>
        <time>2026-05-11T13:55:46Z</time>
      </trkpt>
      <trkpt lat="46.00798" lon="5.51456">
        <ele>846.6</ele>
        <time>2026-05-11T13:55:47Z</time>
      </trkpt>
      <trkpt lat="46.00796" lon="5.51456">
        <ele>846.6</ele>
        <time>2026-05-11T13:55:48Z</time>
      </trkpt>
      <trkpt lat="46.00793" lon="5.51457">
        <ele>846.8</ele>
        <time>2026-05-11T13:55:49Z</time>
      </trkpt>
      <trkpt lat="46.00791" lon="5.51458">
        <ele>846.8</ele>
        <time>2026-05-11T13:55:50Z</time>
      </trkpt>
      <trkpt lat="46.00789" lon="5.51459">
        <ele>846.8</ele>
        <time>2026-05-11T13:55:51Z</time>
      </trkpt>
      <trkpt lat="46.00787" lon="5.5146">
        <ele>846.8</ele>
        <time>2026-05-11T13:55:52Z</time>
      </trkpt>
      <trkpt lat="46.00785" lon="5.5146">
        <ele>847.2</ele>
        <time>2026-05-11T13:55:53Z</time>
      </trkpt>
      <trkpt lat="46.00783" lon="5.51461">
        <ele>847.2</ele>
        <time>2026-05-11T13:55:54Z</time>
      </trkpt>
      <trkpt lat="46.00783" lon="5.51461">
        <ele>847.6</ele>
        <time>2026-05-11T13:55:55Z</time>
      </trkpt>
      <trkpt lat="46.00781" lon="5.51462">
        <ele>847.6</ele>
        <time>2026-05-11T13:55:56Z</time>
      </trkpt>
      <trkpt lat="46.00779" lon="5.51463">
        <ele>847.6</ele>
        <time>2026-05-11T13:55:57Z</time>
      </trkpt>
      <trkpt lat="46.00777" lon="5.51464">
        <ele>847.8</ele>
        <time>2026-05-11T13:55:58Z</time>
      </trkpt>
      <trkpt lat="46.00775" lon="5.51465">
        <ele>847.8</ele>
        <time>2026-05-11T13:55:59Z</time>
      </trkpt>
      <trkpt lat="46.00773" lon="5.51466">
        <ele>848.2</ele>
        <time>2026-05-11T13:56:00Z</time>
      </trkpt>
      <trkpt lat="46.00771" lon="5.51467">
        <ele>848.2</ele>
        <time>2026-05-11T13:56:01Z</time>
      </trkpt>
      <trkpt lat="46.00769" lon="5.51469">
        <ele>848.2</ele>
        <time>2026-05-11T13:56:02Z</time>
      </trkpt>
      <trkpt lat="46.00767" lon="5.5147">
        <ele>848.6</ele>
        <time>2026-05-11T13:56:03Z</time>
      </trkpt>
      <trkpt lat="46.00765" lon="5.51471">
        <ele>848.6</ele>
        <time>2026-05-11T13:56:04Z</time>
      </trkpt>
      <trkpt lat="46.00764" lon="5.51473">
        <ele>848.8</ele>
        <time>2026-05-11T13:56:05Z</time>
      </trkpt>
      <trkpt lat="46.00762" lon="5.51474">
        <ele>849</ele>
        <time>2026-05-11T13:56:06Z</time>
      </trkpt>
      <trkpt lat="46.0076" lon="5.51475">
        <ele>849</ele>
        <time>2026-05-11T13:56:07Z</time>
      </trkpt>
      <trkpt lat="46.00759" lon="5.51476">
        <ele>849.4</ele>
        <time>2026-05-11T13:56:08Z</time>
      </trkpt>
      <trkpt lat="46.00757" lon="5.51478">
        <ele>849.4</ele>
        <time>2026-05-11T13:56:09Z</time>
      </trkpt>
      <trkpt lat="46.00756" lon="5.51479">
        <ele>849.8</ele>
        <time>2026-05-11T13:56:10Z</time>
      </trkpt>
      <trkpt lat="46.00755" lon="5.5148">
        <ele>849.8</ele>
        <time>2026-05-11T13:56:11Z</time>
      </trkpt>
      <trkpt lat="46.00754" lon="5.51481">
        <ele>850.2</ele>
        <time>2026-05-11T13:56:12Z</time>
      </trkpt>
      <trkpt lat="46.00752" lon="5.51482">
        <ele>850.2</ele>
        <time>2026-05-11T13:56:13Z</time>
      </trkpt>
      <trkpt lat="46.0075" lon="5.51483">
        <ele>850.4</ele>
        <time>2026-05-11T13:56:14Z</time>
      </trkpt>
      <trkpt lat="46.00749" lon="5.51484">
        <ele>850.4</ele>
        <time>2026-05-11T13:56:15Z</time>
      </trkpt>
      <trkpt lat="46.00747" lon="5.51486">
        <ele>850.6</ele>
        <time>2026-05-11T13:56:16Z</time>
      </trkpt>
      <trkpt lat="46.00746" lon="5.51487">
        <ele>850.6</ele>
        <time>2026-05-11T13:56:17Z</time>
      </trkpt>
      <trkpt lat="46.00744" lon="5.51488">
        <ele>850.8</ele>
        <time>2026-05-11T13:56:18Z</time>
      </trkpt>
      <trkpt lat="46.00742" lon="5.5149">
        <ele>850.8</ele>
        <time>2026-05-11T13:56:19Z</time>
      </trkpt>
      <trkpt lat="46.00741" lon="5.51491">
        <ele>851.2</ele>
        <time>2026-05-11T13:56:20Z</time>
      </trkpt>
      <trkpt lat="46.00739" lon="5.51492">
        <ele>851.2</ele>
        <time>2026-05-11T13:56:21Z</time>
      </trkpt>
      <trkpt lat="46.00737" lon="5.51493">
        <ele>851.6</ele>
        <time>2026-05-11T13:56:22Z</time>
      </trkpt>
      <trkpt lat="46.00735" lon="5.51494">
        <ele>851.8</ele>
        <time>2026-05-11T13:56:23Z</time>
      </trkpt>
      <trkpt lat="46.00734" lon="5.51496">
        <ele>851.8</ele>
        <time>2026-05-11T13:56:24Z</time>
      </trkpt>
      <trkpt lat="46.00732" lon="5.51498">
        <ele>851.8</ele>
        <time>2026-05-11T13:56:25Z</time>
      </trkpt>
      <trkpt lat="46.00731" lon="5.51499">
        <ele>851.8</ele>
        <time>2026-05-11T13:56:26Z</time>
      </trkpt>
      <trkpt lat="46.0073" lon="5.515">
        <ele>852</ele>
        <time>2026-05-11T13:56:27Z</time>
      </trkpt>
      <trkpt lat="46.00729" lon="5.51501">
        <ele>852</ele>
        <time>2026-05-11T13:56:28Z</time>
      </trkpt>
      <trkpt lat="46.00727" lon="5.51502">
        <ele>852</ele>
        <time>2026-05-11T13:56:29Z</time>
      </trkpt>
      <trkpt lat="46.00725" lon="5.51504">
        <ele>852.4</ele>
        <time>2026-05-11T13:56:30Z</time>
      </trkpt>
      <trkpt lat="46.00724" lon="5.51505">
        <ele>852.4</ele>
        <time>2026-05-11T13:56:31Z</time>
      </trkpt>
      <trkpt lat="46.00723" lon="5.51507">
        <ele>852.8</ele>
        <time>2026-05-11T13:56:32Z</time>
      </trkpt>
      <trkpt lat="46.00721" lon="5.51509">
        <ele>853.2</ele>
        <time>2026-05-11T13:56:33Z</time>
      </trkpt>
      <trkpt lat="46.00719" lon="5.51511">
        <ele>853.4</ele>
        <time>2026-05-11T13:56:34Z</time>
      </trkpt>
      <trkpt lat="46.00718" lon="5.51513">
        <ele>853.4</ele>
        <time>2026-05-11T13:56:35Z</time>
      </trkpt>
      <trkpt lat="46.00716" lon="5.51515">
        <ele>853.4</ele>
        <time>2026-05-11T13:56:36Z</time>
      </trkpt>
      <trkpt lat="46.00714" lon="5.51517">
        <ele>853.6</ele>
        <time>2026-05-11T13:56:37Z</time>
      </trkpt>
      <trkpt lat="46.00711" lon="5.5152">
        <ele>853.6</ele>
        <time>2026-05-11T13:56:38Z</time>
      </trkpt>
      <trkpt lat="46.00709" lon="5.51522">
        <ele>853.8</ele>
        <time>2026-05-11T13:56:39Z</time>
      </trkpt>
      <trkpt lat="46.00707" lon="5.51524">
        <ele>854.2</ele>
        <time>2026-05-11T13:56:40Z</time>
      </trkpt>
      <trkpt lat="46.00705" lon="5.51526">
        <ele>854.4</ele>
        <time>2026-05-11T13:56:41Z</time>
      </trkpt>
      <trkpt lat="46.00704" lon="5.51528">
        <ele>854.4</ele>
        <time>2026-05-11T13:56:42Z</time>
      </trkpt>
      <trkpt lat="46.00702" lon="5.5153">
        <ele>854.4</ele>
        <time>2026-05-11T13:56:43Z</time>
      </trkpt>
      <trkpt lat="46.00701" lon="5.51532">
        <ele>854.4</ele>
        <time>2026-05-11T13:56:44Z</time>
      </trkpt>
      <trkpt lat="46.00699" lon="5.51533">
        <ele>854.4</ele>
        <time>2026-05-11T13:56:45Z</time>
      </trkpt>
      <trkpt lat="46.00698" lon="5.51535">
        <ele>854.8</ele>
        <time>2026-05-11T13:56:46Z</time>
      </trkpt>
      <trkpt lat="46.00696" lon="5.51537">
        <ele>854.8</ele>
        <time>2026-05-11T13:56:47Z</time>
      </trkpt>
      <trkpt lat="46.00695" lon="5.51539">
        <ele>854.8</ele>
        <time>2026-05-11T13:56:48Z</time>
      </trkpt>
      <trkpt lat="46.00694" lon="5.51541">
        <ele>854.8</ele>
        <time>2026-05-11T13:56:49Z</time>
      </trkpt>
      <trkpt lat="46.00692" lon="5.51543">
        <ele>855.2</ele>
        <time>2026-05-11T13:56:50Z</time>
      </trkpt>
      <trkpt lat="46.00691" lon="5.51545">
        <ele>855.2</ele>
        <time>2026-05-11T13:56:51Z</time>
      </trkpt>
      <trkpt lat="46.00689" lon="5.51547">
        <ele>855.4</ele>
        <time>2026-05-11T13:56:52Z</time>
      </trkpt>
      <trkpt lat="46.00687" lon="5.51549">
        <ele>855.4</ele>
        <time>2026-05-11T13:56:53Z</time>
      </trkpt>
      <trkpt lat="46.00686" lon="5.51551">
        <ele>855.4</ele>
        <time>2026-05-11T13:56:54Z</time>
      </trkpt>
      <trkpt lat="46.00684" lon="5.51552">
        <ele>855.8</ele>
        <time>2026-05-11T13:56:55Z</time>
      </trkpt>
      <trkpt lat="46.00683" lon="5.51553">
        <ele>855.8</ele>
        <time>2026-05-11T13:56:56Z</time>
      </trkpt>
      <trkpt lat="46.00681" lon="5.51555">
        <ele>856</ele>
        <time>2026-05-11T13:56:57Z</time>
      </trkpt>
      <trkpt lat="46.0068" lon="5.51557">
        <ele>856</ele>
        <time>2026-05-11T13:56:58Z</time>
      </trkpt>
      <trkpt lat="46.00679" lon="5.51559">
        <ele>856</ele>
        <time>2026-05-11T13:56:59Z</time>
      </trkpt>
      <trkpt lat="46.00679" lon="5.51562">
        <ele>856.4</ele>
        <time>2026-05-11T13:57:00Z</time>
      </trkpt>
      <trkpt lat="46.00678" lon="5.51565">
        <ele>856.4</ele>
        <time>2026-05-11T13:57:01Z</time>
      </trkpt>
      <trkpt lat="46.00677" lon="5.51568">
        <ele>856.6</ele>
        <time>2026-05-11T13:57:02Z</time>
      </trkpt>
      <trkpt lat="46.00676" lon="5.5157">
        <ele>856.8</ele>
        <time>2026-05-11T13:57:03Z</time>
      </trkpt>
      <trkpt lat="46.00675" lon="5.51572">
        <ele>857.2</ele>
        <time>2026-05-11T13:57:04Z</time>
      </trkpt>
      <trkpt lat="46.00674" lon="5.51574">
        <ele>857.2</ele>
        <time>2026-05-11T13:57:05Z</time>
      </trkpt>
      <trkpt lat="46.00674" lon="5.51577">
        <ele>857.2</ele>
        <time>2026-05-11T13:57:06Z</time>
      </trkpt>
      <trkpt lat="46.00673" lon="5.51579">
        <ele>857.2</ele>
        <time>2026-05-11T13:57:07Z</time>
      </trkpt>
      <trkpt lat="46.00672" lon="5.51582">
        <ele>857.6</ele>
        <time>2026-05-11T13:57:08Z</time>
      </trkpt>
      <trkpt lat="46.00671" lon="5.51584">
        <ele>857.8</ele>
        <time>2026-05-11T13:57:09Z</time>
      </trkpt>
      <trkpt lat="46.00669" lon="5.51586">
        <ele>857.8</ele>
        <time>2026-05-11T13:57:10Z</time>
      </trkpt>
      <trkpt lat="46.00668" lon="5.51588">
        <ele>858.2</ele>
        <time>2026-05-11T13:57:11Z</time>
      </trkpt>
      <trkpt lat="46.00667" lon="5.5159">
        <ele>858.2</ele>
        <time>2026-05-11T13:57:12Z</time>
      </trkpt>
      <trkpt lat="46.00667" lon="5.51592">
        <ele>858.6</ele>
        <time>2026-05-11T13:57:13Z</time>
      </trkpt>
      <trkpt lat="46.00666" lon="5.51595">
        <ele>858.6</ele>
        <time>2026-05-11T13:57:14Z</time>
      </trkpt>
      <trkpt lat="46.00665" lon="5.51597">
        <ele>858.8</ele>
        <time>2026-05-11T13:57:15Z</time>
      </trkpt>
      <trkpt lat="46.00664" lon="5.51599">
        <ele>859.2</ele>
        <time>2026-05-11T13:57:16Z</time>
      </trkpt>
      <trkpt lat="46.00663" lon="5.51601">
        <ele>859.2</ele>
        <time>2026-05-11T13:57:17Z</time>
      </trkpt>
      <trkpt lat="46.00662" lon="5.51603">
        <ele>859.2</ele>
        <time>2026-05-11T13:57:18Z</time>
      </trkpt>
      <trkpt lat="46.00661" lon="5.51606">
        <ele>859.6</ele>
        <time>2026-05-11T13:57:19Z</time>
      </trkpt>
      <trkpt lat="46.0066" lon="5.51608">
        <ele>859.6</ele>
        <time>2026-05-11T13:57:20Z</time>
      </trkpt>
      <trkpt lat="46.00658" lon="5.5161">
        <ele>859.8</ele>
        <time>2026-05-11T13:57:21Z</time>
      </trkpt>
      <trkpt lat="46.00657" lon="5.51612">
        <ele>859.8</ele>
        <time>2026-05-11T13:57:22Z</time>
      </trkpt>
      <trkpt lat="46.00655" lon="5.51614">
        <ele>859.8</ele>
        <time>2026-05-11T13:57:23Z</time>
      </trkpt>
      <trkpt lat="46.00654" lon="5.51616">
        <ele>860.4</ele>
        <time>2026-05-11T13:57:24Z</time>
      </trkpt>
      <trkpt lat="46.00653" lon="5.51618">
        <ele>860.4</ele>
        <time>2026-05-11T13:57:25Z</time>
      </trkpt>
      <trkpt lat="46.00652" lon="5.5162">
        <ele>860.6</ele>
        <time>2026-05-11T13:57:26Z</time>
      </trkpt>
      <trkpt lat="46.00651" lon="5.51622">
        <ele>860.6</ele>
        <time>2026-05-11T13:57:27Z</time>
      </trkpt>
      <trkpt lat="46.0065" lon="5.51625">
        <ele>861</ele>
        <time>2026-05-11T13:57:28Z</time>
      </trkpt>
      <trkpt lat="46.00649" lon="5.51627">
        <ele>861</ele>
        <time>2026-05-11T13:57:29Z</time>
      </trkpt>
      <trkpt lat="46.00648" lon="5.51629">
        <ele>861.2</ele>
        <time>2026-05-11T13:57:30Z</time>
      </trkpt>
      <trkpt lat="46.00646" lon="5.51632">
        <ele>861.2</ele>
        <time>2026-05-11T13:57:31Z</time>
      </trkpt>
      <trkpt lat="46.00645" lon="5.51634">
        <ele>861.6</ele>
        <time>2026-05-11T13:57:32Z</time>
      </trkpt>
      <trkpt lat="46.00643" lon="5.51636">
        <ele>862</ele>
        <time>2026-05-11T13:57:33Z</time>
      </trkpt>
      <trkpt lat="46.00642" lon="5.51638">
        <ele>862</ele>
        <time>2026-05-11T13:57:34Z</time>
      </trkpt>
      <trkpt lat="46.00641" lon="5.5164">
        <ele>862</ele>
        <time>2026-05-11T13:57:35Z</time>
      </trkpt>
      <trkpt lat="46.00639" lon="5.51642">
        <ele>862.2</ele>
        <time>2026-05-11T13:57:36Z</time>
      </trkpt>
      <trkpt lat="46.00638" lon="5.51644">
        <ele>862.2</ele>
        <time>2026-05-11T13:57:37Z</time>
      </trkpt>
      <trkpt lat="46.00636" lon="5.51646">
        <ele>862.2</ele>
        <time>2026-05-11T13:57:38Z</time>
      </trkpt>
      <trkpt lat="46.00634" lon="5.51648">
        <ele>862.4</ele>
        <time>2026-05-11T13:57:39Z</time>
      </trkpt>
      <trkpt lat="46.00633" lon="5.51649">
        <ele>862.8</ele>
        <time>2026-05-11T13:57:40Z</time>
      </trkpt>
      <trkpt lat="46.00631" lon="5.5165">
        <ele>863</ele>
        <time>2026-05-11T13:57:41Z</time>
      </trkpt>
      <trkpt lat="46.00629" lon="5.51652">
        <ele>863.2</ele>
        <time>2026-05-11T13:57:42Z</time>
      </trkpt>
      <trkpt lat="46.00627" lon="5.51653">
        <ele>863.2</ele>
        <time>2026-05-11T13:57:43Z</time>
      </trkpt>
      <trkpt lat="46.00626" lon="5.51655">
        <ele>863.6</ele>
        <time>2026-05-11T13:57:44Z</time>
      </trkpt>
      <trkpt lat="46.00624" lon="5.51657">
        <ele>863.6</ele>
        <time>2026-05-11T13:57:45Z</time>
      </trkpt>
      <trkpt lat="46.00622" lon="5.51659">
        <ele>863.6</ele>
        <time>2026-05-11T13:57:46Z</time>
      </trkpt>
      <trkpt lat="46.00621" lon="5.5166">
        <ele>863.8</ele>
        <time>2026-05-11T13:57:47Z</time>
      </trkpt>
      <trkpt lat="46.00619" lon="5.51661">
        <ele>863.8</ele>
        <time>2026-05-11T13:57:48Z</time>
      </trkpt>
      <trkpt lat="46.00617" lon="5.51662">
        <ele>863.8</ele>
        <time>2026-05-11T13:57:49Z</time>
      </trkpt>
      <trkpt lat="46.00616" lon="5.51663">
        <ele>864.2</ele>
        <time>2026-05-11T13:57:50Z</time>
      </trkpt>
      <trkpt lat="46.00614" lon="5.51664">
        <ele>864.4</ele>
        <time>2026-05-11T13:57:51Z</time>
      </trkpt>
      <trkpt lat="46.00612" lon="5.51665">
        <ele>864.4</ele>
        <time>2026-05-11T13:57:52Z</time>
      </trkpt>
      <trkpt lat="46.0061" lon="5.51666">
        <ele>864.8</ele>
        <time>2026-05-11T13:57:53Z</time>
      </trkpt>
      <trkpt lat="46.00608" lon="5.51667">
        <ele>864.8</ele>
        <time>2026-05-11T13:57:54Z</time>
      </trkpt>
      <trkpt lat="46.00607" lon="5.51668">
        <ele>865</ele>
        <time>2026-05-11T13:57:55Z</time>
      </trkpt>
      <trkpt lat="46.00605" lon="5.51669">
        <ele>865</ele>
        <time>2026-05-11T13:57:56Z</time>
      </trkpt>
      <trkpt lat="46.00603" lon="5.5167">
        <ele>865.4</ele>
        <time>2026-05-11T13:57:57Z</time>
      </trkpt>
      <trkpt lat="46.006" lon="5.51671">
        <ele>865.4</ele>
        <time>2026-05-11T13:57:58Z</time>
      </trkpt>
      <trkpt lat="46.00598" lon="5.51672">
        <ele>865.8</ele>
        <time>2026-05-11T13:57:59Z</time>
      </trkpt>
      <trkpt lat="46.00596" lon="5.51673">
        <ele>865.8</ele>
        <time>2026-05-11T13:58:00Z</time>
      </trkpt>
      <trkpt lat="46.00595" lon="5.51674">
        <ele>865.8</ele>
        <time>2026-05-11T13:58:01Z</time>
      </trkpt>
      <trkpt lat="46.00593" lon="5.51675">
        <ele>866</ele>
        <time>2026-05-11T13:58:02Z</time>
      </trkpt>
      <trkpt lat="46.00591" lon="5.51676">
        <ele>866</ele>
        <time>2026-05-11T13:58:03Z</time>
      </trkpt>
      <trkpt lat="46.00589" lon="5.51677">
        <ele>866</ele>
        <time>2026-05-11T13:58:04Z</time>
      </trkpt>
      <trkpt lat="46.00587" lon="5.51678">
        <ele>866.4</ele>
        <time>2026-05-11T13:58:05Z</time>
      </trkpt>
      <trkpt lat="46.00585" lon="5.51679">
        <ele>866.4</ele>
        <time>2026-05-11T13:58:06Z</time>
      </trkpt>
      <trkpt lat="46.00584" lon="5.5168">
        <ele>866.4</ele>
        <time>2026-05-11T13:58:07Z</time>
      </trkpt>
      <trkpt lat="46.00582" lon="5.51681">
        <ele>866.6</ele>
        <time>2026-05-11T13:58:08Z</time>
      </trkpt>
      <trkpt lat="46.0058" lon="5.51682">
        <ele>866.6</ele>
        <time>2026-05-11T13:58:09Z</time>
      </trkpt>
      <trkpt lat="46.00578" lon="5.51683">
        <ele>866.8</ele>
        <time>2026-05-11T13:58:10Z</time>
      </trkpt>
      <trkpt lat="46.00577" lon="5.51684">
        <ele>866.8</ele>
        <time>2026-05-11T13:58:11Z</time>
      </trkpt>
      <trkpt lat="46.00575" lon="5.51685">
        <ele>867.2</ele>
        <time>2026-05-11T13:58:12Z</time>
      </trkpt>
      <trkpt lat="46.00573" lon="5.51686">
        <ele>867.2</ele>
        <time>2026-05-11T13:58:13Z</time>
      </trkpt>
      <trkpt lat="46.00571" lon="5.51687">
        <ele>867.6</ele>
        <time>2026-05-11T13:58:14Z</time>
      </trkpt>
      <trkpt lat="46.00569" lon="5.51688">
        <ele>867.6</ele>
        <time>2026-05-11T13:58:15Z</time>
      </trkpt>
      <trkpt lat="46.00568" lon="5.51689">
        <ele>867.8</ele>
        <time>2026-05-11T13:58:16Z</time>
      </trkpt>
      <trkpt lat="46.00566" lon="5.5169">
        <ele>867.8</ele>
        <time>2026-05-11T13:58:17Z</time>
      </trkpt>
      <trkpt lat="46.00564" lon="5.51691">
        <ele>868.2</ele>
        <time>2026-05-11T13:58:18Z</time>
      </trkpt>
      <trkpt lat="46.00563" lon="5.51692">
        <ele>868.2</ele>
        <time>2026-05-11T13:58:19Z</time>
      </trkpt>
      <trkpt lat="46.00561" lon="5.51693">
        <ele>868.6</ele>
        <time>2026-05-11T13:58:20Z</time>
      </trkpt>
      <trkpt lat="46.00559" lon="5.51694">
        <ele>868.6</ele>
        <time>2026-05-11T13:58:21Z</time>
      </trkpt>
      <trkpt lat="46.00557" lon="5.51695">
        <ele>868.6</ele>
        <time>2026-05-11T13:58:22Z</time>
      </trkpt>
      <trkpt lat="46.00556" lon="5.51696">
        <ele>869</ele>
        <time>2026-05-11T13:58:23Z</time>
      </trkpt>
      <trkpt lat="46.00554" lon="5.51697">
        <ele>869</ele>
        <time>2026-05-11T13:58:24Z</time>
      </trkpt>
      <trkpt lat="46.00552" lon="5.51698">
        <ele>869</ele>
        <time>2026-05-11T13:58:25Z</time>
      </trkpt>
      <trkpt lat="46.0055" lon="5.51699">
        <ele>869.2</ele>
        <time>2026-05-11T13:58:26Z</time>
      </trkpt>
      <trkpt lat="46.00549" lon="5.517">
        <ele>869.6</ele>
        <time>2026-05-11T13:58:27Z</time>
      </trkpt>
      <trkpt lat="46.00547" lon="5.51701">
        <ele>869.8</ele>
        <time>2026-05-11T13:58:28Z</time>
      </trkpt>
      <trkpt lat="46.00546" lon="5.51702">
        <ele>869.8</ele>
        <time>2026-05-11T13:58:29Z</time>
      </trkpt>
      <trkpt lat="46.00544" lon="5.51703">
        <ele>870.2</ele>
        <time>2026-05-11T13:58:30Z</time>
      </trkpt>
      <trkpt lat="46.00542" lon="5.51704">
        <ele>870.2</ele>
        <time>2026-05-11T13:58:31Z</time>
      </trkpt>
      <trkpt lat="46.00541" lon="5.51706">
        <ele>870.4</ele>
        <time>2026-05-11T13:58:32Z</time>
      </trkpt>
      <trkpt lat="46.00539" lon="5.51707">
        <ele>870.4</ele>
        <time>2026-05-11T13:58:33Z</time>
      </trkpt>
      <trkpt lat="46.00538" lon="5.51709">
        <ele>870.4</ele>
        <time>2026-05-11T13:58:34Z</time>
      </trkpt>
      <trkpt lat="46.00536" lon="5.51711">
        <ele>870.8</ele>
        <time>2026-05-11T13:58:35Z</time>
      </trkpt>
      <trkpt lat="46.00534" lon="5.51712">
        <ele>870.8</ele>
        <time>2026-05-11T13:58:36Z</time>
      </trkpt>
      <trkpt lat="46.00533" lon="5.51714">
        <ele>871.2</ele>
        <time>2026-05-11T13:58:37Z</time>
      </trkpt>
      <trkpt lat="46.00531" lon="5.51716">
        <ele>871.2</ele>
        <time>2026-05-11T13:58:38Z</time>
      </trkpt>
      <trkpt lat="46.0053" lon="5.51718">
        <ele>871.4</ele>
        <time>2026-05-11T13:58:39Z</time>
      </trkpt>
      <trkpt lat="46.00529" lon="5.5172">
        <ele>871.4</ele>
        <time>2026-05-11T13:58:40Z</time>
      </trkpt>
      <trkpt lat="46.00528" lon="5.51722">
        <ele>871.4</ele>
        <time>2026-05-11T13:58:41Z</time>
      </trkpt>
      <trkpt lat="46.00527" lon="5.51724">
        <ele>871.6</ele>
        <time>2026-05-11T13:58:42Z</time>
      </trkpt>
      <trkpt lat="46.00525" lon="5.51725">
        <ele>872</ele>
        <time>2026-05-11T13:58:43Z</time>
      </trkpt>
      <trkpt lat="46.00524" lon="5.51727">
        <ele>872.2</ele>
        <time>2026-05-11T13:58:44Z</time>
      </trkpt>
      <trkpt lat="46.00523" lon="5.5173">
        <ele>872.2</ele>
        <time>2026-05-11T13:58:45Z</time>
      </trkpt>
      <trkpt lat="46.00521" lon="5.51732">
        <ele>872.2</ele>
        <time>2026-05-11T13:58:46Z</time>
      </trkpt>
      <trkpt lat="46.0052" lon="5.51734">
        <ele>872.4</ele>
        <time>2026-05-11T13:58:47Z</time>
      </trkpt>
      <trkpt lat="46.00518" lon="5.51736">
        <ele>872.4</ele>
        <time>2026-05-11T13:58:48Z</time>
      </trkpt>
      <trkpt lat="46.00517" lon="5.51738">
        <ele>872.4</ele>
        <time>2026-05-11T13:58:49Z</time>
      </trkpt>
      <trkpt lat="46.00516" lon="5.51739">
        <ele>872.6</ele>
        <time>2026-05-11T13:58:50Z</time>
      </trkpt>
      <trkpt lat="46.00514" lon="5.51741">
        <ele>872.6</ele>
        <time>2026-05-11T13:58:51Z</time>
      </trkpt>
      <trkpt lat="46.00513" lon="5.51743">
        <ele>872.8</ele>
        <time>2026-05-11T13:58:52Z</time>
      </trkpt>
      <trkpt lat="46.00511" lon="5.51744">
        <ele>873.2</ele>
        <time>2026-05-11T13:58:53Z</time>
      </trkpt>
      <trkpt lat="46.0051" lon="5.51746">
        <ele>873.2</ele>
        <time>2026-05-11T13:58:54Z</time>
      </trkpt>
      <trkpt lat="46.00508" lon="5.51747">
        <ele>873.4</ele>
        <time>2026-05-11T13:58:55Z</time>
      </trkpt>
      <trkpt lat="46.00507" lon="5.51748">
        <ele>873.8</ele>
        <time>2026-05-11T13:58:56Z</time>
      </trkpt>
      <trkpt lat="46.00505" lon="5.5175">
        <ele>874</ele>
        <time>2026-05-11T13:58:57Z</time>
      </trkpt>
      <trkpt lat="46.00504" lon="5.51751">
        <ele>874.2</ele>
        <time>2026-05-11T13:58:58Z</time>
      </trkpt>
      <trkpt lat="46.00502" lon="5.51752">
        <ele>874.4</ele>
        <time>2026-05-11T13:58:59Z</time>
      </trkpt>
      <trkpt lat="46.00502" lon="5.51752">
        <ele>874.4</ele>
        <time>2026-05-11T13:59:00Z</time>
      </trkpt>
      <trkpt lat="46.00502" lon="5.51752">
        <ele>874.8</ele>
        <time>2026-05-11T13:59:01Z</time>
      </trkpt>
      <trkpt lat="46.00502" lon="5.51752">
        <ele>874.8</ele>
        <time>2026-05-11T13:59:02Z</time>
      </trkpt>
      <trkpt lat="46.00499" lon="5.51754">
        <ele>875</ele>
        <time>2026-05-11T13:59:03Z</time>
      </trkpt>
      <trkpt lat="46.00498" lon="5.51755">
        <ele>875.2</ele>
        <time>2026-05-11T13:59:04Z</time>
      </trkpt>
      <trkpt lat="46.00496" lon="5.51756">
        <ele>875.2</ele>
        <time>2026-05-11T13:59:05Z</time>
      </trkpt>
      <trkpt lat="46.00495" lon="5.51757">
        <ele>875.6</ele>
        <time>2026-05-11T13:59:06Z</time>
      </trkpt>
      <trkpt lat="46.00494" lon="5.51759">
        <ele>875.6</ele>
        <time>2026-05-11T13:59:07Z</time>
      </trkpt>
      <trkpt lat="46.00493" lon="5.51761">
        <ele>875.8</ele>
        <time>2026-05-11T13:59:08Z</time>
      </trkpt>
      <trkpt lat="46.00491" lon="5.51762">
        <ele>875.8</ele>
        <time>2026-05-11T13:59:09Z</time>
      </trkpt>
      <trkpt lat="46.0049" lon="5.51764">
        <ele>875.8</ele>
        <time>2026-05-11T13:59:10Z</time>
      </trkpt>
      <trkpt lat="46.00489" lon="5.51765">
        <ele>876</ele>
        <time>2026-05-11T13:59:11Z</time>
      </trkpt>
      <trkpt lat="46.00487" lon="5.51766">
        <ele>876.4</ele>
        <time>2026-05-11T13:59:12Z</time>
      </trkpt>
      <trkpt lat="46.00486" lon="5.51768">
        <ele>876.4</ele>
        <time>2026-05-11T13:59:13Z</time>
      </trkpt>
      <trkpt lat="46.00485" lon="5.51769">
        <ele>876.6</ele>
        <time>2026-05-11T13:59:14Z</time>
      </trkpt>
      <trkpt lat="46.00483" lon="5.51771">
        <ele>876.6</ele>
        <time>2026-05-11T13:59:15Z</time>
      </trkpt>
      <trkpt lat="46.0048" lon="5.51773">
        <ele>877</ele>
        <time>2026-05-11T13:59:16Z</time>
      </trkpt>
      <trkpt lat="46.00479" lon="5.51774">
        <ele>877</ele>
        <time>2026-05-11T13:59:17Z</time>
      </trkpt>
      <trkpt lat="46.00477" lon="5.51775">
        <ele>877.2</ele>
        <time>2026-05-11T13:59:18Z</time>
      </trkpt>
      <trkpt lat="46.00476" lon="5.51776">
        <ele>877.2</ele>
        <time>2026-05-11T13:59:19Z</time>
      </trkpt>
      <trkpt lat="46.00474" lon="5.51777">
        <ele>877.6</ele>
        <time>2026-05-11T13:59:20Z</time>
      </trkpt>
      <trkpt lat="46.00473" lon="5.51778">
        <ele>877.6</ele>
        <time>2026-05-11T13:59:21Z</time>
      </trkpt>
      <trkpt lat="46.00471" lon="5.51779">
        <ele>878</ele>
        <time>2026-05-11T13:59:22Z</time>
      </trkpt>
      <trkpt lat="46.0047" lon="5.5178">
        <ele>878</ele>
        <time>2026-05-11T13:59:23Z</time>
      </trkpt>
      <trkpt lat="46.00469" lon="5.51781">
        <ele>878.4</ele>
        <time>2026-05-11T13:59:24Z</time>
      </trkpt>
      <trkpt lat="46.00467" lon="5.51782">
        <ele>878.4</ele>
        <time>2026-05-11T13:59:25Z</time>
      </trkpt>
      <trkpt lat="46.00466" lon="5.51784">
        <ele>878.6</ele>
        <time>2026-05-11T13:59:26Z</time>
      </trkpt>
      <trkpt lat="46.00464" lon="5.51785">
        <ele>878.6</ele>
        <time>2026-05-11T13:59:27Z</time>
      </trkpt>
      <trkpt lat="46.00463" lon="5.51787">
        <ele>879</ele>
        <time>2026-05-11T13:59:28Z</time>
      </trkpt>
      <trkpt lat="46.00461" lon="5.51788">
        <ele>879</ele>
        <time>2026-05-11T13:59:29Z</time>
      </trkpt>
      <trkpt lat="46.0046" lon="5.51789">
        <ele>879.2</ele>
        <time>2026-05-11T13:59:30Z</time>
      </trkpt>
      <trkpt lat="46.00459" lon="5.51791">
        <ele>879.6</ele>
        <time>2026-05-11T13:59:31Z</time>
      </trkpt>
      <trkpt lat="46.00457" lon="5.51792">
        <ele>879.6</ele>
        <time>2026-05-11T13:59:32Z</time>
      </trkpt>
      <trkpt lat="46.00456" lon="5.51793">
        <ele>879.8</ele>
        <time>2026-05-11T13:59:33Z</time>
      </trkpt>
      <trkpt lat="46.00454" lon="5.51794">
        <ele>879.8</ele>
        <time>2026-05-11T13:59:34Z</time>
      </trkpt>
      <trkpt lat="46.00453" lon="5.51796">
        <ele>880</ele>
        <time>2026-05-11T13:59:35Z</time>
      </trkpt>
      <trkpt lat="46.00451" lon="5.51797">
        <ele>880.4</ele>
        <time>2026-05-11T13:59:36Z</time>
      </trkpt>
      <trkpt lat="46.0045" lon="5.51798">
        <ele>880.6</ele>
        <time>2026-05-11T13:59:37Z</time>
      </trkpt>
      <trkpt lat="46.00449" lon="5.51799">
        <ele>880</ele>
        <time>2026-05-11T13:59:38Z</time>
      </trkpt>
      <trkpt lat="46.00447" lon="5.518">
        <ele>880.4</ele>
        <time>2026-05-11T13:59:39Z</time>
      </trkpt>
      <trkpt lat="46.00445" lon="5.51802">
        <ele>880.4</ele>
        <time>2026-05-11T13:59:40Z</time>
      </trkpt>
      <trkpt lat="46.00444" lon="5.51803">
        <ele>880.8</ele>
        <time>2026-05-11T13:59:41Z</time>
      </trkpt>
      <trkpt lat="46.00443" lon="5.51805">
        <ele>880.8</ele>
        <time>2026-05-11T13:59:42Z</time>
      </trkpt>
      <trkpt lat="46.00443" lon="5.51806">
        <ele>881.2</ele>
        <time>2026-05-11T13:59:43Z</time>
      </trkpt>
      <trkpt lat="46.00442" lon="5.51808">
        <ele>881.4</ele>
        <time>2026-05-11T13:59:44Z</time>
      </trkpt>
      <trkpt lat="46.00441" lon="5.5181">
        <ele>881.6</ele>
        <time>2026-05-11T13:59:45Z</time>
      </trkpt>
      <trkpt lat="46.0044" lon="5.51812">
        <ele>881.6</ele>
        <time>2026-05-11T13:59:46Z</time>
      </trkpt>
      <trkpt lat="46.00439" lon="5.51814">
        <ele>882</ele>
        <time>2026-05-11T13:59:47Z</time>
      </trkpt>
      <trkpt lat="46.00438" lon="5.51816">
        <ele>882.2</ele>
        <time>2026-05-11T13:59:48Z</time>
      </trkpt>
      <trkpt lat="46.00437" lon="5.51818">
        <ele>882.2</ele>
        <time>2026-05-11T13:59:49Z</time>
      </trkpt>
      <trkpt lat="46.00436" lon="5.5182">
        <ele>882.4</ele>
        <time>2026-05-11T13:59:50Z</time>
      </trkpt>
      <trkpt lat="46.00436" lon="5.51822">
        <ele>882.4</ele>
        <time>2026-05-11T13:59:51Z</time>
      </trkpt>
      <trkpt lat="46.00435" lon="5.51824">
        <ele>882.4</ele>
        <time>2026-05-11T13:59:52Z</time>
      </trkpt>
      <trkpt lat="46.00434" lon="5.51826">
        <ele>882.8</ele>
        <time>2026-05-11T13:59:53Z</time>
      </trkpt>
      <trkpt lat="46.00433" lon="5.51828">
        <ele>882.8</ele>
        <time>2026-05-11T13:59:54Z</time>
      </trkpt>
      <trkpt lat="46.00432" lon="5.5183">
        <ele>883.2</ele>
        <time>2026-05-11T13:59:55Z</time>
      </trkpt>
      <trkpt lat="46.00432" lon="5.51832">
        <ele>883.2</ele>
        <time>2026-05-11T13:59:56Z</time>
      </trkpt>
      <trkpt lat="46.00432" lon="5.51834">
        <ele>883.6</ele>
        <time>2026-05-11T13:59:57Z</time>
      </trkpt>
      <trkpt lat="46.00431" lon="5.51837">
        <ele>883.8</ele>
        <time>2026-05-11T13:59:58Z</time>
      </trkpt>
      <trkpt lat="46.0043" lon="5.51839">
        <ele>883.8</ele>
        <time>2026-05-11T13:59:59Z</time>
      </trkpt>
      <trkpt lat="46.00429" lon="5.51841">
        <ele>884.2</ele>
        <time>2026-05-11T14:00:00Z</time>
      </trkpt>
      <trkpt lat="46.00429" lon="5.51843">
        <ele>884.4</ele>
        <time>2026-05-11T14:00:01Z</time>
      </trkpt>
      <trkpt lat="46.00428" lon="5.51845">
        <ele>884.4</ele>
        <time>2026-05-11T14:00:02Z</time>
      </trkpt>
      <trkpt lat="46.00427" lon="5.51848">
        <ele>884.6</ele>
        <time>2026-05-11T14:00:03Z</time>
      </trkpt>
      <trkpt lat="46.00427" lon="5.5185">
        <ele>884.8</ele>
        <time>2026-05-11T14:00:04Z</time>
      </trkpt>
      <trkpt lat="46.00427" lon="5.51852">
        <ele>884.8</ele>
        <time>2026-05-11T14:00:05Z</time>
      </trkpt>
      <trkpt lat="46.00427" lon="5.51855">
        <ele>885</ele>
        <time>2026-05-11T14:00:06Z</time>
      </trkpt>
      <trkpt lat="46.00427" lon="5.51858">
        <ele>885</ele>
        <time>2026-05-11T14:00:07Z</time>
      </trkpt>
      <trkpt lat="46.00426" lon="5.5186">
        <ele>885.2</ele>
        <time>2026-05-11T14:00:08Z</time>
      </trkpt>
      <trkpt lat="46.00426" lon="5.51863">
        <ele>885.4</ele>
        <time>2026-05-11T14:00:09Z</time>
      </trkpt>
      <trkpt lat="46.00425" lon="5.51865">
        <ele>885.4</ele>
        <time>2026-05-11T14:00:10Z</time>
      </trkpt>
      <trkpt lat="46.00424" lon="5.51867">
        <ele>885.8</ele>
        <time>2026-05-11T14:00:11Z</time>
      </trkpt>
      <trkpt lat="46.00423" lon="5.51869">
        <ele>886.2</ele>
        <time>2026-05-11T14:00:12Z</time>
      </trkpt>
      <trkpt lat="46.00423" lon="5.51872">
        <ele>886.4</ele>
        <time>2026-05-11T14:00:13Z</time>
      </trkpt>
      <trkpt lat="46.00423" lon="5.51874">
        <ele>886.6</ele>
        <time>2026-05-11T14:00:14Z</time>
      </trkpt>
      <trkpt lat="46.00423" lon="5.51876">
        <ele>886.6</ele>
        <time>2026-05-11T14:00:15Z</time>
      </trkpt>
      <trkpt lat="46.00423" lon="5.51878">
        <ele>887</ele>
        <time>2026-05-11T14:00:16Z</time>
      </trkpt>
      <trkpt lat="46.00423" lon="5.5188">
        <ele>887</ele>
        <time>2026-05-11T14:00:17Z</time>
      </trkpt>
      <trkpt lat="46.00423" lon="5.51883">
        <ele>887.2</ele>
        <time>2026-05-11T14:00:18Z</time>
      </trkpt>
      <trkpt lat="46.00424" lon="5.51886">
        <ele>887.2</ele>
        <time>2026-05-11T14:00:19Z</time>
      </trkpt>
      <trkpt lat="46.00423" lon="5.51889">
        <ele>887.6</ele>
        <time>2026-05-11T14:00:20Z</time>
      </trkpt>
      <trkpt lat="46.00423" lon="5.51891">
        <ele>887.6</ele>
        <time>2026-05-11T14:00:21Z</time>
      </trkpt>
      <trkpt lat="46.00423" lon="5.51894">
        <ele>888</ele>
        <time>2026-05-11T14:00:22Z</time>
      </trkpt>
      <trkpt lat="46.00423" lon="5.51897">
        <ele>888.4</ele>
        <time>2026-05-11T14:00:23Z</time>
      </trkpt>
      <trkpt lat="46.00423" lon="5.51899">
        <ele>888.4</ele>
        <time>2026-05-11T14:00:24Z</time>
      </trkpt>
      <trkpt lat="46.00423" lon="5.51902">
        <ele>888.4</ele>
        <time>2026-05-11T14:00:25Z</time>
      </trkpt>
      <trkpt lat="46.00423" lon="5.51905">
        <ele>888.6</ele>
        <time>2026-05-11T14:00:26Z</time>
      </trkpt>
      <trkpt lat="46.00423" lon="5.51908">
        <ele>888.6</ele>
        <time>2026-05-11T14:00:27Z</time>
      </trkpt>
      <trkpt lat="46.00423" lon="5.51911">
        <ele>888.8</ele>
        <time>2026-05-11T14:00:28Z</time>
      </trkpt>
      <trkpt lat="46.00423" lon="5.51913">
        <ele>888.8</ele>
        <time>2026-05-11T14:00:29Z</time>
      </trkpt>
      <trkpt lat="46.00423" lon="5.51916">
        <ele>889.2</ele>
        <time>2026-05-11T14:00:30Z</time>
      </trkpt>
      <trkpt lat="46.00423" lon="5.51918">
        <ele>889.2</ele>
        <time>2026-05-11T14:00:31Z</time>
      </trkpt>
      <trkpt lat="46.00424" lon="5.51921">
        <ele>889.4</ele>
        <time>2026-05-11T14:00:32Z</time>
      </trkpt>
      <trkpt lat="46.00424" lon="5.51924">
        <ele>889.4</ele>
        <time>2026-05-11T14:00:33Z</time>
      </trkpt>
      <trkpt lat="46.00424" lon="5.51926">
        <ele>889.4</ele>
        <time>2026-05-11T14:00:34Z</time>
      </trkpt>
      <trkpt lat="46.00424" lon="5.51929">
        <ele>889.4</ele>
        <time>2026-05-11T14:00:35Z</time>
      </trkpt>
      <trkpt lat="46.00424" lon="5.51932">
        <ele>889.8</ele>
        <time>2026-05-11T14:00:36Z</time>
      </trkpt>
      <trkpt lat="46.00424" lon="5.51935">
        <ele>889.8</ele>
        <time>2026-05-11T14:00:37Z</time>
      </trkpt>
      <trkpt lat="46.00424" lon="5.51937">
        <ele>890</ele>
        <time>2026-05-11T14:00:38Z</time>
      </trkpt>
      <trkpt lat="46.00424" lon="5.5194">
        <ele>890</ele>
        <time>2026-05-11T14:00:39Z</time>
      </trkpt>
      <trkpt lat="46.00424" lon="5.51942">
        <ele>890</ele>
        <time>2026-05-11T14:00:40Z</time>
      </trkpt>
      <trkpt lat="46.00425" lon="5.51945">
        <ele>890.2</ele>
        <time>2026-05-11T14:00:41Z</time>
      </trkpt>
      <trkpt lat="46.00425" lon="5.51948">
        <ele>890.4</ele>
        <time>2026-05-11T14:00:42Z</time>
      </trkpt>
      <trkpt lat="46.00425" lon="5.5195">
        <ele>890.6</ele>
        <time>2026-05-11T14:00:43Z</time>
      </trkpt>
      <trkpt lat="46.00425" lon="5.51953">
        <ele>890.6</ele>
        <time>2026-05-11T14:00:44Z</time>
      </trkpt>
      <trkpt lat="46.00425" lon="5.51955">
        <ele>890.8</ele>
        <time>2026-05-11T14:00:45Z</time>
      </trkpt>
      <trkpt lat="46.00425" lon="5.51957">
        <ele>890.8</ele>
        <time>2026-05-11T14:00:46Z</time>
      </trkpt>
      <trkpt lat="46.00425" lon="5.51959">
        <ele>891.2</ele>
        <time>2026-05-11T14:00:47Z</time>
      </trkpt>
      <trkpt lat="46.00425" lon="5.51962">
        <ele>891.2</ele>
        <time>2026-05-11T14:00:48Z</time>
      </trkpt>
      <trkpt lat="46.00424" lon="5.51964">
        <ele>891.6</ele>
        <time>2026-05-11T14:00:49Z</time>
      </trkpt>
      <trkpt lat="46.00424" lon="5.51966">
        <ele>891.8</ele>
        <time>2026-05-11T14:00:50Z</time>
      </trkpt>
      <trkpt lat="46.00424" lon="5.51968">
        <ele>891.8</ele>
        <time>2026-05-11T14:00:51Z</time>
      </trkpt>
      <trkpt lat="46.00423" lon="5.51969">
        <ele>891.8</ele>
        <time>2026-05-11T14:00:52Z</time>
      </trkpt>
      <trkpt lat="46.00423" lon="5.51971">
        <ele>892.2</ele>
        <time>2026-05-11T14:00:53Z</time>
      </trkpt>
      <trkpt lat="46.00422" lon="5.51974">
        <ele>892.2</ele>
        <time>2026-05-11T14:00:54Z</time>
      </trkpt>
      <trkpt lat="46.00422" lon="5.51976">
        <ele>892.2</ele>
        <time>2026-05-11T14:00:55Z</time>
      </trkpt>
      <trkpt lat="46.00421" lon="5.51979">
        <ele>892.8</ele>
        <time>2026-05-11T14:00:56Z</time>
      </trkpt>
      <trkpt lat="46.00421" lon="5.51981">
        <ele>892.8</ele>
        <time>2026-05-11T14:00:57Z</time>
      </trkpt>
      <trkpt lat="46.00421" lon="5.51983">
        <ele>893</ele>
        <time>2026-05-11T14:00:58Z</time>
      </trkpt>
      <trkpt lat="46.00421" lon="5.51986">
        <ele>893.2</ele>
        <time>2026-05-11T14:00:59Z</time>
      </trkpt>
      <trkpt lat="46.0042" lon="5.51988">
        <ele>893.2</ele>
        <time>2026-05-11T14:01:00Z</time>
      </trkpt>
      <trkpt lat="46.0042" lon="5.51989">
        <ele>893.2</ele>
        <time>2026-05-11T14:01:01Z</time>
      </trkpt>
      <trkpt lat="46.00419" lon="5.51991">
        <ele>893.4</ele>
        <time>2026-05-11T14:01:02Z</time>
      </trkpt>
      <trkpt lat="46.00418" lon="5.51994">
        <ele>893.4</ele>
        <time>2026-05-11T14:01:03Z</time>
      </trkpt>
      <trkpt lat="46.00417" lon="5.51996">
        <ele>893.4</ele>
        <time>2026-05-11T14:01:04Z</time>
      </trkpt>
      <trkpt lat="46.00416" lon="5.51998">
        <ele>893.6</ele>
        <time>2026-05-11T14:01:05Z</time>
      </trkpt>
      <trkpt lat="46.00415" lon="5.52">
        <ele>893.6</ele>
        <time>2026-05-11T14:01:06Z</time>
      </trkpt>
      <trkpt lat="46.00415" lon="5.52002">
        <ele>893.6</ele>
        <time>2026-05-11T14:01:07Z</time>
      </trkpt>
      <trkpt lat="46.00414" lon="5.52005">
        <ele>893.6</ele>
        <time>2026-05-11T14:01:08Z</time>
      </trkpt>
      <trkpt lat="46.00413" lon="5.52007">
        <ele>894</ele>
        <time>2026-05-11T14:01:09Z</time>
      </trkpt>
      <trkpt lat="46.00412" lon="5.5201">
        <ele>894</ele>
        <time>2026-05-11T14:01:10Z</time>
      </trkpt>
      <trkpt lat="46.00412" lon="5.52013">
        <ele>894.2</ele>
        <time>2026-05-11T14:01:11Z</time>
      </trkpt>
      <trkpt lat="46.00411" lon="5.52015">
        <ele>894.2</ele>
        <time>2026-05-11T14:01:12Z</time>
      </trkpt>
      <trkpt lat="46.00411" lon="5.52017">
        <ele>894.6</ele>
        <time>2026-05-11T14:01:13Z</time>
      </trkpt>
      <trkpt lat="46.0041" lon="5.52019">
        <ele>894.8</ele>
        <time>2026-05-11T14:01:14Z</time>
      </trkpt>
      <trkpt lat="46.00409" lon="5.52022">
        <ele>895</ele>
        <time>2026-05-11T14:01:15Z</time>
      </trkpt>
      <trkpt lat="46.00408" lon="5.52024">
        <ele>895</ele>
        <time>2026-05-11T14:01:16Z</time>
      </trkpt>
      <trkpt lat="46.00407" lon="5.52026">
        <ele>895.4</ele>
        <time>2026-05-11T14:01:17Z</time>
      </trkpt>
      <trkpt lat="46.00406" lon="5.52029">
        <ele>895.6</ele>
        <time>2026-05-11T14:01:18Z</time>
      </trkpt>
      <trkpt lat="46.00405" lon="5.52032">
        <ele>895.6</ele>
        <time>2026-05-11T14:01:19Z</time>
      </trkpt>
      <trkpt lat="46.00404" lon="5.52034">
        <ele>895.6</ele>
        <time>2026-05-11T14:01:20Z</time>
      </trkpt>
      <trkpt lat="46.00404" lon="5.52036">
        <ele>896</ele>
        <time>2026-05-11T14:01:21Z</time>
      </trkpt>
      <trkpt lat="46.00403" lon="5.52039">
        <ele>896</ele>
        <time>2026-05-11T14:01:22Z</time>
      </trkpt>
      <trkpt lat="46.00402" lon="5.52041">
        <ele>896.2</ele>
        <time>2026-05-11T14:01:23Z</time>
      </trkpt>
      <trkpt lat="46.00401" lon="5.52044">
        <ele>896.6</ele>
        <time>2026-05-11T14:01:24Z</time>
      </trkpt>
      <trkpt lat="46.004" lon="5.52046">
        <ele>896.8</ele>
        <time>2026-05-11T14:01:25Z</time>
      </trkpt>
      <trkpt lat="46.00399" lon="5.52049">
        <ele>896.8</ele>
        <time>2026-05-11T14:01:26Z</time>
      </trkpt>
      <trkpt lat="46.00398" lon="5.52051">
        <ele>897</ele>
        <time>2026-05-11T14:01:27Z</time>
      </trkpt>
      <trkpt lat="46.00397" lon="5.52053">
        <ele>897.4</ele>
        <time>2026-05-11T14:01:28Z</time>
      </trkpt>
      <trkpt lat="46.00397" lon="5.52053">
        <ele>897.4</ele>
        <time>2026-05-11T14:01:29Z</time>
      </trkpt>
      <trkpt lat="46.00396" lon="5.52055">
        <ele>897.6</ele>
        <time>2026-05-11T14:01:30Z</time>
      </trkpt>
      <trkpt lat="46.00395" lon="5.52057">
        <ele>897.6</ele>
        <time>2026-05-11T14:01:31Z</time>
      </trkpt>
      <trkpt lat="46.00394" lon="5.5206">
        <ele>897.6</ele>
        <time>2026-05-11T14:01:32Z</time>
      </trkpt>
      <trkpt lat="46.00394" lon="5.52063">
        <ele>897.6</ele>
        <time>2026-05-11T14:01:33Z</time>
      </trkpt>
      <trkpt lat="46.00393" lon="5.52066">
        <ele>897.6</ele>
        <time>2026-05-11T14:01:34Z</time>
      </trkpt>
      <trkpt lat="46.00392" lon="5.52069">
        <ele>897.8</ele>
        <time>2026-05-11T14:01:35Z</time>
      </trkpt>
      <trkpt lat="46.00392" lon="5.52072">
        <ele>897.8</ele>
        <time>2026-05-11T14:01:36Z</time>
      </trkpt>
      <trkpt lat="46.00391" lon="5.52075">
        <ele>897.8</ele>
        <time>2026-05-11T14:01:37Z</time>
      </trkpt>
      <trkpt lat="46.0039" lon="5.52078">
        <ele>898</ele>
        <time>2026-05-11T14:01:38Z</time>
      </trkpt>
      <trkpt lat="46.00389" lon="5.52081">
        <ele>898</ele>
        <time>2026-05-11T14:01:39Z</time>
      </trkpt>
      <trkpt lat="46.00388" lon="5.52084">
        <ele>898</ele>
        <time>2026-05-11T14:01:40Z</time>
      </trkpt>
      <trkpt lat="46.00387" lon="5.52087">
        <ele>898</ele>
        <time>2026-05-11T14:01:41Z</time>
      </trkpt>
      <trkpt lat="46.00386" lon="5.52091">
        <ele>898</ele>
        <time>2026-05-11T14:01:42Z</time>
      </trkpt>
      <trkpt lat="46.00385" lon="5.52095">
        <ele>898.2</ele>
        <time>2026-05-11T14:01:43Z</time>
      </trkpt>
      <trkpt lat="46.00385" lon="5.521">
        <ele>898.2</ele>
        <time>2026-05-11T14:01:44Z</time>
      </trkpt>
      <trkpt lat="46.00385" lon="5.52104">
        <ele>898.2</ele>
        <time>2026-05-11T14:01:45Z</time>
      </trkpt>
      <trkpt lat="46.00385" lon="5.52108">
        <ele>898.2</ele>
        <time>2026-05-11T14:01:46Z</time>
      </trkpt>
      <trkpt lat="46.00384" lon="5.52113">
        <ele>898.2</ele>
        <time>2026-05-11T14:01:47Z</time>
      </trkpt>
      <trkpt lat="46.00384" lon="5.52117">
        <ele>898.2</ele>
        <time>2026-05-11T14:01:48Z</time>
      </trkpt>
      <trkpt lat="46.00384" lon="5.52122">
        <ele>898.2</ele>
        <time>2026-05-11T14:01:49Z</time>
      </trkpt>
      <trkpt lat="46.00383" lon="5.52126">
        <ele>898.2</ele>
        <time>2026-05-11T14:01:50Z</time>
      </trkpt>
      <trkpt lat="46.00383" lon="5.52131">
        <ele>898.2</ele>
        <time>2026-05-11T14:01:51Z</time>
      </trkpt>
      <trkpt lat="46.00382" lon="5.52135">
        <ele>898.2</ele>
        <time>2026-05-11T14:01:52Z</time>
      </trkpt>
      <trkpt lat="46.00381" lon="5.52139">
        <ele>898.2</ele>
        <time>2026-05-11T14:01:53Z</time>
      </trkpt>
      <trkpt lat="46.0038" lon="5.52141">
        <ele>898.2</ele>
        <time>2026-05-11T14:01:54Z</time>
      </trkpt>
      <trkpt lat="46.00378" lon="5.52145">
        <ele>898</ele>
        <time>2026-05-11T14:01:55Z</time>
      </trkpt>
      <trkpt lat="46.00376" lon="5.52148">
        <ele>898</ele>
        <time>2026-05-11T14:01:56Z</time>
      </trkpt>
      <trkpt lat="46.00374" lon="5.52152">
        <ele>898.4</ele>
        <time>2026-05-11T14:01:57Z</time>
      </trkpt>
      <trkpt lat="46.00372" lon="5.52156">
        <ele>898.4</ele>
        <time>2026-05-11T14:01:58Z</time>
      </trkpt>
      <trkpt lat="46.0037" lon="5.52161">
        <ele>898.4</ele>
        <time>2026-05-11T14:01:59Z</time>
      </trkpt>
      <trkpt lat="46.00368" lon="5.52166">
        <ele>898.4</ele>
        <time>2026-05-11T14:02:00Z</time>
      </trkpt>
      <trkpt lat="46.00366" lon="5.5217">
        <ele>898</ele>
        <time>2026-05-11T14:02:01Z</time>
      </trkpt>
      <trkpt lat="46.00363" lon="5.52176">
        <ele>898</ele>
        <time>2026-05-11T14:02:02Z</time>
      </trkpt>
      <trkpt lat="46.0036" lon="5.52181">
        <ele>897.8</ele>
        <time>2026-05-11T14:02:03Z</time>
      </trkpt>
      <trkpt lat="46.00357" lon="5.52186">
        <ele>897.4</ele>
        <time>2026-05-11T14:02:04Z</time>
      </trkpt>
      <trkpt lat="46.00352" lon="5.52191">
        <ele>897</ele>
        <time>2026-05-11T14:02:05Z</time>
      </trkpt>
      <trkpt lat="46.00348" lon="5.52197">
        <ele>896.4</ele>
        <time>2026-05-11T14:02:06Z</time>
      </trkpt>
      <trkpt lat="46.00343" lon="5.52204">
        <ele>896</ele>
        <time>2026-05-11T14:02:07Z</time>
      </trkpt>
      <trkpt lat="46.00338" lon="5.52211">
        <ele>895.2</ele>
        <time>2026-05-11T14:02:08Z</time>
      </trkpt>
      <trkpt lat="46.00332" lon="5.52219">
        <ele>894.8</ele>
        <time>2026-05-11T14:02:09Z</time>
      </trkpt>
      <trkpt lat="46.00326" lon="5.52227">
        <ele>894.4</ele>
        <time>2026-05-11T14:02:10Z</time>
      </trkpt>
      <trkpt lat="46.00321" lon="5.52235">
        <ele>894</ele>
        <time>2026-05-11T14:02:11Z</time>
      </trkpt>
      <trkpt lat="46.0031" lon="5.52253">
        <ele>893.6</ele>
        <time>2026-05-11T14:02:12Z</time>
      </trkpt>
      <trkpt lat="46.00304" lon="5.52261">
        <ele>893.2</ele>
        <time>2026-05-11T14:02:13Z</time>
      </trkpt>
      <trkpt lat="46.003" lon="5.52269">
        <ele>893.2</ele>
        <time>2026-05-11T14:02:14Z</time>
      </trkpt>
      <trkpt lat="46.00295" lon="5.52276">
        <ele>893.2</ele>
        <time>2026-05-11T14:02:15Z</time>
      </trkpt>
      <trkpt lat="46.00291" lon="5.52282">
        <ele>892.6</ele>
        <time>2026-05-11T14:02:16Z</time>
      </trkpt>
      <trkpt lat="46.00286" lon="5.52289">
        <ele>892.6</ele>
        <time>2026-05-11T14:02:17Z</time>
      </trkpt>
      <trkpt lat="46.00282" lon="5.52297">
        <ele>892.6</ele>
        <time>2026-05-11T14:02:18Z</time>
      </trkpt>
      <trkpt lat="46.00277" lon="5.52304">
        <ele>892</ele>
        <time>2026-05-11T14:02:19Z</time>
      </trkpt>
      <trkpt lat="46.00273" lon="5.52312">
        <ele>891.6</ele>
        <time>2026-05-11T14:02:20Z</time>
      </trkpt>
      <trkpt lat="46.00267" lon="5.52319">
        <ele>891.2</ele>
        <time>2026-05-11T14:02:21Z</time>
      </trkpt>
      <trkpt lat="46.00262" lon="5.52327">
        <ele>890.8</ele>
        <time>2026-05-11T14:02:22Z</time>
      </trkpt>
      <trkpt lat="46.00256" lon="5.52336">
        <ele>890.6</ele>
        <time>2026-05-11T14:02:23Z</time>
      </trkpt>
      <trkpt lat="46.00251" lon="5.52344">
        <ele>889.8</ele>
        <time>2026-05-11T14:02:24Z</time>
      </trkpt>
      <trkpt lat="46.00245" lon="5.52353">
        <ele>889.2</ele>
        <time>2026-05-11T14:02:25Z</time>
      </trkpt>
      <trkpt lat="46.00238" lon="5.52361">
        <ele>888.2</ele>
        <time>2026-05-11T14:02:26Z</time>
      </trkpt>
      <trkpt lat="46.00231" lon="5.52369">
        <ele>887.4</ele>
        <time>2026-05-11T14:02:27Z</time>
      </trkpt>
      <trkpt lat="46.00224" lon="5.52378">
        <ele>886.6</ele>
        <time>2026-05-11T14:02:28Z</time>
      </trkpt>
      <trkpt lat="46.00216" lon="5.52385">
        <ele>886</ele>
        <time>2026-05-11T14:02:29Z</time>
      </trkpt>
      <trkpt lat="46.00209" lon="5.52392">
        <ele>885</ele>
        <time>2026-05-11T14:02:30Z</time>
      </trkpt>
      <trkpt lat="46.00202" lon="5.52398">
        <ele>884.2</ele>
        <time>2026-05-11T14:02:31Z</time>
      </trkpt>
      <trkpt lat="46.00195" lon="5.52405">
        <ele>883.6</ele>
        <time>2026-05-11T14:02:32Z</time>
      </trkpt>
      <trkpt lat="46.00189" lon="5.52411">
        <ele>882.8</ele>
        <time>2026-05-11T14:02:33Z</time>
      </trkpt>
      <trkpt lat="46.00183" lon="5.52417">
        <ele>882.8</ele>
        <time>2026-05-11T14:02:34Z</time>
      </trkpt>
      <trkpt lat="46.00178" lon="5.52425">
        <ele>882.4</ele>
        <time>2026-05-11T14:02:35Z</time>
      </trkpt>
      <trkpt lat="46.00176" lon="5.52434">
        <ele>882.4</ele>
        <time>2026-05-11T14:02:36Z</time>
      </trkpt>
      <trkpt lat="46.00176" lon="5.52444">
        <ele>881.6</ele>
        <time>2026-05-11T14:02:37Z</time>
      </trkpt>
      <trkpt lat="46.00179" lon="5.52453">
        <ele>881.2</ele>
        <time>2026-05-11T14:02:38Z</time>
      </trkpt>
      <trkpt lat="46.00185" lon="5.52461">
        <ele>880.8</ele>
        <time>2026-05-11T14:02:39Z</time>
      </trkpt>
      <trkpt lat="46.00192" lon="5.52466">
        <ele>879</ele>
        <time>2026-05-11T14:02:40Z</time>
      </trkpt>
      <trkpt lat="46.00199" lon="5.52471">
        <ele>878.4</ele>
        <time>2026-05-11T14:02:41Z</time>
      </trkpt>
      <trkpt lat="46.00205" lon="5.52476">
        <ele>877.8</ele>
        <time>2026-05-11T14:02:42Z</time>
      </trkpt>
      <trkpt lat="46.00211" lon="5.52481">
        <ele>877.2</ele>
        <time>2026-05-11T14:02:43Z</time>
      </trkpt>
      <trkpt lat="46.00218" lon="5.52483">
        <ele>876.8</ele>
        <time>2026-05-11T14:02:44Z</time>
      </trkpt>
      <trkpt lat="46.00225" lon="5.52483">
        <ele>876.8</ele>
        <time>2026-05-11T14:02:45Z</time>
      </trkpt>
      <trkpt lat="46.00233" lon="5.52482">
        <ele>876.8</ele>
        <time>2026-05-11T14:02:46Z</time>
      </trkpt>
      <trkpt lat="46.0024" lon="5.52479">
        <ele>876.4</ele>
        <time>2026-05-11T14:02:47Z</time>
      </trkpt>
      <trkpt lat="46.00248" lon="5.52478">
        <ele>875.8</ele>
        <time>2026-05-11T14:02:48Z</time>
      </trkpt>
      <trkpt lat="46.00256" lon="5.52478">
        <ele>875</ele>
        <time>2026-05-11T14:02:49Z</time>
      </trkpt>
      <trkpt lat="46.00264" lon="5.52482">
        <ele>874.6</ele>
        <time>2026-05-11T14:02:50Z</time>
      </trkpt>
      <trkpt lat="46.00271" lon="5.52487">
        <ele>874</ele>
        <time>2026-05-11T14:02:51Z</time>
      </trkpt>
      <trkpt lat="46.00277" lon="5.52493">
        <ele>873.4</ele>
        <time>2026-05-11T14:02:52Z</time>
      </trkpt>
      <trkpt lat="46.00284" lon="5.52499">
        <ele>873.4</ele>
        <time>2026-05-11T14:02:53Z</time>
      </trkpt>
      <trkpt lat="46.0029" lon="5.52506">
        <ele>873.4</ele>
        <time>2026-05-11T14:02:54Z</time>
      </trkpt>
      <trkpt lat="46.00296" lon="5.52512">
        <ele>873.4</ele>
        <time>2026-05-11T14:02:55Z</time>
      </trkpt>
      <trkpt lat="46.00302" lon="5.52519">
        <ele>873</ele>
        <time>2026-05-11T14:02:56Z</time>
      </trkpt>
      <trkpt lat="46.00309" lon="5.52525">
        <ele>872.6</ele>
        <time>2026-05-11T14:02:57Z</time>
      </trkpt>
      <trkpt lat="46.00316" lon="5.52532">
        <ele>872.2</ele>
        <time>2026-05-11T14:02:58Z</time>
      </trkpt>
      <trkpt lat="46.00323" lon="5.52538">
        <ele>871.6</ele>
        <time>2026-05-11T14:02:59Z</time>
      </trkpt>
      <trkpt lat="46.0033" lon="5.52544">
        <ele>871.2</ele>
        <time>2026-05-11T14:03:00Z</time>
      </trkpt>
      <trkpt lat="46.00338" lon="5.52549">
        <ele>870.8</ele>
        <time>2026-05-11T14:03:01Z</time>
      </trkpt>
      <trkpt lat="46.00346" lon="5.52556">
        <ele>870.2</ele>
        <time>2026-05-11T14:03:02Z</time>
      </trkpt>
      <trkpt lat="46.00353" lon="5.52562">
        <ele>869.8</ele>
        <time>2026-05-11T14:03:03Z</time>
      </trkpt>
      <trkpt lat="46.0036" lon="5.52569">
        <ele>869.2</ele>
        <time>2026-05-11T14:03:04Z</time>
      </trkpt>
      <trkpt lat="46.00367" lon="5.52576">
        <ele>868.6</ele>
        <time>2026-05-11T14:03:05Z</time>
      </trkpt>
      <trkpt lat="46.00374" lon="5.52585">
        <ele>868</ele>
        <time>2026-05-11T14:03:06Z</time>
      </trkpt>
      <trkpt lat="46.00381" lon="5.52593">
        <ele>867.4</ele>
        <time>2026-05-11T14:03:07Z</time>
      </trkpt>
      <trkpt lat="46.00388" lon="5.52603">
        <ele>866.4</ele>
        <time>2026-05-11T14:03:08Z</time>
      </trkpt>
      <trkpt lat="46.00395" lon="5.52612">
        <ele>866</ele>
        <time>2026-05-11T14:03:09Z</time>
      </trkpt>
      <trkpt lat="46.00401" lon="5.52622">
        <ele>865.6</ele>
        <time>2026-05-11T14:03:10Z</time>
      </trkpt>
      <trkpt lat="46.00406" lon="5.52633">
        <ele>865</ele>
        <time>2026-05-11T14:03:11Z</time>
      </trkpt>
      <trkpt lat="46.00412" lon="5.52644">
        <ele>864.4</ele>
        <time>2026-05-11T14:03:12Z</time>
      </trkpt>
      <trkpt lat="46.00416" lon="5.52656">
        <ele>863.8</ele>
        <time>2026-05-11T14:03:13Z</time>
      </trkpt>
      <trkpt lat="46.0042" lon="5.5267">
        <ele>863</ele>
        <time>2026-05-11T14:03:14Z</time>
      </trkpt>
      <trkpt lat="46.00422" lon="5.52684">
        <ele>862.2</ele>
        <time>2026-05-11T14:03:15Z</time>
      </trkpt>
      <trkpt lat="46.00423" lon="5.52696">
        <ele>861.6</ele>
        <time>2026-05-11T14:03:16Z</time>
      </trkpt>
      <trkpt lat="46.00423" lon="5.52707">
        <ele>861.2</ele>
        <time>2026-05-11T14:03:17Z</time>
      </trkpt>
      <trkpt lat="46.00419" lon="5.52717">
        <ele>860.4</ele>
        <time>2026-05-11T14:03:18Z</time>
      </trkpt>
      <trkpt lat="46.00414" lon="5.52727">
        <ele>859.6</ele>
        <time>2026-05-11T14:03:19Z</time>
      </trkpt>
      <trkpt lat="46.00409" lon="5.52735">
        <ele>859</ele>
        <time>2026-05-11T14:03:20Z</time>
      </trkpt>
      <trkpt lat="46.00402" lon="5.52744">
        <ele>858.4</ele>
        <time>2026-05-11T14:03:21Z</time>
      </trkpt>
      <trkpt lat="46.00396" lon="5.52753">
        <ele>857.6</ele>
        <time>2026-05-11T14:03:22Z</time>
      </trkpt>
      <trkpt lat="46.00389" lon="5.52761">
        <ele>857</ele>
        <time>2026-05-11T14:03:23Z</time>
      </trkpt>
      <trkpt lat="46.00383" lon="5.52771">
        <ele>856.2</ele>
        <time>2026-05-11T14:03:24Z</time>
      </trkpt>
      <trkpt lat="46.00376" lon="5.5278">
        <ele>856</ele>
        <time>2026-05-11T14:03:25Z</time>
      </trkpt>
      <trkpt lat="46.00369" lon="5.5279">
        <ele>855</ele>
        <time>2026-05-11T14:03:26Z</time>
      </trkpt>
      <trkpt lat="46.00362" lon="5.528">
        <ele>854</ele>
        <time>2026-05-11T14:03:27Z</time>
      </trkpt>
      <trkpt lat="46.00356" lon="5.52811">
        <ele>853.4</ele>
        <time>2026-05-11T14:03:28Z</time>
      </trkpt>
      <trkpt lat="46.0035" lon="5.5282">
        <ele>853</ele>
        <time>2026-05-11T14:03:29Z</time>
      </trkpt>
      <trkpt lat="46.00345" lon="5.5283">
        <ele>853</ele>
        <time>2026-05-11T14:03:30Z</time>
      </trkpt>
      <trkpt lat="46.0034" lon="5.5284">
        <ele>852.8</ele>
        <time>2026-05-11T14:03:31Z</time>
      </trkpt>
      <trkpt lat="46.00336" lon="5.52852">
        <ele>852.2</ele>
        <time>2026-05-11T14:03:32Z</time>
      </trkpt>
      <trkpt lat="46.00333" lon="5.52865">
        <ele>851.4</ele>
        <time>2026-05-11T14:03:33Z</time>
      </trkpt>
      <trkpt lat="46.00332" lon="5.52878">
        <ele>850.8</ele>
        <time>2026-05-11T14:03:34Z</time>
      </trkpt>
      <trkpt lat="46.00334" lon="5.52893">
        <ele>850.2</ele>
        <time>2026-05-11T14:03:35Z</time>
      </trkpt>
      <trkpt lat="46.00338" lon="5.52906">
        <ele>849.4</ele>
        <time>2026-05-11T14:03:36Z</time>
      </trkpt>
      <trkpt lat="46.00345" lon="5.52919">
        <ele>848.6</ele>
        <time>2026-05-11T14:03:37Z</time>
      </trkpt>
      <trkpt lat="46.00353" lon="5.5293">
        <ele>847.6</ele>
        <time>2026-05-11T14:03:38Z</time>
      </trkpt>
      <trkpt lat="46.00363" lon="5.52938">
        <ele>846.4</ele>
        <time>2026-05-11T14:03:39Z</time>
      </trkpt>
      <trkpt lat="46.00374" lon="5.52947">
        <ele>845.2</ele>
        <time>2026-05-11T14:03:40Z</time>
      </trkpt>
      <trkpt lat="46.00385" lon="5.52956">
        <ele>844</ele>
        <time>2026-05-11T14:03:41Z</time>
      </trkpt>
      <trkpt lat="46.00396" lon="5.52964">
        <ele>842.8</ele>
        <time>2026-05-11T14:03:42Z</time>
      </trkpt>
      <trkpt lat="46.00407" lon="5.52972">
        <ele>842</ele>
        <time>2026-05-11T14:03:43Z</time>
      </trkpt>
      <trkpt lat="46.00418" lon="5.5298">
        <ele>841.4</ele>
        <time>2026-05-11T14:03:44Z</time>
      </trkpt>
      <trkpt lat="46.00429" lon="5.52987">
        <ele>841</ele>
        <time>2026-05-11T14:03:45Z</time>
      </trkpt>
      <trkpt lat="46.00439" lon="5.52993">
        <ele>841</ele>
        <time>2026-05-11T14:03:46Z</time>
      </trkpt>
      <trkpt lat="46.0045" lon="5.52997">
        <ele>841</ele>
        <time>2026-05-11T14:03:47Z</time>
      </trkpt>
      <trkpt lat="46.0046" lon="5.52999">
        <ele>841.2</ele>
        <time>2026-05-11T14:03:48Z</time>
      </trkpt>
      <trkpt lat="46.0047" lon="5.53001">
        <ele>841.6</ele>
        <time>2026-05-11T14:03:49Z</time>
      </trkpt>
      <trkpt lat="46.00479" lon="5.53002">
        <ele>842.4</ele>
        <time>2026-05-11T14:03:50Z</time>
      </trkpt>
      <trkpt lat="46.00487" lon="5.53002">
        <ele>842.8</ele>
        <time>2026-05-11T14:03:51Z</time>
      </trkpt>
      <trkpt lat="46.00495" lon="5.53002">
        <ele>843.2</ele>
        <time>2026-05-11T14:03:52Z</time>
      </trkpt>
      <trkpt lat="46.00503" lon="5.53003">
        <ele>843.8</ele>
        <time>2026-05-11T14:03:53Z</time>
      </trkpt>
      <trkpt lat="46.0051" lon="5.53003">
        <ele>844.2</ele>
        <time>2026-05-11T14:03:54Z</time>
      </trkpt>
      <trkpt lat="46.00517" lon="5.53004">
        <ele>845</ele>
        <time>2026-05-11T14:03:55Z</time>
      </trkpt>
      <trkpt lat="46.00523" lon="5.53004">
        <ele>845.6</ele>
        <time>2026-05-11T14:03:56Z</time>
      </trkpt>
      <trkpt lat="46.00529" lon="5.53004">
        <ele>846.2</ele>
        <time>2026-05-11T14:03:57Z</time>
      </trkpt>
      <trkpt lat="46.00535" lon="5.53004">
        <ele>846.4</ele>
        <time>2026-05-11T14:03:58Z</time>
      </trkpt>
      <trkpt lat="46.00541" lon="5.53004">
        <ele>846.8</ele>
        <time>2026-05-11T14:03:59Z</time>
      </trkpt>
      <trkpt lat="46.00546" lon="5.53004">
        <ele>847.4</ele>
        <time>2026-05-11T14:04:00Z</time>
      </trkpt>
      <trkpt lat="46.00551" lon="5.53004">
        <ele>848</ele>
        <time>2026-05-11T14:04:01Z</time>
      </trkpt>
      <trkpt lat="46.00555" lon="5.53004">
        <ele>848.4</ele>
        <time>2026-05-11T14:04:02Z</time>
      </trkpt>
      <trkpt lat="46.00559" lon="5.53005">
        <ele>848.8</ele>
        <time>2026-05-11T14:04:03Z</time>
      </trkpt>
      <trkpt lat="46.00563" lon="5.53005">
        <ele>849.2</ele>
        <time>2026-05-11T14:04:04Z</time>
      </trkpt>
      <trkpt lat="46.00567" lon="5.53005">
        <ele>849.6</ele>
        <time>2026-05-11T14:04:05Z</time>
      </trkpt>
      <trkpt lat="46.0057" lon="5.53005">
        <ele>850</ele>
        <time>2026-05-11T14:04:06Z</time>
      </trkpt>
      <trkpt lat="46.00573" lon="5.53005">
        <ele>850.2</ele>
        <time>2026-05-11T14:04:07Z</time>
      </trkpt>
      <trkpt lat="46.00576" lon="5.53005">
        <ele>850.6</ele>
        <time>2026-05-11T14:04:08Z</time>
      </trkpt>
      <trkpt lat="46.00579" lon="5.53005">
        <ele>851</ele>
        <time>2026-05-11T14:04:09Z</time>
      </trkpt>
      <trkpt lat="46.00582" lon="5.53004">
        <ele>851.4</ele>
        <time>2026-05-11T14:04:10Z</time>
      </trkpt>
      <trkpt lat="46.00585" lon="5.53005">
        <ele>851.6</ele>
        <time>2026-05-11T14:04:11Z</time>
      </trkpt>
      <trkpt lat="46.00587" lon="5.53004">
        <ele>851.6</ele>
        <time>2026-05-11T14:04:12Z</time>
      </trkpt>
      <trkpt lat="46.00587" lon="5.53004">
        <ele>852</ele>
        <time>2026-05-11T14:04:13Z</time>
      </trkpt>
      <trkpt lat="46.0059" lon="5.53004">
        <ele>852.2</ele>
        <time>2026-05-11T14:04:14Z</time>
      </trkpt>
      <trkpt lat="46.00593" lon="5.53005">
        <ele>852.6</ele>
        <time>2026-05-11T14:04:15Z</time>
      </trkpt>
      <trkpt lat="46.00596" lon="5.53006">
        <ele>853</ele>
        <time>2026-05-11T14:04:16Z</time>
      </trkpt>
      <trkpt lat="46.00598" lon="5.53007">
        <ele>853.4</ele>
        <time>2026-05-11T14:04:17Z</time>
      </trkpt>
      <trkpt lat="46.00601" lon="5.53009">
        <ele>853.4</ele>
        <time>2026-05-11T14:04:18Z</time>
      </trkpt>
      <trkpt lat="46.00603" lon="5.53012">
        <ele>853.8</ele>
        <time>2026-05-11T14:04:19Z</time>
      </trkpt>
      <trkpt lat="46.00604" lon="5.53015">
        <ele>853.8</ele>
        <time>2026-05-11T14:04:20Z</time>
      </trkpt>
      <trkpt lat="46.00605" lon="5.53019">
        <ele>854</ele>
        <time>2026-05-11T14:04:21Z</time>
      </trkpt>
      <trkpt lat="46.00605" lon="5.53022">
        <ele>854.2</ele>
        <time>2026-05-11T14:04:22Z</time>
      </trkpt>
      <trkpt lat="46.00603" lon="5.53025">
        <ele>854.2</ele>
        <time>2026-05-11T14:04:23Z</time>
      </trkpt>
      <trkpt lat="46.00601" lon="5.53028">
        <ele>854.2</ele>
        <time>2026-05-11T14:04:24Z</time>
      </trkpt>
      <trkpt lat="46.00599" lon="5.5303">
        <ele>854.6</ele>
        <time>2026-05-11T14:04:25Z</time>
      </trkpt>
      <trkpt lat="46.00596" lon="5.53031">
        <ele>854.6</ele>
        <time>2026-05-11T14:04:26Z</time>
      </trkpt>
      <trkpt lat="46.00594" lon="5.53032">
        <ele>855</ele>
        <time>2026-05-11T14:04:27Z</time>
      </trkpt>
      <trkpt lat="46.00591" lon="5.53033">
        <ele>855.2</ele>
        <time>2026-05-11T14:04:28Z</time>
      </trkpt>
      <trkpt lat="46.00589" lon="5.53034">
        <ele>855.6</ele>
        <time>2026-05-11T14:04:29Z</time>
      </trkpt>
      <trkpt lat="46.00587" lon="5.53035">
        <ele>855.8</ele>
        <time>2026-05-11T14:04:30Z</time>
      </trkpt>
      <trkpt lat="46.00585" lon="5.53036">
        <ele>856.2</ele>
        <time>2026-05-11T14:04:31Z</time>
      </trkpt>
      <trkpt lat="46.00583" lon="5.53038">
        <ele>856.4</ele>
        <time>2026-05-11T14:04:32Z</time>
      </trkpt>
      <trkpt lat="46.00581" lon="5.5304">
        <ele>856.6</ele>
        <time>2026-05-11T14:04:33Z</time>
      </trkpt>
      <trkpt lat="46.00579" lon="5.53041">
        <ele>856.8</ele>
        <time>2026-05-11T14:04:34Z</time>
      </trkpt>
      <trkpt lat="46.00577" lon="5.53043">
        <ele>857</ele>
        <time>2026-05-11T14:04:35Z</time>
      </trkpt>
      <trkpt lat="46.00576" lon="5.53044">
        <ele>857</ele>
        <time>2026-05-11T14:04:36Z</time>
      </trkpt>
      <trkpt lat="46.00574" lon="5.53045">
        <ele>857.4</ele>
        <time>2026-05-11T14:04:37Z</time>
      </trkpt>
      <trkpt lat="46.00572" lon="5.53046">
        <ele>857.4</ele>
        <time>2026-05-11T14:04:38Z</time>
      </trkpt>
      <trkpt lat="46.00571" lon="5.53048">
        <ele>857.6</ele>
        <time>2026-05-11T14:04:39Z</time>
      </trkpt>
      <trkpt lat="46.00569" lon="5.5305">
        <ele>857.6</ele>
        <time>2026-05-11T14:04:40Z</time>
      </trkpt>
      <trkpt lat="46.00568" lon="5.53051">
        <ele>858</ele>
        <time>2026-05-11T14:04:41Z</time>
      </trkpt>
      <trkpt lat="46.00566" lon="5.53053">
        <ele>858</ele>
        <time>2026-05-11T14:04:42Z</time>
      </trkpt>
      <trkpt lat="46.00565" lon="5.53055">
        <ele>858.4</ele>
        <time>2026-05-11T14:04:43Z</time>
      </trkpt>
      <trkpt lat="46.00564" lon="5.53057">
        <ele>858.4</ele>
        <time>2026-05-11T14:04:44Z</time>
      </trkpt>
      <trkpt lat="46.00562" lon="5.53059">
        <ele>858.4</ele>
        <time>2026-05-11T14:04:45Z</time>
      </trkpt>
      <trkpt lat="46.00561" lon="5.53061">
        <ele>858.8</ele>
        <time>2026-05-11T14:04:46Z</time>
      </trkpt>
      <trkpt lat="46.0056" lon="5.53063">
        <ele>858.8</ele>
        <time>2026-05-11T14:04:47Z</time>
      </trkpt>
      <trkpt lat="46.00559" lon="5.53065">
        <ele>859</ele>
        <time>2026-05-11T14:04:48Z</time>
      </trkpt>
      <trkpt lat="46.00557" lon="5.53067">
        <ele>859</ele>
        <time>2026-05-11T14:04:49Z</time>
      </trkpt>
      <trkpt lat="46.00556" lon="5.53069">
        <ele>859</ele>
        <time>2026-05-11T14:04:50Z</time>
      </trkpt>
      <trkpt lat="46.00555" lon="5.53072">
        <ele>859.2</ele>
        <time>2026-05-11T14:04:51Z</time>
      </trkpt>
      <trkpt lat="46.00554" lon="5.53074">
        <ele>859.6</ele>
        <time>2026-05-11T14:04:52Z</time>
      </trkpt>
      <trkpt lat="46.00552" lon="5.53076">
        <ele>859.6</ele>
        <time>2026-05-11T14:04:53Z</time>
      </trkpt>
      <trkpt lat="46.00551" lon="5.53078">
        <ele>860</ele>
        <time>2026-05-11T14:04:54Z</time>
      </trkpt>
      <trkpt lat="46.0055" lon="5.5308">
        <ele>860.2</ele>
        <time>2026-05-11T14:04:55Z</time>
      </trkpt>
      <trkpt lat="46.00549" lon="5.53082">
        <ele>860.6</ele>
        <time>2026-05-11T14:04:56Z</time>
      </trkpt>
      <trkpt lat="46.00548" lon="5.53085">
        <ele>860.6</ele>
        <time>2026-05-11T14:04:57Z</time>
      </trkpt>
      <trkpt lat="46.00547" lon="5.53087">
        <ele>861</ele>
        <time>2026-05-11T14:04:58Z</time>
      </trkpt>
      <trkpt lat="46.00546" lon="5.53089">
        <ele>861</ele>
        <time>2026-05-11T14:04:59Z</time>
      </trkpt>
      <trkpt lat="46.00545" lon="5.53091">
        <ele>861.4</ele>
        <time>2026-05-11T14:05:00Z</time>
      </trkpt>
      <trkpt lat="46.00544" lon="5.53094">
        <ele>861.4</ele>
        <time>2026-05-11T14:05:01Z</time>
      </trkpt>
      <trkpt lat="46.00543" lon="5.53096">
        <ele>861.6</ele>
        <time>2026-05-11T14:05:02Z</time>
      </trkpt>
      <trkpt lat="46.00541" lon="5.53101">
        <ele>861.6</ele>
        <time>2026-05-11T14:05:03Z</time>
      </trkpt>
      <trkpt lat="46.0054" lon="5.53103">
        <ele>861.8</ele>
        <time>2026-05-11T14:05:04Z</time>
      </trkpt>
      <trkpt lat="46.00539" lon="5.53105">
        <ele>861.8</ele>
        <time>2026-05-11T14:05:05Z</time>
      </trkpt>
      <trkpt lat="46.00538" lon="5.53107">
        <ele>861.8</ele>
        <time>2026-05-11T14:05:06Z</time>
      </trkpt>
      <trkpt lat="46.00537" lon="5.5311">
        <ele>861.8</ele>
        <time>2026-05-11T14:05:07Z</time>
      </trkpt>
      <trkpt lat="46.00536" lon="5.53112">
        <ele>861.8</ele>
        <time>2026-05-11T14:05:08Z</time>
      </trkpt>
      <trkpt lat="46.00535" lon="5.53114">
        <ele>862.2</ele>
        <time>2026-05-11T14:05:09Z</time>
      </trkpt>
      <trkpt lat="46.00534" lon="5.53116">
        <ele>862.2</ele>
        <time>2026-05-11T14:05:10Z</time>
      </trkpt>
      <trkpt lat="46.00533" lon="5.53119">
        <ele>862.4</ele>
        <time>2026-05-11T14:05:11Z</time>
      </trkpt>
      <trkpt lat="46.00533" lon="5.53121">
        <ele>862.4</ele>
        <time>2026-05-11T14:05:12Z</time>
      </trkpt>
      <trkpt lat="46.00532" lon="5.53123">
        <ele>862.8</ele>
        <time>2026-05-11T14:05:13Z</time>
      </trkpt>
      <trkpt lat="46.00531" lon="5.53126">
        <ele>862.8</ele>
        <time>2026-05-11T14:05:14Z</time>
      </trkpt>
      <trkpt lat="46.0053" lon="5.53128">
        <ele>863.2</ele>
        <time>2026-05-11T14:05:15Z</time>
      </trkpt>
      <trkpt lat="46.00529" lon="5.5313">
        <ele>863.4</ele>
        <time>2026-05-11T14:05:16Z</time>
      </trkpt>
      <trkpt lat="46.00528" lon="5.53132">
        <ele>863.4</ele>
        <time>2026-05-11T14:05:17Z</time>
      </trkpt>
      <trkpt lat="46.00528" lon="5.53135">
        <ele>863.6</ele>
        <time>2026-05-11T14:05:18Z</time>
      </trkpt>
      <trkpt lat="46.00528" lon="5.53137">
        <ele>863.8</ele>
        <time>2026-05-11T14:05:19Z</time>
      </trkpt>
      <trkpt lat="46.00528" lon="5.5314">
        <ele>863.8</ele>
        <time>2026-05-11T14:05:20Z</time>
      </trkpt>
      <trkpt lat="46.00528" lon="5.53142">
        <ele>863.8</ele>
        <time>2026-05-11T14:05:21Z</time>
      </trkpt>
      <trkpt lat="46.00527" lon="5.53145">
        <ele>864.2</ele>
        <time>2026-05-11T14:05:22Z</time>
      </trkpt>
      <trkpt lat="46.00527" lon="5.53147">
        <ele>864.2</ele>
        <time>2026-05-11T14:05:23Z</time>
      </trkpt>
      <trkpt lat="46.00526" lon="5.53149">
        <ele>864.2</ele>
        <time>2026-05-11T14:05:24Z</time>
      </trkpt>
      <trkpt lat="46.00526" lon="5.53152">
        <ele>864.2</ele>
        <time>2026-05-11T14:05:25Z</time>
      </trkpt>
      <trkpt lat="46.00526" lon="5.53154">
        <ele>864.4</ele>
        <time>2026-05-11T14:05:26Z</time>
      </trkpt>
      <trkpt lat="46.00526" lon="5.53157">
        <ele>864.4</ele>
        <time>2026-05-11T14:05:27Z</time>
      </trkpt>
      <trkpt lat="46.00525" lon="5.53159">
        <ele>864.6</ele>
        <time>2026-05-11T14:05:28Z</time>
      </trkpt>
      <trkpt lat="46.00525" lon="5.53162">
        <ele>865.2</ele>
        <time>2026-05-11T14:05:29Z</time>
      </trkpt>
      <trkpt lat="46.00525" lon="5.53164">
        <ele>865.2</ele>
        <time>2026-05-11T14:05:30Z</time>
      </trkpt>
      <trkpt lat="46.00525" lon="5.53167">
        <ele>865.4</ele>
        <time>2026-05-11T14:05:31Z</time>
      </trkpt>
      <trkpt lat="46.00525" lon="5.53169">
        <ele>865.4</ele>
        <time>2026-05-11T14:05:32Z</time>
      </trkpt>
      <trkpt lat="46.00525" lon="5.53172">
        <ele>865.4</ele>
        <time>2026-05-11T14:05:33Z</time>
      </trkpt>
      <trkpt lat="46.00525" lon="5.53175">
        <ele>865.6</ele>
        <time>2026-05-11T14:05:34Z</time>
      </trkpt>
      <trkpt lat="46.00525" lon="5.53179">
        <ele>865.6</ele>
        <time>2026-05-11T14:05:35Z</time>
      </trkpt>
      <trkpt lat="46.00525" lon="5.53181">
        <ele>866</ele>
        <time>2026-05-11T14:05:36Z</time>
      </trkpt>
      <trkpt lat="46.00525" lon="5.53184">
        <ele>866</ele>
        <time>2026-05-11T14:05:37Z</time>
      </trkpt>
      <trkpt lat="46.00525" lon="5.53187">
        <ele>866</ele>
        <time>2026-05-11T14:05:38Z</time>
      </trkpt>
      <trkpt lat="46.00525" lon="5.5319">
        <ele>866.2</ele>
        <time>2026-05-11T14:05:39Z</time>
      </trkpt>
      <trkpt lat="46.00526" lon="5.53192">
        <ele>866.2</ele>
        <time>2026-05-11T14:05:40Z</time>
      </trkpt>
      <trkpt lat="46.00526" lon="5.53195">
        <ele>866.6</ele>
        <time>2026-05-11T14:05:41Z</time>
      </trkpt>
      <trkpt lat="46.00526" lon="5.53198">
        <ele>866.6</ele>
        <time>2026-05-11T14:05:42Z</time>
      </trkpt>
      <trkpt lat="46.00526" lon="5.53201">
        <ele>866.6</ele>
        <time>2026-05-11T14:05:43Z</time>
      </trkpt>
      <trkpt lat="46.00526" lon="5.53203">
        <ele>866.6</ele>
        <time>2026-05-11T14:05:44Z</time>
      </trkpt>
      <trkpt lat="46.00527" lon="5.53206">
        <ele>866.6</ele>
        <time>2026-05-11T14:05:45Z</time>
      </trkpt>
      <trkpt lat="46.00527" lon="5.53209">
        <ele>866.8</ele>
        <time>2026-05-11T14:05:46Z</time>
      </trkpt>
      <trkpt lat="46.00527" lon="5.53211">
        <ele>867.2</ele>
        <time>2026-05-11T14:05:47Z</time>
      </trkpt>
      <trkpt lat="46.00528" lon="5.53214">
        <ele>867.2</ele>
        <time>2026-05-11T14:05:48Z</time>
      </trkpt>
      <trkpt lat="46.00528" lon="5.53217">
        <ele>867.6</ele>
        <time>2026-05-11T14:05:49Z</time>
      </trkpt>
      <trkpt lat="46.00528" lon="5.5322">
        <ele>867.6</ele>
        <time>2026-05-11T14:05:50Z</time>
      </trkpt>
      <trkpt lat="46.00528" lon="5.53222">
        <ele>867.6</ele>
        <time>2026-05-11T14:05:51Z</time>
      </trkpt>
      <trkpt lat="46.00528" lon="5.53225">
        <ele>867.6</ele>
        <time>2026-05-11T14:05:52Z</time>
      </trkpt>
      <trkpt lat="46.00528" lon="5.53228">
        <ele>867.8</ele>
        <time>2026-05-11T14:05:53Z</time>
      </trkpt>
      <trkpt lat="46.00528" lon="5.5323">
        <ele>867.2</ele>
        <time>2026-05-11T14:05:54Z</time>
      </trkpt>
      <trkpt lat="46.00528" lon="5.5323">
        <ele>867.6</ele>
        <time>2026-05-11T14:05:55Z</time>
      </trkpt>
      <trkpt lat="46.00528" lon="5.5323">
        <ele>867.6</ele>
        <time>2026-05-11T14:05:56Z</time>
      </trkpt>
      <trkpt lat="46.00529" lon="5.53241">
        <ele>868.2</ele>
        <time>2026-05-11T14:05:58Z</time>
      </trkpt>
      <trkpt lat="46.00529" lon="5.53244">
        <ele>868.2</ele>
        <time>2026-05-11T14:05:59Z</time>
      </trkpt>
      <trkpt lat="46.00529" lon="5.53246">
        <ele>868.2</ele>
        <time>2026-05-11T14:06:00Z</time>
      </trkpt>
      <trkpt lat="46.00529" lon="5.53249">
        <ele>868.4</ele>
        <time>2026-05-11T14:06:01Z</time>
      </trkpt>
      <trkpt lat="46.0053" lon="5.53251">
        <ele>868.4</ele>
        <time>2026-05-11T14:06:02Z</time>
      </trkpt>
      <trkpt lat="46.0053" lon="5.53254">
        <ele>868.4</ele>
        <time>2026-05-11T14:06:03Z</time>
      </trkpt>
      <trkpt lat="46.00531" lon="5.53256">
        <ele>868.4</ele>
        <time>2026-05-11T14:06:04Z</time>
      </trkpt>
      <trkpt lat="46.00531" lon="5.53259">
        <ele>868.8</ele>
        <time>2026-05-11T14:06:05Z</time>
      </trkpt>
      <trkpt lat="46.00531" lon="5.53262">
        <ele>868.8</ele>
        <time>2026-05-11T14:06:06Z</time>
      </trkpt>
      <trkpt lat="46.00531" lon="5.53265">
        <ele>869</ele>
        <time>2026-05-11T14:06:07Z</time>
      </trkpt>
      <trkpt lat="46.00531" lon="5.53268">
        <ele>869</ele>
        <time>2026-05-11T14:06:08Z</time>
      </trkpt>
      <trkpt lat="46.00531" lon="5.53271">
        <ele>869</ele>
        <time>2026-05-11T14:06:09Z</time>
      </trkpt>
      <trkpt lat="46.00532" lon="5.53274">
        <ele>869</ele>
        <time>2026-05-11T14:06:10Z</time>
      </trkpt>
      <trkpt lat="46.00532" lon="5.53277">
        <ele>869.2</ele>
        <time>2026-05-11T14:06:11Z</time>
      </trkpt>
      <trkpt lat="46.00532" lon="5.5328">
        <ele>869.2</ele>
        <time>2026-05-11T14:06:12Z</time>
      </trkpt>
      <trkpt lat="46.00532" lon="5.53283">
        <ele>869.2</ele>
        <time>2026-05-11T14:06:13Z</time>
      </trkpt>
      <trkpt lat="46.00532" lon="5.53285">
        <ele>869.4</ele>
        <time>2026-05-11T14:06:14Z</time>
      </trkpt>
      <trkpt lat="46.00532" lon="5.53288">
        <ele>869.4</ele>
        <time>2026-05-11T14:06:15Z</time>
      </trkpt>
      <trkpt lat="46.00531" lon="5.5329">
        <ele>869.4</ele>
        <time>2026-05-11T14:06:16Z</time>
      </trkpt>
      <trkpt lat="46.00531" lon="5.53292">
        <ele>869.6</ele>
        <time>2026-05-11T14:06:17Z</time>
      </trkpt>
      <trkpt lat="46.00531" lon="5.53295">
        <ele>869.6</ele>
        <time>2026-05-11T14:06:18Z</time>
      </trkpt>
      <trkpt lat="46.00531" lon="5.53298">
        <ele>869.8</ele>
        <time>2026-05-11T14:06:19Z</time>
      </trkpt>
      <trkpt lat="46.00532" lon="5.533">
        <ele>869.8</ele>
        <time>2026-05-11T14:06:20Z</time>
      </trkpt>
      <trkpt lat="46.00531" lon="5.53303">
        <ele>870.2</ele>
        <time>2026-05-11T14:06:21Z</time>
      </trkpt>
      <trkpt lat="46.00531" lon="5.53306">
        <ele>870.2</ele>
        <time>2026-05-11T14:06:22Z</time>
      </trkpt>
      <trkpt lat="46.00531" lon="5.53309">
        <ele>870.2</ele>
        <time>2026-05-11T14:06:23Z</time>
      </trkpt>
      <trkpt lat="46.00531" lon="5.53312">
        <ele>870.4</ele>
        <time>2026-05-11T14:06:24Z</time>
      </trkpt>
      <trkpt lat="46.00532" lon="5.53315">
        <ele>870.4</ele>
        <time>2026-05-11T14:06:25Z</time>
      </trkpt>
      <trkpt lat="46.00532" lon="5.53318">
        <ele>870.4</ele>
        <time>2026-05-11T14:06:26Z</time>
      </trkpt>
      <trkpt lat="46.00533" lon="5.53321">
        <ele>870.8</ele>
        <time>2026-05-11T14:06:27Z</time>
      </trkpt>
      <trkpt lat="46.00533" lon="5.53324">
        <ele>870.8</ele>
        <time>2026-05-11T14:06:28Z</time>
      </trkpt>
      <trkpt lat="46.00533" lon="5.53326">
        <ele>871</ele>
        <time>2026-05-11T14:06:29Z</time>
      </trkpt>
      <trkpt lat="46.00533" lon="5.53329">
        <ele>871</ele>
        <time>2026-05-11T14:06:30Z</time>
      </trkpt>
      <trkpt lat="46.00533" lon="5.53332">
        <ele>871.4</ele>
        <time>2026-05-11T14:06:31Z</time>
      </trkpt>
      <trkpt lat="46.00533" lon="5.53335">
        <ele>871.4</ele>
        <time>2026-05-11T14:06:32Z</time>
      </trkpt>
      <trkpt lat="46.00533" lon="5.53338">
        <ele>871.6</ele>
        <time>2026-05-11T14:06:33Z</time>
      </trkpt>
      <trkpt lat="46.00533" lon="5.53341">
        <ele>871.6</ele>
        <time>2026-05-11T14:06:34Z</time>
      </trkpt>
      <trkpt lat="46.00533" lon="5.53341">
        <ele>871.6</ele>
        <time>2026-05-11T14:06:35Z</time>
      </trkpt>
      <trkpt lat="46.00533" lon="5.53341">
        <ele>872</ele>
        <time>2026-05-11T14:06:36Z</time>
      </trkpt>
      <trkpt lat="46.00534" lon="5.53348">
        <ele>872</ele>
        <time>2026-05-11T14:06:37Z</time>
      </trkpt>
      <trkpt lat="46.00534" lon="5.53351">
        <ele>872.2</ele>
        <time>2026-05-11T14:06:38Z</time>
      </trkpt>
      <trkpt lat="46.00534" lon="5.53354">
        <ele>872.2</ele>
        <time>2026-05-11T14:06:39Z</time>
      </trkpt>
      <trkpt lat="46.00535" lon="5.53356">
        <ele>872.2</ele>
        <time>2026-05-11T14:06:40Z</time>
      </trkpt>
      <trkpt lat="46.00535" lon="5.53359">
        <ele>872.2</ele>
        <time>2026-05-11T14:06:41Z</time>
      </trkpt>
      <trkpt lat="46.00535" lon="5.53362">
        <ele>872.4</ele>
        <time>2026-05-11T14:06:42Z</time>
      </trkpt>
      <trkpt lat="46.00535" lon="5.53366">
        <ele>872.4</ele>
        <time>2026-05-11T14:06:43Z</time>
      </trkpt>
      <trkpt lat="46.00535" lon="5.53369">
        <ele>872.8</ele>
        <time>2026-05-11T14:06:44Z</time>
      </trkpt>
      <trkpt lat="46.00536" lon="5.53372">
        <ele>872.8</ele>
        <time>2026-05-11T14:06:45Z</time>
      </trkpt>
      <trkpt lat="46.00536" lon="5.53375">
        <ele>872.8</ele>
        <time>2026-05-11T14:06:46Z</time>
      </trkpt>
      <trkpt lat="46.00537" lon="5.53378">
        <ele>873</ele>
        <time>2026-05-11T14:06:47Z</time>
      </trkpt>
      <trkpt lat="46.00537" lon="5.53381">
        <ele>873</ele>
        <time>2026-05-11T14:06:48Z</time>
      </trkpt>
      <trkpt lat="46.00538" lon="5.53384">
        <ele>873</ele>
        <time>2026-05-11T14:06:49Z</time>
      </trkpt>
      <trkpt lat="46.00538" lon="5.53387">
        <ele>873.4</ele>
        <time>2026-05-11T14:06:50Z</time>
      </trkpt>
      <trkpt lat="46.00539" lon="5.53391">
        <ele>873.4</ele>
        <time>2026-05-11T14:06:51Z</time>
      </trkpt>
      <trkpt lat="46.00539" lon="5.53394">
        <ele>873.4</ele>
        <time>2026-05-11T14:06:52Z</time>
      </trkpt>
      <trkpt lat="46.0054" lon="5.53397">
        <ele>873.4</ele>
        <time>2026-05-11T14:06:53Z</time>
      </trkpt>
      <trkpt lat="46.00541" lon="5.53401">
        <ele>873.4</ele>
        <time>2026-05-11T14:06:54Z</time>
      </trkpt>
      <trkpt lat="46.00542" lon="5.53404">
        <ele>873.4</ele>
        <time>2026-05-11T14:06:55Z</time>
      </trkpt>
      <trkpt lat="46.00543" lon="5.53407">
        <ele>873.4</ele>
        <time>2026-05-11T14:06:56Z</time>
      </trkpt>
      <trkpt lat="46.00544" lon="5.53409">
        <ele>873.4</ele>
        <time>2026-05-11T14:06:57Z</time>
      </trkpt>
      <trkpt lat="46.00544" lon="5.53412">
        <ele>873.4</ele>
        <time>2026-05-11T14:06:58Z</time>
      </trkpt>
      <trkpt lat="46.00545" lon="5.53415">
        <ele>873.4</ele>
        <time>2026-05-11T14:06:59Z</time>
      </trkpt>
      <trkpt lat="46.00546" lon="5.53418">
        <ele>873.4</ele>
        <time>2026-05-11T14:07:00Z</time>
      </trkpt>
      <trkpt lat="46.00546" lon="5.53422">
        <ele>873</ele>
        <time>2026-05-11T14:07:01Z</time>
      </trkpt>
      <trkpt lat="46.00547" lon="5.53425">
        <ele>872.2</ele>
        <time>2026-05-11T14:07:02Z</time>
      </trkpt>
      <trkpt lat="46.00549" lon="5.53428">
        <ele>872.2</ele>
        <time>2026-05-11T14:07:03Z</time>
      </trkpt>
      <trkpt lat="46.00551" lon="5.53431">
        <ele>872.6</ele>
        <time>2026-05-11T14:07:04Z</time>
      </trkpt>
      <trkpt lat="46.00554" lon="5.53439">
        <ele>872.6</ele>
        <time>2026-05-11T14:07:05Z</time>
      </trkpt>
      <trkpt lat="46.00557" lon="5.53444">
        <ele>872.2</ele>
        <time>2026-05-11T14:07:06Z</time>
      </trkpt>
      <trkpt lat="46.00559" lon="5.53449">
        <ele>872.2</ele>
        <time>2026-05-11T14:07:07Z</time>
      </trkpt>
      <trkpt lat="46.00562" lon="5.53454">
        <ele>872.2</ele>
        <time>2026-05-11T14:07:08Z</time>
      </trkpt>
      <trkpt lat="46.00565" lon="5.5346">
        <ele>872</ele>
        <time>2026-05-11T14:07:09Z</time>
      </trkpt>
      <trkpt lat="46.00568" lon="5.53466">
        <ele>871.6</ele>
        <time>2026-05-11T14:07:10Z</time>
      </trkpt>
      <trkpt lat="46.00571" lon="5.53473">
        <ele>871.2</ele>
        <time>2026-05-11T14:07:11Z</time>
      </trkpt>
      <trkpt lat="46.00575" lon="5.53479">
        <ele>870.4</ele>
        <time>2026-05-11T14:07:12Z</time>
      </trkpt>
      <trkpt lat="46.00578" lon="5.53487">
        <ele>870.2</ele>
        <time>2026-05-11T14:07:13Z</time>
      </trkpt>
      <trkpt lat="46.00581" lon="5.53494">
        <ele>869.8</ele>
        <time>2026-05-11T14:07:14Z</time>
      </trkpt>
      <trkpt lat="46.00585" lon="5.53501">
        <ele>869.8</ele>
        <time>2026-05-11T14:07:15Z</time>
      </trkpt>
      <trkpt lat="46.00589" lon="5.53509">
        <ele>869.2</ele>
        <time>2026-05-11T14:07:16Z</time>
      </trkpt>
      <trkpt lat="46.00593" lon="5.53517">
        <ele>869</ele>
        <time>2026-05-11T14:07:17Z</time>
      </trkpt>
      <trkpt lat="46.00597" lon="5.53525">
        <ele>868.8</ele>
        <time>2026-05-11T14:07:18Z</time>
      </trkpt>
      <trkpt lat="46.006" lon="5.53535">
        <ele>868.4</ele>
        <time>2026-05-11T14:07:19Z</time>
      </trkpt>
      <trkpt lat="46.00602" lon="5.53545">
        <ele>868.2</ele>
        <time>2026-05-11T14:07:20Z</time>
      </trkpt>
      <trkpt lat="46.00602" lon="5.53555">
        <ele>867.4</ele>
        <time>2026-05-11T14:07:21Z</time>
      </trkpt>
      <trkpt lat="46.006" lon="5.53565">
        <ele>866.6</ele>
        <time>2026-05-11T14:07:22Z</time>
      </trkpt>
      <trkpt lat="46.00595" lon="5.53573">
        <ele>866.2</ele>
        <time>2026-05-11T14:07:23Z</time>
      </trkpt>
      <trkpt lat="46.00588" lon="5.53577">
        <ele>865.6</ele>
        <time>2026-05-11T14:07:24Z</time>
      </trkpt>
      <trkpt lat="46.00581" lon="5.5358">
        <ele>865.2</ele>
        <time>2026-05-11T14:07:25Z</time>
      </trkpt>
      <trkpt lat="46.00573" lon="5.5358">
        <ele>864.6</ele>
        <time>2026-05-11T14:07:26Z</time>
      </trkpt>
      <trkpt lat="46.00566" lon="5.5358">
        <ele>864.2</ele>
        <time>2026-05-11T14:07:27Z</time>
      </trkpt>
      <trkpt lat="46.00558" lon="5.53579">
        <ele>863.6</ele>
        <time>2026-05-11T14:07:28Z</time>
      </trkpt>
      <trkpt lat="46.00549" lon="5.5358">
        <ele>863</ele>
        <time>2026-05-11T14:07:29Z</time>
      </trkpt>
      <trkpt lat="46.0054" lon="5.53582">
        <ele>862.4</ele>
        <time>2026-05-11T14:07:30Z</time>
      </trkpt>
      <trkpt lat="46.00532" lon="5.53585">
        <ele>861.8</ele>
        <time>2026-05-11T14:07:31Z</time>
      </trkpt>
      <trkpt lat="46.00524" lon="5.53588">
        <ele>861.4</ele>
        <time>2026-05-11T14:07:32Z</time>
      </trkpt>
      <trkpt lat="46.00516" lon="5.53592">
        <ele>861</ele>
        <time>2026-05-11T14:07:33Z</time>
      </trkpt>
      <trkpt lat="46.00509" lon="5.53598">
        <ele>861</ele>
        <time>2026-05-11T14:07:34Z</time>
      </trkpt>
      <trkpt lat="46.00501" lon="5.53604">
        <ele>860.4</ele>
        <time>2026-05-11T14:07:35Z</time>
      </trkpt>
      <trkpt lat="46.00494" lon="5.53611">
        <ele>860.2</ele>
        <time>2026-05-11T14:07:36Z</time>
      </trkpt>
      <trkpt lat="46.00488" lon="5.53619">
        <ele>860.2</ele>
        <time>2026-05-11T14:07:37Z</time>
      </trkpt>
      <trkpt lat="46.00482" lon="5.53627">
        <ele>860.2</ele>
        <time>2026-05-11T14:07:38Z</time>
      </trkpt>
      <trkpt lat="46.00476" lon="5.53636">
        <ele>860.2</ele>
        <time>2026-05-11T14:07:39Z</time>
      </trkpt>
      <trkpt lat="46.00471" lon="5.53644">
        <ele>860.2</ele>
        <time>2026-05-11T14:07:40Z</time>
      </trkpt>
      <trkpt lat="46.00466" lon="5.53652">
        <ele>860.2</ele>
        <time>2026-05-11T14:07:41Z</time>
      </trkpt>
      <trkpt lat="46.0046" lon="5.53659">
        <ele>860.2</ele>
        <time>2026-05-11T14:07:42Z</time>
      </trkpt>
      <trkpt lat="46.00454" lon="5.53666">
        <ele>860.2</ele>
        <time>2026-05-11T14:07:43Z</time>
      </trkpt>
      <trkpt lat="46.00449" lon="5.53672">
        <ele>860.2</ele>
        <time>2026-05-11T14:07:44Z</time>
      </trkpt>
      <trkpt lat="46.00443" lon="5.53679">
        <ele>860</ele>
        <time>2026-05-11T14:07:45Z</time>
      </trkpt>
      <trkpt lat="46.00438" lon="5.53685">
        <ele>860</ele>
        <time>2026-05-11T14:07:46Z</time>
      </trkpt>
      <trkpt lat="46.00432" lon="5.53691">
        <ele>860</ele>
        <time>2026-05-11T14:07:47Z</time>
      </trkpt>
      <trkpt lat="46.00426" lon="5.53697">
        <ele>860</ele>
        <time>2026-05-11T14:07:48Z</time>
      </trkpt>
      <trkpt lat="46.00421" lon="5.53702">
        <ele>860</ele>
        <time>2026-05-11T14:07:49Z</time>
      </trkpt>
      <trkpt lat="46.00416" lon="5.53707">
        <ele>860.4</ele>
        <time>2026-05-11T14:07:50Z</time>
      </trkpt>
      <trkpt lat="46.0041" lon="5.53712">
        <ele>860.4</ele>
        <time>2026-05-11T14:07:51Z</time>
      </trkpt>
      <trkpt lat="46.00404" lon="5.53717">
        <ele>860.2</ele>
        <time>2026-05-11T14:07:52Z</time>
      </trkpt>
      <trkpt lat="46.00398" lon="5.53723">
        <ele>860.2</ele>
        <time>2026-05-11T14:07:53Z</time>
      </trkpt>
      <trkpt lat="46.00391" lon="5.53728">
        <ele>859.6</ele>
        <time>2026-05-11T14:07:54Z</time>
      </trkpt>
      <trkpt lat="46.00386" lon="5.53733">
        <ele>858.8</ele>
        <time>2026-05-11T14:07:55Z</time>
      </trkpt>
      <trkpt lat="46.0038" lon="5.53739">
        <ele>858.4</ele>
        <time>2026-05-11T14:07:56Z</time>
      </trkpt>
      <trkpt lat="46.00374" lon="5.53744">
        <ele>858.2</ele>
        <time>2026-05-11T14:07:57Z</time>
      </trkpt>
      <trkpt lat="46.00367" lon="5.5375">
        <ele>858.2</ele>
        <time>2026-05-11T14:07:58Z</time>
      </trkpt>
      <trkpt lat="46.00361" lon="5.53755">
        <ele>858.2</ele>
        <time>2026-05-11T14:07:59Z</time>
      </trkpt>
      <trkpt lat="46.00355" lon="5.53762">
        <ele>857.6</ele>
        <time>2026-05-11T14:08:00Z</time>
      </trkpt>
      <trkpt lat="46.00348" lon="5.53768">
        <ele>857.4</ele>
        <time>2026-05-11T14:08:01Z</time>
      </trkpt>
      <trkpt lat="46.00341" lon="5.53775">
        <ele>857.4</ele>
        <time>2026-05-11T14:08:02Z</time>
      </trkpt>
      <trkpt lat="46.00335" lon="5.53783">
        <ele>856.8</ele>
        <time>2026-05-11T14:08:03Z</time>
      </trkpt>
      <trkpt lat="46.00328" lon="5.5379">
        <ele>856.8</ele>
        <time>2026-05-11T14:08:04Z</time>
      </trkpt>
      <trkpt lat="46.00321" lon="5.53797">
        <ele>856.6</ele>
        <time>2026-05-11T14:08:05Z</time>
      </trkpt>
      <trkpt lat="46.00314" lon="5.53805">
        <ele>855.6</ele>
        <time>2026-05-11T14:08:06Z</time>
      </trkpt>
      <trkpt lat="46.00307" lon="5.53812">
        <ele>855</ele>
        <time>2026-05-11T14:08:07Z</time>
      </trkpt>
      <trkpt lat="46.00301" lon="5.5382">
        <ele>855</ele>
        <time>2026-05-11T14:08:08Z</time>
      </trkpt>
      <trkpt lat="46.00294" lon="5.53828">
        <ele>855</ele>
        <time>2026-05-11T14:08:09Z</time>
      </trkpt>
      <trkpt lat="46.00288" lon="5.53835">
        <ele>854.4</ele>
        <time>2026-05-11T14:08:10Z</time>
      </trkpt>
      <trkpt lat="46.00282" lon="5.53843">
        <ele>854</ele>
        <time>2026-05-11T14:08:11Z</time>
      </trkpt>
      <trkpt lat="46.00275" lon="5.5385">
        <ele>854</ele>
        <time>2026-05-11T14:08:12Z</time>
      </trkpt>
      <trkpt lat="46.00269" lon="5.53857">
        <ele>854</ele>
        <time>2026-05-11T14:08:13Z</time>
      </trkpt>
      <trkpt lat="46.00264" lon="5.53863">
        <ele>854</ele>
        <time>2026-05-11T14:08:14Z</time>
      </trkpt>
      <trkpt lat="46.00258" lon="5.53869">
        <ele>854</ele>
        <time>2026-05-11T14:08:15Z</time>
      </trkpt>
      <trkpt lat="46.00253" lon="5.53875">
        <ele>854.4</ele>
        <time>2026-05-11T14:08:16Z</time>
      </trkpt>
      <trkpt lat="46.00247" lon="5.53881">
        <ele>854</ele>
        <time>2026-05-11T14:08:17Z</time>
      </trkpt>
      <trkpt lat="46.00242" lon="5.53887">
        <ele>853.8</ele>
        <time>2026-05-11T14:08:18Z</time>
      </trkpt>
      <trkpt lat="46.00237" lon="5.53892">
        <ele>854.2</ele>
        <time>2026-05-11T14:08:19Z</time>
      </trkpt>
      <trkpt lat="46.00231" lon="5.53897">
        <ele>854.4</ele>
        <time>2026-05-11T14:08:20Z</time>
      </trkpt>
      <trkpt lat="46.00226" lon="5.53903">
        <ele>854.8</ele>
        <time>2026-05-11T14:08:21Z</time>
      </trkpt>
      <trkpt lat="46.0022" lon="5.53909">
        <ele>855.2</ele>
        <time>2026-05-11T14:08:22Z</time>
      </trkpt>
      <trkpt lat="46.00215" lon="5.53914">
        <ele>855.8</ele>
        <time>2026-05-11T14:08:23Z</time>
      </trkpt>
      <trkpt lat="46.00209" lon="5.5392">
        <ele>855.8</ele>
        <time>2026-05-11T14:08:24Z</time>
      </trkpt>
      <trkpt lat="46.00204" lon="5.53926">
        <ele>856</ele>
        <time>2026-05-11T14:08:25Z</time>
      </trkpt>
      <trkpt lat="46.00199" lon="5.53932">
        <ele>856</ele>
        <time>2026-05-11T14:08:26Z</time>
      </trkpt>
      <trkpt lat="46.00193" lon="5.53937">
        <ele>856.4</ele>
        <time>2026-05-11T14:08:27Z</time>
      </trkpt>
      <trkpt lat="46.00188" lon="5.53942">
        <ele>856.4</ele>
        <time>2026-05-11T14:08:28Z</time>
      </trkpt>
      <trkpt lat="46.00182" lon="5.53948">
        <ele>855.8</ele>
        <time>2026-05-11T14:08:29Z</time>
      </trkpt>
      <trkpt lat="46.00176" lon="5.53954">
        <ele>855.8</ele>
        <time>2026-05-11T14:08:30Z</time>
      </trkpt>
      <trkpt lat="46.0017" lon="5.5396">
        <ele>855.8</ele>
        <time>2026-05-11T14:08:31Z</time>
      </trkpt>
      <trkpt lat="46.00165" lon="5.53967">
        <ele>855.8</ele>
        <time>2026-05-11T14:08:32Z</time>
      </trkpt>
      <trkpt lat="46.00159" lon="5.53972">
        <ele>855.8</ele>
        <time>2026-05-11T14:08:33Z</time>
      </trkpt>
      <trkpt lat="46.00153" lon="5.53978">
        <ele>855.8</ele>
        <time>2026-05-11T14:08:34Z</time>
      </trkpt>
      <trkpt lat="46.00148" lon="5.53983">
        <ele>855.4</ele>
        <time>2026-05-11T14:08:35Z</time>
      </trkpt>
      <trkpt lat="46.00142" lon="5.53988">
        <ele>855.4</ele>
        <time>2026-05-11T14:08:36Z</time>
      </trkpt>
      <trkpt lat="46.00136" lon="5.53993">
        <ele>855.8</ele>
        <time>2026-05-11T14:08:37Z</time>
      </trkpt>
      <trkpt lat="46.00136" lon="5.53993">
        <ele>855.4</ele>
        <time>2026-05-11T14:08:38Z</time>
      </trkpt>
      <trkpt lat="46.0013" lon="5.53998">
        <ele>855</ele>
        <time>2026-05-11T14:08:39Z</time>
      </trkpt>
      <trkpt lat="46.00124" lon="5.54003">
        <ele>855</ele>
        <time>2026-05-11T14:08:40Z</time>
      </trkpt>
      <trkpt lat="46.00118" lon="5.54009">
        <ele>855</ele>
        <time>2026-05-11T14:08:41Z</time>
      </trkpt>
      <trkpt lat="46.00113" lon="5.54013">
        <ele>855</ele>
        <time>2026-05-11T14:08:42Z</time>
      </trkpt>
      <trkpt lat="46.00107" lon="5.54018">
        <ele>855</ele>
        <time>2026-05-11T14:08:43Z</time>
      </trkpt>
      <trkpt lat="46.00101" lon="5.54023">
        <ele>855.4</ele>
        <time>2026-05-11T14:08:44Z</time>
      </trkpt>
      <trkpt lat="46.00095" lon="5.54027">
        <ele>855</ele>
        <time>2026-05-11T14:08:45Z</time>
      </trkpt>
      <trkpt lat="46.0009" lon="5.54031">
        <ele>855</ele>
        <time>2026-05-11T14:08:46Z</time>
      </trkpt>
      <trkpt lat="46.00084" lon="5.54035">
        <ele>855.6</ele>
        <time>2026-05-11T14:08:47Z</time>
      </trkpt>
      <trkpt lat="46.00079" lon="5.54039">
        <ele>855.6</ele>
        <time>2026-05-11T14:08:48Z</time>
      </trkpt>
      <trkpt lat="46.00073" lon="5.54042">
        <ele>856</ele>
        <time>2026-05-11T14:08:49Z</time>
      </trkpt>
      <trkpt lat="46.00068" lon="5.54046">
        <ele>856</ele>
        <time>2026-05-11T14:08:50Z</time>
      </trkpt>
      <trkpt lat="46.00063" lon="5.5405">
        <ele>856.4</ele>
        <time>2026-05-11T14:08:51Z</time>
      </trkpt>
      <trkpt lat="46.00057" lon="5.54052">
        <ele>856.4</ele>
        <time>2026-05-11T14:08:52Z</time>
      </trkpt>
      <trkpt lat="46.00052" lon="5.54056">
        <ele>856.4</ele>
        <time>2026-05-11T14:08:53Z</time>
      </trkpt>
      <trkpt lat="46.00046" lon="5.54059">
        <ele>856.4</ele>
        <time>2026-05-11T14:08:54Z</time>
      </trkpt>
      <trkpt lat="46.00041" lon="5.54063">
        <ele>856.2</ele>
        <time>2026-05-11T14:08:55Z</time>
      </trkpt>
      <trkpt lat="46.00035" lon="5.54065">
        <ele>856.2</ele>
        <time>2026-05-11T14:08:56Z</time>
      </trkpt>
      <trkpt lat="46.0003" lon="5.54069">
        <ele>855.6</ele>
        <time>2026-05-11T14:08:57Z</time>
      </trkpt>
      <trkpt lat="46.00024" lon="5.5407">
        <ele>856</ele>
        <time>2026-05-11T14:08:58Z</time>
      </trkpt>
      <trkpt lat="46.00019" lon="5.54074">
        <ele>856</ele>
        <time>2026-05-11T14:08:59Z</time>
      </trkpt>
      <trkpt lat="46.00014" lon="5.54077">
        <ele>856</ele>
        <time>2026-05-11T14:09:00Z</time>
      </trkpt>
      <trkpt lat="46.00009" lon="5.5408">
        <ele>856</ele>
        <time>2026-05-11T14:09:01Z</time>
      </trkpt>
      <trkpt lat="46.00003" lon="5.54083">
        <ele>856.6</ele>
        <time>2026-05-11T14:09:02Z</time>
      </trkpt>
      <trkpt lat="45.99998" lon="5.54086">
        <ele>856.6</ele>
        <time>2026-05-11T14:09:03Z</time>
      </trkpt>
      <trkpt lat="45.99993" lon="5.54089">
        <ele>856.8</ele>
        <time>2026-05-11T14:09:04Z</time>
      </trkpt>
      <trkpt lat="45.99988" lon="5.54091">
        <ele>856.8</ele>
        <time>2026-05-11T14:09:05Z</time>
      </trkpt>
      <trkpt lat="45.99983" lon="5.54094">
        <ele>857.6</ele>
        <time>2026-05-11T14:09:06Z</time>
      </trkpt>
      <trkpt lat="45.99978" lon="5.54098">
        <ele>857.6</ele>
        <time>2026-05-11T14:09:07Z</time>
      </trkpt>
      <trkpt lat="45.99973" lon="5.54101">
        <ele>858</ele>
        <time>2026-05-11T14:09:08Z</time>
      </trkpt>
      <trkpt lat="45.99968" lon="5.54103">
        <ele>858.2</ele>
        <time>2026-05-11T14:09:09Z</time>
      </trkpt>
      <trkpt lat="45.99963" lon="5.54106">
        <ele>858.6</ele>
        <time>2026-05-11T14:09:10Z</time>
      </trkpt>
      <trkpt lat="45.99958" lon="5.54109">
        <ele>858.6</ele>
        <time>2026-05-11T14:09:11Z</time>
      </trkpt>
      <trkpt lat="45.99953" lon="5.54111">
        <ele>858.6</ele>
        <time>2026-05-11T14:09:12Z</time>
      </trkpt>
      <trkpt lat="45.99947" lon="5.54114">
        <ele>858.6</ele>
        <time>2026-05-11T14:09:13Z</time>
      </trkpt>
      <trkpt lat="45.99942" lon="5.54117">
        <ele>858.6</ele>
        <time>2026-05-11T14:09:14Z</time>
      </trkpt>
      <trkpt lat="45.99937" lon="5.5412">
        <ele>858.2</ele>
        <time>2026-05-11T14:09:15Z</time>
      </trkpt>
      <trkpt lat="45.99932" lon="5.54123">
        <ele>858.2</ele>
        <time>2026-05-11T14:09:16Z</time>
      </trkpt>
      <trkpt lat="45.99927" lon="5.54126">
        <ele>858.4</ele>
        <time>2026-05-11T14:09:17Z</time>
      </trkpt>
      <trkpt lat="45.99923" lon="5.54128">
        <ele>858.4</ele>
        <time>2026-05-11T14:09:18Z</time>
      </trkpt>
      <trkpt lat="45.99918" lon="5.54131">
        <ele>858.4</ele>
        <time>2026-05-11T14:09:19Z</time>
      </trkpt>
      <trkpt lat="45.99913" lon="5.54133">
        <ele>858.2</ele>
        <time>2026-05-11T14:09:20Z</time>
      </trkpt>
      <trkpt lat="45.99909" lon="5.54136">
        <ele>858.2</ele>
        <time>2026-05-11T14:09:21Z</time>
      </trkpt>
      <trkpt lat="45.99904" lon="5.54139">
        <ele>858.2</ele>
        <time>2026-05-11T14:09:22Z</time>
      </trkpt>
      <trkpt lat="45.99899" lon="5.54142">
        <ele>858.2</ele>
        <time>2026-05-11T14:09:23Z</time>
      </trkpt>
      <trkpt lat="45.99894" lon="5.54144">
        <ele>858.4</ele>
        <time>2026-05-11T14:09:24Z</time>
      </trkpt>
      <trkpt lat="45.99884" lon="5.54151">
        <ele>858.2</ele>
        <time>2026-05-11T14:09:25Z</time>
      </trkpt>
      <trkpt lat="45.99879" lon="5.54153">
        <ele>857.8</ele>
        <time>2026-05-11T14:09:26Z</time>
      </trkpt>
      <trkpt lat="45.99875" lon="5.54156">
        <ele>857.6</ele>
        <time>2026-05-11T14:09:27Z</time>
      </trkpt>
      <trkpt lat="45.9987" lon="5.54158">
        <ele>857.6</ele>
        <time>2026-05-11T14:09:28Z</time>
      </trkpt>
      <trkpt lat="45.99865" lon="5.54161">
        <ele>858</ele>
        <time>2026-05-11T14:09:29Z</time>
      </trkpt>
      <trkpt lat="45.9986" lon="5.54163">
        <ele>858</ele>
        <time>2026-05-11T14:09:30Z</time>
      </trkpt>
      <trkpt lat="45.99856" lon="5.54166">
        <ele>858</ele>
        <time>2026-05-11T14:09:31Z</time>
      </trkpt>
      <trkpt lat="45.99851" lon="5.54169">
        <ele>858</ele>
        <time>2026-05-11T14:09:32Z</time>
      </trkpt>
      <trkpt lat="45.99847" lon="5.54171">
        <ele>858.6</ele>
        <time>2026-05-11T14:09:33Z</time>
      </trkpt>
      <trkpt lat="45.99842" lon="5.54174">
        <ele>858.6</ele>
        <time>2026-05-11T14:09:34Z</time>
      </trkpt>
      <trkpt lat="45.99838" lon="5.54176">
        <ele>859</ele>
        <time>2026-05-11T14:09:35Z</time>
      </trkpt>
      <trkpt lat="45.99834" lon="5.54179">
        <ele>859</ele>
        <time>2026-05-11T14:09:36Z</time>
      </trkpt>
      <trkpt lat="45.9983" lon="5.54182">
        <ele>859</ele>
        <time>2026-05-11T14:09:37Z</time>
      </trkpt>
      <trkpt lat="45.99826" lon="5.54184">
        <ele>859.2</ele>
        <time>2026-05-11T14:09:38Z</time>
      </trkpt>
      <trkpt lat="45.99823" lon="5.54186">
        <ele>859.2</ele>
        <time>2026-05-11T14:09:39Z</time>
      </trkpt>
      <trkpt lat="45.99819" lon="5.54188">
        <ele>859.6</ele>
        <time>2026-05-11T14:09:40Z</time>
      </trkpt>
      <trkpt lat="45.99815" lon="5.5419">
        <ele>859.6</ele>
        <time>2026-05-11T14:09:41Z</time>
      </trkpt>
      <trkpt lat="45.99812" lon="5.54192">
        <ele>860</ele>
        <time>2026-05-11T14:09:42Z</time>
      </trkpt>
      <trkpt lat="45.99809" lon="5.54194">
        <ele>860</ele>
        <time>2026-05-11T14:09:43Z</time>
      </trkpt>
      <trkpt lat="45.99806" lon="5.54196">
        <ele>860</ele>
        <time>2026-05-11T14:09:44Z</time>
      </trkpt>
      <trkpt lat="45.99803" lon="5.54199">
        <ele>860.2</ele>
        <time>2026-05-11T14:09:45Z</time>
      </trkpt>
      <trkpt lat="45.998" lon="5.54201">
        <ele>860.6</ele>
        <time>2026-05-11T14:09:46Z</time>
      </trkpt>
      <trkpt lat="45.99797" lon="5.54203">
        <ele>861.2</ele>
        <time>2026-05-11T14:09:47Z</time>
      </trkpt>
      <trkpt lat="45.99794" lon="5.54205">
        <ele>861.2</ele>
        <time>2026-05-11T14:09:48Z</time>
      </trkpt>
      <trkpt lat="45.99791" lon="5.54207">
        <ele>861.4</ele>
        <time>2026-05-11T14:09:49Z</time>
      </trkpt>
      <trkpt lat="45.99789" lon="5.54209">
        <ele>861.4</ele>
        <time>2026-05-11T14:09:50Z</time>
      </trkpt>
      <trkpt lat="45.99786" lon="5.54211">
        <ele>861.6</ele>
        <time>2026-05-11T14:09:51Z</time>
      </trkpt>
      <trkpt lat="45.99784" lon="5.54213">
        <ele>862</ele>
        <time>2026-05-11T14:09:52Z</time>
      </trkpt>
      <trkpt lat="45.99781" lon="5.54215">
        <ele>862.4</ele>
        <time>2026-05-11T14:09:53Z</time>
      </trkpt>
      <trkpt lat="45.99779" lon="5.54216">
        <ele>862.4</ele>
        <time>2026-05-11T14:09:54Z</time>
      </trkpt>
      <trkpt lat="45.99776" lon="5.54217">
        <ele>862.6</ele>
        <time>2026-05-11T14:09:55Z</time>
      </trkpt>
      <trkpt lat="45.99773" lon="5.54218">
        <ele>862.6</ele>
        <time>2026-05-11T14:09:56Z</time>
      </trkpt>
      <trkpt lat="45.99771" lon="5.54218">
        <ele>863</ele>
        <time>2026-05-11T14:09:57Z</time>
      </trkpt>
      <trkpt lat="45.99767" lon="5.54217">
        <ele>863</ele>
        <time>2026-05-11T14:09:58Z</time>
      </trkpt>
      <trkpt lat="45.99764" lon="5.54216">
        <ele>863.2</ele>
        <time>2026-05-11T14:09:59Z</time>
      </trkpt>
      <trkpt lat="45.99761" lon="5.54214">
        <ele>863.2</ele>
        <time>2026-05-11T14:10:00Z</time>
      </trkpt>
      <trkpt lat="45.99759" lon="5.54212">
        <ele>863.6</ele>
        <time>2026-05-11T14:10:01Z</time>
      </trkpt>
      <trkpt lat="45.99756" lon="5.5421">
        <ele>863.8</ele>
        <time>2026-05-11T14:10:02Z</time>
      </trkpt>
      <trkpt lat="45.99753" lon="5.54208">
        <ele>863.8</ele>
        <time>2026-05-11T14:10:03Z</time>
      </trkpt>
      <trkpt lat="45.99749" lon="5.54207">
        <ele>863.8</ele>
        <time>2026-05-11T14:10:04Z</time>
      </trkpt>
      <trkpt lat="45.99746" lon="5.54207">
        <ele>863.8</ele>
        <time>2026-05-11T14:10:05Z</time>
      </trkpt>
      <trkpt lat="45.99744" lon="5.54207">
        <ele>863.8</ele>
        <time>2026-05-11T14:10:06Z</time>
      </trkpt>
      <trkpt lat="45.9974" lon="5.54206">
        <ele>863.8</ele>
        <time>2026-05-11T14:10:07Z</time>
      </trkpt>
      <trkpt lat="45.99737" lon="5.54206">
        <ele>863.8</ele>
        <time>2026-05-11T14:10:08Z</time>
      </trkpt>
      <trkpt lat="45.99733" lon="5.54205">
        <ele>863.8</ele>
        <time>2026-05-11T14:10:09Z</time>
      </trkpt>
      <trkpt lat="45.99729" lon="5.54203">
        <ele>863.8</ele>
        <time>2026-05-11T14:10:10Z</time>
      </trkpt>
      <trkpt lat="45.99726" lon="5.54201">
        <ele>863.8</ele>
        <time>2026-05-11T14:10:11Z</time>
      </trkpt>
      <trkpt lat="45.99722" lon="5.542">
        <ele>863.8</ele>
        <time>2026-05-11T14:10:12Z</time>
      </trkpt>
      <trkpt lat="45.99719" lon="5.54199">
        <ele>863.8</ele>
        <time>2026-05-11T14:10:13Z</time>
      </trkpt>
      <trkpt lat="45.99716" lon="5.54198">
        <ele>863.8</ele>
        <time>2026-05-11T14:10:14Z</time>
      </trkpt>
      <trkpt lat="45.99712" lon="5.54196">
        <ele>863.8</ele>
        <time>2026-05-11T14:10:15Z</time>
      </trkpt>
      <trkpt lat="45.99709" lon="5.54193">
        <ele>864</ele>
        <time>2026-05-11T14:10:16Z</time>
      </trkpt>
      <trkpt lat="45.99705" lon="5.54191">
        <ele>864</ele>
        <time>2026-05-11T14:10:17Z</time>
      </trkpt>
      <trkpt lat="45.99702" lon="5.54188">
        <ele>864</ele>
        <time>2026-05-11T14:10:18Z</time>
      </trkpt>
      <trkpt lat="45.99696" lon="5.54186">
        <ele>864</ele>
        <time>2026-05-11T14:10:19Z</time>
      </trkpt>
      <trkpt lat="45.99692" lon="5.54185">
        <ele>864</ele>
        <time>2026-05-11T14:10:20Z</time>
      </trkpt>
      <trkpt lat="45.99689" lon="5.54182">
        <ele>864</ele>
        <time>2026-05-11T14:10:21Z</time>
      </trkpt>
      <trkpt lat="45.99685" lon="5.54179">
        <ele>864</ele>
        <time>2026-05-11T14:10:22Z</time>
      </trkpt>
      <trkpt lat="45.99681" lon="5.54177">
        <ele>864</ele>
        <time>2026-05-11T14:10:23Z</time>
      </trkpt>
      <trkpt lat="45.99677" lon="5.54177">
        <ele>864.2</ele>
        <time>2026-05-11T14:10:24Z</time>
      </trkpt>
      <trkpt lat="45.99674" lon="5.54175">
        <ele>864.2</ele>
        <time>2026-05-11T14:10:25Z</time>
      </trkpt>
      <trkpt lat="45.99671" lon="5.5417">
        <ele>864.6</ele>
        <time>2026-05-11T14:10:26Z</time>
      </trkpt>
      <trkpt lat="45.99668" lon="5.54168">
        <ele>864.6</ele>
        <time>2026-05-11T14:10:27Z</time>
      </trkpt>
      <trkpt lat="45.99664" lon="5.54172">
        <ele>865</ele>
        <time>2026-05-11T14:10:28Z</time>
      </trkpt>
      <trkpt lat="45.99661" lon="5.54169">
        <ele>865.2</ele>
        <time>2026-05-11T14:10:29Z</time>
      </trkpt>
      <trkpt lat="45.99658" lon="5.54168">
        <ele>865.2</ele>
        <time>2026-05-11T14:10:30Z</time>
      </trkpt>
      <trkpt lat="45.99656" lon="5.54168">
        <ele>865.2</ele>
        <time>2026-05-11T14:10:31Z</time>
      </trkpt>
      <trkpt lat="45.99653" lon="5.54167">
        <ele>865.6</ele>
        <time>2026-05-11T14:10:32Z</time>
      </trkpt>
      <trkpt lat="45.99651" lon="5.54166">
        <ele>865.6</ele>
        <time>2026-05-11T14:10:33Z</time>
      </trkpt>
      <trkpt lat="45.99648" lon="5.54164">
        <ele>865.8</ele>
        <time>2026-05-11T14:10:34Z</time>
      </trkpt>
      <trkpt lat="45.99645" lon="5.54163">
        <ele>865.8</ele>
        <time>2026-05-11T14:10:35Z</time>
      </trkpt>
      <trkpt lat="45.99642" lon="5.54163">
        <ele>866.2</ele>
        <time>2026-05-11T14:10:36Z</time>
      </trkpt>
      <trkpt lat="45.99638" lon="5.54164">
        <ele>866.2</ele>
        <time>2026-05-11T14:10:37Z</time>
      </trkpt>
      <trkpt lat="45.99634" lon="5.54166">
        <ele>866.2</ele>
        <time>2026-05-11T14:10:38Z</time>
      </trkpt>
      <trkpt lat="45.99631" lon="5.54167">
        <ele>866.6</ele>
        <time>2026-05-11T14:10:39Z</time>
      </trkpt>
      <trkpt lat="45.99628" lon="5.54168">
        <ele>866.6</ele>
        <time>2026-05-11T14:10:40Z</time>
      </trkpt>
      <trkpt lat="45.99624" lon="5.54168">
        <ele>866.6</ele>
        <time>2026-05-11T14:10:41Z</time>
      </trkpt>
      <trkpt lat="45.99621" lon="5.54169">
        <ele>866.8</ele>
        <time>2026-05-11T14:10:42Z</time>
      </trkpt>
      <trkpt lat="45.99618" lon="5.54169">
        <ele>866.6</ele>
        <time>2026-05-11T14:10:43Z</time>
      </trkpt>
      <trkpt lat="45.99614" lon="5.54169">
        <ele>866.6</ele>
        <time>2026-05-11T14:10:44Z</time>
      </trkpt>
      <trkpt lat="45.99611" lon="5.54169">
        <ele>866.6</ele>
        <time>2026-05-11T14:10:45Z</time>
      </trkpt>
      <trkpt lat="45.99608" lon="5.54169">
        <ele>866.6</ele>
        <time>2026-05-11T14:10:46Z</time>
      </trkpt>
      <trkpt lat="45.99604" lon="5.54169">
        <ele>866.6</ele>
        <time>2026-05-11T14:10:47Z</time>
      </trkpt>
      <trkpt lat="45.99601" lon="5.54169">
        <ele>866.6</ele>
        <time>2026-05-11T14:10:48Z</time>
      </trkpt>
      <trkpt lat="45.99598" lon="5.54169">
        <ele>866.8</ele>
        <time>2026-05-11T14:10:49Z</time>
      </trkpt>
      <trkpt lat="45.99595" lon="5.54169">
        <ele>867</ele>
        <time>2026-05-11T14:10:50Z</time>
      </trkpt>
      <trkpt lat="45.99592" lon="5.54169">
        <ele>867</ele>
        <time>2026-05-11T14:10:51Z</time>
      </trkpt>
      <trkpt lat="45.99588" lon="5.54168">
        <ele>867.4</ele>
        <time>2026-05-11T14:10:52Z</time>
      </trkpt>
      <trkpt lat="45.99585" lon="5.54168">
        <ele>867.6</ele>
        <time>2026-05-11T14:10:53Z</time>
      </trkpt>
      <trkpt lat="45.99582" lon="5.54167">
        <ele>867.6</ele>
        <time>2026-05-11T14:10:54Z</time>
      </trkpt>
      <trkpt lat="45.99578" lon="5.54167">
        <ele>867.6</ele>
        <time>2026-05-11T14:10:55Z</time>
      </trkpt>
      <trkpt lat="45.99575" lon="5.54166">
        <ele>867.8</ele>
        <time>2026-05-11T14:10:56Z</time>
      </trkpt>
      <trkpt lat="45.99572" lon="5.54166">
        <ele>867.8</ele>
        <time>2026-05-11T14:10:57Z</time>
      </trkpt>
      <trkpt lat="45.99568" lon="5.54167">
        <ele>867.8</ele>
        <time>2026-05-11T14:10:58Z</time>
      </trkpt>
      <trkpt lat="45.99565" lon="5.54167">
        <ele>867.8</ele>
        <time>2026-05-11T14:10:59Z</time>
      </trkpt>
      <trkpt lat="45.99562" lon="5.54167">
        <ele>867.8</ele>
        <time>2026-05-11T14:11:00Z</time>
      </trkpt>
      <trkpt lat="45.9956" lon="5.54168">
        <ele>867.8</ele>
        <time>2026-05-11T14:11:01Z</time>
      </trkpt>
      <trkpt lat="45.99557" lon="5.54168">
        <ele>868</ele>
        <time>2026-05-11T14:11:02Z</time>
      </trkpt>
      <trkpt lat="45.99554" lon="5.54169">
        <ele>868</ele>
        <time>2026-05-11T14:11:03Z</time>
      </trkpt>
      <trkpt lat="45.99551" lon="5.54169">
        <ele>868</ele>
        <time>2026-05-11T14:11:04Z</time>
      </trkpt>
      <trkpt lat="45.99548" lon="5.54169">
        <ele>868</ele>
        <time>2026-05-11T14:11:05Z</time>
      </trkpt>
      <trkpt lat="45.99546" lon="5.5417">
        <ele>868</ele>
        <time>2026-05-11T14:11:06Z</time>
      </trkpt>
      <trkpt lat="45.99544" lon="5.5417">
        <ele>868.4</ele>
        <time>2026-05-11T14:11:07Z</time>
      </trkpt>
      <trkpt lat="45.99541" lon="5.54171">
        <ele>868.4</ele>
        <time>2026-05-11T14:11:08Z</time>
      </trkpt>
      <trkpt lat="45.99539" lon="5.54171">
        <ele>868.8</ele>
        <time>2026-05-11T14:11:09Z</time>
      </trkpt>
      <trkpt lat="45.99537" lon="5.54172">
        <ele>868.8</ele>
        <time>2026-05-11T14:11:10Z</time>
      </trkpt>
      <trkpt lat="45.99535" lon="5.54172">
        <ele>869</ele>
        <time>2026-05-11T14:11:11Z</time>
      </trkpt>
      <trkpt lat="45.99532" lon="5.54172">
        <ele>869.2</ele>
        <time>2026-05-11T14:11:12Z</time>
      </trkpt>
      <trkpt lat="45.99529" lon="5.54172">
        <ele>869.2</ele>
        <time>2026-05-11T14:11:13Z</time>
      </trkpt>
      <trkpt lat="45.99526" lon="5.54171">
        <ele>869.2</ele>
        <time>2026-05-11T14:11:14Z</time>
      </trkpt>
      <trkpt lat="45.99524" lon="5.5417">
        <ele>869.4</ele>
        <time>2026-05-11T14:11:15Z</time>
      </trkpt>
      <trkpt lat="45.99522" lon="5.5417">
        <ele>869.4</ele>
        <time>2026-05-11T14:11:16Z</time>
      </trkpt>
      <trkpt lat="45.99519" lon="5.5417">
        <ele>869.6</ele>
        <time>2026-05-11T14:11:17Z</time>
      </trkpt>
      <trkpt lat="45.99516" lon="5.5417">
        <ele>869.6</ele>
        <time>2026-05-11T14:11:18Z</time>
      </trkpt>
      <trkpt lat="45.99513" lon="5.5417">
        <ele>869.6</ele>
        <time>2026-05-11T14:11:19Z</time>
      </trkpt>
      <trkpt lat="45.9951" lon="5.5417">
        <ele>870</ele>
        <time>2026-05-11T14:11:20Z</time>
      </trkpt>
      <trkpt lat="45.99507" lon="5.54169">
        <ele>870.2</ele>
        <time>2026-05-11T14:11:21Z</time>
      </trkpt>
      <trkpt lat="45.99505" lon="5.54169">
        <ele>870.2</ele>
        <time>2026-05-11T14:11:22Z</time>
      </trkpt>
      <trkpt lat="45.99501" lon="5.54168">
        <ele>870.2</ele>
        <time>2026-05-11T14:11:23Z</time>
      </trkpt>
      <trkpt lat="45.99499" lon="5.54168">
        <ele>870.2</ele>
        <time>2026-05-11T14:11:24Z</time>
      </trkpt>
      <trkpt lat="45.99496" lon="5.54168">
        <ele>870.6</ele>
        <time>2026-05-11T14:11:25Z</time>
      </trkpt>
      <trkpt lat="45.99494" lon="5.54168">
        <ele>870.8</ele>
        <time>2026-05-11T14:11:26Z</time>
      </trkpt>
      <trkpt lat="45.99492" lon="5.54167">
        <ele>871</ele>
        <time>2026-05-11T14:11:27Z</time>
      </trkpt>
      <trkpt lat="45.99489" lon="5.54166">
        <ele>871</ele>
        <time>2026-05-11T14:11:28Z</time>
      </trkpt>
      <trkpt lat="45.99487" lon="5.54165">
        <ele>871.2</ele>
        <time>2026-05-11T14:11:29Z</time>
      </trkpt>
      <trkpt lat="45.99484" lon="5.54164">
        <ele>871.2</ele>
        <time>2026-05-11T14:11:30Z</time>
      </trkpt>
      <trkpt lat="45.99482" lon="5.54163">
        <ele>871.6</ele>
        <time>2026-05-11T14:11:31Z</time>
      </trkpt>
      <trkpt lat="45.99479" lon="5.54161">
        <ele>871.8</ele>
        <time>2026-05-11T14:11:32Z</time>
      </trkpt>
      <trkpt lat="45.99477" lon="5.5416">
        <ele>871.8</ele>
        <time>2026-05-11T14:11:33Z</time>
      </trkpt>
      <trkpt lat="45.99474" lon="5.5416">
        <ele>871.8</ele>
        <time>2026-05-11T14:11:34Z</time>
      </trkpt>
      <trkpt lat="45.99472" lon="5.54158">
        <ele>871.8</ele>
        <time>2026-05-11T14:11:35Z</time>
      </trkpt>
      <trkpt lat="45.99469" lon="5.54157">
        <ele>871.8</ele>
        <time>2026-05-11T14:11:36Z</time>
      </trkpt>
      <trkpt lat="45.99466" lon="5.54155">
        <ele>872.4</ele>
        <time>2026-05-11T14:11:37Z</time>
      </trkpt>
      <trkpt lat="45.99463" lon="5.54154">
        <ele>872.4</ele>
        <time>2026-05-11T14:11:38Z</time>
      </trkpt>
      <trkpt lat="45.99461" lon="5.54153">
        <ele>872.4</ele>
        <time>2026-05-11T14:11:39Z</time>
      </trkpt>
      <trkpt lat="45.99458" lon="5.54152">
        <ele>872.8</ele>
        <time>2026-05-11T14:11:40Z</time>
      </trkpt>
      <trkpt lat="45.99456" lon="5.54151">
        <ele>872.8</ele>
        <time>2026-05-11T14:11:41Z</time>
      </trkpt>
      <trkpt lat="45.99454" lon="5.5415">
        <ele>873.4</ele>
        <time>2026-05-11T14:11:42Z</time>
      </trkpt>
      <trkpt lat="45.99452" lon="5.5415">
        <ele>873.4</ele>
        <time>2026-05-11T14:11:43Z</time>
      </trkpt>
      <trkpt lat="45.9945" lon="5.54149">
        <ele>873.4</ele>
        <time>2026-05-11T14:11:44Z</time>
      </trkpt>
      <trkpt lat="45.99447" lon="5.54148">
        <ele>873.6</ele>
        <time>2026-05-11T14:11:45Z</time>
      </trkpt>
      <trkpt lat="45.99445" lon="5.54148">
        <ele>873.6</ele>
        <time>2026-05-11T14:11:46Z</time>
      </trkpt>
      <trkpt lat="45.99442" lon="5.54147">
        <ele>874</ele>
        <time>2026-05-11T14:11:47Z</time>
      </trkpt>
      <trkpt lat="45.99439" lon="5.54146">
        <ele>874</ele>
        <time>2026-05-11T14:11:48Z</time>
      </trkpt>
      <trkpt lat="45.99439" lon="5.54146">
        <ele>874</ele>
        <time>2026-05-11T14:11:49Z</time>
      </trkpt>
      <trkpt lat="45.99434" lon="5.54144">
        <ele>874.2</ele>
        <time>2026-05-11T14:11:50Z</time>
      </trkpt>
      <trkpt lat="45.99431" lon="5.54144">
        <ele>874.2</ele>
        <time>2026-05-11T14:11:51Z</time>
      </trkpt>
      <trkpt lat="45.99429" lon="5.54143">
        <ele>874.2</ele>
        <time>2026-05-11T14:11:52Z</time>
      </trkpt>
      <trkpt lat="45.99426" lon="5.54143">
        <ele>874.4</ele>
        <time>2026-05-11T14:11:53Z</time>
      </trkpt>
      <trkpt lat="45.99423" lon="5.54142">
        <ele>874.4</ele>
        <time>2026-05-11T14:11:54Z</time>
      </trkpt>
      <trkpt lat="45.99421" lon="5.54142">
        <ele>874.4</ele>
        <time>2026-05-11T14:11:55Z</time>
      </trkpt>
      <trkpt lat="45.99418" lon="5.54142">
        <ele>874.6</ele>
        <time>2026-05-11T14:11:56Z</time>
      </trkpt>
      <trkpt lat="45.99415" lon="5.54142">
        <ele>874.6</ele>
        <time>2026-05-11T14:11:57Z</time>
      </trkpt>
      <trkpt lat="45.99413" lon="5.54141">
        <ele>874.8</ele>
        <time>2026-05-11T14:11:58Z</time>
      </trkpt>
      <trkpt lat="45.9941" lon="5.54141">
        <ele>874.8</ele>
        <time>2026-05-11T14:11:59Z</time>
      </trkpt>
      <trkpt lat="45.99408" lon="5.54141">
        <ele>874.6</ele>
        <time>2026-05-11T14:12:00Z</time>
      </trkpt>
      <trkpt lat="45.99405" lon="5.54142">
        <ele>874.6</ele>
        <time>2026-05-11T14:12:01Z</time>
      </trkpt>
      <trkpt lat="45.99402" lon="5.54142">
        <ele>874.6</ele>
        <time>2026-05-11T14:12:02Z</time>
      </trkpt>
      <trkpt lat="45.99399" lon="5.54143">
        <ele>874.6</ele>
        <time>2026-05-11T14:12:03Z</time>
      </trkpt>
      <trkpt lat="45.99396" lon="5.54144">
        <ele>874.4</ele>
        <time>2026-05-11T14:12:04Z</time>
      </trkpt>
      <trkpt lat="45.99393" lon="5.54145">
        <ele>874.4</ele>
        <time>2026-05-11T14:12:05Z</time>
      </trkpt>
      <trkpt lat="45.9939" lon="5.54147">
        <ele>874.4</ele>
        <time>2026-05-11T14:12:06Z</time>
      </trkpt>
      <trkpt lat="45.99387" lon="5.54148">
        <ele>874.4</ele>
        <time>2026-05-11T14:12:07Z</time>
      </trkpt>
      <trkpt lat="45.99385" lon="5.5415">
        <ele>874.4</ele>
        <time>2026-05-11T14:12:08Z</time>
      </trkpt>
      <trkpt lat="45.99381" lon="5.54151">
        <ele>874.2</ele>
        <time>2026-05-11T14:12:09Z</time>
      </trkpt>
      <trkpt lat="45.99378" lon="5.54153">
        <ele>874.2</ele>
        <time>2026-05-11T14:12:10Z</time>
      </trkpt>
      <trkpt lat="45.99375" lon="5.54155">
        <ele>874.2</ele>
        <time>2026-05-11T14:12:11Z</time>
      </trkpt>
      <trkpt lat="45.99372" lon="5.54158">
        <ele>873.8</ele>
        <time>2026-05-11T14:12:12Z</time>
      </trkpt>
      <trkpt lat="45.99369" lon="5.5416">
        <ele>873.6</ele>
        <time>2026-05-11T14:12:13Z</time>
      </trkpt>
      <trkpt lat="45.99366" lon="5.54162">
        <ele>873.6</ele>
        <time>2026-05-11T14:12:14Z</time>
      </trkpt>
      <trkpt lat="45.99363" lon="5.54164">
        <ele>872.8</ele>
        <time>2026-05-11T14:12:15Z</time>
      </trkpt>
      <trkpt lat="45.9936" lon="5.54167">
        <ele>873.2</ele>
        <time>2026-05-11T14:12:16Z</time>
      </trkpt>
      <trkpt lat="45.99357" lon="5.54169">
        <ele>872.4</ele>
        <time>2026-05-11T14:12:17Z</time>
      </trkpt>
      <trkpt lat="45.99353" lon="5.54172">
        <ele>873</ele>
        <time>2026-05-11T14:12:18Z</time>
      </trkpt>
      <trkpt lat="45.99349" lon="5.54174">
        <ele>873</ele>
        <time>2026-05-11T14:12:19Z</time>
      </trkpt>
      <trkpt lat="45.99345" lon="5.54178">
        <ele>873</ele>
        <time>2026-05-11T14:12:20Z</time>
      </trkpt>
      <trkpt lat="45.99341" lon="5.54181">
        <ele>873</ele>
        <time>2026-05-11T14:12:21Z</time>
      </trkpt>
      <trkpt lat="45.99336" lon="5.54183">
        <ele>872.6</ele>
        <time>2026-05-11T14:12:22Z</time>
      </trkpt>
      <trkpt lat="45.99331" lon="5.54186">
        <ele>872.2</ele>
        <time>2026-05-11T14:12:23Z</time>
      </trkpt>
      <trkpt lat="45.99327" lon="5.54189">
        <ele>872.2</ele>
        <time>2026-05-11T14:12:24Z</time>
      </trkpt>
      <trkpt lat="45.99322" lon="5.5419">
        <ele>872</ele>
        <time>2026-05-11T14:12:25Z</time>
      </trkpt>
      <trkpt lat="45.99317" lon="5.54192">
        <ele>872.2</ele>
        <time>2026-05-11T14:12:26Z</time>
      </trkpt>
      <trkpt lat="45.99313" lon="5.54194">
        <ele>872</ele>
        <time>2026-05-11T14:12:27Z</time>
      </trkpt>
      <trkpt lat="45.99309" lon="5.54196">
        <ele>872</ele>
        <time>2026-05-11T14:12:28Z</time>
      </trkpt>
      <trkpt lat="45.99304" lon="5.54197">
        <ele>872</ele>
        <time>2026-05-11T14:12:29Z</time>
      </trkpt>
      <trkpt lat="45.993" lon="5.54198">
        <ele>871.6</ele>
        <time>2026-05-11T14:12:30Z</time>
      </trkpt>
      <trkpt lat="45.99295" lon="5.54199">
        <ele>871.6</ele>
        <time>2026-05-11T14:12:31Z</time>
      </trkpt>
      <trkpt lat="45.99291" lon="5.542">
        <ele>871.6</ele>
        <time>2026-05-11T14:12:32Z</time>
      </trkpt>
      <trkpt lat="45.99286" lon="5.54201">
        <ele>871.4</ele>
        <time>2026-05-11T14:12:33Z</time>
      </trkpt>
      <trkpt lat="45.99283" lon="5.54201">
        <ele>871.4</ele>
        <time>2026-05-11T14:12:34Z</time>
      </trkpt>
      <trkpt lat="45.99278" lon="5.54202">
        <ele>871.4</ele>
        <time>2026-05-11T14:12:35Z</time>
      </trkpt>
      <trkpt lat="45.99275" lon="5.54202">
        <ele>871</ele>
        <time>2026-05-11T14:12:36Z</time>
      </trkpt>
      <trkpt lat="45.99271" lon="5.54203">
        <ele>871</ele>
        <time>2026-05-11T14:12:37Z</time>
      </trkpt>
      <trkpt lat="45.99268" lon="5.54203">
        <ele>871.6</ele>
        <time>2026-05-11T14:12:38Z</time>
      </trkpt>
      <trkpt lat="45.99264" lon="5.54203">
        <ele>872</ele>
        <time>2026-05-11T14:12:39Z</time>
      </trkpt>
      <trkpt lat="45.99261" lon="5.54203">
        <ele>872</ele>
        <time>2026-05-11T14:12:40Z</time>
      </trkpt>
      <trkpt lat="45.99257" lon="5.54203">
        <ele>872.4</ele>
        <time>2026-05-11T14:12:41Z</time>
      </trkpt>
      <trkpt lat="45.99254" lon="5.54203">
        <ele>873.2</ele>
        <time>2026-05-11T14:12:42Z</time>
      </trkpt>
      <trkpt lat="45.99251" lon="5.54203">
        <ele>873.4</ele>
        <time>2026-05-11T14:12:43Z</time>
      </trkpt>
      <trkpt lat="45.99247" lon="5.54202">
        <ele>873.4</ele>
        <time>2026-05-11T14:12:44Z</time>
      </trkpt>
      <trkpt lat="45.99244" lon="5.54201">
        <ele>873.4</ele>
        <time>2026-05-11T14:12:45Z</time>
      </trkpt>
      <trkpt lat="45.99241" lon="5.542">
        <ele>873.4</ele>
        <time>2026-05-11T14:12:46Z</time>
      </trkpt>
      <trkpt lat="45.99238" lon="5.54198">
        <ele>873.4</ele>
        <time>2026-05-11T14:12:47Z</time>
      </trkpt>
      <trkpt lat="45.99236" lon="5.54197">
        <ele>873.6</ele>
        <time>2026-05-11T14:12:48Z</time>
      </trkpt>
      <trkpt lat="45.99233" lon="5.54195">
        <ele>874</ele>
        <time>2026-05-11T14:12:49Z</time>
      </trkpt>
      <trkpt lat="45.9923" lon="5.54194">
        <ele>874.2</ele>
        <time>2026-05-11T14:12:50Z</time>
      </trkpt>
      <trkpt lat="45.99227" lon="5.54192">
        <ele>874.2</ele>
        <time>2026-05-11T14:12:51Z</time>
      </trkpt>
      <trkpt lat="45.99224" lon="5.5419">
        <ele>874.2</ele>
        <time>2026-05-11T14:12:52Z</time>
      </trkpt>
      <trkpt lat="45.99222" lon="5.54188">
        <ele>874.2</ele>
        <time>2026-05-11T14:12:53Z</time>
      </trkpt>
      <trkpt lat="45.99219" lon="5.54186">
        <ele>874.2</ele>
        <time>2026-05-11T14:12:54Z</time>
      </trkpt>
      <trkpt lat="45.99217" lon="5.54184">
        <ele>874.6</ele>
        <time>2026-05-11T14:12:55Z</time>
      </trkpt>
      <trkpt lat="45.99214" lon="5.54182">
        <ele>874</ele>
        <time>2026-05-11T14:12:56Z</time>
      </trkpt>
      <trkpt lat="45.99211" lon="5.5418">
        <ele>874.4</ele>
        <time>2026-05-11T14:12:57Z</time>
      </trkpt>
      <trkpt lat="45.99208" lon="5.54179">
        <ele>874.8</ele>
        <time>2026-05-11T14:12:58Z</time>
      </trkpt>
      <trkpt lat="45.99205" lon="5.54177">
        <ele>874.8</ele>
        <time>2026-05-11T14:12:59Z</time>
      </trkpt>
      <trkpt lat="45.99203" lon="5.54175">
        <ele>874.8</ele>
        <time>2026-05-11T14:13:00Z</time>
      </trkpt>
      <trkpt lat="45.99199" lon="5.54174">
        <ele>875.2</ele>
        <time>2026-05-11T14:13:01Z</time>
      </trkpt>
      <trkpt lat="45.99196" lon="5.54173">
        <ele>875.2</ele>
        <time>2026-05-11T14:13:02Z</time>
      </trkpt>
      <trkpt lat="45.99192" lon="5.54173">
        <ele>875.4</ele>
        <time>2026-05-11T14:13:03Z</time>
      </trkpt>
      <trkpt lat="45.99189" lon="5.54172">
        <ele>875</ele>
        <time>2026-05-11T14:13:04Z</time>
      </trkpt>
      <trkpt lat="45.99185" lon="5.54172">
        <ele>875.2</ele>
        <time>2026-05-11T14:13:05Z</time>
      </trkpt>
      <trkpt lat="45.99182" lon="5.54172">
        <ele>875.2</ele>
        <time>2026-05-11T14:13:06Z</time>
      </trkpt>
      <trkpt lat="45.99179" lon="5.54172">
        <ele>875.2</ele>
        <time>2026-05-11T14:13:07Z</time>
      </trkpt>
      <trkpt lat="45.99175" lon="5.54172">
        <ele>875.2</ele>
        <time>2026-05-11T14:13:08Z</time>
      </trkpt>
      <trkpt lat="45.99172" lon="5.54172">
        <ele>875.2</ele>
        <time>2026-05-11T14:13:09Z</time>
      </trkpt>
      <trkpt lat="45.99169" lon="5.54172">
        <ele>875.6</ele>
        <time>2026-05-11T14:13:10Z</time>
      </trkpt>
      <trkpt lat="45.99166" lon="5.54172">
        <ele>875.6</ele>
        <time>2026-05-11T14:13:11Z</time>
      </trkpt>
      <trkpt lat="45.99163" lon="5.54172">
        <ele>875.6</ele>
        <time>2026-05-11T14:13:12Z</time>
      </trkpt>
      <trkpt lat="45.99159" lon="5.54172">
        <ele>875.6</ele>
        <time>2026-05-11T14:13:13Z</time>
      </trkpt>
      <trkpt lat="45.99156" lon="5.54172">
        <ele>875.6</ele>
        <time>2026-05-11T14:13:14Z</time>
      </trkpt>
      <trkpt lat="45.99153" lon="5.54172">
        <ele>875.6</ele>
        <time>2026-05-11T14:13:15Z</time>
      </trkpt>
      <trkpt lat="45.99149" lon="5.54172">
        <ele>875.6</ele>
        <time>2026-05-11T14:13:16Z</time>
      </trkpt>
      <trkpt lat="45.99146" lon="5.54172">
        <ele>875.2</ele>
        <time>2026-05-11T14:13:17Z</time>
      </trkpt>
      <trkpt lat="45.99142" lon="5.54172">
        <ele>875.2</ele>
        <time>2026-05-11T14:13:18Z</time>
      </trkpt>
      <trkpt lat="45.99139" lon="5.54173">
        <ele>875.2</ele>
        <time>2026-05-11T14:13:19Z</time>
      </trkpt>
      <trkpt lat="45.99136" lon="5.54173">
        <ele>875.2</ele>
        <time>2026-05-11T14:13:20Z</time>
      </trkpt>
      <trkpt lat="45.99132" lon="5.54173">
        <ele>875.2</ele>
        <time>2026-05-11T14:13:21Z</time>
      </trkpt>
      <trkpt lat="45.99129" lon="5.54173">
        <ele>875.2</ele>
        <time>2026-05-11T14:13:22Z</time>
      </trkpt>
      <trkpt lat="45.99126" lon="5.54173">
        <ele>875.2</ele>
        <time>2026-05-11T14:13:23Z</time>
      </trkpt>
      <trkpt lat="45.99123" lon="5.54173">
        <ele>875.8</ele>
        <time>2026-05-11T14:13:24Z</time>
      </trkpt>
      <trkpt lat="45.99119" lon="5.54173">
        <ele>875.8</ele>
        <time>2026-05-11T14:13:25Z</time>
      </trkpt>
      <trkpt lat="45.99116" lon="5.54173">
        <ele>875.8</ele>
        <time>2026-05-11T14:13:26Z</time>
      </trkpt>
      <trkpt lat="45.99113" lon="5.54173">
        <ele>874.8</ele>
        <time>2026-05-11T14:13:27Z</time>
      </trkpt>
      <trkpt lat="45.9911" lon="5.54174">
        <ele>874.8</ele>
        <time>2026-05-11T14:13:28Z</time>
      </trkpt>
      <trkpt lat="45.99107" lon="5.54174">
        <ele>874.8</ele>
        <time>2026-05-11T14:13:29Z</time>
      </trkpt>
      <trkpt lat="45.99103" lon="5.54174">
        <ele>875.8</ele>
        <time>2026-05-11T14:13:30Z</time>
      </trkpt>
      <trkpt lat="45.991" lon="5.54174">
        <ele>876</ele>
        <time>2026-05-11T14:13:31Z</time>
      </trkpt>
      <trkpt lat="45.99097" lon="5.54174">
        <ele>876.4</ele>
        <time>2026-05-11T14:13:32Z</time>
      </trkpt>
      <trkpt lat="45.99095" lon="5.54175">
        <ele>876.6</ele>
        <time>2026-05-11T14:13:33Z</time>
      </trkpt>
      <trkpt lat="45.99093" lon="5.54175">
        <ele>876.6</ele>
        <time>2026-05-11T14:13:34Z</time>
      </trkpt>
      <trkpt lat="45.99091" lon="5.54175">
        <ele>876.8</ele>
        <time>2026-05-11T14:13:35Z</time>
      </trkpt>
      <trkpt lat="45.9909" lon="5.54175">
        <ele>877</ele>
        <time>2026-05-11T14:13:36Z</time>
      </trkpt>
      <trkpt lat="45.99088" lon="5.54175">
        <ele>877</ele>
        <time>2026-05-11T14:13:37Z</time>
      </trkpt>
      <trkpt lat="45.99086" lon="5.54174">
        <ele>877</ele>
        <time>2026-05-11T14:13:38Z</time>
      </trkpt>
      <trkpt lat="45.99084" lon="5.54174">
        <ele>877</ele>
        <time>2026-05-11T14:13:39Z</time>
      </trkpt>
      <trkpt lat="45.99081" lon="5.54173">
        <ele>877</ele>
        <time>2026-05-11T14:13:40Z</time>
      </trkpt>
      <trkpt lat="45.99078" lon="5.54173">
        <ele>877</ele>
        <time>2026-05-11T14:13:41Z</time>
      </trkpt>
      <trkpt lat="45.99076" lon="5.54173">
        <ele>877</ele>
        <time>2026-05-11T14:13:42Z</time>
      </trkpt>
      <trkpt lat="45.99072" lon="5.54172">
        <ele>877</ele>
        <time>2026-05-11T14:13:43Z</time>
      </trkpt>
      <trkpt lat="45.99069" lon="5.54171">
        <ele>877</ele>
        <time>2026-05-11T14:13:44Z</time>
      </trkpt>
      <trkpt lat="45.99066" lon="5.5417">
        <ele>877</ele>
        <time>2026-05-11T14:13:45Z</time>
      </trkpt>
      <trkpt lat="45.99063" lon="5.5417">
        <ele>877</ele>
        <time>2026-05-11T14:13:46Z</time>
      </trkpt>
      <trkpt lat="45.9906" lon="5.54169">
        <ele>877</ele>
        <time>2026-05-11T14:13:47Z</time>
      </trkpt>
      <trkpt lat="45.99056" lon="5.54169">
        <ele>877</ele>
        <time>2026-05-11T14:13:48Z</time>
      </trkpt>
      <trkpt lat="45.99053" lon="5.54168">
        <ele>877</ele>
        <time>2026-05-11T14:13:49Z</time>
      </trkpt>
      <trkpt lat="45.99049" lon="5.54168">
        <ele>877</ele>
        <time>2026-05-11T14:13:50Z</time>
      </trkpt>
      <trkpt lat="45.99045" lon="5.54167">
        <ele>876.8</ele>
        <time>2026-05-11T14:13:51Z</time>
      </trkpt>
      <trkpt lat="45.99041" lon="5.54167">
        <ele>876.6</ele>
        <time>2026-05-11T14:13:52Z</time>
      </trkpt>
      <trkpt lat="45.99041" lon="5.54167">
        <ele>876.4</ele>
        <time>2026-05-11T14:13:53Z</time>
      </trkpt>
      <trkpt lat="45.99037" lon="5.54167">
        <ele>876.4</ele>
        <time>2026-05-11T14:13:54Z</time>
      </trkpt>
      <trkpt lat="45.99034" lon="5.54167">
        <ele>876.4</ele>
        <time>2026-05-11T14:13:55Z</time>
      </trkpt>
      <trkpt lat="45.9903" lon="5.54167">
        <ele>876.4</ele>
        <time>2026-05-11T14:13:56Z</time>
      </trkpt>
      <trkpt lat="45.99026" lon="5.54166">
        <ele>876.6</ele>
        <time>2026-05-11T14:13:57Z</time>
      </trkpt>
      <trkpt lat="45.99022" lon="5.54166">
        <ele>876.6</ele>
        <time>2026-05-11T14:13:58Z</time>
      </trkpt>
      <trkpt lat="45.99018" lon="5.54166">
        <ele>876.6</ele>
        <time>2026-05-11T14:13:59Z</time>
      </trkpt>
      <trkpt lat="45.99014" lon="5.54167">
        <ele>877</ele>
        <time>2026-05-11T14:14:00Z</time>
      </trkpt>
      <trkpt lat="45.99011" lon="5.54167">
        <ele>877</ele>
        <time>2026-05-11T14:14:01Z</time>
      </trkpt>
      <trkpt lat="45.99007" lon="5.54166">
        <ele>877</ele>
        <time>2026-05-11T14:14:02Z</time>
      </trkpt>
      <trkpt lat="45.99003" lon="5.54166">
        <ele>877</ele>
        <time>2026-05-11T14:14:03Z</time>
      </trkpt>
      <trkpt lat="45.99" lon="5.54166">
        <ele>877.4</ele>
        <time>2026-05-11T14:14:04Z</time>
      </trkpt>
      <trkpt lat="45.98997" lon="5.54166">
        <ele>877.4</ele>
        <time>2026-05-11T14:14:05Z</time>
      </trkpt>
      <trkpt lat="45.98993" lon="5.54166">
        <ele>877.8</ele>
        <time>2026-05-11T14:14:06Z</time>
      </trkpt>
      <trkpt lat="45.9899" lon="5.54166">
        <ele>878.2</ele>
        <time>2026-05-11T14:14:07Z</time>
      </trkpt>
      <trkpt lat="45.98987" lon="5.54166">
        <ele>878.2</ele>
        <time>2026-05-11T14:14:08Z</time>
      </trkpt>
      <trkpt lat="45.98984" lon="5.54166">
        <ele>878.2</ele>
        <time>2026-05-11T14:14:09Z</time>
      </trkpt>
      <trkpt lat="45.98981" lon="5.54166">
        <ele>878.4</ele>
        <time>2026-05-11T14:14:10Z</time>
      </trkpt>
      <trkpt lat="45.98978" lon="5.54166">
        <ele>878.8</ele>
        <time>2026-05-11T14:14:11Z</time>
      </trkpt>
      <trkpt lat="45.98974" lon="5.54166">
        <ele>878.8</ele>
        <time>2026-05-11T14:14:12Z</time>
      </trkpt>
      <trkpt lat="45.98971" lon="5.54166">
        <ele>879.2</ele>
        <time>2026-05-11T14:14:13Z</time>
      </trkpt>
      <trkpt lat="45.98967" lon="5.54165">
        <ele>879.4</ele>
        <time>2026-05-11T14:14:14Z</time>
      </trkpt>
      <trkpt lat="45.98964" lon="5.54165">
        <ele>879.4</ele>
        <time>2026-05-11T14:14:15Z</time>
      </trkpt>
      <trkpt lat="45.9896" lon="5.54164">
        <ele>879.4</ele>
        <time>2026-05-11T14:14:16Z</time>
      </trkpt>
      <trkpt lat="45.98957" lon="5.54164">
        <ele>879.4</ele>
        <time>2026-05-11T14:14:17Z</time>
      </trkpt>
      <trkpt lat="45.98954" lon="5.54164">
        <ele>879.4</ele>
        <time>2026-05-11T14:14:18Z</time>
      </trkpt>
      <trkpt lat="45.9895" lon="5.54164">
        <ele>879.4</ele>
        <time>2026-05-11T14:14:19Z</time>
      </trkpt>
      <trkpt lat="45.98947" lon="5.54163">
        <ele>879.4</ele>
        <time>2026-05-11T14:14:20Z</time>
      </trkpt>
      <trkpt lat="45.98943" lon="5.54163">
        <ele>880</ele>
        <time>2026-05-11T14:14:21Z</time>
      </trkpt>
      <trkpt lat="45.9894" lon="5.54163">
        <ele>880.2</ele>
        <time>2026-05-11T14:14:22Z</time>
      </trkpt>
      <trkpt lat="45.98937" lon="5.54162">
        <ele>880.2</ele>
        <time>2026-05-11T14:14:23Z</time>
      </trkpt>
      <trkpt lat="45.98933" lon="5.54162">
        <ele>880.2</ele>
        <time>2026-05-11T14:14:24Z</time>
      </trkpt>
      <trkpt lat="45.9893" lon="5.54161">
        <ele>880.2</ele>
        <time>2026-05-11T14:14:25Z</time>
      </trkpt>
      <trkpt lat="45.98927" lon="5.54161">
        <ele>880.2</ele>
        <time>2026-05-11T14:14:26Z</time>
      </trkpt>
      <trkpt lat="45.98923" lon="5.54161">
        <ele>880.2</ele>
        <time>2026-05-11T14:14:27Z</time>
      </trkpt>
      <trkpt lat="45.9892" lon="5.54161">
        <ele>880.2</ele>
        <time>2026-05-11T14:14:28Z</time>
      </trkpt>
      <trkpt lat="45.98916" lon="5.5416">
        <ele>880</ele>
        <time>2026-05-11T14:14:29Z</time>
      </trkpt>
      <trkpt lat="45.98913" lon="5.5416">
        <ele>879.6</ele>
        <time>2026-05-11T14:14:30Z</time>
      </trkpt>
      <trkpt lat="45.9891" lon="5.5416">
        <ele>879.6</ele>
        <time>2026-05-11T14:14:31Z</time>
      </trkpt>
      <trkpt lat="45.98907" lon="5.54159">
        <ele>879.6</ele>
        <time>2026-05-11T14:14:32Z</time>
      </trkpt>
      <trkpt lat="45.989" lon="5.54159">
        <ele>879.8</ele>
        <time>2026-05-11T14:14:33Z</time>
      </trkpt>
      <trkpt lat="45.98897" lon="5.54158">
        <ele>879.8</ele>
        <time>2026-05-11T14:14:34Z</time>
      </trkpt>
      <trkpt lat="45.98894" lon="5.54158">
        <ele>879.8</ele>
        <time>2026-05-11T14:14:35Z</time>
      </trkpt>
      <trkpt lat="45.98891" lon="5.54157">
        <ele>879.8</ele>
        <time>2026-05-11T14:14:36Z</time>
      </trkpt>
      <trkpt lat="45.98888" lon="5.54157">
        <ele>879.8</ele>
        <time>2026-05-11T14:14:37Z</time>
      </trkpt>
      <trkpt lat="45.98885" lon="5.54157">
        <ele>880.2</ele>
        <time>2026-05-11T14:14:38Z</time>
      </trkpt>
      <trkpt lat="45.98882" lon="5.54157">
        <ele>880.2</ele>
        <time>2026-05-11T14:14:39Z</time>
      </trkpt>
      <trkpt lat="45.98879" lon="5.54156">
        <ele>880.2</ele>
        <time>2026-05-11T14:14:40Z</time>
      </trkpt>
      <trkpt lat="45.98876" lon="5.54156">
        <ele>880.2</ele>
        <time>2026-05-11T14:14:41Z</time>
      </trkpt>
      <trkpt lat="45.98873" lon="5.54156">
        <ele>880.4</ele>
        <time>2026-05-11T14:14:42Z</time>
      </trkpt>
      <trkpt lat="45.9887" lon="5.54155">
        <ele>880.8</ele>
        <time>2026-05-11T14:14:43Z</time>
      </trkpt>
      <trkpt lat="45.98867" lon="5.54155">
        <ele>880.8</ele>
        <time>2026-05-11T14:14:44Z</time>
      </trkpt>
      <trkpt lat="45.98864" lon="5.54155">
        <ele>881.2</ele>
        <time>2026-05-11T14:14:45Z</time>
      </trkpt>
      <trkpt lat="45.98861" lon="5.54154">
        <ele>881.2</ele>
        <time>2026-05-11T14:14:46Z</time>
      </trkpt>
      <trkpt lat="45.98858" lon="5.54154">
        <ele>881.6</ele>
        <time>2026-05-11T14:14:47Z</time>
      </trkpt>
      <trkpt lat="45.98856" lon="5.54153">
        <ele>881.6</ele>
        <time>2026-05-11T14:14:48Z</time>
      </trkpt>
      <trkpt lat="45.98853" lon="5.54153">
        <ele>881.6</ele>
        <time>2026-05-11T14:14:49Z</time>
      </trkpt>
      <trkpt lat="45.9885" lon="5.54153">
        <ele>881.6</ele>
        <time>2026-05-11T14:14:50Z</time>
      </trkpt>
      <trkpt lat="45.98847" lon="5.54153">
        <ele>882</ele>
        <time>2026-05-11T14:14:51Z</time>
      </trkpt>
      <trkpt lat="45.98845" lon="5.54152">
        <ele>882.4</ele>
        <time>2026-05-11T14:14:52Z</time>
      </trkpt>
      <trkpt lat="45.98842" lon="5.54152">
        <ele>882.6</ele>
        <time>2026-05-11T14:14:53Z</time>
      </trkpt>
      <trkpt lat="45.9884" lon="5.54152">
        <ele>882.6</ele>
        <time>2026-05-11T14:14:54Z</time>
      </trkpt>
      <trkpt lat="45.98837" lon="5.54151">
        <ele>883</ele>
        <time>2026-05-11T14:14:55Z</time>
      </trkpt>
      <trkpt lat="45.98834" lon="5.54151">
        <ele>883</ele>
        <time>2026-05-11T14:14:56Z</time>
      </trkpt>
      <trkpt lat="45.98832" lon="5.54151">
        <ele>883.4</ele>
        <time>2026-05-11T14:14:57Z</time>
      </trkpt>
      <trkpt lat="45.98829" lon="5.5415">
        <ele>883.4</ele>
        <time>2026-05-11T14:14:58Z</time>
      </trkpt>
      <trkpt lat="45.98827" lon="5.5415">
        <ele>883.8</ele>
        <time>2026-05-11T14:14:59Z</time>
      </trkpt>
      <trkpt lat="45.98825" lon="5.54149">
        <ele>884.2</ele>
        <time>2026-05-11T14:15:00Z</time>
      </trkpt>
      <trkpt lat="45.98822" lon="5.54148">
        <ele>884.2</ele>
        <time>2026-05-11T14:15:01Z</time>
      </trkpt>
      <trkpt lat="45.9882" lon="5.54148">
        <ele>884.4</ele>
        <time>2026-05-11T14:15:02Z</time>
      </trkpt>
      <trkpt lat="45.98817" lon="5.54148">
        <ele>884.4</ele>
        <time>2026-05-11T14:15:03Z</time>
      </trkpt>
      <trkpt lat="45.98815" lon="5.54148">
        <ele>884.4</ele>
        <time>2026-05-11T14:15:04Z</time>
      </trkpt>
      <trkpt lat="45.98812" lon="5.54149">
        <ele>884.8</ele>
        <time>2026-05-11T14:15:05Z</time>
      </trkpt>
      <trkpt lat="45.98809" lon="5.54148">
        <ele>884.8</ele>
        <time>2026-05-11T14:15:06Z</time>
      </trkpt>
      <trkpt lat="45.98807" lon="5.54148">
        <ele>884.8</ele>
        <time>2026-05-11T14:15:07Z</time>
      </trkpt>
      <trkpt lat="45.98804" lon="5.54148">
        <ele>885</ele>
        <time>2026-05-11T14:15:08Z</time>
      </trkpt>
      <trkpt lat="45.98801" lon="5.54147">
        <ele>885</ele>
        <time>2026-05-11T14:15:09Z</time>
      </trkpt>
      <trkpt lat="45.98798" lon="5.54147">
        <ele>885</ele>
        <time>2026-05-11T14:15:10Z</time>
      </trkpt>
      <trkpt lat="45.98796" lon="5.54147">
        <ele>885</ele>
        <time>2026-05-11T14:15:11Z</time>
      </trkpt>
      <trkpt lat="45.98793" lon="5.54148">
        <ele>885</ele>
        <time>2026-05-11T14:15:12Z</time>
      </trkpt>
      <trkpt lat="45.9879" lon="5.54148">
        <ele>885</ele>
        <time>2026-05-11T14:15:13Z</time>
      </trkpt>
      <trkpt lat="45.98787" lon="5.54149">
        <ele>885.2</ele>
        <time>2026-05-11T14:15:14Z</time>
      </trkpt>
      <trkpt lat="45.98784" lon="5.5415">
        <ele>885.2</ele>
        <time>2026-05-11T14:15:15Z</time>
      </trkpt>
      <trkpt lat="45.98782" lon="5.54151">
        <ele>885.6</ele>
        <time>2026-05-11T14:15:16Z</time>
      </trkpt>
      <trkpt lat="45.98779" lon="5.54152">
        <ele>885.6</ele>
        <time>2026-05-11T14:15:17Z</time>
      </trkpt>
      <trkpt lat="45.98776" lon="5.54154">
        <ele>885.8</ele>
        <time>2026-05-11T14:15:18Z</time>
      </trkpt>
      <trkpt lat="45.98773" lon="5.54155">
        <ele>885.8</ele>
        <time>2026-05-11T14:15:19Z</time>
      </trkpt>
      <trkpt lat="45.9877" lon="5.54157">
        <ele>885.8</ele>
        <time>2026-05-11T14:15:20Z</time>
      </trkpt>
      <trkpt lat="45.98768" lon="5.54158">
        <ele>885.8</ele>
        <time>2026-05-11T14:15:21Z</time>
      </trkpt>
      <trkpt lat="45.98765" lon="5.54159">
        <ele>885.8</ele>
        <time>2026-05-11T14:15:22Z</time>
      </trkpt>
      <trkpt lat="45.98761" lon="5.54161">
        <ele>885.8</ele>
        <time>2026-05-11T14:15:23Z</time>
      </trkpt>
      <trkpt lat="45.98758" lon="5.54163">
        <ele>885.8</ele>
        <time>2026-05-11T14:15:24Z</time>
      </trkpt>
      <trkpt lat="45.98755" lon="5.54164">
        <ele>885.8</ele>
        <time>2026-05-11T14:15:25Z</time>
      </trkpt>
      <trkpt lat="45.98752" lon="5.54165">
        <ele>885.8</ele>
        <time>2026-05-11T14:15:26Z</time>
      </trkpt>
      <trkpt lat="45.98748" lon="5.54166">
        <ele>885.8</ele>
        <time>2026-05-11T14:15:27Z</time>
      </trkpt>
      <trkpt lat="45.98745" lon="5.54167">
        <ele>885.8</ele>
        <time>2026-05-11T14:15:28Z</time>
      </trkpt>
      <trkpt lat="45.98742" lon="5.54168">
        <ele>885.8</ele>
        <time>2026-05-11T14:15:29Z</time>
      </trkpt>
      <trkpt lat="45.98739" lon="5.54168">
        <ele>885.8</ele>
        <time>2026-05-11T14:15:30Z</time>
      </trkpt>
      <trkpt lat="45.98736" lon="5.54168">
        <ele>885.8</ele>
        <time>2026-05-11T14:15:31Z</time>
      </trkpt>
      <trkpt lat="45.98732" lon="5.54169">
        <ele>885.8</ele>
        <time>2026-05-11T14:15:32Z</time>
      </trkpt>
      <trkpt lat="45.98728" lon="5.54169">
        <ele>885.8</ele>
        <time>2026-05-11T14:15:33Z</time>
      </trkpt>
      <trkpt lat="45.98724" lon="5.54169">
        <ele>885.8</ele>
        <time>2026-05-11T14:15:34Z</time>
      </trkpt>
      <trkpt lat="45.9872" lon="5.5417">
        <ele>885.2</ele>
        <time>2026-05-11T14:15:35Z</time>
      </trkpt>
      <trkpt lat="45.98716" lon="5.5417">
        <ele>885.2</ele>
        <time>2026-05-11T14:15:36Z</time>
      </trkpt>
      <trkpt lat="45.98711" lon="5.54171">
        <ele>884.8</ele>
        <time>2026-05-11T14:15:37Z</time>
      </trkpt>
      <trkpt lat="45.98707" lon="5.54172">
        <ele>884.4</ele>
        <time>2026-05-11T14:15:38Z</time>
      </trkpt>
      <trkpt lat="45.98702" lon="5.54173">
        <ele>884.4</ele>
        <time>2026-05-11T14:15:39Z</time>
      </trkpt>
      <trkpt lat="45.98697" lon="5.54174">
        <ele>884</ele>
        <time>2026-05-11T14:15:40Z</time>
      </trkpt>
      <trkpt lat="45.98692" lon="5.54175">
        <ele>883.4</ele>
        <time>2026-05-11T14:15:41Z</time>
      </trkpt>
      <trkpt lat="45.98686" lon="5.54177">
        <ele>883</ele>
        <time>2026-05-11T14:15:42Z</time>
      </trkpt>
      <trkpt lat="45.98681" lon="5.54179">
        <ele>883</ele>
        <time>2026-05-11T14:15:43Z</time>
      </trkpt>
      <trkpt lat="45.98675" lon="5.54182">
        <ele>882.8</ele>
        <time>2026-05-11T14:15:44Z</time>
      </trkpt>
      <trkpt lat="45.9867" lon="5.54184">
        <ele>882</ele>
        <time>2026-05-11T14:15:45Z</time>
      </trkpt>
      <trkpt lat="45.98664" lon="5.54187">
        <ele>881.4</ele>
        <time>2026-05-11T14:15:46Z</time>
      </trkpt>
      <trkpt lat="45.9866" lon="5.54191">
        <ele>881</ele>
        <time>2026-05-11T14:15:47Z</time>
      </trkpt>
      <trkpt lat="45.98654" lon="5.54193">
        <ele>880.6</ele>
        <time>2026-05-11T14:15:48Z</time>
      </trkpt>
      <trkpt lat="45.98648" lon="5.54196">
        <ele>879.8</ele>
        <time>2026-05-11T14:15:49Z</time>
      </trkpt>
      <trkpt lat="45.98643" lon="5.54199">
        <ele>879.8</ele>
        <time>2026-05-11T14:15:50Z</time>
      </trkpt>
      <trkpt lat="45.98638" lon="5.54201">
        <ele>879.8</ele>
        <time>2026-05-11T14:15:51Z</time>
      </trkpt>
      <trkpt lat="45.98632" lon="5.54202">
        <ele>879.8</ele>
        <time>2026-05-11T14:15:52Z</time>
      </trkpt>
      <trkpt lat="45.98626" lon="5.54204">
        <ele>879.8</ele>
        <time>2026-05-11T14:15:53Z</time>
      </trkpt>
      <trkpt lat="45.98621" lon="5.54204">
        <ele>879.4</ele>
        <time>2026-05-11T14:15:54Z</time>
      </trkpt>
      <trkpt lat="45.98615" lon="5.54206">
        <ele>879.2</ele>
        <time>2026-05-11T14:15:55Z</time>
      </trkpt>
      <trkpt lat="45.98609" lon="5.54206">
        <ele>879</ele>
        <time>2026-05-11T14:15:56Z</time>
      </trkpt>
      <trkpt lat="45.98604" lon="5.54207">
        <ele>879.4</ele>
        <time>2026-05-11T14:15:57Z</time>
      </trkpt>
      <trkpt lat="45.98598" lon="5.54208">
        <ele>879.4</ele>
        <time>2026-05-11T14:15:58Z</time>
      </trkpt>
      <trkpt lat="45.98593" lon="5.5421">
        <ele>879.4</ele>
        <time>2026-05-11T14:15:59Z</time>
      </trkpt>
      <trkpt lat="45.98588" lon="5.54213">
        <ele>879.6</ele>
        <time>2026-05-11T14:16:00Z</time>
      </trkpt>
      <trkpt lat="45.98583" lon="5.54215">
        <ele>879.2</ele>
        <time>2026-05-11T14:16:01Z</time>
      </trkpt>
      <trkpt lat="45.98578" lon="5.54218">
        <ele>878.8</ele>
        <time>2026-05-11T14:16:02Z</time>
      </trkpt>
      <trkpt lat="45.98573" lon="5.54221">
        <ele>878.6</ele>
        <time>2026-05-11T14:16:03Z</time>
      </trkpt>
      <trkpt lat="45.98569" lon="5.54225">
        <ele>878.6</ele>
        <time>2026-05-11T14:16:04Z</time>
      </trkpt>
      <trkpt lat="45.98564" lon="5.54229">
        <ele>878.2</ele>
        <time>2026-05-11T14:16:05Z</time>
      </trkpt>
      <trkpt lat="45.98559" lon="5.54233">
        <ele>878.2</ele>
        <time>2026-05-11T14:16:06Z</time>
      </trkpt>
      <trkpt lat="45.98555" lon="5.54237">
        <ele>878.2</ele>
        <time>2026-05-11T14:16:07Z</time>
      </trkpt>
      <trkpt lat="45.9855" lon="5.54241">
        <ele>877.8</ele>
        <time>2026-05-11T14:16:08Z</time>
      </trkpt>
      <trkpt lat="45.98546" lon="5.54245">
        <ele>877.2</ele>
        <time>2026-05-11T14:16:09Z</time>
      </trkpt>
      <trkpt lat="45.98541" lon="5.54249">
        <ele>877.2</ele>
        <time>2026-05-11T14:16:10Z</time>
      </trkpt>
      <trkpt lat="45.98537" lon="5.54252">
        <ele>877.2</ele>
        <time>2026-05-11T14:16:11Z</time>
      </trkpt>
      <trkpt lat="45.98532" lon="5.54256">
        <ele>877.2</ele>
        <time>2026-05-11T14:16:12Z</time>
      </trkpt>
      <trkpt lat="45.98528" lon="5.5426">
        <ele>877.2</ele>
        <time>2026-05-11T14:16:13Z</time>
      </trkpt>
      <trkpt lat="45.98524" lon="5.54264">
        <ele>877.2</ele>
        <time>2026-05-11T14:16:14Z</time>
      </trkpt>
      <trkpt lat="45.9852" lon="5.54268">
        <ele>877.2</ele>
        <time>2026-05-11T14:16:15Z</time>
      </trkpt>
      <trkpt lat="45.98516" lon="5.54272">
        <ele>876.8</ele>
        <time>2026-05-11T14:16:16Z</time>
      </trkpt>
      <trkpt lat="45.98512" lon="5.54275">
        <ele>876.4</ele>
        <time>2026-05-11T14:16:17Z</time>
      </trkpt>
      <trkpt lat="45.98508" lon="5.54279">
        <ele>876.2</ele>
        <time>2026-05-11T14:16:18Z</time>
      </trkpt>
      <trkpt lat="45.98504" lon="5.54283">
        <ele>876.2</ele>
        <time>2026-05-11T14:16:19Z</time>
      </trkpt>
      <trkpt lat="45.98501" lon="5.54286">
        <ele>876.2</ele>
        <time>2026-05-11T14:16:20Z</time>
      </trkpt>
      <trkpt lat="45.98497" lon="5.5429">
        <ele>876.6</ele>
        <time>2026-05-11T14:16:21Z</time>
      </trkpt>
      <trkpt lat="45.98494" lon="5.54295">
        <ele>876.6</ele>
        <time>2026-05-11T14:16:22Z</time>
      </trkpt>
      <trkpt lat="45.98491" lon="5.54299">
        <ele>876.6</ele>
        <time>2026-05-11T14:16:23Z</time>
      </trkpt>
      <trkpt lat="45.98487" lon="5.54304">
        <ele>876.4</ele>
        <time>2026-05-11T14:16:24Z</time>
      </trkpt>
      <trkpt lat="45.98484" lon="5.54309">
        <ele>876.4</ele>
        <time>2026-05-11T14:16:25Z</time>
      </trkpt>
      <trkpt lat="45.98481" lon="5.54314">
        <ele>876.4</ele>
        <time>2026-05-11T14:16:26Z</time>
      </trkpt>
      <trkpt lat="45.98478" lon="5.54319">
        <ele>876.4</ele>
        <time>2026-05-11T14:16:27Z</time>
      </trkpt>
      <trkpt lat="45.98476" lon="5.54325">
        <ele>876</ele>
        <time>2026-05-11T14:16:28Z</time>
      </trkpt>
      <trkpt lat="45.98474" lon="5.54332">
        <ele>875.4</ele>
        <time>2026-05-11T14:16:29Z</time>
      </trkpt>
      <trkpt lat="45.98471" lon="5.54338">
        <ele>875.2</ele>
        <time>2026-05-11T14:16:30Z</time>
      </trkpt>
      <trkpt lat="45.98469" lon="5.54345">
        <ele>874.6</ele>
        <time>2026-05-11T14:16:31Z</time>
      </trkpt>
      <trkpt lat="45.98467" lon="5.54352">
        <ele>874</ele>
        <time>2026-05-11T14:16:32Z</time>
      </trkpt>
      <trkpt lat="45.98463" lon="5.54358">
        <ele>873.8</ele>
        <time>2026-05-11T14:16:33Z</time>
      </trkpt>
      <trkpt lat="45.9846" lon="5.54364">
        <ele>873.8</ele>
        <time>2026-05-11T14:16:34Z</time>
      </trkpt>
      <trkpt lat="45.98456" lon="5.54369">
        <ele>873.4</ele>
        <time>2026-05-11T14:16:35Z</time>
      </trkpt>
      <trkpt lat="45.98452" lon="5.54374">
        <ele>873.4</ele>
        <time>2026-05-11T14:16:36Z</time>
      </trkpt>
      <trkpt lat="45.98448" lon="5.54378">
        <ele>873.4</ele>
        <time>2026-05-11T14:16:37Z</time>
      </trkpt>
      <trkpt lat="45.98444" lon="5.54381">
        <ele>873.6</ele>
        <time>2026-05-11T14:16:38Z</time>
      </trkpt>
      <trkpt lat="45.9844" lon="5.54384">
        <ele>873.6</ele>
        <time>2026-05-11T14:16:39Z</time>
      </trkpt>
      <trkpt lat="45.98437" lon="5.54386">
        <ele>873.6</ele>
        <time>2026-05-11T14:16:40Z</time>
      </trkpt>
      <trkpt lat="45.98434" lon="5.54387">
        <ele>873.6</ele>
        <time>2026-05-11T14:16:41Z</time>
      </trkpt>
      <trkpt lat="45.98431" lon="5.54389">
        <ele>873.6</ele>
        <time>2026-05-11T14:16:42Z</time>
      </trkpt>
      <trkpt lat="45.98427" lon="5.5439">
        <ele>873.6</ele>
        <time>2026-05-11T14:16:43Z</time>
      </trkpt>
      <trkpt lat="45.98424" lon="5.54391">
        <ele>873.6</ele>
        <time>2026-05-11T14:16:44Z</time>
      </trkpt>
      <trkpt lat="45.98421" lon="5.54392">
        <ele>873.6</ele>
        <time>2026-05-11T14:16:45Z</time>
      </trkpt>
      <trkpt lat="45.98419" lon="5.54392">
        <ele>873.6</ele>
        <time>2026-05-11T14:16:46Z</time>
      </trkpt>
      <trkpt lat="45.98418" lon="5.54394">
        <ele>873.6</ele>
        <time>2026-05-11T14:16:47Z</time>
      </trkpt>
      <trkpt lat="45.98418" lon="5.54395">
        <ele>873.6</ele>
        <time>2026-05-11T14:16:48Z</time>
      </trkpt>
      <trkpt lat="45.98418" lon="5.54396">
        <ele>872.8</ele>
        <time>2026-05-11T14:16:49Z</time>
      </trkpt>
      <trkpt lat="45.98417" lon="5.54395">
        <ele>873.4</ele>
        <time>2026-05-11T14:16:50Z</time>
      </trkpt>
      <trkpt lat="45.98415" lon="5.54396">
        <ele>873.6</ele>
        <time>2026-05-11T14:17:09Z</time>
      </trkpt>
      <trkpt lat="45.98415" lon="5.54397">
        <ele>873.6</ele>
        <time>2026-05-11T14:17:10Z</time>
      </trkpt>
      <trkpt lat="45.98415" lon="5.54398">
        <ele>873.6</ele>
        <time>2026-05-11T14:17:11Z</time>
      </trkpt>
      <trkpt lat="45.98417" lon="5.544">
        <ele>873.4</ele>
        <time>2026-05-11T14:17:47Z</time>
      </trkpt>
      <trkpt lat="45.98418" lon="5.54402">
        <ele>873.4</ele>
        <time>2026-05-11T14:17:48Z</time>
      </trkpt>
      <trkpt lat="45.98419" lon="5.54405">
        <ele>873</ele>
        <time>2026-05-11T14:17:49Z</time>
      </trkpt>
      <trkpt lat="45.9842" lon="5.54407">
        <ele>873</ele>
        <time>2026-05-11T14:17:50Z</time>
      </trkpt>
      <trkpt lat="45.98422" lon="5.54409">
        <ele>873.2</ele>
        <time>2026-05-11T14:17:51Z</time>
      </trkpt>
      <trkpt lat="45.98424" lon="5.54411">
        <ele>873</ele>
        <time>2026-05-11T14:17:52Z</time>
      </trkpt>
      <trkpt lat="45.98426" lon="5.54413">
        <ele>873</ele>
        <time>2026-05-11T14:17:53Z</time>
      </trkpt>
      <trkpt lat="45.98428" lon="5.54416">
        <ele>873</ele>
        <time>2026-05-11T14:17:54Z</time>
      </trkpt>
      <trkpt lat="45.9843" lon="5.54418">
        <ele>872.8</ele>
        <time>2026-05-11T14:17:55Z</time>
      </trkpt>
      <trkpt lat="45.98432" lon="5.5442">
        <ele>872.8</ele>
        <time>2026-05-11T14:17:56Z</time>
      </trkpt>
      <trkpt lat="45.98433" lon="5.54422">
        <ele>872.8</ele>
        <time>2026-05-11T14:17:57Z</time>
      </trkpt>
      <trkpt lat="45.98435" lon="5.54424">
        <ele>873.2</ele>
        <time>2026-05-11T14:17:58Z</time>
      </trkpt>
      <trkpt lat="45.98437" lon="5.54426">
        <ele>873.2</ele>
        <time>2026-05-11T14:17:59Z</time>
      </trkpt>
      <trkpt lat="45.98439" lon="5.54428">
        <ele>873.2</ele>
        <time>2026-05-11T14:18:00Z</time>
      </trkpt>
      <trkpt lat="45.98442" lon="5.54431">
        <ele>873.6</ele>
        <time>2026-05-11T14:18:01Z</time>
      </trkpt>
      <trkpt lat="45.98444" lon="5.54433">
        <ele>873.6</ele>
        <time>2026-05-11T14:18:02Z</time>
      </trkpt>
      <trkpt lat="45.98446" lon="5.54435">
        <ele>873.6</ele>
        <time>2026-05-11T14:18:03Z</time>
      </trkpt>
      <trkpt lat="45.98449" lon="5.54437">
        <ele>873.6</ele>
        <time>2026-05-11T14:18:04Z</time>
      </trkpt>
      <trkpt lat="45.98451" lon="5.54438">
        <ele>873.6</ele>
        <time>2026-05-11T14:18:05Z</time>
      </trkpt>
      <trkpt lat="45.98454" lon="5.54439">
        <ele>873.6</ele>
        <time>2026-05-11T14:18:06Z</time>
      </trkpt>
      <trkpt lat="45.98456" lon="5.5444">
        <ele>873.6</ele>
        <time>2026-05-11T14:18:07Z</time>
      </trkpt>
      <trkpt lat="45.98458" lon="5.54441">
        <ele>873.6</ele>
        <time>2026-05-11T14:18:08Z</time>
      </trkpt>
      <trkpt lat="45.98461" lon="5.54442">
        <ele>873.6</ele>
        <time>2026-05-11T14:18:09Z</time>
      </trkpt>
      <trkpt lat="45.98463" lon="5.54443">
        <ele>873.6</ele>
        <time>2026-05-11T14:18:10Z</time>
      </trkpt>
      <trkpt lat="45.98465" lon="5.54444">
        <ele>873.2</ele>
        <time>2026-05-11T14:18:11Z</time>
      </trkpt>
      <trkpt lat="45.98467" lon="5.54444">
        <ele>873.2</ele>
        <time>2026-05-11T14:18:12Z</time>
      </trkpt>
      <trkpt lat="45.98469" lon="5.54444">
        <ele>873.2</ele>
        <time>2026-05-11T14:18:13Z</time>
      </trkpt>
      <trkpt lat="45.9847" lon="5.54445">
        <ele>873.2</ele>
        <time>2026-05-11T14:18:14Z</time>
      </trkpt>
      <trkpt lat="45.98471" lon="5.54445">
        <ele>873.2</ele>
        <time>2026-05-11T14:18:15Z</time>
      </trkpt>
      <trkpt lat="45.98471" lon="5.54445">
        <ele>873.2</ele>
        <time>2026-05-11T14:18:16Z</time>
      </trkpt>
      <trkpt lat="45.9847" lon="5.54447">
        <ele>874.2</ele>
        <time>2026-05-11T14:19:18Z</time>
      </trkpt>
      <trkpt lat="45.98472" lon="5.54448">
        <ele>874.4</ele>
        <time>2026-05-11T14:19:19Z</time>
      </trkpt>
      <trkpt lat="45.98473" lon="5.54449">
        <ele>874.4</ele>
        <time>2026-05-11T14:19:20Z</time>
      </trkpt>
      <trkpt lat="45.98474" lon="5.5445">
        <ele>874.4</ele>
        <time>2026-05-11T14:19:21Z</time>
      </trkpt>
      <trkpt lat="45.98475" lon="5.5445">
        <ele>874.4</ele>
        <time>2026-05-11T14:19:22Z</time>
      </trkpt>
      <trkpt lat="45.98476" lon="5.54451">
        <ele>874.8</ele>
        <time>2026-05-11T14:19:23Z</time>
      </trkpt>
      <trkpt lat="45.98478" lon="5.54452">
        <ele>874.2</ele>
        <time>2026-05-11T14:19:24Z</time>
      </trkpt>
      <trkpt lat="45.98479" lon="5.54452">
        <ele>875</ele>
        <time>2026-05-11T14:19:25Z</time>
      </trkpt>
      <trkpt lat="45.98481" lon="5.54452">
        <ele>875.2</ele>
        <time>2026-05-11T14:19:26Z</time>
      </trkpt>
      <trkpt lat="45.98482" lon="5.54452">
        <ele>875</ele>
        <time>2026-05-11T14:19:27Z</time>
      </trkpt>
      <trkpt lat="45.98483" lon="5.54452">
        <ele>874.8</ele>
        <time>2026-05-11T14:19:28Z</time>
      </trkpt>
      <trkpt lat="45.98485" lon="5.54452">
        <ele>874.8</ele>
        <time>2026-05-11T14:19:29Z</time>
      </trkpt>
      <trkpt lat="45.98487" lon="5.54452">
        <ele>874.8</ele>
        <time>2026-05-11T14:19:30Z</time>
      </trkpt>
      <trkpt lat="45.98488" lon="5.54452">
        <ele>874.8</ele>
        <time>2026-05-11T14:19:31Z</time>
      </trkpt>
      <trkpt lat="45.9849" lon="5.54452">
        <ele>874.8</ele>
        <time>2026-05-11T14:19:32Z</time>
      </trkpt>
      <trkpt lat="45.98492" lon="5.54452">
        <ele>874.4</ele>
        <time>2026-05-11T14:19:33Z</time>
      </trkpt>
      <trkpt lat="45.98492" lon="5.54452">
        <ele>874.4</ele>
        <time>2026-05-11T14:19:34Z</time>
      </trkpt>
      <trkpt lat="45.98492" lon="5.54452">
        <ele>874.4</ele>
        <time>2026-05-11T14:19:35Z</time>
      </trkpt>
      <trkpt lat="45.98494" lon="5.54454">
        <ele>874.2</ele>
        <time>2026-05-11T14:20:06Z</time>
      </trkpt>
      <trkpt lat="45.98496" lon="5.54455">
        <ele>874.2</ele>
        <time>2026-05-11T14:20:07Z</time>
      </trkpt>
      <trkpt lat="45.98498" lon="5.54456">
        <ele>874.2</ele>
        <time>2026-05-11T14:20:08Z</time>
      </trkpt>
      <trkpt lat="45.98503" lon="5.54457">
        <ele>874.2</ele>
        <time>2026-05-11T14:20:09Z</time>
      </trkpt>
      <trkpt lat="45.98505" lon="5.54457">
        <ele>874.2</ele>
        <time>2026-05-11T14:20:10Z</time>
      </trkpt>
      <trkpt lat="45.98507" lon="5.54458">
        <ele>873.6</ele>
        <time>2026-05-11T14:20:11Z</time>
      </trkpt>
      <trkpt lat="45.98509" lon="5.54459">
        <ele>873.6</ele>
        <time>2026-05-11T14:20:12Z</time>
      </trkpt>
      <trkpt lat="45.98512" lon="5.54459">
        <ele>873.8</ele>
        <time>2026-05-11T14:20:13Z</time>
      </trkpt>
      <trkpt lat="45.98514" lon="5.5446">
        <ele>873.8</ele>
        <time>2026-05-11T14:20:14Z</time>
      </trkpt>
      <trkpt lat="45.98517" lon="5.54461">
        <ele>873.8</ele>
        <time>2026-05-11T14:20:15Z</time>
      </trkpt>
      <trkpt lat="45.9852" lon="5.54463">
        <ele>873.8</ele>
        <time>2026-05-11T14:20:16Z</time>
      </trkpt>
      <trkpt lat="45.98522" lon="5.54464">
        <ele>873.6</ele>
        <time>2026-05-11T14:20:17Z</time>
      </trkpt>
      <trkpt lat="45.98525" lon="5.54466">
        <ele>873.6</ele>
        <time>2026-05-11T14:20:18Z</time>
      </trkpt>
      <trkpt lat="45.98527" lon="5.54467">
        <ele>873.6</ele>
        <time>2026-05-11T14:20:19Z</time>
      </trkpt>
      <trkpt lat="45.9853" lon="5.54469">
        <ele>873.6</ele>
        <time>2026-05-11T14:20:20Z</time>
      </trkpt>
      <trkpt lat="45.98533" lon="5.5447">
        <ele>873.6</ele>
        <time>2026-05-11T14:20:21Z</time>
      </trkpt>
      <trkpt lat="45.98535" lon="5.54472">
        <ele>873.6</ele>
        <time>2026-05-11T14:20:22Z</time>
      </trkpt>
      <trkpt lat="45.98538" lon="5.54472">
        <ele>873.6</ele>
        <time>2026-05-11T14:20:23Z</time>
      </trkpt>
      <trkpt lat="45.9854" lon="5.54473">
        <ele>873.6</ele>
        <time>2026-05-11T14:20:24Z</time>
      </trkpt>
      <trkpt lat="45.98543" lon="5.54474">
        <ele>873.6</ele>
        <time>2026-05-11T14:20:25Z</time>
      </trkpt>
      <trkpt lat="45.98544" lon="5.54474">
        <ele>873.6</ele>
        <time>2026-05-11T14:20:26Z</time>
      </trkpt>
      <trkpt lat="45.98546" lon="5.54475">
        <ele>873.6</ele>
        <time>2026-05-11T14:20:27Z</time>
      </trkpt>
      <trkpt lat="45.98548" lon="5.54475">
        <ele>873.6</ele>
        <time>2026-05-11T14:20:28Z</time>
      </trkpt>
      <trkpt lat="45.98549" lon="5.54475">
        <ele>873.6</ele>
        <time>2026-05-11T14:20:29Z</time>
      </trkpt>
      <trkpt lat="45.98551" lon="5.54474">
        <ele>873.6</ele>
        <time>2026-05-11T14:20:30Z</time>
      </trkpt>
      <trkpt lat="45.98553" lon="5.54474">
        <ele>873.4</ele>
        <time>2026-05-11T14:20:31Z</time>
      </trkpt>
      <trkpt lat="45.98555" lon="5.54474">
        <ele>873.4</ele>
        <time>2026-05-11T14:20:32Z</time>
      </trkpt>
      <trkpt lat="45.98556" lon="5.54475">
        <ele>873.2</ele>
        <time>2026-05-11T14:20:33Z</time>
      </trkpt>
      <trkpt lat="45.98558" lon="5.54475">
        <ele>873.2</ele>
        <time>2026-05-11T14:20:34Z</time>
      </trkpt>
      <trkpt lat="45.9856" lon="5.54475">
        <ele>873.2</ele>
        <time>2026-05-11T14:20:35Z</time>
      </trkpt>
      <trkpt lat="45.98562" lon="5.54476">
        <ele>873.2</ele>
        <time>2026-05-11T14:20:36Z</time>
      </trkpt>
      <trkpt lat="45.98564" lon="5.54476">
        <ele>873.6</ele>
        <time>2026-05-11T14:20:37Z</time>
      </trkpt>
      <trkpt lat="45.98565" lon="5.54476">
        <ele>873.6</ele>
        <time>2026-05-11T14:20:38Z</time>
      </trkpt>
      <trkpt lat="45.98567" lon="5.54476">
        <ele>873.6</ele>
        <time>2026-05-11T14:20:39Z</time>
      </trkpt>
      <trkpt lat="45.98569" lon="5.54476">
        <ele>873.6</ele>
        <time>2026-05-11T14:20:40Z</time>
      </trkpt>
      <trkpt lat="45.98571" lon="5.54476">
        <ele>873.6</ele>
        <time>2026-05-11T14:20:41Z</time>
      </trkpt>
      <trkpt lat="45.98574" lon="5.54476">
        <ele>873.2</ele>
        <time>2026-05-11T14:20:42Z</time>
      </trkpt>
      <trkpt lat="45.98576" lon="5.54477">
        <ele>873.2</ele>
        <time>2026-05-11T14:20:43Z</time>
      </trkpt>
      <trkpt lat="45.98578" lon="5.54477">
        <ele>873.2</ele>
        <time>2026-05-11T14:20:44Z</time>
      </trkpt>
      <trkpt lat="45.98581" lon="5.54477">
        <ele>873.2</ele>
        <time>2026-05-11T14:20:45Z</time>
      </trkpt>
      <trkpt lat="45.98583" lon="5.54477">
        <ele>872.8</ele>
        <time>2026-05-11T14:20:46Z</time>
      </trkpt>
      <trkpt lat="45.98585" lon="5.54477">
        <ele>872.8</ele>
        <time>2026-05-11T14:20:47Z</time>
      </trkpt>
      <trkpt lat="45.98588" lon="5.54477">
        <ele>873</ele>
        <time>2026-05-11T14:20:48Z</time>
      </trkpt>
      <trkpt lat="45.98589" lon="5.54477">
        <ele>873</ele>
        <time>2026-05-11T14:20:49Z</time>
      </trkpt>
      <trkpt lat="45.98591" lon="5.54477">
        <ele>873</ele>
        <time>2026-05-11T14:20:50Z</time>
      </trkpt>
      <trkpt lat="45.98593" lon="5.54477">
        <ele>873</ele>
        <time>2026-05-11T14:20:51Z</time>
      </trkpt>
      <trkpt lat="45.98595" lon="5.54478">
        <ele>873</ele>
        <time>2026-05-11T14:20:52Z</time>
      </trkpt>
      <trkpt lat="45.98596" lon="5.54477">
        <ele>873</ele>
        <time>2026-05-11T14:20:53Z</time>
      </trkpt>
      <trkpt lat="45.98597" lon="5.54478">
        <ele>872.8</ele>
        <time>2026-05-11T14:20:54Z</time>
      </trkpt>
      <trkpt lat="45.986" lon="5.54478">
        <ele>872.6</ele>
        <time>2026-05-11T14:20:55Z</time>
      </trkpt>
      <trkpt lat="45.98602" lon="5.54478">
        <ele>872.6</ele>
        <time>2026-05-11T14:20:56Z</time>
      </trkpt>
      <trkpt lat="45.98604" lon="5.54477">
        <ele>873</ele>
        <time>2026-05-11T14:20:57Z</time>
      </trkpt>
      <trkpt lat="45.98606" lon="5.54477">
        <ele>873.2</ele>
        <time>2026-05-11T14:20:58Z</time>
      </trkpt>
      <trkpt lat="45.98608" lon="5.54478">
        <ele>873.2</ele>
        <time>2026-05-11T14:20:59Z</time>
      </trkpt>
      <trkpt lat="45.9861" lon="5.54478">
        <ele>873.2</ele>
        <time>2026-05-11T14:21:00Z</time>
      </trkpt>
      <trkpt lat="45.98612" lon="5.54478">
        <ele>873.4</ele>
        <time>2026-05-11T14:21:01Z</time>
      </trkpt>
      <trkpt lat="45.98614" lon="5.54478">
        <ele>873.6</ele>
        <time>2026-05-11T14:21:02Z</time>
      </trkpt>
      <trkpt lat="45.98617" lon="5.54478">
        <ele>873.6</ele>
        <time>2026-05-11T14:21:03Z</time>
      </trkpt>
      <trkpt lat="45.98619" lon="5.54478">
        <ele>873.6</ele>
        <time>2026-05-11T14:21:04Z</time>
      </trkpt>
      <trkpt lat="45.98621" lon="5.54478">
        <ele>873.6</ele>
        <time>2026-05-11T14:21:05Z</time>
      </trkpt>
      <trkpt lat="45.98624" lon="5.54478">
        <ele>873.6</ele>
        <time>2026-05-11T14:21:06Z</time>
      </trkpt>
      <trkpt lat="45.98626" lon="5.54479">
        <ele>873.4</ele>
        <time>2026-05-11T14:21:07Z</time>
      </trkpt>
      <trkpt lat="45.98628" lon="5.54479">
        <ele>873.4</ele>
        <time>2026-05-11T14:21:08Z</time>
      </trkpt>
      <trkpt lat="45.98631" lon="5.54479">
        <ele>873.6</ele>
        <time>2026-05-11T14:21:09Z</time>
      </trkpt>
      <trkpt lat="45.98634" lon="5.54478">
        <ele>873.6</ele>
        <time>2026-05-11T14:21:10Z</time>
      </trkpt>
      <trkpt lat="45.98637" lon="5.54478">
        <ele>873.6</ele>
        <time>2026-05-11T14:21:11Z</time>
      </trkpt>
      <trkpt lat="45.98639" lon="5.54478">
        <ele>873.6</ele>
        <time>2026-05-11T14:21:12Z</time>
      </trkpt>
      <trkpt lat="45.98642" lon="5.54478">
        <ele>873.4</ele>
        <time>2026-05-11T14:21:13Z</time>
      </trkpt>
      <trkpt lat="45.98644" lon="5.54478">
        <ele>873.4</ele>
        <time>2026-05-11T14:21:14Z</time>
      </trkpt>
      <trkpt lat="45.98646" lon="5.54478">
        <ele>873.4</ele>
        <time>2026-05-11T14:21:15Z</time>
      </trkpt>
      <trkpt lat="45.98648" lon="5.54478">
        <ele>872.8</ele>
        <time>2026-05-11T14:21:16Z</time>
      </trkpt>
      <trkpt lat="45.98651" lon="5.54478">
        <ele>873</ele>
        <time>2026-05-11T14:21:17Z</time>
      </trkpt>
      <trkpt lat="45.98653" lon="5.54478">
        <ele>873</ele>
        <time>2026-05-11T14:21:18Z</time>
      </trkpt>
      <trkpt lat="45.98656" lon="5.54478">
        <ele>873.2</ele>
        <time>2026-05-11T14:21:19Z</time>
      </trkpt>
      <trkpt lat="45.98658" lon="5.54478">
        <ele>873.2</ele>
        <time>2026-05-11T14:21:20Z</time>
      </trkpt>
      <trkpt lat="45.9866" lon="5.54478">
        <ele>873.6</ele>
        <time>2026-05-11T14:21:21Z</time>
      </trkpt>
      <trkpt lat="45.98663" lon="5.54478">
        <ele>873.6</ele>
        <time>2026-05-11T14:21:22Z</time>
      </trkpt>
      <trkpt lat="45.98665" lon="5.54478">
        <ele>873.6</ele>
        <time>2026-05-11T14:21:23Z</time>
      </trkpt>
      <trkpt lat="45.98667" lon="5.54478">
        <ele>873.6</ele>
        <time>2026-05-11T14:21:24Z</time>
      </trkpt>
      <trkpt lat="45.9867" lon="5.54478">
        <ele>873.8</ele>
        <time>2026-05-11T14:21:25Z</time>
      </trkpt>
      <trkpt lat="45.98672" lon="5.54478">
        <ele>873.8</ele>
        <time>2026-05-11T14:21:26Z</time>
      </trkpt>
      <trkpt lat="45.98674" lon="5.54478">
        <ele>873.8</ele>
        <time>2026-05-11T14:21:27Z</time>
      </trkpt>
      <trkpt lat="45.98677" lon="5.54477">
        <ele>873.8</ele>
        <time>2026-05-11T14:21:28Z</time>
      </trkpt>
      <trkpt lat="45.98679" lon="5.54477">
        <ele>874</ele>
        <time>2026-05-11T14:21:29Z</time>
      </trkpt>
      <trkpt lat="45.98681" lon="5.54477">
        <ele>874</ele>
        <time>2026-05-11T14:21:30Z</time>
      </trkpt>
      <trkpt lat="45.98683" lon="5.54476">
        <ele>874</ele>
        <time>2026-05-11T14:21:31Z</time>
      </trkpt>
      <trkpt lat="45.98686" lon="5.54476">
        <ele>874.6</ele>
        <time>2026-05-11T14:21:32Z</time>
      </trkpt>
      <trkpt lat="45.98688" lon="5.54475">
        <ele>874.6</ele>
        <time>2026-05-11T14:21:33Z</time>
      </trkpt>
      <trkpt lat="45.9869" lon="5.54474">
        <ele>874.4</ele>
        <time>2026-05-11T14:21:34Z</time>
      </trkpt>
      <trkpt lat="45.98692" lon="5.54474">
        <ele>874.4</ele>
        <time>2026-05-11T14:21:35Z</time>
      </trkpt>
      <trkpt lat="45.98695" lon="5.54473">
        <ele>874.4</ele>
        <time>2026-05-11T14:21:36Z</time>
      </trkpt>
      <trkpt lat="45.98697" lon="5.54472">
        <ele>874.4</ele>
        <time>2026-05-11T14:21:37Z</time>
      </trkpt>
      <trkpt lat="45.987" lon="5.54472">
        <ele>874.4</ele>
        <time>2026-05-11T14:21:38Z</time>
      </trkpt>
      <trkpt lat="45.98702" lon="5.54471">
        <ele>874.4</ele>
        <time>2026-05-11T14:21:39Z</time>
      </trkpt>
      <trkpt lat="45.98705" lon="5.54471">
        <ele>874.4</ele>
        <time>2026-05-11T14:21:40Z</time>
      </trkpt>
      <trkpt lat="45.98707" lon="5.54471">
        <ele>874.4</ele>
        <time>2026-05-11T14:21:41Z</time>
      </trkpt>
      <trkpt lat="45.9871" lon="5.54471">
        <ele>874.6</ele>
        <time>2026-05-11T14:21:42Z</time>
      </trkpt>
      <trkpt lat="45.98713" lon="5.5447">
        <ele>874.6</ele>
        <time>2026-05-11T14:21:43Z</time>
      </trkpt>
      <trkpt lat="45.98716" lon="5.5447">
        <ele>874.6</ele>
        <time>2026-05-11T14:21:44Z</time>
      </trkpt>
      <trkpt lat="45.98718" lon="5.5447">
        <ele>874.6</ele>
        <time>2026-05-11T14:21:45Z</time>
      </trkpt>
      <trkpt lat="45.98721" lon="5.5447">
        <ele>874.6</ele>
        <time>2026-05-11T14:21:46Z</time>
      </trkpt>
      <trkpt lat="45.98724" lon="5.5447">
        <ele>874.6</ele>
        <time>2026-05-11T14:21:47Z</time>
      </trkpt>
      <trkpt lat="45.98726" lon="5.54471">
        <ele>874.2</ele>
        <time>2026-05-11T14:21:48Z</time>
      </trkpt>
      <trkpt lat="45.98729" lon="5.54472">
        <ele>874.6</ele>
        <time>2026-05-11T14:21:49Z</time>
      </trkpt>
      <trkpt lat="45.98731" lon="5.54472">
        <ele>874.6</ele>
        <time>2026-05-11T14:21:50Z</time>
      </trkpt>
      <trkpt lat="45.98734" lon="5.54473">
        <ele>874.6</ele>
        <time>2026-05-11T14:21:51Z</time>
      </trkpt>
      <trkpt lat="45.98736" lon="5.54473">
        <ele>874.6</ele>
        <time>2026-05-11T14:21:52Z</time>
      </trkpt>
      <trkpt lat="45.98739" lon="5.54475">
        <ele>874.6</ele>
        <time>2026-05-11T14:21:53Z</time>
      </trkpt>
      <trkpt lat="45.98741" lon="5.54476">
        <ele>874.6</ele>
        <time>2026-05-11T14:21:54Z</time>
      </trkpt>
      <trkpt lat="45.98743" lon="5.54478">
        <ele>874.8</ele>
        <time>2026-05-11T14:21:55Z</time>
      </trkpt>
      <trkpt lat="45.98745" lon="5.5448">
        <ele>875.2</ele>
        <time>2026-05-11T14:21:56Z</time>
      </trkpt>
      <trkpt lat="45.98746" lon="5.54482">
        <ele>875.2</ele>
        <time>2026-05-11T14:21:57Z</time>
      </trkpt>
      <trkpt lat="45.98748" lon="5.54484">
        <ele>875.4</ele>
        <time>2026-05-11T14:21:58Z</time>
      </trkpt>
      <trkpt lat="45.98749" lon="5.54487">
        <ele>875.6</ele>
        <time>2026-05-11T14:21:59Z</time>
      </trkpt>
      <trkpt lat="45.98749" lon="5.54487">
        <ele>876</ele>
        <time>2026-05-11T14:22:00Z</time>
      </trkpt>
      <trkpt lat="45.9875" lon="5.54489">
        <ele>876.2</ele>
        <time>2026-05-11T14:22:01Z</time>
      </trkpt>
      <trkpt lat="45.9875" lon="5.54492">
        <ele>876.6</ele>
        <time>2026-05-11T14:22:02Z</time>
      </trkpt>
      <trkpt lat="45.98751" lon="5.54497">
        <ele>876.8</ele>
        <time>2026-05-11T14:22:03Z</time>
      </trkpt>
      <trkpt lat="45.9875" lon="5.545">
        <ele>876.8</ele>
        <time>2026-05-11T14:22:04Z</time>
      </trkpt>
      <trkpt lat="45.9875" lon="5.54502">
        <ele>876.8</ele>
        <time>2026-05-11T14:22:05Z</time>
      </trkpt>
      <trkpt lat="45.98749" lon="5.54505">
        <ele>877.4</ele>
        <time>2026-05-11T14:22:06Z</time>
      </trkpt>
      <trkpt lat="45.98748" lon="5.54507">
        <ele>877.8</ele>
        <time>2026-05-11T14:22:07Z</time>
      </trkpt>
      <trkpt lat="45.98748" lon="5.54509">
        <ele>878.2</ele>
        <time>2026-05-11T14:22:08Z</time>
      </trkpt>
      <trkpt lat="45.98747" lon="5.54511">
        <ele>878.4</ele>
        <time>2026-05-11T14:22:09Z</time>
      </trkpt>
      <trkpt lat="45.98747" lon="5.54514">
        <ele>878.4</ele>
        <time>2026-05-11T14:22:10Z</time>
      </trkpt>
      <trkpt lat="45.98746" lon="5.54516">
        <ele>878.8</ele>
        <time>2026-05-11T14:22:11Z</time>
      </trkpt>
      <trkpt lat="45.98746" lon="5.54519">
        <ele>878.8</ele>
        <time>2026-05-11T14:22:12Z</time>
      </trkpt>
      <trkpt lat="45.98745" lon="5.54521">
        <ele>878.8</ele>
        <time>2026-05-11T14:22:13Z</time>
      </trkpt>
      <trkpt lat="45.98745" lon="5.54523">
        <ele>878.8</ele>
        <time>2026-05-11T14:22:14Z</time>
      </trkpt>
      <trkpt lat="45.98745" lon="5.54526">
        <ele>879</ele>
        <time>2026-05-11T14:22:15Z</time>
      </trkpt>
      <trkpt lat="45.98745" lon="5.54528">
        <ele>879</ele>
        <time>2026-05-11T14:22:16Z</time>
      </trkpt>
      <trkpt lat="45.98745" lon="5.54529">
        <ele>879.2</ele>
        <time>2026-05-11T14:22:17Z</time>
      </trkpt>
      <trkpt lat="45.98746" lon="5.54532">
        <ele>879.2</ele>
        <time>2026-05-11T14:22:18Z</time>
      </trkpt>
      <trkpt lat="45.98746" lon="5.54534">
        <ele>879.6</ele>
        <time>2026-05-11T14:22:19Z</time>
      </trkpt>
      <trkpt lat="45.98747" lon="5.54536">
        <ele>879.6</ele>
        <time>2026-05-11T14:22:20Z</time>
      </trkpt>
      <trkpt lat="45.98747" lon="5.54538">
        <ele>879.6</ele>
        <time>2026-05-11T14:22:21Z</time>
      </trkpt>
      <trkpt lat="45.98748" lon="5.5454">
        <ele>879.6</ele>
        <time>2026-05-11T14:22:22Z</time>
      </trkpt>
      <trkpt lat="45.98749" lon="5.54541">
        <ele>879.6</ele>
        <time>2026-05-11T14:22:23Z</time>
      </trkpt>
      <trkpt lat="45.98751" lon="5.54543">
        <ele>879.6</ele>
        <time>2026-05-11T14:22:24Z</time>
      </trkpt>
      <trkpt lat="45.98752" lon="5.54545">
        <ele>879.6</ele>
        <time>2026-05-11T14:22:25Z</time>
      </trkpt>
      <trkpt lat="45.98755" lon="5.54548">
        <ele>879.4</ele>
        <time>2026-05-11T14:22:26Z</time>
      </trkpt>
      <trkpt lat="45.98757" lon="5.5455">
        <ele>878.8</ele>
        <time>2026-05-11T14:22:27Z</time>
      </trkpt>
      <trkpt lat="45.98761" lon="5.54553">
        <ele>878.8</ele>
        <time>2026-05-11T14:22:28Z</time>
      </trkpt>
      <trkpt lat="45.98765" lon="5.54555">
        <ele>878.8</ele>
        <time>2026-05-11T14:22:29Z</time>
      </trkpt>
      <trkpt lat="45.98769" lon="5.54558">
        <ele>878.2</ele>
        <time>2026-05-11T14:22:30Z</time>
      </trkpt>
      <trkpt lat="45.98772" lon="5.54559">
        <ele>878.2</ele>
        <time>2026-05-11T14:22:31Z</time>
      </trkpt>
      <trkpt lat="45.98776" lon="5.54559">
        <ele>878.2</ele>
        <time>2026-05-11T14:22:32Z</time>
      </trkpt>
      <trkpt lat="45.98778" lon="5.54559">
        <ele>878.2</ele>
        <time>2026-05-11T14:22:33Z</time>
      </trkpt>
      <trkpt lat="45.9878" lon="5.5456">
        <ele>878.2</ele>
        <time>2026-05-11T14:22:34Z</time>
      </trkpt>
      <trkpt lat="45.98782" lon="5.54561">
        <ele>878.2</ele>
        <time>2026-05-11T14:22:35Z</time>
      </trkpt>
      <trkpt lat="45.98784" lon="5.54561">
        <ele>878.6</ele>
        <time>2026-05-11T14:22:36Z</time>
      </trkpt>
      <trkpt lat="45.98786" lon="5.5456">
        <ele>878.6</ele>
        <time>2026-05-11T14:22:37Z</time>
      </trkpt>
      <trkpt lat="45.98788" lon="5.5456">
        <ele>878.8</ele>
        <time>2026-05-11T14:22:38Z</time>
      </trkpt>
      <trkpt lat="45.9879" lon="5.54559">
        <ele>878.8</ele>
        <time>2026-05-11T14:22:39Z</time>
      </trkpt>
      <trkpt lat="45.98793" lon="5.54559">
        <ele>879.2</ele>
        <time>2026-05-11T14:22:40Z</time>
      </trkpt>
      <trkpt lat="45.98795" lon="5.5456">
        <ele>879.2</ele>
        <time>2026-05-11T14:22:41Z</time>
      </trkpt>
      <trkpt lat="45.98796" lon="5.54561">
        <ele>879.2</ele>
        <time>2026-05-11T14:22:42Z</time>
      </trkpt>
      <trkpt lat="45.98798" lon="5.54561">
        <ele>879.2</ele>
        <time>2026-05-11T14:22:43Z</time>
      </trkpt>
      <trkpt lat="45.988" lon="5.54562">
        <ele>879.2</ele>
        <time>2026-05-11T14:22:44Z</time>
      </trkpt>
      <trkpt lat="45.98802" lon="5.54564">
        <ele>879.2</ele>
        <time>2026-05-11T14:22:45Z</time>
      </trkpt>
      <trkpt lat="45.98803" lon="5.54566">
        <ele>879.6</ele>
        <time>2026-05-11T14:22:46Z</time>
      </trkpt>
      <trkpt lat="45.98804" lon="5.54568">
        <ele>879.8</ele>
        <time>2026-05-11T14:22:47Z</time>
      </trkpt>
      <trkpt lat="45.98805" lon="5.54571">
        <ele>879.4</ele>
        <time>2026-05-11T14:22:48Z</time>
      </trkpt>
      <trkpt lat="45.98806" lon="5.54575">
        <ele>879.4</ele>
        <time>2026-05-11T14:22:49Z</time>
      </trkpt>
      <trkpt lat="45.98807" lon="5.54579">
        <ele>879.2</ele>
        <time>2026-05-11T14:22:50Z</time>
      </trkpt>
      <trkpt lat="45.98809" lon="5.54582">
        <ele>879.2</ele>
        <time>2026-05-11T14:22:51Z</time>
      </trkpt>
      <trkpt lat="45.9881" lon="5.54585">
        <ele>878.8</ele>
        <time>2026-05-11T14:22:52Z</time>
      </trkpt>
      <trkpt lat="45.98811" lon="5.54587">
        <ele>878.8</ele>
        <time>2026-05-11T14:22:53Z</time>
      </trkpt>
      <trkpt lat="45.98812" lon="5.5459">
        <ele>878.8</ele>
        <time>2026-05-11T14:22:54Z</time>
      </trkpt>
      <trkpt lat="45.98814" lon="5.54591">
        <ele>878.8</ele>
        <time>2026-05-11T14:22:55Z</time>
      </trkpt>
      <trkpt lat="45.98816" lon="5.54592">
        <ele>878.8</ele>
        <time>2026-05-11T14:22:56Z</time>
      </trkpt>
      <trkpt lat="45.98818" lon="5.54593">
        <ele>879</ele>
        <time>2026-05-11T14:22:57Z</time>
      </trkpt>
      <trkpt lat="45.9882" lon="5.54595">
        <ele>879</ele>
        <time>2026-05-11T14:22:58Z</time>
      </trkpt>
      <trkpt lat="45.98821" lon="5.54596">
        <ele>879</ele>
        <time>2026-05-11T14:22:59Z</time>
      </trkpt>
      <trkpt lat="45.98823" lon="5.54598">
        <ele>879</ele>
        <time>2026-05-11T14:23:00Z</time>
      </trkpt>
      <trkpt lat="45.98825" lon="5.546">
        <ele>879</ele>
        <time>2026-05-11T14:23:01Z</time>
      </trkpt>
      <trkpt lat="45.98826" lon="5.54603">
        <ele>879</ele>
        <time>2026-05-11T14:23:02Z</time>
      </trkpt>
      <trkpt lat="45.98827" lon="5.54606">
        <ele>879.2</ele>
        <time>2026-05-11T14:23:03Z</time>
      </trkpt>
      <trkpt lat="45.98828" lon="5.54608">
        <ele>879.2</ele>
        <time>2026-05-11T14:23:04Z</time>
      </trkpt>
      <trkpt lat="45.98829" lon="5.54611">
        <ele>879.2</ele>
        <time>2026-05-11T14:23:05Z</time>
      </trkpt>
      <trkpt lat="45.98829" lon="5.54614">
        <ele>879.8</ele>
        <time>2026-05-11T14:23:06Z</time>
      </trkpt>
      <trkpt lat="45.98829" lon="5.54616">
        <ele>879.8</ele>
        <time>2026-05-11T14:23:07Z</time>
      </trkpt>
      <trkpt lat="45.9883" lon="5.54619">
        <ele>880.2</ele>
        <time>2026-05-11T14:23:08Z</time>
      </trkpt>
      <trkpt lat="45.9883" lon="5.54622">
        <ele>880.2</ele>
        <time>2026-05-11T14:23:09Z</time>
      </trkpt>
      <trkpt lat="45.98831" lon="5.54623">
        <ele>880.4</ele>
        <time>2026-05-11T14:23:10Z</time>
      </trkpt>
      <trkpt lat="45.98831" lon="5.54623">
        <ele>880.4</ele>
        <time>2026-05-11T14:23:11Z</time>
      </trkpt>
      <trkpt lat="45.98831" lon="5.54623">
        <ele>880.4</ele>
        <time>2026-05-11T14:23:12Z</time>
      </trkpt>
      <trkpt lat="45.98831" lon="5.54629">
        <ele>880.8</ele>
        <time>2026-05-11T14:23:18Z</time>
      </trkpt>
      <trkpt lat="45.98831" lon="5.54631">
        <ele>880.8</ele>
        <time>2026-05-11T14:23:19Z</time>
      </trkpt>
      <trkpt lat="45.98831" lon="5.54633">
        <ele>880.8</ele>
        <time>2026-05-11T14:23:20Z</time>
      </trkpt>
      <trkpt lat="45.98832" lon="5.54635">
        <ele>880.8</ele>
        <time>2026-05-11T14:23:21Z</time>
      </trkpt>
      <trkpt lat="45.98833" lon="5.54637">
        <ele>881</ele>
        <time>2026-05-11T14:23:22Z</time>
      </trkpt>
      <trkpt lat="45.98834" lon="5.54639">
        <ele>880.4</ele>
        <time>2026-05-11T14:23:23Z</time>
      </trkpt>
      <trkpt lat="45.98834" lon="5.54642">
        <ele>880.4</ele>
        <time>2026-05-11T14:23:24Z</time>
      </trkpt>
      <trkpt lat="45.98834" lon="5.54644">
        <ele>880.6</ele>
        <time>2026-05-11T14:23:25Z</time>
      </trkpt>
      <trkpt lat="45.98834" lon="5.54647">
        <ele>880.6</ele>
        <time>2026-05-11T14:23:26Z</time>
      </trkpt>
      <trkpt lat="45.98834" lon="5.54649">
        <ele>880.6</ele>
        <time>2026-05-11T14:23:27Z</time>
      </trkpt>
      <trkpt lat="45.98834" lon="5.54652">
        <ele>881</ele>
        <time>2026-05-11T14:23:28Z</time>
      </trkpt>
      <trkpt lat="45.98834" lon="5.54655">
        <ele>881</ele>
        <time>2026-05-11T14:23:29Z</time>
      </trkpt>
      <trkpt lat="45.98835" lon="5.54658">
        <ele>881.2</ele>
        <time>2026-05-11T14:23:30Z</time>
      </trkpt>
      <trkpt lat="45.98835" lon="5.54661">
        <ele>881.2</ele>
        <time>2026-05-11T14:23:31Z</time>
      </trkpt>
      <trkpt lat="45.98835" lon="5.54663">
        <ele>881.2</ele>
        <time>2026-05-11T14:23:32Z</time>
      </trkpt>
      <trkpt lat="45.98835" lon="5.54666">
        <ele>881.2</ele>
        <time>2026-05-11T14:23:33Z</time>
      </trkpt>
      <trkpt lat="45.98836" lon="5.54669">
        <ele>881.2</ele>
        <time>2026-05-11T14:23:34Z</time>
      </trkpt>
      <trkpt lat="45.98836" lon="5.54672">
        <ele>881.2</ele>
        <time>2026-05-11T14:23:35Z</time>
      </trkpt>
      <trkpt lat="45.98836" lon="5.54675">
        <ele>881.2</ele>
        <time>2026-05-11T14:23:36Z</time>
      </trkpt>
      <trkpt lat="45.98836" lon="5.54678">
        <ele>880.8</ele>
        <time>2026-05-11T14:23:37Z</time>
      </trkpt>
      <trkpt lat="45.98836" lon="5.54681">
        <ele>880.8</ele>
        <time>2026-05-11T14:23:38Z</time>
      </trkpt>
      <trkpt lat="45.98836" lon="5.54684">
        <ele>880.8</ele>
        <time>2026-05-11T14:23:39Z</time>
      </trkpt>
      <trkpt lat="45.98836" lon="5.54687">
        <ele>880.8</ele>
        <time>2026-05-11T14:23:40Z</time>
      </trkpt>
      <trkpt lat="45.98836" lon="5.54691">
        <ele>880.2</ele>
        <time>2026-05-11T14:23:41Z</time>
      </trkpt>
      <trkpt lat="45.98836" lon="5.54695">
        <ele>880.6</ele>
        <time>2026-05-11T14:23:42Z</time>
      </trkpt>
      <trkpt lat="45.98837" lon="5.54698">
        <ele>880.6</ele>
        <time>2026-05-11T14:23:43Z</time>
      </trkpt>
      <trkpt lat="45.98837" lon="5.54702">
        <ele>880.8</ele>
        <time>2026-05-11T14:23:44Z</time>
      </trkpt>
      <trkpt lat="45.98837" lon="5.54705">
        <ele>880.8</ele>
        <time>2026-05-11T14:23:45Z</time>
      </trkpt>
      <trkpt lat="45.98837" lon="5.54708">
        <ele>880.8</ele>
        <time>2026-05-11T14:23:46Z</time>
      </trkpt>
      <trkpt lat="45.98836" lon="5.54711">
        <ele>880.8</ele>
        <time>2026-05-11T14:23:47Z</time>
      </trkpt>
      <trkpt lat="45.98836" lon="5.54713">
        <ele>880.8</ele>
        <time>2026-05-11T14:23:48Z</time>
      </trkpt>
      <trkpt lat="45.98836" lon="5.54716">
        <ele>880.8</ele>
        <time>2026-05-11T14:23:49Z</time>
      </trkpt>
      <trkpt lat="45.98836" lon="5.54718">
        <ele>880.8</ele>
        <time>2026-05-11T14:23:50Z</time>
      </trkpt>
      <trkpt lat="45.98836" lon="5.54721">
        <ele>880.8</ele>
        <time>2026-05-11T14:23:51Z</time>
      </trkpt>
      <trkpt lat="45.98837" lon="5.54725">
        <ele>880.8</ele>
        <time>2026-05-11T14:23:52Z</time>
      </trkpt>
      <trkpt lat="45.98837" lon="5.5473">
        <ele>880.4</ele>
        <time>2026-05-11T14:23:53Z</time>
      </trkpt>
      <trkpt lat="45.98836" lon="5.54735">
        <ele>879.8</ele>
        <time>2026-05-11T14:23:54Z</time>
      </trkpt>
      <trkpt lat="45.98836" lon="5.54739">
        <ele>879.8</ele>
        <time>2026-05-11T14:23:55Z</time>
      </trkpt>
      <trkpt lat="45.98837" lon="5.54743">
        <ele>879.6</ele>
        <time>2026-05-11T14:23:56Z</time>
      </trkpt>
      <trkpt lat="45.98837" lon="5.54747">
        <ele>879.6</ele>
        <time>2026-05-11T14:23:57Z</time>
      </trkpt>
      <trkpt lat="45.98838" lon="5.5475">
        <ele>879.6</ele>
        <time>2026-05-11T14:23:58Z</time>
      </trkpt>
      <trkpt lat="45.98838" lon="5.54752">
        <ele>879.6</ele>
        <time>2026-05-11T14:23:59Z</time>
      </trkpt>
      <trkpt lat="45.98839" lon="5.54755">
        <ele>879.6</ele>
        <time>2026-05-11T14:24:00Z</time>
      </trkpt>
      <trkpt lat="45.98839" lon="5.54757">
        <ele>880</ele>
        <time>2026-05-11T14:24:01Z</time>
      </trkpt>
      <trkpt lat="45.9884" lon="5.54758">
        <ele>880</ele>
        <time>2026-05-11T14:24:02Z</time>
      </trkpt>
      <trkpt lat="45.9884" lon="5.54759">
        <ele>880</ele>
        <time>2026-05-11T14:24:03Z</time>
      </trkpt>
      <trkpt lat="45.9884" lon="5.54759">
        <ele>880.4</ele>
        <time>2026-05-11T14:24:04Z</time>
      </trkpt>
      <trkpt lat="45.9884" lon="5.54756">
        <ele>880.8</ele>
        <time>2026-05-11T14:24:09Z</time>
      </trkpt>
      <trkpt lat="45.9884" lon="5.54757">
        <ele>880.8</ele>
        <time>2026-05-11T14:24:10Z</time>
      </trkpt>
      <trkpt lat="45.98841" lon="5.54757">
        <ele>880.4</ele>
        <time>2026-05-11T14:24:11Z</time>
      </trkpt>
      <trkpt lat="45.98841" lon="5.54757">
        <ele>880.4</ele>
        <time>2026-05-11T14:24:12Z</time>
      </trkpt>
      <trkpt lat="45.98842" lon="5.54757">
        <ele>880.4</ele>
        <time>2026-05-11T14:24:13Z</time>
      </trkpt>
      <trkpt lat="45.98842" lon="5.54757">
        <ele>880.4</ele>
        <time>2026-05-11T14:24:14Z</time>
      </trkpt>
      <trkpt lat="45.98844" lon="5.54759">
        <ele>880.8</ele>
        <time>2026-05-11T14:24:18Z</time>
      </trkpt>
      <trkpt lat="45.98845" lon="5.5476">
        <ele>880.8</ele>
        <time>2026-05-11T14:24:19Z</time>
      </trkpt>
      <trkpt lat="45.98845" lon="5.54759">
        <ele>880.8</ele>
        <time>2026-05-11T14:24:20Z</time>
      </trkpt>
      <trkpt lat="45.98845" lon="5.5476">
        <ele>880.8</ele>
        <time>2026-05-11T14:24:21Z</time>
      </trkpt>
      <trkpt lat="45.98845" lon="5.54759">
        <ele>880.4</ele>
        <time>2026-05-11T14:24:22Z</time>
      </trkpt>
      <trkpt lat="45.98849" lon="5.54762">
        <ele>880</ele>
        <time>2026-05-11T14:24:31Z</time>
      </trkpt>
      <trkpt lat="45.9885" lon="5.54763">
        <ele>880</ele>
        <time>2026-05-11T14:24:32Z</time>
      </trkpt>
      <trkpt lat="45.98852" lon="5.54764">
        <ele>880</ele>
        <time>2026-05-11T14:24:33Z</time>
      </trkpt>
      <trkpt lat="45.98853" lon="5.54764">
        <ele>880</ele>
        <time>2026-05-11T14:24:34Z</time>
      </trkpt>
      <trkpt lat="45.98855" lon="5.54764">
        <ele>880</ele>
        <time>2026-05-11T14:24:35Z</time>
      </trkpt>
      <trkpt lat="45.98856" lon="5.54763">
        <ele>880</ele>
        <time>2026-05-11T14:24:36Z</time>
      </trkpt>
      <trkpt lat="45.98857" lon="5.54763">
        <ele>879.6</ele>
        <time>2026-05-11T14:24:37Z</time>
      </trkpt>
      <trkpt lat="45.98859" lon="5.54763">
        <ele>879.6</ele>
        <time>2026-05-11T14:24:38Z</time>
      </trkpt>
      <trkpt lat="45.9886" lon="5.54763">
        <ele>879.6</ele>
        <time>2026-05-11T14:24:39Z</time>
      </trkpt>
      <trkpt lat="45.98862" lon="5.54763">
        <ele>879.6</ele>
        <time>2026-05-11T14:24:40Z</time>
      </trkpt>
      <trkpt lat="45.98864" lon="5.54763">
        <ele>879.6</ele>
        <time>2026-05-11T14:24:41Z</time>
      </trkpt>
      <trkpt lat="45.98866" lon="5.54764">
        <ele>879.6</ele>
        <time>2026-05-11T14:24:42Z</time>
      </trkpt>
      <trkpt lat="45.98868" lon="5.54764">
        <ele>879.8</ele>
        <time>2026-05-11T14:24:43Z</time>
      </trkpt>
      <trkpt lat="45.9887" lon="5.54765">
        <ele>879.8</ele>
        <time>2026-05-11T14:24:44Z</time>
      </trkpt>
      <trkpt lat="45.98873" lon="5.54766">
        <ele>879.8</ele>
        <time>2026-05-11T14:24:45Z</time>
      </trkpt>
      <trkpt lat="45.98874" lon="5.54767">
        <ele>879.8</ele>
        <time>2026-05-11T14:24:46Z</time>
      </trkpt>
      <trkpt lat="45.98876" lon="5.54767">
        <ele>879.8</ele>
        <time>2026-05-11T14:24:47Z</time>
      </trkpt>
      <trkpt lat="45.98877" lon="5.54767">
        <ele>879.8</ele>
        <time>2026-05-11T14:24:48Z</time>
      </trkpt>
      <trkpt lat="45.98879" lon="5.54767">
        <ele>879.8</ele>
        <time>2026-05-11T14:24:49Z</time>
      </trkpt>
      <trkpt lat="45.9888" lon="5.54768">
        <ele>879.8</ele>
        <time>2026-05-11T14:24:50Z</time>
      </trkpt>
      <trkpt lat="45.98882" lon="5.54769">
        <ele>880.4</ele>
        <time>2026-05-11T14:24:51Z</time>
      </trkpt>
      <trkpt lat="45.98884" lon="5.54771">
        <ele>880.4</ele>
        <time>2026-05-11T14:24:52Z</time>
      </trkpt>
      <trkpt lat="45.98886" lon="5.54772">
        <ele>880.4</ele>
        <time>2026-05-11T14:24:53Z</time>
      </trkpt>
      <trkpt lat="45.98888" lon="5.54773">
        <ele>879.8</ele>
        <time>2026-05-11T14:24:54Z</time>
      </trkpt>
      <trkpt lat="45.9889" lon="5.54774">
        <ele>880.2</ele>
        <time>2026-05-11T14:24:55Z</time>
      </trkpt>
      <trkpt lat="45.98892" lon="5.54775">
        <ele>880.4</ele>
        <time>2026-05-11T14:24:56Z</time>
      </trkpt>
      <trkpt lat="45.98894" lon="5.54776">
        <ele>880.8</ele>
        <time>2026-05-11T14:24:57Z</time>
      </trkpt>
      <trkpt lat="45.98896" lon="5.54776">
        <ele>881</ele>
        <time>2026-05-11T14:24:58Z</time>
      </trkpt>
      <trkpt lat="45.98898" lon="5.54777">
        <ele>881</ele>
        <time>2026-05-11T14:24:59Z</time>
      </trkpt>
      <trkpt lat="45.989" lon="5.54778">
        <ele>881.2</ele>
        <time>2026-05-11T14:25:00Z</time>
      </trkpt>
      <trkpt lat="45.98902" lon="5.54779">
        <ele>881.2</ele>
        <time>2026-05-11T14:25:01Z</time>
      </trkpt>
      <trkpt lat="45.98904" lon="5.5478">
        <ele>881.4</ele>
        <time>2026-05-11T14:25:02Z</time>
      </trkpt>
      <trkpt lat="45.98905" lon="5.54782">
        <ele>881.4</ele>
        <time>2026-05-11T14:25:03Z</time>
      </trkpt>
      <trkpt lat="45.98906" lon="5.54784">
        <ele>881.8</ele>
        <time>2026-05-11T14:25:04Z</time>
      </trkpt>
      <trkpt lat="45.98908" lon="5.54786">
        <ele>881.8</ele>
        <time>2026-05-11T14:25:05Z</time>
      </trkpt>
      <trkpt lat="45.9891" lon="5.54788">
        <ele>882.2</ele>
        <time>2026-05-11T14:25:06Z</time>
      </trkpt>
      <trkpt lat="45.98911" lon="5.5479">
        <ele>882.2</ele>
        <time>2026-05-11T14:25:07Z</time>
      </trkpt>
      <trkpt lat="45.98913" lon="5.54792">
        <ele>882.2</ele>
        <time>2026-05-11T14:25:08Z</time>
      </trkpt>
      <trkpt lat="45.98915" lon="5.54793">
        <ele>882</ele>
        <time>2026-05-11T14:25:09Z</time>
      </trkpt>
      <trkpt lat="45.98918" lon="5.54795">
        <ele>881.6</ele>
        <time>2026-05-11T14:25:10Z</time>
      </trkpt>
      <trkpt lat="45.98921" lon="5.54798">
        <ele>881.4</ele>
        <time>2026-05-11T14:25:11Z</time>
      </trkpt>
      <trkpt lat="45.98924" lon="5.54801">
        <ele>881.4</ele>
        <time>2026-05-11T14:25:12Z</time>
      </trkpt>
      <trkpt lat="45.98926" lon="5.54803">
        <ele>881</ele>
        <time>2026-05-11T14:25:13Z</time>
      </trkpt>
      <trkpt lat="45.98929" lon="5.54805">
        <ele>881</ele>
        <time>2026-05-11T14:25:14Z</time>
      </trkpt>
      <trkpt lat="45.98932" lon="5.54809">
        <ele>881</ele>
        <time>2026-05-11T14:25:15Z</time>
      </trkpt>
      <trkpt lat="45.98934" lon="5.54812">
        <ele>881.4</ele>
        <time>2026-05-11T14:25:16Z</time>
      </trkpt>
      <trkpt lat="45.98936" lon="5.54814">
        <ele>881.4</ele>
        <time>2026-05-11T14:25:17Z</time>
      </trkpt>
      <trkpt lat="45.98938" lon="5.54816">
        <ele>881.4</ele>
        <time>2026-05-11T14:25:18Z</time>
      </trkpt>
      <trkpt lat="45.9894" lon="5.54818">
        <ele>881.6</ele>
        <time>2026-05-11T14:25:19Z</time>
      </trkpt>
      <trkpt lat="45.98941" lon="5.54821">
        <ele>881.6</ele>
        <time>2026-05-11T14:25:20Z</time>
      </trkpt>
      <trkpt lat="45.98942" lon="5.54825">
        <ele>881.4</ele>
        <time>2026-05-11T14:25:21Z</time>
      </trkpt>
      <trkpt lat="45.98944" lon="5.54828">
        <ele>881.4</ele>
        <time>2026-05-11T14:25:22Z</time>
      </trkpt>
      <trkpt lat="45.98945" lon="5.5483">
        <ele>881.4</ele>
        <time>2026-05-11T14:25:23Z</time>
      </trkpt>
      <trkpt lat="45.98947" lon="5.54832">
        <ele>881.4</ele>
        <time>2026-05-11T14:25:24Z</time>
      </trkpt>
      <trkpt lat="45.98949" lon="5.54832">
        <ele>881.4</ele>
        <time>2026-05-11T14:25:25Z</time>
      </trkpt>
      <trkpt lat="45.98951" lon="5.54832">
        <ele>880.8</ele>
        <time>2026-05-11T14:25:26Z</time>
      </trkpt>
      <trkpt lat="45.98953" lon="5.54832">
        <ele>880.8</ele>
        <time>2026-05-11T14:25:27Z</time>
      </trkpt>
      <trkpt lat="45.98956" lon="5.54832">
        <ele>880.8</ele>
        <time>2026-05-11T14:25:28Z</time>
      </trkpt>
      <trkpt lat="45.98959" lon="5.54831">
        <ele>880.8</ele>
        <time>2026-05-11T14:25:29Z</time>
      </trkpt>
      <trkpt lat="45.98962" lon="5.54832">
        <ele>880.8</ele>
        <time>2026-05-11T14:25:30Z</time>
      </trkpt>
      <trkpt lat="45.98964" lon="5.54833">
        <ele>880.6</ele>
        <time>2026-05-11T14:25:31Z</time>
      </trkpt>
      <trkpt lat="45.98967" lon="5.54834">
        <ele>880.6</ele>
        <time>2026-05-11T14:25:32Z</time>
      </trkpt>
      <trkpt lat="45.98969" lon="5.54835">
        <ele>880.4</ele>
        <time>2026-05-11T14:25:33Z</time>
      </trkpt>
      <trkpt lat="45.9897" lon="5.54836">
        <ele>880.4</ele>
        <time>2026-05-11T14:25:34Z</time>
      </trkpt>
      <trkpt lat="45.98971" lon="5.54836">
        <ele>880.2</ele>
        <time>2026-05-11T14:25:35Z</time>
      </trkpt>
      <trkpt lat="45.98974" lon="5.54837">
        <ele>880.2</ele>
        <time>2026-05-11T14:25:36Z</time>
      </trkpt>
      <trkpt lat="45.98978" lon="5.54838">
        <ele>880.2</ele>
        <time>2026-05-11T14:25:37Z</time>
      </trkpt>
      <trkpt lat="45.9898" lon="5.54839">
        <ele>879.8</ele>
        <time>2026-05-11T14:25:38Z</time>
      </trkpt>
      <trkpt lat="45.98983" lon="5.5484">
        <ele>879.8</ele>
        <time>2026-05-11T14:25:39Z</time>
      </trkpt>
      <trkpt lat="45.98985" lon="5.54841">
        <ele>879.8</ele>
        <time>2026-05-11T14:25:40Z</time>
      </trkpt>
      <trkpt lat="45.98987" lon="5.54842">
        <ele>879.8</ele>
        <time>2026-05-11T14:25:41Z</time>
      </trkpt>
      <trkpt lat="45.98988" lon="5.54842">
        <ele>879.8</ele>
        <time>2026-05-11T14:25:42Z</time>
      </trkpt>
      <trkpt lat="45.98989" lon="5.54842">
        <ele>879.8</ele>
        <time>2026-05-11T14:25:43Z</time>
      </trkpt>
      <trkpt lat="45.98991" lon="5.54842">
        <ele>879.8</ele>
        <time>2026-05-11T14:25:44Z</time>
      </trkpt>
      <trkpt lat="45.98992" lon="5.54843">
        <ele>879.8</ele>
        <time>2026-05-11T14:25:45Z</time>
      </trkpt>
      <trkpt lat="45.98993" lon="5.54843">
        <ele>879.8</ele>
        <time>2026-05-11T14:25:46Z</time>
      </trkpt>
      <trkpt lat="45.98993" lon="5.54843">
        <ele>879.8</ele>
        <time>2026-05-11T14:25:47Z</time>
      </trkpt>
      <trkpt lat="45.98993" lon="5.54843">
        <ele>879.8</ele>
        <time>2026-05-11T14:25:48Z</time>
      </trkpt>
      <trkpt lat="45.98994" lon="5.54842">
        <ele>879.6</ele>
        <time>2026-05-11T14:25:51Z</time>
      </trkpt>
      <trkpt lat="45.98995" lon="5.54842">
        <ele>879.6</ele>
        <time>2026-05-11T14:25:52Z</time>
      </trkpt>
      <trkpt lat="45.98997" lon="5.54842">
        <ele>879.2</ele>
        <time>2026-05-11T14:25:53Z</time>
      </trkpt>
      <trkpt lat="45.98997" lon="5.54842">
        <ele>878.8</ele>
        <time>2026-05-11T14:25:54Z</time>
      </trkpt>
      <trkpt lat="45.98997" lon="5.54842">
        <ele>878.6</ele>
        <time>2026-05-11T14:25:55Z</time>
      </trkpt>
      <trkpt lat="45.98998" lon="5.54842">
        <ele>878.6</ele>
        <time>2026-05-11T14:25:56Z</time>
      </trkpt>
      <trkpt lat="45.99" lon="5.54841">
        <ele>877.8</ele>
        <time>2026-05-11T14:26:00Z</time>
      </trkpt>
      <trkpt lat="45.99001" lon="5.54841">
        <ele>877.8</ele>
        <time>2026-05-11T14:26:01Z</time>
      </trkpt>
      <trkpt lat="45.99002" lon="5.54841">
        <ele>877.4</ele>
        <time>2026-05-11T14:26:02Z</time>
      </trkpt>
      <trkpt lat="45.99003" lon="5.5484">
        <ele>877.4</ele>
        <time>2026-05-11T14:26:03Z</time>
      </trkpt>
      <trkpt lat="45.99004" lon="5.5484">
        <ele>877.2</ele>
        <time>2026-05-11T14:26:04Z</time>
      </trkpt>
      <trkpt lat="45.99005" lon="5.54839">
        <ele>876.8</ele>
        <time>2026-05-11T14:26:05Z</time>
      </trkpt>
      <trkpt lat="45.99006" lon="5.54838">
        <ele>876.6</ele>
        <time>2026-05-11T14:26:06Z</time>
      </trkpt>
      <trkpt lat="45.99008" lon="5.54838">
        <ele>876.4</ele>
        <time>2026-05-11T14:26:07Z</time>
      </trkpt>
      <trkpt lat="45.99009" lon="5.54838">
        <ele>876.4</ele>
        <time>2026-05-11T14:26:08Z</time>
      </trkpt>
      <trkpt lat="45.9901" lon="5.54839">
        <ele>876</ele>
        <time>2026-05-11T14:26:09Z</time>
      </trkpt>
      <trkpt lat="45.99011" lon="5.5484">
        <ele>876</ele>
        <time>2026-05-11T14:26:10Z</time>
      </trkpt>
      <trkpt lat="45.99011" lon="5.54841">
        <ele>876</ele>
        <time>2026-05-11T14:26:11Z</time>
      </trkpt>
      <trkpt lat="45.99011" lon="5.54842">
        <ele>876</ele>
        <time>2026-05-11T14:26:12Z</time>
      </trkpt>
      <trkpt lat="45.99011" lon="5.54844">
        <ele>876</ele>
        <time>2026-05-11T14:26:13Z</time>
      </trkpt>
      <trkpt lat="45.9901" lon="5.54846">
        <ele>875.8</ele>
        <time>2026-05-11T14:26:14Z</time>
      </trkpt>
      <trkpt lat="45.99009" lon="5.54848">
        <ele>875.6</ele>
        <time>2026-05-11T14:26:15Z</time>
      </trkpt>
      <trkpt lat="45.99009" lon="5.54849">
        <ele>875.4</ele>
        <time>2026-05-11T14:26:16Z</time>
      </trkpt>
      <trkpt lat="45.99008" lon="5.54848">
        <ele>875.4</ele>
        <time>2026-05-11T14:26:17Z</time>
      </trkpt>
      <trkpt lat="45.99008" lon="5.54848">
        <ele>875.4</ele>
        <time>2026-05-11T14:26:18Z</time>
      </trkpt>
      <trkpt lat="45.99007" lon="5.54853">
        <ele>875</ele>
        <time>2026-05-11T14:26:21Z</time>
      </trkpt>
      <trkpt lat="45.99006" lon="5.54855">
        <ele>873.8</ele>
        <time>2026-05-11T14:26:22Z</time>
      </trkpt>
      <trkpt lat="45.99004" lon="5.54858">
        <ele>873.8</ele>
        <time>2026-05-11T14:26:23Z</time>
      </trkpt>
      <trkpt lat="45.99003" lon="5.54861">
        <ele>874.2</ele>
        <time>2026-05-11T14:26:24Z</time>
      </trkpt>
      <trkpt lat="45.99002" lon="5.54864">
        <ele>874.2</ele>
        <time>2026-05-11T14:26:25Z</time>
      </trkpt>
      <trkpt lat="45.99001" lon="5.54867">
        <ele>874.2</ele>
        <time>2026-05-11T14:26:26Z</time>
      </trkpt>
      <trkpt lat="45.99" lon="5.54871">
        <ele>874.2</ele>
        <time>2026-05-11T14:26:27Z</time>
      </trkpt>
      <trkpt lat="45.98998" lon="5.54874">
        <ele>874.6</ele>
        <time>2026-05-11T14:26:28Z</time>
      </trkpt>
      <trkpt lat="45.98996" lon="5.54878">
        <ele>874.2</ele>
        <time>2026-05-11T14:26:29Z</time>
      </trkpt>
      <trkpt lat="45.98994" lon="5.54882">
        <ele>874.2</ele>
        <time>2026-05-11T14:26:30Z</time>
      </trkpt>
      <trkpt lat="45.98992" lon="5.54886">
        <ele>874.6</ele>
        <time>2026-05-11T14:26:31Z</time>
      </trkpt>
      <trkpt lat="45.98991" lon="5.54891">
        <ele>874.2</ele>
        <time>2026-05-11T14:26:32Z</time>
      </trkpt>
      <trkpt lat="45.98989" lon="5.54897">
        <ele>873.4</ele>
        <time>2026-05-11T14:26:33Z</time>
      </trkpt>
      <trkpt lat="45.98987" lon="5.54902">
        <ele>873</ele>
        <time>2026-05-11T14:26:34Z</time>
      </trkpt>
      <trkpt lat="45.98986" lon="5.54908">
        <ele>872.8</ele>
        <time>2026-05-11T14:26:35Z</time>
      </trkpt>
      <trkpt lat="45.98984" lon="5.54913">
        <ele>872.2</ele>
        <time>2026-05-11T14:26:36Z</time>
      </trkpt>
      <trkpt lat="45.98983" lon="5.54918">
        <ele>871.6</ele>
        <time>2026-05-11T14:26:37Z</time>
      </trkpt>
      <trkpt lat="45.98982" lon="5.54923">
        <ele>871.2</ele>
        <time>2026-05-11T14:26:38Z</time>
      </trkpt>
      <trkpt lat="45.9898" lon="5.54928">
        <ele>871.2</ele>
        <time>2026-05-11T14:26:39Z</time>
      </trkpt>
      <trkpt lat="45.98979" lon="5.54933">
        <ele>871.2</ele>
        <time>2026-05-11T14:26:40Z</time>
      </trkpt>
      <trkpt lat="45.98978" lon="5.54937">
        <ele>870.8</ele>
        <time>2026-05-11T14:26:41Z</time>
      </trkpt>
      <trkpt lat="45.98976" lon="5.54941">
        <ele>870.8</ele>
        <time>2026-05-11T14:26:42Z</time>
      </trkpt>
      <trkpt lat="45.98975" lon="5.54944">
        <ele>870.6</ele>
        <time>2026-05-11T14:26:43Z</time>
      </trkpt>
      <trkpt lat="45.98973" lon="5.54947">
        <ele>870.6</ele>
        <time>2026-05-11T14:26:44Z</time>
      </trkpt>
      <trkpt lat="45.98971" lon="5.54951">
        <ele>870.4</ele>
        <time>2026-05-11T14:26:45Z</time>
      </trkpt>
      <trkpt lat="45.98969" lon="5.54953">
        <ele>870.4</ele>
        <time>2026-05-11T14:26:46Z</time>
      </trkpt>
      <trkpt lat="45.98968" lon="5.54956">
        <ele>870.4</ele>
        <time>2026-05-11T14:26:47Z</time>
      </trkpt>
      <trkpt lat="45.98967" lon="5.5496">
        <ele>870</ele>
        <time>2026-05-11T14:26:48Z</time>
      </trkpt>
      <trkpt lat="45.98965" lon="5.54963">
        <ele>870</ele>
        <time>2026-05-11T14:26:49Z</time>
      </trkpt>
      <trkpt lat="45.98963" lon="5.54966">
        <ele>869.6</ele>
        <time>2026-05-11T14:26:50Z</time>
      </trkpt>
      <trkpt lat="45.98962" lon="5.5497">
        <ele>869</ele>
        <time>2026-05-11T14:26:51Z</time>
      </trkpt>
      <trkpt lat="45.98961" lon="5.54973">
        <ele>869</ele>
        <time>2026-05-11T14:26:52Z</time>
      </trkpt>
      <trkpt lat="45.98959" lon="5.54978">
        <ele>869</ele>
        <time>2026-05-11T14:26:53Z</time>
      </trkpt>
      <trkpt lat="45.98957" lon="5.54982">
        <ele>869.2</ele>
        <time>2026-05-11T14:26:54Z</time>
      </trkpt>
      <trkpt lat="45.98956" lon="5.54987">
        <ele>869</ele>
        <time>2026-05-11T14:26:55Z</time>
      </trkpt>
      <trkpt lat="45.98954" lon="5.54991">
        <ele>869</ele>
        <time>2026-05-11T14:26:56Z</time>
      </trkpt>
      <trkpt lat="45.98952" lon="5.54995">
        <ele>869</ele>
        <time>2026-05-11T14:26:57Z</time>
      </trkpt>
      <trkpt lat="45.9895" lon="5.55">
        <ele>868.8</ele>
        <time>2026-05-11T14:26:58Z</time>
      </trkpt>
      <trkpt lat="45.98949" lon="5.55005">
        <ele>868.8</ele>
        <time>2026-05-11T14:26:59Z</time>
      </trkpt>
      <trkpt lat="45.98947" lon="5.55009">
        <ele>868.8</ele>
        <time>2026-05-11T14:27:00Z</time>
      </trkpt>
      <trkpt lat="45.98946" lon="5.55013">
        <ele>868.6</ele>
        <time>2026-05-11T14:27:01Z</time>
      </trkpt>
      <trkpt lat="45.98945" lon="5.55016">
        <ele>868.6</ele>
        <time>2026-05-11T14:27:02Z</time>
      </trkpt>
      <trkpt lat="45.98943" lon="5.5502">
        <ele>868.6</ele>
        <time>2026-05-11T14:27:03Z</time>
      </trkpt>
      <trkpt lat="45.98942" lon="5.55025">
        <ele>868</ele>
        <time>2026-05-11T14:27:04Z</time>
      </trkpt>
      <trkpt lat="45.98941" lon="5.55029">
        <ele>868.4</ele>
        <time>2026-05-11T14:27:05Z</time>
      </trkpt>
      <trkpt lat="45.9894" lon="5.55033">
        <ele>868.2</ele>
        <time>2026-05-11T14:27:06Z</time>
      </trkpt>
      <trkpt lat="45.9894" lon="5.55038">
        <ele>867.6</ele>
        <time>2026-05-11T14:27:07Z</time>
      </trkpt>
      <trkpt lat="45.9894" lon="5.55043">
        <ele>867.6</ele>
        <time>2026-05-11T14:27:08Z</time>
      </trkpt>
      <trkpt lat="45.9894" lon="5.55047">
        <ele>868</ele>
        <time>2026-05-11T14:27:09Z</time>
      </trkpt>
      <trkpt lat="45.9894" lon="5.55052">
        <ele>868</ele>
        <time>2026-05-11T14:27:10Z</time>
      </trkpt>
      <trkpt lat="45.98939" lon="5.55056">
        <ele>868</ele>
        <time>2026-05-11T14:27:11Z</time>
      </trkpt>
      <trkpt lat="45.98939" lon="5.55061">
        <ele>868</ele>
        <time>2026-05-11T14:27:12Z</time>
      </trkpt>
      <trkpt lat="45.98938" lon="5.55065">
        <ele>868</ele>
        <time>2026-05-11T14:27:13Z</time>
      </trkpt>
      <trkpt lat="45.98937" lon="5.55069">
        <ele>868</ele>
        <time>2026-05-11T14:27:14Z</time>
      </trkpt>
      <trkpt lat="45.98937" lon="5.55074">
        <ele>868</ele>
        <time>2026-05-11T14:27:15Z</time>
      </trkpt>
      <trkpt lat="45.98937" lon="5.55078">
        <ele>868</ele>
        <time>2026-05-11T14:27:16Z</time>
      </trkpt>
      <trkpt lat="45.98937" lon="5.5508">
        <ele>868</ele>
        <time>2026-05-11T14:27:17Z</time>
      </trkpt>
      <trkpt lat="45.98937" lon="5.55083">
        <ele>868.2</ele>
        <time>2026-05-11T14:27:18Z</time>
      </trkpt>
      <trkpt lat="45.98937" lon="5.55085">
        <ele>868.4</ele>
        <time>2026-05-11T14:27:19Z</time>
      </trkpt>
      <trkpt lat="45.98936" lon="5.55088">
        <ele>868.4</ele>
        <time>2026-05-11T14:27:20Z</time>
      </trkpt>
      <trkpt lat="45.98936" lon="5.55092">
        <ele>868.4</ele>
        <time>2026-05-11T14:27:21Z</time>
      </trkpt>
      <trkpt lat="45.98936" lon="5.55097">
        <ele>868.4</ele>
        <time>2026-05-11T14:27:22Z</time>
      </trkpt>
      <trkpt lat="45.98936" lon="5.55103">
        <ele>868.2</ele>
        <time>2026-05-11T14:27:23Z</time>
      </trkpt>
      <trkpt lat="45.98936" lon="5.55109">
        <ele>867.8</ele>
        <time>2026-05-11T14:27:24Z</time>
      </trkpt>
      <trkpt lat="45.98936" lon="5.55109">
        <ele>867.6</ele>
        <time>2026-05-11T14:27:25Z</time>
      </trkpt>
      <trkpt lat="45.98935" lon="5.55115">
        <ele>867.6</ele>
        <time>2026-05-11T14:27:26Z</time>
      </trkpt>
      <trkpt lat="45.98934" lon="5.55121">
        <ele>867.4</ele>
        <time>2026-05-11T14:27:27Z</time>
      </trkpt>
      <trkpt lat="45.98934" lon="5.55126">
        <ele>867.4</ele>
        <time>2026-05-11T14:27:28Z</time>
      </trkpt>
      <trkpt lat="45.98934" lon="5.55131">
        <ele>867</ele>
        <time>2026-05-11T14:27:29Z</time>
      </trkpt>
      <trkpt lat="45.98934" lon="5.55137">
        <ele>866.8</ele>
        <time>2026-05-11T14:27:30Z</time>
      </trkpt>
      <trkpt lat="45.98934" lon="5.55142">
        <ele>866.4</ele>
        <time>2026-05-11T14:27:31Z</time>
      </trkpt>
      <trkpt lat="45.98934" lon="5.55147">
        <ele>866</ele>
        <time>2026-05-11T14:27:32Z</time>
      </trkpt>
      <trkpt lat="45.98933" lon="5.55152">
        <ele>866</ele>
        <time>2026-05-11T14:27:33Z</time>
      </trkpt>
      <trkpt lat="45.98933" lon="5.55158">
        <ele>866</ele>
        <time>2026-05-11T14:27:34Z</time>
      </trkpt>
      <trkpt lat="45.98933" lon="5.55164">
        <ele>866</ele>
        <time>2026-05-11T14:27:35Z</time>
      </trkpt>
      <trkpt lat="45.98932" lon="5.55169">
        <ele>865.2</ele>
        <time>2026-05-11T14:27:36Z</time>
      </trkpt>
      <trkpt lat="45.98932" lon="5.55174">
        <ele>864.8</ele>
        <time>2026-05-11T14:27:37Z</time>
      </trkpt>
      <trkpt lat="45.98931" lon="5.55179">
        <ele>864.8</ele>
        <time>2026-05-11T14:27:38Z</time>
      </trkpt>
      <trkpt lat="45.98931" lon="5.55184">
        <ele>864.8</ele>
        <time>2026-05-11T14:27:39Z</time>
      </trkpt>
      <trkpt lat="45.9893" lon="5.55189">
        <ele>864.8</ele>
        <time>2026-05-11T14:27:40Z</time>
      </trkpt>
      <trkpt lat="45.9893" lon="5.55193">
        <ele>864.4</ele>
        <time>2026-05-11T14:27:41Z</time>
      </trkpt>
      <trkpt lat="45.98929" lon="5.55198">
        <ele>864</ele>
        <time>2026-05-11T14:27:42Z</time>
      </trkpt>
      <trkpt lat="45.98928" lon="5.55204">
        <ele>863.8</ele>
        <time>2026-05-11T14:27:43Z</time>
      </trkpt>
      <trkpt lat="45.98927" lon="5.55209">
        <ele>863.8</ele>
        <time>2026-05-11T14:27:44Z</time>
      </trkpt>
      <trkpt lat="45.98927" lon="5.55214">
        <ele>863.4</ele>
        <time>2026-05-11T14:27:45Z</time>
      </trkpt>
      <trkpt lat="45.98926" lon="5.55219">
        <ele>863.4</ele>
        <time>2026-05-11T14:27:46Z</time>
      </trkpt>
      <trkpt lat="45.98925" lon="5.55223">
        <ele>862.6</ele>
        <time>2026-05-11T14:27:47Z</time>
      </trkpt>
      <trkpt lat="45.98925" lon="5.55227">
        <ele>862.6</ele>
        <time>2026-05-11T14:27:48Z</time>
      </trkpt>
      <trkpt lat="45.98924" lon="5.55231">
        <ele>862.2</ele>
        <time>2026-05-11T14:27:49Z</time>
      </trkpt>
      <trkpt lat="45.98924" lon="5.55236">
        <ele>862.2</ele>
        <time>2026-05-11T14:27:50Z</time>
      </trkpt>
      <trkpt lat="45.98924" lon="5.55241">
        <ele>862.2</ele>
        <time>2026-05-11T14:27:51Z</time>
      </trkpt>
      <trkpt lat="45.98925" lon="5.55247">
        <ele>861.8</ele>
        <time>2026-05-11T14:27:52Z</time>
      </trkpt>
      <trkpt lat="45.98925" lon="5.55251">
        <ele>861.8</ele>
        <time>2026-05-11T14:27:53Z</time>
      </trkpt>
      <trkpt lat="45.98924" lon="5.55256">
        <ele>861.4</ele>
        <time>2026-05-11T14:27:54Z</time>
      </trkpt>
      <trkpt lat="45.98923" lon="5.55263">
        <ele>861.2</ele>
        <time>2026-05-11T14:27:55Z</time>
      </trkpt>
      <trkpt lat="45.98923" lon="5.55268">
        <ele>861</ele>
        <time>2026-05-11T14:27:56Z</time>
      </trkpt>
      <trkpt lat="45.98924" lon="5.55274">
        <ele>861</ele>
        <time>2026-05-11T14:27:57Z</time>
      </trkpt>
      <trkpt lat="45.98925" lon="5.5528">
        <ele>860.6</ele>
        <time>2026-05-11T14:27:58Z</time>
      </trkpt>
      <trkpt lat="45.98926" lon="5.55284">
        <ele>860.2</ele>
        <time>2026-05-11T14:27:59Z</time>
      </trkpt>
      <trkpt lat="45.98927" lon="5.55289">
        <ele>859.2</ele>
        <time>2026-05-11T14:28:00Z</time>
      </trkpt>
      <trkpt lat="45.98929" lon="5.55294">
        <ele>858.8</ele>
        <time>2026-05-11T14:28:01Z</time>
      </trkpt>
      <trkpt lat="45.9893" lon="5.55301">
        <ele>858.4</ele>
        <time>2026-05-11T14:28:02Z</time>
      </trkpt>
      <trkpt lat="45.98929" lon="5.55309">
        <ele>857.8</ele>
        <time>2026-05-11T14:28:03Z</time>
      </trkpt>
      <trkpt lat="45.98929" lon="5.55313">
        <ele>857.2</ele>
        <time>2026-05-11T14:28:04Z</time>
      </trkpt>
      <trkpt lat="45.9893" lon="5.55319">
        <ele>856.2</ele>
        <time>2026-05-11T14:28:05Z</time>
      </trkpt>
      <trkpt lat="45.9893" lon="5.55327">
        <ele>855.8</ele>
        <time>2026-05-11T14:28:06Z</time>
      </trkpt>
      <trkpt lat="45.98932" lon="5.55337">
        <ele>855.8</ele>
        <time>2026-05-11T14:28:07Z</time>
      </trkpt>
      <trkpt lat="45.98935" lon="5.55348">
        <ele>855.2</ele>
        <time>2026-05-11T14:28:08Z</time>
      </trkpt>
      <trkpt lat="45.9894" lon="5.5536">
        <ele>854.6</ele>
        <time>2026-05-11T14:28:09Z</time>
      </trkpt>
      <trkpt lat="45.98943" lon="5.5537">
        <ele>854</ele>
        <time>2026-05-11T14:28:10Z</time>
      </trkpt>
      <trkpt lat="45.98947" lon="5.5538">
        <ele>854</ele>
        <time>2026-05-11T14:28:11Z</time>
      </trkpt>
      <trkpt lat="45.98947" lon="5.55389">
        <ele>853.4</ele>
        <time>2026-05-11T14:28:12Z</time>
      </trkpt>
      <trkpt lat="45.98948" lon="5.554">
        <ele>852.6</ele>
        <time>2026-05-11T14:28:13Z</time>
      </trkpt>
      <trkpt lat="45.98949" lon="5.55412">
        <ele>851.6</ele>
        <time>2026-05-11T14:28:14Z</time>
      </trkpt>
      <trkpt lat="45.9895" lon="5.55422">
        <ele>851</ele>
        <time>2026-05-11T14:28:15Z</time>
      </trkpt>
      <trkpt lat="45.98951" lon="5.55433">
        <ele>850.4</ele>
        <time>2026-05-11T14:28:16Z</time>
      </trkpt>
      <trkpt lat="45.98952" lon="5.55443">
        <ele>849.6</ele>
        <time>2026-05-11T14:28:17Z</time>
      </trkpt>
      <trkpt lat="45.98953" lon="5.55454">
        <ele>849.2</ele>
        <time>2026-05-11T14:28:18Z</time>
      </trkpt>
      <trkpt lat="45.98953" lon="5.55463">
        <ele>850</ele>
        <time>2026-05-11T14:28:19Z</time>
      </trkpt>
      <trkpt lat="45.98953" lon="5.55471">
        <ele>850</ele>
        <time>2026-05-11T14:28:20Z</time>
      </trkpt>
      <trkpt lat="45.98953" lon="5.55479">
        <ele>850</ele>
        <time>2026-05-11T14:28:21Z</time>
      </trkpt>
      <trkpt lat="45.98954" lon="5.55485">
        <ele>850</ele>
        <time>2026-05-11T14:28:22Z</time>
      </trkpt>
      <trkpt lat="45.98955" lon="5.55492">
        <ele>850.6</ele>
        <time>2026-05-11T14:28:23Z</time>
      </trkpt>
      <trkpt lat="45.98955" lon="5.55498">
        <ele>850.6</ele>
        <time>2026-05-11T14:28:24Z</time>
      </trkpt>
      <trkpt lat="45.98955" lon="5.55504">
        <ele>850.6</ele>
        <time>2026-05-11T14:28:25Z</time>
      </trkpt>
      <trkpt lat="45.98955" lon="5.55511">
        <ele>850.6</ele>
        <time>2026-05-11T14:28:26Z</time>
      </trkpt>
      <trkpt lat="45.98955" lon="5.55518">
        <ele>850.2</ele>
        <time>2026-05-11T14:28:27Z</time>
      </trkpt>
      <trkpt lat="45.98955" lon="5.55525">
        <ele>850.2</ele>
        <time>2026-05-11T14:28:28Z</time>
      </trkpt>
      <trkpt lat="45.98955" lon="5.55532">
        <ele>850.4</ele>
        <time>2026-05-11T14:28:29Z</time>
      </trkpt>
      <trkpt lat="45.98955" lon="5.55539">
        <ele>849.8</ele>
        <time>2026-05-11T14:28:30Z</time>
      </trkpt>
      <trkpt lat="45.98956" lon="5.55546">
        <ele>849.8</ele>
        <time>2026-05-11T14:28:31Z</time>
      </trkpt>
      <trkpt lat="45.98956" lon="5.55551">
        <ele>849.8</ele>
        <time>2026-05-11T14:28:32Z</time>
      </trkpt>
      <trkpt lat="45.98958" lon="5.55558">
        <ele>849.8</ele>
        <time>2026-05-11T14:28:33Z</time>
      </trkpt>
      <trkpt lat="45.98959" lon="5.55563">
        <ele>849.8</ele>
        <time>2026-05-11T14:28:34Z</time>
      </trkpt>
      <trkpt lat="45.98959" lon="5.55569">
        <ele>849.8</ele>
        <time>2026-05-11T14:28:35Z</time>
      </trkpt>
      <trkpt lat="45.9896" lon="5.55574">
        <ele>849.6</ele>
        <time>2026-05-11T14:28:36Z</time>
      </trkpt>
      <trkpt lat="45.98961" lon="5.55577">
        <ele>849.6</ele>
        <time>2026-05-11T14:28:37Z</time>
      </trkpt>
      <trkpt lat="45.98961" lon="5.55578">
        <ele>849.6</ele>
        <time>2026-05-11T14:28:38Z</time>
      </trkpt>
      <trkpt lat="45.98962" lon="5.5558">
        <ele>849.6</ele>
        <time>2026-05-11T14:28:39Z</time>
      </trkpt>
      <trkpt lat="45.98962" lon="5.5558">
        <ele>849.8</ele>
        <time>2026-05-11T14:28:40Z</time>
      </trkpt>
      <trkpt lat="45.98962" lon="5.55583">
        <ele>850</ele>
        <time>2026-05-11T14:29:35Z</time>
      </trkpt>
      <trkpt lat="45.98962" lon="5.55584">
        <ele>850</ele>
        <time>2026-05-11T14:29:36Z</time>
      </trkpt>
      <trkpt lat="45.98962" lon="5.55586">
        <ele>850</ele>
        <time>2026-05-11T14:29:37Z</time>
      </trkpt>
      <trkpt lat="45.98962" lon="5.55587">
        <ele>850</ele>
        <time>2026-05-11T14:29:38Z</time>
      </trkpt>
      <trkpt lat="45.98962" lon="5.55587">
        <ele>850</ele>
        <time>2026-05-11T14:29:39Z</time>
      </trkpt>
      <trkpt lat="45.98963" lon="5.55587">
        <ele>849.8</ele>
        <time>2026-05-11T14:29:40Z</time>
      </trkpt>
      <trkpt lat="45.98961" lon="5.55584">
        <ele>849.6</ele>
        <time>2026-05-11T14:30:22Z</time>
      </trkpt>
      <trkpt lat="45.98961" lon="5.55584">
        <ele>849.6</ele>
        <time>2026-05-11T14:30:23Z</time>
      </trkpt>
      <trkpt lat="45.9896" lon="5.55588">
        <ele>849.6</ele>
        <time>2026-05-11T14:32:18Z</time>
      </trkpt>
      <trkpt lat="45.9896" lon="5.5559">
        <ele>849.6</ele>
        <time>2026-05-11T14:32:19Z</time>
      </trkpt>
      <trkpt lat="45.9896" lon="5.55592">
        <ele>849.6</ele>
        <time>2026-05-11T14:32:20Z</time>
      </trkpt>
      <trkpt lat="45.98961" lon="5.55593">
        <ele>849.6</ele>
        <time>2026-05-11T14:32:21Z</time>
      </trkpt>
      <trkpt lat="45.98961" lon="5.55593">
        <ele>849.6</ele>
        <time>2026-05-11T14:32:22Z</time>
      </trkpt>
      <trkpt lat="45.98961" lon="5.55592">
        <ele>849.8</ele>
        <time>2026-05-11T14:32:23Z</time>
      </trkpt>
      <trkpt lat="45.98961" lon="5.55598">
        <ele>850</ele>
        <time>2026-05-11T14:32:52Z</time>
      </trkpt>
      <trkpt lat="45.98961" lon="5.55601">
        <ele>850</ele>
        <time>2026-05-11T14:32:53Z</time>
      </trkpt>
      <trkpt lat="45.98961" lon="5.55603">
        <ele>850</ele>
        <time>2026-05-11T14:32:54Z</time>
      </trkpt>
      <trkpt lat="45.98962" lon="5.55605">
        <ele>850</ele>
        <time>2026-05-11T14:32:55Z</time>
      </trkpt>
      <trkpt lat="45.98962" lon="5.55606">
        <ele>850</ele>
        <time>2026-05-11T14:32:56Z</time>
      </trkpt>
      <trkpt lat="45.98962" lon="5.55607">
        <ele>850</ele>
        <time>2026-05-11T14:32:57Z</time>
      </trkpt>
      <trkpt lat="45.98962" lon="5.55608">
        <ele>850</ele>
        <time>2026-05-11T14:32:58Z</time>
      </trkpt>
      <trkpt lat="45.98962" lon="5.5561">
        <ele>849.8</ele>
        <time>2026-05-11T14:32:59Z</time>
      </trkpt>
      <trkpt lat="45.98962" lon="5.55612">
        <ele>849.8</ele>
        <time>2026-05-11T14:33:00Z</time>
      </trkpt>
      <trkpt lat="45.98962" lon="5.55613">
        <ele>849.8</ele>
        <time>2026-05-11T14:33:01Z</time>
      </trkpt>
      <trkpt lat="45.98962" lon="5.55615">
        <ele>850</ele>
        <time>2026-05-11T14:33:02Z</time>
      </trkpt>
      <trkpt lat="45.98961" lon="5.55618">
        <ele>850</ele>
        <time>2026-05-11T14:33:03Z</time>
      </trkpt>
      <trkpt lat="45.9896" lon="5.55623">
        <ele>849.6</ele>
        <time>2026-05-11T14:33:04Z</time>
      </trkpt>
      <trkpt lat="45.98958" lon="5.55627">
        <ele>849.6</ele>
        <time>2026-05-11T14:33:05Z</time>
      </trkpt>
      <trkpt lat="45.98955" lon="5.55631">
        <ele>849.4</ele>
        <time>2026-05-11T14:33:06Z</time>
      </trkpt>
      <trkpt lat="45.98952" lon="5.55636">
        <ele>849</ele>
        <time>2026-05-11T14:33:07Z</time>
      </trkpt>
      <trkpt lat="45.98949" lon="5.55641">
        <ele>849</ele>
        <time>2026-05-11T14:33:08Z</time>
      </trkpt>
      <trkpt lat="45.98945" lon="5.55647">
        <ele>849</ele>
        <time>2026-05-11T14:33:09Z</time>
      </trkpt>
      <trkpt lat="45.98942" lon="5.55653">
        <ele>848.6</ele>
        <time>2026-05-11T14:33:10Z</time>
      </trkpt>
      <trkpt lat="45.98938" lon="5.55661">
        <ele>848.6</ele>
        <time>2026-05-11T14:33:11Z</time>
      </trkpt>
      <trkpt lat="45.98934" lon="5.55668">
        <ele>848.2</ele>
        <time>2026-05-11T14:33:12Z</time>
      </trkpt>
      <trkpt lat="45.9893" lon="5.55676">
        <ele>847.6</ele>
        <time>2026-05-11T14:33:13Z</time>
      </trkpt>
      <trkpt lat="45.98925" lon="5.55684">
        <ele>846.8</ele>
        <time>2026-05-11T14:33:14Z</time>
      </trkpt>
      <trkpt lat="45.9892" lon="5.55692">
        <ele>846.2</ele>
        <time>2026-05-11T14:33:15Z</time>
      </trkpt>
      <trkpt lat="45.98915" lon="5.55701">
        <ele>845.6</ele>
        <time>2026-05-11T14:33:16Z</time>
      </trkpt>
      <trkpt lat="45.98911" lon="5.55711">
        <ele>844.8</ele>
        <time>2026-05-11T14:33:17Z</time>
      </trkpt>
      <trkpt lat="45.98907" lon="5.5572">
        <ele>844</ele>
        <time>2026-05-11T14:33:18Z</time>
      </trkpt>
      <trkpt lat="45.98903" lon="5.55731">
        <ele>843.2</ele>
        <time>2026-05-11T14:33:19Z</time>
      </trkpt>
      <trkpt lat="45.98899" lon="5.55741">
        <ele>842.2</ele>
        <time>2026-05-11T14:33:20Z</time>
      </trkpt>
      <trkpt lat="45.98894" lon="5.55751">
        <ele>841.6</ele>
        <time>2026-05-11T14:33:21Z</time>
      </trkpt>
      <trkpt lat="45.9889" lon="5.55762">
        <ele>840.6</ele>
        <time>2026-05-11T14:33:22Z</time>
      </trkpt>
      <trkpt lat="45.98885" lon="5.55772">
        <ele>839.6</ele>
        <time>2026-05-11T14:33:23Z</time>
      </trkpt>
      <trkpt lat="45.9888" lon="5.55783">
        <ele>838.6</ele>
        <time>2026-05-11T14:33:24Z</time>
      </trkpt>
      <trkpt lat="45.98875" lon="5.55794">
        <ele>837.4</ele>
        <time>2026-05-11T14:33:25Z</time>
      </trkpt>
      <trkpt lat="45.98871" lon="5.55805">
        <ele>836.6</ele>
        <time>2026-05-11T14:33:26Z</time>
      </trkpt>
      <trkpt lat="45.98866" lon="5.55815">
        <ele>835.6</ele>
        <time>2026-05-11T14:33:27Z</time>
      </trkpt>
      <trkpt lat="45.98861" lon="5.55825">
        <ele>835.2</ele>
        <time>2026-05-11T14:33:28Z</time>
      </trkpt>
      <trkpt lat="45.98856" lon="5.55836">
        <ele>835</ele>
        <time>2026-05-11T14:33:29Z</time>
      </trkpt>
      <trkpt lat="45.98852" lon="5.55847">
        <ele>834.6</ele>
        <time>2026-05-11T14:33:30Z</time>
      </trkpt>
      <trkpt lat="45.98847" lon="5.55857">
        <ele>833.4</ele>
        <time>2026-05-11T14:33:31Z</time>
      </trkpt>
      <trkpt lat="45.98842" lon="5.55868">
        <ele>832.8</ele>
        <time>2026-05-11T14:33:32Z</time>
      </trkpt>
      <trkpt lat="45.98837" lon="5.55879">
        <ele>832</ele>
        <time>2026-05-11T14:33:33Z</time>
      </trkpt>
      <trkpt lat="45.98832" lon="5.5589">
        <ele>831.2</ele>
        <time>2026-05-11T14:33:34Z</time>
      </trkpt>
      <trkpt lat="45.98827" lon="5.55901">
        <ele>831.2</ele>
        <time>2026-05-11T14:33:35Z</time>
      </trkpt>
      <trkpt lat="45.98823" lon="5.55913">
        <ele>830.8</ele>
        <time>2026-05-11T14:33:36Z</time>
      </trkpt>
      <trkpt lat="45.98818" lon="5.55924">
        <ele>830.6</ele>
        <time>2026-05-11T14:33:37Z</time>
      </trkpt>
      <trkpt lat="45.98813" lon="5.55935">
        <ele>830.2</ele>
        <time>2026-05-11T14:33:38Z</time>
      </trkpt>
      <trkpt lat="45.98808" lon="5.55947">
        <ele>830.2</ele>
        <time>2026-05-11T14:33:39Z</time>
      </trkpt>
      <trkpt lat="45.98803" lon="5.55958">
        <ele>830</ele>
        <time>2026-05-11T14:33:40Z</time>
      </trkpt>
      <trkpt lat="45.98799" lon="5.5597">
        <ele>829.6</ele>
        <time>2026-05-11T14:33:41Z</time>
      </trkpt>
      <trkpt lat="45.98794" lon="5.55982">
        <ele>829.2</ele>
        <time>2026-05-11T14:33:42Z</time>
      </trkpt>
      <trkpt lat="45.9879" lon="5.55994">
        <ele>828.8</ele>
        <time>2026-05-11T14:33:43Z</time>
      </trkpt>
      <trkpt lat="45.98785" lon="5.56005">
        <ele>828.4</ele>
        <time>2026-05-11T14:33:44Z</time>
      </trkpt>
      <trkpt lat="45.9878" lon="5.56017">
        <ele>828</ele>
        <time>2026-05-11T14:33:45Z</time>
      </trkpt>
      <trkpt lat="45.98776" lon="5.56029">
        <ele>827.4</ele>
        <time>2026-05-11T14:33:46Z</time>
      </trkpt>
      <trkpt lat="45.98771" lon="5.56041">
        <ele>826.8</ele>
        <time>2026-05-11T14:33:47Z</time>
      </trkpt>
      <trkpt lat="45.98766" lon="5.56053">
        <ele>826.2</ele>
        <time>2026-05-11T14:33:48Z</time>
      </trkpt>
      <trkpt lat="45.98761" lon="5.56065">
        <ele>826</ele>
        <time>2026-05-11T14:33:49Z</time>
      </trkpt>
      <trkpt lat="45.98756" lon="5.56076">
        <ele>825.6</ele>
        <time>2026-05-11T14:33:50Z</time>
      </trkpt>
      <trkpt lat="45.9875" lon="5.56088">
        <ele>825.2</ele>
        <time>2026-05-11T14:33:51Z</time>
      </trkpt>
      <trkpt lat="45.98745" lon="5.56099">
        <ele>824.8</ele>
        <time>2026-05-11T14:33:52Z</time>
      </trkpt>
      <trkpt lat="45.98739" lon="5.56109">
        <ele>824.2</ele>
        <time>2026-05-11T14:33:53Z</time>
      </trkpt>
      <trkpt lat="45.98732" lon="5.56119">
        <ele>824.2</ele>
        <time>2026-05-11T14:33:54Z</time>
      </trkpt>
      <trkpt lat="45.98726" lon="5.56128">
        <ele>824.2</ele>
        <time>2026-05-11T14:33:55Z</time>
      </trkpt>
      <trkpt lat="45.9872" lon="5.56137">
        <ele>824.4</ele>
        <time>2026-05-11T14:33:56Z</time>
      </trkpt>
      <trkpt lat="45.98713" lon="5.56145">
        <ele>824.2</ele>
        <time>2026-05-11T14:33:57Z</time>
      </trkpt>
      <trkpt lat="45.98707" lon="5.56152">
        <ele>823.6</ele>
        <time>2026-05-11T14:33:58Z</time>
      </trkpt>
      <trkpt lat="45.98701" lon="5.56159">
        <ele>823.6</ele>
        <time>2026-05-11T14:33:59Z</time>
      </trkpt>
      <trkpt lat="45.98701" lon="5.56159">
        <ele>823.8</ele>
        <time>2026-05-11T14:34:00Z</time>
      </trkpt>
      <trkpt lat="45.98688" lon="5.56171">
        <ele>824.2</ele>
        <time>2026-05-11T14:34:01Z</time>
      </trkpt>
      <trkpt lat="45.98688" lon="5.56171">
        <ele>824.2</ele>
        <time>2026-05-11T14:34:02Z</time>
      </trkpt>
      <trkpt lat="45.98683" lon="5.56177">
        <ele>824.2</ele>
        <time>2026-05-11T14:34:03Z</time>
      </trkpt>
      <trkpt lat="45.98677" lon="5.56181">
        <ele>824.2</ele>
        <time>2026-05-11T14:34:04Z</time>
      </trkpt>
      <trkpt lat="45.98671" lon="5.56186">
        <ele>824.6</ele>
        <time>2026-05-11T14:34:05Z</time>
      </trkpt>
      <trkpt lat="45.98666" lon="5.5619">
        <ele>824</ele>
        <time>2026-05-11T14:34:06Z</time>
      </trkpt>
      <trkpt lat="45.98661" lon="5.56194">
        <ele>824</ele>
        <time>2026-05-11T14:34:07Z</time>
      </trkpt>
      <trkpt lat="45.98656" lon="5.56197">
        <ele>825.4</ele>
        <time>2026-05-11T14:34:08Z</time>
      </trkpt>
      <trkpt lat="45.98653" lon="5.56199">
        <ele>825</ele>
        <time>2026-05-11T14:34:09Z</time>
      </trkpt>
      <trkpt lat="45.98649" lon="5.56201">
        <ele>826</ele>
        <time>2026-05-11T14:34:10Z</time>
      </trkpt>
      <trkpt lat="45.98645" lon="5.56203">
        <ele>826.6</ele>
        <time>2026-05-11T14:34:11Z</time>
      </trkpt>
      <trkpt lat="45.98642" lon="5.56204">
        <ele>826.8</ele>
        <time>2026-05-11T14:34:12Z</time>
      </trkpt>
      <trkpt lat="45.98639" lon="5.56206">
        <ele>827</ele>
        <time>2026-05-11T14:34:13Z</time>
      </trkpt>
      <trkpt lat="45.98636" lon="5.56208">
        <ele>827.4</ele>
        <time>2026-05-11T14:34:14Z</time>
      </trkpt>
      <trkpt lat="45.98633" lon="5.56209">
        <ele>827.8</ele>
        <time>2026-05-11T14:34:15Z</time>
      </trkpt>
      <trkpt lat="45.9863" lon="5.56211">
        <ele>827.8</ele>
        <time>2026-05-11T14:34:16Z</time>
      </trkpt>
      <trkpt lat="45.98627" lon="5.56213">
        <ele>827.8</ele>
        <time>2026-05-11T14:34:17Z</time>
      </trkpt>
      <trkpt lat="45.98624" lon="5.56215">
        <ele>828.2</ele>
        <time>2026-05-11T14:34:18Z</time>
      </trkpt>
      <trkpt lat="45.98621" lon="5.56217">
        <ele>828.4</ele>
        <time>2026-05-11T14:34:19Z</time>
      </trkpt>
      <trkpt lat="45.98618" lon="5.56218">
        <ele>828.4</ele>
        <time>2026-05-11T14:34:20Z</time>
      </trkpt>
      <trkpt lat="45.98614" lon="5.56219">
        <ele>828.4</ele>
        <time>2026-05-11T14:34:21Z</time>
      </trkpt>
      <trkpt lat="45.98611" lon="5.56221">
        <ele>828.4</ele>
        <time>2026-05-11T14:34:22Z</time>
      </trkpt>
      <trkpt lat="45.98607" lon="5.56222">
        <ele>828.4</ele>
        <time>2026-05-11T14:34:23Z</time>
      </trkpt>
      <trkpt lat="45.98603" lon="5.56223">
        <ele>828.4</ele>
        <time>2026-05-11T14:34:24Z</time>
      </trkpt>
      <trkpt lat="45.98598" lon="5.56224">
        <ele>828.4</ele>
        <time>2026-05-11T14:34:25Z</time>
      </trkpt>
      <trkpt lat="45.98594" lon="5.56226">
        <ele>828.8</ele>
        <time>2026-05-11T14:34:26Z</time>
      </trkpt>
      <trkpt lat="45.98589" lon="5.56227">
        <ele>828.8</ele>
        <time>2026-05-11T14:34:27Z</time>
      </trkpt>
      <trkpt lat="45.98585" lon="5.56228">
        <ele>828.8</ele>
        <time>2026-05-11T14:34:28Z</time>
      </trkpt>
      <trkpt lat="45.98581" lon="5.56229">
        <ele>828.4</ele>
        <time>2026-05-11T14:34:29Z</time>
      </trkpt>
      <trkpt lat="45.98576" lon="5.56231">
        <ele>828.8</ele>
        <time>2026-05-11T14:34:30Z</time>
      </trkpt>
      <trkpt lat="45.98572" lon="5.56232">
        <ele>829.2</ele>
        <time>2026-05-11T14:34:31Z</time>
      </trkpt>
      <trkpt lat="45.98568" lon="5.56233">
        <ele>829.2</ele>
        <time>2026-05-11T14:34:32Z</time>
      </trkpt>
      <trkpt lat="45.98563" lon="5.56234">
        <ele>829.2</ele>
        <time>2026-05-11T14:34:33Z</time>
      </trkpt>
      <trkpt lat="45.98558" lon="5.56235">
        <ele>829.2</ele>
        <time>2026-05-11T14:34:34Z</time>
      </trkpt>
      <trkpt lat="45.98554" lon="5.56236">
        <ele>829.6</ele>
        <time>2026-05-11T14:34:35Z</time>
      </trkpt>
      <trkpt lat="45.98549" lon="5.56236">
        <ele>829.6</ele>
        <time>2026-05-11T14:34:36Z</time>
      </trkpt>
      <trkpt lat="45.98545" lon="5.56237">
        <ele>830</ele>
        <time>2026-05-11T14:34:37Z</time>
      </trkpt>
      <trkpt lat="45.98541" lon="5.56239">
        <ele>830</ele>
        <time>2026-05-11T14:34:38Z</time>
      </trkpt>
      <trkpt lat="45.98536" lon="5.5624">
        <ele>830.4</ele>
        <time>2026-05-11T14:34:39Z</time>
      </trkpt>
      <trkpt lat="45.98531" lon="5.56242">
        <ele>830.6</ele>
        <time>2026-05-11T14:34:40Z</time>
      </trkpt>
      <trkpt lat="45.98527" lon="5.56243">
        <ele>831</ele>
        <time>2026-05-11T14:34:41Z</time>
      </trkpt>
      <trkpt lat="45.98522" lon="5.56244">
        <ele>831</ele>
        <time>2026-05-11T14:34:42Z</time>
      </trkpt>
      <trkpt lat="45.98518" lon="5.56246">
        <ele>831.4</ele>
        <time>2026-05-11T14:34:43Z</time>
      </trkpt>
      <trkpt lat="45.98514" lon="5.56248">
        <ele>832</ele>
        <time>2026-05-11T14:34:44Z</time>
      </trkpt>
      <trkpt lat="45.9851" lon="5.5625">
        <ele>832.2</ele>
        <time>2026-05-11T14:34:45Z</time>
      </trkpt>
      <trkpt lat="45.98506" lon="5.56252">
        <ele>832.6</ele>
        <time>2026-05-11T14:34:46Z</time>
      </trkpt>
      <trkpt lat="45.98502" lon="5.56254">
        <ele>832.4</ele>
        <time>2026-05-11T14:34:47Z</time>
      </trkpt>
      <trkpt lat="45.98498" lon="5.56256">
        <ele>832.8</ele>
        <time>2026-05-11T14:34:48Z</time>
      </trkpt>
      <trkpt lat="45.98494" lon="5.56258">
        <ele>833.2</ele>
        <time>2026-05-11T14:34:49Z</time>
      </trkpt>
      <trkpt lat="45.9849" lon="5.5626">
        <ele>833.6</ele>
        <time>2026-05-11T14:34:50Z</time>
      </trkpt>
      <trkpt lat="45.98487" lon="5.56262">
        <ele>833.6</ele>
        <time>2026-05-11T14:34:51Z</time>
      </trkpt>
      <trkpt lat="45.98482" lon="5.56264">
        <ele>834</ele>
        <time>2026-05-11T14:34:52Z</time>
      </trkpt>
      <trkpt lat="45.98479" lon="5.56266">
        <ele>834.2</ele>
        <time>2026-05-11T14:34:53Z</time>
      </trkpt>
      <trkpt lat="45.98475" lon="5.56268">
        <ele>834.2</ele>
        <time>2026-05-11T14:34:54Z</time>
      </trkpt>
      <trkpt lat="45.98472" lon="5.5627">
        <ele>834.2</ele>
        <time>2026-05-11T14:34:55Z</time>
      </trkpt>
      <trkpt lat="45.98468" lon="5.56272">
        <ele>834.2</ele>
        <time>2026-05-11T14:34:56Z</time>
      </trkpt>
      <trkpt lat="45.98465" lon="5.56276">
        <ele>834.2</ele>
        <time>2026-05-11T14:34:57Z</time>
      </trkpt>
      <trkpt lat="45.98461" lon="5.56278">
        <ele>834.6</ele>
        <time>2026-05-11T14:34:58Z</time>
      </trkpt>
      <trkpt lat="45.98458" lon="5.5628">
        <ele>834.6</ele>
        <time>2026-05-11T14:34:59Z</time>
      </trkpt>
      <trkpt lat="45.98455" lon="5.56283">
        <ele>835</ele>
        <time>2026-05-11T14:35:00Z</time>
      </trkpt>
      <trkpt lat="45.98451" lon="5.56285">
        <ele>835</ele>
        <time>2026-05-11T14:35:01Z</time>
      </trkpt>
      <trkpt lat="45.98448" lon="5.56287">
        <ele>835.2</ele>
        <time>2026-05-11T14:35:02Z</time>
      </trkpt>
      <trkpt lat="45.98444" lon="5.56289">
        <ele>835.2</ele>
        <time>2026-05-11T14:35:03Z</time>
      </trkpt>
      <trkpt lat="45.9844" lon="5.56291">
        <ele>835.6</ele>
        <time>2026-05-11T14:35:04Z</time>
      </trkpt>
      <trkpt lat="45.98436" lon="5.56293">
        <ele>835.8</ele>
        <time>2026-05-11T14:35:05Z</time>
      </trkpt>
      <trkpt lat="45.98432" lon="5.56295">
        <ele>835.8</ele>
        <time>2026-05-11T14:35:06Z</time>
      </trkpt>
      <trkpt lat="45.98429" lon="5.56298">
        <ele>836.2</ele>
        <time>2026-05-11T14:35:07Z</time>
      </trkpt>
      <trkpt lat="45.98425" lon="5.563">
        <ele>836.2</ele>
        <time>2026-05-11T14:35:08Z</time>
      </trkpt>
      <trkpt lat="45.98421" lon="5.56303">
        <ele>836.2</ele>
        <time>2026-05-11T14:35:09Z</time>
      </trkpt>
      <trkpt lat="45.98417" lon="5.56305">
        <ele>836.4</ele>
        <time>2026-05-11T14:35:10Z</time>
      </trkpt>
      <trkpt lat="45.98413" lon="5.56308">
        <ele>836.4</ele>
        <time>2026-05-11T14:35:11Z</time>
      </trkpt>
      <trkpt lat="45.9841" lon="5.5631">
        <ele>836.6</ele>
        <time>2026-05-11T14:35:12Z</time>
      </trkpt>
      <trkpt lat="45.98406" lon="5.56312">
        <ele>836.6</ele>
        <time>2026-05-11T14:35:13Z</time>
      </trkpt>
      <trkpt lat="45.98402" lon="5.56314">
        <ele>836.6</ele>
        <time>2026-05-11T14:35:14Z</time>
      </trkpt>
      <trkpt lat="45.98398" lon="5.56317">
        <ele>837</ele>
        <time>2026-05-11T14:35:15Z</time>
      </trkpt>
      <trkpt lat="45.98395" lon="5.56319">
        <ele>837</ele>
        <time>2026-05-11T14:35:16Z</time>
      </trkpt>
      <trkpt lat="45.98392" lon="5.56321">
        <ele>837.4</ele>
        <time>2026-05-11T14:35:17Z</time>
      </trkpt>
      <trkpt lat="45.98388" lon="5.56324">
        <ele>837.4</ele>
        <time>2026-05-11T14:35:18Z</time>
      </trkpt>
      <trkpt lat="45.98384" lon="5.56327">
        <ele>837.4</ele>
        <time>2026-05-11T14:35:19Z</time>
      </trkpt>
      <trkpt lat="45.98381" lon="5.5633">
        <ele>838</ele>
        <time>2026-05-11T14:35:20Z</time>
      </trkpt>
      <trkpt lat="45.98378" lon="5.56332">
        <ele>838</ele>
        <time>2026-05-11T14:35:21Z</time>
      </trkpt>
      <trkpt lat="45.98375" lon="5.56335">
        <ele>838</ele>
        <time>2026-05-11T14:35:22Z</time>
      </trkpt>
      <trkpt lat="45.98372" lon="5.56338">
        <ele>838.4</ele>
        <time>2026-05-11T14:35:23Z</time>
      </trkpt>
      <trkpt lat="45.9837" lon="5.5634">
        <ele>838.6</ele>
        <time>2026-05-11T14:35:24Z</time>
      </trkpt>
      <trkpt lat="45.98367" lon="5.56343">
        <ele>838.4</ele>
        <time>2026-05-11T14:35:25Z</time>
      </trkpt>
      <trkpt lat="45.98364" lon="5.56346">
        <ele>838.4</ele>
        <time>2026-05-11T14:35:26Z</time>
      </trkpt>
      <trkpt lat="45.98361" lon="5.56349">
        <ele>838.4</ele>
        <time>2026-05-11T14:35:27Z</time>
      </trkpt>
      <trkpt lat="45.98358" lon="5.56352">
        <ele>838</ele>
        <time>2026-05-11T14:35:28Z</time>
      </trkpt>
      <trkpt lat="45.98355" lon="5.56355">
        <ele>838</ele>
        <time>2026-05-11T14:35:29Z</time>
      </trkpt>
      <trkpt lat="45.98351" lon="5.56358">
        <ele>838</ele>
        <time>2026-05-11T14:35:30Z</time>
      </trkpt>
      <trkpt lat="45.98348" lon="5.56362">
        <ele>838</ele>
        <time>2026-05-11T14:35:31Z</time>
      </trkpt>
      <trkpt lat="45.98345" lon="5.56366">
        <ele>838</ele>
        <time>2026-05-11T14:35:32Z</time>
      </trkpt>
      <trkpt lat="45.98341" lon="5.5637">
        <ele>838</ele>
        <time>2026-05-11T14:35:33Z</time>
      </trkpt>
      <trkpt lat="45.98337" lon="5.56374">
        <ele>838</ele>
        <time>2026-05-11T14:35:34Z</time>
      </trkpt>
      <trkpt lat="45.98334" lon="5.5638">
        <ele>838</ele>
        <time>2026-05-11T14:35:35Z</time>
      </trkpt>
      <trkpt lat="45.9833" lon="5.56385">
        <ele>837.6</ele>
        <time>2026-05-11T14:35:36Z</time>
      </trkpt>
      <trkpt lat="45.98326" lon="5.56392">
        <ele>837.4</ele>
        <time>2026-05-11T14:35:37Z</time>
      </trkpt>
      <trkpt lat="45.98322" lon="5.56399">
        <ele>837</ele>
        <time>2026-05-11T14:35:38Z</time>
      </trkpt>
      <trkpt lat="45.98317" lon="5.56406">
        <ele>836.6</ele>
        <time>2026-05-11T14:35:39Z</time>
      </trkpt>
      <trkpt lat="45.98313" lon="5.56414">
        <ele>835.8</ele>
        <time>2026-05-11T14:35:40Z</time>
      </trkpt>
      <trkpt lat="45.98308" lon="5.56423">
        <ele>835.2</ele>
        <time>2026-05-11T14:35:41Z</time>
      </trkpt>
      <trkpt lat="45.98303" lon="5.56432">
        <ele>834.4</ele>
        <time>2026-05-11T14:35:42Z</time>
      </trkpt>
      <trkpt lat="45.98299" lon="5.56441">
        <ele>833.6</ele>
        <time>2026-05-11T14:35:43Z</time>
      </trkpt>
      <trkpt lat="45.98294" lon="5.5645">
        <ele>833.2</ele>
        <time>2026-05-11T14:35:44Z</time>
      </trkpt>
      <trkpt lat="45.98289" lon="5.56459">
        <ele>833</ele>
        <time>2026-05-11T14:35:45Z</time>
      </trkpt>
      <trkpt lat="45.98285" lon="5.56468">
        <ele>833</ele>
        <time>2026-05-11T14:35:46Z</time>
      </trkpt>
      <trkpt lat="45.9828" lon="5.56477">
        <ele>833</ele>
        <time>2026-05-11T14:35:47Z</time>
      </trkpt>
      <trkpt lat="45.98276" lon="5.56487">
        <ele>833</ele>
        <time>2026-05-11T14:35:48Z</time>
      </trkpt>
      <trkpt lat="45.98272" lon="5.56496">
        <ele>833</ele>
        <time>2026-05-11T14:35:49Z</time>
      </trkpt>
      <trkpt lat="45.98268" lon="5.56505">
        <ele>833</ele>
        <time>2026-05-11T14:35:50Z</time>
      </trkpt>
      <trkpt lat="45.98264" lon="5.56515">
        <ele>833.4</ele>
        <time>2026-05-11T14:35:51Z</time>
      </trkpt>
      <trkpt lat="45.9826" lon="5.56524">
        <ele>833.4</ele>
        <time>2026-05-11T14:35:52Z</time>
      </trkpt>
      <trkpt lat="45.98256" lon="5.56533">
        <ele>833.4</ele>
        <time>2026-05-11T14:35:53Z</time>
      </trkpt>
      <trkpt lat="45.98253" lon="5.56542">
        <ele>833.4</ele>
        <time>2026-05-11T14:35:54Z</time>
      </trkpt>
      <trkpt lat="45.98249" lon="5.5655">
        <ele>833.6</ele>
        <time>2026-05-11T14:35:55Z</time>
      </trkpt>
      <trkpt lat="45.98246" lon="5.56559">
        <ele>833.6</ele>
        <time>2026-05-11T14:35:56Z</time>
      </trkpt>
      <trkpt lat="45.98243" lon="5.56568">
        <ele>833.6</ele>
        <time>2026-05-11T14:35:57Z</time>
      </trkpt>
      <trkpt lat="45.98239" lon="5.56577">
        <ele>833.6</ele>
        <time>2026-05-11T14:35:58Z</time>
      </trkpt>
      <trkpt lat="45.98236" lon="5.56586">
        <ele>834</ele>
        <time>2026-05-11T14:35:59Z</time>
      </trkpt>
      <trkpt lat="45.98233" lon="5.56593">
        <ele>834.4</ele>
        <time>2026-05-11T14:36:00Z</time>
      </trkpt>
      <trkpt lat="45.9823" lon="5.56601">
        <ele>834.4</ele>
        <time>2026-05-11T14:36:01Z</time>
      </trkpt>
      <trkpt lat="45.98227" lon="5.56608">
        <ele>834.8</ele>
        <time>2026-05-11T14:36:02Z</time>
      </trkpt>
      <trkpt lat="45.98223" lon="5.56615">
        <ele>834.8</ele>
        <time>2026-05-11T14:36:03Z</time>
      </trkpt>
      <trkpt lat="45.9822" lon="5.56622">
        <ele>834.8</ele>
        <time>2026-05-11T14:36:04Z</time>
      </trkpt>
      <trkpt lat="45.98217" lon="5.56629">
        <ele>835.4</ele>
        <time>2026-05-11T14:36:05Z</time>
      </trkpt>
      <trkpt lat="45.98214" lon="5.56637">
        <ele>835.4</ele>
        <time>2026-05-11T14:36:06Z</time>
      </trkpt>
      <trkpt lat="45.98211" lon="5.56644">
        <ele>835.4</ele>
        <time>2026-05-11T14:36:07Z</time>
      </trkpt>
      <trkpt lat="45.98208" lon="5.56652">
        <ele>835</ele>
        <time>2026-05-11T14:36:08Z</time>
      </trkpt>
      <trkpt lat="45.98205" lon="5.5666">
        <ele>835</ele>
        <time>2026-05-11T14:36:09Z</time>
      </trkpt>
      <trkpt lat="45.98203" lon="5.56668">
        <ele>835</ele>
        <time>2026-05-11T14:36:10Z</time>
      </trkpt>
      <trkpt lat="45.982" lon="5.56676">
        <ele>834.8</ele>
        <time>2026-05-11T14:36:11Z</time>
      </trkpt>
      <trkpt lat="45.98197" lon="5.56684">
        <ele>834.2</ele>
        <time>2026-05-11T14:36:12Z</time>
      </trkpt>
      <trkpt lat="45.98194" lon="5.56693">
        <ele>833.6</ele>
        <time>2026-05-11T14:36:13Z</time>
      </trkpt>
      <trkpt lat="45.98191" lon="5.56702">
        <ele>833.6</ele>
        <time>2026-05-11T14:36:14Z</time>
      </trkpt>
      <trkpt lat="45.98188" lon="5.56711">
        <ele>833.2</ele>
        <time>2026-05-11T14:36:15Z</time>
      </trkpt>
      <trkpt lat="45.98185" lon="5.5672">
        <ele>833.2</ele>
        <time>2026-05-11T14:36:16Z</time>
      </trkpt>
      <trkpt lat="45.98182" lon="5.56729">
        <ele>832.8</ele>
        <time>2026-05-11T14:36:17Z</time>
      </trkpt>
      <trkpt lat="45.98179" lon="5.56739">
        <ele>832.8</ele>
        <time>2026-05-11T14:36:18Z</time>
      </trkpt>
      <trkpt lat="45.98175" lon="5.56749">
        <ele>832.8</ele>
        <time>2026-05-11T14:36:19Z</time>
      </trkpt>
      <trkpt lat="45.98173" lon="5.56759">
        <ele>831.8</ele>
        <time>2026-05-11T14:36:20Z</time>
      </trkpt>
      <trkpt lat="45.9817" lon="5.56769">
        <ele>831.4</ele>
        <time>2026-05-11T14:36:21Z</time>
      </trkpt>
      <trkpt lat="45.98167" lon="5.56779">
        <ele>830.8</ele>
        <time>2026-05-11T14:36:22Z</time>
      </trkpt>
      <trkpt lat="45.9816" lon="5.568">
        <ele>830.2</ele>
        <time>2026-05-11T14:36:23Z</time>
      </trkpt>
      <trkpt lat="45.98157" lon="5.56811">
        <ele>830.2</ele>
        <time>2026-05-11T14:36:24Z</time>
      </trkpt>
      <trkpt lat="45.98153" lon="5.56821">
        <ele>830.2</ele>
        <time>2026-05-11T14:36:25Z</time>
      </trkpt>
      <trkpt lat="45.98149" lon="5.56831">
        <ele>830.2</ele>
        <time>2026-05-11T14:36:26Z</time>
      </trkpt>
      <trkpt lat="45.98144" lon="5.56841">
        <ele>830.2</ele>
        <time>2026-05-11T14:36:27Z</time>
      </trkpt>
      <trkpt lat="45.9814" lon="5.56851">
        <ele>830.6</ele>
        <time>2026-05-11T14:36:28Z</time>
      </trkpt>
      <trkpt lat="45.98136" lon="5.5686">
        <ele>830.8</ele>
        <time>2026-05-11T14:36:29Z</time>
      </trkpt>
      <trkpt lat="45.9813" lon="5.56869">
        <ele>831.4</ele>
        <time>2026-05-11T14:36:30Z</time>
      </trkpt>
      <trkpt lat="45.98124" lon="5.56876">
        <ele>831</ele>
        <time>2026-05-11T14:36:31Z</time>
      </trkpt>
      <trkpt lat="45.98119" lon="5.56885">
        <ele>830.4</ele>
        <time>2026-05-11T14:36:32Z</time>
      </trkpt>
      <trkpt lat="45.98113" lon="5.56892">
        <ele>829.8</ele>
        <time>2026-05-11T14:36:33Z</time>
      </trkpt>
      <trkpt lat="45.98107" lon="5.569">
        <ele>829.8</ele>
        <time>2026-05-11T14:36:34Z</time>
      </trkpt>
      <trkpt lat="45.98101" lon="5.56906">
        <ele>829.8</ele>
        <time>2026-05-11T14:36:35Z</time>
      </trkpt>
      <trkpt lat="45.98095" lon="5.56912">
        <ele>829.8</ele>
        <time>2026-05-11T14:36:36Z</time>
      </trkpt>
      <trkpt lat="45.9809" lon="5.56917">
        <ele>829.8</ele>
        <time>2026-05-11T14:36:37Z</time>
      </trkpt>
      <trkpt lat="45.98085" lon="5.56923">
        <ele>829.8</ele>
        <time>2026-05-11T14:36:38Z</time>
      </trkpt>
      <trkpt lat="45.9808" lon="5.56928">
        <ele>829.8</ele>
        <time>2026-05-11T14:36:39Z</time>
      </trkpt>
      <trkpt lat="45.98075" lon="5.56933">
        <ele>829.8</ele>
        <time>2026-05-11T14:36:40Z</time>
      </trkpt>
      <trkpt lat="45.9807" lon="5.56938">
        <ele>830.4</ele>
        <time>2026-05-11T14:36:41Z</time>
      </trkpt>
      <trkpt lat="45.98064" lon="5.56943">
        <ele>830.8</ele>
        <time>2026-05-11T14:36:42Z</time>
      </trkpt>
      <trkpt lat="45.98059" lon="5.56947">
        <ele>831.4</ele>
        <time>2026-05-11T14:36:43Z</time>
      </trkpt>
      <trkpt lat="45.98054" lon="5.56952">
        <ele>832</ele>
        <time>2026-05-11T14:36:44Z</time>
      </trkpt>
      <trkpt lat="45.98049" lon="5.56956">
        <ele>832.6</ele>
        <time>2026-05-11T14:36:45Z</time>
      </trkpt>
      <trkpt lat="45.98045" lon="5.5696">
        <ele>833</ele>
        <time>2026-05-11T14:36:46Z</time>
      </trkpt>
      <trkpt lat="45.9804" lon="5.56965">
        <ele>833</ele>
        <time>2026-05-11T14:36:47Z</time>
      </trkpt>
      <trkpt lat="45.98035" lon="5.56969">
        <ele>833.2</ele>
        <time>2026-05-11T14:36:48Z</time>
      </trkpt>
      <trkpt lat="45.98031" lon="5.56974">
        <ele>833.6</ele>
        <time>2026-05-11T14:36:49Z</time>
      </trkpt>
      <trkpt lat="45.98029" lon="5.56979">
        <ele>833.6</ele>
        <time>2026-05-11T14:36:50Z</time>
      </trkpt>
      <trkpt lat="45.98024" lon="5.56984">
        <ele>834</ele>
        <time>2026-05-11T14:36:51Z</time>
      </trkpt>
      <trkpt lat="45.9802" lon="5.56988">
        <ele>834.2</ele>
        <time>2026-05-11T14:36:52Z</time>
      </trkpt>
      <trkpt lat="45.98016" lon="5.56992">
        <ele>835</ele>
        <time>2026-05-11T14:36:53Z</time>
      </trkpt>
      <trkpt lat="45.98012" lon="5.56996">
        <ele>835.4</ele>
        <time>2026-05-11T14:36:54Z</time>
      </trkpt>
      <trkpt lat="45.98008" lon="5.57001">
        <ele>836</ele>
        <time>2026-05-11T14:36:55Z</time>
      </trkpt>
      <trkpt lat="45.98004" lon="5.57007">
        <ele>836</ele>
        <time>2026-05-11T14:36:56Z</time>
      </trkpt>
      <trkpt lat="45.98002" lon="5.57013">
        <ele>836</ele>
        <time>2026-05-11T14:36:57Z</time>
      </trkpt>
      <trkpt lat="45.97998" lon="5.57019">
        <ele>836</ele>
        <time>2026-05-11T14:36:58Z</time>
      </trkpt>
      <trkpt lat="45.97995" lon="5.57025">
        <ele>836</ele>
        <time>2026-05-11T14:36:59Z</time>
      </trkpt>
      <trkpt lat="45.97995" lon="5.57025">
        <ele>836.2</ele>
        <time>2026-05-11T14:37:00Z</time>
      </trkpt>
      <trkpt lat="45.97992" lon="5.57039">
        <ele>835.4</ele>
        <time>2026-05-11T14:37:01Z</time>
      </trkpt>
      <trkpt lat="45.97991" lon="5.57045">
        <ele>835.8</ele>
        <time>2026-05-11T14:37:02Z</time>
      </trkpt>
      <trkpt lat="45.9799" lon="5.57052">
        <ele>836</ele>
        <time>2026-05-11T14:37:03Z</time>
      </trkpt>
      <trkpt lat="45.97991" lon="5.57059">
        <ele>836.6</ele>
        <time>2026-05-11T14:37:04Z</time>
      </trkpt>
      <trkpt lat="45.97991" lon="5.57065">
        <ele>836.8</ele>
        <time>2026-05-11T14:37:05Z</time>
      </trkpt>
      <trkpt lat="45.97992" lon="5.57071">
        <ele>836.6</ele>
        <time>2026-05-11T14:37:06Z</time>
      </trkpt>
      <trkpt lat="45.97993" lon="5.57077">
        <ele>836.6</ele>
        <time>2026-05-11T14:37:07Z</time>
      </trkpt>
      <trkpt lat="45.97995" lon="5.57083">
        <ele>836.6</ele>
        <time>2026-05-11T14:37:08Z</time>
      </trkpt>
      <trkpt lat="45.97997" lon="5.57088">
        <ele>836.8</ele>
        <time>2026-05-11T14:37:09Z</time>
      </trkpt>
      <trkpt lat="45.98" lon="5.57093">
        <ele>837.2</ele>
        <time>2026-05-11T14:37:10Z</time>
      </trkpt>
      <trkpt lat="45.98004" lon="5.57098">
        <ele>837.2</ele>
        <time>2026-05-11T14:37:11Z</time>
      </trkpt>
      <trkpt lat="45.98008" lon="5.57103">
        <ele>837.2</ele>
        <time>2026-05-11T14:37:12Z</time>
      </trkpt>
      <trkpt lat="45.98012" lon="5.57108">
        <ele>837.4</ele>
        <time>2026-05-11T14:37:13Z</time>
      </trkpt>
      <trkpt lat="45.98016" lon="5.57112">
        <ele>837.4</ele>
        <time>2026-05-11T14:37:14Z</time>
      </trkpt>
      <trkpt lat="45.98019" lon="5.57118">
        <ele>837.4</ele>
        <time>2026-05-11T14:37:15Z</time>
      </trkpt>
      <trkpt lat="45.98023" lon="5.57123">
        <ele>837.4</ele>
        <time>2026-05-11T14:37:16Z</time>
      </trkpt>
      <trkpt lat="45.98027" lon="5.57128">
        <ele>837.4</ele>
        <time>2026-05-11T14:37:17Z</time>
      </trkpt>
      <trkpt lat="45.98031" lon="5.57134">
        <ele>837.4</ele>
        <time>2026-05-11T14:37:18Z</time>
      </trkpt>
      <trkpt lat="45.98035" lon="5.5714">
        <ele>837</ele>
        <time>2026-05-11T14:37:19Z</time>
      </trkpt>
      <trkpt lat="45.98039" lon="5.57147">
        <ele>837</ele>
        <time>2026-05-11T14:37:20Z</time>
      </trkpt>
      <trkpt lat="45.98043" lon="5.57154">
        <ele>836.6</ele>
        <time>2026-05-11T14:37:21Z</time>
      </trkpt>
      <trkpt lat="45.98047" lon="5.57163">
        <ele>836.4</ele>
        <time>2026-05-11T14:37:22Z</time>
      </trkpt>
      <trkpt lat="45.98051" lon="5.57172">
        <ele>836.4</ele>
        <time>2026-05-11T14:37:23Z</time>
      </trkpt>
      <trkpt lat="45.98055" lon="5.57181">
        <ele>835.6</ele>
        <time>2026-05-11T14:37:24Z</time>
      </trkpt>
      <trkpt lat="45.98059" lon="5.57192">
        <ele>835</ele>
        <time>2026-05-11T14:37:25Z</time>
      </trkpt>
      <trkpt lat="45.98062" lon="5.57202">
        <ele>834.4</ele>
        <time>2026-05-11T14:37:26Z</time>
      </trkpt>
      <trkpt lat="45.98064" lon="5.57214">
        <ele>833.8</ele>
        <time>2026-05-11T14:37:27Z</time>
      </trkpt>
      <trkpt lat="45.98067" lon="5.57226">
        <ele>833.2</ele>
        <time>2026-05-11T14:37:28Z</time>
      </trkpt>
      <trkpt lat="45.98068" lon="5.57238">
        <ele>832.8</ele>
        <time>2026-05-11T14:37:29Z</time>
      </trkpt>
      <trkpt lat="45.9807" lon="5.5725">
        <ele>832.2</ele>
        <time>2026-05-11T14:37:30Z</time>
      </trkpt>
      <trkpt lat="45.98072" lon="5.57262">
        <ele>831.6</ele>
        <time>2026-05-11T14:37:31Z</time>
      </trkpt>
      <trkpt lat="45.98074" lon="5.57276">
        <ele>831.2</ele>
        <time>2026-05-11T14:37:32Z</time>
      </trkpt>
      <trkpt lat="45.98076" lon="5.57289">
        <ele>830.6</ele>
        <time>2026-05-11T14:37:33Z</time>
      </trkpt>
      <trkpt lat="45.98077" lon="5.57303">
        <ele>830.2</ele>
        <time>2026-05-11T14:37:34Z</time>
      </trkpt>
      <trkpt lat="45.98079" lon="5.57317">
        <ele>830.2</ele>
        <time>2026-05-11T14:37:35Z</time>
      </trkpt>
      <trkpt lat="45.9808" lon="5.57332">
        <ele>829.6</ele>
        <time>2026-05-11T14:37:36Z</time>
      </trkpt>
      <trkpt lat="45.98082" lon="5.57346">
        <ele>829.2</ele>
        <time>2026-05-11T14:37:37Z</time>
      </trkpt>
      <trkpt lat="45.98084" lon="5.57361">
        <ele>828.8</ele>
        <time>2026-05-11T14:37:38Z</time>
      </trkpt>
      <trkpt lat="45.98087" lon="5.57375">
        <ele>828.6</ele>
        <time>2026-05-11T14:37:39Z</time>
      </trkpt>
      <trkpt lat="45.98089" lon="5.5739">
        <ele>828.2</ele>
        <time>2026-05-11T14:37:40Z</time>
      </trkpt>
      <trkpt lat="45.98091" lon="5.57405">
        <ele>828.2</ele>
        <time>2026-05-11T14:37:41Z</time>
      </trkpt>
      <trkpt lat="45.98094" lon="5.57419">
        <ele>827.6</ele>
        <time>2026-05-11T14:37:42Z</time>
      </trkpt>
      <trkpt lat="45.98098" lon="5.57434">
        <ele>827.2</ele>
        <time>2026-05-11T14:37:43Z</time>
      </trkpt>
      <trkpt lat="45.98101" lon="5.57448">
        <ele>827</ele>
        <time>2026-05-11T14:37:44Z</time>
      </trkpt>
      <trkpt lat="45.98105" lon="5.57462">
        <ele>826.6</ele>
        <time>2026-05-11T14:37:45Z</time>
      </trkpt>
      <trkpt lat="45.98109" lon="5.57475">
        <ele>826.2</ele>
        <time>2026-05-11T14:37:46Z</time>
      </trkpt>
      <trkpt lat="45.98113" lon="5.57489">
        <ele>825.6</ele>
        <time>2026-05-11T14:37:47Z</time>
      </trkpt>
      <trkpt lat="45.98117" lon="5.57503">
        <ele>825</ele>
        <time>2026-05-11T14:37:48Z</time>
      </trkpt>
      <trkpt lat="45.98117" lon="5.57503">
        <ele>824.4</ele>
        <time>2026-05-11T14:37:49Z</time>
      </trkpt>
      <trkpt lat="45.98125" lon="5.5753">
        <ele>824</ele>
        <time>2026-05-11T14:37:50Z</time>
      </trkpt>
      <trkpt lat="45.98129" lon="5.57544">
        <ele>823.6</ele>
        <time>2026-05-11T14:37:51Z</time>
      </trkpt>
      <trkpt lat="45.98133" lon="5.57557">
        <ele>823.4</ele>
        <time>2026-05-11T14:37:52Z</time>
      </trkpt>
      <trkpt lat="45.98136" lon="5.57571">
        <ele>823.4</ele>
        <time>2026-05-11T14:37:53Z</time>
      </trkpt>
      <trkpt lat="45.9814" lon="5.57583">
        <ele>823</ele>
        <time>2026-05-11T14:37:54Z</time>
      </trkpt>
      <trkpt lat="45.98143" lon="5.57597">
        <ele>823</ele>
        <time>2026-05-11T14:37:55Z</time>
      </trkpt>
      <trkpt lat="45.98146" lon="5.5761">
        <ele>822.6</ele>
        <time>2026-05-11T14:37:56Z</time>
      </trkpt>
      <trkpt lat="45.9815" lon="5.57624">
        <ele>822.2</ele>
        <time>2026-05-11T14:37:57Z</time>
      </trkpt>
      <trkpt lat="45.98152" lon="5.57638">
        <ele>821.8</ele>
        <time>2026-05-11T14:37:58Z</time>
      </trkpt>
      <trkpt lat="45.98154" lon="5.57652">
        <ele>821.2</ele>
        <time>2026-05-11T14:37:59Z</time>
      </trkpt>
      <trkpt lat="45.98155" lon="5.57666">
        <ele>821.2</ele>
        <time>2026-05-11T14:38:00Z</time>
      </trkpt>
      <trkpt lat="45.98156" lon="5.5768">
        <ele>821</ele>
        <time>2026-05-11T14:38:01Z</time>
      </trkpt>
      <trkpt lat="45.98158" lon="5.57695">
        <ele>820.4</ele>
        <time>2026-05-11T14:38:02Z</time>
      </trkpt>
      <trkpt lat="45.98159" lon="5.57709">
        <ele>820.4</ele>
        <time>2026-05-11T14:38:03Z</time>
      </trkpt>
      <trkpt lat="45.9816" lon="5.57724">
        <ele>820.4</ele>
        <time>2026-05-11T14:38:04Z</time>
      </trkpt>
      <trkpt lat="45.98162" lon="5.57739">
        <ele>820.4</ele>
        <time>2026-05-11T14:38:05Z</time>
      </trkpt>
      <trkpt lat="45.98163" lon="5.57753">
        <ele>819.8</ele>
        <time>2026-05-11T14:38:06Z</time>
      </trkpt>
      <trkpt lat="45.98164" lon="5.57768">
        <ele>819.2</ele>
        <time>2026-05-11T14:38:07Z</time>
      </trkpt>
      <trkpt lat="45.98166" lon="5.57782">
        <ele>818.4</ele>
        <time>2026-05-11T14:38:08Z</time>
      </trkpt>
      <trkpt lat="45.98167" lon="5.57797">
        <ele>817.8</ele>
        <time>2026-05-11T14:38:09Z</time>
      </trkpt>
      <trkpt lat="45.98168" lon="5.57812">
        <ele>817.4</ele>
        <time>2026-05-11T14:38:10Z</time>
      </trkpt>
      <trkpt lat="45.9817" lon="5.57827">
        <ele>816.8</ele>
        <time>2026-05-11T14:38:11Z</time>
      </trkpt>
      <trkpt lat="45.98171" lon="5.57842">
        <ele>816.6</ele>
        <time>2026-05-11T14:38:12Z</time>
      </trkpt>
      <trkpt lat="45.98172" lon="5.57857">
        <ele>816</ele>
        <time>2026-05-11T14:38:13Z</time>
      </trkpt>
      <trkpt lat="45.98173" lon="5.57871">
        <ele>815.6</ele>
        <time>2026-05-11T14:38:14Z</time>
      </trkpt>
      <trkpt lat="45.98174" lon="5.57885">
        <ele>815.2</ele>
        <time>2026-05-11T14:38:15Z</time>
      </trkpt>
      <trkpt lat="45.98174" lon="5.57898">
        <ele>815.2</ele>
        <time>2026-05-11T14:38:16Z</time>
      </trkpt>
      <trkpt lat="45.98174" lon="5.57911">
        <ele>815</ele>
        <time>2026-05-11T14:38:17Z</time>
      </trkpt>
      <trkpt lat="45.98174" lon="5.57923">
        <ele>815</ele>
        <time>2026-05-11T14:38:18Z</time>
      </trkpt>
      <trkpt lat="45.98171" lon="5.57936">
        <ele>814.6</ele>
        <time>2026-05-11T14:38:19Z</time>
      </trkpt>
      <trkpt lat="45.98169" lon="5.57947">
        <ele>814.2</ele>
        <time>2026-05-11T14:38:20Z</time>
      </trkpt>
      <trkpt lat="45.9817" lon="5.5796">
        <ele>813.8</ele>
        <time>2026-05-11T14:38:21Z</time>
      </trkpt>
      <trkpt lat="45.98173" lon="5.57972">
        <ele>813.4</ele>
        <time>2026-05-11T14:38:22Z</time>
      </trkpt>
      <trkpt lat="45.98178" lon="5.57982">
        <ele>813</ele>
        <time>2026-05-11T14:38:23Z</time>
      </trkpt>
      <trkpt lat="45.98181" lon="5.57994">
        <ele>812.8</ele>
        <time>2026-05-11T14:38:24Z</time>
      </trkpt>
      <trkpt lat="45.98182" lon="5.58005">
        <ele>812.8</ele>
        <time>2026-05-11T14:38:25Z</time>
      </trkpt>
      <trkpt lat="45.98185" lon="5.58017">
        <ele>812.8</ele>
        <time>2026-05-11T14:38:26Z</time>
      </trkpt>
      <trkpt lat="45.98188" lon="5.58029">
        <ele>812.8</ele>
        <time>2026-05-11T14:38:27Z</time>
      </trkpt>
      <trkpt lat="45.98191" lon="5.58041">
        <ele>812.8</ele>
        <time>2026-05-11T14:38:28Z</time>
      </trkpt>
      <trkpt lat="45.98195" lon="5.58052">
        <ele>812.8</ele>
        <time>2026-05-11T14:38:29Z</time>
      </trkpt>
      <trkpt lat="45.98199" lon="5.58063">
        <ele>812.8</ele>
        <time>2026-05-11T14:38:30Z</time>
      </trkpt>
      <trkpt lat="45.98205" lon="5.58074">
        <ele>812.8</ele>
        <time>2026-05-11T14:38:31Z</time>
      </trkpt>
      <trkpt lat="45.98211" lon="5.58084">
        <ele>812.8</ele>
        <time>2026-05-11T14:38:32Z</time>
      </trkpt>
      <trkpt lat="45.98218" lon="5.58095">
        <ele>812.4</ele>
        <time>2026-05-11T14:38:33Z</time>
      </trkpt>
      <trkpt lat="45.98224" lon="5.58106">
        <ele>812</ele>
        <time>2026-05-11T14:38:34Z</time>
      </trkpt>
      <trkpt lat="45.9823" lon="5.58116">
        <ele>812</ele>
        <time>2026-05-11T14:38:35Z</time>
      </trkpt>
      <trkpt lat="45.98237" lon="5.58127">
        <ele>811.8</ele>
        <time>2026-05-11T14:38:36Z</time>
      </trkpt>
      <trkpt lat="45.98243" lon="5.58138">
        <ele>811.2</ele>
        <time>2026-05-11T14:38:37Z</time>
      </trkpt>
      <trkpt lat="45.9825" lon="5.58148">
        <ele>810.8</ele>
        <time>2026-05-11T14:38:38Z</time>
      </trkpt>
      <trkpt lat="45.98257" lon="5.58159">
        <ele>810</ele>
        <time>2026-05-11T14:38:39Z</time>
      </trkpt>
      <trkpt lat="45.98264" lon="5.58169">
        <ele>809.8</ele>
        <time>2026-05-11T14:38:40Z</time>
      </trkpt>
      <trkpt lat="45.9827" lon="5.58179">
        <ele>809.4</ele>
        <time>2026-05-11T14:38:41Z</time>
      </trkpt>
      <trkpt lat="45.98276" lon="5.5819">
        <ele>809.2</ele>
        <time>2026-05-11T14:38:42Z</time>
      </trkpt>
      <trkpt lat="45.98283" lon="5.58199">
        <ele>809.2</ele>
        <time>2026-05-11T14:38:43Z</time>
      </trkpt>
      <trkpt lat="45.9829" lon="5.5821">
        <ele>809.2</ele>
        <time>2026-05-11T14:38:44Z</time>
      </trkpt>
      <trkpt lat="45.98296" lon="5.5822">
        <ele>808.8</ele>
        <time>2026-05-11T14:38:45Z</time>
      </trkpt>
      <trkpt lat="45.98302" lon="5.5823">
        <ele>808.8</ele>
        <time>2026-05-11T14:38:46Z</time>
      </trkpt>
      <trkpt lat="45.98308" lon="5.5824">
        <ele>808.8</ele>
        <time>2026-05-11T14:38:47Z</time>
      </trkpt>
      <trkpt lat="45.98314" lon="5.58251">
        <ele>808.6</ele>
        <time>2026-05-11T14:38:48Z</time>
      </trkpt>
      <trkpt lat="45.9832" lon="5.58261">
        <ele>808.8</ele>
        <time>2026-05-11T14:38:49Z</time>
      </trkpt>
      <trkpt lat="45.98326" lon="5.58271">
        <ele>808.8</ele>
        <time>2026-05-11T14:38:50Z</time>
      </trkpt>
      <trkpt lat="45.98332" lon="5.58282">
        <ele>808.4</ele>
        <time>2026-05-11T14:38:51Z</time>
      </trkpt>
      <trkpt lat="45.98338" lon="5.58293">
        <ele>808</ele>
        <time>2026-05-11T14:38:52Z</time>
      </trkpt>
      <trkpt lat="45.98344" lon="5.58303">
        <ele>807.6</ele>
        <time>2026-05-11T14:38:53Z</time>
      </trkpt>
      <trkpt lat="45.9835" lon="5.58313">
        <ele>807</ele>
        <time>2026-05-11T14:38:54Z</time>
      </trkpt>
      <trkpt lat="45.98356" lon="5.58324">
        <ele>806.6</ele>
        <time>2026-05-11T14:38:55Z</time>
      </trkpt>
      <trkpt lat="45.98361" lon="5.58334">
        <ele>806.6</ele>
        <time>2026-05-11T14:38:56Z</time>
      </trkpt>
      <trkpt lat="45.98367" lon="5.58345">
        <ele>806.2</ele>
        <time>2026-05-11T14:38:57Z</time>
      </trkpt>
      <trkpt lat="45.98373" lon="5.58356">
        <ele>805.8</ele>
        <time>2026-05-11T14:38:58Z</time>
      </trkpt>
      <trkpt lat="45.98379" lon="5.58366">
        <ele>805.8</ele>
        <time>2026-05-11T14:38:59Z</time>
      </trkpt>
      <trkpt lat="45.98384" lon="5.58377">
        <ele>805.4</ele>
        <time>2026-05-11T14:39:00Z</time>
      </trkpt>
      <trkpt lat="45.9839" lon="5.58387">
        <ele>805.4</ele>
        <time>2026-05-11T14:39:01Z</time>
      </trkpt>
      <trkpt lat="45.98395" lon="5.58399">
        <ele>805</ele>
        <time>2026-05-11T14:39:02Z</time>
      </trkpt>
      <trkpt lat="45.984" lon="5.58411">
        <ele>804.6</ele>
        <time>2026-05-11T14:39:03Z</time>
      </trkpt>
      <trkpt lat="45.98405" lon="5.58425">
        <ele>804</ele>
        <time>2026-05-11T14:39:04Z</time>
      </trkpt>
      <trkpt lat="45.9841" lon="5.58437">
        <ele>804</ele>
        <time>2026-05-11T14:39:05Z</time>
      </trkpt>
      <trkpt lat="45.98415" lon="5.58451">
        <ele>803</ele>
        <time>2026-05-11T14:39:06Z</time>
      </trkpt>
      <trkpt lat="45.9842" lon="5.58464">
        <ele>802.2</ele>
        <time>2026-05-11T14:39:07Z</time>
      </trkpt>
      <trkpt lat="45.98424" lon="5.58477">
        <ele>801.6</ele>
        <time>2026-05-11T14:39:08Z</time>
      </trkpt>
      <trkpt lat="45.98429" lon="5.5849">
        <ele>801.2</ele>
        <time>2026-05-11T14:39:09Z</time>
      </trkpt>
      <trkpt lat="45.98434" lon="5.58504">
        <ele>800.4</ele>
        <time>2026-05-11T14:39:10Z</time>
      </trkpt>
      <trkpt lat="45.98438" lon="5.58517">
        <ele>799.6</ele>
        <time>2026-05-11T14:39:11Z</time>
      </trkpt>
      <trkpt lat="45.98443" lon="5.58531">
        <ele>799.6</ele>
        <time>2026-05-11T14:39:12Z</time>
      </trkpt>
      <trkpt lat="45.98447" lon="5.58545">
        <ele>799.2</ele>
        <time>2026-05-11T14:39:13Z</time>
      </trkpt>
      <trkpt lat="45.98451" lon="5.58559">
        <ele>798.4</ele>
        <time>2026-05-11T14:39:14Z</time>
      </trkpt>
      <trkpt lat="45.98455" lon="5.58573">
        <ele>798</ele>
        <time>2026-05-11T14:39:15Z</time>
      </trkpt>
      <trkpt lat="45.98458" lon="5.58588">
        <ele>797.6</ele>
        <time>2026-05-11T14:39:16Z</time>
      </trkpt>
      <trkpt lat="45.98462" lon="5.58602">
        <ele>797.2</ele>
        <time>2026-05-11T14:39:17Z</time>
      </trkpt>
      <trkpt lat="45.98464" lon="5.58616">
        <ele>796.6</ele>
        <time>2026-05-11T14:39:18Z</time>
      </trkpt>
      <trkpt lat="45.98468" lon="5.58631">
        <ele>796.4</ele>
        <time>2026-05-11T14:39:19Z</time>
      </trkpt>
      <trkpt lat="45.98469" lon="5.58645">
        <ele>795.8</ele>
        <time>2026-05-11T14:39:20Z</time>
      </trkpt>
      <trkpt lat="45.98471" lon="5.5866">
        <ele>795.6</ele>
        <time>2026-05-11T14:39:21Z</time>
      </trkpt>
      <trkpt lat="45.98473" lon="5.58674">
        <ele>795.2</ele>
        <time>2026-05-11T14:39:22Z</time>
      </trkpt>
      <trkpt lat="45.98474" lon="5.58689">
        <ele>794.8</ele>
        <time>2026-05-11T14:39:23Z</time>
      </trkpt>
      <trkpt lat="45.98475" lon="5.58703">
        <ele>794.6</ele>
        <time>2026-05-11T14:39:24Z</time>
      </trkpt>
      <trkpt lat="45.98475" lon="5.58717">
        <ele>794.6</ele>
        <time>2026-05-11T14:39:25Z</time>
      </trkpt>
      <trkpt lat="45.98475" lon="5.58732">
        <ele>794.6</ele>
        <time>2026-05-11T14:39:26Z</time>
      </trkpt>
      <trkpt lat="45.98475" lon="5.58747">
        <ele>794</ele>
        <time>2026-05-11T14:39:27Z</time>
      </trkpt>
      <trkpt lat="45.98474" lon="5.58762">
        <ele>793.6</ele>
        <time>2026-05-11T14:39:28Z</time>
      </trkpt>
      <trkpt lat="45.98473" lon="5.58775">
        <ele>793.2</ele>
        <time>2026-05-11T14:39:29Z</time>
      </trkpt>
      <trkpt lat="45.98472" lon="5.5879">
        <ele>792.8</ele>
        <time>2026-05-11T14:39:30Z</time>
      </trkpt>
      <trkpt lat="45.9847" lon="5.58804">
        <ele>792.4</ele>
        <time>2026-05-11T14:39:31Z</time>
      </trkpt>
      <trkpt lat="45.98469" lon="5.58817">
        <ele>792.4</ele>
        <time>2026-05-11T14:39:32Z</time>
      </trkpt>
      <trkpt lat="45.98468" lon="5.58832">
        <ele>792.4</ele>
        <time>2026-05-11T14:39:33Z</time>
      </trkpt>
      <trkpt lat="45.98466" lon="5.58846">
        <ele>791.8</ele>
        <time>2026-05-11T14:39:34Z</time>
      </trkpt>
      <trkpt lat="45.98465" lon="5.58861">
        <ele>791</ele>
        <time>2026-05-11T14:39:35Z</time>
      </trkpt>
      <trkpt lat="45.98464" lon="5.58875">
        <ele>790.6</ele>
        <time>2026-05-11T14:39:36Z</time>
      </trkpt>
      <trkpt lat="45.98462" lon="5.5889">
        <ele>789.8</ele>
        <time>2026-05-11T14:39:37Z</time>
      </trkpt>
      <trkpt lat="45.98461" lon="5.58904">
        <ele>789.4</ele>
        <time>2026-05-11T14:39:38Z</time>
      </trkpt>
      <trkpt lat="45.98459" lon="5.58918">
        <ele>789.4</ele>
        <time>2026-05-11T14:39:39Z</time>
      </trkpt>
      <trkpt lat="45.98458" lon="5.58933">
        <ele>788.8</ele>
        <time>2026-05-11T14:39:40Z</time>
      </trkpt>
      <trkpt lat="45.98457" lon="5.58947">
        <ele>788.8</ele>
        <time>2026-05-11T14:39:41Z</time>
      </trkpt>
      <trkpt lat="45.98455" lon="5.5896">
        <ele>788.4</ele>
        <time>2026-05-11T14:39:42Z</time>
      </trkpt>
      <trkpt lat="45.98454" lon="5.58975">
        <ele>788.4</ele>
        <time>2026-05-11T14:39:43Z</time>
      </trkpt>
      <trkpt lat="45.98453" lon="5.58989">
        <ele>788.4</ele>
        <time>2026-05-11T14:39:44Z</time>
      </trkpt>
      <trkpt lat="45.98452" lon="5.59003">
        <ele>788.6</ele>
        <time>2026-05-11T14:39:45Z</time>
      </trkpt>
      <trkpt lat="45.98451" lon="5.59017">
        <ele>789.2</ele>
        <time>2026-05-11T14:39:46Z</time>
      </trkpt>
      <trkpt lat="45.98449" lon="5.5903">
        <ele>789.2</ele>
        <time>2026-05-11T14:39:47Z</time>
      </trkpt>
      <trkpt lat="45.98448" lon="5.59045">
        <ele>789.2</ele>
        <time>2026-05-11T14:39:48Z</time>
      </trkpt>
      <trkpt lat="45.98446" lon="5.59055">
        <ele>789.6</ele>
        <time>2026-05-11T14:39:49Z</time>
      </trkpt>
      <trkpt lat="45.98443" lon="5.59067">
        <ele>790.4</ele>
        <time>2026-05-11T14:39:50Z</time>
      </trkpt>
      <trkpt lat="45.98443" lon="5.59067">
        <ele>791</ele>
        <time>2026-05-11T14:39:51Z</time>
      </trkpt>
      <trkpt lat="45.9844" lon="5.59078">
        <ele>791.2</ele>
        <time>2026-05-11T14:39:52Z</time>
      </trkpt>
      <trkpt lat="45.98437" lon="5.59088">
        <ele>791.2</ele>
        <time>2026-05-11T14:39:53Z</time>
      </trkpt>
      <trkpt lat="45.98433" lon="5.59098">
        <ele>791.8</ele>
        <time>2026-05-11T14:39:54Z</time>
      </trkpt>
      <trkpt lat="45.98429" lon="5.59107">
        <ele>792.2</ele>
        <time>2026-05-11T14:39:55Z</time>
      </trkpt>
      <trkpt lat="45.98425" lon="5.59115">
        <ele>792.4</ele>
        <time>2026-05-11T14:39:56Z</time>
      </trkpt>
      <trkpt lat="45.98421" lon="5.59122">
        <ele>792.8</ele>
        <time>2026-05-11T14:39:57Z</time>
      </trkpt>
      <trkpt lat="45.98416" lon="5.5913">
        <ele>793</ele>
        <time>2026-05-11T14:39:58Z</time>
      </trkpt>
      <trkpt lat="45.98411" lon="5.59136">
        <ele>793</ele>
        <time>2026-05-11T14:39:59Z</time>
      </trkpt>
      <trkpt lat="45.98407" lon="5.59141">
        <ele>793.4</ele>
        <time>2026-05-11T14:40:00Z</time>
      </trkpt>
      <trkpt lat="45.98402" lon="5.59148">
        <ele>793.4</ele>
        <time>2026-05-11T14:40:01Z</time>
      </trkpt>
      <trkpt lat="45.98397" lon="5.59154">
        <ele>793.6</ele>
        <time>2026-05-11T14:40:02Z</time>
      </trkpt>
      <trkpt lat="45.98392" lon="5.5916">
        <ele>793.6</ele>
        <time>2026-05-11T14:40:03Z</time>
      </trkpt>
      <trkpt lat="45.98388" lon="5.59165">
        <ele>794</ele>
        <time>2026-05-11T14:40:04Z</time>
      </trkpt>
      <trkpt lat="45.98383" lon="5.59171">
        <ele>794</ele>
        <time>2026-05-11T14:40:05Z</time>
      </trkpt>
      <trkpt lat="45.98379" lon="5.59177">
        <ele>794.4</ele>
        <time>2026-05-11T14:40:06Z</time>
      </trkpt>
      <trkpt lat="45.98374" lon="5.59183">
        <ele>794.6</ele>
        <time>2026-05-11T14:40:07Z</time>
      </trkpt>
      <trkpt lat="45.9837" lon="5.59188">
        <ele>794.6</ele>
        <time>2026-05-11T14:40:08Z</time>
      </trkpt>
      <trkpt lat="45.98366" lon="5.59194">
        <ele>795.2</ele>
        <time>2026-05-11T14:40:09Z</time>
      </trkpt>
      <trkpt lat="45.98361" lon="5.592">
        <ele>795.2</ele>
        <time>2026-05-11T14:40:10Z</time>
      </trkpt>
      <trkpt lat="45.98357" lon="5.59205">
        <ele>795.2</ele>
        <time>2026-05-11T14:40:11Z</time>
      </trkpt>
      <trkpt lat="45.98353" lon="5.59211">
        <ele>795.2</ele>
        <time>2026-05-11T14:40:12Z</time>
      </trkpt>
      <trkpt lat="45.98348" lon="5.59216">
        <ele>795.6</ele>
        <time>2026-05-11T14:40:13Z</time>
      </trkpt>
      <trkpt lat="45.98344" lon="5.59221">
        <ele>796</ele>
        <time>2026-05-11T14:40:14Z</time>
      </trkpt>
      <trkpt lat="45.9834" lon="5.59226">
        <ele>796</ele>
        <time>2026-05-11T14:40:15Z</time>
      </trkpt>
      <trkpt lat="45.98336" lon="5.59232">
        <ele>796</ele>
        <time>2026-05-11T14:40:16Z</time>
      </trkpt>
      <trkpt lat="45.98331" lon="5.59237">
        <ele>796.2</ele>
        <time>2026-05-11T14:40:17Z</time>
      </trkpt>
      <trkpt lat="45.98327" lon="5.59242">
        <ele>796.2</ele>
        <time>2026-05-11T14:40:18Z</time>
      </trkpt>
      <trkpt lat="45.98323" lon="5.59247">
        <ele>796.4</ele>
        <time>2026-05-11T14:40:19Z</time>
      </trkpt>
      <trkpt lat="45.98319" lon="5.59252">
        <ele>796.8</ele>
        <time>2026-05-11T14:40:20Z</time>
      </trkpt>
      <trkpt lat="45.98315" lon="5.59257">
        <ele>796.8</ele>
        <time>2026-05-11T14:40:21Z</time>
      </trkpt>
      <trkpt lat="45.98311" lon="5.59262">
        <ele>796.8</ele>
        <time>2026-05-11T14:40:22Z</time>
      </trkpt>
      <trkpt lat="45.98307" lon="5.59267">
        <ele>796.8</ele>
        <time>2026-05-11T14:40:23Z</time>
      </trkpt>
      <trkpt lat="45.98303" lon="5.59272">
        <ele>797</ele>
        <time>2026-05-11T14:40:24Z</time>
      </trkpt>
      <trkpt lat="45.98299" lon="5.59277">
        <ele>797.2</ele>
        <time>2026-05-11T14:40:25Z</time>
      </trkpt>
      <trkpt lat="45.98295" lon="5.59281">
        <ele>797.2</ele>
        <time>2026-05-11T14:40:26Z</time>
      </trkpt>
      <trkpt lat="45.98292" lon="5.59286">
        <ele>797.2</ele>
        <time>2026-05-11T14:40:27Z</time>
      </trkpt>
      <trkpt lat="45.98288" lon="5.59291">
        <ele>797.6</ele>
        <time>2026-05-11T14:40:28Z</time>
      </trkpt>
      <trkpt lat="45.98285" lon="5.59295">
        <ele>798</ele>
        <time>2026-05-11T14:40:29Z</time>
      </trkpt>
      <trkpt lat="45.98281" lon="5.593">
        <ele>798</ele>
        <time>2026-05-11T14:40:30Z</time>
      </trkpt>
      <trkpt lat="45.98278" lon="5.59305">
        <ele>798.2</ele>
        <time>2026-05-11T14:40:31Z</time>
      </trkpt>
      <trkpt lat="45.98275" lon="5.59309">
        <ele>798.2</ele>
        <time>2026-05-11T14:40:32Z</time>
      </trkpt>
      <trkpt lat="45.98271" lon="5.59313">
        <ele>798.6</ele>
        <time>2026-05-11T14:40:33Z</time>
      </trkpt>
      <trkpt lat="45.98269" lon="5.59317">
        <ele>799</ele>
        <time>2026-05-11T14:40:34Z</time>
      </trkpt>
      <trkpt lat="45.98266" lon="5.5932">
        <ele>799.2</ele>
        <time>2026-05-11T14:40:35Z</time>
      </trkpt>
      <trkpt lat="45.98262" lon="5.59324">
        <ele>799.4</ele>
        <time>2026-05-11T14:40:36Z</time>
      </trkpt>
      <trkpt lat="45.98259" lon="5.59327">
        <ele>799.4</ele>
        <time>2026-05-11T14:40:37Z</time>
      </trkpt>
      <trkpt lat="45.98256" lon="5.59331">
        <ele>799.6</ele>
        <time>2026-05-11T14:40:38Z</time>
      </trkpt>
      <trkpt lat="45.98253" lon="5.59335">
        <ele>799.6</ele>
        <time>2026-05-11T14:40:39Z</time>
      </trkpt>
      <trkpt lat="45.9825" lon="5.59339">
        <ele>800.4</ele>
        <time>2026-05-11T14:40:40Z</time>
      </trkpt>
      <trkpt lat="45.98247" lon="5.59343">
        <ele>800.4</ele>
        <time>2026-05-11T14:40:41Z</time>
      </trkpt>
      <trkpt lat="45.98241" lon="5.5935">
        <ele>800.4</ele>
        <time>2026-05-11T14:40:42Z</time>
      </trkpt>
      <trkpt lat="45.98238" lon="5.59354">
        <ele>800.4</ele>
        <time>2026-05-11T14:40:43Z</time>
      </trkpt>
      <trkpt lat="45.98235" lon="5.59357">
        <ele>800.4</ele>
        <time>2026-05-11T14:40:44Z</time>
      </trkpt>
      <trkpt lat="45.98232" lon="5.5936">
        <ele>800.8</ele>
        <time>2026-05-11T14:40:45Z</time>
      </trkpt>
      <trkpt lat="45.9823" lon="5.59364">
        <ele>800.8</ele>
        <time>2026-05-11T14:40:46Z</time>
      </trkpt>
      <trkpt lat="45.98227" lon="5.59367">
        <ele>800.8</ele>
        <time>2026-05-11T14:40:47Z</time>
      </trkpt>
      <trkpt lat="45.98224" lon="5.59371">
        <ele>800.8</ele>
        <time>2026-05-11T14:40:48Z</time>
      </trkpt>
      <trkpt lat="45.98221" lon="5.59374">
        <ele>800.8</ele>
        <time>2026-05-11T14:40:49Z</time>
      </trkpt>
      <trkpt lat="45.98218" lon="5.59378">
        <ele>800.8</ele>
        <time>2026-05-11T14:40:50Z</time>
      </trkpt>
      <trkpt lat="45.98215" lon="5.59382">
        <ele>800.4</ele>
        <time>2026-05-11T14:40:51Z</time>
      </trkpt>
      <trkpt lat="45.98212" lon="5.59386">
        <ele>800.4</ele>
        <time>2026-05-11T14:40:52Z</time>
      </trkpt>
      <trkpt lat="45.98208" lon="5.5939">
        <ele>800.4</ele>
        <time>2026-05-11T14:40:53Z</time>
      </trkpt>
      <trkpt lat="45.98205" lon="5.59394">
        <ele>800.8</ele>
        <time>2026-05-11T14:40:54Z</time>
      </trkpt>
      <trkpt lat="45.98201" lon="5.59399">
        <ele>801.2</ele>
        <time>2026-05-11T14:40:55Z</time>
      </trkpt>
      <trkpt lat="45.98198" lon="5.59403">
        <ele>801.2</ele>
        <time>2026-05-11T14:40:56Z</time>
      </trkpt>
      <trkpt lat="45.98195" lon="5.59408">
        <ele>801.2</ele>
        <time>2026-05-11T14:40:57Z</time>
      </trkpt>
      <trkpt lat="45.98191" lon="5.59412">
        <ele>801.2</ele>
        <time>2026-05-11T14:40:58Z</time>
      </trkpt>
      <trkpt lat="45.98188" lon="5.59418">
        <ele>801.2</ele>
        <time>2026-05-11T14:40:59Z</time>
      </trkpt>
      <trkpt lat="45.98185" lon="5.59422">
        <ele>801.2</ele>
        <time>2026-05-11T14:41:00Z</time>
      </trkpt>
      <trkpt lat="45.98182" lon="5.59426">
        <ele>801.2</ele>
        <time>2026-05-11T14:41:01Z</time>
      </trkpt>
      <trkpt lat="45.98178" lon="5.5943">
        <ele>801.2</ele>
        <time>2026-05-11T14:41:02Z</time>
      </trkpt>
      <trkpt lat="45.98174" lon="5.59434">
        <ele>801.4</ele>
        <time>2026-05-11T14:41:03Z</time>
      </trkpt>
      <trkpt lat="45.9817" lon="5.59439">
        <ele>801.4</ele>
        <time>2026-05-11T14:41:04Z</time>
      </trkpt>
      <trkpt lat="45.98167" lon="5.59443">
        <ele>801.4</ele>
        <time>2026-05-11T14:41:05Z</time>
      </trkpt>
      <trkpt lat="45.98163" lon="5.59448">
        <ele>801.4</ele>
        <time>2026-05-11T14:41:06Z</time>
      </trkpt>
      <trkpt lat="45.98159" lon="5.59453">
        <ele>801.4</ele>
        <time>2026-05-11T14:41:07Z</time>
      </trkpt>
      <trkpt lat="45.98156" lon="5.59458">
        <ele>801.2</ele>
        <time>2026-05-11T14:41:08Z</time>
      </trkpt>
      <trkpt lat="45.98151" lon="5.59463">
        <ele>801.2</ele>
        <time>2026-05-11T14:41:09Z</time>
      </trkpt>
      <trkpt lat="45.98147" lon="5.59468">
        <ele>801</ele>
        <time>2026-05-11T14:41:10Z</time>
      </trkpt>
      <trkpt lat="45.98143" lon="5.59473">
        <ele>800.4</ele>
        <time>2026-05-11T14:41:11Z</time>
      </trkpt>
      <trkpt lat="45.9814" lon="5.59478">
        <ele>800</ele>
        <time>2026-05-11T14:41:12Z</time>
      </trkpt>
      <trkpt lat="45.98135" lon="5.59483">
        <ele>800</ele>
        <time>2026-05-11T14:41:13Z</time>
      </trkpt>
      <trkpt lat="45.98131" lon="5.59488">
        <ele>800</ele>
        <time>2026-05-11T14:41:14Z</time>
      </trkpt>
      <trkpt lat="45.98127" lon="5.59493">
        <ele>800</ele>
        <time>2026-05-11T14:41:15Z</time>
      </trkpt>
      <trkpt lat="45.98122" lon="5.59498">
        <ele>800</ele>
        <time>2026-05-11T14:41:16Z</time>
      </trkpt>
      <trkpt lat="45.98118" lon="5.59503">
        <ele>800</ele>
        <time>2026-05-11T14:41:17Z</time>
      </trkpt>
      <trkpt lat="45.98114" lon="5.59508">
        <ele>800.4</ele>
        <time>2026-05-11T14:41:18Z</time>
      </trkpt>
      <trkpt lat="45.9811" lon="5.59513">
        <ele>800.4</ele>
        <time>2026-05-11T14:41:19Z</time>
      </trkpt>
      <trkpt lat="45.98106" lon="5.59518">
        <ele>800.4</ele>
        <time>2026-05-11T14:41:20Z</time>
      </trkpt>
      <trkpt lat="45.98101" lon="5.59523">
        <ele>800.6</ele>
        <time>2026-05-11T14:41:21Z</time>
      </trkpt>
      <trkpt lat="45.98097" lon="5.59528">
        <ele>801</ele>
        <time>2026-05-11T14:41:22Z</time>
      </trkpt>
      <trkpt lat="45.98094" lon="5.59534">
        <ele>801.4</ele>
        <time>2026-05-11T14:41:23Z</time>
      </trkpt>
      <trkpt lat="45.98089" lon="5.59539">
        <ele>801</ele>
        <time>2026-05-11T14:41:24Z</time>
      </trkpt>
      <trkpt lat="45.98085" lon="5.59545">
        <ele>801</ele>
        <time>2026-05-11T14:41:25Z</time>
      </trkpt>
      <trkpt lat="45.98081" lon="5.59549">
        <ele>801</ele>
        <time>2026-05-11T14:41:26Z</time>
      </trkpt>
      <trkpt lat="45.98077" lon="5.59554">
        <ele>801</ele>
        <time>2026-05-11T14:41:27Z</time>
      </trkpt>
      <trkpt lat="45.98072" lon="5.5956">
        <ele>801</ele>
        <time>2026-05-11T14:41:28Z</time>
      </trkpt>
      <trkpt lat="45.98067" lon="5.59565">
        <ele>801.2</ele>
        <time>2026-05-11T14:41:29Z</time>
      </trkpt>
      <trkpt lat="45.98063" lon="5.5957">
        <ele>801.2</ele>
        <time>2026-05-11T14:41:30Z</time>
      </trkpt>
      <trkpt lat="45.98059" lon="5.59575">
        <ele>800.8</ele>
        <time>2026-05-11T14:41:31Z</time>
      </trkpt>
      <trkpt lat="45.98055" lon="5.5958">
        <ele>800.6</ele>
        <time>2026-05-11T14:41:32Z</time>
      </trkpt>
      <trkpt lat="45.9805" lon="5.59586">
        <ele>800.2</ele>
        <time>2026-05-11T14:41:33Z</time>
      </trkpt>
      <trkpt lat="45.98046" lon="5.5959">
        <ele>800</ele>
        <time>2026-05-11T14:41:34Z</time>
      </trkpt>
      <trkpt lat="45.98042" lon="5.59596">
        <ele>800.4</ele>
        <time>2026-05-11T14:41:35Z</time>
      </trkpt>
      <trkpt lat="45.98038" lon="5.596">
        <ele>800.4</ele>
        <time>2026-05-11T14:41:36Z</time>
      </trkpt>
      <trkpt lat="45.98034" lon="5.59606">
        <ele>800</ele>
        <time>2026-05-11T14:41:37Z</time>
      </trkpt>
      <trkpt lat="45.9803" lon="5.59611">
        <ele>800</ele>
        <time>2026-05-11T14:41:38Z</time>
      </trkpt>
      <trkpt lat="45.98026" lon="5.59616">
        <ele>800</ele>
        <time>2026-05-11T14:41:39Z</time>
      </trkpt>
      <trkpt lat="45.98022" lon="5.59622">
        <ele>800</ele>
        <time>2026-05-11T14:41:40Z</time>
      </trkpt>
      <trkpt lat="45.98018" lon="5.59628">
        <ele>800.2</ele>
        <time>2026-05-11T14:41:41Z</time>
      </trkpt>
      <trkpt lat="45.98014" lon="5.59633">
        <ele>800.2</ele>
        <time>2026-05-11T14:41:42Z</time>
      </trkpt>
      <trkpt lat="45.9801" lon="5.59639">
        <ele>800.6</ele>
        <time>2026-05-11T14:41:43Z</time>
      </trkpt>
      <trkpt lat="45.98005" lon="5.59644">
        <ele>800.6</ele>
        <time>2026-05-11T14:41:44Z</time>
      </trkpt>
      <trkpt lat="45.98001" lon="5.59649">
        <ele>800.6</ele>
        <time>2026-05-11T14:41:45Z</time>
      </trkpt>
      <trkpt lat="45.97997" lon="5.59655">
        <ele>800.8</ele>
        <time>2026-05-11T14:41:46Z</time>
      </trkpt>
      <trkpt lat="45.97993" lon="5.59659">
        <ele>800.8</ele>
        <time>2026-05-11T14:41:47Z</time>
      </trkpt>
      <trkpt lat="45.97989" lon="5.59664">
        <ele>800.8</ele>
        <time>2026-05-11T14:41:48Z</time>
      </trkpt>
      <trkpt lat="45.97984" lon="5.59669">
        <ele>801</ele>
        <time>2026-05-11T14:41:49Z</time>
      </trkpt>
      <trkpt lat="45.9798" lon="5.59674">
        <ele>801</ele>
        <time>2026-05-11T14:41:50Z</time>
      </trkpt>
      <trkpt lat="45.97976" lon="5.59679">
        <ele>801</ele>
        <time>2026-05-11T14:41:51Z</time>
      </trkpt>
      <trkpt lat="45.97972" lon="5.59683">
        <ele>800.6</ele>
        <time>2026-05-11T14:41:52Z</time>
      </trkpt>
      <trkpt lat="45.97969" lon="5.59687">
        <ele>800.6</ele>
        <time>2026-05-11T14:41:53Z</time>
      </trkpt>
      <trkpt lat="45.97965" lon="5.59691">
        <ele>800.6</ele>
        <time>2026-05-11T14:41:54Z</time>
      </trkpt>
      <trkpt lat="45.97961" lon="5.59694">
        <ele>800.6</ele>
        <time>2026-05-11T14:41:55Z</time>
      </trkpt>
      <trkpt lat="45.97957" lon="5.59696">
        <ele>800.8</ele>
        <time>2026-05-11T14:41:56Z</time>
      </trkpt>
      <trkpt lat="45.97953" lon="5.59698">
        <ele>800.8</ele>
        <time>2026-05-11T14:41:57Z</time>
      </trkpt>
      <trkpt lat="45.97949" lon="5.59701">
        <ele>800.8</ele>
        <time>2026-05-11T14:41:58Z</time>
      </trkpt>
      <trkpt lat="45.97945" lon="5.59706">
        <ele>800.8</ele>
        <time>2026-05-11T14:41:59Z</time>
      </trkpt>
      <trkpt lat="45.97943" lon="5.59712">
        <ele>800.8</ele>
        <time>2026-05-11T14:42:00Z</time>
      </trkpt>
      <trkpt lat="45.97942" lon="5.59719">
        <ele>800.8</ele>
        <time>2026-05-11T14:42:01Z</time>
      </trkpt>
      <trkpt lat="45.9794" lon="5.59726">
        <ele>800.8</ele>
        <time>2026-05-11T14:42:02Z</time>
      </trkpt>
      <trkpt lat="45.97937" lon="5.59732">
        <ele>800.8</ele>
        <time>2026-05-11T14:42:03Z</time>
      </trkpt>
      <trkpt lat="45.97934" lon="5.59737">
        <ele>800.8</ele>
        <time>2026-05-11T14:42:04Z</time>
      </trkpt>
      <trkpt lat="45.9793" lon="5.59742">
        <ele>800.8</ele>
        <time>2026-05-11T14:42:05Z</time>
      </trkpt>
      <trkpt lat="45.97926" lon="5.59747">
        <ele>800.8</ele>
        <time>2026-05-11T14:42:06Z</time>
      </trkpt>
      <trkpt lat="45.97922" lon="5.59751">
        <ele>800.8</ele>
        <time>2026-05-11T14:42:07Z</time>
      </trkpt>
      <trkpt lat="45.97918" lon="5.59756">
        <ele>800.8</ele>
        <time>2026-05-11T14:42:08Z</time>
      </trkpt>
      <trkpt lat="45.97914" lon="5.59761">
        <ele>800.8</ele>
        <time>2026-05-11T14:42:09Z</time>
      </trkpt>
      <trkpt lat="45.9791" lon="5.59765">
        <ele>800.8</ele>
        <time>2026-05-11T14:42:10Z</time>
      </trkpt>
      <trkpt lat="45.97906" lon="5.59769">
        <ele>801.2</ele>
        <time>2026-05-11T14:42:11Z</time>
      </trkpt>
      <trkpt lat="45.97902" lon="5.59774">
        <ele>801.2</ele>
        <time>2026-05-11T14:42:12Z</time>
      </trkpt>
      <trkpt lat="45.97898" lon="5.59779">
        <ele>801.2</ele>
        <time>2026-05-11T14:42:13Z</time>
      </trkpt>
      <trkpt lat="45.97894" lon="5.59783">
        <ele>801.6</ele>
        <time>2026-05-11T14:42:14Z</time>
      </trkpt>
      <trkpt lat="45.9789" lon="5.59787">
        <ele>801.8</ele>
        <time>2026-05-11T14:42:15Z</time>
      </trkpt>
      <trkpt lat="45.97886" lon="5.59792">
        <ele>801.8</ele>
        <time>2026-05-11T14:42:16Z</time>
      </trkpt>
      <trkpt lat="45.97883" lon="5.59796">
        <ele>802</ele>
        <time>2026-05-11T14:42:17Z</time>
      </trkpt>
      <trkpt lat="45.97879" lon="5.59801">
        <ele>802.2</ele>
        <time>2026-05-11T14:42:18Z</time>
      </trkpt>
      <trkpt lat="45.97876" lon="5.59805">
        <ele>802.2</ele>
        <time>2026-05-11T14:42:19Z</time>
      </trkpt>
      <trkpt lat="45.97871" lon="5.59809">
        <ele>802.2</ele>
        <time>2026-05-11T14:42:20Z</time>
      </trkpt>
      <trkpt lat="45.97869" lon="5.59813">
        <ele>802.8</ele>
        <time>2026-05-11T14:42:21Z</time>
      </trkpt>
      <trkpt lat="45.97865" lon="5.59817">
        <ele>803.2</ele>
        <time>2026-05-11T14:42:22Z</time>
      </trkpt>
      <trkpt lat="45.97863" lon="5.59821">
        <ele>803.4</ele>
        <time>2026-05-11T14:42:23Z</time>
      </trkpt>
      <trkpt lat="45.97859" lon="5.59824">
        <ele>803.4</ele>
        <time>2026-05-11T14:42:24Z</time>
      </trkpt>
      <trkpt lat="45.97856" lon="5.59828">
        <ele>803.4</ele>
        <time>2026-05-11T14:42:25Z</time>
      </trkpt>
      <trkpt lat="45.97854" lon="5.59832">
        <ele>803.4</ele>
        <time>2026-05-11T14:42:26Z</time>
      </trkpt>
      <trkpt lat="45.9785" lon="5.59835">
        <ele>803.6</ele>
        <time>2026-05-11T14:42:27Z</time>
      </trkpt>
      <trkpt lat="45.97848" lon="5.59839">
        <ele>803.6</ele>
        <time>2026-05-11T14:42:28Z</time>
      </trkpt>
      <trkpt lat="45.97845" lon="5.59843">
        <ele>803.6</ele>
        <time>2026-05-11T14:42:29Z</time>
      </trkpt>
      <trkpt lat="45.97842" lon="5.59847">
        <ele>803.8</ele>
        <time>2026-05-11T14:42:30Z</time>
      </trkpt>
      <trkpt lat="45.9784" lon="5.59851">
        <ele>803.8</ele>
        <time>2026-05-11T14:42:31Z</time>
      </trkpt>
      <trkpt lat="45.97837" lon="5.59854">
        <ele>804.4</ele>
        <time>2026-05-11T14:42:32Z</time>
      </trkpt>
      <trkpt lat="45.97834" lon="5.59858">
        <ele>804.6</ele>
        <time>2026-05-11T14:42:33Z</time>
      </trkpt>
      <trkpt lat="45.97832" lon="5.59862">
        <ele>804.6</ele>
        <time>2026-05-11T14:42:34Z</time>
      </trkpt>
      <trkpt lat="45.97829" lon="5.59866">
        <ele>805</ele>
        <time>2026-05-11T14:42:35Z</time>
      </trkpt>
      <trkpt lat="45.97826" lon="5.59869">
        <ele>805</ele>
        <time>2026-05-11T14:42:36Z</time>
      </trkpt>
      <trkpt lat="45.97823" lon="5.59873">
        <ele>805.4</ele>
        <time>2026-05-11T14:42:37Z</time>
      </trkpt>
      <trkpt lat="45.97821" lon="5.59877">
        <ele>805.6</ele>
        <time>2026-05-11T14:42:38Z</time>
      </trkpt>
      <trkpt lat="45.97818" lon="5.5988">
        <ele>805.8</ele>
        <time>2026-05-11T14:42:39Z</time>
      </trkpt>
      <trkpt lat="45.97816" lon="5.59883">
        <ele>805.8</ele>
        <time>2026-05-11T14:42:40Z</time>
      </trkpt>
      <trkpt lat="45.97814" lon="5.59888">
        <ele>806.2</ele>
        <time>2026-05-11T14:42:41Z</time>
      </trkpt>
      <trkpt lat="45.97813" lon="5.59893">
        <ele>806.6</ele>
        <time>2026-05-11T14:42:42Z</time>
      </trkpt>
      <trkpt lat="45.97812" lon="5.59898">
        <ele>806.6</ele>
        <time>2026-05-11T14:42:43Z</time>
      </trkpt>
      <trkpt lat="45.9781" lon="5.59904">
        <ele>806.6</ele>
        <time>2026-05-11T14:42:44Z</time>
      </trkpt>
      <trkpt lat="45.97809" lon="5.59909">
        <ele>806.8</ele>
        <time>2026-05-11T14:42:45Z</time>
      </trkpt>
      <trkpt lat="45.97807" lon="5.59914">
        <ele>806.8</ele>
        <time>2026-05-11T14:42:46Z</time>
      </trkpt>
      <trkpt lat="45.97805" lon="5.59919">
        <ele>807.2</ele>
        <time>2026-05-11T14:42:47Z</time>
      </trkpt>
      <trkpt lat="45.97804" lon="5.59924">
        <ele>807.2</ele>
        <time>2026-05-11T14:42:48Z</time>
      </trkpt>
      <trkpt lat="45.97802" lon="5.59929">
        <ele>807.4</ele>
        <time>2026-05-11T14:42:49Z</time>
      </trkpt>
      <trkpt lat="45.978" lon="5.59934">
        <ele>807.4</ele>
        <time>2026-05-11T14:42:50Z</time>
      </trkpt>
      <trkpt lat="45.97798" lon="5.59939">
        <ele>807.4</ele>
        <time>2026-05-11T14:42:51Z</time>
      </trkpt>
      <trkpt lat="45.97796" lon="5.59944">
        <ele>807.4</ele>
        <time>2026-05-11T14:42:52Z</time>
      </trkpt>
      <trkpt lat="45.97794" lon="5.59949">
        <ele>807.4</ele>
        <time>2026-05-11T14:42:53Z</time>
      </trkpt>
      <trkpt lat="45.97793" lon="5.59954">
        <ele>807.6</ele>
        <time>2026-05-11T14:42:54Z</time>
      </trkpt>
      <trkpt lat="45.97792" lon="5.59959">
        <ele>808</ele>
        <time>2026-05-11T14:42:55Z</time>
      </trkpt>
      <trkpt lat="45.97792" lon="5.59965">
        <ele>808.2</ele>
        <time>2026-05-11T14:42:56Z</time>
      </trkpt>
      <trkpt lat="45.97792" lon="5.59971">
        <ele>808.2</ele>
        <time>2026-05-11T14:42:57Z</time>
      </trkpt>
      <trkpt lat="45.97792" lon="5.59977">
        <ele>808.2</ele>
        <time>2026-05-11T14:42:58Z</time>
      </trkpt>
      <trkpt lat="45.97792" lon="5.59983">
        <ele>808.6</ele>
        <time>2026-05-11T14:42:59Z</time>
      </trkpt>
      <trkpt lat="45.97792" lon="5.59988">
        <ele>808.6</ele>
        <time>2026-05-11T14:43:00Z</time>
      </trkpt>
      <trkpt lat="45.97791" lon="5.59993">
        <ele>808.6</ele>
        <time>2026-05-11T14:43:01Z</time>
      </trkpt>
      <trkpt lat="45.97791" lon="5.59997">
        <ele>809.2</ele>
        <time>2026-05-11T14:43:02Z</time>
      </trkpt>
      <trkpt lat="45.97791" lon="5.60002">
        <ele>809.2</ele>
        <time>2026-05-11T14:43:03Z</time>
      </trkpt>
      <trkpt lat="45.97791" lon="5.60007">
        <ele>809.6</ele>
        <time>2026-05-11T14:43:04Z</time>
      </trkpt>
      <trkpt lat="45.97791" lon="5.60011">
        <ele>809.8</ele>
        <time>2026-05-11T14:43:05Z</time>
      </trkpt>
      <trkpt lat="45.9779" lon="5.60015">
        <ele>810.2</ele>
        <time>2026-05-11T14:43:06Z</time>
      </trkpt>
      <trkpt lat="45.9779" lon="5.6002">
        <ele>810.2</ele>
        <time>2026-05-11T14:43:07Z</time>
      </trkpt>
      <trkpt lat="45.9779" lon="5.60024">
        <ele>810.6</ele>
        <time>2026-05-11T14:43:08Z</time>
      </trkpt>
      <trkpt lat="45.9779" lon="5.60028">
        <ele>810.8</ele>
        <time>2026-05-11T14:43:09Z</time>
      </trkpt>
      <trkpt lat="45.9779" lon="5.60032">
        <ele>811</ele>
        <time>2026-05-11T14:43:10Z</time>
      </trkpt>
      <trkpt lat="45.9779" lon="5.60036">
        <ele>811</ele>
        <time>2026-05-11T14:43:11Z</time>
      </trkpt>
      <trkpt lat="45.9779" lon="5.6004">
        <ele>811.2</ele>
        <time>2026-05-11T14:43:12Z</time>
      </trkpt>
      <trkpt lat="45.97791" lon="5.60044">
        <ele>811.2</ele>
        <time>2026-05-11T14:43:13Z</time>
      </trkpt>
      <trkpt lat="45.97791" lon="5.60049">
        <ele>811.2</ele>
        <time>2026-05-11T14:43:14Z</time>
      </trkpt>
      <trkpt lat="45.97792" lon="5.60054">
        <ele>811.2</ele>
        <time>2026-05-11T14:43:15Z</time>
      </trkpt>
      <trkpt lat="45.97792" lon="5.60054">
        <ele>811.6</ele>
        <time>2026-05-11T14:43:16Z</time>
      </trkpt>
      <trkpt lat="45.97793" lon="5.60059">
        <ele>811.6</ele>
        <time>2026-05-11T14:43:17Z</time>
      </trkpt>
      <trkpt lat="45.97795" lon="5.60063">
        <ele>811.6</ele>
        <time>2026-05-11T14:43:18Z</time>
      </trkpt>
      <trkpt lat="45.97796" lon="5.60068">
        <ele>811.8</ele>
        <time>2026-05-11T14:43:19Z</time>
      </trkpt>
      <trkpt lat="45.97798" lon="5.60072">
        <ele>811.8</ele>
        <time>2026-05-11T14:43:20Z</time>
      </trkpt>
      <trkpt lat="45.97799" lon="5.60076">
        <ele>811.8</ele>
        <time>2026-05-11T14:43:21Z</time>
      </trkpt>
      <trkpt lat="45.97801" lon="5.6008">
        <ele>811.8</ele>
        <time>2026-05-11T14:43:22Z</time>
      </trkpt>
      <trkpt lat="45.97803" lon="5.60085">
        <ele>811.8</ele>
        <time>2026-05-11T14:43:23Z</time>
      </trkpt>
      <trkpt lat="45.97805" lon="5.6009">
        <ele>811.8</ele>
        <time>2026-05-11T14:43:24Z</time>
      </trkpt>
      <trkpt lat="45.97807" lon="5.60095">
        <ele>811.8</ele>
        <time>2026-05-11T14:43:25Z</time>
      </trkpt>
      <trkpt lat="45.97809" lon="5.601">
        <ele>811.8</ele>
        <time>2026-05-11T14:43:26Z</time>
      </trkpt>
      <trkpt lat="45.97811" lon="5.60106">
        <ele>811.8</ele>
        <time>2026-05-11T14:43:27Z</time>
      </trkpt>
      <trkpt lat="45.97813" lon="5.60111">
        <ele>812</ele>
        <time>2026-05-11T14:43:28Z</time>
      </trkpt>
      <trkpt lat="45.97815" lon="5.60116">
        <ele>812</ele>
        <time>2026-05-11T14:43:29Z</time>
      </trkpt>
      <trkpt lat="45.97817" lon="5.60121">
        <ele>812</ele>
        <time>2026-05-11T14:43:30Z</time>
      </trkpt>
      <trkpt lat="45.97818" lon="5.60125">
        <ele>812</ele>
        <time>2026-05-11T14:43:31Z</time>
      </trkpt>
      <trkpt lat="45.9782" lon="5.6013">
        <ele>812.2</ele>
        <time>2026-05-11T14:43:32Z</time>
      </trkpt>
      <trkpt lat="45.97822" lon="5.60135">
        <ele>812.6</ele>
        <time>2026-05-11T14:43:33Z</time>
      </trkpt>
      <trkpt lat="45.97824" lon="5.6014">
        <ele>812.6</ele>
        <time>2026-05-11T14:43:34Z</time>
      </trkpt>
      <trkpt lat="45.97826" lon="5.60146">
        <ele>812.6</ele>
        <time>2026-05-11T14:43:35Z</time>
      </trkpt>
      <trkpt lat="45.97826" lon="5.60152">
        <ele>812.6</ele>
        <time>2026-05-11T14:43:36Z</time>
      </trkpt>
      <trkpt lat="45.97826" lon="5.60158">
        <ele>812.6</ele>
        <time>2026-05-11T14:43:37Z</time>
      </trkpt>
      <trkpt lat="45.97825" lon="5.60164">
        <ele>812.6</ele>
        <time>2026-05-11T14:43:38Z</time>
      </trkpt>
      <trkpt lat="45.97823" lon="5.60169">
        <ele>812.6</ele>
        <time>2026-05-11T14:43:39Z</time>
      </trkpt>
      <trkpt lat="45.97821" lon="5.60174">
        <ele>812.6</ele>
        <time>2026-05-11T14:43:40Z</time>
      </trkpt>
      <trkpt lat="45.97819" lon="5.60179">
        <ele>813.2</ele>
        <time>2026-05-11T14:43:41Z</time>
      </trkpt>
      <trkpt lat="45.97816" lon="5.60181">
        <ele>813.2</ele>
        <time>2026-05-11T14:43:42Z</time>
      </trkpt>
      <trkpt lat="45.97812" lon="5.60183">
        <ele>813.6</ele>
        <time>2026-05-11T14:43:43Z</time>
      </trkpt>
      <trkpt lat="45.97809" lon="5.60185">
        <ele>814</ele>
        <time>2026-05-11T14:43:44Z</time>
      </trkpt>
      <trkpt lat="45.97805" lon="5.60186">
        <ele>814.6</ele>
        <time>2026-05-11T14:43:45Z</time>
      </trkpt>
      <trkpt lat="45.97801" lon="5.60185">
        <ele>815</ele>
        <time>2026-05-11T14:43:46Z</time>
      </trkpt>
      <trkpt lat="45.97798" lon="5.60185">
        <ele>815.2</ele>
        <time>2026-05-11T14:43:47Z</time>
      </trkpt>
      <trkpt lat="45.97794" lon="5.60184">
        <ele>815.6</ele>
        <time>2026-05-11T14:43:48Z</time>
      </trkpt>
      <trkpt lat="45.97791" lon="5.60183">
        <ele>815.6</ele>
        <time>2026-05-11T14:43:49Z</time>
      </trkpt>
      <trkpt lat="45.97787" lon="5.60181">
        <ele>816</ele>
        <time>2026-05-11T14:43:50Z</time>
      </trkpt>
      <trkpt lat="45.97784" lon="5.6018">
        <ele>816.2</ele>
        <time>2026-05-11T14:43:51Z</time>
      </trkpt>
      <trkpt lat="45.97781" lon="5.60179">
        <ele>816.2</ele>
        <time>2026-05-11T14:43:52Z</time>
      </trkpt>
      <trkpt lat="45.97778" lon="5.60178">
        <ele>816.4</ele>
        <time>2026-05-11T14:43:53Z</time>
      </trkpt>
      <trkpt lat="45.97776" lon="5.60177">
        <ele>816.4</ele>
        <time>2026-05-11T14:43:54Z</time>
      </trkpt>
      <trkpt lat="45.97773" lon="5.60176">
        <ele>816.8</ele>
        <time>2026-05-11T14:43:55Z</time>
      </trkpt>
      <trkpt lat="45.9777" lon="5.60176">
        <ele>816.8</ele>
        <time>2026-05-11T14:43:56Z</time>
      </trkpt>
      <trkpt lat="45.97767" lon="5.60175">
        <ele>817</ele>
        <time>2026-05-11T14:43:57Z</time>
      </trkpt>
      <trkpt lat="45.97764" lon="5.60175">
        <ele>817.2</ele>
        <time>2026-05-11T14:43:58Z</time>
      </trkpt>
      <trkpt lat="45.97761" lon="5.60175">
        <ele>817.2</ele>
        <time>2026-05-11T14:43:59Z</time>
      </trkpt>
      <trkpt lat="45.97758" lon="5.60176">
        <ele>817.2</ele>
        <time>2026-05-11T14:44:00Z</time>
      </trkpt>
      <trkpt lat="45.97756" lon="5.60177">
        <ele>817.6</ele>
        <time>2026-05-11T14:44:01Z</time>
      </trkpt>
      <trkpt lat="45.97754" lon="5.60178">
        <ele>817.6</ele>
        <time>2026-05-11T14:44:02Z</time>
      </trkpt>
      <trkpt lat="45.97754" lon="5.60179">
        <ele>818</ele>
        <time>2026-05-11T14:44:03Z</time>
      </trkpt>
      <trkpt lat="45.97754" lon="5.60179">
        <ele>818</ele>
        <time>2026-05-11T14:44:04Z</time>
      </trkpt>
    </trkseg>
  </trk>
</gpx>